<?xml version='1.0' encoding='UTF-8'?><gpx version="1.1" creator="JPX - https://github.com/jenetics/jpx" xmlns="http://www.topografix.com/GPX/1/1"><trk><trkseg><trkpt lat="43.73208460548733" lon="10.485658292393335"><ele>16.0</ele><time>2026-04-04T08:18:37.001Z</time></trkpt><trkpt lat="43.73202091508117" lon="10.485697378577585"><ele>15.999999999999998</ele><time>2026-04-04T08:18:40.001Z</time></trkpt><trkpt lat="43.73194234218108" lon="10.485733581279858"><ele>16.0</ele><time>2026-04-04T08:18:42.001Z</time></trkpt><trkpt lat="43.73187850540628" lon="10.485775114604774"><ele>16.0</ele><time>2026-04-04T08:18:44.001Z</time></trkpt><trkpt lat="43.73181954896362" lon="10.485811178874716"><ele>15.999999999999998</ele><time>2026-04-04T08:18:46.001Z</time></trkpt><trkpt lat="43.731745535357504" lon="10.485859313617802"><ele>16.0</ele><time>2026-04-04T08:18:49.001Z</time></trkpt><trkpt lat="43.73168683095618" lon="10.485912231931765"><ele>16.0</ele><time>2026-04-04T08:19:20.001Z</time></trkpt><trkpt lat="43.73163190955421" lon="10.485955495357171"><ele>14.600000000000001</ele><time>2026-04-04T08:19:22.001Z</time></trkpt><trkpt lat="43.73157474466999" lon="10.485911410636506"><ele>13.200000000000001</ele><time>2026-04-04T08:19:25.001Z</time></trkpt><trkpt lat="43.73160336453711" lon="10.485762240190683"><ele>11.8</ele><time>2026-04-04T08:19:27.001Z</time></trkpt><trkpt lat="43.73159213819695" lon="10.485590674979743"><ele>10.4</ele><time>2026-04-04T08:19:28.001Z</time></trkpt><trkpt lat="43.73160466784561" lon="10.485448474585976"><ele>9.0</ele><time>2026-04-04T08:19:29.001Z</time></trkpt><trkpt lat="43.7316200318747" lon="10.485296115705411"><ele>9.0</ele><time>2026-04-04T08:19:30Z</time></trkpt><trkpt lat="43.73163170067135" lon="10.48514105193118"><ele>9.0</ele><time>2026-04-04T08:19:31Z</time></trkpt><trkpt lat="43.73164660793618" lon="10.484984003279667"><ele>9.0</ele><time>2026-04-04T08:19:32Z</time></trkpt><trkpt lat="43.73166596118718" lon="10.484836580410605"><ele>9.0</ele><time>2026-04-04T08:19:33Z</time></trkpt><trkpt lat="43.73169055647246" lon="10.484693411617252"><ele>9.0</ele><time>2026-04-04T08:19:34Z</time></trkpt><trkpt lat="43.731720938709095" lon="10.484543534766154"><ele>8.6</ele><time>2026-04-04T08:19:35Z</time></trkpt><trkpt lat="43.73175335454518" lon="10.484400047509514"><ele>8.2</ele><time>2026-04-04T08:19:36Z</time></trkpt><trkpt lat="43.73178817599071" lon="10.484255810598516"><ele>7.799999999999999</ele><time>2026-04-04T08:19:37Z</time></trkpt><trkpt lat="43.731820742073886" lon="10.484112137986852"><ele>7.3999999999999995</ele><time>2026-04-04T08:19:38Z</time></trkpt><trkpt lat="43.73185517401189" lon="10.483964913730546"><ele>7.0</ele><time>2026-04-04T08:19:39Z</time></trkpt><trkpt lat="43.731896730827394" lon="10.483815016651807"><ele>9.5</ele><time>2026-04-04T08:19:40Z</time></trkpt><trkpt lat="43.73193528589645" lon="10.483662658637178"><ele>12.0</ele><time>2026-04-04T08:19:41Z</time></trkpt><trkpt lat="43.73197356006877" lon="10.483504498608678"><ele>14.5</ele><time>2026-04-04T08:19:42Z</time></trkpt><trkpt lat="43.73200005426975" lon="10.483344152117716"><ele>17.0</ele><time>2026-04-04T08:19:43Z</time></trkpt><trkpt lat="43.732019515361024" lon="10.483180827946287"><ele>17.0</ele><time>2026-04-04T08:19:44Z</time></trkpt><trkpt lat="43.73202521803598" lon="10.483017607454277"><ele>17.0</ele><time>2026-04-04T08:19:45Z</time></trkpt><trkpt lat="43.73202011185687" lon="10.482859491500868"><ele>17.0</ele><time>2026-04-04T08:19:46Z</time></trkpt><trkpt lat="43.73200335945423" lon="10.48271080766295"><ele>17.0</ele><time>2026-04-04T08:19:47Z</time></trkpt><trkpt lat="43.73197466286268" lon="10.48256607638443"><ele>17.2</ele><time>2026-04-04T08:19:48Z</time></trkpt><trkpt lat="43.73193820764544" lon="10.482436400775313"><ele>17.4</ele><time>2026-04-04T08:19:49Z</time></trkpt><trkpt lat="43.73190383912411" lon="10.482329308669964"><ele>17.6</ele><time>2026-04-04T08:19:50Z</time></trkpt><trkpt lat="43.73188598226495" lon="10.48217983220102"><ele>17.8</ele><time>2026-04-04T08:19:51Z</time></trkpt><trkpt lat="43.731848096075254" lon="10.482046196325067"><ele>18.0</ele><time>2026-04-04T08:19:52Z</time></trkpt><trkpt lat="43.73182038985969" lon="10.48189279000723"><ele>15.4</ele><time>2026-04-04T08:19:53Z</time></trkpt><trkpt lat="43.731803703608406" lon="10.481746724441843"><ele>12.8</ele><time>2026-04-04T08:19:54Z</time></trkpt><trkpt lat="43.73178799606344" lon="10.48161433541201"><ele>10.2</ele><time>2026-04-04T08:19:55Z</time></trkpt><trkpt lat="43.731760855767774" lon="10.481487022116708"><ele>7.6</ele><time>2026-04-04T08:19:56Z</time></trkpt><trkpt lat="43.73172412397404" lon="10.481352330050646"><ele>5.0</ele><time>2026-04-04T08:19:57Z</time></trkpt><trkpt lat="43.73170810177602" lon="10.481207226346969"><ele>4.833333333333334</ele><time>2026-04-04T08:19:58Z</time></trkpt><trkpt lat="43.73170807746381" lon="10.481065413950157"><ele>4.666666666666667</ele><time>2026-04-04T08:19:59Z</time></trkpt><trkpt lat="43.731712338274725" lon="10.480948197898602"><ele>4.5</ele><time>2026-04-04T08:20:00Z</time></trkpt><trkpt lat="43.73171898488501" lon="10.480858076638599"><ele>4.333333333333333</ele><time>2026-04-04T08:20:01Z</time></trkpt><trkpt lat="43.731719801358494" lon="10.480707250288889"><ele>4.166666666666666</ele><time>2026-04-04T08:20:03Z</time></trkpt><trkpt lat="43.73172106960653" lon="10.480606210696196"><ele>4.0</ele><time>2026-04-04T08:20:05Z</time></trkpt><trkpt lat="43.7317725670669" lon="10.480431464264194"><ele>3.75</ele><time>2026-04-04T08:20:07Z</time></trkpt><trkpt lat="43.731834382127325" lon="10.480315060917336"><ele>3.5</ele><time>2026-04-04T08:20:08Z</time></trkpt><trkpt lat="43.731911633284966" lon="10.480196718772865"><ele>3.25</ele><time>2026-04-04T08:20:09Z</time></trkpt><trkpt lat="43.73199933372655" lon="10.480066781306986"><ele>3.0</ele><time>2026-04-04T08:20:10Z</time></trkpt><trkpt lat="43.73209476127665" lon="10.479927746214365"><ele>4.0</ele><time>2026-04-04T08:20:11Z</time></trkpt><trkpt lat="43.73219153189112" lon="10.479793251780793"><ele>5.0</ele><time>2026-04-04T08:20:12Z</time></trkpt><trkpt lat="43.73228617014752" lon="10.479665759270944"><ele>6.0</ele><time>2026-04-04T08:20:13Z</time></trkpt><trkpt lat="43.732379447999946" lon="10.479540664980403"><ele>7.0</ele><time>2026-04-04T08:20:14Z</time></trkpt><trkpt lat="43.73247505295428" lon="10.479421847484938"><ele>7.0</ele><time>2026-04-04T08:20:15Z</time></trkpt><trkpt lat="43.73257236143549" lon="10.479309048557925"><ele>7.0</ele><time>2026-04-04T08:20:16Z</time></trkpt><trkpt lat="43.73267437386932" lon="10.479197944598088"><ele>7.0</ele><time>2026-04-04T08:20:17Z</time></trkpt><trkpt lat="43.73277773921994" lon="10.47909348682056"><ele>7.0</ele><time>2026-04-04T08:20:18Z</time></trkpt><trkpt lat="43.73288456268619" lon="10.478992246455757"><ele>7.5</ele><time>2026-04-04T08:20:19Z</time></trkpt><trkpt lat="43.732991054184424" lon="10.47888876173139"><ele>8.0</ele><time>2026-04-04T08:20:20Z</time></trkpt><trkpt lat="43.73309764813537" lon="10.478786060604598"><ele>8.5</ele><time>2026-04-04T08:20:21Z</time></trkpt><trkpt lat="43.73320347740177" lon="10.47868075410128"><ele>9.0</ele><time>2026-04-04T08:20:22Z</time></trkpt><trkpt lat="43.733312419567405" lon="10.478573941478624"><ele>9.0</ele><time>2026-04-04T08:20:23Z</time></trkpt><trkpt lat="43.733423893781485" lon="10.478463519313488"><ele>9.0</ele><time>2026-04-04T08:20:24Z</time></trkpt><trkpt lat="43.73353811175854" lon="10.47834972961596"><ele>9.0</ele><time>2026-04-04T08:20:25Z</time></trkpt><trkpt lat="43.73365791980233" lon="10.478235882476802"><ele>9.0</ele><time>2026-04-04T08:20:26Z</time></trkpt><trkpt lat="43.73377686008286" lon="10.478120814241874"><ele>9.0</ele><time>2026-04-04T08:20:27Z</time></trkpt><trkpt lat="43.733890603327644" lon="10.478009190794777"><ele>9.0</ele><time>2026-04-04T08:20:28Z</time></trkpt><trkpt lat="43.733997478535905" lon="10.477908414346649"><ele>9.0</ele><time>2026-04-04T08:20:29Z</time></trkpt><trkpt lat="43.734107591053714" lon="10.477800256278488"><ele>9.0</ele><time>2026-04-04T08:20:30Z</time></trkpt><trkpt lat="43.73421895666402" lon="10.477693992689906"><ele>9.0</ele><time>2026-04-04T08:20:31Z</time></trkpt><trkpt lat="43.734330332426495" lon="10.477586810197149"><ele>9.0</ele><time>2026-04-04T08:20:32Z</time></trkpt><trkpt lat="43.73444230645098" lon="10.477478164310703"><ele>9.0</ele><time>2026-04-04T08:20:33Z</time></trkpt><trkpt lat="43.7345531601972" lon="10.47737329376695"><ele>9.0</ele><time>2026-04-04T08:20:34Z</time></trkpt><trkpt lat="43.7346657711829" lon="10.477264317480921"><ele>9.0</ele><time>2026-04-04T08:20:35Z</time></trkpt><trkpt lat="43.73477536094853" lon="10.47715100895125"><ele>9.0</ele><time>2026-04-04T08:20:36Z</time></trkpt><trkpt lat="43.73488413610127" lon="10.477036382049727"><ele>9.0</ele><time>2026-04-04T08:20:37Z</time></trkpt><trkpt lat="43.734987257658396" lon="10.476907109703529"><ele>9.0</ele><time>2026-04-04T08:20:38Z</time></trkpt><trkpt lat="43.735089434048746" lon="10.47676220453537"><ele>8.333333333333334</ele><time>2026-04-04T08:20:39Z</time></trkpt><trkpt lat="43.73518676601725" lon="10.476583540829088"><ele>7.666666666666667</ele><time>2026-04-04T08:20:40Z</time></trkpt><trkpt lat="43.735279182989935" lon="10.476377432536319"><ele>7.0</ele><time>2026-04-04T08:20:41Z</time></trkpt><trkpt lat="43.73534999275454" lon="10.476174032550386"><ele>6.5</ele><time>2026-04-04T08:20:42Z</time></trkpt><trkpt lat="43.735401695347704" lon="10.475973910049326"><ele>6.0</ele><time>2026-04-04T08:20:43Z</time></trkpt><trkpt lat="43.73544354123906" lon="10.475788312954743"><ele>5.5</ele><time>2026-04-04T08:20:44Z</time></trkpt><trkpt lat="43.73546895362992" lon="10.475584772530397"><ele>5.0</ele><time>2026-04-04T08:20:45Z</time></trkpt><trkpt lat="43.73548074502293" lon="10.475396620512212"><ele>5.0</ele><time>2026-04-04T08:20:46Z</time></trkpt><trkpt lat="43.735489004100714" lon="10.475221175495408"><ele>5.0</ele><time>2026-04-04T08:20:47Z</time></trkpt><trkpt lat="43.735488603053305" lon="10.475032294465898"><ele>5.0</ele><time>2026-04-04T08:20:48Z</time></trkpt><trkpt lat="43.735500350297876" lon="10.474843440095956"><ele>5.0</ele><time>2026-04-04T08:20:49Z</time></trkpt><trkpt lat="43.73551801007311" lon="10.474657794063186"><ele>4.75</ele><time>2026-04-04T08:20:50Z</time></trkpt><trkpt lat="43.735544987845564" lon="10.474490058710392"><ele>4.5</ele><time>2026-04-04T08:20:51Z</time></trkpt><trkpt lat="43.735580730507714" lon="10.474343518575386"><ele>4.25</ele><time>2026-04-04T08:20:52Z</time></trkpt><trkpt lat="43.735628275070205" lon="10.47419360300862"><ele>4.0</ele><time>2026-04-04T08:20:53Z</time></trkpt><trkpt lat="43.73568959269777" lon="10.474048675993526"><ele>4.0</ele><time>2026-04-04T08:20:54Z</time></trkpt><trkpt lat="43.73576162646483" lon="10.473920896513697"><ele>4.0</ele><time>2026-04-04T08:20:55Z</time></trkpt><trkpt lat="43.7358481860834" lon="10.473797760990715"><ele>4.0</ele><time>2026-04-04T08:20:56Z</time></trkpt><trkpt lat="43.73594833321089" lon="10.47370392546316"><ele>4.0</ele><time>2026-04-04T08:20:57Z</time></trkpt><trkpt lat="43.73605777576302" lon="10.473608373778132"><ele>4.25</ele><time>2026-04-04T08:20:58Z</time></trkpt><trkpt lat="43.73617542988981" lon="10.473532313743139"><ele>4.5</ele><time>2026-04-04T08:20:59Z</time></trkpt><trkpt lat="43.73630078908102" lon="10.47346839669824"><ele>4.75</ele><time>2026-04-04T08:21:00Z</time></trkpt><trkpt lat="43.73641973693941" lon="10.473411749450054"><ele>5.0</ele><time>2026-04-04T08:21:01Z</time></trkpt><trkpt lat="43.73654145018709" lon="10.473363771885733"><ele>5.0</ele><time>2026-04-04T08:21:02Z</time></trkpt><trkpt lat="43.73665749300516" lon="10.473325139233923"><ele>5.0</ele><time>2026-04-04T08:21:03Z</time></trkpt><trkpt lat="43.73677917012658" lon="10.473290043216755"><ele>5.0</ele><time>2026-04-04T08:21:04Z</time></trkpt><trkpt lat="43.736912224605184" lon="10.473291652052334"><ele>5.0</ele><time>2026-04-04T08:21:05Z</time></trkpt><trkpt lat="43.73705461263186" lon="10.473318784067217"><ele>5.0</ele><time>2026-04-04T08:21:06Z</time></trkpt><trkpt lat="43.73720036291096" lon="10.473339366009995"><ele>5.0</ele><time>2026-04-04T08:21:07Z</time></trkpt><trkpt lat="43.73735314567376" lon="10.473369116774448"><ele>5.0</ele><time>2026-04-04T08:21:08Z</time></trkpt><trkpt lat="43.7375083278467" lon="10.473392414876576"><ele>5.0</ele><time>2026-04-04T08:21:09Z</time></trkpt><trkpt lat="43.737676257254066" lon="10.473412154953314"><ele>5.0</ele><time>2026-04-04T08:21:10Z</time></trkpt><trkpt lat="43.737914098923675" lon="10.47345801724913"><ele>5.0</ele><time>2026-04-04T08:21:11Z</time></trkpt><trkpt lat="43.738177509063014" lon="10.473446057296155"><ele>5.5</ele><time>2026-04-04T08:21:12.001Z</time></trkpt><trkpt lat="43.738447789462334" lon="10.473402382780694"><ele>6.0</ele><time>2026-04-04T08:21:13.001Z</time></trkpt><trkpt lat="43.738681207981465" lon="10.473301142193394"><ele>5.0</ele><time>2026-04-04T08:21:14.001Z</time></trkpt><trkpt lat="43.73887919303855" lon="10.473171047326373"><ele>4.0</ele><time>2026-04-04T08:21:15.001Z</time></trkpt><trkpt lat="43.739058720688455" lon="10.47302730627219"><ele>3.0</ele><time>2026-04-04T08:21:16.001Z</time></trkpt><trkpt lat="43.739224445026395" lon="10.472862461915941"><ele>4.333333333333334</ele><time>2026-04-04T08:21:17.001Z</time></trkpt><trkpt lat="43.739385631588" lon="10.472675274883835"><ele>5.666666666666667</ele><time>2026-04-04T08:21:18Z</time></trkpt><trkpt lat="43.7395457462871" lon="10.472491634933013"><ele>7.0</ele><time>2026-04-04T08:21:19Z</time></trkpt><trkpt lat="43.73970168172538" lon="10.472298356564707"><ele>5.333333333333334</ele><time>2026-04-04T08:21:20Z</time></trkpt><trkpt lat="43.73985638221219" lon="10.472103900148392"><ele>3.666666666666667</ele><time>2026-04-04T08:21:21Z</time></trkpt><trkpt lat="43.740015068943706" lon="10.471907442996365"><ele>2.0</ele><time>2026-04-04T08:21:22Z</time></trkpt><trkpt lat="43.74017488729464" lon="10.47171266276479"><ele>2.6666666666666665</ele><time>2026-04-04T08:21:23Z</time></trkpt><trkpt lat="43.740334216758875" lon="10.471519608723955"><ele>3.333333333333333</ele><time>2026-04-04T08:21:24Z</time></trkpt><trkpt lat="43.7404936782401" lon="10.471325993085006"><ele>4.0</ele><time>2026-04-04T08:21:25Z</time></trkpt><trkpt lat="43.74065294181939" lon="10.471129691055447"><ele>4.0</ele><time>2026-04-04T08:21:26Z</time></trkpt><trkpt lat="43.74081142582583" lon="10.470933935493763"><ele>4.0</ele><time>2026-04-04T08:21:27Z</time></trkpt><trkpt lat="43.740965934270065" lon="10.470730936681626"><ele>4.0</ele><time>2026-04-04T08:21:28Z</time></trkpt><trkpt lat="43.741097573098656" lon="10.470507086258188"><ele>9.666666666666666</ele><time>2026-04-04T08:21:29Z</time></trkpt><trkpt lat="43.74119453836491" lon="10.470250325854678"><ele>15.333333333333334</ele><time>2026-04-04T08:21:30Z</time></trkpt><trkpt lat="43.741255555073536" lon="10.469973653937826"><ele>21.0</ele><time>2026-04-04T08:21:31Z</time></trkpt><trkpt lat="43.741310888515144" lon="10.469690380205467"><ele>17.0</ele><time>2026-04-04T08:21:32Z</time></trkpt><trkpt lat="43.74138396589784" lon="10.469422728968574"><ele>13.0</ele><time>2026-04-04T08:21:33Z</time></trkpt><trkpt lat="43.74148724134149" lon="10.469171341044845"><ele>9.0</ele><time>2026-04-04T08:21:34Z</time></trkpt><trkpt lat="43.741622874010595" lon="10.468939034517504"><ele>7.333333333333333</ele><time>2026-04-04T08:21:35Z</time></trkpt><trkpt lat="43.741778554535976" lon="10.468740717114771"><ele>5.666666666666666</ele><time>2026-04-04T08:21:36Z</time></trkpt><trkpt lat="43.74197235610613" lon="10.468620177056051"><ele>4.0</ele><time>2026-04-04T08:21:37Z</time></trkpt><trkpt lat="43.74216431047331" lon="10.468489348731678"><ele>4.0</ele><time>2026-04-04T08:21:38Z</time></trkpt><trkpt lat="43.74236150892444" lon="10.468384259337855"><ele>4.0</ele><time>2026-04-04T08:21:39Z</time></trkpt><trkpt lat="43.74254917356731" lon="10.468240368912749"><ele>4.0</ele><time>2026-04-04T08:21:40Z</time></trkpt><trkpt lat="43.74272267579283" lon="10.468064470865624"><ele>3.0</ele><time>2026-04-04T08:21:41Z</time></trkpt><trkpt lat="43.74289142210679" lon="10.467886324379705"><ele>2.0</ele><time>2026-04-04T08:21:42Z</time></trkpt><trkpt lat="43.743061695832665" lon="10.46770788751923"><ele>1.0</ele><time>2026-04-04T08:21:43Z</time></trkpt><trkpt lat="43.74323466782602" lon="10.467542776113575"><ele>1.0</ele><time>2026-04-04T08:21:44Z</time></trkpt><trkpt lat="43.74341482339974" lon="10.467398183048175"><ele>1.0</ele><time>2026-04-04T08:21:45Z</time></trkpt><trkpt lat="43.74360307022961" lon="10.467263826864288"><ele>1.0</ele><time>2026-04-04T08:21:46Z</time></trkpt><trkpt lat="43.74378978977258" lon="10.467133653113107"><ele>1.6666666666666665</ele><time>2026-04-04T08:21:47Z</time></trkpt><trkpt lat="43.74397268172471" lon="10.466997304003137"><ele>2.3333333333333335</ele><time>2026-04-04T08:21:48Z</time></trkpt><trkpt lat="43.74415584541196" lon="10.466843692878209"><ele>3.0</ele><time>2026-04-04T08:21:49Z</time></trkpt><trkpt lat="43.7443333908285" lon="10.466688243493959"><ele>3.0</ele><time>2026-04-04T08:21:50Z</time></trkpt><trkpt lat="43.744513610120926" lon="10.466522169450693"><ele>3.0</ele><time>2026-04-04T08:21:51Z</time></trkpt><trkpt lat="43.744689774947766" lon="10.466366109835183"><ele>3.0</ele><time>2026-04-04T08:21:52Z</time></trkpt><trkpt lat="43.74486924686328" lon="10.466206514218461"><ele>3.0</ele><time>2026-04-04T08:21:53Z</time></trkpt><trkpt lat="43.74504555637756" lon="10.466049158180107"><ele>3.0</ele><time>2026-04-04T08:21:54Z</time></trkpt><trkpt lat="43.74522054128461" lon="10.46588935961167"><ele>3.0</ele><time>2026-04-04T08:21:55Z</time></trkpt><trkpt lat="43.745396894718255" lon="10.465731902102782"><ele>3.0</ele><time>2026-04-04T08:21:56Z</time></trkpt><trkpt lat="43.7455711926736" lon="10.465578072277186"><ele>3.0</ele><time>2026-04-04T08:21:57Z</time></trkpt><trkpt lat="43.74574960477576" lon="10.46542194005778"><ele>3.0</ele><time>2026-04-04T08:21:58Z</time></trkpt><trkpt lat="43.74592341635562" lon="10.46526498324949"><ele>4.0</ele><time>2026-04-04T08:21:59Z</time></trkpt><trkpt lat="43.7461026630858" lon="10.465109813726553"><ele>5.0</ele><time>2026-04-04T08:22:00Z</time></trkpt><trkpt lat="43.7462827642886" lon="10.464951465148062"><ele>6.0</ele><time>2026-04-04T08:22:01Z</time></trkpt><trkpt lat="43.74645366164326" lon="10.464800375750409"><ele>6.0</ele><time>2026-04-04T08:22:02Z</time></trkpt><trkpt lat="43.746606195895865" lon="10.464666630674108"><ele>6.0</ele><time>2026-04-04T08:22:03Z</time></trkpt><trkpt lat="43.7467482552645" lon="10.464540371210031"><ele>6.0</ele><time>2026-04-04T08:22:04Z</time></trkpt><trkpt lat="43.74687584648103" lon="10.464427649288352"><ele>5.5</ele><time>2026-04-04T08:22:05Z</time></trkpt><trkpt lat="43.746998953426456" lon="10.464319845987985"><ele>5.0</ele><time>2026-04-04T08:22:06Z</time></trkpt><trkpt lat="43.74710961205966" lon="10.4642232191202"><ele>4.5</ele><time>2026-04-04T08:22:07Z</time></trkpt><trkpt lat="43.74721684163188" lon="10.46412751773611"><ele>4.0</ele><time>2026-04-04T08:22:08Z</time></trkpt><trkpt lat="43.74730511892881" lon="10.464036567098436"><ele>3.9999999999999996</ele><time>2026-04-04T08:22:09Z</time></trkpt><trkpt lat="43.74737184509055" lon="10.463959118952925"><ele>4.0</ele><time>2026-04-04T08:22:10Z</time></trkpt><trkpt lat="43.747423038842406" lon="10.463896298485091"><ele>4.0</ele><time>2026-04-04T08:22:11Z</time></trkpt><trkpt lat="43.74748553017649" lon="10.463811293794585"><ele>4.0</ele><time>2026-04-04T08:22:13Z</time></trkpt><trkpt lat="43.74754360544195" lon="10.4637207958399"><ele>3.9999999999999996</ele><time>2026-04-04T08:22:17Z</time></trkpt><trkpt lat="43.74760667796621" lon="10.463626097117956"><ele>4.0</ele><time>2026-04-04T08:22:20Z</time></trkpt><trkpt lat="43.74765932118667" lon="10.463540939189043"><ele>4.0</ele><time>2026-04-04T08:22:23Z</time></trkpt><trkpt lat="43.7477055578337" lon="10.463460241939334"><ele>4.0</ele><time>2026-04-04T08:22:25Z</time></trkpt><trkpt lat="43.747747500942694" lon="10.463347579528254"><ele>4.0</ele><time>2026-04-04T08:22:28Z</time></trkpt><trkpt lat="43.74780417916132" lon="10.4632480263242"><ele>4.0</ele><time>2026-04-04T08:22:30Z</time></trkpt><trkpt lat="43.74786524829562" lon="10.46315048070823"><ele>4.0</ele><time>2026-04-04T08:22:32Z</time></trkpt><trkpt lat="43.74792811221803" lon="10.462970110458777"><ele>3.6</ele><time>2026-04-04T08:22:34Z</time></trkpt><trkpt lat="43.747978900682355" lon="10.462846776197413"><ele>3.2</ele><time>2026-04-04T08:22:35Z</time></trkpt><trkpt lat="43.74803604017438" lon="10.462720549105484"><ele>2.8000000000000003</ele><time>2026-04-04T08:22:36Z</time></trkpt><trkpt lat="43.74808519884919" lon="10.462592719888706"><ele>2.4000000000000004</ele><time>2026-04-04T08:22:37Z</time></trkpt><trkpt lat="43.74812742911607" lon="10.462459871050562"><ele>2.0</ele><time>2026-04-04T08:22:38Z</time></trkpt><trkpt lat="43.74816979902152" lon="10.462317049371185"><ele>2.0</ele><time>2026-04-04T08:22:39Z</time></trkpt><trkpt lat="43.7482136506782" lon="10.46216785384286"><ele>2.0</ele><time>2026-04-04T08:22:40Z</time></trkpt><trkpt lat="43.74826243431818" lon="10.462007956051965"><ele>2.0</ele><time>2026-04-04T08:22:41Z</time></trkpt><trkpt lat="43.74830955925408" lon="10.46183017601777"><ele>2.0</ele><time>2026-04-04T08:22:42Z</time></trkpt><trkpt lat="43.74835962501819" lon="10.461641264403982"><ele>1.6666666666666665</ele><time>2026-04-04T08:22:43Z</time></trkpt><trkpt lat="43.748412723325984" lon="10.461449781217784"><ele>1.3333333333333333</ele><time>2026-04-04T08:22:44Z</time></trkpt><trkpt lat="43.74846846238024" lon="10.461241950336033"><ele>1.0</ele><time>2026-04-04T08:22:45Z</time></trkpt><trkpt lat="43.748528631184335" lon="10.461013828103045"><ele>1.0</ele><time>2026-04-04T08:22:46Z</time></trkpt><trkpt lat="43.7485936130391" lon="10.46076317432064"><ele>1.0</ele><time>2026-04-04T08:22:47Z</time></trkpt><trkpt lat="43.74866994272266" lon="10.460491129129194"><ele>1.0</ele><time>2026-04-04T08:22:48Z</time></trkpt><trkpt lat="43.74876539012315" lon="10.460173175524588"><ele>1.5</ele><time>2026-04-04T08:22:49Z</time></trkpt><trkpt lat="43.74888092793284" lon="10.459786058105058"><ele>2.0</ele><time>2026-04-04T08:22:50Z</time></trkpt><trkpt lat="43.74899536382813" lon="10.459391796213195"><ele>1.0</ele><time>2026-04-04T08:22:51Z</time></trkpt><trkpt lat="43.74910008796329" lon="10.459059775320917"><ele>0.0</ele><time>2026-04-04T08:22:52Z</time></trkpt><trkpt lat="43.74919570978764" lon="10.458760561861627"><ele>0.0</ele><time>2026-04-04T08:22:53Z</time></trkpt><trkpt lat="43.749279525764294" lon="10.458507070602206"><ele>0.0</ele><time>2026-04-04T08:22:54Z</time></trkpt><trkpt lat="43.74935182947566" lon="10.45825618443732"><ele>0.0</ele><time>2026-04-04T08:22:55Z</time></trkpt><trkpt lat="43.74942435158537" lon="10.458026313000587"><ele>-0.6666666666666666</ele><time>2026-04-04T08:22:56Z</time></trkpt><trkpt lat="43.74948521024697" lon="10.457798410342425"><ele>-1.3333333333333333</ele><time>2026-04-04T08:22:57Z</time></trkpt><trkpt lat="43.74955647606118" lon="10.457554065227331"><ele>-2.0</ele><time>2026-04-04T08:22:58Z</time></trkpt><trkpt lat="43.74964238126772" lon="10.457262247598294"><ele>-2.0</ele><time>2026-04-04T08:22:59Z</time></trkpt><trkpt lat="43.74973009075067" lon="10.456923764739647"><ele>-2.0</ele><time>2026-04-04T08:23:00Z</time></trkpt><trkpt lat="43.74982482210086" lon="10.456584960413009"><ele>-2.0</ele><time>2026-04-04T08:23:01Z</time></trkpt><trkpt lat="43.749928527788896" lon="10.456284379326037"><ele>-2.0</ele><time>2026-04-04T08:23:02Z</time></trkpt><trkpt lat="43.750013381573766" lon="10.456013264909082"><ele>-2.0</ele><time>2026-04-04T08:23:03Z</time></trkpt><trkpt lat="43.750086804489534" lon="10.455761498329828"><ele>-2.0</ele><time>2026-04-04T08:23:04Z</time></trkpt><trkpt lat="43.75015920644403" lon="10.455521044464561"><ele>-2.0</ele><time>2026-04-04T08:23:05Z</time></trkpt><trkpt lat="43.75022887854539" lon="10.455279815901214"><ele>-1.0</ele><time>2026-04-04T08:23:06Z</time></trkpt><trkpt lat="43.75030185931538" lon="10.455043244900208"><ele>0.0</ele><time>2026-04-04T08:23:07Z</time></trkpt><trkpt lat="43.75036527631736" lon="10.454821251964653"><ele>1.0</ele><time>2026-04-04T08:23:08Z</time></trkpt><trkpt lat="43.75042681825517" lon="10.454617040700441"><ele>2.5</ele><time>2026-04-04T08:23:09Z</time></trkpt><trkpt lat="43.75048366838353" lon="10.454425559701168"><ele>4.0</ele><time>2026-04-04T08:23:10Z</time></trkpt><trkpt lat="43.75054382869441" lon="10.454228075806261"><ele>5.5</ele><time>2026-04-04T08:23:11Z</time></trkpt><trkpt lat="43.7505964002771" lon="10.454044988591582"><ele>7.0</ele><time>2026-04-04T08:23:12Z</time></trkpt><trkpt lat="43.750647562029" lon="10.453871285353216"><ele>7.0</ele><time>2026-04-04T08:23:13Z</time></trkpt><trkpt lat="43.7506925660842" lon="10.45371315158736"><ele>7.0</ele><time>2026-04-04T08:23:14Z</time></trkpt><trkpt lat="43.75073883973725" lon="10.4535583666694"><ele>7.0</ele><time>2026-04-04T08:23:15Z</time></trkpt><trkpt lat="43.75079680129549" lon="10.453409692036947"><ele>7.0</ele><time>2026-04-04T08:23:16Z</time></trkpt><trkpt lat="43.750865939245664" lon="10.453263612500356"><ele>7.0</ele><time>2026-04-04T08:23:17Z</time></trkpt><trkpt lat="43.75095071368716" lon="10.453134081502057"><ele>7.0</ele><time>2026-04-04T08:23:18Z</time></trkpt><trkpt lat="43.75104747536526" lon="10.453016455003203"><ele>7.0</ele><time>2026-04-04T08:23:19Z</time></trkpt><trkpt lat="43.751158899378446" lon="10.452907235292617"><ele>7.0</ele><time>2026-04-04T08:23:20Z</time></trkpt><trkpt lat="43.75126928907805" lon="10.452808276293341"><ele>7.5</ele><time>2026-04-04T08:23:21Z</time></trkpt><trkpt lat="43.751389977215894" lon="10.452717487636297"><ele>8.0</ele><time>2026-04-04T08:23:22Z</time></trkpt><trkpt lat="43.751497888007826" lon="10.452609252700256"><ele>8.5</ele><time>2026-04-04T08:23:23Z</time></trkpt><trkpt lat="43.751611153334615" lon="10.452506896893356"><ele>9.0</ele><time>2026-04-04T08:23:24Z</time></trkpt><trkpt lat="43.7517177106131" lon="10.45239941915936"><ele>9.0</ele><time>2026-04-04T08:23:25Z</time></trkpt><trkpt lat="43.75183013775547" lon="10.452284407879603"><ele>9.0</ele><time>2026-04-04T08:23:26Z</time></trkpt><trkpt lat="43.75192979382191" lon="10.45214719698551"><ele>9.0</ele><time>2026-04-04T08:23:27Z</time></trkpt><trkpt lat="43.752027330058546" lon="10.451980670091706"><ele>9.0</ele><time>2026-04-04T08:23:28Z</time></trkpt><trkpt lat="43.75210747481084" lon="10.451785405390906"><ele>9.0</ele><time>2026-04-04T08:23:29Z</time></trkpt><trkpt lat="43.752179852627364" lon="10.451585570427437"><ele>9.0</ele><time>2026-04-04T08:23:30Z</time></trkpt><trkpt lat="43.75223682738604" lon="10.451404247111732"><ele>9.0</ele><time>2026-04-04T08:23:31Z</time></trkpt><trkpt lat="43.75228208805916" lon="10.451232725388756"><ele>9.0</ele><time>2026-04-04T08:23:32Z</time></trkpt><trkpt lat="43.752337206882466" lon="10.451073950678294"><ele>9.0</ele><time>2026-04-04T08:23:33Z</time></trkpt><trkpt lat="43.752392279549966" lon="10.450899761707035"><ele>9.0</ele><time>2026-04-04T08:23:34Z</time></trkpt><trkpt lat="43.752447472455685" lon="10.450708425198641"><ele>9.0</ele><time>2026-04-04T08:23:35Z</time></trkpt><trkpt lat="43.752498752568414" lon="10.450518529644109"><ele>9.0</ele><time>2026-04-04T08:23:36Z</time></trkpt><trkpt lat="43.7525469944117" lon="10.450309884399102"><ele>8.0</ele><time>2026-04-04T08:23:37Z</time></trkpt><trkpt lat="43.75258475608658" lon="10.450091898073623"><ele>7.0</ele><time>2026-04-04T08:23:38Z</time></trkpt><trkpt lat="43.75261502299362" lon="10.449893664121722"><ele>6.0</ele><time>2026-04-04T08:23:39Z</time></trkpt><trkpt lat="43.752643809786434" lon="10.449712290416436"><ele>5.0</ele><time>2026-04-04T08:23:40Z</time></trkpt><trkpt lat="43.75267351053022" lon="10.449548302061123"><ele>5.0</ele><time>2026-04-04T08:23:41Z</time></trkpt><trkpt lat="43.75270141720593" lon="10.449391764388483"><ele>5.0</ele><time>2026-04-04T08:23:42Z</time></trkpt><trkpt lat="43.75272597569041" lon="10.44924842729815"><ele>5.0</ele><time>2026-04-04T08:23:43Z</time></trkpt><trkpt lat="43.75275350394256" lon="10.449082282607092"><ele>5.0</ele><time>2026-04-04T08:23:44Z</time></trkpt><trkpt lat="43.752776899178585" lon="10.448882506072284"><ele>16.0</ele><time>2026-04-04T08:23:45Z</time></trkpt><trkpt lat="43.75280308836965" lon="10.44861152542433"><ele>27.0</ele><time>2026-04-04T08:23:46Z</time></trkpt><trkpt lat="43.752823277971956" lon="10.448369598897743"><ele>38.0</ele><time>2026-04-04T08:23:47Z</time></trkpt><trkpt lat="43.752830225848946" lon="10.448148796158451"><ele>36.75</ele><time>2026-04-04T08:23:48Z</time></trkpt><trkpt lat="43.75281976982669" lon="10.447950158498196"><ele>35.5</ele><time>2026-04-04T08:23:49Z</time></trkpt><trkpt lat="43.752800220495914" lon="10.447765777015011"><ele>34.25</ele><time>2026-04-04T08:23:50Z</time></trkpt><trkpt lat="43.75278228210076" lon="10.447594141218428"><ele>33.0</ele><time>2026-04-04T08:23:51Z</time></trkpt><trkpt lat="43.752767638261744" lon="10.447421121686403"><ele>33.0</ele><time>2026-04-04T08:23:52Z</time></trkpt><trkpt lat="43.752755044916036" lon="10.447245150673343"><ele>33.0</ele><time>2026-04-04T08:23:53Z</time></trkpt><trkpt lat="43.75274479839916" lon="10.447065184085835"><ele>33.0</ele><time>2026-04-04T08:23:54Z</time></trkpt><trkpt lat="43.752739536565926" lon="10.446889385593547"><ele>33.0</ele><time>2026-04-04T08:23:55Z</time></trkpt><trkpt lat="43.75274339724048" lon="10.446712811035733"><ele>29.0</ele><time>2026-04-04T08:23:56Z</time></trkpt><trkpt lat="43.75276751994546" lon="10.446534479644928"><ele>25.0</ele><time>2026-04-04T08:23:57Z</time></trkpt><trkpt lat="43.75280577696657" lon="10.446360745516433"><ele>21.0</ele><time>2026-04-04T08:23:58Z</time></trkpt><trkpt lat="43.75285742592074" lon="10.446202171961469"><ele>17.0</ele><time>2026-04-04T08:23:59Z</time></trkpt><trkpt lat="43.75291266563818" lon="10.446055547541091"><ele>15.5</ele><time>2026-04-04T08:24:00Z</time></trkpt><trkpt lat="43.75296542683159" lon="10.445918351775342"><ele>14.0</ele><time>2026-04-04T08:24:01Z</time></trkpt><trkpt lat="43.75301511638366" lon="10.445778928723588"><ele>12.5</ele><time>2026-04-04T08:24:02Z</time></trkpt><trkpt lat="43.75306339087023" lon="10.445634977200188"><ele>11.0</ele><time>2026-04-04T08:24:03Z</time></trkpt><trkpt lat="43.75310662361697" lon="10.445487770535015"><ele>5.0</ele><time>2026-04-04T08:24:04Z</time></trkpt><trkpt lat="43.753603409563325" lon="10.444180001801756"><ele>5.0</ele><time>2026-04-04T08:24:14.208Z</time></trkpt><trkpt lat="43.753727175966674" lon="10.4440697088926"><ele>5.0</ele><time>2026-04-04T08:24:15.592Z</time></trkpt><trkpt lat="43.754185406452955" lon="10.444091652659871"><ele>5.0</ele><time>2026-04-04T08:24:16.213Z</time></trkpt><trkpt lat="43.75428807770054" lon="10.444100407164838"><ele>5.0</ele><time>2026-04-04T08:24:16.843Z</time></trkpt><trkpt lat="43.75436045319708" lon="10.44409314101562"><ele>5.0</ele><time>2026-04-04T08:24:17.473Z</time></trkpt><trkpt lat="43.75442824264502" lon="10.444084647669964"><ele>5.0</ele><time>2026-04-04T08:24:18.103Z</time></trkpt><trkpt lat="43.7544977510381" lon="10.444076359568593"><ele>5.0</ele><time>2026-04-04T08:24:18.733Z</time></trkpt><trkpt lat="43.75459427573718" lon="10.444066698000029"><ele>5.0</ele><time>2026-04-04T08:24:19.603Z</time></trkpt><trkpt lat="43.75469239749287" lon="10.444056635498933"><ele>5.75</ele><time>2026-04-04T08:24:20.503Z</time></trkpt><trkpt lat="43.75480163715903" lon="10.444043447627676"><ele>6.5</ele><time>2026-04-04T08:24:21.5Z</time></trkpt><trkpt lat="43.75491399685311" lon="10.444030079228268"><ele>7.25</ele><time>2026-04-04T08:24:22.5Z</time></trkpt><trkpt lat="43.75502913734504" lon="10.444018296357706"><ele>8.0</ele><time>2026-04-04T08:24:23.5Z</time></trkpt><trkpt lat="43.75514459881582" lon="10.44400478034558"><ele>8.25</ele><time>2026-04-04T08:24:24.5Z</time></trkpt><trkpt lat="43.75526293353154" lon="10.443990177989557"><ele>8.5</ele><time>2026-04-04T08:24:25.5Z</time></trkpt><trkpt lat="43.75538259403645" lon="10.443976580036074"><ele>8.75</ele><time>2026-04-04T08:24:26.5Z</time></trkpt><trkpt lat="43.75550392787482" lon="10.443962237467764"><ele>9.0</ele><time>2026-04-04T08:24:27.5Z</time></trkpt><trkpt lat="43.7556248411508" lon="10.443947458889882"><ele>9.0</ele><time>2026-04-04T08:24:28.5Z</time></trkpt><trkpt lat="43.755752086095555" lon="10.443932113778388"><ele>9.0</ele><time>2026-04-04T08:24:29.5Z</time></trkpt><trkpt lat="43.7558173937154" lon="10.443922758009906"><ele>9.0</ele><time>2026-04-04T08:24:30Z</time></trkpt><trkpt lat="43.75588225126237" lon="10.443914754159103"><ele>9.0</ele><time>2026-04-04T08:24:30.5Z</time></trkpt><trkpt lat="43.75594654326683" lon="10.443906420957994"><ele>9.0</ele><time>2026-04-04T08:24:31Z</time></trkpt><trkpt lat="43.756077980818645" lon="10.443889361994247"><ele>7.6000000000000005</ele><time>2026-04-04T08:24:32Z</time></trkpt><trkpt lat="43.75614532893819" lon="10.443882609480225"><ele>6.2</ele><time>2026-04-04T08:24:32.5Z</time></trkpt><trkpt lat="43.756213309299795" lon="10.443874031435268"><ele>4.800000000000001</ele><time>2026-04-04T08:24:33Z</time></trkpt><trkpt lat="43.75634765826458" lon="10.443858281535224"><ele>3.4000000000000004</ele><time>2026-04-04T08:24:34Z</time></trkpt><trkpt lat="43.756414384681335" lon="10.44385077391407"><ele>2.0</ele><time>2026-04-04T08:24:34.5Z</time></trkpt><trkpt lat="43.75654769809134" lon="10.443834080403782"><ele>2.0</ele><time>2026-04-04T08:24:35.5Z</time></trkpt><trkpt lat="43.756613847047085" lon="10.44382478901849"><ele>2.0</ele><time>2026-04-04T08:24:36Z</time></trkpt><trkpt lat="43.756746679417724" lon="10.443809805687884"><ele>2.0</ele><time>2026-04-04T08:24:37Z</time></trkpt><trkpt lat="43.75687720482165" lon="10.44379563562517"><ele>2.0</ele><time>2026-04-04T08:24:38Z</time></trkpt><trkpt lat="43.756989186234826" lon="10.443783208640408"><ele>2.0</ele><time>2026-04-04T08:24:39Z</time></trkpt><trkpt lat="43.75710146303717" lon="10.443770276951048"><ele>2.0</ele><time>2026-04-04T08:24:40Z</time></trkpt><trkpt lat="43.757207864852006" lon="10.443757294736136"><ele>2.0</ele><time>2026-04-04T08:24:41Z</time></trkpt><trkpt lat="43.75731453470238" lon="10.443743475917955"><ele>2.0</ele><time>2026-04-04T08:24:42Z</time></trkpt><trkpt lat="43.757422215709205" lon="10.44372373669581"><ele>2.0</ele><time>2026-04-04T08:24:43Z</time></trkpt><trkpt lat="43.75751558722713" lon="10.44368644950925"><ele>2.0</ele><time>2026-04-04T08:24:44Z</time></trkpt><trkpt lat="43.7576091525469" lon="10.443647135444676"><ele>1.9999999999999998</ele><time>2026-04-04T08:24:45Z</time></trkpt><trkpt lat="43.75768157770264" lon="10.443591877064014"><ele>2.0</ele><time>2026-04-04T08:24:46Z</time></trkpt><trkpt lat="43.757735513743405" lon="10.44353857534421"><ele>2.0</ele><time>2026-04-04T08:24:47Z</time></trkpt><trkpt lat="43.757847316124746" lon="10.443481666085626"><ele>2.0</ele><time>2026-04-04T08:24:49Z</time></trkpt><trkpt lat="43.757919902074" lon="10.443439331516666"><ele>1.9999999999999998</ele><time>2026-04-04T08:24:50Z</time></trkpt><trkpt lat="43.757994211831345" lon="10.443342632227342"><ele>2.0</ele><time>2026-04-04T08:24:51Z</time></trkpt><trkpt lat="43.75808445629566" lon="10.443247418947218"><ele>2.25</ele><time>2026-04-04T08:24:52Z</time></trkpt><trkpt lat="43.75818577158714" lon="10.44316813989588"><ele>2.5</ele><time>2026-04-04T08:24:53Z</time></trkpt><trkpt lat="43.75829436315079" lon="10.443081833857804"><ele>2.75</ele><time>2026-04-04T08:24:54Z</time></trkpt><trkpt lat="43.75840601205976" lon="10.442992997343422"><ele>3.0</ele><time>2026-04-04T08:24:55Z</time></trkpt><trkpt lat="43.75851719584553" lon="10.442900420512824"><ele>3.0</ele><time>2026-04-04T08:24:56Z</time></trkpt><trkpt lat="43.75862277712255" lon="10.442811120629287"><ele>3.0</ele><time>2026-04-04T08:24:57Z</time></trkpt><trkpt lat="43.75871871535201" lon="10.44272834712825"><ele>3.0</ele><time>2026-04-04T08:24:58Z</time></trkpt><trkpt lat="43.758805737953246" lon="10.442650149736382"><ele>3.0</ele><time>2026-04-04T08:24:59Z</time></trkpt><trkpt lat="43.75888695815614" lon="10.44257892919787"><ele>3.0</ele><time>2026-04-04T08:25:00Z</time></trkpt><trkpt lat="43.75896108979474" lon="10.442515422255346"><ele>3.0</ele><time>2026-04-04T08:25:01Z</time></trkpt><trkpt lat="43.7590301533669" lon="10.442456598073097"><ele>3.0</ele><time>2026-04-04T08:25:02Z</time></trkpt><trkpt lat="43.75908588596034" lon="10.442403140568857"><ele>3.0</ele><time>2026-04-04T08:25:03Z</time></trkpt><trkpt lat="43.75915506880143" lon="10.442333162173945"><ele>3.0</ele><time>2026-04-04T08:25:05Z</time></trkpt><trkpt lat="43.7591974354345" lon="10.44224631251786"><ele>3.0</ele><time>2026-04-04T08:25:08Z</time></trkpt><trkpt lat="43.75925853086439" lon="10.442177008829557"><ele>3.0</ele><time>2026-04-04T08:26:34Z</time></trkpt><trkpt lat="43.75931053821253" lon="10.442080066508405"><ele>3.2</ele><time>2026-04-04T08:26:36Z</time></trkpt><trkpt lat="43.75934709208715" lon="10.44196152835308"><ele>3.4</ele><time>2026-04-04T08:26:38Z</time></trkpt><trkpt lat="43.759396476242685" lon="10.44185786631838"><ele>3.6000000000000005</ele><time>2026-04-04T08:26:40Z</time></trkpt><trkpt lat="43.759480181612595" lon="10.44182222662829"><ele>3.8000000000000003</ele><time>2026-04-04T08:26:42Z</time></trkpt><trkpt lat="43.75959292355969" lon="10.441857027986199"><ele>4.0</ele><time>2026-04-04T08:26:44Z</time></trkpt><trkpt lat="43.759698164060396" lon="10.441897861984977"><ele>4.0</ele><time>2026-04-04T08:26:46Z</time></trkpt><trkpt lat="43.75980419994197" lon="10.441894404558585"><ele>4.0</ele><time>2026-04-04T08:26:48Z</time></trkpt><trkpt lat="43.75993674230776" lon="10.441837535638907"><ele>4.0</ele><time>2026-04-04T08:26:50Z</time></trkpt><trkpt lat="43.76001009015735" lon="10.441805306817372"><ele>4.0</ele><time>2026-04-04T08:26:51Z</time></trkpt><trkpt lat="43.76009856255681" lon="10.4417629625042"><ele>4.0</ele><time>2026-04-04T08:26:52Z</time></trkpt><trkpt lat="43.76019129169115" lon="10.441714825936575"><ele>4.2</ele><time>2026-04-04T08:26:53Z</time></trkpt><trkpt lat="43.76029190711827" lon="10.441665947974759"><ele>4.4</ele><time>2026-04-04T08:26:54Z</time></trkpt><trkpt lat="43.76038784872524" lon="10.441620981383116"><ele>4.6</ele><time>2026-04-04T08:26:55Z</time></trkpt><trkpt lat="43.7604709240633" lon="10.441580238155323"><ele>4.8</ele><time>2026-04-04T08:26:56Z</time></trkpt><trkpt lat="43.760561107426824" lon="10.441534713640229"><ele>5.0</ele><time>2026-04-04T08:26:57Z</time></trkpt><trkpt lat="43.760657754760835" lon="10.44149119071582"><ele>5.0</ele><time>2026-04-04T08:26:58Z</time></trkpt><trkpt lat="43.760754575623615" lon="10.441445497505724"><ele>5.0</ele><time>2026-04-04T08:26:59Z</time></trkpt><trkpt lat="43.760850880058015" lon="10.44140411834232"><ele>5.0</ele><time>2026-04-04T08:27:00Z</time></trkpt><trkpt lat="43.76095076122142" lon="10.441361781133656"><ele>5.0</ele><time>2026-04-04T08:27:01Z</time></trkpt><trkpt lat="43.761059612220656" lon="10.441292043285824"><ele>5.0</ele><time>2026-04-04T08:27:02Z</time></trkpt><trkpt lat="43.76117533011214" lon="10.44123479934578"><ele>5.25</ele><time>2026-04-04T08:27:03Z</time></trkpt><trkpt lat="43.761293649463695" lon="10.44117869073636"><ele>5.5</ele><time>2026-04-04T08:27:04Z</time></trkpt><trkpt lat="43.76140783834078" lon="10.44112694839926"><ele>5.75</ele><time>2026-04-04T08:27:05Z</time></trkpt><trkpt lat="43.761516529310775" lon="10.44107701173366"><ele>6.0</ele><time>2026-04-04T08:27:06Z</time></trkpt><trkpt lat="43.761621020735525" lon="10.441030650448875"><ele>6.0</ele><time>2026-04-04T08:27:07Z</time></trkpt><trkpt lat="43.76171575738733" lon="10.440986343404136"><ele>6.0</ele><time>2026-04-04T08:27:08Z</time></trkpt><trkpt lat="43.76180229432103" lon="10.440941867023978"><ele>6.0</ele><time>2026-04-04T08:27:09Z</time></trkpt><trkpt lat="43.76189302230897" lon="10.440903202826139"><ele>6.0</ele><time>2026-04-04T08:27:10Z</time></trkpt><trkpt lat="43.761984910271025" lon="10.440860778598445"><ele>6.0</ele><time>2026-04-04T08:27:11Z</time></trkpt><trkpt lat="43.76207711886815" lon="10.440821508147078"><ele>6.166666666666667</ele><time>2026-04-04T08:27:12Z</time></trkpt><trkpt lat="43.76216864470052" lon="10.440777912950816"><ele>6.333333333333334</ele><time>2026-04-04T08:27:13Z</time></trkpt><trkpt lat="43.76225944240162" lon="10.44073463842267"><ele>6.5</ele><time>2026-04-04T08:27:14Z</time></trkpt><trkpt lat="43.76233663438505" lon="10.440693867168797"><ele>6.666666666666667</ele><time>2026-04-04T08:27:15Z</time></trkpt><trkpt lat="43.76241121295317" lon="10.440645502497599"><ele>6.833333333333334</ele><time>2026-04-04T08:27:16Z</time></trkpt><trkpt lat="43.76248619425182" lon="10.44059239200067"><ele>7.0</ele><time>2026-04-04T08:27:17Z</time></trkpt><trkpt lat="43.76256848672" lon="10.44052699073021"><ele>7.0</ele><time>2026-04-04T08:27:18Z</time></trkpt><trkpt lat="43.76265195220029" lon="10.440456632677796"><ele>6.999999999999999</ele><time>2026-04-04T08:27:19Z</time></trkpt><trkpt lat="43.7627361840383" lon="10.440376907426462"><ele>6.999999999999999</ele><time>2026-04-04T08:27:20Z</time></trkpt><trkpt lat="43.7628210301784" lon="10.440307060698583"><ele>7.0</ele><time>2026-04-04T08:27:21Z</time></trkpt><trkpt lat="43.76289694485458" lon="10.44024172887559"><ele>7.0</ele><time>2026-04-04T08:27:22Z</time></trkpt><trkpt lat="43.76297061288166" lon="10.44017843829327"><ele>7.000000000000001</ele><time>2026-04-04T08:27:23Z</time></trkpt><trkpt lat="43.76303238405565" lon="10.440110984876554"><ele>7.0</ele><time>2026-04-04T08:27:24Z</time></trkpt><trkpt lat="43.763103441952964" lon="10.440051947467035"><ele>7.0</ele><time>2026-04-04T08:27:25Z</time></trkpt><trkpt lat="43.76316719855844" lon="10.439996927614093"><ele>7.0</ele><time>2026-04-04T08:27:26Z</time></trkpt><trkpt lat="43.763233109568" lon="10.439941920746376"><ele>7.000000000000001</ele><time>2026-04-04T08:27:27Z</time></trkpt><trkpt lat="43.763290322928185" lon="10.439886732498803"><ele>7.0</ele><time>2026-04-04T08:27:28Z</time></trkpt><trkpt lat="43.76338554611341" lon="10.439824069650127"><ele>7.0</ele><time>2026-04-04T08:27:29Z</time></trkpt><trkpt lat="43.763501931262674" lon="10.439722672761173"><ele>7.0</ele><time>2026-04-04T08:27:30Z</time></trkpt><trkpt lat="43.76364710547767" lon="10.439597099831584"><ele>7.0</ele><time>2026-04-04T08:27:31Z</time></trkpt><trkpt lat="43.763807095010534" lon="10.43946306085384"><ele>6.333333333333334</ele><time>2026-04-04T08:27:32Z</time></trkpt><trkpt lat="43.763966225704756" lon="10.439333602514646"><ele>5.666666666666667</ele><time>2026-04-04T08:27:33Z</time></trkpt><trkpt lat="43.76410371653108" lon="10.439206724570028"><ele>5.0</ele><time>2026-04-04T08:27:34Z</time></trkpt><trkpt lat="43.76422598674533" lon="10.439094831078863"><ele>5.0</ele><time>2026-04-04T08:27:35Z</time></trkpt><trkpt lat="43.764343870267794" lon="10.438991860012164"><ele>5.0</ele><time>2026-04-04T08:27:36Z</time></trkpt><trkpt lat="43.76444088581795" lon="10.438883505439144"><ele>5.0</ele><time>2026-04-04T08:27:37Z</time></trkpt><trkpt lat="43.76452793946305" lon="10.43875247803733"><ele>5.0</ele><time>2026-04-04T08:27:38Z</time></trkpt><trkpt lat="43.764602808765204" lon="10.438600490645698"><ele>5.75</ele><time>2026-04-04T08:27:39Z</time></trkpt><trkpt lat="43.76467498201841" lon="10.438444151051284"><ele>6.5</ele><time>2026-04-04T08:27:40Z</time></trkpt><trkpt lat="43.764749720433926" lon="10.438288925820064"><ele>7.25</ele><time>2026-04-04T08:27:41Z</time></trkpt><trkpt lat="43.76482838475084" lon="10.438137036330092"><ele>8.0</ele><time>2026-04-04T08:27:42Z</time></trkpt><trkpt lat="43.76490474262212" lon="10.437986965887788"><ele>7.5</ele><time>2026-04-04T08:27:43Z</time></trkpt><trkpt lat="43.76498195555979" lon="10.437832520219816"><ele>7.0</ele><time>2026-04-04T08:27:44Z</time></trkpt><trkpt lat="43.76505654313599" lon="10.437682608832871"><ele>6.5</ele><time>2026-04-04T08:27:45Z</time></trkpt><trkpt lat="43.7651329325118" lon="10.437527907860595"><ele>6.0</ele><time>2026-04-04T08:27:46Z</time></trkpt><trkpt lat="43.765204979483" lon="10.437375345937017"><ele>5.5</ele><time>2026-04-04T08:27:47Z</time></trkpt><trkpt lat="43.7652793247383" lon="10.437227859373381"><ele>5.0</ele><time>2026-04-04T08:27:48Z</time></trkpt><trkpt lat="43.76534517573573" lon="10.437068606880114"><ele>4.5</ele><time>2026-04-04T08:27:49Z</time></trkpt><trkpt lat="43.7653942286929" lon="10.43686612387288"><ele>4.0</ele><time>2026-04-04T08:27:50Z</time></trkpt><trkpt lat="43.76542460069392" lon="10.436677344374775"><ele>3.75</ele><time>2026-04-04T08:27:51Z</time></trkpt><trkpt lat="43.76545768055819" lon="10.436516688452688"><ele>3.5</ele><time>2026-04-04T08:27:52Z</time></trkpt><trkpt lat="43.76550082252805" lon="10.43633438927232"><ele>3.25</ele><time>2026-04-04T08:27:53Z</time></trkpt><trkpt lat="43.765551199104934" lon="10.436132087180635"><ele>3.0</ele><time>2026-04-04T08:27:54Z</time></trkpt><trkpt lat="43.765600236321966" lon="10.435922836079895"><ele>3.0</ele><time>2026-04-04T08:27:55Z</time></trkpt><trkpt lat="43.765650242070954" lon="10.435708338876173"><ele>3.0</ele><time>2026-04-04T08:27:56Z</time></trkpt><trkpt lat="43.76570183816992" lon="10.435487587074533"><ele>3.0</ele><time>2026-04-04T08:27:57Z</time></trkpt><trkpt lat="43.76575126934466" lon="10.43527412675184"><ele>2.6666666666666665</ele><time>2026-04-04T08:27:58Z</time></trkpt><trkpt lat="43.76580368931542" lon="10.435043137859411"><ele>2.333333333333333</ele><time>2026-04-04T08:27:59Z</time></trkpt><trkpt lat="43.76585718232719" lon="10.434817017127369"><ele>2.0</ele><time>2026-04-04T08:28:00Z</time></trkpt><trkpt lat="43.76591206514968" lon="10.4345954658347"><ele>2.0</ele><time>2026-04-04T08:28:01Z</time></trkpt><trkpt lat="43.765964918024544" lon="10.43437892651839"><ele>2.0</ele><time>2026-04-04T08:28:02Z</time></trkpt><trkpt lat="43.766018165281196" lon="10.434159317172467"><ele>2.0</ele><time>2026-04-04T08:28:03Z</time></trkpt><trkpt lat="43.76607317149868" lon="10.433948656887441"><ele>2.333333333333333</ele><time>2026-04-04T08:28:04Z</time></trkpt><trkpt lat="43.76612050864633" lon="10.433736659584254"><ele>2.6666666666666665</ele><time>2026-04-04T08:28:05Z</time></trkpt><trkpt lat="43.76617207782433" lon="10.433519961278702"><ele>3.0</ele><time>2026-04-04T08:28:06Z</time></trkpt><trkpt lat="43.766226799641416" lon="10.433308017230248"><ele>3.0</ele><time>2026-04-04T08:28:07Z</time></trkpt><trkpt lat="43.766293324751125" lon="10.433103500723712"><ele>3.0</ele><time>2026-04-04T08:28:08Z</time></trkpt><trkpt lat="43.766383673741935" lon="10.43291519391802"><ele>3.0</ele><time>2026-04-04T08:28:09Z</time></trkpt><trkpt lat="43.76648775768716" lon="10.432737831361939"><ele>2.6666666666666665</ele><time>2026-04-04T08:28:10Z</time></trkpt><trkpt lat="43.76660212221318" lon="10.432573115341686"><ele>2.333333333333333</ele><time>2026-04-04T08:28:11Z</time></trkpt><trkpt lat="43.766720722483434" lon="10.432419467311476"><ele>2.0</ele><time>2026-04-04T08:28:12Z</time></trkpt><trkpt lat="43.76683760725137" lon="10.43225374715298"><ele>2.0</ele><time>2026-04-04T08:28:13Z</time></trkpt><trkpt lat="43.766948174832265" lon="10.432094290726603"><ele>2.0</ele><time>2026-04-04T08:28:14Z</time></trkpt><trkpt lat="43.76704990739706" lon="10.431952436692159"><ele>2.0</ele><time>2026-04-04T08:28:15Z</time></trkpt><trkpt lat="43.76713419703308" lon="10.43183114553073"><ele>2.0</ele><time>2026-04-04T08:28:16Z</time></trkpt><trkpt lat="43.76720014019275" lon="10.43173610349035"><ele>2.0</ele><time>2026-04-04T08:28:17Z</time></trkpt><trkpt lat="43.76727370298321" lon="10.431641562772684"><ele>2.0</ele><time>2026-04-04T08:28:18Z</time></trkpt><trkpt lat="43.767357651843206" lon="10.431529659073941"><ele>2.0</ele><time>2026-04-04T08:28:19Z</time></trkpt><trkpt lat="43.767449292564976" lon="10.431403909022412"><ele>2.0</ele><time>2026-04-04T08:28:20Z</time></trkpt><trkpt lat="43.76754910955735" lon="10.43127168111908"><ele>2.0</ele><time>2026-04-04T08:28:21Z</time></trkpt><trkpt lat="43.76767176323768" lon="10.431137636646262"><ele>2.0</ele><time>2026-04-04T08:28:22Z</time></trkpt><trkpt lat="43.767803985501736" lon="10.431007506414254"><ele>2.0</ele><time>2026-04-04T08:28:23Z</time></trkpt><trkpt lat="43.76794845099124" lon="10.430879351390915"><ele>2.0</ele><time>2026-04-04T08:28:24Z</time></trkpt><trkpt lat="43.7681072351791" lon="10.430763527005523"><ele>2.0</ele><time>2026-04-04T08:28:25Z</time></trkpt><trkpt lat="43.76828702880988" lon="10.430647904429751"><ele>2.0</ele><time>2026-04-04T08:28:26Z</time></trkpt><trkpt lat="43.76845680933135" lon="10.43053830826764"><ele>2.6666666666666665</ele><time>2026-04-04T08:28:27Z</time></trkpt><trkpt lat="43.76861867169643" lon="10.43044376630921"><ele>3.333333333333333</ele><time>2026-04-04T08:28:28Z</time></trkpt><trkpt lat="43.7687790462286" lon="10.43036409817561"><ele>4.0</ele><time>2026-04-04T08:28:29Z</time></trkpt><trkpt lat="43.768946707618156" lon="10.430294711031584"><ele>4.0</ele><time>2026-04-04T08:28:30Z</time></trkpt><trkpt lat="43.76912746980954" lon="10.430230845940857"><ele>4.0</ele><time>2026-04-04T08:28:31Z</time></trkpt><trkpt lat="43.76930793770676" lon="10.430177970946607"><ele>4.0</ele><time>2026-04-04T08:28:32Z</time></trkpt><trkpt lat="43.76946326780877" lon="10.4301322521186"><ele>3.5</ele><time>2026-04-04T08:28:33Z</time></trkpt><trkpt lat="43.76961799666288" lon="10.430085063761437"><ele>3.0</ele><time>2026-04-04T08:28:34Z</time></trkpt><trkpt lat="43.76975695008177" lon="10.430042348713473"><ele>2.5</ele><time>2026-04-04T08:28:35Z</time></trkpt><trkpt lat="43.769887697916246" lon="10.429998341233423"><ele>2.0</ele><time>2026-04-04T08:28:36Z</time></trkpt><trkpt lat="43.770011715551874" lon="10.429949393339134"><ele>2.0</ele><time>2026-04-04T08:28:37Z</time></trkpt><trkpt lat="43.77013974064462" lon="10.429880652270187"><ele>2.0</ele><time>2026-04-04T08:28:38Z</time></trkpt><trkpt lat="43.770260338293916" lon="10.429792704975723"><ele>2.0</ele><time>2026-04-04T08:28:39Z</time></trkpt><trkpt lat="43.77036708774208" lon="10.429702089800184"><ele>2.0</ele><time>2026-04-04T08:28:40Z</time></trkpt><trkpt lat="43.77045814232021" lon="10.429626547791344"><ele>2.333333333333333</ele><time>2026-04-04T08:28:41Z</time></trkpt><trkpt lat="43.77054149176563" lon="10.42955765515584"><ele>2.6666666666666665</ele><time>2026-04-04T08:28:42Z</time></trkpt><trkpt lat="43.770613848333156" lon="10.429499181403637"><ele>3.0</ele><time>2026-04-04T08:28:43Z</time></trkpt><trkpt lat="43.77067491119949" lon="10.429454920041556"><ele>3.333333333333333</ele><time>2026-04-04T08:28:44Z</time></trkpt><trkpt lat="43.770737880111014" lon="10.42942181704376"><ele>3.6666666666666665</ele><time>2026-04-04T08:28:45Z</time></trkpt><trkpt lat="43.77084426184055" lon="10.429484318160425"><ele>4.0</ele><time>2026-04-04T08:28:47Z</time></trkpt><trkpt lat="43.770888145233904" lon="10.429548474613936"><ele>3.9999999999999996</ele><time>2026-04-04T08:28:48Z</time></trkpt><trkpt lat="43.77094453981203" lon="10.429590037400807"><ele>4.0</ele><time>2026-04-04T08:28:49Z</time></trkpt><trkpt lat="43.77100947106257" lon="10.429595842850686"><ele>4.0</ele><time>2026-04-04T08:28:50Z</time></trkpt><trkpt lat="43.771080443359125" lon="10.429571169647318"><ele>4.0</ele><time>2026-04-04T08:28:51Z</time></trkpt><trkpt lat="43.7711481540948" lon="10.429501371826165"><ele>3.9999999999999996</ele><time>2026-04-04T08:28:52Z</time></trkpt><trkpt lat="43.77119304847439" lon="10.42940055548698"><ele>4.0</ele><time>2026-04-04T08:28:53Z</time></trkpt><trkpt lat="43.77120016147274" lon="10.429283820431548"><ele>3.6666666666666665</ele><time>2026-04-04T08:28:54Z</time></trkpt><trkpt lat="43.771190316668054" lon="10.429167651930909"><ele>3.333333333333333</ele><time>2026-04-04T08:28:55Z</time></trkpt><trkpt lat="43.77118264972097" lon="10.429060299013969"><ele>3.0</ele><time>2026-04-04T08:28:56Z</time></trkpt><trkpt lat="43.77118629547907" lon="10.428959974884785"><ele>2.6666666666666665</ele><time>2026-04-04T08:28:57Z</time></trkpt><trkpt lat="43.771184944220444" lon="10.428859516074185"><ele>2.333333333333333</ele><time>2026-04-04T08:28:58Z</time></trkpt><trkpt lat="43.77126747831135" lon="10.428750040388623"><ele>2.0</ele><time>2026-04-04T08:28:59Z</time></trkpt><trkpt lat="43.77132736737954" lon="10.428655042548181"><ele>2.0</ele><time>2026-04-04T08:29:00Z</time></trkpt><trkpt lat="43.77139818641641" lon="10.428576184633547"><ele>2.0</ele><time>2026-04-04T08:29:01Z</time></trkpt><trkpt lat="43.77147356675864" lon="10.428498182237641"><ele>2.0</ele><time>2026-04-04T08:29:02Z</time></trkpt><trkpt lat="43.771549312582124" lon="10.428415024360012"><ele>2.0</ele><time>2026-04-04T08:29:03Z</time></trkpt><trkpt lat="43.771633164113126" lon="10.428312637831544"><ele>2.0</ele><time>2026-04-04T08:29:04Z</time></trkpt><trkpt lat="43.77172561756075" lon="10.428202774396222"><ele>2.0</ele><time>2026-04-04T08:29:05Z</time></trkpt><trkpt lat="43.77180912191627" lon="10.428086320089452"><ele>2.0</ele><time>2026-04-04T08:29:06Z</time></trkpt><trkpt lat="43.77188296059888" lon="10.427962920651531"><ele>2.0</ele><time>2026-04-04T08:29:07Z</time></trkpt><trkpt lat="43.771947256487294" lon="10.427839072764751"><ele>2.0</ele><time>2026-04-04T08:29:08Z</time></trkpt><trkpt lat="43.772010570391274" lon="10.42771051849364"><ele>2.1666666666666665</ele><time>2026-04-04T08:29:09Z</time></trkpt><trkpt lat="43.77207021807287" lon="10.427576863025056"><ele>2.333333333333333</ele><time>2026-04-04T08:29:10Z</time></trkpt><trkpt lat="43.772107653508165" lon="10.427478309495438"><ele>2.5</ele><time>2026-04-04T08:29:11Z</time></trkpt><trkpt lat="43.77214047715638" lon="10.427387846797195"><ele>2.6666666666666665</ele><time>2026-04-04T08:29:12Z</time></trkpt><trkpt lat="43.77216855933499" lon="10.427308175474042"><ele>2.8333333333333335</ele><time>2026-04-04T08:29:13Z</time></trkpt><trkpt lat="43.77219997645463" lon="10.427226674915747"><ele>3.0</ele><time>2026-04-04T08:29:14Z</time></trkpt><trkpt lat="43.77223824960081" lon="10.427134008996038"><ele>3.0</ele><time>2026-04-04T08:29:15Z</time></trkpt><trkpt lat="43.77228074819151" lon="10.427032180928254"><ele>3.0</ele><time>2026-04-04T08:29:16Z</time></trkpt><trkpt lat="43.77232289273515" lon="10.426923875728097"><ele>3.0</ele><time>2026-04-04T08:29:17Z</time></trkpt><trkpt lat="43.77236956994853" lon="10.426803806440313"><ele>3.0</ele><time>2026-04-04T08:29:18Z</time></trkpt><trkpt lat="43.77241601338086" lon="10.426680874722887"><ele>3.0</ele><time>2026-04-04T08:29:19Z</time></trkpt><trkpt lat="43.77246540636577" lon="10.426555819919974"><ele>3.0</ele><time>2026-04-04T08:29:20Z</time></trkpt><trkpt lat="43.772516065357756" lon="10.426427585637073"><ele>3.0</ele><time>2026-04-04T08:29:21Z</time></trkpt><trkpt lat="43.77256557333295" lon="10.426298412287432"><ele>3.0</ele><time>2026-04-04T08:29:22Z</time></trkpt><trkpt lat="43.77261490797927" lon="10.426171268782834"><ele>3.0</ele><time>2026-04-04T08:29:23Z</time></trkpt><trkpt lat="43.77266303786809" lon="10.426050734994968"><ele>3.0</ele><time>2026-04-04T08:29:24Z</time></trkpt><trkpt lat="43.7727070448588" lon="10.425938335553983"><ele>3.0</ele><time>2026-04-04T08:29:25Z</time></trkpt><trkpt lat="43.77275475208186" lon="10.425822454492561"><ele>3.0</ele><time>2026-04-04T08:29:26Z</time></trkpt><trkpt lat="43.77279589152072" lon="10.425717910076486"><ele>3.0</ele><time>2026-04-04T08:29:27Z</time></trkpt><trkpt lat="43.77284216906465" lon="10.42560079318406"><ele>3.0</ele><time>2026-04-04T08:29:28Z</time></trkpt><trkpt lat="43.77288605689492" lon="10.425492635232247"><ele>3.0</ele><time>2026-04-04T08:29:29Z</time></trkpt><trkpt lat="43.77292902952691" lon="10.4253860348333"><ele>3.1666666666666665</ele><time>2026-04-04T08:29:30Z</time></trkpt><trkpt lat="43.77297447178009" lon="10.42528229285729"><ele>3.333333333333333</ele><time>2026-04-04T08:29:31Z</time></trkpt><trkpt lat="43.77302461426848" lon="10.42517096313175"><ele>3.5</ele><time>2026-04-04T08:29:32Z</time></trkpt><trkpt lat="43.773066170135365" lon="10.425079548834443"><ele>3.6666666666666665</ele><time>2026-04-04T08:29:33Z</time></trkpt><trkpt lat="43.77310331312805" lon="10.425000227723428"><ele>3.833333333333333</ele><time>2026-04-04T08:29:34Z</time></trkpt><trkpt lat="43.77317310049342" lon="10.42486703576459"><ele>4.0</ele><time>2026-04-04T08:29:36Z</time></trkpt><trkpt lat="43.77324835656217" lon="10.424719242944455"><ele>3.9999999999999996</ele><time>2026-04-04T08:29:38Z</time></trkpt><trkpt lat="43.77328983155955" lon="10.424643303318383"><ele>4.0</ele><time>2026-04-04T08:29:39Z</time></trkpt><trkpt lat="43.773331624878736" lon="10.424558584958625"><ele>4.0</ele><time>2026-04-04T08:29:40Z</time></trkpt><trkpt lat="43.773374598036085" lon="10.424476099452994"><ele>4.0</ele><time>2026-04-04T08:29:41Z</time></trkpt><trkpt lat="43.77342296793672" lon="10.424380834838715"><ele>3.9999999999999996</ele><time>2026-04-04T08:29:42Z</time></trkpt><trkpt lat="43.773475816279834" lon="10.424266582936134"><ele>4.0</ele><time>2026-04-04T08:29:43Z</time></trkpt><trkpt lat="43.773538004515785" lon="10.42414729553146"><ele>4.0</ele><time>2026-04-04T08:29:44Z</time></trkpt><trkpt lat="43.77360272600134" lon="10.424019702837178"><ele>4.0</ele><time>2026-04-04T08:29:45Z</time></trkpt><trkpt lat="43.77367633068434" lon="10.423879981510527"><ele>4.0</ele><time>2026-04-04T08:29:46Z</time></trkpt><trkpt lat="43.77374453515266" lon="10.423750558401348"><ele>4.0</ele><time>2026-04-04T08:29:47Z</time></trkpt><trkpt lat="43.77381449308706" lon="10.423620874014526"><ele>4.0</ele><time>2026-04-04T08:29:48Z</time></trkpt><trkpt lat="43.77388182534916" lon="10.423494682749725"><ele>4.0</ele><time>2026-04-04T08:29:49Z</time></trkpt><trkpt lat="43.773950403217604" lon="10.42336348577925"><ele>4.0</ele><time>2026-04-04T08:29:50Z</time></trkpt><trkpt lat="43.77401897057151" lon="10.423231194060602"><ele>4.0</ele><time>2026-04-04T08:29:51Z</time></trkpt><trkpt lat="43.77408542840732" lon="10.423103553549433"><ele>4.25</ele><time>2026-04-04T08:29:52Z</time></trkpt><trkpt lat="43.77415478011427" lon="10.422980243968986"><ele>4.5</ele><time>2026-04-04T08:29:53Z</time></trkpt><trkpt lat="43.774220355554604" lon="10.422846599107054"><ele>4.75</ele><time>2026-04-04T08:29:54Z</time></trkpt><trkpt lat="43.77428353599197" lon="10.422702344486456"><ele>5.0</ele><time>2026-04-04T08:29:55Z</time></trkpt><trkpt lat="43.7743398615503" lon="10.42255454077417"><ele>4.5</ele><time>2026-04-04T08:29:56Z</time></trkpt><trkpt lat="43.77439416629782" lon="10.422401393580202"><ele>4.0</ele><time>2026-04-04T08:29:57Z</time></trkpt><trkpt lat="43.774446947548014" lon="10.42224490355288"><ele>3.5</ele><time>2026-04-04T08:29:58Z</time></trkpt><trkpt lat="43.77449883303519" lon="10.422077213250903"><ele>3.0</ele><time>2026-04-04T08:29:59Z</time></trkpt><trkpt lat="43.77454837687116" lon="10.421908708070553"><ele>3.0</ele><time>2026-04-04T08:30:00Z</time></trkpt><trkpt lat="43.77459480433204" lon="10.421719526708983"><ele>3.0</ele><time>2026-04-04T08:30:01Z</time></trkpt><trkpt lat="43.774644801559155" lon="10.421528287414631"><ele>3.0</ele><time>2026-04-04T08:30:02Z</time></trkpt><trkpt lat="43.7746966632061" lon="10.421325145585742"><ele>3.0</ele><time>2026-04-04T08:30:03Z</time></trkpt><trkpt lat="43.77474720288783" lon="10.421114940177212"><ele>3.0</ele><time>2026-04-04T08:30:04Z</time></trkpt><trkpt lat="43.77480037050874" lon="10.420904112947058"><ele>3.0</ele><time>2026-04-04T08:30:05Z</time></trkpt><trkpt lat="43.77485278315135" lon="10.420705707291587"><ele>3.0</ele><time>2026-04-04T08:30:06Z</time></trkpt><trkpt lat="43.77490185349478" lon="10.420506893934421"><ele>3.0</ele><time>2026-04-04T08:30:07Z</time></trkpt><trkpt lat="43.77495303923911" lon="10.420314174904007"><ele>3.0</ele><time>2026-04-04T08:30:08Z</time></trkpt><trkpt lat="43.77500326383715" lon="10.42012192253746"><ele>3.0</ele><time>2026-04-04T08:30:09Z</time></trkpt><trkpt lat="43.775052351790265" lon="10.41992817919693"><ele>3.0</ele><time>2026-04-04T08:30:10Z</time></trkpt><trkpt lat="43.775098166023646" lon="10.41974065143404"><ele>3.0</ele><time>2026-04-04T08:30:11Z</time></trkpt><trkpt lat="43.77514889986608" lon="10.419546468606336"><ele>3.0</ele><time>2026-04-04T08:30:12Z</time></trkpt><trkpt lat="43.77519755080034" lon="10.419355356427186"><ele>3.0</ele><time>2026-04-04T08:30:13Z</time></trkpt><trkpt lat="43.775247124584794" lon="10.419167990138256"><ele>3.0</ele><time>2026-04-04T08:30:14Z</time></trkpt><trkpt lat="43.775296996577865" lon="10.418981984169973"><ele>2.75</ele><time>2026-04-04T08:30:15Z</time></trkpt><trkpt lat="43.77534368379094" lon="10.418793032261974"><ele>2.5</ele><time>2026-04-04T08:30:16Z</time></trkpt><trkpt lat="43.77539263672868" lon="10.418606708911723"><ele>2.25</ele><time>2026-04-04T08:30:17Z</time></trkpt><trkpt lat="43.77544050708013" lon="10.418422849375482"><ele>2.0</ele><time>2026-04-04T08:30:18Z</time></trkpt><trkpt lat="43.77549216218403" lon="10.418233645620798"><ele>2.0</ele><time>2026-04-04T08:30:19Z</time></trkpt><trkpt lat="43.775538731214006" lon="10.418049110358123"><ele>2.0</ele><time>2026-04-04T08:30:20Z</time></trkpt><trkpt lat="43.77558491318354" lon="10.417865393300577"><ele>2.0</ele><time>2026-04-04T08:30:21Z</time></trkpt><trkpt lat="43.77563043173623" lon="10.417684440562489"><ele>2.0</ele><time>2026-04-04T08:30:22Z</time></trkpt><trkpt lat="43.77567618274036" lon="10.417503062314646"><ele>1.75</ele><time>2026-04-04T08:30:23Z</time></trkpt><trkpt lat="43.77572140103517" lon="10.417325394502924"><ele>1.5</ele><time>2026-04-04T08:30:24Z</time></trkpt><trkpt lat="43.77576815433056" lon="10.417151420056662"><ele>1.25</ele><time>2026-04-04T08:30:25Z</time></trkpt><trkpt lat="43.77581453644608" lon="10.416975882880704"><ele>1.0</ele><time>2026-04-04T08:30:26Z</time></trkpt><trkpt lat="43.77585727954076" lon="10.416815823896263"><ele>1.5</ele><time>2026-04-04T08:30:27Z</time></trkpt><trkpt lat="43.77590097065049" lon="10.416653066988268"><ele>2.0</ele><time>2026-04-04T08:30:28Z</time></trkpt><trkpt lat="43.775943520507184" lon="10.416494404345594"><ele>2.5</ele><time>2026-04-04T08:30:29Z</time></trkpt><trkpt lat="43.77598513184588" lon="10.416335933904392"><ele>3.0</ele><time>2026-04-04T08:30:30Z</time></trkpt><trkpt lat="43.776025346057615" lon="10.416174534081145"><ele>3.5</ele><time>2026-04-04T08:30:31Z</time></trkpt><trkpt lat="43.776066258133405" lon="10.416013371798464"><ele>4.0</ele><time>2026-04-04T08:30:32Z</time></trkpt><trkpt lat="43.776108230089214" lon="10.415853583600768"><ele>4.5</ele><time>2026-04-04T08:30:33Z</time></trkpt><trkpt lat="43.77615146834348" lon="10.41569341801871"><ele>5.0</ele><time>2026-04-04T08:30:34Z</time></trkpt><trkpt lat="43.77619436059145" lon="10.415534111173143"><ele>4.75</ele><time>2026-04-04T08:30:35Z</time></trkpt><trkpt lat="43.7762368599443" lon="10.415372796187437"><ele>4.5</ele><time>2026-04-04T08:30:36Z</time></trkpt><trkpt lat="43.77627638697346" lon="10.415207589286764"><ele>4.25</ele><time>2026-04-04T08:30:37Z</time></trkpt><trkpt lat="43.77631677216639" lon="10.415051193541663"><ele>4.0</ele><time>2026-04-04T08:30:38Z</time></trkpt><trkpt lat="43.77635727673455" lon="10.414899178291048"><ele>4.0</ele><time>2026-04-04T08:30:39Z</time></trkpt><trkpt lat="43.77639740693656" lon="10.414753123368662"><ele>4.0</ele><time>2026-04-04T08:30:40Z</time></trkpt><trkpt lat="43.77643365610821" lon="10.414621284912766"><ele>4.0</ele><time>2026-04-04T08:30:41Z</time></trkpt><trkpt lat="43.77646640959952" lon="10.414490383390847"><ele>4.0</ele><time>2026-04-04T08:30:42Z</time></trkpt><trkpt lat="43.776497290728685" lon="10.414367557729635"><ele>4.0</ele><time>2026-04-04T08:30:43Z</time></trkpt><trkpt lat="43.7765203434928" lon="10.414267918351342"><ele>3.9999999999999996</ele><time>2026-04-04T08:30:44Z</time></trkpt><trkpt lat="43.77654511730494" lon="10.414171895502578"><ele>4.0</ele><time>2026-04-04T08:30:46Z</time></trkpt><trkpt lat="43.776556473257834" lon="10.414061977453567"><ele>4.0</ele><time>2026-04-04T08:30:49Z</time></trkpt><trkpt lat="43.7765785353827" lon="10.413979453943933"><ele>4.0</ele><time>2026-04-04T08:30:50Z</time></trkpt><trkpt lat="43.77660909579429" lon="10.41388052996443"><ele>3.9999999999999996</ele><time>2026-04-04T08:30:51Z</time></trkpt><trkpt lat="43.77663213494671" lon="10.41377364552372"><ele>4.0</ele><time>2026-04-04T08:30:52Z</time></trkpt><trkpt lat="43.77666137785622" lon="10.41365883792061"><ele>4.0</ele><time>2026-04-04T08:30:53Z</time></trkpt><trkpt lat="43.77670812333451" lon="10.413513433397863"><ele>4.0</ele><time>2026-04-04T08:30:55Z</time></trkpt><trkpt lat="43.776740786715294" lon="10.413383666458916"><ele>4.0</ele><time>2026-04-04T08:30:57Z</time></trkpt><trkpt lat="43.77677293772082" lon="10.413239409332299"><ele>4.0</ele><time>2026-04-04T08:30:59Z</time></trkpt><trkpt lat="43.77680060924371" lon="10.413142673294328"><ele>4.0</ele><time>2026-04-04T08:31:00Z</time></trkpt><trkpt lat="43.77682279812031" lon="10.413041031135256"><ele>4.0</ele><time>2026-04-04T08:31:01Z</time></trkpt><trkpt lat="43.77684340527335" lon="10.412954188619524"><ele>4.0</ele><time>2026-04-04T08:31:02Z</time></trkpt><trkpt lat="43.77687579660095" lon="10.412845020193203"><ele>4.0</ele><time>2026-04-04T08:31:03Z</time></trkpt><trkpt lat="43.776912240311624" lon="10.41266336357006"><ele>4.0</ele><time>2026-04-04T08:31:04Z</time></trkpt><trkpt lat="43.776970689354776" lon="10.412449291004075"><ele>4.0</ele><time>2026-04-04T08:31:05Z</time></trkpt><trkpt lat="43.77703186943014" lon="10.412251258282106"><ele>4.0</ele><time>2026-04-04T08:31:06Z</time></trkpt><trkpt lat="43.77707967622513" lon="10.412076128420884"><ele>4.0</ele><time>2026-04-04T08:31:07Z</time></trkpt><trkpt lat="43.77712120400243" lon="10.411916323328857"><ele>4.0</ele><time>2026-04-04T08:31:08Z</time></trkpt><trkpt lat="43.777157897982825" lon="10.411769725521445"><ele>4.25</ele><time>2026-04-04T08:31:09Z</time></trkpt><trkpt lat="43.777197098641444" lon="10.411626102935761"><ele>4.5</ele><time>2026-04-04T08:31:10Z</time></trkpt><trkpt lat="43.77723694901861" lon="10.41148036114961"><ele>4.75</ele><time>2026-04-04T08:31:11Z</time></trkpt><trkpt lat="43.77727764369546" lon="10.411325372610783"><ele>5.0</ele><time>2026-04-04T08:31:12Z</time></trkpt><trkpt lat="43.77732059271522" lon="10.41116735406803"><ele>5.25</ele><time>2026-04-04T08:31:13Z</time></trkpt><trkpt lat="43.7773620243459" lon="10.411009768440648"><ele>5.5</ele><time>2026-04-04T08:31:14Z</time></trkpt><trkpt lat="43.77740389483022" lon="10.410848617969362"><ele>5.75</ele><time>2026-04-04T08:31:15Z</time></trkpt><trkpt lat="43.77744426121803" lon="10.41068715190892"><ele>6.0</ele><time>2026-04-04T08:31:16Z</time></trkpt><trkpt lat="43.777483202598845" lon="10.41052760832695"><ele>5.75</ele><time>2026-04-04T08:31:17Z</time></trkpt><trkpt lat="43.777525155521886" lon="10.410363516031225"><ele>5.5</ele><time>2026-04-04T08:31:18Z</time></trkpt><trkpt lat="43.77756957334341" lon="10.410187654513228"><ele>5.25</ele><time>2026-04-04T08:31:19Z</time></trkpt><trkpt lat="43.777615449015805" lon="10.410005852194192"><ele>5.0</ele><time>2026-04-04T08:31:20Z</time></trkpt><trkpt lat="43.77765529927057" lon="10.409813451648338"><ele>4.5</ele><time>2026-04-04T08:31:21Z</time></trkpt><trkpt lat="43.77768543899032" lon="10.40961152049813"><ele>4.0</ele><time>2026-04-04T08:31:22Z</time></trkpt><trkpt lat="43.77770251290959" lon="10.409408505337804"><ele>3.5</ele><time>2026-04-04T08:31:23Z</time></trkpt><trkpt lat="43.7777136222109" lon="10.409213466482614"><ele>3.0</ele><time>2026-04-04T08:31:24Z</time></trkpt><trkpt lat="43.77771910878141" lon="10.409033019032604"><ele>3.0</ele><time>2026-04-04T08:31:25Z</time></trkpt><trkpt lat="43.77772254338409" lon="10.408861371555888"><ele>3.0</ele><time>2026-04-04T08:31:26Z</time></trkpt><trkpt lat="43.77772744389658" lon="10.408687655535779"><ele>3.0</ele><time>2026-04-04T08:31:27Z</time></trkpt><trkpt lat="43.77773244706198" lon="10.408507263663381"><ele>3.0</ele><time>2026-04-04T08:31:28Z</time></trkpt><trkpt lat="43.77773626563444" lon="10.408328529096856"><ele>3.0</ele><time>2026-04-04T08:31:29Z</time></trkpt><trkpt lat="43.77774074040225" lon="10.408149528748748"><ele>3.0</ele><time>2026-04-04T08:31:30Z</time></trkpt><trkpt lat="43.777744442372146" lon="10.40797355110919"><ele>3.0</ele><time>2026-04-04T08:31:31Z</time></trkpt><trkpt lat="43.777748737996895" lon="10.40779490610136"><ele>3.0</ele><time>2026-04-04T08:31:32Z</time></trkpt><trkpt lat="43.77775251839826" lon="10.407606741324312"><ele>3.25</ele><time>2026-04-04T08:31:33Z</time></trkpt><trkpt lat="43.777757787958066" lon="10.407412114005854"><ele>3.5</ele><time>2026-04-04T08:31:34Z</time></trkpt><trkpt lat="43.77776210618265" lon="10.40723225251893"><ele>3.75</ele><time>2026-04-04T08:31:35Z</time></trkpt><trkpt lat="43.777766415098775" lon="10.4070638945417"><ele>4.0</ele><time>2026-04-04T08:31:36Z</time></trkpt><trkpt lat="43.77777090940092" lon="10.406903992275018"><ele>4.0</ele><time>2026-04-04T08:31:37Z</time></trkpt><trkpt lat="43.77777468217254" lon="10.40675531684908"><ele>4.0</ele><time>2026-04-04T08:31:38Z</time></trkpt><trkpt lat="43.77777992538069" lon="10.406614116778808"><ele>4.0</ele><time>2026-04-04T08:31:39Z</time></trkpt><trkpt lat="43.777785088960904" lon="10.406482751002487"><ele>4.0</ele><time>2026-04-04T08:31:40Z</time></trkpt><trkpt lat="43.77778868586532" lon="10.40634790808394"><ele>4.0</ele><time>2026-04-04T08:31:41Z</time></trkpt><trkpt lat="43.77779442457506" lon="10.406203628867633"><ele>4.25</ele><time>2026-04-04T08:31:42Z</time></trkpt><trkpt lat="43.7777977641561" lon="10.40604844727917"><ele>4.5</ele><time>2026-04-04T08:31:43Z</time></trkpt><trkpt lat="43.777801094775135" lon="10.405895237421669"><ele>4.75</ele><time>2026-04-04T08:31:44Z</time></trkpt><trkpt lat="43.77780280715522" lon="10.405741192794611"><ele>5.0</ele><time>2026-04-04T08:31:45Z</time></trkpt><trkpt lat="43.77780633601427" lon="10.405577541229533"><ele>4.833333333333334</ele><time>2026-04-04T08:31:46Z</time></trkpt><trkpt lat="43.777813334260685" lon="10.405423406620429"><ele>4.666666666666667</ele><time>2026-04-04T08:31:47Z</time></trkpt><trkpt lat="43.7778211180923" lon="10.405289744834707"><ele>4.5</ele><time>2026-04-04T08:31:48Z</time></trkpt><trkpt lat="43.77783423905663" lon="10.405178163629374"><ele>4.333333333333333</ele><time>2026-04-04T08:31:49Z</time></trkpt><trkpt lat="43.77784728700755" lon="10.405092845744706"><ele>4.166666666666666</ele><time>2026-04-04T08:31:50Z</time></trkpt><trkpt lat="43.77786166993934" lon="10.404978975753412"><ele>4.0</ele><time>2026-04-04T08:31:52Z</time></trkpt><trkpt lat="43.77784935360949" lon="10.404783452491138"><ele>4.0</ele><time>2026-04-04T08:32:14Z</time></trkpt><trkpt lat="43.7778442107423" lon="10.404639345533386"><ele>4.0</ele><time>2026-04-04T08:32:15Z</time></trkpt><trkpt lat="43.77784793845196" lon="10.40447395898681"><ele>4.0</ele><time>2026-04-04T08:32:16Z</time></trkpt><trkpt lat="43.77786524303949" lon="10.404291855779174"><ele>4.0</ele><time>2026-04-04T08:32:17Z</time></trkpt><trkpt lat="43.77789528110938" lon="10.404097216523589"><ele>4.0</ele><time>2026-04-04T08:32:18Z</time></trkpt><trkpt lat="43.77793717383789" lon="10.403893747750956"><ele>4.0</ele><time>2026-04-04T08:32:19Z</time></trkpt><trkpt lat="43.777986889369416" lon="10.403706279286615"><ele>4.0</ele><time>2026-04-04T08:32:20Z</time></trkpt><trkpt lat="43.77803624601582" lon="10.40353389185045"><ele>4.0</ele><time>2026-04-04T08:32:21Z</time></trkpt><trkpt lat="43.77809832511579" lon="10.403387222166973"><ele>4.4</ele><time>2026-04-04T08:32:22Z</time></trkpt><trkpt lat="43.7781584855439" lon="10.403252200100123"><ele>4.800000000000001</ele><time>2026-04-04T08:32:23Z</time></trkpt><trkpt lat="43.77821442830424" lon="10.403134811804158"><ele>5.199999999999999</ele><time>2026-04-04T08:32:24Z</time></trkpt><trkpt lat="43.778261974072" lon="10.403031529906634"><ele>5.6</ele><time>2026-04-04T08:32:25Z</time></trkpt><trkpt lat="43.77830374534699" lon="10.402938335523334"><ele>6.0</ele><time>2026-04-04T08:32:26Z</time></trkpt><trkpt lat="43.778343918661704" lon="10.402859645906489"><ele>6.199999999999999</ele><time>2026-04-04T08:32:27Z</time></trkpt><trkpt lat="43.77841832241074" lon="10.402733187979916"><ele>6.3999999999999995</ele><time>2026-04-04T08:32:29Z</time></trkpt><trkpt lat="43.77847063140768" lon="10.402663313337086"><ele>6.6</ele><time>2026-04-04T08:32:30Z</time></trkpt><trkpt lat="43.77851008779066" lon="10.40256278090517"><ele>6.8</ele><time>2026-04-04T08:32:31Z</time></trkpt><trkpt lat="43.77855471050839" lon="10.402449691204284"><ele>7.0</ele><time>2026-04-04T08:32:32Z</time></trkpt><trkpt lat="43.77858370695537" lon="10.40232495081434"><ele>6.8</ele><time>2026-04-04T08:32:33Z</time></trkpt><trkpt lat="43.778617125957254" lon="10.402196429559204"><ele>6.6</ele><time>2026-04-04T08:32:34Z</time></trkpt><trkpt lat="43.778656582562206" lon="10.402074574111849"><ele>6.3999999999999995</ele><time>2026-04-04T08:32:35Z</time></trkpt><trkpt lat="43.778705883004136" lon="10.401957635336741"><ele>6.199999999999999</ele><time>2026-04-04T08:32:36Z</time></trkpt><trkpt lat="43.778758169833765" lon="10.401847585945053"><ele>6.0</ele><time>2026-04-04T08:32:37Z</time></trkpt><trkpt lat="43.77880706968431" lon="10.401728913453848"><ele>6.0</ele><time>2026-04-04T08:32:38Z</time></trkpt><trkpt lat="43.778854110491096" lon="10.401624268985072"><ele>6.0</ele><time>2026-04-04T08:32:39Z</time></trkpt><trkpt lat="43.77889419321408" lon="10.401525925520968"><ele>6.0</ele><time>2026-04-04T08:32:40Z</time></trkpt><trkpt lat="43.77893217163656" lon="10.40143208235309"><ele>6.0</ele><time>2026-04-04T08:32:41Z</time></trkpt><trkpt lat="43.7789899772838" lon="10.401295640789012"><ele>6.0</ele><time>2026-04-04T08:32:43Z</time></trkpt><trkpt lat="43.77903530134421" lon="10.40119288881979"><ele>6.0</ele><time>2026-04-04T08:32:45Z</time></trkpt><trkpt lat="43.779073570339385" lon="10.401116135270161"><ele>6.0</ele><time>2026-04-04T08:32:47Z</time></trkpt><trkpt lat="43.779132892085165" lon="10.401042238036911"><ele>6.0</ele><time>2026-04-04T08:33:11Z</time></trkpt><trkpt lat="43.77917547201491" lon="10.400951066077619"><ele>6.0</ele><time>2026-04-04T08:33:13Z</time></trkpt><trkpt lat="43.77921153011786" lon="10.40087431049519"><ele>6.0</ele><time>2026-04-04T08:33:14Z</time></trkpt><trkpt lat="43.7792725590788" lon="10.400757211014591"><ele>6.0</ele><time>2026-04-04T08:33:16Z</time></trkpt><trkpt lat="43.77932274897149" lon="10.400655152832819"><ele>6.0</ele><time>2026-04-04T08:33:19Z</time></trkpt><trkpt lat="43.779376778222925" lon="10.400562030733616"><ele>6.199999999999999</ele><time>2026-04-04T08:33:21Z</time></trkpt><trkpt lat="43.779435884607864" lon="10.400442767991139"><ele>6.3999999999999995</ele><time>2026-04-04T08:33:23Z</time></trkpt><trkpt lat="43.77950704762395" lon="10.400325176053238"><ele>6.6</ele><time>2026-04-04T08:33:25Z</time></trkpt><trkpt lat="43.77955495460849" lon="10.400241860354484"><ele>6.8</ele><time>2026-04-04T08:33:26Z</time></trkpt><trkpt lat="43.77961379422807" lon="10.40015967612907"><ele>7.0</ele><time>2026-04-04T08:33:27Z</time></trkpt><trkpt lat="43.779681479940244" lon="10.400068714227775"><ele>7.0</ele><time>2026-04-04T08:33:28Z</time></trkpt><trkpt lat="43.77975281616311" lon="10.399973207777508"><ele>6.999999999999999</ele><time>2026-04-04T08:33:29Z</time></trkpt><trkpt lat="43.7798280882399" lon="10.399874129115421"><ele>6.999999999999999</ele><time>2026-04-04T08:33:30Z</time></trkpt><trkpt lat="43.77990556697089" lon="10.399775576761543"><ele>7.0</ele><time>2026-04-04T08:33:31Z</time></trkpt><trkpt lat="43.77997365011329" lon="10.39968169443906"><ele>7.0</ele><time>2026-04-04T08:33:32Z</time></trkpt><trkpt lat="43.780039076797216" lon="10.399599174514824"><ele>7.000000000000001</ele><time>2026-04-04T08:33:33Z</time></trkpt><trkpt lat="43.78010122691217" lon="10.399519533104645"><ele>7.0</ele><time>2026-04-04T08:33:34Z</time></trkpt><trkpt lat="43.78015330784397" lon="10.39943837241184"><ele>7.0</ele><time>2026-04-04T08:33:35Z</time></trkpt><trkpt lat="43.78021419787243" lon="10.399366467546441"><ele>7.0</ele><time>2026-04-04T08:33:36Z</time></trkpt><trkpt lat="43.78027437644276" lon="10.399291415370826"><ele>7.000000000000001</ele><time>2026-04-04T08:33:37Z</time></trkpt><trkpt lat="43.780340420061236" lon="10.399221100739714"><ele>7.0</ele><time>2026-04-04T08:33:38Z</time></trkpt><trkpt lat="43.78040288504046" lon="10.399145376540089"><ele>6.199999999999999</ele><time>2026-04-04T08:33:39Z</time></trkpt><trkpt lat="43.78046429315063" lon="10.399056600493225"><ele>5.3999999999999995</ele><time>2026-04-04T08:33:40Z</time></trkpt><trkpt lat="43.78053926493352" lon="10.398962310109585"><ele>4.6</ele><time>2026-04-04T08:33:41Z</time></trkpt><trkpt lat="43.78062503275653" lon="10.398852271651386"><ele>3.8</ele><time>2026-04-04T08:33:42Z</time></trkpt><trkpt lat="43.78071043758745" lon="10.398737543918086"><ele>3.0</ele><time>2026-04-04T08:33:43Z</time></trkpt><trkpt lat="43.78080045624856" lon="10.398623598979627"><ele>3.0</ele><time>2026-04-04T08:33:44Z</time></trkpt><trkpt lat="43.78088707869961" lon="10.398517233194639"><ele>3.0</ele><time>2026-04-04T08:33:45Z</time></trkpt><trkpt lat="43.78096525797527" lon="10.398419806487757"><ele>3.0</ele><time>2026-04-04T08:33:46Z</time></trkpt><trkpt lat="43.781034395258374" lon="10.39832816436877"><ele>3.0</ele><time>2026-04-04T08:33:47Z</time></trkpt><trkpt lat="43.78110357009644" lon="10.398241747482968"><ele>3.0</ele><time>2026-04-04T08:33:48Z</time></trkpt><trkpt lat="43.78117035250038" lon="10.398158904689826"><ele>3.5</ele><time>2026-04-04T08:33:49Z</time></trkpt><trkpt lat="43.78123492275225" lon="10.398077876322283"><ele>4.0</ele><time>2026-04-04T08:33:50Z</time></trkpt><trkpt lat="43.78128806535306" lon="10.398006616682602"><ele>4.5</ele><time>2026-04-04T08:33:51Z</time></trkpt><trkpt lat="43.78135949679029" lon="10.39791984434218"><ele>5.0</ele><time>2026-04-04T08:33:53Z</time></trkpt><trkpt lat="43.781428481377915" lon="10.397866798831863"><ele>5.5</ele><time>2026-04-04T08:33:55Z</time></trkpt><trkpt lat="43.781537081511765" lon="10.397868135986169"><ele>6.0</ele><time>2026-04-04T08:33:57Z</time></trkpt><trkpt lat="43.78159415887698" lon="10.39791028614987"><ele>6.0</ele><time>2026-04-04T08:33:58Z</time></trkpt><trkpt lat="43.78166256126798" lon="10.397928811039488"><ele>6.0</ele><time>2026-04-04T08:33:59Z</time></trkpt><trkpt lat="43.78167671018758" lon="10.39807525058349"><ele>6.0</ele><time>2026-04-04T08:34:00Z</time></trkpt><trkpt lat="43.78170858061851" lon="10.398186199315013"><ele>6.0</ele><time>2026-04-04T08:34:01Z</time></trkpt><trkpt lat="43.78174376409204" lon="10.398303791540549"><ele>6.0</ele><time>2026-04-04T08:34:02Z</time></trkpt><trkpt lat="43.781778020980106" lon="10.398438716827608"><ele>6.0</ele><time>2026-04-04T08:34:03Z</time></trkpt><trkpt lat="43.78181184668587" lon="10.39858228582066"><ele>6.0</ele><time>2026-04-04T08:34:04Z</time></trkpt><trkpt lat="43.781841966360766" lon="10.398738015956148"><ele>6.0</ele><time>2026-04-04T08:34:05Z</time></trkpt><trkpt lat="43.78186163810742" lon="10.398898847108226"><ele>6.0</ele><time>2026-04-04T08:34:06Z</time></trkpt><trkpt lat="43.78188021806826" lon="10.399053088674792"><ele>6.0</ele><time>2026-04-04T08:34:07Z</time></trkpt><trkpt lat="43.78189986443982" lon="10.399207009237735"><ele>6.0</ele><time>2026-04-04T08:34:08Z</time></trkpt><trkpt lat="43.78192026149562" lon="10.399344543686668"><ele>6.0</ele><time>2026-04-04T08:34:09Z</time></trkpt><trkpt lat="43.78194634601726" lon="10.399471593531732"><ele>6.0</ele><time>2026-04-04T08:34:10Z</time></trkpt><trkpt lat="43.78197911792789" lon="10.399585085856803"><ele>6.0</ele><time>2026-04-04T08:34:11Z</time></trkpt><trkpt lat="43.78201963973309" lon="10.39969883320471"><ele>6.0</ele><time>2026-04-04T08:34:12Z</time></trkpt><trkpt lat="43.78207550329054" lon="10.399822512872715"><ele>6.0</ele><time>2026-04-04T08:34:13Z</time></trkpt><trkpt lat="43.78214616117155" lon="10.399946405702622"><ele>6.0</ele><time>2026-04-04T08:34:14Z</time></trkpt><trkpt lat="43.782228213463505" lon="10.400079127252893"><ele>6.0</ele><time>2026-04-04T08:34:15Z</time></trkpt><trkpt lat="43.78231343171236" lon="10.400219022587441"><ele>6.0</ele><time>2026-04-04T08:34:16Z</time></trkpt><trkpt lat="43.78240726518527" lon="10.400363984842603"><ele>6.0</ele><time>2026-04-04T08:34:17Z</time></trkpt><trkpt lat="43.78250707133976" lon="10.400521514010943"><ele>6.0</ele><time>2026-04-04T08:34:18Z</time></trkpt><trkpt lat="43.78261043460091" lon="10.400687900139227"><ele>7.0</ele><time>2026-04-04T08:34:19Z</time></trkpt><trkpt lat="43.782716848157094" lon="10.400857783201857"><ele>8.0</ele><time>2026-04-04T08:34:20Z</time></trkpt><trkpt lat="43.782822812815276" lon="10.40103323441193"><ele>9.0</ele><time>2026-04-04T08:34:21Z</time></trkpt><trkpt lat="43.78291784302555" lon="10.40118495384981"><ele>9.5</ele><time>2026-04-04T08:34:22Z</time></trkpt><trkpt lat="43.78301571193749" lon="10.401340584399097"><ele>10.0</ele><time>2026-04-04T08:34:23Z</time></trkpt><trkpt lat="43.783104720258905" lon="10.401485186820715"><ele>10.5</ele><time>2026-04-04T08:34:24Z</time></trkpt><trkpt lat="43.78319825457064" lon="10.401633025464697"><ele>11.0</ele><time>2026-04-04T08:34:25Z</time></trkpt><trkpt lat="43.78328333451284" lon="10.401777936551166"><ele>11.0</ele><time>2026-04-04T08:34:26Z</time></trkpt><trkpt lat="43.783374139078624" lon="10.40192560018022"><ele>11.0</ele><time>2026-04-04T08:34:27Z</time></trkpt><trkpt lat="43.78346957390249" lon="10.402069904261662"><ele>11.0</ele><time>2026-04-04T08:34:28Z</time></trkpt><trkpt lat="43.78357019971125" lon="10.40220681069883"><ele>11.0</ele><time>2026-04-04T08:34:29Z</time></trkpt><trkpt lat="43.7836701283587" lon="10.40234435404388"><ele>11.5</ele><time>2026-04-04T08:34:30Z</time></trkpt><trkpt lat="43.783771564952026" lon="10.402468060433945"><ele>12.0</ele><time>2026-04-04T08:34:31Z</time></trkpt><trkpt lat="43.78387685592211" lon="10.402599611672741"><ele>12.5</ele><time>2026-04-04T08:34:32Z</time></trkpt><trkpt lat="43.783985023645016" lon="10.402730095713245"><ele>13.0</ele><time>2026-04-04T08:34:33Z</time></trkpt><trkpt lat="43.784097142814225" lon="10.402860580577654"><ele>13.0</ele><time>2026-04-04T08:34:34Z</time></trkpt><trkpt lat="43.784207667164225" lon="10.40299271915118"><ele>13.0</ele><time>2026-04-04T08:34:35Z</time></trkpt><trkpt lat="43.78431655647283" lon="10.40312381511384"><ele>13.0</ele><time>2026-04-04T08:34:36Z</time></trkpt><trkpt lat="43.78442157852019" lon="10.403247358818113"><ele>13.0</ele><time>2026-04-04T08:34:37Z</time></trkpt><trkpt lat="43.7845303830186" lon="10.40336461245324"><ele>13.25</ele><time>2026-04-04T08:34:38Z</time></trkpt><trkpt lat="43.78464672565841" lon="10.403457972116325"><ele>13.5</ele><time>2026-04-04T08:34:39Z</time></trkpt><trkpt lat="43.78477207414959" lon="10.403537990928292"><ele>13.75</ele><time>2026-04-04T08:34:40Z</time></trkpt><trkpt lat="43.78489141856805" lon="10.403596640158671"><ele>14.0</ele><time>2026-04-04T08:34:41Z</time></trkpt><trkpt lat="43.785010927461045" lon="10.403642605135854"><ele>14.0</ele><time>2026-04-04T08:34:42Z</time></trkpt><trkpt lat="43.785127355119656" lon="10.403686991497558"><ele>14.0</ele><time>2026-04-04T08:34:43Z</time></trkpt><trkpt lat="43.785245601018865" lon="10.403761588179266"><ele>14.0</ele><time>2026-04-04T08:34:44Z</time></trkpt><trkpt lat="43.78535755329935" lon="10.403868578622857"><ele>14.0</ele><time>2026-04-04T08:34:45Z</time></trkpt><trkpt lat="43.78545632078549" lon="10.404012419406635"><ele>12.5</ele><time>2026-04-04T08:34:46Z</time></trkpt><trkpt lat="43.785541083334856" lon="10.404177000597587"><ele>11.0</ele><time>2026-04-04T08:34:47Z</time></trkpt><trkpt lat="43.78563870374954" lon="10.404336191916407"><ele>9.5</ele><time>2026-04-04T08:34:48Z</time></trkpt><trkpt lat="43.785720817343574" lon="10.404502904367106"><ele>8.0</ele><time>2026-04-04T08:34:49Z</time></trkpt><trkpt lat="43.78581538234439" lon="10.404642932721393"><ele>7.333333333333333</ele><time>2026-04-04T08:34:50Z</time></trkpt><trkpt lat="43.78594128490846" lon="10.404752906786886"><ele>6.666666666666666</ele><time>2026-04-04T08:34:51Z</time></trkpt><trkpt lat="43.78608417591198" lon="10.404829315793108"><ele>6.0</ele><time>2026-04-04T08:34:52Z</time></trkpt><trkpt lat="43.78623503334872" lon="10.40488373975014"><ele>5.5</ele><time>2026-04-04T08:34:53Z</time></trkpt><trkpt lat="43.78638898502236" lon="10.404896510352994"><ele>5.0</ele><time>2026-04-04T08:34:54Z</time></trkpt><trkpt lat="43.78652790258615" lon="10.404882112510691"><ele>4.5</ele><time>2026-04-04T08:34:55Z</time></trkpt><trkpt lat="43.78665999879819" lon="10.40486692946062"><ele>4.0</ele><time>2026-04-04T08:34:56Z</time></trkpt><trkpt lat="43.78677613439298" lon="10.404849594427153"><ele>4.6</ele><time>2026-04-04T08:34:57Z</time></trkpt><trkpt lat="43.78688838592929" lon="10.404829928127276"><ele>5.2</ele><time>2026-04-04T08:34:58Z</time></trkpt><trkpt lat="43.78699167726" lon="10.404801563780175"><ele>5.799999999999999</ele><time>2026-04-04T08:34:59Z</time></trkpt><trkpt lat="43.78708833426349" lon="10.404764800113655"><ele>6.3999999999999995</ele><time>2026-04-04T08:35:00Z</time></trkpt><trkpt lat="43.787173437238124" lon="10.404722647259746"><ele>7.0</ele><time>2026-04-04T08:35:01Z</time></trkpt><trkpt lat="43.78724917610827" lon="10.404682806761878"><ele>6.8</ele><time>2026-04-04T08:35:02Z</time></trkpt><trkpt lat="43.787322543376916" lon="10.404645439707114"><ele>6.6</ele><time>2026-04-04T08:35:03Z</time></trkpt><trkpt lat="43.78740226535653" lon="10.404621945968128"><ele>6.3999999999999995</ele><time>2026-04-04T08:35:04Z</time></trkpt><trkpt lat="43.787496357887136" lon="10.404593323688436"><ele>6.199999999999999</ele><time>2026-04-04T08:35:05Z</time></trkpt><trkpt lat="43.78757656076827" lon="10.40452259182993"><ele>6.0</ele><time>2026-04-04T08:35:06Z</time></trkpt><trkpt lat="43.78765632760339" lon="10.404432177596904"><ele>6.199999999999999</ele><time>2026-04-04T08:35:07Z</time></trkpt><trkpt lat="43.787753351065454" lon="10.404368786392569"><ele>6.3999999999999995</ele><time>2026-04-04T08:35:08Z</time></trkpt><trkpt lat="43.78785820219817" lon="10.404319160315929"><ele>6.6</ele><time>2026-04-04T08:35:09Z</time></trkpt><trkpt lat="43.78796070548384" lon="10.40426793537237"><ele>6.8</ele><time>2026-04-04T08:35:10Z</time></trkpt><trkpt lat="43.78805870732146" lon="10.404215571117895"><ele>7.0</ele><time>2026-04-04T08:35:11Z</time></trkpt><trkpt lat="43.788158660076874" lon="10.404164413191243"><ele>7.0</ele><time>2026-04-04T08:35:12Z</time></trkpt><trkpt lat="43.788264087220725" lon="10.404120432469457"><ele>7.0</ele><time>2026-04-04T08:35:13Z</time></trkpt><trkpt lat="43.78837177705455" lon="10.404083092264047"><ele>7.0</ele><time>2026-04-04T08:35:14Z</time></trkpt><trkpt lat="43.78848448265874" lon="10.404055981101697"><ele>7.0</ele><time>2026-04-04T08:35:15Z</time></trkpt><trkpt lat="43.78860333174622" lon="10.404034219031189"><ele>6.75</ele><time>2026-04-04T08:35:16Z</time></trkpt><trkpt lat="43.788732702945154" lon="10.404016023780295"><ele>6.5</ele><time>2026-04-04T08:35:17Z</time></trkpt><trkpt lat="43.788864667320276" lon="10.403997366871556"><ele>6.25</ele><time>2026-04-04T08:35:18Z</time></trkpt><trkpt lat="43.78900657127619" lon="10.403979048932293"><ele>6.0</ele><time>2026-04-04T08:35:19Z</time></trkpt><trkpt lat="43.78915327970774" lon="10.403961983514765"><ele>6.0</ele><time>2026-04-04T08:35:20Z</time></trkpt><trkpt lat="43.78930626180222" lon="10.403943687860833"><ele>6.0</ele><time>2026-04-04T08:35:21Z</time></trkpt><trkpt lat="43.78946291196126" lon="10.40392741199435"><ele>6.0</ele><time>2026-04-04T08:35:22Z</time></trkpt><trkpt lat="43.789628896318355" lon="10.40390746442081"><ele>5.333333333333333</ele><time>2026-04-04T08:35:23Z</time></trkpt><trkpt lat="43.78979560161071" lon="10.403892466118842"><ele>4.666666666666666</ele><time>2026-04-04T08:35:24Z</time></trkpt><trkpt lat="43.78996057546164" lon="10.403885679861242"><ele>4.0</ele><time>2026-04-04T08:35:25Z</time></trkpt><trkpt lat="43.79013729684382" lon="10.403877818093504"><ele>3.6666666666666665</ele><time>2026-04-04T08:35:26Z</time></trkpt><trkpt lat="43.79031400125591" lon="10.40387073087385"><ele>3.333333333333333</ele><time>2026-04-04T08:35:27Z</time></trkpt><trkpt lat="43.79048635796631" lon="10.403864976886624"><ele>3.0</ele><time>2026-04-04T08:35:28Z</time></trkpt><trkpt lat="43.79065879737074" lon="10.403857701700078"><ele>3.0</ele><time>2026-04-04T08:35:29Z</time></trkpt><trkpt lat="43.79082428691867" lon="10.403849277787376"><ele>3.0</ele><time>2026-04-04T08:35:30Z</time></trkpt><trkpt lat="43.79098515657202" lon="10.403840237543944"><ele>3.0</ele><time>2026-04-04T08:35:31Z</time></trkpt><trkpt lat="43.791146343825055" lon="10.403833519889655"><ele>4.333333333333334</ele><time>2026-04-04T08:35:32Z</time></trkpt><trkpt lat="43.791307428686494" lon="10.403829478899336"><ele>5.666666666666667</ele><time>2026-04-04T08:35:33Z</time></trkpt><trkpt lat="43.79147093825232" lon="10.403822883161741"><ele>7.0</ele><time>2026-04-04T08:35:34Z</time></trkpt><trkpt lat="43.7916197202108" lon="10.403820493926112"><ele>7.0</ele><time>2026-04-04T08:35:35Z</time></trkpt><trkpt lat="43.79177177831848" lon="10.403817454289527"><ele>7.0</ele><time>2026-04-04T08:35:36Z</time></trkpt><trkpt lat="43.79192411501373" lon="10.403810855785684"><ele>7.0</ele><time>2026-04-04T08:35:37Z</time></trkpt><trkpt lat="43.79208097869467" lon="10.403812990589559"><ele>7.333333333333334</ele><time>2026-04-04T08:35:38Z</time></trkpt><trkpt lat="43.79223233778379" lon="10.403808507486504"><ele>7.666666666666666</ele><time>2026-04-04T08:35:39Z</time></trkpt><trkpt lat="43.79239910914911" lon="10.403809790160429"><ele>8.0</ele><time>2026-04-04T08:35:40Z</time></trkpt><trkpt lat="43.79256408804212" lon="10.403818084365883"><ele>7.333333333333333</ele><time>2026-04-04T08:35:41Z</time></trkpt><trkpt lat="43.79271822634286" lon="10.40383405576013"><ele>6.666666666666666</ele><time>2026-04-04T08:35:42Z</time></trkpt><trkpt lat="43.792874872488795" lon="10.40385267015601"><ele>6.0</ele><time>2026-04-04T08:35:43Z</time></trkpt><trkpt lat="43.793028536942906" lon="10.403871106047088"><ele>6.0</ele><time>2026-04-04T08:35:44Z</time></trkpt><trkpt lat="43.79317978631742" lon="10.403893628545594"><ele>6.0</ele><time>2026-04-04T08:35:45Z</time></trkpt><trkpt lat="43.793329613062774" lon="10.403915408072887"><ele>6.0</ele><time>2026-04-04T08:35:46Z</time></trkpt><trkpt lat="43.7934726571656" lon="10.403941756384238"><ele>6.0</ele><time>2026-04-04T08:35:47Z</time></trkpt><trkpt lat="43.79361669838207" lon="10.403966979418833"><ele>6.25</ele><time>2026-04-04T08:35:48Z</time></trkpt><trkpt lat="43.79376108243785" lon="10.403990011667114"><ele>6.5</ele><time>2026-04-04T08:35:49Z</time></trkpt><trkpt lat="43.79390401973707" lon="10.404014525537852"><ele>6.75</ele><time>2026-04-04T08:35:50Z</time></trkpt><trkpt lat="43.79404545654461" lon="10.404041717769795"><ele>7.0</ele><time>2026-04-04T08:35:51Z</time></trkpt><trkpt lat="43.794184843363084" lon="10.40406650438476"><ele>7.0</ele><time>2026-04-04T08:35:52Z</time></trkpt><trkpt lat="43.79432383381744" lon="10.40409457271987"><ele>7.0</ele><time>2026-04-04T08:35:53Z</time></trkpt><trkpt lat="43.794465936653005" lon="10.404114835241309"><ele>7.0</ele><time>2026-04-04T08:35:54Z</time></trkpt><trkpt lat="43.79459098580601" lon="10.404140713671886"><ele>7.0</ele><time>2026-04-04T08:35:55Z</time></trkpt><trkpt lat="43.79471309094665" lon="10.404162859002861"><ele>7.199999999999999</ele><time>2026-04-04T08:35:56Z</time></trkpt><trkpt lat="43.79482608373405" lon="10.404178422369505"><ele>7.3999999999999995</ele><time>2026-04-04T08:35:57Z</time></trkpt><trkpt lat="43.79493329262639" lon="10.404183130061249"><ele>7.6000000000000005</ele><time>2026-04-04T08:35:58Z</time></trkpt><trkpt lat="43.79504308709312" lon="10.40417793354673"><ele>7.800000000000001</ele><time>2026-04-04T08:35:59Z</time></trkpt><trkpt lat="43.79515733802626" lon="10.404168918869997"><ele>8.0</ele><time>2026-04-04T08:36:00Z</time></trkpt><trkpt lat="43.79527000665664" lon="10.404155508952154"><ele>8.0</ele><time>2026-04-04T08:36:01Z</time></trkpt><trkpt lat="43.795387464750114" lon="10.404133041491475"><ele>8.0</ele><time>2026-04-04T08:36:02Z</time></trkpt><trkpt lat="43.79550175234893" lon="10.40410720736615"><ele>8.0</ele><time>2026-04-04T08:36:03Z</time></trkpt><trkpt lat="43.79561759682328" lon="10.40407390783405"><ele>8.0</ele><time>2026-04-04T08:36:04Z</time></trkpt><trkpt lat="43.7957346125069" lon="10.40403733104652"><ele>8.0</ele><time>2026-04-04T08:36:05Z</time></trkpt><trkpt lat="43.79585336034186" lon="10.404000121493462"><ele>8.0</ele><time>2026-04-04T08:36:06Z</time></trkpt><trkpt lat="43.79597483062837" lon="10.40396070753272"><ele>8.0</ele><time>2026-04-04T08:36:07Z</time></trkpt><trkpt lat="43.79609906761599" lon="10.403916635045563"><ele>8.0</ele><time>2026-04-04T08:36:08Z</time></trkpt><trkpt lat="43.79621839238458" lon="10.403878712796278"><ele>8.5</ele><time>2026-04-04T08:36:09Z</time></trkpt><trkpt lat="43.79633866956419" lon="10.403843508244455"><ele>9.0</ele><time>2026-04-04T08:36:10Z</time></trkpt><trkpt lat="43.796455444160976" lon="10.403802286259731"><ele>9.5</ele><time>2026-04-04T08:36:11Z</time></trkpt><trkpt lat="43.796567834168314" lon="10.403749855091258"><ele>10.0</ele><time>2026-04-04T08:36:12Z</time></trkpt><trkpt lat="43.796677789408214" lon="10.403693678663554"><ele>11.0</ele><time>2026-04-04T08:36:13Z</time></trkpt><trkpt lat="43.79687827022433" lon="10.40358707160699"><ele>12.0</ele><time>2026-04-04T08:36:14Z</time></trkpt><trkpt lat="43.79701286796061" lon="10.403535580558893"><ele>13.0</ele><time>2026-04-04T08:36:15Z</time></trkpt><trkpt lat="43.797150238558295" lon="10.403484393081905"><ele>13.0</ele><time>2026-04-04T08:36:16Z</time></trkpt><trkpt lat="43.79729018353393" lon="10.403438619177015"><ele>13.0</ele><time>2026-04-04T08:36:17Z</time></trkpt><trkpt lat="43.79743490004636" lon="10.40340523167548"><ele>13.0</ele><time>2026-04-04T08:36:18Z</time></trkpt><trkpt lat="43.79755314661046" lon="10.403375825774399"><ele>13.0</ele><time>2026-04-04T08:36:19Z</time></trkpt><trkpt lat="43.79770340632821" lon="10.403303531813481"><ele>13.666666666666666</ele><time>2026-04-04T08:36:20Z</time></trkpt><trkpt lat="43.797836998388014" lon="10.403208753409562"><ele>14.333333333333332</ele><time>2026-04-04T08:36:21Z</time></trkpt><trkpt lat="43.797952904578175" lon="10.403089663693454"><ele>15.0</ele><time>2026-04-04T08:36:22Z</time></trkpt><trkpt lat="43.79808025220305" lon="10.40295193856279"><ele>15.0</ele><time>2026-04-04T08:36:23Z</time></trkpt><trkpt lat="43.79819606090195" lon="10.402816004340012"><ele>15.0</ele><time>2026-04-04T08:36:24Z</time></trkpt><trkpt lat="43.79831030655764" lon="10.402678374624386"><ele>15.0</ele><time>2026-04-04T08:36:25Z</time></trkpt><trkpt lat="43.79843138098621" lon="10.402517773264163"><ele>13.666666666666666</ele><time>2026-04-04T08:36:26Z</time></trkpt><trkpt lat="43.798544507298324" lon="10.402352382731"><ele>12.333333333333332</ele><time>2026-04-04T08:36:27Z</time></trkpt><trkpt lat="43.7986611423411" lon="10.402186748275067"><ele>11.0</ele><time>2026-04-04T08:36:28Z</time></trkpt><trkpt lat="43.79878058286297" lon="10.402021119190108"><ele>11.0</ele><time>2026-04-04T08:36:29Z</time></trkpt><trkpt lat="43.79889971900894" lon="10.401851249926368"><ele>11.0</ele><time>2026-04-04T08:36:30Z</time></trkpt><trkpt lat="43.79901958178478" lon="10.401681071022523"><ele>11.0</ele><time>2026-04-04T08:36:31Z</time></trkpt><trkpt lat="43.79914074821086" lon="10.401510089781253"><ele>11.0</ele><time>2026-04-04T08:36:32Z</time></trkpt><trkpt lat="43.7992621371208" lon="10.401336202013034"><ele>11.0</ele><time>2026-04-04T08:36:33Z</time></trkpt><trkpt lat="43.79938819962912" lon="10.401159838203881"><ele>11.0</ele><time>2026-04-04T08:36:34Z</time></trkpt><trkpt lat="43.79951413733562" lon="10.40098553189234"><ele>11.0</ele><time>2026-04-04T08:36:35Z</time></trkpt><trkpt lat="43.79963436194575" lon="10.400817369675337"><ele>11.0</ele><time>2026-04-04T08:36:36Z</time></trkpt><trkpt lat="43.79975254909983" lon="10.400650174274302"><ele>11.0</ele><time>2026-04-04T08:36:37Z</time></trkpt><trkpt lat="43.79986765116792" lon="10.400486899249197"><ele>11.0</ele><time>2026-04-04T08:36:38Z</time></trkpt><trkpt lat="43.799980625363204" lon="10.400322883078418"><ele>11.0</ele><time>2026-04-04T08:36:39Z</time></trkpt><trkpt lat="43.80009428760512" lon="10.400158595687783"><ele>11.0</ele><time>2026-04-04T08:36:40Z</time></trkpt><trkpt lat="43.80020865135057" lon="10.399994420168158"><ele>11.333333333333332</ele><time>2026-04-04T08:36:41Z</time></trkpt><trkpt lat="43.80032446643383" lon="10.399824400207985"><ele>11.666666666666666</ele><time>2026-04-04T08:36:42Z</time></trkpt><trkpt lat="43.80044032408791" lon="10.399656127317813"><ele>12.0</ele><time>2026-04-04T08:36:43Z</time></trkpt><trkpt lat="43.80056161703514" lon="10.399489719352584"><ele>12.0</ele><time>2026-04-04T08:36:44Z</time></trkpt><trkpt lat="43.800681532671874" lon="10.399328518203717"><ele>12.0</ele><time>2026-04-04T08:36:45Z</time></trkpt><trkpt lat="43.800793797365294" lon="10.399177897666677"><ele>12.0</ele><time>2026-04-04T08:36:46Z</time></trkpt><trkpt lat="43.800903499729245" lon="10.399031366894551"><ele>11.333333333333334</ele><time>2026-04-04T08:36:47Z</time></trkpt><trkpt lat="43.801008062394494" lon="10.398884218539395"><ele>10.666666666666668</ele><time>2026-04-04T08:36:48Z</time></trkpt><trkpt lat="43.80111872294725" lon="10.398729924796312"><ele>10.0</ele><time>2026-04-04T08:36:49Z</time></trkpt><trkpt lat="43.80122729326313" lon="10.398574878875559"><ele>10.0</ele><time>2026-04-04T08:36:50Z</time></trkpt><trkpt lat="43.80133634607234" lon="10.398410385164093"><ele>10.0</ele><time>2026-04-04T08:36:51Z</time></trkpt><trkpt lat="43.80144448052341" lon="10.398246389137965"><ele>10.0</ele><time>2026-04-04T08:36:52Z</time></trkpt><trkpt lat="43.801552216491956" lon="10.398096811581903"><ele>10.0</ele><time>2026-04-04T08:36:53Z</time></trkpt><trkpt lat="43.801659315709024" lon="10.397934612980086"><ele>10.0</ele><time>2026-04-04T08:36:54Z</time></trkpt><trkpt lat="43.80177772730632" lon="10.397778505826894"><ele>10.0</ele><time>2026-04-04T08:36:55Z</time></trkpt><trkpt lat="43.80189436432502" lon="10.39761391056188"><ele>10.0</ele><time>2026-04-04T08:36:56Z</time></trkpt><trkpt lat="43.8020088808765" lon="10.397456438935121"><ele>10.0</ele><time>2026-04-04T08:36:57Z</time></trkpt><trkpt lat="43.802136569425244" lon="10.397301617644327"><ele>10.0</ele><time>2026-04-04T08:36:58Z</time></trkpt><trkpt lat="43.80227355051542" lon="10.397164873238012"><ele>10.0</ele><time>2026-04-04T08:36:59Z</time></trkpt><trkpt lat="43.802415689685986" lon="10.397044000720355"><ele>10.0</ele><time>2026-04-04T08:37:00Z</time></trkpt><trkpt lat="43.80256922854336" lon="10.396945239262948"><ele>10.0</ele><time>2026-04-04T08:37:01Z</time></trkpt><trkpt lat="43.80273279468854" lon="10.396873419497119"><ele>9.666666666666668</ele><time>2026-04-04T08:37:02Z</time></trkpt><trkpt lat="43.802892870001834" lon="10.396817502576287"><ele>9.333333333333334</ele><time>2026-04-04T08:37:03Z</time></trkpt><trkpt lat="43.80305582271977" lon="10.396791196308815"><ele>9.0</ele><time>2026-04-04T08:37:04Z</time></trkpt><trkpt lat="43.80322947611012" lon="10.396791523551908"><ele>9.0</ele><time>2026-04-04T08:37:05Z</time></trkpt><trkpt lat="43.80340070838039" lon="10.396810838977371"><ele>9.0</ele><time>2026-04-04T08:37:06Z</time></trkpt><trkpt lat="43.80356654433562" lon="10.39684525213568"><ele>9.0</ele><time>2026-04-04T08:37:07Z</time></trkpt><trkpt lat="43.80373445095339" lon="10.39689554326196"><ele>8.666666666666666</ele><time>2026-04-04T08:37:08Z</time></trkpt><trkpt lat="43.80390005133121" lon="10.396977826010573"><ele>8.333333333333332</ele><time>2026-04-04T08:37:09Z</time></trkpt><trkpt lat="43.804056549477295" lon="10.397082686055494"><ele>8.0</ele><time>2026-04-04T08:37:10Z</time></trkpt><trkpt lat="43.80421054954959" lon="10.39721568220754"><ele>8.0</ele><time>2026-04-04T08:37:11Z</time></trkpt><trkpt lat="43.804361219933895" lon="10.3973421246995"><ele>8.0</ele><time>2026-04-04T08:37:12Z</time></trkpt><trkpt lat="43.80452409825259" lon="10.39745074978462"><ele>8.0</ele><time>2026-04-04T08:37:13Z</time></trkpt><trkpt lat="43.80469552829744" lon="10.39751931140251"><ele>8.0</ele><time>2026-04-04T08:37:14Z</time></trkpt><trkpt lat="43.80486827386213" lon="10.39755567666663"><ele>8.0</ele><time>2026-04-04T08:37:15Z</time></trkpt><trkpt lat="43.8050501300086" lon="10.397589930382743"><ele>8.0</ele><time>2026-04-04T08:37:16Z</time></trkpt><trkpt lat="43.80522609442017" lon="10.397602503267965"><ele>8.0</ele><time>2026-04-04T08:37:17Z</time></trkpt><trkpt lat="43.805401083026894" lon="10.397614531284413"><ele>8.0</ele><time>2026-04-04T08:37:18Z</time></trkpt><trkpt lat="43.80557507757176" lon="10.397627393143077"><ele>8.0</ele><time>2026-04-04T08:37:19Z</time></trkpt><trkpt lat="43.80574313807514" lon="10.39764350319024"><ele>8.0</ele><time>2026-04-04T08:37:20Z</time></trkpt><trkpt lat="43.805907005011555" lon="10.397660289575619"><ele>8.0</ele><time>2026-04-04T08:37:21Z</time></trkpt><trkpt lat="43.8060701571299" lon="10.397674278594527"><ele>8.0</ele><time>2026-04-04T08:37:22Z</time></trkpt><trkpt lat="43.80623016811177" lon="10.397675735281739"><ele>9.0</ele><time>2026-04-04T08:37:23Z</time></trkpt><trkpt lat="43.806375384060125" lon="10.397670610892055"><ele>10.0</ele><time>2026-04-04T08:37:24Z</time></trkpt><trkpt lat="43.80650862569775" lon="10.397660347453469"><ele>11.0</ele><time>2026-04-04T08:37:25Z</time></trkpt><trkpt lat="43.806625544664705" lon="10.397652226063016"><ele>12.0</ele><time>2026-04-04T08:37:26Z</time></trkpt><trkpt lat="43.80673495829983" lon="10.397639499430598"><ele>12.333333333333334</ele><time>2026-04-04T08:37:27Z</time></trkpt><trkpt lat="43.80682841856002" lon="10.397630013833444"><ele>12.666666666666668</ele><time>2026-04-04T08:37:28Z</time></trkpt><trkpt lat="43.80690382751633" lon="10.397617659838383"><ele>13.0</ele><time>2026-04-04T08:37:29Z</time></trkpt><trkpt lat="43.80697465109933" lon="10.397609865265306"><ele>13.333333333333334</ele><time>2026-04-04T08:37:30Z</time></trkpt><trkpt lat="43.80705421440943" lon="10.39763167038879"><ele>13.666666666666668</ele><time>2026-04-04T08:37:31Z</time></trkpt><trkpt lat="43.80712783221713" lon="10.397709664021772"><ele>14.0</ele><time>2026-04-04T08:37:32Z</time></trkpt><trkpt lat="43.80717630844609" lon="10.397848685879792"><ele>14.0</ele><time>2026-04-04T08:37:33Z</time></trkpt><trkpt lat="43.807259350976885" lon="10.397983896480362"><ele>14.0</ele><time>2026-04-04T08:37:34Z</time></trkpt><trkpt lat="43.80733072024215" lon="10.398144546353896"><ele>14.0</ele><time>2026-04-04T08:37:35Z</time></trkpt><trkpt lat="43.80741092184062" lon="10.398311192768068"><ele>14.0</ele><time>2026-04-04T08:37:36Z</time></trkpt><trkpt lat="43.80749458844939" lon="10.398480930730928"><ele>12.666666666666668</ele><time>2026-04-04T08:37:37Z</time></trkpt><trkpt lat="43.807583656770596" lon="10.39865918506812"><ele>11.333333333333334</ele><time>2026-04-04T08:37:38Z</time></trkpt><trkpt lat="43.807676101380764" lon="10.398847965715163"><ele>10.0</ele><time>2026-04-04T08:37:39Z</time></trkpt><trkpt lat="43.80777172211859" lon="10.39903824400261"><ele>9.333333333333334</ele><time>2026-04-04T08:37:40Z</time></trkpt><trkpt lat="43.80786526758008" lon="10.399218477963439"><ele>8.666666666666666</ele><time>2026-04-04T08:37:41Z</time></trkpt><trkpt lat="43.807959564013366" lon="10.399392318160787"><ele>8.0</ele><time>2026-04-04T08:37:42Z</time></trkpt><trkpt lat="43.808057020480184" lon="10.399564342670592"><ele>7.666666666666666</ele><time>2026-04-04T08:37:43Z</time></trkpt><trkpt lat="43.80815463558601" lon="10.399727289457044"><ele>7.333333333333334</ele><time>2026-04-04T08:37:44Z</time></trkpt><trkpt lat="43.80825023947096" lon="10.39988920190913"><ele>7.0</ele><time>2026-04-04T08:37:45Z</time></trkpt><trkpt lat="43.808345433072624" lon="10.400047818536164"><ele>7.0</ele><time>2026-04-04T08:37:46Z</time></trkpt><trkpt lat="43.8084366670749" lon="10.40020175888669"><ele>7.0</ele><time>2026-04-04T08:37:47Z</time></trkpt><trkpt lat="43.80853063884466" lon="10.400352077491238"><ele>7.0</ele><time>2026-04-04T08:37:48Z</time></trkpt><trkpt lat="43.80862786636493" lon="10.40048883619505"><ele>7.0</ele><time>2026-04-04T08:37:49Z</time></trkpt><trkpt lat="43.80873021097423" lon="10.40060702429196"><ele>7.5</ele><time>2026-04-04T08:37:50Z</time></trkpt><trkpt lat="43.80883081056721" lon="10.400709733705817"><ele>8.0</ele><time>2026-04-04T08:37:51Z</time></trkpt><trkpt lat="43.808933852308414" lon="10.400794917010558"><ele>8.5</ele><time>2026-04-04T08:37:52Z</time></trkpt><trkpt lat="43.809035869940864" lon="10.40087428530368"><ele>9.0</ele><time>2026-04-04T08:37:53Z</time></trkpt><trkpt lat="43.809119889796975" lon="10.40094637135473"><ele>9.0</ele><time>2026-04-04T08:37:54Z</time></trkpt><trkpt lat="43.809190012311475" lon="10.401006505526569"><ele>9.0</ele><time>2026-04-04T08:37:55Z</time></trkpt><trkpt lat="43.80924572136843" lon="10.401065787928205"><ele>9.0</ele><time>2026-04-04T08:37:56Z</time></trkpt><trkpt lat="43.80933676059185" lon="10.401129797795743"><ele>9.0</ele><time>2026-04-04T08:37:58Z</time></trkpt><trkpt lat="43.80943097212776" lon="10.401153525008953"><ele>9.0</ele><time>2026-04-04T08:38:00Z</time></trkpt><trkpt lat="43.80952039363705" lon="10.401169491809647"><ele>9.0</ele><time>2026-04-04T08:38:02Z</time></trkpt><trkpt lat="43.80954174175829" lon="10.401369629999262"><ele>8.833333333333334</ele><time>2026-04-04T08:38:03Z</time></trkpt><trkpt lat="43.80959467242378" lon="10.401450966458038"><ele>8.666666666666666</ele><time>2026-04-04T08:38:04Z</time></trkpt><trkpt lat="43.809670009666526" lon="10.401509342620129"><ele>8.5</ele><time>2026-04-04T08:38:05Z</time></trkpt><trkpt lat="43.809733465579775" lon="10.401581889440871"><ele>8.333333333333332</ele><time>2026-04-04T08:38:06Z</time></trkpt><trkpt lat="43.80979595867107" lon="10.401664129488521"><ele>8.166666666666666</ele><time>2026-04-04T08:38:07Z</time></trkpt><trkpt lat="43.80985606559328" lon="10.401744928783565"><ele>8.0</ele><time>2026-04-04T08:38:08Z</time></trkpt><trkpt lat="43.80991196917726" lon="10.401834223513498"><ele>8.0</ele><time>2026-04-04T08:38:09Z</time></trkpt><trkpt lat="43.80996767256785" lon="10.401936857392112"><ele>8.0</ele><time>2026-04-04T08:38:10Z</time></trkpt><trkpt lat="43.81002412176157" lon="10.402042260454781"><ele>8.0</ele><time>2026-04-04T08:38:11Z</time></trkpt><trkpt lat="43.810083999716" lon="10.402141479553757"><ele>8.0</ele><time>2026-04-04T08:38:12Z</time></trkpt><trkpt lat="43.81013926124493" lon="10.40223574990398"><ele>8.0</ele><time>2026-04-04T08:38:13Z</time></trkpt><trkpt lat="43.81018869170832" lon="10.402325882879724"><ele>7.857142857142857</ele><time>2026-04-04T08:38:14Z</time></trkpt><trkpt lat="43.81023105672992" lon="10.402406318804418"><ele>7.7142857142857135</ele><time>2026-04-04T08:38:15Z</time></trkpt><trkpt lat="43.81026186075024" lon="10.402486560951814"><ele>7.571428571428571</ele><time>2026-04-04T08:38:16Z</time></trkpt><trkpt lat="43.81031321080325" lon="10.402554702367274"><ele>7.428571428571429</ele><time>2026-04-04T08:38:17Z</time></trkpt><trkpt lat="43.81035070314331" lon="10.402653197195038"><ele>7.285714285714286</ele><time>2026-04-04T08:38:18Z</time></trkpt><trkpt lat="43.810397505390995" lon="10.402746330950059"><ele>7.142857142857142</ele><time>2026-04-04T08:38:19Z</time></trkpt><trkpt lat="43.81043635822663" lon="10.402827622789792"><ele>7.0</ele><time>2026-04-04T08:38:20Z</time></trkpt><trkpt lat="43.81049236031058" lon="10.40295693040745"><ele>7.166666666666667</ele><time>2026-04-04T08:38:22Z</time></trkpt><trkpt lat="43.81050046173957" lon="10.403053560999524"><ele>7.333333333333334</ele><time>2026-04-04T08:38:24Z</time></trkpt><trkpt lat="43.81047842098904" lon="10.403141269700718"><ele>7.5</ele><time>2026-04-04T08:38:26Z</time></trkpt><trkpt lat="43.81040747769098" lon="10.403237560101623"><ele>7.666666666666666</ele><time>2026-04-04T08:38:28Z</time></trkpt><trkpt lat="43.81035485004824" lon="10.403310022908835"><ele>7.833333333333333</ele><time>2026-04-04T08:38:29Z</time></trkpt><trkpt lat="43.81029904150154" lon="10.403380808351425"><ele>8.0</ele><time>2026-04-04T08:38:30Z</time></trkpt><trkpt lat="43.81023858774246" lon="10.403457485692357"><ele>7.999999999999999</ele><time>2026-04-04T08:38:31Z</time></trkpt><trkpt lat="43.810184864333536" lon="10.40352643249746"><ele>8.0</ele><time>2026-04-04T08:38:32Z</time></trkpt><trkpt lat="43.810123897473666" lon="10.403605281396924"><ele>8.0</ele><time>2026-04-04T08:38:33Z</time></trkpt><trkpt lat="43.81006741807283" lon="10.403681112988973"><ele>8.0</ele><time>2026-04-04T08:38:34Z</time></trkpt><trkpt lat="43.810011400522555" lon="10.403756814929912"><ele>7.999999999999999</ele><time>2026-04-04T08:38:35Z</time></trkpt><trkpt lat="43.80996037605028" lon="10.403829172911587"><ele>8.0</ele><time>2026-04-04T08:38:36Z</time></trkpt><trkpt lat="43.80991446435795" lon="10.40389548983959"><ele>8.4</ele><time>2026-04-04T08:38:37Z</time></trkpt><trkpt lat="43.809815316394946" lon="10.40403479410053"><ele>8.8</ele><time>2026-04-04T08:38:39Z</time></trkpt><trkpt lat="43.80974918346524" lon="10.40412469178513"><ele>9.2</ele><time>2026-04-04T08:38:40Z</time></trkpt><trkpt lat="43.8096850245829" lon="10.404211755132167"><ele>9.6</ele><time>2026-04-04T08:38:41Z</time></trkpt><trkpt lat="43.80962654772317" lon="10.404291448947045"><ele>10.0</ele><time>2026-04-04T08:38:42Z</time></trkpt><trkpt lat="43.80957849723282" lon="10.404357532475423"><ele>10.0</ele><time>2026-04-04T08:38:43Z</time></trkpt><trkpt lat="43.80951988724052" lon="10.404437916073018"><ele>10.0</ele><time>2026-04-04T08:38:47Z</time></trkpt><trkpt lat="43.80957177876132" lon="10.40463600430552"><ele>10.0</ele><time>2026-04-04T08:38:50Z</time></trkpt><trkpt lat="43.80962277536594" lon="10.404742277200901"><ele>10.0</ele><time>2026-04-04T08:38:51Z</time></trkpt><trkpt lat="43.80971869101273" lon="10.404853082683092"><ele>10.0</ele><time>2026-04-04T08:38:52Z</time></trkpt><trkpt lat="43.8098032800167" lon="10.40497702199969"><ele>10.0</ele><time>2026-04-04T08:38:53Z</time></trkpt><trkpt lat="43.80987056866604" lon="10.40508045538695"><ele>10.0</ele><time>2026-04-04T08:38:54Z</time></trkpt><trkpt lat="43.80993003098088" lon="10.40516478021982"><ele>10.0</ele><time>2026-04-04T08:38:55Z</time></trkpt><trkpt lat="43.80998563495954" lon="10.405253539616128"><ele>10.0</ele><time>2026-04-04T08:38:56Z</time></trkpt><trkpt lat="43.810045040399665" lon="10.405339913108138"><ele>10.0</ele><time>2026-04-04T08:38:57Z</time></trkpt><trkpt lat="43.81009365715166" lon="10.405444388471054"><ele>10.0</ele><time>2026-04-04T08:38:58Z</time></trkpt><trkpt lat="43.81016602582214" lon="10.405517511001028"><ele>10.0</ele><time>2026-04-04T08:38:59Z</time></trkpt><trkpt lat="43.81021274998515" lon="10.405614864652234"><ele>10.0</ele><time>2026-04-04T08:39:00Z</time></trkpt><trkpt lat="43.81026346613035" lon="10.40568436457899"><ele>10.0</ele><time>2026-04-04T08:39:01Z</time></trkpt><trkpt lat="43.81032136512676" lon="10.405730044018664"><ele>10.0</ele><time>2026-04-04T08:39:02Z</time></trkpt><trkpt lat="43.810367478750635" lon="10.405794492777634"><ele>10.0</ele><time>2026-04-04T08:39:03Z</time></trkpt><trkpt lat="43.81040836697841" lon="10.40588370809089"><ele>10.0</ele><time>2026-04-04T08:39:04Z</time></trkpt><trkpt lat="43.81047890385488" lon="10.40595942368077"><ele>10.0</ele><time>2026-04-04T08:39:05Z</time></trkpt><trkpt lat="43.81054307784949" lon="10.406045433861141"><ele>10.0</ele><time>2026-04-04T08:39:06Z</time></trkpt><trkpt lat="43.810629601502946" lon="10.406124197213904"><ele>10.0</ele><time>2026-04-04T08:39:07Z</time></trkpt><trkpt lat="43.81072193205186" lon="10.406190255687681"><ele>10.0</ele><time>2026-04-04T08:39:08Z</time></trkpt><trkpt lat="43.81080144732359" lon="10.40627846074513"><ele>10.0</ele><time>2026-04-04T08:39:09Z</time></trkpt><trkpt lat="43.81086573836762" lon="10.406374399501242"><ele>10.0</ele><time>2026-04-04T08:39:10Z</time></trkpt><trkpt lat="43.810969058293786" lon="10.406488574681696"><ele>10.0</ele><time>2026-04-04T08:39:11Z</time></trkpt><trkpt lat="43.81108578173494" lon="10.406630439370948"><ele>9.75</ele><time>2026-04-04T08:39:12Z</time></trkpt><trkpt lat="43.81118064615072" lon="10.406744685380916"><ele>9.5</ele><time>2026-04-04T08:39:13Z</time></trkpt><trkpt lat="43.8112663613792" lon="10.406842251489968"><ele>9.25</ele><time>2026-04-04T08:39:14Z</time></trkpt><trkpt lat="43.81135594995142" lon="10.406943981649857"><ele>9.0</ele><time>2026-04-04T08:39:15Z</time></trkpt><trkpt lat="43.81144632055839" lon="10.407036444545245"><ele>9.0</ele><time>2026-04-04T08:39:16Z</time></trkpt><trkpt lat="43.811551920934335" lon="10.407140649034075"><ele>9.0</ele><time>2026-04-04T08:39:17Z</time></trkpt><trkpt lat="43.81165596866335" lon="10.407243473411054"><ele>9.0</ele><time>2026-04-04T08:39:18Z</time></trkpt><trkpt lat="43.811748699986246" lon="10.407344919624784"><ele>9.0</ele><time>2026-04-04T08:39:19Z</time></trkpt><trkpt lat="43.8118439536065" lon="10.407448436524495"><ele>9.2</ele><time>2026-04-04T08:39:20Z</time></trkpt><trkpt lat="43.81193720152852" lon="10.407538736916472"><ele>9.4</ele><time>2026-04-04T08:39:21Z</time></trkpt><trkpt lat="43.81202650370365" lon="10.407618579251592"><ele>9.6</ele><time>2026-04-04T08:39:22Z</time></trkpt><trkpt lat="43.81211037416505" lon="10.407699833822214"><ele>9.8</ele><time>2026-04-04T08:39:23Z</time></trkpt><trkpt lat="43.812194940834154" lon="10.407775654652427"><ele>10.0</ele><time>2026-04-04T08:39:24Z</time></trkpt><trkpt lat="43.81228606336979" lon="10.407860719486743"><ele>10.0</ele><time>2026-04-04T08:39:25Z</time></trkpt><trkpt lat="43.81237878404994" lon="10.407942094011084"><ele>10.0</ele><time>2026-04-04T08:39:26Z</time></trkpt><trkpt lat="43.81247524529019" lon="10.4080266299486"><ele>10.0</ele><time>2026-04-04T08:39:27Z</time></trkpt><trkpt lat="43.81257678061512" lon="10.408103184483412"><ele>10.0</ele><time>2026-04-04T08:39:28Z</time></trkpt><trkpt lat="43.812677546004544" lon="10.408184246727217"><ele>10.0</ele><time>2026-04-04T08:39:29Z</time></trkpt><trkpt lat="43.81277415551699" lon="10.408266312122429"><ele>10.0</ele><time>2026-04-04T08:39:30Z</time></trkpt><trkpt lat="43.81287334710808" lon="10.40834782110356"><ele>10.0</ele><time>2026-04-04T08:39:31Z</time></trkpt><trkpt lat="43.812976584592064" lon="10.40843180221974"><ele>10.0</ele><time>2026-04-04T08:39:32Z</time></trkpt><trkpt lat="43.81308528207433" lon="10.408516441642558"><ele>10.0</ele><time>2026-04-04T08:39:33Z</time></trkpt><trkpt lat="43.81320189736144" lon="10.40859957333939"><ele>10.0</ele><time>2026-04-04T08:39:34Z</time></trkpt><trkpt lat="43.81332233547216" lon="10.408683204956922"><ele>10.0</ele><time>2026-04-04T08:39:35Z</time></trkpt><trkpt lat="43.813443683708606" lon="10.408771521796234"><ele>10.0</ele><time>2026-04-04T08:39:36Z</time></trkpt><trkpt lat="43.81356458043163" lon="10.408855702092612"><ele>10.25</ele><time>2026-04-04T08:39:37Z</time></trkpt><trkpt lat="43.81371016467415" lon="10.408940762440906"><ele>10.5</ele><time>2026-04-04T08:39:38Z</time></trkpt><trkpt lat="43.813842587399165" lon="10.409024461550796"><ele>10.75</ele><time>2026-04-04T08:39:39Z</time></trkpt><trkpt lat="43.81395301454538" lon="10.409094319228164"><ele>11.0</ele><time>2026-04-04T08:39:40Z</time></trkpt><trkpt lat="43.814066504093645" lon="10.409153264700683"><ele>11.0</ele><time>2026-04-04T08:39:41Z</time></trkpt><trkpt lat="43.81418293190287" lon="10.409230210367758"><ele>11.0</ele><time>2026-04-04T08:39:42Z</time></trkpt><trkpt lat="43.81429321349598" lon="10.409288671678205"><ele>11.0</ele><time>2026-04-04T08:39:43Z</time></trkpt><trkpt lat="43.814402584416825" lon="10.409347145865132"><ele>11.0</ele><time>2026-04-04T08:39:44Z</time></trkpt><trkpt lat="43.814521447045735" lon="10.409393807404253"><ele>10.75</ele><time>2026-04-04T08:39:45Z</time></trkpt><trkpt lat="43.81463474169453" lon="10.409440664198105"><ele>10.5</ele><time>2026-04-04T08:39:46Z</time></trkpt><trkpt lat="43.81473830973216" lon="10.409504453047802"><ele>10.25</ele><time>2026-04-04T08:39:47Z</time></trkpt><trkpt lat="43.814830121009486" lon="10.409600606382508"><ele>10.0</ele><time>2026-04-04T08:39:48Z</time></trkpt><trkpt lat="43.81494335065618" lon="10.409677592119111"><ele>10.0</ele><time>2026-04-04T08:39:49Z</time></trkpt><trkpt lat="43.815043665105634" lon="10.409755515526738"><ele>10.0</ele><time>2026-04-04T08:39:50Z</time></trkpt><trkpt lat="43.81511610312846" lon="10.409819500944236"><ele>10.0</ele><time>2026-04-04T08:39:51Z</time></trkpt><trkpt lat="43.81517581632253" lon="10.409870240544992"><ele>10.0</ele><time>2026-04-04T08:39:52Z</time></trkpt><trkpt lat="43.815246439167666" lon="10.409929509347483"><ele>10.0</ele><time>2026-04-04T08:39:54Z</time></trkpt><trkpt lat="43.81524351056091" lon="10.410116788194822"><ele>10.333333333333334</ele><time>2026-04-04T08:40:11Z</time></trkpt><trkpt lat="43.81523428931544" lon="10.41022362510394"><ele>10.666666666666668</ele><time>2026-04-04T08:40:12Z</time></trkpt><trkpt lat="43.815220451352104" lon="10.410340635107085"><ele>11.0</ele><time>2026-04-04T08:40:13Z</time></trkpt><trkpt lat="43.815195162178256" lon="10.4104501055062"><ele>11.333333333333334</ele><time>2026-04-04T08:40:14Z</time></trkpt><trkpt lat="43.81517109099603" lon="10.410546621314268"><ele>11.666666666666666</ele><time>2026-04-04T08:40:15Z</time></trkpt><trkpt lat="43.81514986329672" lon="10.410631735923122"><ele>12.0</ele><time>2026-04-04T08:40:16Z</time></trkpt><trkpt lat="43.81520306679177" lon="10.4107131939983"><ele>12.0</ele><time>2026-04-04T08:40:17Z</time></trkpt><trkpt lat="43.81522127748804" lon="10.410796848856572"><ele>12.0</ele><time>2026-04-04T08:40:32Z</time></trkpt><trkpt lat="43.815283435020724" lon="10.410840063885637"><ele>12.0</ele><time>2026-04-04T08:40:33Z</time></trkpt><trkpt lat="43.81534448344478" lon="10.410891781782459"><ele>12.0</ele><time>2026-04-04T08:40:34Z</time></trkpt><trkpt lat="43.81544534199844" lon="10.41096330304669"><ele>12.0</ele><time>2026-04-04T08:40:35Z</time></trkpt><trkpt lat="43.81557758583241" lon="10.411051472068962"><ele>12.0</ele><time>2026-04-04T08:40:36Z</time></trkpt><trkpt lat="43.8156833663138" lon="10.411116993458561"><ele>12.0</ele><time>2026-04-04T08:40:37Z</time></trkpt><trkpt lat="43.81578170737821" lon="10.411190283421947"><ele>12.0</ele><time>2026-04-04T08:40:38Z</time></trkpt><trkpt lat="43.81587544672861" lon="10.411262697382291"><ele>12.0</ele><time>2026-04-04T08:40:39Z</time></trkpt><trkpt lat="43.81596598348382" lon="10.411341257022379"><ele>12.0</ele><time>2026-04-04T08:40:40Z</time></trkpt><trkpt lat="43.816054958101766" lon="10.411418494232489"><ele>11.6</ele><time>2026-04-04T08:40:41Z</time></trkpt><trkpt lat="43.81614408003095" lon="10.411493706051267"><ele>11.2</ele><time>2026-04-04T08:40:42Z</time></trkpt><trkpt lat="43.81623426811435" lon="10.411567456656208"><ele>10.8</ele><time>2026-04-04T08:40:43Z</time></trkpt><trkpt lat="43.81632524479236" lon="10.41164402252152"><ele>10.4</ele><time>2026-04-04T08:40:44Z</time></trkpt><trkpt lat="43.81641771747559" lon="10.411716915127084"><ele>10.0</ele><time>2026-04-04T08:40:45Z</time></trkpt><trkpt lat="43.816507102706446" lon="10.411787745508818"><ele>10.0</ele><time>2026-04-04T08:40:46Z</time></trkpt><trkpt lat="43.81659999342978" lon="10.411860236608481"><ele>10.0</ele><time>2026-04-04T08:40:47Z</time></trkpt><trkpt lat="43.816691582825925" lon="10.41193567650234"><ele>10.0</ele><time>2026-04-04T08:40:48Z</time></trkpt><trkpt lat="43.81678112117961" lon="10.412009673053511"><ele>10.0</ele><time>2026-04-04T08:40:49Z</time></trkpt><trkpt lat="43.8168698170479" lon="10.412082486560315"><ele>10.0</ele><time>2026-04-04T08:40:50Z</time></trkpt><trkpt lat="43.81696213707257" lon="10.412155198237123"><ele>10.4</ele><time>2026-04-04T08:40:51Z</time></trkpt><trkpt lat="43.81705457470475" lon="10.41222638693401"><ele>10.8</ele><time>2026-04-04T08:40:52Z</time></trkpt><trkpt lat="43.817143176998265" lon="10.412298415517492"><ele>11.2</ele><time>2026-04-04T08:40:53Z</time></trkpt><trkpt lat="43.817240417811696" lon="10.412369976066989"><ele>11.6</ele><time>2026-04-04T08:40:54Z</time></trkpt><trkpt lat="43.81734079320136" lon="10.41243418609278"><ele>12.0</ele><time>2026-04-04T08:40:55Z</time></trkpt><trkpt lat="43.81744340362696" lon="10.4124977133937"><ele>12.0</ele><time>2026-04-04T08:40:56Z</time></trkpt><trkpt lat="43.81754489606475" lon="10.412556622720441"><ele>12.0</ele><time>2026-04-04T08:40:57Z</time></trkpt><trkpt lat="43.81765108370104" lon="10.412608837412835"><ele>12.0</ele><time>2026-04-04T08:40:58Z</time></trkpt><trkpt lat="43.81776011133504" lon="10.412659780758323"><ele>12.0</ele><time>2026-04-04T08:40:59Z</time></trkpt><trkpt lat="43.81786621412375" lon="10.41270837565483"><ele>12.0</ele><time>2026-04-04T08:41:00Z</time></trkpt><trkpt lat="43.81797426783371" lon="10.41275783116262"><ele>12.0</ele><time>2026-04-04T08:41:01Z</time></trkpt><trkpt lat="43.818079229380345" lon="10.412802489986657"><ele>12.0</ele><time>2026-04-04T08:41:02Z</time></trkpt><trkpt lat="43.81818098460706" lon="10.412860765516216"><ele>12.0</ele><time>2026-04-04T08:41:03Z</time></trkpt><trkpt lat="43.81829156577299" lon="10.412895919257458"><ele>12.0</ele><time>2026-04-04T08:41:04Z</time></trkpt><trkpt lat="43.818392969526066" lon="10.412940820125781"><ele>12.0</ele><time>2026-04-04T08:41:05Z</time></trkpt><trkpt lat="43.81849342923263" lon="10.412979651318494"><ele>11.833333333333334</ele><time>2026-04-04T08:41:06Z</time></trkpt><trkpt lat="43.81859418514857" lon="10.413018076593415"><ele>11.666666666666666</ele><time>2026-04-04T08:41:07Z</time></trkpt><trkpt lat="43.81868965082062" lon="10.41304010035839"><ele>11.5</ele><time>2026-04-04T08:41:08Z</time></trkpt><trkpt lat="43.818774699416004" lon="10.413046709988434"><ele>11.333333333333332</ele><time>2026-04-04T08:41:09Z</time></trkpt><trkpt lat="43.81885158436351" lon="10.413059927387721"><ele>11.166666666666666</ele><time>2026-04-04T08:41:10Z</time></trkpt><trkpt lat="43.81893181189357" lon="10.41306481336671"><ele>11.0</ele><time>2026-04-04T08:41:11Z</time></trkpt><trkpt lat="43.81903820295585" lon="10.41308511419851"><ele>11.0</ele><time>2026-04-04T08:41:13Z</time></trkpt><trkpt lat="43.81911140301753" lon="10.41307736829694"><ele>11.0</ele><time>2026-04-04T08:41:15Z</time></trkpt><trkpt lat="43.81920843195821" lon="10.413031366190022"><ele>11.0</ele><time>2026-04-04T08:41:17Z</time></trkpt><trkpt lat="43.819274035672855" lon="10.41300250668342"><ele>11.0</ele><time>2026-04-04T08:41:18Z</time></trkpt><trkpt lat="43.81935056725158" lon="10.412932324382695"><ele>11.0</ele><time>2026-04-04T08:41:19Z</time></trkpt><trkpt lat="43.819394750942585" lon="10.412817431399523"><ele>11.0</ele><time>2026-04-04T08:41:21Z</time></trkpt><trkpt lat="43.819471587161736" lon="10.41270703803512"><ele>11.200000000000001</ele><time>2026-04-04T08:41:25Z</time></trkpt><trkpt lat="43.819489617954304" lon="10.412586073650102"><ele>11.4</ele><time>2026-04-04T08:41:26Z</time></trkpt><trkpt lat="43.81953488478615" lon="10.412464212554353"><ele>11.6</ele><time>2026-04-04T08:41:27Z</time></trkpt><trkpt lat="43.819577227098776" lon="10.412315583498712"><ele>11.8</ele><time>2026-04-04T08:41:28Z</time></trkpt><trkpt lat="43.819622775804426" lon="10.412168102751169"><ele>12.0</ele><time>2026-04-04T08:41:29Z</time></trkpt><trkpt lat="43.819670835028155" lon="10.412042569536542"><ele>12.399999999999999</ele><time>2026-04-04T08:41:30Z</time></trkpt><trkpt lat="43.819719114212376" lon="10.411929605030656"><ele>12.799999999999999</ele><time>2026-04-04T08:41:31Z</time></trkpt><trkpt lat="43.81977355477141" lon="10.411835822698952"><ele>13.2</ele><time>2026-04-04T08:41:32Z</time></trkpt><trkpt lat="43.81984405283325" lon="10.411766322302975"><ele>13.6</ele><time>2026-04-04T08:41:33Z</time></trkpt><trkpt lat="43.81992609705532" lon="10.411708866757916"><ele>14.0</ele><time>2026-04-04T08:41:34Z</time></trkpt><trkpt lat="43.82000920461243" lon="10.411644107667382"><ele>14.0</ele><time>2026-04-04T08:41:35Z</time></trkpt><trkpt lat="43.82010251228524" lon="10.411573150063322"><ele>13.999999999999998</ele><time>2026-04-04T08:41:36Z</time></trkpt><trkpt lat="43.82019702537194" lon="10.411498619131033"><ele>13.999999999999998</ele><time>2026-04-04T08:41:37Z</time></trkpt><trkpt lat="43.82029146119676" lon="10.411417640031518"><ele>14.0</ele><time>2026-04-04T08:41:38Z</time></trkpt><trkpt lat="43.820379883965366" lon="10.411342215997458"><ele>14.0</ele><time>2026-04-04T08:41:39Z</time></trkpt><trkpt lat="43.82044521069729" lon="10.411263947852966"><ele>13.6</ele><time>2026-04-04T08:41:40Z</time></trkpt><trkpt lat="43.82049554583202" lon="10.41116124755334"><ele>13.2</ele><time>2026-04-04T08:41:41Z</time></trkpt><trkpt lat="43.82052792758185" lon="10.411042102266961"><ele>12.799999999999999</ele><time>2026-04-04T08:41:42Z</time></trkpt><trkpt lat="43.82055479148035" lon="10.410919276481147"><ele>12.399999999999999</ele><time>2026-04-04T08:41:43Z</time></trkpt><trkpt lat="43.82057999942463" lon="10.410795477850915"><ele>12.0</ele><time>2026-04-04T08:41:44Z</time></trkpt><trkpt lat="43.82060432216243" lon="10.4106669205216"><ele>12.0</ele><time>2026-04-04T08:41:45Z</time></trkpt><trkpt lat="43.82062974574412" lon="10.410544368401808"><ele>12.0</ele><time>2026-04-04T08:41:46Z</time></trkpt><trkpt lat="43.82064922784654" lon="10.410437041701188"><ele>12.0</ele><time>2026-04-04T08:41:47Z</time></trkpt><trkpt lat="43.8206649692281" lon="10.410351715316287"><ele>12.0</ele><time>2026-04-04T08:41:48Z</time></trkpt><trkpt lat="43.82070108604611" lon="10.410239267592896"><ele>12.0</ele><time>2026-04-04T08:41:50Z</time></trkpt><trkpt lat="43.82083024766658" lon="10.410221116136304"><ele>13.2</ele><time>2026-04-04T08:41:53Z</time></trkpt><trkpt lat="43.82091413471952" lon="10.41026937200837"><ele>14.399999999999999</ele><time>2026-04-04T08:41:54Z</time></trkpt><trkpt lat="43.82100344760507" lon="10.410314203410417"><ele>15.600000000000001</ele><time>2026-04-04T08:41:55Z</time></trkpt><trkpt lat="43.821104859533264" lon="10.410351673778372"><ele>16.8</ele><time>2026-04-04T08:41:56Z</time></trkpt><trkpt lat="43.821212173773304" lon="10.410382131918885"><ele>18.0</ele><time>2026-04-04T08:41:57Z</time></trkpt><trkpt lat="43.82131433689062" lon="10.410404193727144"><ele>18.6</ele><time>2026-04-04T08:41:58Z</time></trkpt><trkpt lat="43.821410415617414" lon="10.410423198911996"><ele>19.200000000000003</ele><time>2026-04-04T08:41:59Z</time></trkpt><trkpt lat="43.821506728274926" lon="10.41044415166983"><ele>19.8</ele><time>2026-04-04T08:42:00Z</time></trkpt><trkpt lat="43.82160831679231" lon="10.410469207602823"><ele>20.400000000000002</ele><time>2026-04-04T08:42:01Z</time></trkpt><trkpt lat="43.82171000196634" lon="10.410495074839657"><ele>21.0</ele><time>2026-04-04T08:42:02Z</time></trkpt><trkpt lat="43.821814593322195" lon="10.41052089333959"><ele>19.8</ele><time>2026-04-04T08:42:03Z</time></trkpt><trkpt lat="43.82191804437103" lon="10.410545436610015"><ele>18.6</ele><time>2026-04-04T08:42:04Z</time></trkpt><trkpt lat="43.82202127453029" lon="10.410568972719815"><ele>17.4</ele><time>2026-04-04T08:42:05Z</time></trkpt><trkpt lat="43.822127601867486" lon="10.410590778253638"><ele>16.2</ele><time>2026-04-04T08:42:06Z</time></trkpt><trkpt lat="43.82223213371901" lon="10.410606566393948"><ele>15.0</ele><time>2026-04-04T08:42:07Z</time></trkpt><trkpt lat="43.822336389372346" lon="10.410606118588511"><ele>15.0</ele><time>2026-04-04T08:42:08Z</time></trkpt><trkpt lat="43.822442702465516" lon="10.410582203823393"><ele>15.0</ele><time>2026-04-04T08:42:09Z</time></trkpt><trkpt lat="43.82255385357237" lon="10.410531237756748"><ele>15.0</ele><time>2026-04-04T08:42:10Z</time></trkpt><trkpt lat="43.82267120053374" lon="10.41046503655088"><ele>15.0</ele><time>2026-04-04T08:42:11Z</time></trkpt><trkpt lat="43.822785701631226" lon="10.410398194635825"><ele>15.2</ele><time>2026-04-04T08:42:12Z</time></trkpt><trkpt lat="43.82289633003861" lon="10.410338480345334"><ele>15.4</ele><time>2026-04-04T08:42:13Z</time></trkpt><trkpt lat="43.822998228666115" lon="10.41028726669361"><ele>15.600000000000001</ele><time>2026-04-04T08:42:14Z</time></trkpt><trkpt lat="43.823092394659625" lon="10.410242555370758"><ele>15.8</ele><time>2026-04-04T08:42:15Z</time></trkpt><trkpt lat="43.823182327216614" lon="10.410200254546021"><ele>16.0</ele><time>2026-04-04T08:42:16Z</time></trkpt><trkpt lat="43.82326992518699" lon="10.410157477153291"><ele>16.0</ele><time>2026-04-04T08:42:17Z</time></trkpt><trkpt lat="43.823360235032915" lon="10.41012124773446"><ele>16.0</ele><time>2026-04-04T08:42:18Z</time></trkpt><trkpt lat="43.82345132406469" lon="10.410100179240466"><ele>16.0</ele><time>2026-04-04T08:42:19Z</time></trkpt><trkpt lat="43.823552434479176" lon="10.410133199699432"><ele>16.0</ele><time>2026-04-04T08:42:20Z</time></trkpt><trkpt lat="43.82365326667249" lon="10.410194550842425"><ele>16.0</ele><time>2026-04-04T08:42:21Z</time></trkpt><trkpt lat="43.82375802199632" lon="10.410297237399146"><ele>16.8</ele><time>2026-04-04T08:42:22Z</time></trkpt><trkpt lat="43.8238416854407" lon="10.410411337561793"><ele>17.6</ele><time>2026-04-04T08:42:23Z</time></trkpt><trkpt lat="43.82392476058013" lon="10.410498875266253"><ele>18.4</ele><time>2026-04-04T08:42:24Z</time></trkpt><trkpt lat="43.824004165799224" lon="10.410568165847625"><ele>19.2</ele><time>2026-04-04T08:42:25Z</time></trkpt><trkpt lat="43.82408827353927" lon="10.410635057163837"><ele>20.0</ele><time>2026-04-04T08:42:26Z</time></trkpt><trkpt lat="43.82417533644981" lon="10.41070128846755"><ele>20.0</ele><time>2026-04-04T08:42:27Z</time></trkpt><trkpt lat="43.82426576920666" lon="10.41077095612593"><ele>20.0</ele><time>2026-04-04T08:42:28Z</time></trkpt><trkpt lat="43.82435976581421" lon="10.410844595636426"><ele>20.0</ele><time>2026-04-04T08:42:29Z</time></trkpt><trkpt lat="43.824453226566675" lon="10.41091717281006"><ele>20.0</ele><time>2026-04-04T08:42:30Z</time></trkpt><trkpt lat="43.82454936222749" lon="10.410986526460498"><ele>20.0</ele><time>2026-04-04T08:42:31Z</time></trkpt><trkpt lat="43.824650572157694" lon="10.411049055876855"><ele>21.75</ele><time>2026-04-04T08:42:32Z</time></trkpt><trkpt lat="43.82475797588692" lon="10.411095267480286"><ele>23.5</ele><time>2026-04-04T08:42:33Z</time></trkpt><trkpt lat="43.82488357579266" lon="10.41109068897066"><ele>25.25</ele><time>2026-04-04T08:42:34Z</time></trkpt><trkpt lat="43.82500083459184" lon="10.411072812321889"><ele>27.0</ele><time>2026-04-04T08:42:35Z</time></trkpt><trkpt lat="43.82512562090555" lon="10.411057555078724"><ele>23.0</ele><time>2026-04-04T08:42:36Z</time></trkpt><trkpt lat="43.825268110685855" lon="10.41098753875383"><ele>19.0</ele><time>2026-04-04T08:42:37Z</time></trkpt><trkpt lat="43.82543700297843" lon="10.410864822250778"><ele>15.0</ele><time>2026-04-04T08:42:38Z</time></trkpt><trkpt lat="43.82561942772463" lon="10.410712148187002"><ele>15.0</ele><time>2026-04-04T08:42:39Z</time></trkpt><trkpt lat="43.82578658396685" lon="10.410561176511555"><ele>15.0</ele><time>2026-04-04T08:42:40Z</time></trkpt><trkpt lat="43.82594954943549" lon="10.410397299720222"><ele>15.0</ele><time>2026-04-04T08:42:41Z</time></trkpt><trkpt lat="43.82610249606654" lon="10.410234673470784"><ele>15.0</ele><time>2026-04-04T08:42:42Z</time></trkpt><trkpt lat="43.82625099436833" lon="10.410093464919173"><ele>15.0</ele><time>2026-04-04T08:42:43Z</time></trkpt><trkpt lat="43.82640298598327" lon="10.410002020213744"><ele>15.0</ele><time>2026-04-04T08:42:44Z</time></trkpt><trkpt lat="43.82655882670192" lon="10.409946204953524"><ele>15.0</ele><time>2026-04-04T08:42:45Z</time></trkpt><trkpt lat="43.82671537911329" lon="10.409908338528965"><ele>15.0</ele><time>2026-04-04T08:42:46Z</time></trkpt><trkpt lat="43.82686525180134" lon="10.409876136631539"><ele>15.0</ele><time>2026-04-04T08:42:47Z</time></trkpt><trkpt lat="43.826998095243624" lon="10.409851168191887"><ele>15.0</ele><time>2026-04-04T08:42:48Z</time></trkpt><trkpt lat="43.82712672722735" lon="10.409847771850577"><ele>16.0</ele><time>2026-04-04T08:42:49Z</time></trkpt><trkpt lat="43.8272448040246" lon="10.409907756845492"><ele>17.0</ele><time>2026-04-04T08:42:50Z</time></trkpt><trkpt lat="43.827323701999156" lon="10.410073318789898"><ele>18.0</ele><time>2026-04-04T08:42:51Z</time></trkpt><trkpt lat="43.82739917228757" lon="10.410237712787385"><ele>19.0</ele><time>2026-04-04T08:42:52Z</time></trkpt><trkpt lat="43.827466337282345" lon="10.410384789432356"><ele>17.4</ele><time>2026-04-04T08:42:53Z</time></trkpt><trkpt lat="43.82752175469514" lon="10.41050820903771"><ele>15.799999999999999</ele><time>2026-04-04T08:42:54Z</time></trkpt><trkpt lat="43.827576021699855" lon="10.410632628081174"><ele>14.2</ele><time>2026-04-04T08:42:55Z</time></trkpt><trkpt lat="43.82762938601522" lon="10.410740204097984"><ele>12.600000000000001</ele><time>2026-04-04T08:42:56Z</time></trkpt><trkpt lat="43.82770340107" lon="10.410830682891916"><ele>11.0</ele><time>2026-04-04T08:42:57Z</time></trkpt><trkpt lat="43.82777615880517" lon="10.410931729829274"><ele>11.0</ele><time>2026-04-04T08:42:58Z</time></trkpt><trkpt lat="43.8278678812033" lon="10.411031132317959"><ele>11.0</ele><time>2026-04-04T08:42:59Z</time></trkpt><trkpt lat="43.82795787457888" lon="10.411131654420464"><ele>11.0</ele><time>2026-04-04T08:43:00Z</time></trkpt><trkpt lat="43.8280511682085" lon="10.411239144425881"><ele>11.0</ele><time>2026-04-04T08:43:01Z</time></trkpt><trkpt lat="43.82812762186596" lon="10.411374487311795"><ele>10.75</ele><time>2026-04-04T08:43:02Z</time></trkpt><trkpt lat="43.828223341825485" lon="10.4114916049197"><ele>10.5</ele><time>2026-04-04T08:43:03Z</time></trkpt><trkpt lat="43.828306377576716" lon="10.41162769788652"><ele>10.25</ele><time>2026-04-04T08:43:04Z</time></trkpt><trkpt lat="43.828378092336365" lon="10.411787695523017"><ele>10.0</ele><time>2026-04-04T08:43:05Z</time></trkpt><trkpt lat="43.8284596007455" lon="10.411936497769567"><ele>10.0</ele><time>2026-04-04T08:43:06Z</time></trkpt><trkpt lat="43.82853821938278" lon="10.412088528490685"><ele>10.0</ele><time>2026-04-04T08:43:07Z</time></trkpt><trkpt lat="43.82861126043767" lon="10.412237169418212"><ele>10.0</ele><time>2026-04-04T08:43:08Z</time></trkpt><trkpt lat="43.828680413116864" lon="10.41238235695505"><ele>10.0</ele><time>2026-04-04T08:43:09Z</time></trkpt><trkpt lat="43.82876258112528" lon="10.412508691285923"><ele>10.5</ele><time>2026-04-04T08:43:10Z</time></trkpt><trkpt lat="43.82882995331051" lon="10.412647739692273"><ele>11.0</ele><time>2026-04-04T08:43:11Z</time></trkpt><trkpt lat="43.82888152510046" lon="10.412802566829873"><ele>11.5</ele><time>2026-04-04T08:43:12Z</time></trkpt><trkpt lat="43.828942569960475" lon="10.412950852281718"><ele>12.0</ele><time>2026-04-04T08:43:13Z</time></trkpt><trkpt lat="43.82900280814713" lon="10.413099005423794"><ele>12.0</ele><time>2026-04-04T08:43:14Z</time></trkpt><trkpt lat="43.82906042511098" lon="10.413250664368633"><ele>12.0</ele><time>2026-04-04T08:43:15Z</time></trkpt><trkpt lat="43.82911620425561" lon="10.413404109642295"><ele>12.0</ele><time>2026-04-04T08:43:16Z</time></trkpt><trkpt lat="43.82916739941905" lon="10.41355050180296"><ele>12.0</ele><time>2026-04-04T08:43:17Z</time></trkpt><trkpt lat="43.82921601205257" lon="10.413692297247925"><ele>11.6</ele><time>2026-04-04T08:43:18Z</time></trkpt><trkpt lat="43.82925978793435" lon="10.413824496429337"><ele>11.2</ele><time>2026-04-04T08:43:19Z</time></trkpt><trkpt lat="43.82929948833252" lon="10.413951115089707"><ele>10.8</ele><time>2026-04-04T08:43:20Z</time></trkpt><trkpt lat="43.82933733662679" lon="10.414079967648702"><ele>10.4</ele><time>2026-04-04T08:43:21Z</time></trkpt><trkpt lat="43.82937521607957" lon="10.414210919345406"><ele>10.0</ele><time>2026-04-04T08:43:22Z</time></trkpt><trkpt lat="43.82940956154387" lon="10.414340275570247"><ele>10.0</ele><time>2026-04-04T08:43:23Z</time></trkpt><trkpt lat="43.829443653612586" lon="10.414473402944177"><ele>10.0</ele><time>2026-04-04T08:43:24Z</time></trkpt><trkpt lat="43.829477707637004" lon="10.414608668095694"><ele>10.0</ele><time>2026-04-04T08:43:25Z</time></trkpt><trkpt lat="43.82951009111521" lon="10.414743491349206"><ele>10.0</ele><time>2026-04-04T08:43:26Z</time></trkpt><trkpt lat="43.82954197120093" lon="10.414876060826828"><ele>10.0</ele><time>2026-04-04T08:43:27Z</time></trkpt><trkpt lat="43.82959900376301" lon="10.414988163755526"><ele>10.5</ele><time>2026-04-04T08:43:28Z</time></trkpt><trkpt lat="43.82964124817153" lon="10.41509877456448"><ele>11.0</ele><time>2026-04-04T08:43:29Z</time></trkpt><trkpt lat="43.82968827111904" lon="10.415193250491425"><ele>11.5</ele><time>2026-04-04T08:43:30Z</time></trkpt><trkpt lat="43.829729673615724" lon="10.415294177226416"><ele>12.0</ele><time>2026-04-04T08:43:31Z</time></trkpt><trkpt lat="43.82976832158631" lon="10.415387586666906"><ele>12.499999999999998</ele><time>2026-04-04T08:43:32Z</time></trkpt><trkpt lat="43.829804833215555" lon="10.41547921908521"><ele>13.0</ele><time>2026-04-04T08:43:33Z</time></trkpt><trkpt lat="43.82986247932063" lon="10.415561884553833"><ele>13.2</ele><time>2026-04-04T08:43:34Z</time></trkpt><trkpt lat="43.82991642309686" lon="10.415644634385755"><ele>13.4</ele><time>2026-04-04T08:43:35Z</time></trkpt><trkpt lat="43.8299892711848" lon="10.415710949604039"><ele>13.599999999999998</ele><time>2026-04-04T08:43:36Z</time></trkpt><trkpt lat="43.83007881213304" lon="10.415753062145532"><ele>13.799999999999999</ele><time>2026-04-04T08:43:37Z</time></trkpt><trkpt lat="43.830177083341866" lon="10.415769808754733"><ele>14.0</ele><time>2026-04-04T08:43:38Z</time></trkpt><trkpt lat="43.830284614411376" lon="10.4157719217899"><ele>13.6</ele><time>2026-04-04T08:43:39Z</time></trkpt><trkpt lat="43.83039697985532" lon="10.415765871495067"><ele>13.2</ele><time>2026-04-04T08:43:40Z</time></trkpt><trkpt lat="43.830500237614224" lon="10.415761304912426"><ele>12.799999999999999</ele><time>2026-04-04T08:43:41Z</time></trkpt><trkpt lat="43.83060476532476" lon="10.415755387867899"><ele>12.399999999999999</ele><time>2026-04-04T08:43:42Z</time></trkpt><trkpt lat="43.830723567276394" lon="10.415751412229277"><ele>12.0</ele><time>2026-04-04T08:43:43Z</time></trkpt><trkpt lat="43.83083456175268" lon="10.415749204140045"><ele>12.0</ele><time>2026-04-04T08:43:44Z</time></trkpt><trkpt lat="43.83093935830229" lon="10.415748220265376"><ele>12.0</ele><time>2026-04-04T08:43:45Z</time></trkpt><trkpt lat="43.831049468205634" lon="10.415755060892305"><ele>12.0</ele><time>2026-04-04T08:43:46Z</time></trkpt><trkpt lat="43.83116177735332" lon="10.415762306436324"><ele>12.0</ele><time>2026-04-04T08:43:47Z</time></trkpt><trkpt lat="43.83127476110177" lon="10.415774510048937"><ele>12.0</ele><time>2026-04-04T08:43:48Z</time></trkpt><trkpt lat="43.83138365278255" lon="10.415782660147737"><ele>11.833333333333334</ele><time>2026-04-04T08:43:49Z</time></trkpt><trkpt lat="43.83148430562653" lon="10.415793122889962"><ele>11.666666666666666</ele><time>2026-04-04T08:43:50Z</time></trkpt><trkpt lat="43.83158105250045" lon="10.415811212319122"><ele>11.5</ele><time>2026-04-04T08:43:51Z</time></trkpt><trkpt lat="43.831669455382446" lon="10.415821189027676"><ele>11.333333333333332</ele><time>2026-04-04T08:43:52Z</time></trkpt><trkpt lat="43.83174775397026" lon="10.415830550625559"><ele>11.166666666666666</ele><time>2026-04-04T08:43:53Z</time></trkpt><trkpt lat="43.831808472438425" lon="10.415878767229763"><ele>11.0</ele><time>2026-04-04T08:43:54Z</time></trkpt><trkpt lat="43.83180049871971" lon="10.416088621120398"><ele>11.0</ele><time>2026-04-04T08:43:56Z</time></trkpt><trkpt lat="43.83181237694784" lon="10.416225323972846"><ele>11.0</ele><time>2026-04-04T08:43:57Z</time></trkpt><trkpt lat="43.83182545702708" lon="10.416369655140084"><ele>11.0</ele><time>2026-04-04T08:43:58Z</time></trkpt><trkpt lat="43.83185007259249" lon="10.416518668455542"><ele>11.0</ele><time>2026-04-04T08:43:59Z</time></trkpt><trkpt lat="43.83186424833952" lon="10.416662893350534"><ele>11.0</ele><time>2026-04-04T08:44:00Z</time></trkpt><trkpt lat="43.83187369141625" lon="10.416786217591582"><ele>11.166666666666666</ele><time>2026-04-04T08:44:01Z</time></trkpt><trkpt lat="43.83188488309813" lon="10.416894946189624"><ele>11.333333333333332</ele><time>2026-04-04T08:44:02Z</time></trkpt><trkpt lat="43.83189424250805" lon="10.416987245874642"><ele>11.5</ele><time>2026-04-04T08:44:03Z</time></trkpt><trkpt lat="43.83190070346146" lon="10.417075507983776"><ele>11.666666666666666</ele><time>2026-04-04T08:44:04Z</time></trkpt><trkpt lat="43.831914350776536" lon="10.417175223165735"><ele>11.833333333333334</ele><time>2026-04-04T08:44:05Z</time></trkpt><trkpt lat="43.831930421462715" lon="10.417318673707278"><ele>12.0</ele><time>2026-04-04T08:44:06Z</time></trkpt><trkpt lat="43.83194737369475" lon="10.417479146700158"><ele>12.0</ele><time>2026-04-04T08:44:07Z</time></trkpt><trkpt lat="43.8319858376982" lon="10.417660064861153"><ele>12.0</ele><time>2026-04-04T08:44:08Z</time></trkpt><trkpt lat="43.832039241739466" lon="10.4178485088421"><ele>12.0</ele><time>2026-04-04T08:44:09Z</time></trkpt><trkpt lat="43.832104858390785" lon="10.418043758068539"><ele>12.0</ele><time>2026-04-04T08:44:10Z</time></trkpt><trkpt lat="43.83218178667468" lon="10.418235186795712"><ele>12.666666666666668</ele><time>2026-04-04T08:44:11Z</time></trkpt><trkpt lat="43.83227649388342" lon="10.418424959402913"><ele>13.333333333333334</ele><time>2026-04-04T08:44:12Z</time></trkpt><trkpt lat="43.83238539442956" lon="10.418613118447395"><ele>14.0</ele><time>2026-04-04T08:44:13Z</time></trkpt><trkpt lat="43.832503873398" lon="10.41879649170987"><ele>14.0</ele><time>2026-04-04T08:44:14Z</time></trkpt><trkpt lat="43.83262860869144" lon="10.418985634124338"><ele>14.0</ele><time>2026-04-04T08:44:15Z</time></trkpt><trkpt lat="43.83274944328599" lon="10.419183868286837"><ele>14.0</ele><time>2026-04-04T08:44:16Z</time></trkpt><trkpt lat="43.832870511865785" lon="10.419391909530693"><ele>13.666666666666668</ele><time>2026-04-04T08:44:17Z</time></trkpt><trkpt lat="43.83298976260114" lon="10.419591763780073"><ele>13.333333333333332</ele><time>2026-04-04T08:44:18Z</time></trkpt><trkpt lat="43.83310765069144" lon="10.419780622516928"><ele>13.0</ele><time>2026-04-04T08:44:19Z</time></trkpt><trkpt lat="43.83322787134469" lon="10.419974242877734"><ele>13.0</ele><time>2026-04-04T08:44:20Z</time></trkpt><trkpt lat="43.833338989193564" lon="10.42016007193017"><ele>13.0</ele><time>2026-04-04T08:44:21Z</time></trkpt><trkpt lat="43.83345818296392" lon="10.420354295592624"><ele>13.0</ele><time>2026-04-04T08:44:22Z</time></trkpt><trkpt lat="43.833570373484136" lon="10.420544366180442"><ele>14.666666666666666</ele><time>2026-04-04T08:44:23Z</time></trkpt><trkpt lat="43.833688228792916" lon="10.420740928729737"><ele>16.333333333333332</ele><time>2026-04-04T08:44:24Z</time></trkpt><trkpt lat="43.8338033628418" lon="10.420933260211017"><ele>18.0</ele><time>2026-04-04T08:44:25Z</time></trkpt><trkpt lat="43.83391911657196" lon="10.421125405360357"><ele>16.666666666666668</ele><time>2026-04-04T08:44:26Z</time></trkpt><trkpt lat="43.83404059066232" lon="10.421320882139915"><ele>15.333333333333334</ele><time>2026-04-04T08:44:27Z</time></trkpt><trkpt lat="43.8341565513305" lon="10.421514001808951"><ele>14.0</ele><time>2026-04-04T08:44:28Z</time></trkpt><trkpt lat="43.83427142264267" lon="10.42171315105687"><ele>13.333333333333334</ele><time>2026-04-04T08:44:29Z</time></trkpt><trkpt lat="43.83438938025962" lon="10.421913433833588"><ele>12.666666666666668</ele><time>2026-04-04T08:44:30Z</time></trkpt><trkpt lat="43.834504078882645" lon="10.42210647035196"><ele>12.0</ele><time>2026-04-04T08:44:31Z</time></trkpt><trkpt lat="43.83462370846825" lon="10.422300973881319"><ele>12.0</ele><time>2026-04-04T08:44:32Z</time></trkpt><trkpt lat="43.83474186769072" lon="10.42249206134587"><ele>12.0</ele><time>2026-04-04T08:44:33Z</time></trkpt><trkpt lat="43.83486199971777" lon="10.422683859821372"><ele>12.0</ele><time>2026-04-04T08:44:34Z</time></trkpt><trkpt lat="43.83497389701413" lon="10.422871492678212"><ele>12.333333333333332</ele><time>2026-04-04T08:44:35Z</time></trkpt><trkpt lat="43.83509250515925" lon="10.423065155356241"><ele>12.666666666666666</ele><time>2026-04-04T08:44:36Z</time></trkpt><trkpt lat="43.83520939886191" lon="10.423259122416315"><ele>13.0</ele><time>2026-04-04T08:44:37Z</time></trkpt><trkpt lat="43.8353264222013" lon="10.423450091911079"><ele>12.666666666666666</ele><time>2026-04-04T08:44:38Z</time></trkpt><trkpt lat="43.83544254024779" lon="10.423638297163455"><ele>12.333333333333332</ele><time>2026-04-04T08:44:39Z</time></trkpt><trkpt lat="43.835549310294766" lon="10.423821208878621"><ele>12.0</ele><time>2026-04-04T08:44:40Z</time></trkpt><trkpt lat="43.835661510720364" lon="10.424006407972334"><ele>12.0</ele><time>2026-04-04T08:44:41Z</time></trkpt><trkpt lat="43.83576982900347" lon="10.42418524904572"><ele>12.0</ele><time>2026-04-04T08:44:42Z</time></trkpt><trkpt lat="43.83588189658033" lon="10.424366768947568"><ele>12.0</ele><time>2026-04-04T08:44:43Z</time></trkpt><trkpt lat="43.83599267068822" lon="10.42454918939375"><ele>11.666666666666666</ele><time>2026-04-04T08:44:44Z</time></trkpt><trkpt lat="43.836097635480705" lon="10.42472437279207"><ele>11.333333333333332</ele><time>2026-04-04T08:44:45Z</time></trkpt><trkpt lat="43.83619526314043" lon="10.424884469426253"><ele>11.0</ele><time>2026-04-04T08:44:46Z</time></trkpt><trkpt lat="43.83628571432182" lon="10.425041741498733"><ele>11.0</ele><time>2026-04-04T08:44:47Z</time></trkpt><trkpt lat="43.83637732263422" lon="10.425200794047406"><ele>11.0</ele><time>2026-04-04T08:44:48Z</time></trkpt><trkpt lat="43.83647272347499" lon="10.425357703702154"><ele>11.0</ele><time>2026-04-04T08:44:49Z</time></trkpt><trkpt lat="43.83657282918157" lon="10.425517841498795"><ele>11.0</ele><time>2026-04-04T08:44:50Z</time></trkpt><trkpt lat="43.83667421503104" lon="10.425679653030318"><ele>11.0</ele><time>2026-04-04T08:44:51Z</time></trkpt><trkpt lat="43.83677785097118" lon="10.425849673544624"><ele>11.0</ele><time>2026-04-04T08:44:52Z</time></trkpt><trkpt lat="43.83688252686413" lon="10.42602044481722"><ele>11.0</ele><time>2026-04-04T08:44:53Z</time></trkpt><trkpt lat="43.83698680877734" lon="10.426197160827243"><ele>12.0</ele><time>2026-04-04T08:44:54Z</time></trkpt><trkpt lat="43.83709019221288" lon="10.426370214376284"><ele>13.0</ele><time>2026-04-04T08:44:55Z</time></trkpt><trkpt lat="43.83720107679883" lon="10.4265517058723"><ele>14.0</ele><time>2026-04-04T08:44:56Z</time></trkpt><trkpt lat="43.837308307234" lon="10.426725959743457"><ele>14.0</ele><time>2026-04-04T08:44:57Z</time></trkpt><trkpt lat="43.83741720477297" lon="10.426903314801823"><ele>14.0</ele><time>2026-04-04T08:44:58Z</time></trkpt><trkpt lat="43.837524476496554" lon="10.427087212775156"><ele>14.0</ele><time>2026-04-04T08:44:59Z</time></trkpt><trkpt lat="43.83763123209958" lon="10.427268328604269"><ele>13.666666666666668</ele><time>2026-04-04T08:45:00Z</time></trkpt><trkpt lat="43.83773604959172" lon="10.42744205816369"><ele>13.333333333333332</ele><time>2026-04-04T08:45:01Z</time></trkpt><trkpt lat="43.83784624280258" lon="10.427617700165833"><ele>13.0</ele><time>2026-04-04T08:45:02Z</time></trkpt><trkpt lat="43.8379579941963" lon="10.427799108412337"><ele>13.0</ele><time>2026-04-04T08:45:03Z</time></trkpt><trkpt lat="43.838064356292136" lon="10.427975728011928"><ele>13.0</ele><time>2026-04-04T08:45:04Z</time></trkpt><trkpt lat="43.83816874461634" lon="10.428150100910607"><ele>13.0</ele><time>2026-04-04T08:45:05Z</time></trkpt><trkpt lat="43.838275248102946" lon="10.428331771876575"><ele>13.333333333333332</ele><time>2026-04-04T08:45:06Z</time></trkpt><trkpt lat="43.83837827625743" lon="10.42849529294923"><ele>13.666666666666668</ele><time>2026-04-04T08:45:07Z</time></trkpt><trkpt lat="43.83848365122036" lon="10.428668610371025"><ele>14.0</ele><time>2026-04-04T08:45:08Z</time></trkpt><trkpt lat="43.838587872532486" lon="10.428830007704018"><ele>13.333333333333334</ele><time>2026-04-04T08:45:09Z</time></trkpt><trkpt lat="43.8386949350774" lon="10.429010000881236"><ele>12.666666666666668</ele><time>2026-04-04T08:45:10Z</time></trkpt><trkpt lat="43.838800596792936" lon="10.429176285424855"><ele>12.0</ele><time>2026-04-04T08:45:11Z</time></trkpt><trkpt lat="43.83890439280491" lon="10.429355445595249"><ele>12.0</ele><time>2026-04-04T08:45:12Z</time></trkpt><trkpt lat="43.839008442339924" lon="10.429526138871582"><ele>12.0</ele><time>2026-04-04T08:45:13Z</time></trkpt><trkpt lat="43.839110767741" lon="10.429702141512871"><ele>12.0</ele><time>2026-04-04T08:45:14Z</time></trkpt><trkpt lat="43.83921626021502" lon="10.429876605052037"><ele>12.333333333333332</ele><time>2026-04-04T08:45:15Z</time></trkpt><trkpt lat="43.83932360335676" lon="10.430059493619828"><ele>12.666666666666666</ele><time>2026-04-04T08:45:16Z</time></trkpt><trkpt lat="43.8394319331356" lon="10.430230519531081"><ele>13.0</ele><time>2026-04-04T08:45:17Z</time></trkpt><trkpt lat="43.83953756877903" lon="10.430411106544307"><ele>13.0</ele><time>2026-04-04T08:45:18Z</time></trkpt><trkpt lat="43.8396451219649" lon="10.430594207767815"><ele>13.0</ele><time>2026-04-04T08:45:19Z</time></trkpt><trkpt lat="43.83975541336302" lon="10.43077085883502"><ele>13.0</ele><time>2026-04-04T08:45:20Z</time></trkpt><trkpt lat="43.83986587311424" lon="10.430950391766089"><ele>13.0</ele><time>2026-04-04T08:45:21Z</time></trkpt><trkpt lat="43.83997513571268" lon="10.431135678919423"><ele>13.0</ele><time>2026-04-04T08:45:22Z</time></trkpt><trkpt lat="43.840087829559096" lon="10.4313220019554"><ele>13.0</ele><time>2026-04-04T08:45:23Z</time></trkpt><trkpt lat="43.840200618958676" lon="10.43150383294962"><ele>13.666666666666666</ele><time>2026-04-04T08:45:24Z</time></trkpt><trkpt lat="43.84030986329011" lon="10.431688433310377"><ele>14.333333333333332</ele><time>2026-04-04T08:45:25Z</time></trkpt><trkpt lat="43.840415955197265" lon="10.43186853749885"><ele>15.0</ele><time>2026-04-04T08:45:26Z</time></trkpt><trkpt lat="43.84051879454768" lon="10.432049867154213"><ele>15.0</ele><time>2026-04-04T08:45:27Z</time></trkpt><trkpt lat="43.840619178486676" lon="10.432231260215413"><ele>15.0</ele><time>2026-04-04T08:45:28Z</time></trkpt><trkpt lat="43.84072023115565" lon="10.432403645265433"><ele>15.0</ele><time>2026-04-04T08:45:29Z</time></trkpt><trkpt lat="43.84081863407446" lon="10.432586921451135"><ele>15.0</ele><time>2026-04-04T08:45:30Z</time></trkpt><trkpt lat="43.84091717429373" lon="10.432762398971397"><ele>15.0</ele><time>2026-04-04T08:45:31Z</time></trkpt><trkpt lat="43.84101234888884" lon="10.432944528866667"><ele>15.0</ele><time>2026-04-04T08:45:32Z</time></trkpt><trkpt lat="43.84110640293359" lon="10.433123448904842"><ele>14.666666666666668</ele><time>2026-04-04T08:45:33Z</time></trkpt><trkpt lat="43.84119797090917" lon="10.433306338367178"><ele>14.333333333333334</ele><time>2026-04-04T08:45:34Z</time></trkpt><trkpt lat="43.84129132430096" lon="10.433486917932878"><ele>14.0</ele><time>2026-04-04T08:45:35Z</time></trkpt><trkpt lat="43.841385078386935" lon="10.433665938418503"><ele>14.0</ele><time>2026-04-04T08:45:36Z</time></trkpt><trkpt lat="43.84147824404003" lon="10.433850852803287"><ele>14.0</ele><time>2026-04-04T08:45:37Z</time></trkpt><trkpt lat="43.84157190082004" lon="10.434034377281181"><ele>14.0</ele><time>2026-04-04T08:45:38Z</time></trkpt><trkpt lat="43.84166652071666" lon="10.434217468585507"><ele>14.0</ele><time>2026-04-04T08:45:39Z</time></trkpt><trkpt lat="43.84175785269148" lon="10.434408204884738"><ele>14.0</ele><time>2026-04-04T08:45:40Z</time></trkpt><trkpt lat="43.8418470903599" lon="10.434601757943893"><ele>14.0</ele><time>2026-04-04T08:45:41Z</time></trkpt><trkpt lat="43.841938937328244" lon="10.434793736017301"><ele>13.333333333333334</ele><time>2026-04-04T08:45:42Z</time></trkpt><trkpt lat="43.842029960281174" lon="10.434991951926563"><ele>12.666666666666668</ele><time>2026-04-04T08:45:43Z</time></trkpt><trkpt lat="43.8421223129345" lon="10.435182194798756"><ele>12.0</ele><time>2026-04-04T08:45:44Z</time></trkpt><trkpt lat="43.84221425002985" lon="10.435376800170284"><ele>12.666666666666668</ele><time>2026-04-04T08:45:45Z</time></trkpt><trkpt lat="43.84230243783893" lon="10.43557501800742"><ele>13.333333333333334</ele><time>2026-04-04T08:45:46Z</time></trkpt><trkpt lat="43.84239008774241" lon="10.435763628840068"><ele>14.0</ele><time>2026-04-04T08:45:47Z</time></trkpt><trkpt lat="43.84248753721581" lon="10.435965520318357"><ele>14.0</ele><time>2026-04-04T08:45:48Z</time></trkpt><trkpt lat="43.84258370115239" lon="10.436167310609148"><ele>14.0</ele><time>2026-04-04T08:45:49Z</time></trkpt><trkpt lat="43.84267698730412" lon="10.436364070744027"><ele>14.0</ele><time>2026-04-04T08:45:50Z</time></trkpt><trkpt lat="43.842762977153114" lon="10.436547986422768"><ele>14.0</ele><time>2026-04-04T08:45:51Z</time></trkpt><trkpt lat="43.84283928410497" lon="10.436711234639143"><ele>14.0</ele><time>2026-04-04T08:45:52Z</time></trkpt><trkpt lat="43.84291891687245" lon="10.43688165686814"><ele>14.0</ele><time>2026-04-04T08:45:53Z</time></trkpt><trkpt lat="43.84300107573143" lon="10.43705780386195"><ele>14.0</ele><time>2026-04-04T08:45:54Z</time></trkpt><trkpt lat="43.84308596510829" lon="10.43723553376574"><ele>14.0</ele><time>2026-04-04T08:45:55Z</time></trkpt><trkpt lat="43.84317108185052" lon="10.437415447624424"><ele>14.0</ele><time>2026-04-04T08:45:56Z</time></trkpt><trkpt lat="43.84325316460092" lon="10.437594301566465"><ele>14.0</ele><time>2026-04-04T08:45:57Z</time></trkpt><trkpt lat="43.84333706299248" lon="10.437776357822404"><ele>14.0</ele><time>2026-04-04T08:45:58Z</time></trkpt><trkpt lat="43.843401181738464" lon="10.437976584926494"><ele>14.0</ele><time>2026-04-04T08:45:59Z</time></trkpt><trkpt lat="43.843472988634325" lon="10.438167488340556"><ele>14.0</ele><time>2026-04-04T08:46:00Z</time></trkpt><trkpt lat="43.843542524365944" lon="10.438363365122992"><ele>14.333333333333334</ele><time>2026-04-04T08:46:01Z</time></trkpt><trkpt lat="43.843622097495775" lon="10.43854731219516"><ele>14.666666666666668</ele><time>2026-04-04T08:46:02Z</time></trkpt><trkpt lat="43.84368695003637" lon="10.438743584960811"><ele>15.0</ele><time>2026-04-04T08:46:03Z</time></trkpt><trkpt lat="43.84375232288104" lon="10.438936822201198"><ele>15.0</ele><time>2026-04-04T08:46:04Z</time></trkpt><trkpt lat="43.843819373881665" lon="10.439134378915384"><ele>15.0</ele><time>2026-04-04T08:46:05Z</time></trkpt><trkpt lat="43.84388268588829" lon="10.439326739598553"><ele>15.0</ele><time>2026-04-04T08:46:06Z</time></trkpt><trkpt lat="43.843951202612004" lon="10.439523604307034"><ele>15.0</ele><time>2026-04-04T08:46:07Z</time></trkpt><trkpt lat="43.84401783639072" lon="10.439716425905981"><ele>15.0</ele><time>2026-04-04T08:46:08Z</time></trkpt><trkpt lat="43.8440808479968" lon="10.439911170866495"><ele>15.0</ele><time>2026-04-04T08:46:09Z</time></trkpt><trkpt lat="43.84414163603664" lon="10.440108094777562"><ele>15.0</ele><time>2026-04-04T08:46:10Z</time></trkpt><trkpt lat="43.84420056930509" lon="10.440301641107181"><ele>15.0</ele><time>2026-04-04T08:46:11Z</time></trkpt><trkpt lat="43.84425680637827" lon="10.440497407121132"><ele>15.0</ele><time>2026-04-04T08:46:12Z</time></trkpt><trkpt lat="43.84427880541464" lon="10.440713247896321"><ele>14.333333333333332</ele><time>2026-04-04T08:46:13Z</time></trkpt><trkpt lat="43.84431595277193" lon="10.440941974269261"><ele>13.666666666666666</ele><time>2026-04-04T08:46:14Z</time></trkpt><trkpt lat="43.84436649748963" lon="10.44117851564198"><ele>13.0</ele><time>2026-04-04T08:46:15Z</time></trkpt><trkpt lat="43.84440644834605" lon="10.441431792245883"><ele>13.0</ele><time>2026-04-04T08:46:16Z</time></trkpt><trkpt lat="43.844446944219044" lon="10.441690521958236"><ele>13.0</ele><time>2026-04-04T08:46:17Z</time></trkpt><trkpt lat="43.8444879138995" lon="10.441944576147298"><ele>13.0</ele><time>2026-04-04T08:46:18Z</time></trkpt><trkpt lat="43.84453221337022" lon="10.442170050209072"><ele>13.0</ele><time>2026-04-04T08:46:19Z</time></trkpt><trkpt lat="43.84458655806251" lon="10.442398290320456"><ele>13.0</ele><time>2026-04-04T08:46:20Z</time></trkpt><trkpt lat="43.844669681552695" lon="10.442628635695518"><ele>13.0</ele><time>2026-04-04T08:46:21Z</time></trkpt><trkpt lat="43.844769680760066" lon="10.442840204930016"><ele>13.666666666666666</ele><time>2026-04-04T08:46:22Z</time></trkpt><trkpt lat="43.84489365883404" lon="10.44304289304854"><ele>14.333333333333332</ele><time>2026-04-04T08:46:23Z</time></trkpt><trkpt lat="43.84502763876064" lon="10.44321843596635"><ele>15.0</ele><time>2026-04-04T08:46:24Z</time></trkpt><trkpt lat="43.845168648897555" lon="10.443390030830894"><ele>15.0</ele><time>2026-04-04T08:46:25Z</time></trkpt><trkpt lat="43.84531018697269" lon="10.443546500992216"><ele>15.0</ele><time>2026-04-04T08:46:26Z</time></trkpt><trkpt lat="43.84543997304046" lon="10.44369016436506"><ele>15.0</ele><time>2026-04-04T08:46:27Z</time></trkpt><trkpt lat="43.84558719796104" lon="10.443807320747778"><ele>15.0</ele><time>2026-04-04T08:46:28Z</time></trkpt><trkpt lat="43.84575410673113" lon="10.44388659756243"><ele>15.0</ele><time>2026-04-04T08:46:29Z</time></trkpt><trkpt lat="43.84592188598162" lon="10.443938106546783"><ele>15.0</ele><time>2026-04-04T08:46:30Z</time></trkpt><trkpt lat="43.846071981168045" lon="10.443970983377074"><ele>15.25</ele><time>2026-04-04T08:46:31Z</time></trkpt><trkpt lat="43.846210756330194" lon="10.444006264703622"><ele>15.5</ele><time>2026-04-04T08:46:32Z</time></trkpt><trkpt lat="43.84633693228315" lon="10.444050193500107"><ele>15.75</ele><time>2026-04-04T08:46:33Z</time></trkpt><trkpt lat="43.84646076755188" lon="10.444103211528532"><ele>16.0</ele><time>2026-04-04T08:46:34Z</time></trkpt><trkpt lat="43.846582883452825" lon="10.444165681191723"><ele>16.0</ele><time>2026-04-04T08:46:35Z</time></trkpt><trkpt lat="43.846701174614246" lon="10.444236823367069"><ele>16.0</ele><time>2026-04-04T08:46:36Z</time></trkpt><trkpt lat="43.84680574662088" lon="10.444306668780076"><ele>16.0</ele><time>2026-04-04T08:46:37Z</time></trkpt><trkpt lat="43.84690428317953" lon="10.444377220405755"><ele>16.0</ele><time>2026-04-04T08:46:38Z</time></trkpt><trkpt lat="43.84698540539558" lon="10.444437161783995"><ele>16.0</ele><time>2026-04-04T08:46:39Z</time></trkpt><trkpt lat="43.84707259514922" lon="10.44450141842691"><ele>15.8</ele><time>2026-04-04T08:46:40Z</time></trkpt><trkpt lat="43.847163832374484" lon="10.444570490714158"><ele>15.600000000000001</ele><time>2026-04-04T08:46:41Z</time></trkpt><trkpt lat="43.847258413126426" lon="10.444640975643154"><ele>15.4</ele><time>2026-04-04T08:46:42Z</time></trkpt><trkpt lat="43.84736264573754" lon="10.444710438059774"><ele>15.2</ele><time>2026-04-04T08:46:43Z</time></trkpt><trkpt lat="43.84746688936807" lon="10.444781986081168"><ele>15.0</ele><time>2026-04-04T08:46:44Z</time></trkpt><trkpt lat="43.84756623570564" lon="10.44485169594901"><ele>15.0</ele><time>2026-04-04T08:46:45Z</time></trkpt><trkpt lat="43.847663470263555" lon="10.44491858580085"><ele>15.0</ele><time>2026-04-04T08:46:46Z</time></trkpt><trkpt lat="43.84775373904501" lon="10.444985030028679"><ele>15.0</ele><time>2026-04-04T08:46:47Z</time></trkpt><trkpt lat="43.84784058500973" lon="10.445043803050744"><ele>15.0</ele><time>2026-04-04T08:46:48Z</time></trkpt><trkpt lat="43.84792848965469" lon="10.445103100499875"><ele>15.0</ele><time>2026-04-04T08:46:49Z</time></trkpt><trkpt lat="43.848021241986" lon="10.445163567778113"><ele>15.0</ele><time>2026-04-04T08:46:50Z</time></trkpt><trkpt lat="43.848114372085846" lon="10.445227094249683"><ele>15.0</ele><time>2026-04-04T08:46:51Z</time></trkpt><trkpt lat="43.84820973925119" lon="10.445290188836939"><ele>15.0</ele><time>2026-04-04T08:46:52Z</time></trkpt><trkpt lat="43.84830064053383" lon="10.445351983874549"><ele>15.0</ele><time>2026-04-04T08:46:53Z</time></trkpt><trkpt lat="43.84839566980435" lon="10.445408971321163"><ele>15.0</ele><time>2026-04-04T08:46:54Z</time></trkpt><trkpt lat="43.84848946428996" lon="10.445473114718624"><ele>14.6</ele><time>2026-04-04T08:46:55Z</time></trkpt><trkpt lat="43.84858080583178" lon="10.445537802434322"><ele>14.2</ele><time>2026-04-04T08:46:56Z</time></trkpt><trkpt lat="43.84867980031382" lon="10.445604506015377"><ele>13.8</ele><time>2026-04-04T08:46:57Z</time></trkpt><trkpt lat="43.848781853616074" lon="10.445673716860444"><ele>13.4</ele><time>2026-04-04T08:46:58Z</time></trkpt><trkpt lat="43.848886734973185" lon="10.44575186528519"><ele>13.0</ele><time>2026-04-04T08:46:59Z</time></trkpt><trkpt lat="43.84899441869817" lon="10.445829082082623"><ele>13.0</ele><time>2026-04-04T08:47:00Z</time></trkpt><trkpt lat="43.849104151788595" lon="10.445902836490383"><ele>13.0</ele><time>2026-04-04T08:47:01Z</time></trkpt><trkpt lat="43.84921621758488" lon="10.445968957921687"><ele>13.0</ele><time>2026-04-04T08:47:02Z</time></trkpt><trkpt lat="43.84933141619149" lon="10.446020734556088"><ele>13.0</ele><time>2026-04-04T08:47:03Z</time></trkpt><trkpt lat="43.84944462518177" lon="10.446085114465719"><ele>13.0</ele><time>2026-04-04T08:47:04Z</time></trkpt><trkpt lat="43.84955561372034" lon="10.446132985757858"><ele>13.0</ele><time>2026-04-04T08:47:05Z</time></trkpt><trkpt lat="43.84965139484124" lon="10.446181044869315"><ele>13.0</ele><time>2026-04-04T08:47:06Z</time></trkpt><trkpt lat="43.84977580328202" lon="10.446240807824237"><ele>13.0</ele><time>2026-04-04T08:47:07Z</time></trkpt><trkpt lat="43.849898013882495" lon="10.446295871662569"><ele>13.5</ele><time>2026-04-04T08:47:08Z</time></trkpt><trkpt lat="43.85001799223946" lon="10.446347679832657"><ele>14.0</ele><time>2026-04-04T08:47:09Z</time></trkpt><trkpt lat="43.85013810184895" lon="10.446398100455895"><ele>14.5</ele><time>2026-04-04T08:47:10Z</time></trkpt><trkpt lat="43.85026049324263" lon="10.446446826326023"><ele>15.0</ele><time>2026-04-04T08:47:11Z</time></trkpt><trkpt lat="43.8503852288305" lon="10.446494394401261"><ele>15.0</ele><time>2026-04-04T08:47:12Z</time></trkpt><trkpt lat="43.85050789656914" lon="10.446545993502303"><ele>15.0</ele><time>2026-04-04T08:47:13Z</time></trkpt><trkpt lat="43.850631722459184" lon="10.446600386229733"><ele>15.0</ele><time>2026-04-04T08:47:14Z</time></trkpt><trkpt lat="43.85075315895196" lon="10.44665413698626"><ele>15.0</ele><time>2026-04-04T08:47:15Z</time></trkpt><trkpt lat="43.85087874503593" lon="10.446701629877658"><ele>14.75</ele><time>2026-04-04T08:47:16Z</time></trkpt><trkpt lat="43.85099527749671" lon="10.446752330987156"><ele>14.5</ele><time>2026-04-04T08:47:17Z</time></trkpt><trkpt lat="43.851115724428304" lon="10.446796177810308"><ele>14.25</ele><time>2026-04-04T08:47:18Z</time></trkpt><trkpt lat="43.85122526905671" lon="10.446840078480282"><ele>14.0</ele><time>2026-04-04T08:47:19Z</time></trkpt><trkpt lat="43.85131795219622" lon="10.446877456176198"><ele>14.000000000000002</ele><time>2026-04-04T08:47:20Z</time></trkpt><trkpt lat="43.85138955040407" lon="10.44690766406653"><ele>14.0</ele><time>2026-04-04T08:47:21Z</time></trkpt><trkpt lat="43.8514591944052" lon="10.44693735811386"><ele>14.0</ele><time>2026-04-04T08:47:22Z</time></trkpt><trkpt lat="43.851522928688055" lon="10.446967797363824"><ele>14.0</ele><time>2026-04-04T08:47:23Z</time></trkpt><trkpt lat="43.85162932347122" lon="10.447028754544574"><ele>14.000000000000002</ele><time>2026-04-04T08:47:25Z</time></trkpt><trkpt lat="43.8517010699609" lon="10.447085412488912"><ele>14.0</ele><time>2026-04-04T08:47:26Z</time></trkpt><trkpt lat="43.851788022351485" lon="10.447142267639975"><ele>14.0</ele><time>2026-04-04T08:47:27Z</time></trkpt><trkpt lat="43.851897511518615" lon="10.447221064893187"><ele>14.0</ele><time>2026-04-04T08:47:28Z</time></trkpt><trkpt lat="43.85200565469138" lon="10.447323805198886"><ele>14.0</ele><time>2026-04-04T08:47:29Z</time></trkpt><trkpt lat="43.852113946478845" lon="10.447429511718521"><ele>14.0</ele><time>2026-04-04T08:47:30Z</time></trkpt><trkpt lat="43.85221212779944" lon="10.447523729211929"><ele>14.0</ele><time>2026-04-04T08:47:31Z</time></trkpt><trkpt lat="43.852299222053496" lon="10.447619612630488"><ele>13.999999999999998</ele><time>2026-04-04T08:47:32Z</time></trkpt><trkpt lat="43.852382597963604" lon="10.447727053350958"><ele>13.999999999999998</ele><time>2026-04-04T08:47:33Z</time></trkpt><trkpt lat="43.852460337511" lon="10.447831236383246"><ele>14.0</ele><time>2026-04-04T08:47:34Z</time></trkpt><trkpt lat="43.85252364887159" lon="10.4479196870282"><ele>14.0</ele><time>2026-04-04T08:47:35Z</time></trkpt><trkpt lat="43.852581905623104" lon="10.447998570328416"><ele>14.2</ele><time>2026-04-04T08:47:36Z</time></trkpt><trkpt lat="43.85262439673237" lon="10.448067577708642"><ele>14.399999999999999</ele><time>2026-04-04T08:47:37Z</time></trkpt><trkpt lat="43.85266752545467" lon="10.44815414696141"><ele>14.6</ele><time>2026-04-04T08:47:39Z</time></trkpt><trkpt lat="43.85273719032165" lon="10.448186602490752"><ele>14.8</ele><time>2026-04-04T08:48:23Z</time></trkpt><trkpt lat="43.852802764273086" lon="10.448146378465282"><ele>15.0</ele><time>2026-04-04T08:48:25Z</time></trkpt><trkpt lat="43.852799861167306" lon="10.447830735678531"><ele>15.0</ele><time>2026-04-04T08:48:26Z</time></trkpt><trkpt lat="43.85284670896594" lon="10.447608636300327"><ele>15.0</ele><time>2026-04-04T08:48:27Z</time></trkpt><trkpt lat="43.85289891251065" lon="10.447379139517022"><ele>15.0</ele><time>2026-04-04T08:48:28Z</time></trkpt><trkpt lat="43.85294746978821" lon="10.447179441303089"><ele>14.75</ele><time>2026-04-04T08:48:29Z</time></trkpt><trkpt lat="43.85300500499762" lon="10.44700513972081"><ele>14.5</ele><time>2026-04-04T08:48:30Z</time></trkpt><trkpt lat="43.85308036024685" lon="10.446853467682555"><ele>14.25</ele><time>2026-04-04T08:48:31Z</time></trkpt><trkpt lat="43.853174927016234" lon="10.446742967542395"><ele>14.0</ele><time>2026-04-04T08:48:32Z</time></trkpt><trkpt lat="43.85327375107734" lon="10.446664663399385"><ele>14.0</ele><time>2026-04-04T08:48:33Z</time></trkpt><trkpt lat="43.85336619168902" lon="10.446596935805633"><ele>13.999999999999998</ele><time>2026-04-04T08:48:34Z</time></trkpt><trkpt lat="43.85346893221767" lon="10.446542743901219"><ele>13.999999999999998</ele><time>2026-04-04T08:48:35Z</time></trkpt><trkpt lat="43.85358307714935" lon="10.446504432308753"><ele>14.0</ele><time>2026-04-04T08:48:36Z</time></trkpt><trkpt lat="43.85369130208743" lon="10.446468968480175"><ele>14.0</ele><time>2026-04-04T08:48:37Z</time></trkpt><trkpt lat="43.85379027001263" lon="10.446427801069733"><ele>14.0</ele><time>2026-04-04T08:48:38Z</time></trkpt><trkpt lat="43.85389252861909" lon="10.446382658152215"><ele>14.0</ele><time>2026-04-04T08:48:39Z</time></trkpt><trkpt lat="43.854011048343246" lon="10.446321078162354"><ele>14.0</ele><time>2026-04-04T08:48:40Z</time></trkpt><trkpt lat="43.854131660603414" lon="10.446251668125367"><ele>14.0</ele><time>2026-04-04T08:48:41Z</time></trkpt><trkpt lat="43.854263210690775" lon="10.446189688192659"><ele>14.0</ele><time>2026-04-04T08:48:42Z</time></trkpt><trkpt lat="43.85439635875638" lon="10.446122362637224"><ele>14.0</ele><time>2026-04-04T08:48:43Z</time></trkpt><trkpt lat="43.85453946281793" lon="10.446066795981798"><ele>14.0</ele><time>2026-04-04T08:48:44Z</time></trkpt><trkpt lat="43.854677476916564" lon="10.446005520797325"><ele>14.0</ele><time>2026-04-04T08:48:45Z</time></trkpt><trkpt lat="43.854812973604346" lon="10.445943912937201"><ele>14.0</ele><time>2026-04-04T08:48:46Z</time></trkpt><trkpt lat="43.85494539475833" lon="10.445886483982566"><ele>14.0</ele><time>2026-04-04T08:48:47Z</time></trkpt><trkpt lat="43.85507584696288" lon="10.445827513243099"><ele>14.0</ele><time>2026-04-04T08:48:48Z</time></trkpt><trkpt lat="43.85520488615326" lon="10.445769478271924"><ele>14.0</ele><time>2026-04-04T08:48:49Z</time></trkpt><trkpt lat="43.85533533179265" lon="10.445714913993779"><ele>14.0</ele><time>2026-04-04T08:48:50Z</time></trkpt><trkpt lat="43.85546153764796" lon="10.44565734623263"><ele>14.0</ele><time>2026-04-04T08:48:51Z</time></trkpt><trkpt lat="43.85558579223378" lon="10.44559491206024"><ele>14.0</ele><time>2026-04-04T08:48:52Z</time></trkpt><trkpt lat="43.85570350661813" lon="10.445526565586135"><ele>14.0</ele><time>2026-04-04T08:48:53Z</time></trkpt><trkpt lat="43.85581833610972" lon="10.445443265753962"><ele>14.0</ele><time>2026-04-04T08:48:54Z</time></trkpt><trkpt lat="43.855920140214934" lon="10.445358296926491"><ele>13.999999999999998</ele><time>2026-04-04T08:48:55Z</time></trkpt><trkpt lat="43.85600083679802" lon="10.445263775694785"><ele>13.999999999999998</ele><time>2026-04-04T08:48:56Z</time></trkpt><trkpt lat="43.85607393995788" lon="10.445171248573345"><ele>14.0</ele><time>2026-04-04T08:48:57Z</time></trkpt><trkpt lat="43.85613322718244" lon="10.44508653543627"><ele>14.0</ele><time>2026-04-04T08:48:58Z</time></trkpt><trkpt lat="43.85618297362129" lon="10.444995693348323"><ele>14.0</ele><time>2026-04-04T08:48:59Z</time></trkpt><trkpt lat="43.85622613950914" lon="10.444920297287206"><ele>13.999999999999998</ele><time>2026-04-04T08:49:00Z</time></trkpt><trkpt lat="43.85630591775855" lon="10.444891067816194"><ele>13.999999999999998</ele><time>2026-04-04T08:49:02Z</time></trkpt><trkpt lat="43.85638424500673" lon="10.445012333935932"><ele>14.0</ele><time>2026-04-04T08:49:03Z</time></trkpt><trkpt lat="43.8563646070135" lon="10.445141101508202"><ele>14.0</ele><time>2026-04-04T08:49:04Z</time></trkpt><trkpt lat="43.85637193059393" lon="10.44528843612689"><ele>14.0</ele><time>2026-04-04T08:49:05Z</time></trkpt><trkpt lat="43.856363679250904" lon="10.445446150447438"><ele>14.0</ele><time>2026-04-04T08:49:06Z</time></trkpt><trkpt lat="43.856335298821904" lon="10.44561544238243"><ele>14.0</ele><time>2026-04-04T08:49:07Z</time></trkpt><trkpt lat="43.85631479565886" lon="10.445799172565291"><ele>14.0</ele><time>2026-04-04T08:49:08Z</time></trkpt><trkpt lat="43.85627813102627" lon="10.445986741957377"><ele>14.25</ele><time>2026-04-04T08:49:09Z</time></trkpt><trkpt lat="43.85621562057655" lon="10.446160811382507"><ele>14.5</ele><time>2026-04-04T08:49:10Z</time></trkpt><trkpt lat="43.85614220666442" lon="10.446318545464637"><ele>14.75</ele><time>2026-04-04T08:49:11Z</time></trkpt><trkpt lat="43.85607329001414" lon="10.446453844092694"><ele>15.0</ele><time>2026-04-04T08:49:12Z</time></trkpt><trkpt lat="43.8560125620725" lon="10.446561716732269"><ele>15.0</ele><time>2026-04-04T08:49:13Z</time></trkpt><trkpt lat="43.85595421131826" lon="10.446665087316168"><ele>15.0</ele><time>2026-04-04T08:49:14Z</time></trkpt><trkpt lat="43.85592248243683" lon="10.446765202022581"><ele>15.0</ele><time>2026-04-04T08:49:15Z</time></trkpt><trkpt lat="43.85589142178042" lon="10.44684687859875"><ele>15.0</ele><time>2026-04-04T08:49:16Z</time></trkpt><trkpt lat="43.855887301741745" lon="10.446944603873833"><ele>15.0</ele><time>2026-04-04T08:49:17Z</time></trkpt><trkpt lat="43.8559358934224" lon="10.447046271225096"><ele>15.0</ele><time>2026-04-04T08:49:18Z</time></trkpt><trkpt lat="43.85600314187992" lon="10.447154563903963"><ele>15.0</ele><time>2026-04-04T08:49:19Z</time></trkpt><trkpt lat="43.85608599973907" lon="10.44724722633398"><ele>15.0</ele><time>2026-04-04T08:49:20Z</time></trkpt><trkpt lat="43.856208198166094" lon="10.447307933683254"><ele>15.0</ele><time>2026-04-04T08:49:21Z</time></trkpt><trkpt lat="43.85634404431812" lon="10.447360001834912"><ele>15.0</ele><time>2026-04-04T08:49:22Z</time></trkpt><trkpt lat="43.85648825014756" lon="10.44741090930121"><ele>15.0</ele><time>2026-04-04T08:49:23Z</time></trkpt><trkpt lat="43.85662819164586" lon="10.4474617196353"><ele>15.0</ele><time>2026-04-04T08:49:24Z</time></trkpt><trkpt lat="43.85676255007462" lon="10.447521281637522"><ele>15.0</ele><time>2026-04-04T08:49:25Z</time></trkpt><trkpt lat="43.856889043900715" lon="10.447591200099383"><ele>15.0</ele><time>2026-04-04T08:49:26Z</time></trkpt><trkpt lat="43.85700506521783" lon="10.447678051209131"><ele>14.75</ele><time>2026-04-04T08:49:27Z</time></trkpt><trkpt lat="43.85711539490981" lon="10.447774003548451"><ele>14.5</ele><time>2026-04-04T08:49:28Z</time></trkpt><trkpt lat="43.85721635565514" lon="10.447886367178262"><ele>14.25</ele><time>2026-04-04T08:49:29Z</time></trkpt><trkpt lat="43.85730721248455" lon="10.448016096423693"><ele>14.0</ele><time>2026-04-04T08:49:30Z</time></trkpt><trkpt lat="43.85738866280662" lon="10.44815669619416"><ele>14.0</ele><time>2026-04-04T08:49:31Z</time></trkpt><trkpt lat="43.8574614119026" lon="10.448310955117305"><ele>14.0</ele><time>2026-04-04T08:49:32Z</time></trkpt><trkpt lat="43.85752700713598" lon="10.4484839370996"><ele>14.0</ele><time>2026-04-04T08:49:33Z</time></trkpt><trkpt lat="43.85759442885476" lon="10.448672687436082"><ele>14.0</ele><time>2026-04-04T08:49:34Z</time></trkpt><trkpt lat="43.857665427827676" lon="10.448871407623965"><ele>14.0</ele><time>2026-04-04T08:49:35Z</time></trkpt><trkpt lat="43.85773066288126" lon="10.449076451913879"><ele>14.0</ele><time>2026-04-04T08:49:36Z</time></trkpt><trkpt lat="43.857787054786236" lon="10.449270201299873"><ele>14.0</ele><time>2026-04-04T08:49:37Z</time></trkpt><trkpt lat="43.85783490259392" lon="10.449455695778223"><ele>14.0</ele><time>2026-04-04T08:49:38Z</time></trkpt><trkpt lat="43.857877618219234" lon="10.449649124071543"><ele>14.0</ele><time>2026-04-04T08:49:39Z</time></trkpt><trkpt lat="43.857909138223974" lon="10.449837245652446"><ele>14.0</ele><time>2026-04-04T08:49:40Z</time></trkpt><trkpt lat="43.85791140205047" lon="10.450034321177819"><ele>14.0</ele><time>2026-04-04T08:49:41Z</time></trkpt><trkpt lat="43.8579166064004" lon="10.4502223429958"><ele>14.0</ele><time>2026-04-04T08:49:42Z</time></trkpt><trkpt lat="43.85791731136702" lon="10.450399148621546"><ele>14.0</ele><time>2026-04-04T08:49:43Z</time></trkpt><trkpt lat="43.85793120001774" lon="10.450562833186094"><ele>14.0</ele><time>2026-04-04T08:49:44Z</time></trkpt><trkpt lat="43.857929683940924" lon="10.450712700931147"><ele>14.0</ele><time>2026-04-04T08:49:45Z</time></trkpt><trkpt lat="43.85796394800319" lon="10.450839685933222"><ele>14.25</ele><time>2026-04-04T08:49:46Z</time></trkpt><trkpt lat="43.858042957074396" lon="10.450933676888605"><ele>14.5</ele><time>2026-04-04T08:49:47Z</time></trkpt><trkpt lat="43.85816324338631" lon="10.450986689577983"><ele>14.75</ele><time>2026-04-04T08:49:48Z</time></trkpt><trkpt lat="43.858309338539016" lon="10.451005732377297"><ele>15.0</ele><time>2026-04-04T08:49:49Z</time></trkpt><trkpt lat="43.858401824593" lon="10.451085287998067"><ele>15.5</ele><time>2026-04-04T08:49:50Z</time></trkpt><trkpt lat="43.85854744140914" lon="10.451096371427965"><ele>16.0</ele><time>2026-04-04T08:49:51Z</time></trkpt><trkpt lat="43.858672207396445" lon="10.451109790807442"><ele>16.5</ele><time>2026-04-04T08:49:52Z</time></trkpt><trkpt lat="43.85878119302256" lon="10.451153468921223"><ele>17.0</ele><time>2026-04-04T08:49:53Z</time></trkpt><trkpt lat="43.85886375093479" lon="10.451254613684979"><ele>16.75</ele><time>2026-04-04T08:49:54Z</time></trkpt><trkpt lat="43.85886601784925" lon="10.451413240646584"><ele>16.5</ele><time>2026-04-04T08:49:55Z</time></trkpt><trkpt lat="43.85882963529458" lon="10.451555479129256"><ele>16.25</ele><time>2026-04-04T08:49:56Z</time></trkpt><trkpt lat="43.8588194865123" lon="10.451750778152775"><ele>16.0</ele><time>2026-04-04T08:49:57Z</time></trkpt><trkpt lat="43.8587997456059" lon="10.451953069197542"><ele>15.75</ele><time>2026-04-04T08:49:58Z</time></trkpt><trkpt lat="43.8587693868517" lon="10.452144478371414"><ele>15.5</ele><time>2026-04-04T08:49:59Z</time></trkpt><trkpt lat="43.85873585736947" lon="10.452329495342164"><ele>15.25</ele><time>2026-04-04T08:50:00Z</time></trkpt><trkpt lat="43.85870199294107" lon="10.452512825754571"><ele>15.0</ele><time>2026-04-04T08:50:01Z</time></trkpt><trkpt lat="43.85866921749468" lon="10.452690260744484"><ele>15.0</ele><time>2026-04-04T08:50:02Z</time></trkpt><trkpt lat="43.858655453064685" lon="10.452866272841456"><ele>15.0</ele><time>2026-04-04T08:50:03Z</time></trkpt><trkpt lat="43.8586256671626" lon="10.453035328744038"><ele>15.0</ele><time>2026-04-04T08:50:04Z</time></trkpt><trkpt lat="43.858613609925605" lon="10.453215465271166"><ele>15.0</ele><time>2026-04-04T08:50:05Z</time></trkpt><trkpt lat="43.85860570394723" lon="10.453394208314773"><ele>15.0</ele><time>2026-04-04T08:50:06Z</time></trkpt><trkpt lat="43.85860828844698" lon="10.453571518990582"><ele>15.0</ele><time>2026-04-04T08:50:07Z</time></trkpt><trkpt lat="43.85861410408122" lon="10.453749136127211"><ele>15.0</ele><time>2026-04-04T08:50:08Z</time></trkpt><trkpt lat="43.85861632467193" lon="10.453928296846103"><ele>15.0</ele><time>2026-04-04T08:50:09Z</time></trkpt><trkpt lat="43.85861500894938" lon="10.454104943602916"><ele>14.75</ele><time>2026-04-04T08:50:10Z</time></trkpt><trkpt lat="43.85861356269268" lon="10.454289212025984"><ele>14.5</ele><time>2026-04-04T08:50:11Z</time></trkpt><trkpt lat="43.85861580721768" lon="10.4544735189161"><ele>14.25</ele><time>2026-04-04T08:50:12Z</time></trkpt><trkpt lat="43.858626809304326" lon="10.454655375829491"><ele>14.0</ele><time>2026-04-04T08:50:13Z</time></trkpt><trkpt lat="43.85865568498019" lon="10.454829358964288"><ele>14.5</ele><time>2026-04-04T08:50:14Z</time></trkpt><trkpt lat="43.85870530123734" lon="10.454993880178378"><ele>15.0</ele><time>2026-04-04T08:50:15Z</time></trkpt><trkpt lat="43.858774623889445" lon="10.455144507783155"><ele>15.5</ele><time>2026-04-04T08:50:16Z</time></trkpt><trkpt lat="43.858846750758175" lon="10.455291102880375"><ele>16.0</ele><time>2026-04-04T08:50:17Z</time></trkpt><trkpt lat="43.858908623136195" lon="10.455451548820056"><ele>16.5</ele><time>2026-04-04T08:50:18Z</time></trkpt><trkpt lat="43.858958021258424" lon="10.455617890666277"><ele>17.0</ele><time>2026-04-04T08:50:19Z</time></trkpt><trkpt lat="43.85898678422811" lon="10.455792765313484"><ele>17.5</ele><time>2026-04-04T08:50:20Z</time></trkpt><trkpt lat="43.859001114990214" lon="10.455977107355302"><ele>18.0</ele><time>2026-04-04T08:50:21Z</time></trkpt><trkpt lat="43.85898011816255" lon="10.456162548617344"><ele>18.25</ele><time>2026-04-04T08:50:22Z</time></trkpt><trkpt lat="43.85900224739834" lon="10.456346974301615"><ele>18.5</ele><time>2026-04-04T08:50:23Z</time></trkpt><trkpt lat="43.85901718439607" lon="10.456531748867867"><ele>18.75</ele><time>2026-04-04T08:50:24Z</time></trkpt><trkpt lat="43.85905335085933" lon="10.456715039854915"><ele>19.0</ele><time>2026-04-04T08:50:25Z</time></trkpt><trkpt lat="43.85909920127244" lon="10.45689547221765"><ele>19.0</ele><time>2026-04-04T08:50:26Z</time></trkpt><trkpt lat="43.859146903292554" lon="10.457075115088179"><ele>19.0</ele><time>2026-04-04T08:50:27Z</time></trkpt><trkpt lat="43.859182355399334" lon="10.457256344814533"><ele>19.0</ele><time>2026-04-04T08:50:28Z</time></trkpt><trkpt lat="43.85918658166777" lon="10.457447834476065"><ele>19.0</ele><time>2026-04-04T08:50:29Z</time></trkpt><trkpt lat="43.859193836842316" lon="10.45764782205715"><ele>18.75</ele><time>2026-04-04T08:50:30Z</time></trkpt><trkpt lat="43.85919197412002" lon="10.45784866230999"><ele>18.5</ele><time>2026-04-04T08:50:31Z</time></trkpt><trkpt lat="43.85918821181289" lon="10.458051593016245"><ele>18.25</ele><time>2026-04-04T08:50:32Z</time></trkpt><trkpt lat="43.85919298047232" lon="10.45826104614317"><ele>18.0</ele><time>2026-04-04T08:50:33Z</time></trkpt><trkpt lat="43.85920831733235" lon="10.45847620623198"><ele>18.0</ele><time>2026-04-04T08:50:34Z</time></trkpt><trkpt lat="43.85922852959542" lon="10.45869860488336"><ele>18.0</ele><time>2026-04-04T08:50:35Z</time></trkpt><trkpt lat="43.8592529711152" lon="10.458922976520338"><ele>18.0</ele><time>2026-04-04T08:50:36Z</time></trkpt><trkpt lat="43.859278743407344" lon="10.45914070259445"><ele>17.75</ele><time>2026-04-04T08:50:37Z</time></trkpt><trkpt lat="43.85931739114245" lon="10.45933209469848"><ele>17.5</ele><time>2026-04-04T08:50:38Z</time></trkpt><trkpt lat="43.859322775312506" lon="10.459522961261875"><ele>17.25</ele><time>2026-04-04T08:50:39Z</time></trkpt><trkpt lat="43.8593615414469" lon="10.459708051257618"><ele>17.0</ele><time>2026-04-04T08:50:40Z</time></trkpt><trkpt lat="43.859391097891006" lon="10.459897456350062"><ele>16.5</ele><time>2026-04-04T08:50:41Z</time></trkpt><trkpt lat="43.85944536149067" lon="10.460078420903294"><ele>16.0</ele><time>2026-04-04T08:50:42Z</time></trkpt><trkpt lat="43.85952173022388" lon="10.46024092694124"><ele>15.5</ele><time>2026-04-04T08:50:43Z</time></trkpt><trkpt lat="43.85960958407332" lon="10.460379379640017"><ele>15.0</ele><time>2026-04-04T08:50:44Z</time></trkpt><trkpt lat="43.859698649522564" lon="10.460522369404393"><ele>15.0</ele><time>2026-04-04T08:50:45Z</time></trkpt><trkpt lat="43.85977406278252" lon="10.46067453564548"><ele>15.0</ele><time>2026-04-04T08:50:46Z</time></trkpt><trkpt lat="43.85983062859308" lon="10.460848266755656"><ele>15.0</ele><time>2026-04-04T08:50:47Z</time></trkpt><trkpt lat="43.85985630925265" lon="10.461052742602932"><ele>15.0</ele><time>2026-04-04T08:50:48Z</time></trkpt><trkpt lat="43.85991605911358" lon="10.461235195243626"><ele>15.0</ele><time>2026-04-04T08:50:49Z</time></trkpt><trkpt lat="43.859961038425176" lon="10.46141429422917"><ele>15.0</ele><time>2026-04-04T08:50:50Z</time></trkpt><trkpt lat="43.860005388933125" lon="10.461580331593998"><ele>15.0</ele><time>2026-04-04T08:50:51Z</time></trkpt><trkpt lat="43.86005120545502" lon="10.461751039076278"><ele>15.0</ele><time>2026-04-04T08:50:52Z</time></trkpt><trkpt lat="43.86009408032072" lon="10.46192968215049"><ele>15.0</ele><time>2026-04-04T08:50:53Z</time></trkpt><trkpt lat="43.86013851853694" lon="10.462109159362232"><ele>15.0</ele><time>2026-04-04T08:50:54Z</time></trkpt><trkpt lat="43.860180160559274" lon="10.462286959087956"><ele>15.0</ele><time>2026-04-04T08:50:55Z</time></trkpt><trkpt lat="43.86022645300388" lon="10.462463059973635"><ele>15.0</ele><time>2026-04-04T08:50:56Z</time></trkpt><trkpt lat="43.86027217117614" lon="10.462641231617724"><ele>15.0</ele><time>2026-04-04T08:50:57Z</time></trkpt><trkpt lat="43.86031483569243" lon="10.462817454113555"><ele>15.0</ele><time>2026-04-04T08:50:58Z</time></trkpt><trkpt lat="43.86035537717289" lon="10.462984225321868"><ele>15.0</ele><time>2026-04-04T08:50:59Z</time></trkpt><trkpt lat="43.86040446969037" lon="10.463135203670772"><ele>15.0</ele><time>2026-04-04T08:51:00Z</time></trkpt><trkpt lat="43.86047091905468" lon="10.463269700215344"><ele>15.25</ele><time>2026-04-04T08:51:01Z</time></trkpt><trkpt lat="43.86055937386313" lon="10.463376489578067"><ele>15.5</ele><time>2026-04-04T08:51:02Z</time></trkpt><trkpt lat="43.86065744431612" lon="10.463466160659243"><ele>15.75</ele><time>2026-04-04T08:51:03Z</time></trkpt><trkpt lat="43.86076728883752" lon="10.463526164529227"><ele>16.0</ele><time>2026-04-04T08:51:04Z</time></trkpt><trkpt lat="43.86088158435819" lon="10.463562512562884"><ele>16.400000000000002</ele><time>2026-04-04T08:51:05Z</time></trkpt><trkpt lat="43.860996707509585" lon="10.46359078471471"><ele>16.8</ele><time>2026-04-04T08:51:06Z</time></trkpt><trkpt lat="43.86109731933506" lon="10.463619422984067"><ele>17.200000000000003</ele><time>2026-04-04T08:51:07Z</time></trkpt><trkpt lat="43.86119150116971" lon="10.46365440658099"><ele>17.6</ele><time>2026-04-04T08:51:08Z</time></trkpt><trkpt lat="43.86128255103097" lon="10.463700833090744"><ele>18.0</ele><time>2026-04-04T08:51:09Z</time></trkpt><trkpt lat="43.8613715245889" lon="10.463768717977164"><ele>17.25</ele><time>2026-04-04T08:51:10Z</time></trkpt><trkpt lat="43.86146114623522" lon="10.46386171616237"><ele>16.5</ele><time>2026-04-04T08:51:11Z</time></trkpt><trkpt lat="43.86153565967553" lon="10.463985400872405"><ele>15.75</ele><time>2026-04-04T08:51:12Z</time></trkpt><trkpt lat="43.86159827107139" lon="10.464128327018559"><ele>15.0</ele><time>2026-04-04T08:51:13Z</time></trkpt><trkpt lat="43.86163199685858" lon="10.464284697197426"><ele>15.0</ele><time>2026-04-04T08:51:14Z</time></trkpt><trkpt lat="43.86165665584656" lon="10.464442786710395"><ele>15.0</ele><time>2026-04-04T08:51:15Z</time></trkpt><trkpt lat="43.86164669269382" lon="10.46461139965847"><ele>15.0</ele><time>2026-04-04T08:51:16Z</time></trkpt><trkpt lat="43.861668540338144" lon="10.464787021153938"><ele>15.0</ele><time>2026-04-04T08:51:17Z</time></trkpt><trkpt lat="43.861671222154584" lon="10.464968194538326"><ele>15.25</ele><time>2026-04-04T08:51:18Z</time></trkpt><trkpt lat="43.86167516145259" lon="10.46515742617638"><ele>15.5</ele><time>2026-04-04T08:51:19Z</time></trkpt><trkpt lat="43.86167991445333" lon="10.465343270259515"><ele>15.75</ele><time>2026-04-04T08:51:20Z</time></trkpt><trkpt lat="43.861685042674644" lon="10.465518656232206"><ele>16.0</ele><time>2026-04-04T08:51:21Z</time></trkpt><trkpt lat="43.861687518801276" lon="10.465671736525598"><ele>16.25</ele><time>2026-04-04T08:51:22Z</time></trkpt><trkpt lat="43.861694872812635" lon="10.465820079871463"><ele>16.5</ele><time>2026-04-04T08:51:23Z</time></trkpt><trkpt lat="43.86172474148456" lon="10.465965638646297"><ele>16.75</ele><time>2026-04-04T08:51:24Z</time></trkpt><trkpt lat="43.861778857617125" lon="10.466114110512668"><ele>17.0</ele><time>2026-04-04T08:51:25Z</time></trkpt><trkpt lat="43.86184640271672" lon="10.466246512617069"><ele>17.4</ele><time>2026-04-04T08:51:26Z</time></trkpt><trkpt lat="43.861906102034766" lon="10.466366881939193"><ele>17.799999999999997</ele><time>2026-04-04T08:51:27Z</time></trkpt><trkpt lat="43.861958065562035" lon="10.466463561461051"><ele>18.2</ele><time>2026-04-04T08:51:28Z</time></trkpt><trkpt lat="43.862001709108014" lon="10.46654606422299"><ele>18.599999999999998</ele><time>2026-04-04T08:51:29Z</time></trkpt><trkpt lat="43.8620509279409" lon="10.466650991950956"><ele>19.0</ele><time>2026-04-04T08:51:30Z</time></trkpt><trkpt lat="43.86210813230753" lon="10.46679904916066"><ele>19.0</ele><time>2026-04-04T08:51:31Z</time></trkpt><trkpt lat="43.86213754261246" lon="10.466990691283138"><ele>19.0</ele><time>2026-04-04T08:51:32Z</time></trkpt><trkpt lat="43.86216338717203" lon="10.467194305209228"><ele>19.0</ele><time>2026-04-04T08:51:33Z</time></trkpt><trkpt lat="43.86219242343952" lon="10.46741253125137"><ele>18.666666666666664</ele><time>2026-04-04T08:51:34Z</time></trkpt><trkpt lat="43.86220040019494" lon="10.467649379854066"><ele>18.333333333333332</ele><time>2026-04-04T08:51:35Z</time></trkpt><trkpt lat="43.862194570161066" lon="10.467888601638695"><ele>18.0</ele><time>2026-04-04T08:51:36Z</time></trkpt><trkpt lat="43.862190891090584" lon="10.468132562333675"><ele>17.333333333333332</ele><time>2026-04-04T08:51:37Z</time></trkpt><trkpt lat="43.86220206710091" lon="10.468358798781287"><ele>16.666666666666664</ele><time>2026-04-04T08:51:38Z</time></trkpt><trkpt lat="43.86223478762306" lon="10.468570525836958"><ele>16.0</ele><time>2026-04-04T08:51:39Z</time></trkpt><trkpt lat="43.862297323945796" lon="10.468775884987888"><ele>15.666666666666666</ele><time>2026-04-04T08:51:40Z</time></trkpt><trkpt lat="43.862389455815354" lon="10.468952699623102"><ele>15.333333333333332</ele><time>2026-04-04T08:51:41Z</time></trkpt><trkpt lat="43.862496243627504" lon="10.469106567293943"><ele>15.0</ele><time>2026-04-04T08:51:42Z</time></trkpt><trkpt lat="43.862598800972236" lon="10.4692565246615"><ele>15.25</ele><time>2026-04-04T08:51:43Z</time></trkpt><trkpt lat="43.862689365009" lon="10.46940160033321"><ele>15.5</ele><time>2026-04-04T08:51:44Z</time></trkpt><trkpt lat="43.862769482590885" lon="10.46954244420912"><ele>15.75</ele><time>2026-04-04T08:51:45Z</time></trkpt><trkpt lat="43.86283677865255" lon="10.469689396064627"><ele>16.0</ele><time>2026-04-04T08:51:46Z</time></trkpt><trkpt lat="43.862892999181504" lon="10.469847392739796"><ele>16.0</ele><time>2026-04-04T08:51:47Z</time></trkpt><trkpt lat="43.862913771337624" lon="10.470027694212499"><ele>16.0</ele><time>2026-04-04T08:51:48Z</time></trkpt><trkpt lat="43.86292594940125" lon="10.470207652791766"><ele>16.0</ele><time>2026-04-04T08:51:49Z</time></trkpt><trkpt lat="43.86291787742916" lon="10.470388782475652"><ele>16.0</ele><time>2026-04-04T08:51:50Z</time></trkpt><trkpt lat="43.86289655298755" lon="10.470565924689469"><ele>16.75</ele><time>2026-04-04T08:51:51Z</time></trkpt><trkpt lat="43.86285441151114" lon="10.470742555501952"><ele>17.5</ele><time>2026-04-04T08:51:52Z</time></trkpt><trkpt lat="43.86279960387555" lon="10.470929741407534"><ele>18.25</ele><time>2026-04-04T08:51:53Z</time></trkpt><trkpt lat="43.86274182463588" lon="10.47112314506966"><ele>19.0</ele><time>2026-04-04T08:51:54Z</time></trkpt><trkpt lat="43.862683852115666" lon="10.471308648670338"><ele>18.5</ele><time>2026-04-04T08:51:55Z</time></trkpt><trkpt lat="43.86263935292201" lon="10.471488068544238"><ele>18.0</ele><time>2026-04-04T08:51:56Z</time></trkpt><trkpt lat="43.86262444838472" lon="10.471667284449637"><ele>17.5</ele><time>2026-04-04T08:51:57Z</time></trkpt><trkpt lat="43.86259771215966" lon="10.471836154901736"><ele>17.0</ele><time>2026-04-04T08:51:58Z</time></trkpt><trkpt lat="43.862557060912366" lon="10.472001234082155"><ele>17.0</ele><time>2026-04-04T08:51:59Z</time></trkpt><trkpt lat="43.862530418541304" lon="10.472165934249844"><ele>17.0</ele><time>2026-04-04T08:52:00Z</time></trkpt><trkpt lat="43.86250473895177" lon="10.472331526969363"><ele>17.0</ele><time>2026-04-04T08:52:01Z</time></trkpt><trkpt lat="43.86248118780851" lon="10.472494373615554"><ele>17.0</ele><time>2026-04-04T08:52:02Z</time></trkpt><trkpt lat="43.86247285599096" lon="10.472656387792687"><ele>17.0</ele><time>2026-04-04T08:52:03Z</time></trkpt><trkpt lat="43.86245086540497" lon="10.472819016720194"><ele>17.0</ele><time>2026-04-04T08:52:04Z</time></trkpt><trkpt lat="43.86244051413584" lon="10.472983217141538"><ele>17.0</ele><time>2026-04-04T08:52:05Z</time></trkpt><trkpt lat="43.86243227472617" lon="10.473149346796314"><ele>17.0</ele><time>2026-04-04T08:52:06Z</time></trkpt><trkpt lat="43.862431606729075" lon="10.473320314588438"><ele>17.0</ele><time>2026-04-04T08:52:07Z</time></trkpt><trkpt lat="43.86243004734736" lon="10.473500398934245"><ele>17.0</ele><time>2026-04-04T08:52:08Z</time></trkpt><trkpt lat="43.86242960561519" lon="10.473686786981874"><ele>17.0</ele><time>2026-04-04T08:52:09Z</time></trkpt><trkpt lat="43.86242882033184" lon="10.473875567957336"><ele>17.0</ele><time>2026-04-04T08:52:10Z</time></trkpt><trkpt lat="43.862431529302384" lon="10.474062640154578"><ele>17.0</ele><time>2026-04-04T08:52:11Z</time></trkpt><trkpt lat="43.86243154703373" lon="10.474248859574551"><ele>17.0</ele><time>2026-04-04T08:52:12Z</time></trkpt><trkpt lat="43.86243544896999" lon="10.474432613702756"><ele>17.0</ele><time>2026-04-04T08:52:13Z</time></trkpt><trkpt lat="43.86244060469698" lon="10.474612326166127"><ele>17.0</ele><time>2026-04-04T08:52:14Z</time></trkpt><trkpt lat="43.862452899079635" lon="10.474799316545349"><ele>16.75</ele><time>2026-04-04T08:52:15Z</time></trkpt><trkpt lat="43.86246724802892" lon="10.474984405999436"><ele>16.5</ele><time>2026-04-04T08:52:16Z</time></trkpt><trkpt lat="43.86249255060348" lon="10.475173274063687"><ele>16.25</ele><time>2026-04-04T08:52:17Z</time></trkpt><trkpt lat="43.862522905876325" lon="10.475362555678272"><ele>16.0</ele><time>2026-04-04T08:52:18Z</time></trkpt><trkpt lat="43.862559079274654" lon="10.47555182492598"><ele>16.5</ele><time>2026-04-04T08:52:19Z</time></trkpt><trkpt lat="43.86260848828634" lon="10.475738735661258"><ele>17.0</ele><time>2026-04-04T08:52:20Z</time></trkpt><trkpt lat="43.86262149346473" lon="10.475927674077854"><ele>17.5</ele><time>2026-04-04T08:52:21Z</time></trkpt><trkpt lat="43.86264796069106" lon="10.476114288033372"><ele>18.0</ele><time>2026-04-04T08:52:22Z</time></trkpt><trkpt lat="43.862607772345726" lon="10.47630935835267"><ele>18.0</ele><time>2026-04-04T08:52:23Z</time></trkpt><trkpt lat="43.86260445568558" lon="10.476503533574078"><ele>18.0</ele><time>2026-04-04T08:52:24Z</time></trkpt><trkpt lat="43.86256629827757" lon="10.476686170531162"><ele>18.0</ele><time>2026-04-04T08:52:25Z</time></trkpt><trkpt lat="43.86254673709474" lon="10.476857306264776"><ele>18.0</ele><time>2026-04-04T08:52:26Z</time></trkpt><trkpt lat="43.86254797984873" lon="10.477021399751958"><ele>17.5</ele><time>2026-04-04T08:52:27Z</time></trkpt><trkpt lat="43.86253431436857" lon="10.47718180595361"><ele>17.0</ele><time>2026-04-04T08:52:28Z</time></trkpt><trkpt lat="43.86252355576323" lon="10.477342088926704"><ele>16.5</ele><time>2026-04-04T08:52:29Z</time></trkpt><trkpt lat="43.86252207119996" lon="10.477506750094543"><ele>16.0</ele><time>2026-04-04T08:52:30Z</time></trkpt><trkpt lat="43.862518864297336" lon="10.477674687500409"><ele>16.0</ele><time>2026-04-04T08:52:31Z</time></trkpt><trkpt lat="43.862527581577154" lon="10.477843056259038"><ele>16.0</ele><time>2026-04-04T08:52:32Z</time></trkpt><trkpt lat="43.86255427892591" lon="10.478017793707945"><ele>16.0</ele><time>2026-04-04T08:52:33Z</time></trkpt><trkpt lat="43.86259478994981" lon="10.478190515372864"><ele>16.0</ele><time>2026-04-04T08:52:34Z</time></trkpt><trkpt lat="43.86264592301662" lon="10.478360284085316"><ele>16.25</ele><time>2026-04-04T08:52:35Z</time></trkpt><trkpt lat="43.862693266367195" lon="10.478523059661152"><ele>16.5</ele><time>2026-04-04T08:52:36Z</time></trkpt><trkpt lat="43.86273690659365" lon="10.478675442120373"><ele>16.75</ele><time>2026-04-04T08:52:37Z</time></trkpt><trkpt lat="43.86277674848487" lon="10.478817055130682"><ele>17.0</ele><time>2026-04-04T08:52:38Z</time></trkpt><trkpt lat="43.86281173384078" lon="10.478950833252691"><ele>17.25</ele><time>2026-04-04T08:52:39Z</time></trkpt><trkpt lat="43.86283859101581" lon="10.47908780540779"><ele>17.5</ele><time>2026-04-04T08:52:40Z</time></trkpt><trkpt lat="43.8628583821693" lon="10.479241332147426"><ele>17.75</ele><time>2026-04-04T08:52:41Z</time></trkpt><trkpt lat="43.862869041610516" lon="10.479402020539903"><ele>18.0</ele><time>2026-04-04T08:52:42Z</time></trkpt><trkpt lat="43.86286393926114" lon="10.479575011496934"><ele>17.5</ele><time>2026-04-04T08:52:43Z</time></trkpt><trkpt lat="43.862835985726036" lon="10.479751762667743"><ele>17.0</ele><time>2026-04-04T08:52:44Z</time></trkpt><trkpt lat="43.86280052705932" lon="10.47992873016584"><ele>16.5</ele><time>2026-04-04T08:52:45Z</time></trkpt><trkpt lat="43.86276370961168" lon="10.48010909257737"><ele>16.0</ele><time>2026-04-04T08:52:46Z</time></trkpt><trkpt lat="43.862724687295874" lon="10.480293152475786"><ele>16.0</ele><time>2026-04-04T08:52:47Z</time></trkpt><trkpt lat="43.86268551413593" lon="10.480471820402151"><ele>16.0</ele><time>2026-04-04T08:52:48Z</time></trkpt><trkpt lat="43.86263691678942" lon="10.480633263021476"><ele>16.0</ele><time>2026-04-04T08:52:49Z</time></trkpt><trkpt lat="43.86256521035782" lon="10.480761809098931"><ele>16.0</ele><time>2026-04-04T08:52:50Z</time></trkpt><trkpt lat="43.86248758858663" lon="10.48088475056503"><ele>16.0</ele><time>2026-04-04T08:52:51Z</time></trkpt><trkpt lat="43.862409731309405" lon="10.48100514889136"><ele>16.0</ele><time>2026-04-04T08:52:52Z</time></trkpt><trkpt lat="43.86233400128906" lon="10.481123078618074"><ele>16.0</ele><time>2026-04-04T08:52:53Z</time></trkpt><trkpt lat="43.86225964505039" lon="10.48123885181658"><ele>16.0</ele><time>2026-04-04T08:52:54Z</time></trkpt><trkpt lat="43.86220133514845" lon="10.481370576647501"><ele>16.2</ele><time>2026-04-04T08:52:55Z</time></trkpt><trkpt lat="43.862122950797456" lon="10.481483198242321"><ele>16.400000000000002</ele><time>2026-04-04T08:52:56Z</time></trkpt><trkpt lat="43.86204700400414" lon="10.481595800158376"><ele>16.6</ele><time>2026-04-04T08:52:57Z</time></trkpt><trkpt lat="43.86197728046535" lon="10.481705343680117"><ele>16.8</ele><time>2026-04-04T08:52:58Z</time></trkpt><trkpt lat="43.86189860117004" lon="10.481781106903087"><ele>17.0</ele><time>2026-04-04T08:52:59Z</time></trkpt><trkpt lat="43.861838899530305" lon="10.48187010463976"><ele>17.0</ele><time>2026-04-04T08:53:00Z</time></trkpt><trkpt lat="43.861788508516916" lon="10.48198103170553"><ele>17.0</ele><time>2026-04-04T08:53:01Z</time></trkpt><trkpt lat="43.861718197035735" lon="10.48207661194346"><ele>17.0</ele><time>2026-04-04T08:53:02Z</time></trkpt><trkpt lat="43.86165172882723" lon="10.482175501233423"><ele>17.0</ele><time>2026-04-04T08:53:03Z</time></trkpt><trkpt lat="43.861590664026906" lon="10.48227673877915"><ele>17.0</ele><time>2026-04-04T08:53:04Z</time></trkpt><trkpt lat="43.861556488303044" lon="10.482410599786872"><ele>17.0</ele><time>2026-04-04T08:53:05Z</time></trkpt><trkpt lat="43.861549749852315" lon="10.482571778077714"><ele>17.0</ele><time>2026-04-04T08:53:06Z</time></trkpt><trkpt lat="43.861547296112626" lon="10.482735760733014"><ele>17.0</ele><time>2026-04-04T08:53:07Z</time></trkpt><trkpt lat="43.8615288519349" lon="10.482904947301384"><ele>17.0</ele><time>2026-04-04T08:53:08Z</time></trkpt><trkpt lat="43.86151434304146" lon="10.483079397287652"><ele>17.0</ele><time>2026-04-04T08:53:09Z</time></trkpt><trkpt lat="43.86150101463092" lon="10.483260667211836"><ele>17.0</ele><time>2026-04-04T08:53:10Z</time></trkpt><trkpt lat="43.86148987005349" lon="10.48343975575516"><ele>17.0</ele><time>2026-04-04T08:53:11Z</time></trkpt><trkpt lat="43.861479438779334" lon="10.483621567010124"><ele>17.0</ele><time>2026-04-04T08:53:12Z</time></trkpt><trkpt lat="43.86148484153904" lon="10.483795629381705"><ele>17.0</ele><time>2026-04-04T08:53:13Z</time></trkpt><trkpt lat="43.86147050015573" lon="10.483963429907174"><ele>17.0</ele><time>2026-04-04T08:53:14Z</time></trkpt><trkpt lat="43.861463538321736" lon="10.48412745619992"><ele>17.0</ele><time>2026-04-04T08:53:15Z</time></trkpt><trkpt lat="43.861451831611284" lon="10.48429174286728"><ele>17.0</ele><time>2026-04-04T08:53:16Z</time></trkpt><trkpt lat="43.86144164757028" lon="10.484458350876418"><ele>17.25</ele><time>2026-04-04T08:53:17Z</time></trkpt><trkpt lat="43.86141615148347" lon="10.484625865561828"><ele>17.5</ele><time>2026-04-04T08:53:18Z</time></trkpt><trkpt lat="43.86140407078874" lon="10.484803088097841"><ele>17.75</ele><time>2026-04-04T08:53:19Z</time></trkpt><trkpt lat="43.86139203908943" lon="10.484979587055987"><ele>18.0</ele><time>2026-04-04T08:53:20Z</time></trkpt><trkpt lat="43.8613825653038" lon="10.485160927006655"><ele>18.0</ele><time>2026-04-04T08:53:21Z</time></trkpt><trkpt lat="43.86137312131971" lon="10.485349513350458"><ele>18.0</ele><time>2026-04-04T08:53:22Z</time></trkpt><trkpt lat="43.86136493853231" lon="10.48553305937541"><ele>18.0</ele><time>2026-04-04T08:53:23Z</time></trkpt><trkpt lat="43.86136129769799" lon="10.48569469022544"><ele>18.0</ele><time>2026-04-04T08:53:24Z</time></trkpt><trkpt lat="43.86137247438167" lon="10.485818469014516"><ele>17.8</ele><time>2026-04-04T08:53:25Z</time></trkpt><trkpt lat="43.86137150691619" lon="10.485913942442835"><ele>17.6</ele><time>2026-04-04T08:53:26Z</time></trkpt><trkpt lat="43.86137147618055" lon="10.486106832364177"><ele>17.4</ele><time>2026-04-04T08:53:28Z</time></trkpt><trkpt lat="43.86137581564289" lon="10.486232759745999"><ele>17.2</ele><time>2026-04-04T08:53:29Z</time></trkpt><trkpt lat="43.86137084339644" lon="10.486380001415421"><ele>17.0</ele><time>2026-04-04T08:53:30Z</time></trkpt><trkpt lat="43.86137748204113" lon="10.486545592426195"><ele>17.0</ele><time>2026-04-04T08:53:31Z</time></trkpt><trkpt lat="43.86136691437092" lon="10.486723712753632"><ele>17.0</ele><time>2026-04-04T08:53:32Z</time></trkpt><trkpt lat="43.86137611790197" lon="10.486914316583995"><ele>17.0</ele><time>2026-04-04T08:53:33Z</time></trkpt><trkpt lat="43.86138989289289" lon="10.487103588181563"><ele>17.0</ele><time>2026-04-04T08:53:34Z</time></trkpt><trkpt lat="43.86142047227148" lon="10.487281283385407"><ele>17.0</ele><time>2026-04-04T08:53:35Z</time></trkpt><trkpt lat="43.8614354836979" lon="10.48746823147086"><ele>17.0</ele><time>2026-04-04T08:53:36Z</time></trkpt><trkpt lat="43.861452097548174" lon="10.487665267648966"><ele>17.0</ele><time>2026-04-04T08:53:37Z</time></trkpt><trkpt lat="43.86146204097553" lon="10.487872002616857"><ele>17.0</ele><time>2026-04-04T08:53:38Z</time></trkpt><trkpt lat="43.86145907147172" lon="10.48807288028593"><ele>16.75</ele><time>2026-04-04T08:53:39Z</time></trkpt><trkpt lat="43.861464597347776" lon="10.488267777396958"><ele>16.5</ele><time>2026-04-04T08:53:40Z</time></trkpt><trkpt lat="43.86145921128964" lon="10.488444413529011"><ele>16.25</ele><time>2026-04-04T08:53:41Z</time></trkpt><trkpt lat="43.86145783015748" lon="10.48861138932425"><ele>16.0</ele><time>2026-04-04T08:53:42Z</time></trkpt><trkpt lat="43.861450828377926" lon="10.488765180474589"><ele>16.400000000000002</ele><time>2026-04-04T08:53:43Z</time></trkpt><trkpt lat="43.86144340852976" lon="10.488912864447038"><ele>16.8</ele><time>2026-04-04T08:53:44Z</time></trkpt><trkpt lat="43.86143565734353" lon="10.489050620594666"><ele>17.200000000000003</ele><time>2026-04-04T08:53:45Z</time></trkpt><trkpt lat="43.86142769224827" lon="10.489172942291317"><ele>17.6</ele><time>2026-04-04T08:53:46Z</time></trkpt><trkpt lat="43.86141725945715" lon="10.48927201137398"><ele>18.0</ele><time>2026-04-04T08:53:47Z</time></trkpt><trkpt lat="43.86139959420145" lon="10.489417354240798"><ele>18.0</ele><time>2026-04-04T08:53:49Z</time></trkpt><trkpt lat="43.86139864111621" lon="10.489510105623351"><ele>18.0</ele><time>2026-04-04T08:53:51Z</time></trkpt><trkpt lat="43.861526025032006" lon="10.489601380823348"><ele>18.0</ele><time>2026-04-04T08:53:53Z</time></trkpt><trkpt lat="43.86163665087396" lon="10.48959524555762"><ele>18.0</ele><time>2026-04-04T08:53:54Z</time></trkpt><trkpt lat="43.86176846876008" lon="10.489581399681226"><ele>17.333333333333332</ele><time>2026-04-04T08:53:55Z</time></trkpt><trkpt lat="43.86192188859407" lon="10.48956656560848"><ele>16.666666666666664</ele><time>2026-04-04T08:53:56Z</time></trkpt><trkpt lat="43.86208905395818" lon="10.489524125546469"><ele>16.0</ele><time>2026-04-04T08:53:57Z</time></trkpt><trkpt lat="43.8622267233949" lon="10.489448736092724"><ele>16.0</ele><time>2026-04-04T08:53:58Z</time></trkpt><trkpt lat="43.862338942800164" lon="10.489359489385304"><ele>16.0</ele><time>2026-04-04T08:53:59Z</time></trkpt><trkpt lat="43.86244157438732" lon="10.489281779936166"><ele>16.0</ele><time>2026-04-04T08:54:00Z</time></trkpt><trkpt lat="43.86252976458857" lon="10.489211733554871"><ele>16.0</ele><time>2026-04-04T08:54:01Z</time></trkpt><trkpt lat="43.86261428971157" lon="10.489145739433239"><ele>16.0</ele><time>2026-04-04T08:54:02Z</time></trkpt><trkpt lat="43.86269157412593" lon="10.489087489659891"><ele>16.2</ele><time>2026-04-04T08:54:03Z</time></trkpt><trkpt lat="43.86277245991294" lon="10.489025595758145"><ele>16.400000000000002</ele><time>2026-04-04T08:54:04Z</time></trkpt><trkpt lat="43.86285728599787" lon="10.488958635702126"><ele>16.6</ele><time>2026-04-04T08:54:05Z</time></trkpt><trkpt lat="43.86294382525599" lon="10.488887456801784"><ele>16.8</ele><time>2026-04-04T08:54:06Z</time></trkpt><trkpt lat="43.8630324199728" lon="10.488815098452262"><ele>17.0</ele><time>2026-04-04T08:54:07Z</time></trkpt><trkpt lat="43.86312047285974" lon="10.48874444479514"><ele>17.0</ele><time>2026-04-04T08:54:08Z</time></trkpt><trkpt lat="43.863210727442905" lon="10.488675213846474"><ele>17.0</ele><time>2026-04-04T08:54:09Z</time></trkpt><trkpt lat="43.863301896023785" lon="10.48860833189042"><ele>17.0</ele><time>2026-04-04T08:54:10Z</time></trkpt><trkpt lat="43.863400011304364" lon="10.488554544950146"><ele>17.0</ele><time>2026-04-04T08:54:11Z</time></trkpt><trkpt lat="43.86347230190065" lon="10.488453426249562"><ele>17.0</ele><time>2026-04-04T08:54:12Z</time></trkpt><trkpt lat="43.86361332918781" lon="10.488471263565867"><ele>17.2</ele><time>2026-04-04T08:54:13Z</time></trkpt><trkpt lat="43.863730461036184" lon="10.48842651451016"><ele>17.4</ele><time>2026-04-04T08:54:14Z</time></trkpt><trkpt lat="43.863847063861954" lon="10.488386166864734"><ele>17.6</ele><time>2026-04-04T08:54:15Z</time></trkpt><trkpt lat="43.86395237426358" lon="10.488346462095114"><ele>17.8</ele><time>2026-04-04T08:54:16Z</time></trkpt><trkpt lat="43.864044833016585" lon="10.488298919699249"><ele>18.0</ele><time>2026-04-04T08:54:17Z</time></trkpt><trkpt lat="43.86412681955668" lon="10.488274824847192"><ele>18.0</ele><time>2026-04-04T08:54:18Z</time></trkpt><trkpt lat="43.86420700777577" lon="10.488295225140698"><ele>18.0</ele><time>2026-04-04T08:54:19Z</time></trkpt><trkpt lat="43.86430202720476" lon="10.488352547158897"><ele>18.0</ele><time>2026-04-04T08:54:20Z</time></trkpt><trkpt lat="43.864404805266076" lon="10.488442904997164"><ele>18.0</ele><time>2026-04-04T08:54:21Z</time></trkpt><trkpt lat="43.86451764856606" lon="10.488545572431692"><ele>18.0</ele><time>2026-04-04T08:54:22Z</time></trkpt><trkpt lat="43.8646244382101" lon="10.488682104879432"><ele>18.0</ele><time>2026-04-04T08:54:23Z</time></trkpt><trkpt lat="43.864753901062784" lon="10.488792938764862"><ele>18.0</ele><time>2026-04-04T08:54:24Z</time></trkpt><trkpt lat="43.86487836953202" lon="10.488936592878787"><ele>18.0</ele><time>2026-04-04T08:54:25Z</time></trkpt><trkpt lat="43.865005072104104" lon="10.489080402862918"><ele>18.333333333333332</ele><time>2026-04-04T08:54:26Z</time></trkpt><trkpt lat="43.86512889210799" lon="10.489223259326964"><ele>18.666666666666664</ele><time>2026-04-04T08:54:27Z</time></trkpt><trkpt lat="43.865252084437294" lon="10.489356343609117"><ele>19.0</ele><time>2026-04-04T08:54:28Z</time></trkpt><trkpt lat="43.86536618049517" lon="10.489483668393477"><ele>19.75</ele><time>2026-04-04T08:54:29Z</time></trkpt><trkpt lat="43.865478153061126" lon="10.48960104073197"><ele>20.5</ele><time>2026-04-04T08:54:30Z</time></trkpt><trkpt lat="43.86558107260904" lon="10.4897197178518"><ele>21.25</ele><time>2026-04-04T08:54:31Z</time></trkpt><trkpt lat="43.86568657642544" lon="10.489836065934142"><ele>22.0</ele><time>2026-04-04T08:54:32Z</time></trkpt><trkpt lat="43.86579049512235" lon="10.48995328372048"><ele>22.0</ele><time>2026-04-04T08:54:33Z</time></trkpt><trkpt lat="43.86589393654175" lon="10.49007101997958"><ele>22.0</ele><time>2026-04-04T08:54:34Z</time></trkpt><trkpt lat="43.86600022616071" lon="10.490187014530614"><ele>22.0</ele><time>2026-04-04T08:54:35Z</time></trkpt><trkpt lat="43.86610538974045" lon="10.49029981983317"><ele>22.0</ele><time>2026-04-04T08:54:36Z</time></trkpt><trkpt lat="43.86621294134664" lon="10.490416634146836"><ele>23.25</ele><time>2026-04-04T08:54:37Z</time></trkpt><trkpt lat="43.86631987569772" lon="10.490536097190175"><ele>24.5</ele><time>2026-04-04T08:54:38Z</time></trkpt><trkpt lat="43.86642204893459" lon="10.490649658827907"><ele>25.75</ele><time>2026-04-04T08:54:39Z</time></trkpt><trkpt lat="43.86652523091811" lon="10.490751929710038"><ele>27.0</ele><time>2026-04-04T08:54:40Z</time></trkpt><trkpt lat="43.86663688474266" lon="10.49085035863405"><ele>27.0</ele><time>2026-04-04T08:54:41Z</time></trkpt><trkpt lat="43.866762735094646" lon="10.490948809824614"><ele>27.0</ele><time>2026-04-04T08:54:42Z</time></trkpt><trkpt lat="43.86689885617769" lon="10.491036693509361"><ele>27.0</ele><time>2026-04-04T08:54:43Z</time></trkpt><trkpt lat="43.867043347412796" lon="10.491081309228454"><ele>27.0</ele><time>2026-04-04T08:54:44Z</time></trkpt><trkpt lat="43.867205700520415" lon="10.4910599079899"><ele>27.666666666666664</ele><time>2026-04-04T08:54:45Z</time></trkpt><trkpt lat="43.86737615578569" lon="10.491014626274662"><ele>28.333333333333332</ele><time>2026-04-04T08:54:46Z</time></trkpt><trkpt lat="43.86753771448963" lon="10.490963586073278"><ele>29.0</ele><time>2026-04-04T08:54:47Z</time></trkpt><trkpt lat="43.867682104130836" lon="10.49090410142561"><ele>30.5</ele><time>2026-04-04T08:54:48Z</time></trkpt><trkpt lat="43.867809387389" lon="10.490845547647526"><ele>32.0</ele><time>2026-04-04T08:54:49Z</time></trkpt><trkpt lat="43.8679334834444" lon="10.490762599675795"><ele>33.5</ele><time>2026-04-04T08:54:50Z</time></trkpt><trkpt lat="43.86805854796002" lon="10.490696522128259"><ele>35.0</ele><time>2026-04-04T08:54:51Z</time></trkpt><trkpt lat="43.86818711756812" lon="10.490675705579227"><ele>35.0</ele><time>2026-04-04T08:54:52Z</time></trkpt><trkpt lat="43.86832242116831" lon="10.490692659074291"><ele>35.0</ele><time>2026-04-04T08:54:53Z</time></trkpt><trkpt lat="43.868456722465815" lon="10.490726041211623"><ele>35.0</ele><time>2026-04-04T08:54:54Z</time></trkpt><trkpt lat="43.86859554498128" lon="10.490769071946811"><ele>35.0</ele><time>2026-04-04T08:54:55Z</time></trkpt><trkpt lat="43.86873325999826" lon="10.490809702447372"><ele>35.4</ele><time>2026-04-04T08:54:56Z</time></trkpt><trkpt lat="43.868861549483434" lon="10.490854836786198"><ele>35.8</ele><time>2026-04-04T08:54:57Z</time></trkpt><trkpt lat="43.86896769543311" lon="10.49090283454696"><ele>36.2</ele><time>2026-04-04T08:54:58Z</time></trkpt><trkpt lat="43.86905663638491" lon="10.490948639110574"><ele>36.6</ele><time>2026-04-04T08:54:59Z</time></trkpt><trkpt lat="43.86913464585636" lon="10.490986746864822"><ele>37.0</ele><time>2026-04-04T08:55:00Z</time></trkpt><trkpt lat="43.86924622511422" lon="10.49107044544824"><ele>35.800000000000004</ele><time>2026-04-04T08:55:02Z</time></trkpt><trkpt lat="43.8693112193543" lon="10.491119221457003"><ele>34.6</ele><time>2026-04-04T08:55:03Z</time></trkpt><trkpt lat="43.869385504573145" lon="10.491175468754868"><ele>33.400000000000006</ele><time>2026-04-04T08:55:04Z</time></trkpt><trkpt lat="43.86947559599359" lon="10.49121892535657"><ele>32.2</ele><time>2026-04-04T08:55:06Z</time></trkpt><trkpt lat="43.86944821365508" lon="10.491382657662465"><ele>31.0</ele><time>2026-04-04T08:55:09Z</time></trkpt><trkpt lat="43.86944269515953" lon="10.491493580837453"><ele>30.0</ele><time>2026-04-04T08:55:10Z</time></trkpt><trkpt lat="43.869406896697974" lon="10.491581944052559"><ele>29.0</ele><time>2026-04-04T08:55:11Z</time></trkpt><trkpt lat="43.86940219096724" lon="10.491688108780334"><ele>28.0</ele><time>2026-04-04T08:55:13Z</time></trkpt><trkpt lat="43.86935341083948" lon="10.491865725873847"><ele>27.0</ele><time>2026-04-04T08:55:15Z</time></trkpt><trkpt lat="43.86932631299175" lon="10.492005915313703"><ele>26.0</ele><time>2026-04-04T08:55:16Z</time></trkpt><trkpt lat="43.86929594567662" lon="10.492145953154509"><ele>28.499999999999996</ele><time>2026-04-04T08:55:17Z</time></trkpt><trkpt lat="43.869243394744736" lon="10.49225533877368"><ele>31.0</ele><time>2026-04-04T08:55:18Z</time></trkpt><trkpt lat="43.86920501246301" lon="10.49235412544365"><ele>33.5</ele><time>2026-04-04T08:55:19Z</time></trkpt><trkpt lat="43.86916308770075" lon="10.492456767846665"><ele>36.0</ele><time>2026-04-04T08:55:20Z</time></trkpt><trkpt lat="43.869120105506276" lon="10.49255480396357"><ele>38.5</ele><time>2026-04-04T08:55:21Z</time></trkpt><trkpt lat="43.86907258547615" lon="10.492650987524085"><ele>41.0</ele><time>2026-04-04T08:55:22Z</time></trkpt><trkpt lat="43.86902621605385" lon="10.492724419763642"><ele>41.0</ele><time>2026-04-04T08:55:23Z</time></trkpt><trkpt lat="43.86897298232454" lon="10.492800781700076"><ele>41.0</ele><time>2026-04-04T08:55:24Z</time></trkpt><trkpt lat="43.868911730007056" lon="10.492883506329145"><ele>41.0</ele><time>2026-04-04T08:55:25Z</time></trkpt><trkpt lat="43.86884165702627" lon="10.492974773554979"><ele>41.0</ele><time>2026-04-04T08:55:26Z</time></trkpt><trkpt lat="43.86876858055762" lon="10.49306776422538"><ele>41.0</ele><time>2026-04-04T08:55:27Z</time></trkpt><trkpt lat="43.868687983300305" lon="10.493158371822357"><ele>42.166666666666664</ele><time>2026-04-04T08:55:28Z</time></trkpt><trkpt lat="43.86861225544703" lon="10.493244453187447"><ele>43.33333333333333</ele><time>2026-04-04T08:55:29Z</time></trkpt><trkpt lat="43.86856533568696" lon="10.493352799929164"><ele>44.5</ele><time>2026-04-04T08:55:30Z</time></trkpt><trkpt lat="43.86851774234431" lon="10.493431936929849"><ele>45.666666666666664</ele><time>2026-04-04T08:55:31Z</time></trkpt><trkpt lat="43.86849592301297" lon="10.493529646056412"><ele>46.833333333333336</ele><time>2026-04-04T08:55:32Z</time></trkpt><trkpt lat="43.86849207498217" lon="10.493667212291294"><ele>48.0</ele><time>2026-04-04T08:55:34Z</time></trkpt><trkpt lat="43.86838839681181" lon="10.493387480896349"><ele>48.0</ele><time>2026-04-04T08:55:50Z</time></trkpt><trkpt lat="43.86840221486527" lon="10.49328444734603"><ele>48.0</ele><time>2026-04-04T08:55:52Z</time></trkpt><trkpt lat="43.86843085911066" lon="10.493125565514193"><ele>48.0</ele><time>2026-04-04T08:55:54Z</time></trkpt><trkpt lat="43.868422685214114" lon="10.492802037329318"><ele>48.0</ele><time>2026-04-04T08:55:55Z</time></trkpt><trkpt lat="43.868471384778395" lon="10.492692971068024"><ele>46.833333333333336</ele><time>2026-04-04T08:55:56Z</time></trkpt><trkpt lat="43.86851645986621" lon="10.492592021805313"><ele>45.666666666666664</ele><time>2026-04-04T08:55:57Z</time></trkpt><trkpt lat="43.86856157935411" lon="10.492490972515263"><ele>44.5</ele><time>2026-04-04T08:55:58Z</time></trkpt><trkpt lat="43.86862351913515" lon="10.492423386439171"><ele>43.33333333333333</ele><time>2026-04-04T08:55:59Z</time></trkpt><trkpt lat="43.86868750303631" lon="10.492355080148055"><ele>42.166666666666664</ele><time>2026-04-04T08:56:00Z</time></trkpt><trkpt lat="43.868753037732894" lon="10.492282729759747"><ele>41.0</ele><time>2026-04-04T08:56:01Z</time></trkpt><trkpt lat="43.869189626883596" lon="10.492533788461833"><ele>41.0</ele><time>2026-04-04T08:56:02Z</time></trkpt><trkpt lat="43.8692271980417" lon="10.492434824076199"><ele>41.0</ele><time>2026-04-04T08:56:03Z</time></trkpt><trkpt lat="43.86926261902919" lon="10.492333552748212"><ele>41.0</ele><time>2026-04-04T08:56:04Z</time></trkpt><trkpt lat="43.86929116976905" lon="10.492227304305084"><ele>41.0</ele><time>2026-04-04T08:56:05Z</time></trkpt><trkpt lat="43.869316291371604" lon="10.492118769370052"><ele>41.0</ele><time>2026-04-04T08:56:06Z</time></trkpt><trkpt lat="43.86935875053117" lon="10.492016513570663"><ele>41.0</ele><time>2026-04-04T08:56:07Z</time></trkpt><trkpt lat="43.869384093007326" lon="10.491898308197397"><ele>38.0</ele><time>2026-04-04T08:56:08Z</time></trkpt><trkpt lat="43.869404875939416" lon="10.491776619161037"><ele>35.0</ele><time>2026-04-04T08:56:09Z</time></trkpt><trkpt lat="43.8694108289828" lon="10.491665887647137"><ele>32.0</ele><time>2026-04-04T08:56:10Z</time></trkpt><trkpt lat="43.86943739027824" lon="10.49153950903421"><ele>29.0</ele><time>2026-04-04T08:56:12Z</time></trkpt><trkpt lat="43.86948007067031" lon="10.491463794590855"><ele>26.0</ele><time>2026-04-04T08:56:17Z</time></trkpt><trkpt lat="43.86958693966436" lon="10.491583514445784"><ele>26.0</ele><time>2026-04-04T08:56:20Z</time></trkpt><trkpt lat="43.86965284661274" lon="10.49169219647241"><ele>26.0</ele><time>2026-04-04T08:56:22Z</time></trkpt><trkpt lat="43.869688518918565" lon="10.491820713362202"><ele>26.0</ele><time>2026-04-04T08:56:24Z</time></trkpt><trkpt lat="43.86970320476168" lon="10.491948296795671"><ele>26.0</ele><time>2026-04-04T08:56:26Z</time></trkpt><trkpt lat="43.86967416988239" lon="10.492094501151076"><ele>26.0</ele><time>2026-04-04T08:56:28Z</time></trkpt><trkpt lat="43.869671556242665" lon="10.492192472892503"><ele>25.8</ele><time>2026-04-04T08:56:29Z</time></trkpt><trkpt lat="43.8696983729888" lon="10.492301023924282"><ele>25.6</ele><time>2026-04-04T08:56:30Z</time></trkpt><trkpt lat="43.86970976749719" lon="10.492406220686096"><ele>25.4</ele><time>2026-04-04T08:56:31Z</time></trkpt><trkpt lat="43.869706790522784" lon="10.492545542913767"><ele>25.2</ele><time>2026-04-04T08:56:33Z</time></trkpt><trkpt lat="43.86957010823782" lon="10.492609118078953"><ele>25.0</ele><time>2026-04-04T08:56:38Z</time></trkpt><trkpt lat="43.86952627272" lon="10.49275676340626"><ele>25.000000000000004</ele><time>2026-04-04T08:56:40Z</time></trkpt><trkpt lat="43.86948998807146" lon="10.492838981668086"><ele>25.0</ele><time>2026-04-04T08:56:41Z</time></trkpt><trkpt lat="43.86944200610104" lon="10.492944058019424"><ele>25.0</ele><time>2026-04-04T08:56:43Z</time></trkpt><trkpt lat="43.869375034213725" lon="10.492967148812832"><ele>25.0</ele><time>2026-04-04T08:56:45Z</time></trkpt><trkpt lat="43.86930616901707" lon="10.493072222672344"><ele>25.000000000000004</ele><time>2026-04-04T08:56:48Z</time></trkpt><trkpt lat="43.86929745055074" lon="10.49320028786368"><ele>25.0</ele><time>2026-04-04T08:56:50Z</time></trkpt><trkpt lat="43.86927956195784" lon="10.493294809113946"><ele>25.166666666666668</ele><time>2026-04-04T08:56:52Z</time></trkpt><trkpt lat="43.869268469367256" lon="10.493385570408456"><ele>25.333333333333336</ele><time>2026-04-04T08:56:54Z</time></trkpt><trkpt lat="43.86927095385631" lon="10.49349271297696"><ele>25.5</ele><time>2026-04-04T08:56:56Z</time></trkpt><trkpt lat="43.86932709498587" lon="10.4936115448213"><ele>25.666666666666664</ele><time>2026-04-04T08:56:58Z</time></trkpt><trkpt lat="43.86939130147609" lon="10.493712220693423"><ele>25.833333333333332</ele><time>2026-04-04T08:57:00Z</time></trkpt><trkpt lat="43.86942451621478" lon="10.493812415755615"><ele>26.0</ele><time>2026-04-04T08:57:02Z</time></trkpt><trkpt lat="43.86941160533265" lon="10.493916886133595"><ele>26.0</ele><time>2026-04-04T08:57:04Z</time></trkpt><trkpt lat="43.869361089167974" lon="10.494077160975094"><ele>26.0</ele><time>2026-04-04T08:57:06Z</time></trkpt><trkpt lat="43.869325312220155" lon="10.494177908778294"><ele>26.0</ele><time>2026-04-04T08:57:07Z</time></trkpt><trkpt lat="43.86929580275401" lon="10.494281866452694"><ele>26.0</ele><time>2026-04-04T08:57:08Z</time></trkpt><trkpt lat="43.86927726639795" lon="10.494370900427402"><ele>26.0</ele><time>2026-04-04T08:57:09Z</time></trkpt><trkpt lat="43.86929248781584" lon="10.494536374399699"><ele>26.0</ele><time>2026-04-04T08:57:11Z</time></trkpt><trkpt lat="43.86934553074097" lon="10.494586711059686"><ele>26.0</ele><time>2026-04-04T08:57:12Z</time></trkpt><trkpt lat="43.86942713519494" lon="10.494677389004918"><ele>26.0</ele><time>2026-04-04T08:57:14Z</time></trkpt><trkpt lat="43.86950050406108" lon="10.494703543360659"><ele>26.0</ele><time>2026-04-04T08:57:15Z</time></trkpt><trkpt lat="43.86960395794501" lon="10.49473331827016"><ele>26.0</ele><time>2026-04-04T08:57:16Z</time></trkpt><trkpt lat="43.86971499438604" lon="10.494783717070893"><ele>25.833333333333332</ele><time>2026-04-04T08:57:17Z</time></trkpt><trkpt lat="43.86981800020704" lon="10.494853614659792"><ele>25.666666666666664</ele><time>2026-04-04T08:57:18Z</time></trkpt><trkpt lat="43.869907983460074" lon="10.494908551358694"><ele>25.5</ele><time>2026-04-04T08:57:19Z</time></trkpt><trkpt lat="43.86998525611715" lon="10.494947568031627"><ele>25.333333333333336</ele><time>2026-04-04T08:57:20Z</time></trkpt><trkpt lat="43.870050106935096" lon="10.494978745232974"><ele>25.166666666666668</ele><time>2026-04-04T08:57:21Z</time></trkpt><trkpt lat="43.87010799713666" lon="10.495018065629486"><ele>25.0</ele><time>2026-04-04T08:57:22Z</time></trkpt><trkpt lat="43.87016948793976" lon="10.495144905758782"><ele>25.0</ele><time>2026-04-04T08:57:24Z</time></trkpt><trkpt lat="43.87011487964765" lon="10.495242096852175"><ele>25.0</ele><time>2026-04-04T08:57:25Z</time></trkpt><trkpt lat="43.87012044985138" lon="10.495379427108677"><ele>25.0</ele><time>2026-04-04T08:57:27Z</time></trkpt><trkpt lat="43.8702202955533" lon="10.495435813937469"><ele>25.0</ele><time>2026-04-04T08:57:28Z</time></trkpt><trkpt lat="43.87030432647962" lon="10.495487695010082"><ele>25.0</ele><time>2026-04-04T08:57:29Z</time></trkpt><trkpt lat="43.87038821407301" lon="10.495527139839592"><ele>25.0</ele><time>2026-04-04T08:57:30Z</time></trkpt><trkpt lat="43.87049529619073" lon="10.495585900340698"><ele>25.0</ele><time>2026-04-04T08:57:31Z</time></trkpt><trkpt lat="43.87061378050793" lon="10.495654441203007"><ele>25.0</ele><time>2026-04-04T08:57:32Z</time></trkpt><trkpt lat="43.870715426256616" lon="10.495718037586327"><ele>25.0</ele><time>2026-04-04T08:57:33Z</time></trkpt><trkpt lat="43.87080574044777" lon="10.495773059815868"><ele>25.0</ele><time>2026-04-04T08:57:34Z</time></trkpt><trkpt lat="43.87090027881541" lon="10.495829984121716"><ele>25.0</ele><time>2026-04-04T08:57:35Z</time></trkpt><trkpt lat="43.870992311943745" lon="10.495884287519733"><ele>25.0</ele><time>2026-04-04T08:57:36Z</time></trkpt><trkpt lat="43.87107762659913" lon="10.495936842574498"><ele>25.0</ele><time>2026-04-04T08:57:37Z</time></trkpt><trkpt lat="43.87116620706358" lon="10.495989465724941"><ele>25.0</ele><time>2026-04-04T08:57:38Z</time></trkpt><trkpt lat="43.871261544729464" lon="10.496044511830517"><ele>25.166666666666668</ele><time>2026-04-04T08:57:39Z</time></trkpt><trkpt lat="43.87135280822859" lon="10.496100150392031"><ele>25.333333333333336</ele><time>2026-04-04T08:57:40Z</time></trkpt><trkpt lat="43.87143828022572" lon="10.496152090056116"><ele>25.5</ele><time>2026-04-04T08:57:41Z</time></trkpt><trkpt lat="43.871510479818475" lon="10.496197477216798"><ele>25.666666666666664</ele><time>2026-04-04T08:57:42Z</time></trkpt><trkpt lat="43.87158639323141" lon="10.49624353901579"><ele>25.833333333333332</ele><time>2026-04-04T08:57:43Z</time></trkpt><trkpt lat="43.87165760440636" lon="10.496290855975923"><ele>26.0</ele><time>2026-04-04T08:57:44Z</time></trkpt><trkpt lat="43.871724225793294" lon="10.496334162959188"><ele>26.333333333333332</ele><time>2026-04-04T08:57:45Z</time></trkpt><trkpt lat="43.8717886599217" lon="10.49637324559744"><ele>26.666666666666664</ele><time>2026-04-04T08:57:46Z</time></trkpt><trkpt lat="43.8718794859901" lon="10.496444054970235"><ele>27.0</ele><time>2026-04-04T08:57:48Z</time></trkpt><trkpt lat="43.87195286640432" lon="10.496484512135313"><ele>27.333333333333336</ele><time>2026-04-04T08:57:50Z</time></trkpt><trkpt lat="43.87205101176368" lon="10.496422128165813"><ele>27.666666666666668</ele><time>2026-04-04T08:57:52Z</time></trkpt><trkpt lat="43.872104320857275" lon="10.496343863476188"><ele>28.0</ele><time>2026-04-04T08:57:53Z</time></trkpt><trkpt lat="43.87215974021118" lon="10.496246113129805"><ele>28.0</ele><time>2026-04-04T08:57:54Z</time></trkpt><trkpt lat="43.8722045171546" lon="10.496151595622567"><ele>28.0</ele><time>2026-04-04T08:57:55Z</time></trkpt><trkpt lat="43.87223484055172" lon="10.496065636314372"><ele>28.0</ele><time>2026-04-04T08:57:56Z</time></trkpt><trkpt lat="43.87226799391461" lon="10.495988205014966"><ele>28.0</ele><time>2026-04-04T08:57:57Z</time></trkpt><trkpt lat="43.87231052871163" lon="10.495915375842628"><ele>28.0</ele><time>2026-04-04T08:57:58Z</time></trkpt><trkpt lat="43.87235719992711" lon="10.495838616349873"><ele>28.0</ele><time>2026-04-04T08:57:59Z</time></trkpt><trkpt lat="43.87239890378726" lon="10.495766947432907"><ele>28.0</ele><time>2026-04-04T08:58:00Z</time></trkpt><trkpt lat="43.87244233099564" lon="10.495688563766922"><ele>28.0</ele><time>2026-04-04T08:58:01Z</time></trkpt><trkpt lat="43.87251985582376" lon="10.495576785530323"><ele>27.999999999999996</ele><time>2026-04-04T08:58:03Z</time></trkpt><trkpt lat="43.87260992178944" lon="10.495560767578159"><ele>27.999999999999996</ele><time>2026-04-04T08:58:05Z</time></trkpt><trkpt lat="43.872697044273835" lon="10.495654895645302"><ele>28.0</ele><time>2026-04-04T08:58:07Z</time></trkpt><trkpt lat="43.872744229385994" lon="10.495737522218594"><ele>28.0</ele><time>2026-04-04T08:58:14Z</time></trkpt><trkpt lat="43.87264390251815" lon="10.495902010822338"><ele>28.0</ele><time>2026-04-04T08:58:16Z</time></trkpt><trkpt lat="43.8725596583169" lon="10.496080119175572"><ele>28.0</ele><time>2026-04-04T08:58:17Z</time></trkpt><trkpt lat="43.872467286633274" lon="10.49628729417342"><ele>28.0</ele><time>2026-04-04T08:58:18Z</time></trkpt><trkpt lat="43.87237256485638" lon="10.496519210795922"><ele>28.0</ele><time>2026-04-04T08:58:19Z</time></trkpt><trkpt lat="43.872287135068376" lon="10.496745000984236"><ele>28.0</ele><time>2026-04-04T08:58:20Z</time></trkpt><trkpt lat="43.87221385756168" lon="10.496942142519146"><ele>28.0</ele><time>2026-04-04T08:58:21Z</time></trkpt><trkpt lat="43.87214857968821" lon="10.4971143775544"><ele>27.75</ele><time>2026-04-04T08:58:22Z</time></trkpt><trkpt lat="43.87208732112509" lon="10.497267001452657"><ele>27.5</ele><time>2026-04-04T08:58:23Z</time></trkpt><trkpt lat="43.87203710946917" lon="10.497420965679645"><ele>27.25</ele><time>2026-04-04T08:58:24Z</time></trkpt><trkpt lat="43.87192097463722" lon="10.497630691432375"><ele>27.0</ele><time>2026-04-04T08:58:25Z</time></trkpt><trkpt lat="43.87183024148152" lon="10.497813756446925"><ele>26.333333333333336</ele><time>2026-04-04T08:58:26Z</time></trkpt><trkpt lat="43.87173456984534" lon="10.498004381308874"><ele>25.666666666666668</ele><time>2026-04-04T08:58:27Z</time></trkpt><trkpt lat="43.871636964118565" lon="10.498201949462027"><ele>25.0</ele><time>2026-04-04T08:58:28Z</time></trkpt><trkpt lat="43.871541309023115" lon="10.498395569225377"><ele>25.0</ele><time>2026-04-04T08:58:29Z</time></trkpt><trkpt lat="43.871450501085356" lon="10.498575632180543"><ele>25.0</ele><time>2026-04-04T08:58:30Z</time></trkpt><trkpt lat="43.871359412853835" lon="10.498754370467871"><ele>25.0</ele><time>2026-04-04T08:58:31Z</time></trkpt><trkpt lat="43.871268784248045" lon="10.498936926029327"><ele>26.333333333333336</ele><time>2026-04-04T08:58:32Z</time></trkpt><trkpt lat="43.871180244947155" lon="10.499120099218352"><ele>27.666666666666664</ele><time>2026-04-04T08:58:33Z</time></trkpt><trkpt lat="43.87109634400329" lon="10.499301625560266"><ele>29.0</ele><time>2026-04-04T08:58:34Z</time></trkpt><trkpt lat="43.87102228332406" lon="10.499474591488429"><ele>29.0</ele><time>2026-04-04T08:58:35Z</time></trkpt><trkpt lat="43.870957416482334" lon="10.49964407413977"><ele>29.0</ele><time>2026-04-04T08:58:36Z</time></trkpt><trkpt lat="43.870897021715095" lon="10.499823357744596"><ele>29.0</ele><time>2026-04-04T08:58:37Z</time></trkpt><trkpt lat="43.870838230388664" lon="10.4999959603613"><ele>29.0</ele><time>2026-04-04T08:58:38Z</time></trkpt><trkpt lat="43.87078133500618" lon="10.500160746695105"><ele>29.0</ele><time>2026-04-04T08:58:39Z</time></trkpt><trkpt lat="43.87071875893558" lon="10.50032545686325"><ele>29.0</ele><time>2026-04-04T08:58:40Z</time></trkpt><trkpt lat="43.87065124247424" lon="10.500492162070758"><ele>29.0</ele><time>2026-04-04T08:58:41Z</time></trkpt><trkpt lat="43.87057985215849" lon="10.500657176408273"><ele>29.0</ele><time>2026-04-04T08:58:42Z</time></trkpt><trkpt lat="43.87050582277354" lon="10.500828504355965"><ele>29.0</ele><time>2026-04-04T08:58:43Z</time></trkpt><trkpt lat="43.87043496592553" lon="10.50099731728655"><ele>29.0</ele><time>2026-04-04T08:58:44Z</time></trkpt><trkpt lat="43.87037513731328" lon="10.501157373147832"><ele>29.0</ele><time>2026-04-04T08:58:45Z</time></trkpt><trkpt lat="43.87032504777515" lon="10.501320274336782"><ele>29.0</ele><time>2026-04-04T08:58:46Z</time></trkpt><trkpt lat="43.87028984467646" lon="10.501508533885398"><ele>28.0</ele><time>2026-04-04T08:58:47Z</time></trkpt><trkpt lat="43.87026385904621" lon="10.501722560043284"><ele>27.0</ele><time>2026-04-04T08:58:48Z</time></trkpt><trkpt lat="43.870262118619316" lon="10.50194147478742"><ele>26.0</ele><time>2026-04-04T08:58:49Z</time></trkpt><trkpt lat="43.87026747258654" lon="10.502139442250671"><ele>25.75</ele><time>2026-04-04T08:58:50Z</time></trkpt><trkpt lat="43.870260912365" lon="10.502322472365467"><ele>25.5</ele><time>2026-04-04T08:58:51Z</time></trkpt><trkpt lat="43.870261618687984" lon="10.502491983364926"><ele>25.25</ele><time>2026-04-04T08:58:52Z</time></trkpt><trkpt lat="43.87025828796183" lon="10.502654642819062"><ele>25.0</ele><time>2026-04-04T08:58:53Z</time></trkpt><trkpt lat="43.8702526903731" lon="10.502831848987848"><ele>25.5</ele><time>2026-04-04T08:58:54Z</time></trkpt><trkpt lat="43.870249773013214" lon="10.503017005434174"><ele>26.0</ele><time>2026-04-04T08:58:55Z</time></trkpt><trkpt lat="43.870239800907406" lon="10.503211457161912"><ele>26.5</ele><time>2026-04-04T08:58:56Z</time></trkpt><trkpt lat="43.87023059216355" lon="10.503406510497399"><ele>27.0</ele><time>2026-04-04T08:58:57Z</time></trkpt><trkpt lat="43.870188996240756" lon="10.503591489524391"><ele>27.0</ele><time>2026-04-04T08:58:58Z</time></trkpt><trkpt lat="43.87016330607526" lon="10.50378332304804"><ele>27.0</ele><time>2026-04-04T08:58:59Z</time></trkpt><trkpt lat="43.870150521487886" lon="10.503981035835796"><ele>27.0</ele><time>2026-04-04T08:59:00Z</time></trkpt><trkpt lat="43.87013473273032" lon="10.504180554394447"><ele>27.0</ele><time>2026-04-04T08:59:01Z</time></trkpt><trkpt lat="43.870141083286946" lon="10.504379099791702"><ele>27.0</ele><time>2026-04-04T08:59:02Z</time></trkpt><trkpt lat="43.87016990630619" lon="10.504571865983115"><ele>27.0</ele><time>2026-04-04T08:59:03Z</time></trkpt><trkpt lat="43.87021991054036" lon="10.504749569628933"><ele>27.0</ele><time>2026-04-04T08:59:04Z</time></trkpt><trkpt lat="43.87028714113148" lon="10.504913309322552"><ele>27.0</ele><time>2026-04-04T08:59:05Z</time></trkpt><trkpt lat="43.87035754043539" lon="10.505072852212296"><ele>26.75</ele><time>2026-04-04T08:59:06Z</time></trkpt><trkpt lat="43.870410216899536" lon="10.505236727439772"><ele>26.5</ele><time>2026-04-04T08:59:07Z</time></trkpt><trkpt lat="43.87043611053886" lon="10.505405823596774"><ele>26.25</ele><time>2026-04-04T08:59:08Z</time></trkpt><trkpt lat="43.87046198852226" lon="10.505578257369978"><ele>26.0</ele><time>2026-04-04T08:59:09Z</time></trkpt><trkpt lat="43.87047286653477" lon="10.505749347935804"><ele>25.8</ele><time>2026-04-04T08:59:10Z</time></trkpt><trkpt lat="43.87047663661923" lon="10.505915856295312"><ele>25.6</ele><time>2026-04-04T08:59:11Z</time></trkpt><trkpt lat="43.87046091099068" lon="10.506073348888284"><ele>25.4</ele><time>2026-04-04T08:59:12Z</time></trkpt><trkpt lat="43.87042383273213" lon="10.506213860936741"><ele>25.2</ele><time>2026-04-04T08:59:13Z</time></trkpt><trkpt lat="43.87037676567778" lon="10.506345228883639"><ele>25.0</ele><time>2026-04-04T08:59:14Z</time></trkpt><trkpt lat="43.870319461590285" lon="10.506480933180704"><ele>25.0</ele><time>2026-04-04T08:59:15Z</time></trkpt><trkpt lat="43.87025126273571" lon="10.506610241889675"><ele>25.0</ele><time>2026-04-04T08:59:16Z</time></trkpt><trkpt lat="43.870173504120636" lon="10.50672322677266"><ele>25.0</ele><time>2026-04-04T08:59:17Z</time></trkpt><trkpt lat="43.870087686688805" lon="10.50681692080684"><ele>25.0</ele><time>2026-04-04T08:59:18Z</time></trkpt><trkpt lat="43.86999345479805" lon="10.506901386949286"><ele>25.0</ele><time>2026-04-04T08:59:19Z</time></trkpt><trkpt lat="43.86989302352227" lon="10.506972976471"><ele>24.75</ele><time>2026-04-04T08:59:20Z</time></trkpt><trkpt lat="43.86978956926615" lon="10.507018471433806"><ele>24.5</ele><time>2026-04-04T08:59:21Z</time></trkpt><trkpt lat="43.86968059346129" lon="10.507048669149633"><ele>24.25</ele><time>2026-04-04T08:59:22Z</time></trkpt><trkpt lat="43.86956636872619" lon="10.507066396914999"><ele>24.0</ele><time>2026-04-04T08:59:23Z</time></trkpt><trkpt lat="43.869450234064416" lon="10.50708366461247"><ele>24.0</ele><time>2026-04-04T08:59:24Z</time></trkpt><trkpt lat="43.86933679892642" lon="10.507097309986122"><ele>24.0</ele><time>2026-04-04T08:59:25Z</time></trkpt><trkpt lat="43.8692315406221" lon="10.50710855039715"><ele>24.0</ele><time>2026-04-04T08:59:26Z</time></trkpt><trkpt lat="43.86911608365365" lon="10.507119364399873"><ele>24.0</ele><time>2026-04-04T08:59:27Z</time></trkpt><trkpt lat="43.8689912364021" lon="10.507135405657934"><ele>24.0</ele><time>2026-04-04T08:59:28Z</time></trkpt><trkpt lat="43.8688646494796" lon="10.507179579824427"><ele>24.0</ele><time>2026-04-04T08:59:29Z</time></trkpt><trkpt lat="43.86872973595899" lon="10.50721482338722"><ele>24.0</ele><time>2026-04-04T08:59:30Z</time></trkpt><trkpt lat="43.868597724711535" lon="10.507278325684076"><ele>24.0</ele><time>2026-04-04T08:59:31Z</time></trkpt><trkpt lat="43.86846669139813" lon="10.50735656715522"><ele>23.75</ele><time>2026-04-04T08:59:32Z</time></trkpt><trkpt lat="43.86834080082961" lon="10.50745593068847"><ele>23.5</ele><time>2026-04-04T08:59:33Z</time></trkpt><trkpt lat="43.86822117520943" lon="10.507562164214237"><ele>23.25</ele><time>2026-04-04T08:59:34Z</time></trkpt><trkpt lat="43.86809271380013" lon="10.507654840649"><ele>23.0</ele><time>2026-04-04T08:59:35Z</time></trkpt><trkpt lat="43.867977164122095" lon="10.507768873301918"><ele>23.0</ele><time>2026-04-04T08:59:36Z</time></trkpt><trkpt lat="43.86787051450041" lon="10.50787039886794"><ele>23.0</ele><time>2026-04-04T08:59:37Z</time></trkpt><trkpt lat="43.867758063841315" lon="10.50795948742245"><ele>23.0</ele><time>2026-04-04T08:59:38Z</time></trkpt><trkpt lat="43.86763624474239" lon="10.508045894654707"><ele>23.0</ele><time>2026-04-04T08:59:39Z</time></trkpt><trkpt lat="43.86750646785183" lon="10.508123465637567"><ele>23.25</ele><time>2026-04-04T08:59:40Z</time></trkpt><trkpt lat="43.86737656635419" lon="10.508193164477758"><ele>23.5</ele><time>2026-04-04T08:59:41Z</time></trkpt><trkpt lat="43.867251222731944" lon="10.50825421713337"><ele>23.75</ele><time>2026-04-04T08:59:42Z</time></trkpt><trkpt lat="43.867126570196646" lon="10.508311812636421"><ele>24.0</ele><time>2026-04-04T08:59:43Z</time></trkpt><trkpt lat="43.86700942206678" lon="10.508365940749696"><ele>24.0</ele><time>2026-04-04T08:59:44Z</time></trkpt><trkpt lat="43.86689875429395" lon="10.508411091539504"><ele>24.0</ele><time>2026-04-04T08:59:45Z</time></trkpt><trkpt lat="43.86677890084518" lon="10.508452649925474"><ele>24.0</ele><time>2026-04-04T08:59:46Z</time></trkpt><trkpt lat="43.86665621318774" lon="10.50848599145496"><ele>24.0</ele><time>2026-04-04T08:59:47Z</time></trkpt><trkpt lat="43.866534658516144" lon="10.508512896414313"><ele>23.75</ele><time>2026-04-04T08:59:48Z</time></trkpt><trkpt lat="43.86641794275196" lon="10.508533688116186"><ele>23.5</ele><time>2026-04-04T08:59:49Z</time></trkpt><trkpt lat="43.8662999950289" lon="10.508552356493755"><ele>23.25</ele><time>2026-04-04T08:59:50Z</time></trkpt><trkpt lat="43.866181118296055" lon="10.508570374372391"><ele>23.0</ele><time>2026-04-04T08:59:51Z</time></trkpt><trkpt lat="43.8660652253016" lon="10.508586085987744"><ele>23.0</ele><time>2026-04-04T08:59:52Z</time></trkpt><trkpt lat="43.865954395019195" lon="10.508601887138894"><ele>23.0</ele><time>2026-04-04T08:59:53Z</time></trkpt><trkpt lat="43.865847019140965" lon="10.508619255957084"><ele>23.0</ele><time>2026-04-04T08:59:54Z</time></trkpt><trkpt lat="43.86573820641959" lon="10.508639926989238"><ele>23.0</ele><time>2026-04-04T08:59:55Z</time></trkpt><trkpt lat="43.865645204744446" lon="10.508660262920639"><ele>23.0</ele><time>2026-04-04T08:59:56Z</time></trkpt><trkpt lat="43.86555904909906" lon="10.508679140924407"><ele>23.4</ele><time>2026-04-04T08:59:57Z</time></trkpt><trkpt lat="43.86548271682915" lon="10.508696027358232"><ele>23.799999999999997</ele><time>2026-04-04T08:59:58Z</time></trkpt><trkpt lat="43.86541320313885" lon="10.508711405382103"><ele>24.2</ele><time>2026-04-04T08:59:59Z</time></trkpt><trkpt lat="43.86534697123237" lon="10.508726059303617"><ele>24.6</ele><time>2026-04-04T09:00:00Z</time></trkpt><trkpt lat="43.86525171161685" lon="10.508747132919263"><ele>25.0</ele><time>2026-04-04T09:00:03Z</time></trkpt><trkpt lat="43.865233925330244" lon="10.509010159878974"><ele>25.0</ele><time>2026-04-04T09:00:05Z</time></trkpt><trkpt lat="43.865273859919895" lon="10.509139732859653"><ele>25.0</ele><time>2026-04-04T09:00:06Z</time></trkpt><trkpt lat="43.865333402936514" lon="10.509295298159872"><ele>25.0</ele><time>2026-04-04T09:00:07Z</time></trkpt><trkpt lat="43.865382601132644" lon="10.509469390984536"><ele>25.0</ele><time>2026-04-04T09:00:08Z</time></trkpt><trkpt lat="43.865421276919136" lon="10.509634210197706"><ele>24.75</ele><time>2026-04-04T09:00:09Z</time></trkpt><trkpt lat="43.865468503724195" lon="10.509774731508994"><ele>24.5</ele><time>2026-04-04T09:00:10Z</time></trkpt><trkpt lat="43.86553264524139" lon="10.50990511244312"><ele>24.25</ele><time>2026-04-04T09:00:11Z</time></trkpt><trkpt lat="43.86561376344118" lon="10.510032602919171"><ele>24.0</ele><time>2026-04-04T09:00:12Z</time></trkpt><trkpt lat="43.86570859490409" lon="10.510146507746057"><ele>24.0</ele><time>2026-04-04T09:00:13Z</time></trkpt><trkpt lat="43.86582087094158" lon="10.510244837924535"><ele>24.0</ele><time>2026-04-04T09:00:14Z</time></trkpt><trkpt lat="43.865940795183874" lon="10.510338806621963"><ele>24.0</ele><time>2026-04-04T09:00:15Z</time></trkpt><trkpt lat="43.866062835951126" lon="10.51042685000856"><ele>24.0</ele><time>2026-04-04T09:00:16Z</time></trkpt><trkpt lat="43.86618601265184" lon="10.510516824500687"><ele>23.75</ele><time>2026-04-04T09:00:17Z</time></trkpt><trkpt lat="43.866299224711156" lon="10.51060267239066"><ele>23.5</ele><time>2026-04-04T09:00:18Z</time></trkpt><trkpt lat="43.86640491853384" lon="10.510683843438876"><ele>23.25</ele><time>2026-04-04T09:00:19Z</time></trkpt><trkpt lat="43.86651380495878" lon="10.510763744199826"><ele>23.0</ele><time>2026-04-04T09:00:20Z</time></trkpt><trkpt lat="43.86662957824359" lon="10.510848077387708"><ele>23.0</ele><time>2026-04-04T09:00:21Z</time></trkpt><trkpt lat="43.8667461097287" lon="10.510933488936448"><ele>23.0</ele><time>2026-04-04T09:00:22Z</time></trkpt><trkpt lat="43.86686132508962" lon="10.511023362090041"><ele>23.0</ele><time>2026-04-04T09:00:23Z</time></trkpt><trkpt lat="43.866976085141395" lon="10.511113481663932"><ele>23.0</ele><time>2026-04-04T09:00:24Z</time></trkpt><trkpt lat="43.86709206050952" lon="10.511203720943406"><ele>23.25</ele><time>2026-04-04T09:00:25Z</time></trkpt><trkpt lat="43.867209149341775" lon="10.511296290409812"><ele>23.5</ele><time>2026-04-04T09:00:26Z</time></trkpt><trkpt lat="43.867318112961804" lon="10.511392678688832"><ele>23.75</ele><time>2026-04-04T09:00:27Z</time></trkpt><trkpt lat="43.86742079573625" lon="10.511488014180085"><ele>24.0</ele><time>2026-04-04T09:00:28Z</time></trkpt><trkpt lat="43.86752292488319" lon="10.511582366108568"><ele>23.75</ele><time>2026-04-04T09:00:29Z</time></trkpt><trkpt lat="43.8676280217138" lon="10.511681168815318"><ele>23.5</ele><time>2026-04-04T09:00:30Z</time></trkpt><trkpt lat="43.86772940881796" lon="10.511775048865715"><ele>23.25</ele><time>2026-04-04T09:00:31Z</time></trkpt><trkpt lat="43.867820336360616" lon="10.511863860484652"><ele>23.0</ele><time>2026-04-04T09:00:32Z</time></trkpt><trkpt lat="43.86790268852273" lon="10.511949202414236"><ele>23.0</ele><time>2026-04-04T09:00:33Z</time></trkpt><trkpt lat="43.867989347544984" lon="10.512036728880087"><ele>23.0</ele><time>2026-04-04T09:00:34Z</time></trkpt><trkpt lat="43.868080577105914" lon="10.512121239145076"><ele>23.0</ele><time>2026-04-04T09:00:35Z</time></trkpt><trkpt lat="43.868173020390955" lon="10.512212862462722"><ele>23.0</ele><time>2026-04-04T09:00:36Z</time></trkpt><trkpt lat="43.868272609966695" lon="10.512316873243748"><ele>23.0</ele><time>2026-04-04T09:00:37Z</time></trkpt><trkpt lat="43.8683724320922" lon="10.512431288378705"><ele>23.0</ele><time>2026-04-04T09:00:38Z</time></trkpt><trkpt lat="43.86847211161588" lon="10.512559524741281"><ele>23.0</ele><time>2026-04-04T09:00:39Z</time></trkpt><trkpt lat="43.86856731264781" lon="10.512704329628836"><ele>23.0</ele><time>2026-04-04T09:00:40Z</time></trkpt><trkpt lat="43.86866448312928" lon="10.51285902276434"><ele>23.0</ele><time>2026-04-04T09:00:41Z</time></trkpt><trkpt lat="43.86876019183057" lon="10.513019461176759"><ele>23.0</ele><time>2026-04-04T09:00:42Z</time></trkpt><trkpt lat="43.86885701139645" lon="10.513180236862473"><ele>23.0</ele><time>2026-04-04T09:00:43Z</time></trkpt><trkpt lat="43.86895468361883" lon="10.513342766353757"><ele>23.0</ele><time>2026-04-04T09:00:44Z</time></trkpt><trkpt lat="43.86904770948938" lon="10.513495916306946"><ele>23.0</ele><time>2026-04-04T09:00:45Z</time></trkpt><trkpt lat="43.869138672366375" lon="10.513651113086842"><ele>23.0</ele><time>2026-04-04T09:00:46Z</time></trkpt><trkpt lat="43.86922558294995" lon="10.51380217586133"><ele>23.0</ele><time>2026-04-04T09:00:47Z</time></trkpt><trkpt lat="43.869307100450094" lon="10.513956411302944"><ele>23.0</ele><time>2026-04-04T09:00:48Z</time></trkpt><trkpt lat="43.86938494351928" lon="10.514111341445608"><ele>23.0</ele><time>2026-04-04T09:00:49Z</time></trkpt><trkpt lat="43.869457764048796" lon="10.514272108227175"><ele>23.0</ele><time>2026-04-04T09:00:50Z</time></trkpt><trkpt lat="43.86952123140341" lon="10.514442232528026"><ele>23.0</ele><time>2026-04-04T09:00:51Z</time></trkpt><trkpt lat="43.86957721558453" lon="10.514627955137346"><ele>23.0</ele><time>2026-04-04T09:00:52Z</time></trkpt><trkpt lat="43.869623971504545" lon="10.514822357110875"><ele>23.0</ele><time>2026-04-04T09:00:53Z</time></trkpt><trkpt lat="43.869663777163154" lon="10.515025853124131"><ele>23.0</ele><time>2026-04-04T09:00:54Z</time></trkpt><trkpt lat="43.86969937386066" lon="10.515230744460458"><ele>23.333333333333336</ele><time>2026-04-04T09:00:55Z</time></trkpt><trkpt lat="43.869733038491304" lon="10.51544207299613"><ele>23.666666666666668</ele><time>2026-04-04T09:00:56Z</time></trkpt><trkpt lat="43.86976732598373" lon="10.515649387338708"><ele>24.0</ele><time>2026-04-04T09:00:57Z</time></trkpt><trkpt lat="43.86980300673726" lon="10.5158437062066"><ele>24.0</ele><time>2026-04-04T09:00:58Z</time></trkpt><trkpt lat="43.869839857713984" lon="10.516025327622614"><ele>24.0</ele><time>2026-04-04T09:00:59Z</time></trkpt><trkpt lat="43.86987437805575" lon="10.516202441241138"><ele>24.0</ele><time>2026-04-04T09:01:00Z</time></trkpt><trkpt lat="43.869910416090036" lon="10.516381054270738"><ele>24.0</ele><time>2026-04-04T09:01:01Z</time></trkpt><trkpt lat="43.86994937210818" lon="10.51655623741843"><ele>24.0</ele><time>2026-04-04T09:01:02Z</time></trkpt><trkpt lat="43.869994223906545" lon="10.516734704431373"><ele>24.0</ele><time>2026-04-04T09:01:03Z</time></trkpt><trkpt lat="43.87003641181926" lon="10.516921407406917"><ele>24.0</ele><time>2026-04-04T09:01:04Z</time></trkpt><trkpt lat="43.87008344299683" lon="10.517111782768609"><ele>24.0</ele><time>2026-04-04T09:01:05Z</time></trkpt><trkpt lat="43.870131807893586" lon="10.517301020650585"><ele>24.5</ele><time>2026-04-04T09:01:06Z</time></trkpt><trkpt lat="43.87017956911146" lon="10.51748060779698"><ele>25.0</ele><time>2026-04-04T09:01:07Z</time></trkpt><trkpt lat="43.87022468337166" lon="10.517648687843225"><ele>25.5</ele><time>2026-04-04T09:01:08Z</time></trkpt><trkpt lat="43.870271020127" lon="10.51781254137423"><ele>26.0</ele><time>2026-04-04T09:01:09Z</time></trkpt><trkpt lat="43.87031648383994" lon="10.517968415107394"><ele>26.25</ele><time>2026-04-04T09:01:10Z</time></trkpt><trkpt lat="43.870370607323565" lon="10.518123436280952"><ele>26.5</ele><time>2026-04-04T09:01:11Z</time></trkpt><trkpt lat="43.87043647423207" lon="10.518281797536615"><ele>26.75</ele><time>2026-04-04T09:01:12Z</time></trkpt><trkpt lat="43.87050987485673" lon="10.51844389167575"><ele>27.0</ele><time>2026-04-04T09:01:13Z</time></trkpt><trkpt lat="43.87058909880669" lon="10.518605172279226"><ele>27.25</ele><time>2026-04-04T09:01:14Z</time></trkpt><trkpt lat="43.870656599867395" lon="10.518766904321694"><ele>27.5</ele><time>2026-04-04T09:01:15Z</time></trkpt><trkpt lat="43.87071229793556" lon="10.518926686177219"><ele>27.75</ele><time>2026-04-04T09:01:16Z</time></trkpt><trkpt lat="43.87076540843348" lon="10.519090142854619"><ele>28.0</ele><time>2026-04-04T09:01:17Z</time></trkpt><trkpt lat="43.870819200237406" lon="10.519254678081197"><ele>28.0</ele><time>2026-04-04T09:01:18Z</time></trkpt><trkpt lat="43.87087135358093" lon="10.519425587680765"><ele>28.0</ele><time>2026-04-04T09:01:19Z</time></trkpt><trkpt lat="43.87092603191074" lon="10.519587431850622"><ele>28.0</ele><time>2026-04-04T09:01:20Z</time></trkpt><trkpt lat="43.8709681517062" lon="10.519740462885279"><ele>28.0</ele><time>2026-04-04T09:01:21Z</time></trkpt><trkpt lat="43.871019394102376" lon="10.519886862482938"><ele>31.0</ele><time>2026-04-04T09:01:22Z</time></trkpt><trkpt lat="43.87108480004842" lon="10.520024007111301"><ele>34.0</ele><time>2026-04-04T09:01:23Z</time></trkpt><trkpt lat="43.87116575645711" lon="10.520147884722766"><ele>37.0</ele><time>2026-04-04T09:01:24Z</time></trkpt><trkpt lat="43.871265319676276" lon="10.52025661174977"><ele>40.0</ele><time>2026-04-04T09:01:25Z</time></trkpt><trkpt lat="43.87137681012536" lon="10.520362168501546"><ele>37.25</ele><time>2026-04-04T09:01:26Z</time></trkpt><trkpt lat="43.871498617607585" lon="10.520453506589869"><ele>34.5</ele><time>2026-04-04T09:01:27Z</time></trkpt><trkpt lat="43.87162447896715" lon="10.520529614091332"><ele>31.75</ele><time>2026-04-04T09:01:28Z</time></trkpt><trkpt lat="43.871744377212345" lon="10.520577976770173"><ele>29.0</ele><time>2026-04-04T09:01:29Z</time></trkpt><trkpt lat="43.87187021311425" lon="10.52060043038611"><ele>29.0</ele><time>2026-04-04T09:01:30Z</time></trkpt><trkpt lat="43.87200805944746" lon="10.520575585974177"><ele>29.0</ele><time>2026-04-04T09:01:31Z</time></trkpt><trkpt lat="43.87214889870758" lon="10.520534519998689"><ele>29.0</ele><time>2026-04-04T09:01:32Z</time></trkpt><trkpt lat="43.87229659832126" lon="10.520482577151766"><ele>29.0</ele><time>2026-04-04T09:01:33Z</time></trkpt><trkpt lat="43.87244661094831" lon="10.520438531673936"><ele>31.666666666666664</ele><time>2026-04-04T09:01:34Z</time></trkpt><trkpt lat="43.872599545107654" lon="10.520393388663166"><ele>34.333333333333336</ele><time>2026-04-04T09:01:35Z</time></trkpt><trkpt lat="43.87275922764463" lon="10.520356488947417"><ele>37.0</ele><time>2026-04-04T09:01:36Z</time></trkpt><trkpt lat="43.87292942665417" lon="10.520348190763029"><ele>37.333333333333336</ele><time>2026-04-04T09:01:37Z</time></trkpt><trkpt lat="43.873096043162555" lon="10.520384411603098"><ele>37.666666666666664</ele><time>2026-04-04T09:01:38Z</time></trkpt><trkpt lat="43.873260045321395" lon="10.520455771475632"><ele>38.0</ele><time>2026-04-04T09:01:39Z</time></trkpt><trkpt lat="43.87340546230332" lon="10.520540374089874"><ele>36.0</ele><time>2026-04-04T09:01:40Z</time></trkpt><trkpt lat="43.87353814729663" lon="10.520597075178609"><ele>34.0</ele><time>2026-04-04T09:01:41Z</time></trkpt><trkpt lat="43.873675214386644" lon="10.520651709017306"><ele>32.0</ele><time>2026-04-04T09:01:42Z</time></trkpt><trkpt lat="43.873812463188706" lon="10.520706290190736"><ele>30.0</ele><time>2026-04-04T09:01:43Z</time></trkpt><trkpt lat="43.87394470554505" lon="10.520756764012468"><ele>30.0</ele><time>2026-04-04T09:01:44Z</time></trkpt><trkpt lat="43.874074316825954" lon="10.52080586840265"><ele>30.0</ele><time>2026-04-04T09:01:45Z</time></trkpt><trkpt lat="43.874201590957625" lon="10.520853215042623"><ele>30.0</ele><time>2026-04-04T09:01:46Z</time></trkpt><trkpt lat="43.87432740066001" lon="10.520894440988926"><ele>30.0</ele><time>2026-04-04T09:01:47Z</time></trkpt><trkpt lat="43.87449242063621" lon="10.520971857143934"><ele>30.0</ele><time>2026-04-04T09:01:48Z</time></trkpt><trkpt lat="43.87463344042916" lon="10.521024615501242"><ele>30.0</ele><time>2026-04-04T09:01:49Z</time></trkpt><trkpt lat="43.87477491615115" lon="10.52107914868086"><ele>30.0</ele><time>2026-04-04T09:01:50Z</time></trkpt><trkpt lat="43.87491356868387" lon="10.521133680549458"><ele>30.0</ele><time>2026-04-04T09:01:51Z</time></trkpt><trkpt lat="43.8750561727494" lon="10.521189201215964"><ele>30.5</ele><time>2026-04-04T09:01:52Z</time></trkpt><trkpt lat="43.87520081447644" lon="10.521249546098193"><ele>31.0</ele><time>2026-04-04T09:01:53Z</time></trkpt><trkpt lat="43.87534172524057" lon="10.521307399955736"><ele>31.5</ele><time>2026-04-04T09:01:54Z</time></trkpt><trkpt lat="43.87547659289709" lon="10.521369899524887"><ele>32.0</ele><time>2026-04-04T09:01:55Z</time></trkpt><trkpt lat="43.8756065176565" lon="10.521444320275672"><ele>32.0</ele><time>2026-04-04T09:01:56Z</time></trkpt><trkpt lat="43.875733335648555" lon="10.521536298568249"><ele>32.0</ele><time>2026-04-04T09:01:57Z</time></trkpt><trkpt lat="43.875862730290315" lon="10.521642558931942"><ele>32.0</ele><time>2026-04-04T09:01:58Z</time></trkpt><trkpt lat="43.87599228734816" lon="10.521742374733687"><ele>32.0</ele><time>2026-04-04T09:01:59Z</time></trkpt><trkpt lat="43.876119091324625" lon="10.521836962229688"><ele>31.0</ele><time>2026-04-04T09:02:00Z</time></trkpt><trkpt lat="43.87624572771815" lon="10.5219290793703"><ele>30.0</ele><time>2026-04-04T09:02:01Z</time></trkpt><trkpt lat="43.8763755980101" lon="10.522009138926936"><ele>29.0</ele><time>2026-04-04T09:02:02Z</time></trkpt><trkpt lat="43.87650402509776" lon="10.522069020933104"><ele>28.0</ele><time>2026-04-04T09:02:03Z</time></trkpt><trkpt lat="43.876631700992" lon="10.522120569396767"><ele>28.0</ele><time>2026-04-04T09:02:04Z</time></trkpt><trkpt lat="43.87676814450163" lon="10.522159132881018"><ele>28.0</ele><time>2026-04-04T09:02:05Z</time></trkpt><trkpt lat="43.87690864802275" lon="10.522179003257905"><ele>28.0</ele><time>2026-04-04T09:02:06Z</time></trkpt><trkpt lat="43.877044705042564" lon="10.52218496861815"><ele>28.0</ele><time>2026-04-04T09:02:07Z</time></trkpt><trkpt lat="43.877182091456696" lon="10.522181811745593"><ele>28.0</ele><time>2026-04-04T09:02:08Z</time></trkpt><trkpt lat="43.87732224118274" lon="10.522168991803456"><ele>28.0</ele><time>2026-04-04T09:02:09Z</time></trkpt><trkpt lat="43.877460321984394" lon="10.522123400794575"><ele>28.0</ele><time>2026-04-04T09:02:10Z</time></trkpt><trkpt lat="43.87758085546026" lon="10.522005492884299"><ele>28.0</ele><time>2026-04-04T09:02:11Z</time></trkpt><trkpt lat="43.87769544968858" lon="10.521907195114625"><ele>28.0</ele><time>2026-04-04T09:02:12Z</time></trkpt><trkpt lat="43.87780301416331" lon="10.521790895548705"><ele>28.0</ele><time>2026-04-04T09:02:13Z</time></trkpt><trkpt lat="43.87790199433699" lon="10.521668193389658"><ele>28.0</ele><time>2026-04-04T09:02:14Z</time></trkpt><trkpt lat="43.87799523352891" lon="10.521547839468088"><ele>28.0</ele><time>2026-04-04T09:02:15Z</time></trkpt><trkpt lat="43.87808909651487" lon="10.521434668745563"><ele>28.0</ele><time>2026-04-04T09:02:16Z</time></trkpt><trkpt lat="43.8781887531691" lon="10.521328034100875"><ele>28.0</ele><time>2026-04-04T09:02:17Z</time></trkpt><trkpt lat="43.87830142651858" lon="10.521239904116152"><ele>28.0</ele><time>2026-04-04T09:02:18Z</time></trkpt><trkpt lat="43.878422852306535" lon="10.52117198254169"><ele>28.0</ele><time>2026-04-04T09:02:19Z</time></trkpt><trkpt lat="43.87855743828784" lon="10.521131765089475"><ele>28.25</ele><time>2026-04-04T09:02:20Z</time></trkpt><trkpt lat="43.87869662795747" lon="10.521090225248551"><ele>28.5</ele><time>2026-04-04T09:02:21Z</time></trkpt><trkpt lat="43.87883710447883" lon="10.521051507752313"><ele>28.75</ele><time>2026-04-04T09:02:22Z</time></trkpt><trkpt lat="43.87897635673308" lon="10.521013228662117"><ele>29.0</ele><time>2026-04-04T09:02:23Z</time></trkpt><trkpt lat="43.87910958202658" lon="10.520985642508647"><ele>29.0</ele><time>2026-04-04T09:02:24Z</time></trkpt><trkpt lat="43.879240692350415" lon="10.52096655699644"><ele>29.0</ele><time>2026-04-04T09:02:25Z</time></trkpt><trkpt lat="43.87937185132754" lon="10.52097295936603"><ele>29.0</ele><time>2026-04-04T09:02:26Z</time></trkpt><trkpt lat="43.87950410131558" lon="10.520983891261888"><ele>29.0</ele><time>2026-04-04T09:02:27Z</time></trkpt><trkpt lat="43.87963946355363" lon="10.520983742009552"><ele>29.25</ele><time>2026-04-04T09:02:28Z</time></trkpt><trkpt lat="43.879773463212594" lon="10.52098805695272"><ele>29.5</ele><time>2026-04-04T09:02:29Z</time></trkpt><trkpt lat="43.879906525619006" lon="10.520989770170623"><ele>29.75</ele><time>2026-04-04T09:02:30Z</time></trkpt><trkpt lat="43.88004096428594" lon="10.52099022928134"><ele>30.0</ele><time>2026-04-04T09:02:31Z</time></trkpt><trkpt lat="43.88017437251044" lon="10.520986463348597"><ele>30.0</ele><time>2026-04-04T09:02:32Z</time></trkpt><trkpt lat="43.880304788787285" lon="10.520982855778433"><ele>30.0</ele><time>2026-04-04T09:02:33Z</time></trkpt><trkpt lat="43.88044990374885" lon="10.521006246279917"><ele>30.0</ele><time>2026-04-04T09:02:34Z</time></trkpt><trkpt lat="43.88058430346537" lon="10.521028849599048"><ele>30.0</ele><time>2026-04-04T09:02:35Z</time></trkpt><trkpt lat="43.880713493805615" lon="10.52106222011453"><ele>30.0</ele><time>2026-04-04T09:02:36Z</time></trkpt><trkpt lat="43.88083823918079" lon="10.521113803934114"><ele>30.0</ele><time>2026-04-04T09:02:37Z</time></trkpt><trkpt lat="43.88096137640386" lon="10.521171964877539"><ele>30.0</ele><time>2026-04-04T09:02:38Z</time></trkpt><trkpt lat="43.88108137927331" lon="10.521227086377824"><ele>30.0</ele><time>2026-04-04T09:02:39Z</time></trkpt><trkpt lat="43.881205913829014" lon="10.521279800078108"><ele>29.25</ele><time>2026-04-04T09:02:40Z</time></trkpt><trkpt lat="43.88132846201995" lon="10.521329681344252"><ele>28.5</ele><time>2026-04-04T09:02:41Z</time></trkpt><trkpt lat="43.88145444944508" lon="10.521362816440321"><ele>27.75</ele><time>2026-04-04T09:02:42Z</time></trkpt><trkpt lat="43.88158267987424" lon="10.521381302932497"><ele>27.0</ele><time>2026-04-04T09:02:43Z</time></trkpt><trkpt lat="43.88171476438688" lon="10.521377346779989"><ele>27.0</ele><time>2026-04-04T09:02:44Z</time></trkpt><trkpt lat="43.8818480056065" lon="10.521353404690524"><ele>27.0</ele><time>2026-04-04T09:02:45Z</time></trkpt><trkpt lat="43.881972660957416" lon="10.521316729890108"><ele>27.0</ele><time>2026-04-04T09:02:46Z</time></trkpt><trkpt lat="43.88208352292023" lon="10.521260084802003"><ele>27.0</ele><time>2026-04-04T09:02:47Z</time></trkpt><trkpt lat="43.88218193591549" lon="10.521214865877333"><ele>27.0</ele><time>2026-04-04T09:02:48Z</time></trkpt><trkpt lat="43.88226148315909" lon="10.521169827284519"><ele>27.000000000000004</ele><time>2026-04-04T09:02:49Z</time></trkpt><trkpt lat="43.88232468992138" lon="10.521136063949287"><ele>27.000000000000004</ele><time>2026-04-04T09:02:50Z</time></trkpt><trkpt lat="43.88240752003244" lon="10.521098725407919"><ele>27.0</ele><time>2026-04-04T09:02:52Z</time></trkpt><trkpt lat="43.88248686560954" lon="10.52120932747492"><ele>27.0</ele><time>2026-04-04T09:02:56Z</time></trkpt><trkpt lat="43.88248865789959" lon="10.52135087685866"><ele>27.0</ele><time>2026-04-04T09:02:58Z</time></trkpt><trkpt lat="43.882477549255654" lon="10.5214496048083"><ele>27.0</ele><time>2026-04-04T09:03:00Z</time></trkpt><trkpt lat="43.8824874767964" lon="10.521554066605063"><ele>27.0</ele><time>2026-04-04T09:03:02Z</time></trkpt><trkpt lat="43.882497379961265" lon="10.521642205136379"><ele>27.0</ele><time>2026-04-04T09:03:04Z</time></trkpt><trkpt lat="43.88251772624706" lon="10.521755431364852"><ele>27.0</ele><time>2026-04-04T09:03:07Z</time></trkpt><trkpt lat="43.882541995295995" lon="10.521863974161008"><ele>27.0</ele><time>2026-04-04T09:03:09Z</time></trkpt><trkpt lat="43.88256263317983" lon="10.521968921321678"><ele>27.0</ele><time>2026-04-04T09:03:10Z</time></trkpt><trkpt lat="43.882582012304944" lon="10.522090300891923"><ele>27.000000000000004</ele><time>2026-04-04T09:03:11Z</time></trkpt><trkpt lat="43.88260277091201" lon="10.522232908310444"><ele>27.000000000000004</ele><time>2026-04-04T09:03:12Z</time></trkpt><trkpt lat="43.88262558542632" lon="10.522378186095343"><ele>27.0</ele><time>2026-04-04T09:03:13Z</time></trkpt><trkpt lat="43.88265251466736" lon="10.52250684250063"><ele>27.0</ele><time>2026-04-04T09:03:14Z</time></trkpt><trkpt lat="43.88267347128085" lon="10.522639832729627"><ele>27.0</ele><time>2026-04-04T09:03:15Z</time></trkpt><trkpt lat="43.882695483533446" lon="10.522775495421223"><ele>27.000000000000004</ele><time>2026-04-04T09:03:16Z</time></trkpt><trkpt lat="43.882717059294784" lon="10.522907750819847"><ele>27.000000000000004</ele><time>2026-04-04T09:03:17Z</time></trkpt><trkpt lat="43.88274542015262" lon="10.523048540008755"><ele>27.0</ele><time>2026-04-04T09:03:18Z</time></trkpt><trkpt lat="43.88277059390165" lon="10.523186968992201"><ele>27.0</ele><time>2026-04-04T09:03:19Z</time></trkpt><trkpt lat="43.88279362946306" lon="10.523328543417485"><ele>26.8</ele><time>2026-04-04T09:03:20Z</time></trkpt><trkpt lat="43.882811899187644" lon="10.523462670708792"><ele>26.6</ele><time>2026-04-04T09:03:21Z</time></trkpt><trkpt lat="43.882829946029425" lon="10.523599537208002"><ele>26.400000000000002</ele><time>2026-04-04T09:03:22Z</time></trkpt><trkpt lat="43.88284808327992" lon="10.52373874960469"><ele>26.200000000000003</ele><time>2026-04-04T09:03:23Z</time></trkpt><trkpt lat="43.88286892205803" lon="10.52386799018029"><ele>26.0</ele><time>2026-04-04T09:03:24Z</time></trkpt><trkpt lat="43.88289494172565" lon="10.523998918611806"><ele>26.0</ele><time>2026-04-04T09:03:25Z</time></trkpt><trkpt lat="43.88291679599101" lon="10.524136177102047"><ele>26.0</ele><time>2026-04-04T09:03:26Z</time></trkpt><trkpt lat="43.88294099722937" lon="10.524256410361877"><ele>26.0</ele><time>2026-04-04T09:03:27Z</time></trkpt><trkpt lat="43.88296302346299" lon="10.524383423373065"><ele>26.0</ele><time>2026-04-04T09:03:28Z</time></trkpt><trkpt lat="43.88298362183714" lon="10.524497213378403"><ele>26.0</ele><time>2026-04-04T09:03:29Z</time></trkpt><trkpt lat="43.88300937585014" lon="10.52462744404198"><ele>26.166666666666664</ele><time>2026-04-04T09:03:30Z</time></trkpt><trkpt lat="43.88303398328315" lon="10.524754493700662"><ele>26.333333333333332</ele><time>2026-04-04T09:03:31Z</time></trkpt><trkpt lat="43.88305706609104" lon="10.524882975819933"><ele>26.5</ele><time>2026-04-04T09:03:32Z</time></trkpt><trkpt lat="43.88307918543438" lon="10.524991684390674"><ele>26.666666666666664</ele><time>2026-04-04T09:03:33Z</time></trkpt><trkpt lat="43.88310306736113" lon="10.525095372137537"><ele>26.833333333333332</ele><time>2026-04-04T09:03:34Z</time></trkpt><trkpt lat="43.88312172362543" lon="10.525195322496126"><ele>27.0</ele><time>2026-04-04T09:03:35Z</time></trkpt><trkpt lat="43.88313986602289" lon="10.525298821980822"><ele>27.0</ele><time>2026-04-04T09:03:36Z</time></trkpt><trkpt lat="43.883155651565204" lon="10.52540441285977"><ele>27.0</ele><time>2026-04-04T09:03:37Z</time></trkpt><trkpt lat="43.883175440244166" lon="10.525509812045183"><ele>27.0</ele><time>2026-04-04T09:03:38Z</time></trkpt><trkpt lat="43.88319235299501" lon="10.525604742333593"><ele>27.0</ele><time>2026-04-04T09:03:39Z</time></trkpt><trkpt lat="43.883206644864195" lon="10.5256966525838"><ele>27.0</ele><time>2026-04-04T09:03:40Z</time></trkpt><trkpt lat="43.88322185819918" lon="10.525789031358428"><ele>27.0</ele><time>2026-04-04T09:03:41Z</time></trkpt><trkpt lat="43.88323931279764" lon="10.525881999307297"><ele>27.0</ele><time>2026-04-04T09:03:42Z</time></trkpt><trkpt lat="43.883257406191134" lon="10.525979195840451"><ele>27.0</ele><time>2026-04-04T09:03:43Z</time></trkpt><trkpt lat="43.88327196669533" lon="10.526065598990225"><ele>27.0</ele><time>2026-04-04T09:03:44Z</time></trkpt><trkpt lat="43.88329977293075" lon="10.526183935110007"><ele>27.0</ele><time>2026-04-04T09:03:46Z</time></trkpt><trkpt lat="43.88330117950417" lon="10.526273477133161"><ele>27.0</ele><time>2026-04-04T09:03:49Z</time></trkpt><trkpt lat="43.88329459729449" lon="10.526094097106027"><ele>27.0</ele><time>2026-04-04T09:04:32Z</time></trkpt><trkpt lat="43.88326666422176" lon="10.525966158604161"><ele>27.0</ele><time>2026-04-04T09:04:33Z</time></trkpt><trkpt lat="43.88324160322598" lon="10.525856209529778"><ele>27.0</ele><time>2026-04-04T09:04:34Z</time></trkpt><trkpt lat="43.88322705255496" lon="10.525770941840568"><ele>27.0</ele><time>2026-04-04T09:04:35Z</time></trkpt><trkpt lat="43.883209432787375" lon="10.525671856250757"><ele>27.0</ele><time>2026-04-04T09:04:37Z</time></trkpt><trkpt lat="43.883190850080105" lon="10.525567098970471"><ele>27.0</ele><time>2026-04-04T09:04:40Z</time></trkpt><trkpt lat="43.883178441607654" lon="10.525434436957456"><ele>27.0</ele><time>2026-04-04T09:04:42Z</time></trkpt><trkpt lat="43.88316264616449" lon="10.525345954366301"><ele>27.0</ele><time>2026-04-04T09:04:43Z</time></trkpt><trkpt lat="43.88314334778768" lon="10.525257395883308"><ele>27.0</ele><time>2026-04-04T09:04:44Z</time></trkpt><trkpt lat="43.88311030962775" lon="10.525101684813094"><ele>27.0</ele><time>2026-04-04T09:04:46Z</time></trkpt><trkpt lat="43.88308859057341" lon="10.524922232973175"><ele>27.0</ele><time>2026-04-04T09:04:48Z</time></trkpt><trkpt lat="43.883067683792476" lon="10.524821063991388"><ele>27.0</ele><time>2026-04-04T09:04:49Z</time></trkpt><trkpt lat="43.883044562561075" lon="10.524726404729224"><ele>27.0</ele><time>2026-04-04T09:04:50Z</time></trkpt><trkpt lat="43.883022391536414" lon="10.524630693571305"><ele>27.0</ele><time>2026-04-04T09:04:51Z</time></trkpt><trkpt lat="43.88300692406744" lon="10.52453968249548"><ele>27.0</ele><time>2026-04-04T09:04:52Z</time></trkpt><trkpt lat="43.882988958315956" lon="10.524446165427575"><ele>26.833333333333332</ele><time>2026-04-04T09:04:53Z</time></trkpt><trkpt lat="43.88297143381341" lon="10.524345419066938"><ele>26.666666666666664</ele><time>2026-04-04T09:04:54Z</time></trkpt><trkpt lat="43.88295185566219" lon="10.524238758517049"><ele>26.5</ele><time>2026-04-04T09:04:55Z</time></trkpt><trkpt lat="43.88293021644006" lon="10.524127469182247"><ele>26.333333333333332</ele><time>2026-04-04T09:04:56Z</time></trkpt><trkpt lat="43.88291201571169" lon="10.52400183767439"><ele>26.166666666666664</ele><time>2026-04-04T09:04:57Z</time></trkpt><trkpt lat="43.88289020111032" lon="10.523870762160133"><ele>26.0</ele><time>2026-04-04T09:04:58Z</time></trkpt><trkpt lat="43.882865886534375" lon="10.523747080226668"><ele>26.0</ele><time>2026-04-04T09:04:59Z</time></trkpt><trkpt lat="43.88284053800318" lon="10.523619778973734"><ele>26.0</ele><time>2026-04-04T09:05:00Z</time></trkpt><trkpt lat="43.882824201521856" lon="10.523495404024006"><ele>26.0</ele><time>2026-04-04T09:05:01Z</time></trkpt><trkpt lat="43.88280536914983" lon="10.523364392860895"><ele>26.0</ele><time>2026-04-04T09:05:02Z</time></trkpt><trkpt lat="43.88279071543693" lon="10.52323860420168"><ele>26.0</ele><time>2026-04-04T09:05:03Z</time></trkpt><trkpt lat="43.88276669081994" lon="10.52309937219076"><ele>26.0</ele><time>2026-04-04T09:05:04Z</time></trkpt><trkpt lat="43.8827327876936" lon="10.52291973674884"><ele>26.0</ele><time>2026-04-04T09:05:05Z</time></trkpt><trkpt lat="43.88270405150728" lon="10.522762627893695"><ele>26.0</ele><time>2026-04-04T09:05:06Z</time></trkpt><trkpt lat="43.88268118450273" lon="10.52263603866071"><ele>26.0</ele><time>2026-04-04T09:05:07Z</time></trkpt><trkpt lat="43.882657591836505" lon="10.522505671352032"><ele>26.0</ele><time>2026-04-04T09:05:08Z</time></trkpt><trkpt lat="43.88263468387524" lon="10.522370654272631"><ele>26.200000000000003</ele><time>2026-04-04T09:05:09Z</time></trkpt><trkpt lat="43.8826131745039" lon="10.522233777856911"><ele>26.400000000000002</ele><time>2026-04-04T09:05:10Z</time></trkpt><trkpt lat="43.88259015006335" lon="10.522101882516177"><ele>26.6</ele><time>2026-04-04T09:05:11Z</time></trkpt><trkpt lat="43.88256770750856" lon="10.5219699439781"><ele>26.8</ele><time>2026-04-04T09:05:12Z</time></trkpt><trkpt lat="43.88254405158264" lon="10.521838984215721"><ele>27.0</ele><time>2026-04-04T09:05:13Z</time></trkpt><trkpt lat="43.88251967379972" lon="10.521706459858173"><ele>27.0</ele><time>2026-04-04T09:05:14Z</time></trkpt><trkpt lat="43.8824981491093" lon="10.521590390444"><ele>27.0</ele><time>2026-04-04T09:05:15Z</time></trkpt><trkpt lat="43.88248392657313" lon="10.521493970907342"><ele>27.0</ele><time>2026-04-04T09:05:16Z</time></trkpt><trkpt lat="43.88248143453484" lon="10.52135961525595"><ele>27.0</ele><time>2026-04-04T09:05:18Z</time></trkpt><trkpt lat="43.88248431117258" lon="10.521271185379636"><ele>27.0</ele><time>2026-04-04T09:05:20Z</time></trkpt><trkpt lat="43.882450364806076" lon="10.521158958170293"><ele>27.0</ele><time>2026-04-04T09:09:09Z</time></trkpt><trkpt lat="43.882450359606764" lon="10.521051260310713"><ele>27.0</ele><time>2026-04-04T09:09:12Z</time></trkpt><trkpt lat="43.88255925034053" lon="10.520992727719642"><ele>27.0</ele><time>2026-04-04T09:09:14Z</time></trkpt><trkpt lat="43.88264751000817" lon="10.520955466753616"><ele>27.0</ele><time>2026-04-04T09:09:15Z</time></trkpt><trkpt lat="43.88275162233575" lon="10.520895799191585"><ele>27.0</ele><time>2026-04-04T09:09:16Z</time></trkpt><trkpt lat="43.88286903476258" lon="10.520822791869914"><ele>27.0</ele><time>2026-04-04T09:09:17Z</time></trkpt><trkpt lat="43.882991873885246" lon="10.520726793428736"><ele>27.0</ele><time>2026-04-04T09:09:18Z</time></trkpt><trkpt lat="43.88311973143067" lon="10.520621302118244"><ele>27.0</ele><time>2026-04-04T09:09:19Z</time></trkpt><trkpt lat="43.883249251288554" lon="10.520510367565619"><ele>27.0</ele><time>2026-04-04T09:09:20Z</time></trkpt><trkpt lat="43.88337839879637" lon="10.52040204041126"><ele>27.333333333333336</ele><time>2026-04-04T09:09:21Z</time></trkpt><trkpt lat="43.883504688269774" lon="10.520294000788804"><ele>27.666666666666668</ele><time>2026-04-04T09:09:22Z</time></trkpt><trkpt lat="43.883636704720985" lon="10.520185352882311"><ele>28.0</ele><time>2026-04-04T09:09:23Z</time></trkpt><trkpt lat="43.88377287122846" lon="10.520072514442713"><ele>28.0</ele><time>2026-04-04T09:09:24Z</time></trkpt><trkpt lat="43.88391466841578" lon="10.519957335738042"><ele>28.0</ele><time>2026-04-04T09:09:25Z</time></trkpt><trkpt lat="43.88405596863307" lon="10.519847340647484"><ele>28.0</ele><time>2026-04-04T09:09:26Z</time></trkpt><trkpt lat="43.8841915909757" lon="10.519745866349874"><ele>28.0</ele><time>2026-04-04T09:09:27Z</time></trkpt><trkpt lat="43.8843301644942" lon="10.519666610844718"><ele>28.0</ele><time>2026-04-04T09:09:28Z</time></trkpt><trkpt lat="43.88446683043955" lon="10.519616247849646"><ele>28.0</ele><time>2026-04-04T09:09:29Z</time></trkpt><trkpt lat="43.884603086071614" lon="10.519577425519458"><ele>28.0</ele><time>2026-04-04T09:09:30Z</time></trkpt><trkpt lat="43.884738729117934" lon="10.519542604182927"><ele>28.0</ele><time>2026-04-04T09:09:31Z</time></trkpt><trkpt lat="43.884873467810564" lon="10.519509403178693"><ele>28.0</ele><time>2026-04-04T09:09:32Z</time></trkpt><trkpt lat="43.885007245230916" lon="10.519470764378735"><ele>28.0</ele><time>2026-04-04T09:09:33Z</time></trkpt><trkpt lat="43.88514076699624" lon="10.519424213336613"><ele>28.0</ele><time>2026-04-04T09:09:34Z</time></trkpt><trkpt lat="43.88526879660182" lon="10.519384872492397"><ele>28.0</ele><time>2026-04-04T09:09:35Z</time></trkpt><trkpt lat="43.88539298292849" lon="10.519353911369675"><ele>28.0</ele><time>2026-04-04T09:09:36Z</time></trkpt><trkpt lat="43.885512218424616" lon="10.519341692682875"><ele>28.0</ele><time>2026-04-04T09:09:37Z</time></trkpt><trkpt lat="43.88563227099908" lon="10.519341985182242"><ele>28.0</ele><time>2026-04-04T09:09:38Z</time></trkpt><trkpt lat="43.885746322828204" lon="10.519357877948732"><ele>28.0</ele><time>2026-04-04T09:09:39Z</time></trkpt><trkpt lat="43.885855729039946" lon="10.519387236484663"><ele>28.0</ele><time>2026-04-04T09:09:40Z</time></trkpt><trkpt lat="43.88597357036086" lon="10.519426274966332"><ele>28.0</ele><time>2026-04-04T09:09:41Z</time></trkpt><trkpt lat="43.88608734343702" lon="10.519484469555481"><ele>28.0</ele><time>2026-04-04T09:09:42Z</time></trkpt><trkpt lat="43.88619557270004" lon="10.519576529391022"><ele>28.5</ele><time>2026-04-04T09:09:43Z</time></trkpt><trkpt lat="43.88629561915962" lon="10.519680234976564"><ele>29.0</ele><time>2026-04-04T09:09:44Z</time></trkpt><trkpt lat="43.88638846742393" lon="10.51978598049629"><ele>29.5</ele><time>2026-04-04T09:09:45Z</time></trkpt><trkpt lat="43.886489390955454" lon="10.519883680547887"><ele>30.0</ele><time>2026-04-04T09:09:46Z</time></trkpt><trkpt lat="43.88660308597532" lon="10.519944047628544"><ele>30.0</ele><time>2026-04-04T09:09:47Z</time></trkpt><trkpt lat="43.88672576188045" lon="10.519980479939726"><ele>30.0</ele><time>2026-04-04T09:09:48Z</time></trkpt><trkpt lat="43.886850061629374" lon="10.520000928254987"><ele>30.0</ele><time>2026-04-04T09:09:49Z</time></trkpt><trkpt lat="43.88697375902366" lon="10.520019925081561"><ele>30.0</ele><time>2026-04-04T09:09:50Z</time></trkpt><trkpt lat="43.88709264298273" lon="10.520033989652415"><ele>29.25</ele><time>2026-04-04T09:09:51Z</time></trkpt><trkpt lat="43.88720747783591" lon="10.520046787414122"><ele>28.5</ele><time>2026-04-04T09:09:52Z</time></trkpt><trkpt lat="43.88732435556016" lon="10.520059679577763"><ele>27.75</ele><time>2026-04-04T09:09:53Z</time></trkpt><trkpt lat="43.88744751047517" lon="10.52006969620065"><ele>27.0</ele><time>2026-04-04T09:09:54Z</time></trkpt><trkpt lat="43.88757395396325" lon="10.52007561480277"><ele>27.5</ele><time>2026-04-04T09:09:55Z</time></trkpt><trkpt lat="43.88770167971431" lon="10.520079350260216"><ele>28.0</ele><time>2026-04-04T09:09:56Z</time></trkpt><trkpt lat="43.88783214630224" lon="10.520081895634187"><ele>28.5</ele><time>2026-04-04T09:09:57Z</time></trkpt><trkpt lat="43.88796280210104" lon="10.520084030564393"><ele>29.0</ele><time>2026-04-04T09:09:58Z</time></trkpt><trkpt lat="43.88809186445634" lon="10.520069478860252"><ele>29.0</ele><time>2026-04-04T09:09:59Z</time></trkpt><trkpt lat="43.88822613357691" lon="10.52003461594901"><ele>29.0</ele><time>2026-04-04T09:10:00Z</time></trkpt><trkpt lat="43.88836176155902" lon="10.519981585871513"><ele>29.0</ele><time>2026-04-04T09:10:01Z</time></trkpt><trkpt lat="43.88851012087736" lon="10.519917066340819"><ele>29.0</ele><time>2026-04-04T09:10:02Z</time></trkpt><trkpt lat="43.888659264038196" lon="10.519852603579142"><ele>29.5</ele><time>2026-04-04T09:10:03Z</time></trkpt><trkpt lat="43.888808023723975" lon="10.519790477002827"><ele>30.0</ele><time>2026-04-04T09:10:04Z</time></trkpt><trkpt lat="43.888948455857964" lon="10.519733636983759"><ele>30.5</ele><time>2026-04-04T09:10:05Z</time></trkpt><trkpt lat="43.88907969446722" lon="10.519684632876944"><ele>31.0</ele><time>2026-04-04T09:10:06Z</time></trkpt><trkpt lat="43.88920941323071" lon="10.519636421650727"><ele>30.5</ele><time>2026-04-04T09:10:07Z</time></trkpt><trkpt lat="43.889338214092454" lon="10.519581786696547"><ele>30.0</ele><time>2026-04-04T09:10:08Z</time></trkpt><trkpt lat="43.88947119514498" lon="10.519521828370404"><ele>29.5</ele><time>2026-04-04T09:10:09Z</time></trkpt><trkpt lat="43.889616831453516" lon="10.519492709470496"><ele>29.0</ele><time>2026-04-04T09:10:10Z</time></trkpt><trkpt lat="43.88977446588376" lon="10.5194943610668"><ele>29.0</ele><time>2026-04-04T09:10:11Z</time></trkpt><trkpt lat="43.88993014909205" lon="10.519514409619893"><ele>29.0</ele><time>2026-04-04T09:10:12Z</time></trkpt><trkpt lat="43.89006968780629" lon="10.519544812698335"><ele>29.0</ele><time>2026-04-04T09:10:13Z</time></trkpt><trkpt lat="43.890202807191166" lon="10.519568055071598"><ele>29.0</ele><time>2026-04-04T09:10:14Z</time></trkpt><trkpt lat="43.89034000301862" lon="10.519585401033615"><ele>29.333333333333332</ele><time>2026-04-04T09:10:15Z</time></trkpt><trkpt lat="43.890479143067054" lon="10.519634795238005"><ele>29.666666666666664</ele><time>2026-04-04T09:10:16Z</time></trkpt><trkpt lat="43.89062101656106" lon="10.519727013116194"><ele>30.0</ele><time>2026-04-04T09:10:17Z</time></trkpt><trkpt lat="43.89075208715735" lon="10.519845072969039"><ele>30.0</ele><time>2026-04-04T09:10:18Z</time></trkpt><trkpt lat="43.8908783971149" lon="10.519959784207419"><ele>30.0</ele><time>2026-04-04T09:10:19Z</time></trkpt><trkpt lat="43.89099675133308" lon="10.520059254129784"><ele>30.0</ele><time>2026-04-04T09:10:20Z</time></trkpt><trkpt lat="43.89111268234943" lon="10.520147654552675"><ele>30.0</ele><time>2026-04-04T09:10:21Z</time></trkpt><trkpt lat="43.89122712817888" lon="10.52023214185712"><ele>30.25</ele><time>2026-04-04T09:10:22Z</time></trkpt><trkpt lat="43.89134303373136" lon="10.520310304245596"><ele>30.5</ele><time>2026-04-04T09:10:23Z</time></trkpt><trkpt lat="43.89145912033744" lon="10.52038206414153"><ele>30.75</ele><time>2026-04-04T09:10:24Z</time></trkpt><trkpt lat="43.89157464363991" lon="10.520447643518626"><ele>31.0</ele><time>2026-04-04T09:10:25Z</time></trkpt><trkpt lat="43.8916892141662" lon="10.520513585169395"><ele>31.5</ele><time>2026-04-04T09:10:26Z</time></trkpt><trkpt lat="43.89179323906732" lon="10.52058710832899"><ele>32.0</ele><time>2026-04-04T09:10:27Z</time></trkpt><trkpt lat="43.89189860542578" lon="10.520657970908468"><ele>32.5</ele><time>2026-04-04T09:10:28Z</time></trkpt><trkpt lat="43.89199658177485" lon="10.520737151072394"><ele>33.0</ele><time>2026-04-04T09:10:29Z</time></trkpt><trkpt lat="43.89209475211528" lon="10.520841570089173"><ele>33.0</ele><time>2026-04-04T09:10:30Z</time></trkpt><trkpt lat="43.89218780671186" lon="10.520965272666363"><ele>33.0</ele><time>2026-04-04T09:10:31Z</time></trkpt><trkpt lat="43.89227953376437" lon="10.521093782535152"><ele>33.0</ele><time>2026-04-04T09:10:32Z</time></trkpt><trkpt lat="43.89237052536126" lon="10.521220052339023"><ele>33.0</ele><time>2026-04-04T09:10:33Z</time></trkpt><trkpt lat="43.89245570475227" lon="10.521342416592654"><ele>32.75</ele><time>2026-04-04T09:10:34Z</time></trkpt><trkpt lat="43.892536402802776" lon="10.521467932851616"><ele>32.5</ele><time>2026-04-04T09:10:35Z</time></trkpt><trkpt lat="43.89261867058093" lon="10.521597995509103"><ele>32.25</ele><time>2026-04-04T09:10:36Z</time></trkpt><trkpt lat="43.89269902712733" lon="10.521736675430427"><ele>32.0</ele><time>2026-04-04T09:10:37Z</time></trkpt><trkpt lat="43.892780624148344" lon="10.5218759728052"><ele>32.0</ele><time>2026-04-04T09:10:38Z</time></trkpt><trkpt lat="43.89286210649256" lon="10.522018726589152"><ele>32.0</ele><time>2026-04-04T09:10:39Z</time></trkpt><trkpt lat="43.89294672917529" lon="10.522159864449298"><ele>32.0</ele><time>2026-04-04T09:10:40Z</time></trkpt><trkpt lat="43.89303005681007" lon="10.522302164677843"><ele>32.0</ele><time>2026-04-04T09:10:41Z</time></trkpt><trkpt lat="43.893112755701964" lon="10.522445437375747"><ele>32.0</ele><time>2026-04-04T09:10:42Z</time></trkpt><trkpt lat="43.89319570363747" lon="10.52259166688354"><ele>32.0</ele><time>2026-04-04T09:10:43Z</time></trkpt><trkpt lat="43.89327856896377" lon="10.522741233082014"><ele>32.0</ele><time>2026-04-04T09:10:44Z</time></trkpt><trkpt lat="43.89336174269826" lon="10.522894737279596"><ele>32.0</ele><time>2026-04-04T09:10:45Z</time></trkpt><trkpt lat="43.89344513351565" lon="10.523051755666405"><ele>32.25</ele><time>2026-04-04T09:10:46Z</time></trkpt><trkpt lat="43.8935269611529" lon="10.523200496934143"><ele>32.5</ele><time>2026-04-04T09:10:47Z</time></trkpt><trkpt lat="43.89360324633966" lon="10.523347789020322"><ele>32.75</ele><time>2026-04-04T09:10:48Z</time></trkpt><trkpt lat="43.89367475479774" lon="10.523486856414097"><ele>33.0</ele><time>2026-04-04T09:10:49Z</time></trkpt><trkpt lat="43.89375744811274" lon="10.523609396811596"><ele>33.0</ele><time>2026-04-04T09:10:50Z</time></trkpt><trkpt lat="43.893861423546575" lon="10.523693545924717"><ele>33.0</ele><time>2026-04-04T09:10:51Z</time></trkpt><trkpt lat="43.893996895645806" lon="10.523719342728572"><ele>33.0</ele><time>2026-04-04T09:10:52Z</time></trkpt><trkpt lat="43.89413811915355" lon="10.523716720340909"><ele>33.0</ele><time>2026-04-04T09:10:53Z</time></trkpt><trkpt lat="43.89428093702734" lon="10.523708824156216"><ele>33.5</ele><time>2026-04-04T09:10:54Z</time></trkpt><trkpt lat="43.894410490985116" lon="10.523712148327597"><ele>34.0</ele><time>2026-04-04T09:10:55Z</time></trkpt><trkpt lat="43.89453029522087" lon="10.523725931208523"><ele>34.5</ele><time>2026-04-04T09:10:56Z</time></trkpt><trkpt lat="43.89465393442055" lon="10.523744539033522"><ele>35.0</ele><time>2026-04-04T09:10:57Z</time></trkpt><trkpt lat="43.894776569378294" lon="10.523761239514013"><ele>35.0</ele><time>2026-04-04T09:10:58Z</time></trkpt><trkpt lat="43.894902244952526" lon="10.523775474890261"><ele>35.0</ele><time>2026-04-04T09:10:59Z</time></trkpt><trkpt lat="43.89502774522085" lon="10.523789602149398"><ele>35.0</ele><time>2026-04-04T09:11:00Z</time></trkpt><trkpt lat="43.895152378974224" lon="10.523806703976977"><ele>35.0</ele><time>2026-04-04T09:11:01Z</time></trkpt><trkpt lat="43.8952770394085" lon="10.523827468286227"><ele>35.0</ele><time>2026-04-04T09:11:02Z</time></trkpt><trkpt lat="43.89540529283546" lon="10.523847190664357"><ele>35.0</ele><time>2026-04-04T09:11:03Z</time></trkpt><trkpt lat="43.895536180429936" lon="10.523859457677348"><ele>35.0</ele><time>2026-04-04T09:11:04Z</time></trkpt><trkpt lat="43.89567107430782" lon="10.523872677955127"><ele>35.0</ele><time>2026-04-04T09:11:05Z</time></trkpt><trkpt lat="43.895808727074346" lon="10.523890360847114"><ele>36.5</ele><time>2026-04-04T09:11:06Z</time></trkpt><trkpt lat="43.895944641968356" lon="10.523907700140745"><ele>38.0</ele><time>2026-04-04T09:11:07Z</time></trkpt><trkpt lat="43.896069295850516" lon="10.523923935424769"><ele>39.5</ele><time>2026-04-04T09:11:08Z</time></trkpt><trkpt lat="43.896182626947116" lon="10.523938254268105"><ele>41.0</ele><time>2026-04-04T09:11:09Z</time></trkpt><trkpt lat="43.896295104072074" lon="10.523970085862212"><ele>41.0</ele><time>2026-04-04T09:11:10Z</time></trkpt><trkpt lat="43.89640400672603" lon="10.524038762849083"><ele>41.0</ele><time>2026-04-04T09:11:11Z</time></trkpt><trkpt lat="43.89650435107634" lon="10.524146161542976"><ele>41.0</ele><time>2026-04-04T09:11:12Z</time></trkpt><trkpt lat="43.89658192620495" lon="10.524292893287852"><ele>41.0</ele><time>2026-04-04T09:11:13Z</time></trkpt><trkpt lat="43.89662191575528" lon="10.524469158269563"><ele>40.75</ele><time>2026-04-04T09:11:14Z</time></trkpt><trkpt lat="43.89664005607458" lon="10.524659344199032"><ele>40.5</ele><time>2026-04-04T09:11:15Z</time></trkpt><trkpt lat="43.89666064818023" lon="10.524856152648"><ele>40.25</ele><time>2026-04-04T09:11:16Z</time></trkpt><trkpt lat="43.896690811591625" lon="10.525054431571826"><ele>40.0</ele><time>2026-04-04T09:11:17Z</time></trkpt><trkpt lat="43.89670869626863" lon="10.525249155748828"><ele>40.0</ele><time>2026-04-04T09:11:18Z</time></trkpt><trkpt lat="43.89670713391395" lon="10.525439319245525"><ele>40.0</ele><time>2026-04-04T09:11:19Z</time></trkpt><trkpt lat="43.89671891858181" lon="10.525630144360965"><ele>40.0</ele><time>2026-04-04T09:11:20Z</time></trkpt><trkpt lat="43.896717409139896" lon="10.525818758361455"><ele>40.0</ele><time>2026-04-04T09:11:21Z</time></trkpt><trkpt lat="43.89669061364099" lon="10.526004624036519"><ele>40.0</ele><time>2026-04-04T09:11:22Z</time></trkpt><trkpt lat="43.896646552089685" lon="10.526189299492573"><ele>40.0</ele><time>2026-04-04T09:11:23Z</time></trkpt><trkpt lat="43.896596191155595" lon="10.526379649097505"><ele>40.0</ele><time>2026-04-04T09:11:24Z</time></trkpt><trkpt lat="43.89654578260277" lon="10.526572835645299"><ele>40.0</ele><time>2026-04-04T09:11:25Z</time></trkpt><trkpt lat="43.896497163809315" lon="10.526762932915386"><ele>39.75</ele><time>2026-04-04T09:11:26Z</time></trkpt><trkpt lat="43.89645089389746" lon="10.526944147152692"><ele>39.5</ele><time>2026-04-04T09:11:27Z</time></trkpt><trkpt lat="43.896405476346295" lon="10.527116925384808"><ele>39.25</ele><time>2026-04-04T09:11:28Z</time></trkpt><trkpt lat="43.89636175156073" lon="10.527283211930623"><ele>39.0</ele><time>2026-04-04T09:11:29Z</time></trkpt><trkpt lat="43.89632435763702" lon="10.52744994009908"><ele>40.0</ele><time>2026-04-04T09:11:30Z</time></trkpt><trkpt lat="43.89629211019206" lon="10.527629314687092"><ele>41.0</ele><time>2026-04-04T09:11:31Z</time></trkpt><trkpt lat="43.896288451705836" lon="10.52782041291495"><ele>42.0</ele><time>2026-04-04T09:11:32Z</time></trkpt><trkpt lat="43.89628031721114" lon="10.528013866142107"><ele>43.0</ele><time>2026-04-04T09:11:33Z</time></trkpt><trkpt lat="43.89628224898012" lon="10.528210247538558"><ele>43.25</ele><time>2026-04-04T09:11:34Z</time></trkpt><trkpt lat="43.896297532353486" lon="10.528409568684344"><ele>43.5</ele><time>2026-04-04T09:11:35Z</time></trkpt><trkpt lat="43.89631772410553" lon="10.528599132139547"><ele>43.75</ele><time>2026-04-04T09:11:36Z</time></trkpt><trkpt lat="43.89634057964808" lon="10.528770289132355"><ele>44.0</ele><time>2026-04-04T09:11:37Z</time></trkpt><trkpt lat="43.8963645008143" lon="10.528927757795085"><ele>44.0</ele><time>2026-04-04T09:11:38Z</time></trkpt><trkpt lat="43.89638920431327" lon="10.529060434779224"><ele>44.0</ele><time>2026-04-04T09:11:39Z</time></trkpt><trkpt lat="43.89643409045816" lon="10.529185423048359"><ele>44.0</ele><time>2026-04-04T09:11:40Z</time></trkpt><trkpt lat="43.896504101870015" lon="10.529321938550416"><ele>44.0</ele><time>2026-04-04T09:11:41Z</time></trkpt><trkpt lat="43.89659434192078" lon="10.529471069265266"><ele>44.0</ele><time>2026-04-04T09:11:42Z</time></trkpt><trkpt lat="43.8966891026994" lon="10.529626383765208"><ele>44.0</ele><time>2026-04-04T09:11:43Z</time></trkpt><trkpt lat="43.89678124501223" lon="10.5297967882111"><ele>44.0</ele><time>2026-04-04T09:11:44Z</time></trkpt><trkpt lat="43.896875642696834" lon="10.529969640808817"><ele>44.0</ele><time>2026-04-04T09:11:45Z</time></trkpt><trkpt lat="43.89697522636514" lon="10.53013488214323"><ele>44.0</ele><time>2026-04-04T09:11:46Z</time></trkpt><trkpt lat="43.89707219760828" lon="10.53028525868824"><ele>44.0</ele><time>2026-04-04T09:11:47Z</time></trkpt><trkpt lat="43.89717206629457" lon="10.530430340034492"><ele>44.0</ele><time>2026-04-04T09:11:48Z</time></trkpt><trkpt lat="43.89726867336661" lon="10.530571036814584"><ele>44.25</ele><time>2026-04-04T09:11:49Z</time></trkpt><trkpt lat="43.89736782896039" lon="10.530714876697239"><ele>44.5</ele><time>2026-04-04T09:11:50Z</time></trkpt><trkpt lat="43.89746692974937" lon="10.530860454083781"><ele>44.75</ele><time>2026-04-04T09:11:51Z</time></trkpt><trkpt lat="43.89756619750777" lon="10.531011105422621"><ele>45.0</ele><time>2026-04-04T09:11:52Z</time></trkpt><trkpt lat="43.89766244261011" lon="10.531159156435473"><ele>43.5</ele><time>2026-04-04T09:11:53Z</time></trkpt><trkpt lat="43.89775215870539" lon="10.531299343955626"><ele>42.0</ele><time>2026-04-04T09:11:54Z</time></trkpt><trkpt lat="43.89784283398259" lon="10.531434741582995"><ele>40.5</ele><time>2026-04-04T09:11:55Z</time></trkpt><trkpt lat="43.89794224036284" lon="10.531561828187009"><ele>39.0</ele><time>2026-04-04T09:11:56Z</time></trkpt><trkpt lat="43.89805021498067" lon="10.53167894336565"><ele>39.0</ele><time>2026-04-04T09:11:57Z</time></trkpt><trkpt lat="43.89816285041446" lon="10.531787051697597"><ele>39.0</ele><time>2026-04-04T09:11:58Z</time></trkpt><trkpt lat="43.898277591105646" lon="10.531889131385443"><ele>39.0</ele><time>2026-04-04T09:11:59Z</time></trkpt><trkpt lat="43.898393549493484" lon="10.531977535782255"><ele>39.0</ele><time>2026-04-04T09:12:00Z</time></trkpt><trkpt lat="43.898512026150925" lon="10.532060044575372"><ele>38.5</ele><time>2026-04-04T09:12:01Z</time></trkpt><trkpt lat="43.8986279768135" lon="10.532137647823255"><ele>38.0</ele><time>2026-04-04T09:12:02Z</time></trkpt><trkpt lat="43.8987455117035" lon="10.532208005407567"><ele>37.5</ele><time>2026-04-04T09:12:03Z</time></trkpt><trkpt lat="43.8988584183309" lon="10.532271621116326"><ele>37.0</ele><time>2026-04-04T09:12:04Z</time></trkpt><trkpt lat="43.898979535256956" lon="10.532316355809535"><ele>37.0</ele><time>2026-04-04T09:12:05Z</time></trkpt><trkpt lat="43.89908404418877" lon="10.53235742846584"><ele>37.0</ele><time>2026-04-04T09:12:06Z</time></trkpt><trkpt lat="43.8991676489902" lon="10.53243064535531"><ele>37.0</ele><time>2026-04-04T09:12:07Z</time></trkpt><trkpt lat="43.89922587958579" lon="10.532524711136142"><ele>37.0</ele><time>2026-04-04T09:12:08Z</time></trkpt><trkpt lat="43.899264089496" lon="10.532616622152851"><ele>37.0</ele><time>2026-04-04T09:12:09Z</time></trkpt><trkpt lat="43.89930825492125" lon="10.532729016912384"><ele>37.0</ele><time>2026-04-04T09:12:11Z</time></trkpt><trkpt lat="43.89948686902376" lon="10.532708177342728"><ele>37.0</ele><time>2026-04-04T09:12:22Z</time></trkpt><trkpt lat="43.89959550888375" lon="10.53264005797586"><ele>37.0</ele><time>2026-04-04T09:12:23Z</time></trkpt><trkpt lat="43.899720378554925" lon="10.5325458221221"><ele>37.0</ele><time>2026-04-04T09:12:24Z</time></trkpt><trkpt lat="43.89985785787121" lon="10.532459704869956"><ele>37.0</ele><time>2026-04-04T09:12:25Z</time></trkpt><trkpt lat="43.90001343357514" lon="10.532385219919005"><ele>37.0</ele><time>2026-04-04T09:12:26Z</time></trkpt><trkpt lat="43.900204419807814" lon="10.53232325543146"><ele>37.0</ele><time>2026-04-04T09:12:27Z</time></trkpt><trkpt lat="43.90038762676214" lon="10.532271256110977"><ele>36.66666666666667</ele><time>2026-04-04T09:12:28Z</time></trkpt><trkpt lat="43.90056779931096" lon="10.532217875600097"><ele>36.333333333333336</ele><time>2026-04-04T09:12:29Z</time></trkpt><trkpt lat="43.90075226830608" lon="10.53216093517304"><ele>36.0</ele><time>2026-04-04T09:12:30Z</time></trkpt><trkpt lat="43.900921639848036" lon="10.532108892010537"><ele>35.333333333333336</ele><time>2026-04-04T09:12:31Z</time></trkpt><trkpt lat="43.90109856717701" lon="10.532058647185528"><ele>34.66666666666667</ele><time>2026-04-04T09:12:32Z</time></trkpt><trkpt lat="43.901268608892515" lon="10.532001775618202"><ele>34.0</ele><time>2026-04-04T09:12:33Z</time></trkpt><trkpt lat="43.90143115124893" lon="10.531937214673249"><ele>34.333333333333336</ele><time>2026-04-04T09:12:34Z</time></trkpt><trkpt lat="43.90158712377823" lon="10.531865927974932"><ele>34.666666666666664</ele><time>2026-04-04T09:12:35Z</time></trkpt><trkpt lat="43.901736039216445" lon="10.531787575130398"><ele>35.0</ele><time>2026-04-04T09:12:36Z</time></trkpt><trkpt lat="43.90189313492737" lon="10.531698267309734"><ele>35.0</ele><time>2026-04-04T09:12:37Z</time></trkpt><trkpt lat="43.90204807440894" lon="10.531600955315305"><ele>35.0</ele><time>2026-04-04T09:12:38Z</time></trkpt><trkpt lat="43.90220034945198" lon="10.531498273558462"><ele>35.0</ele><time>2026-04-04T09:12:39Z</time></trkpt><trkpt lat="43.902349568474136" lon="10.531385529605686"><ele>35.0</ele><time>2026-04-04T09:12:40Z</time></trkpt><trkpt lat="43.90249375015264" lon="10.531266226076102"><ele>35.0</ele><time>2026-04-04T09:12:41Z</time></trkpt><trkpt lat="43.90263838165893" lon="10.531140609540499"><ele>35.0</ele><time>2026-04-04T09:12:42Z</time></trkpt><trkpt lat="43.90277919839953" lon="10.531017640421231"><ele>36.33333333333333</ele><time>2026-04-04T09:12:43Z</time></trkpt><trkpt lat="43.90291517067272" lon="10.530892676256189"><ele>37.666666666666664</ele><time>2026-04-04T09:12:44Z</time></trkpt><trkpt lat="43.90305902104263" lon="10.530768468972218"><ele>39.0</ele><time>2026-04-04T09:12:45Z</time></trkpt><trkpt lat="43.90319890989775" lon="10.530637081508933"><ele>39.0</ele><time>2026-04-04T09:12:46Z</time></trkpt><trkpt lat="43.90333597935277" lon="10.530506168685905"><ele>39.0</ele><time>2026-04-04T09:12:47Z</time></trkpt><trkpt lat="43.903478268099214" lon="10.530377036077795"><ele>39.0</ele><time>2026-04-04T09:12:48Z</time></trkpt><trkpt lat="43.903619357376954" lon="10.530246505915242"><ele>40.0</ele><time>2026-04-04T09:12:49Z</time></trkpt><trkpt lat="43.903757725076616" lon="10.530117128319302"><ele>41.0</ele><time>2026-04-04T09:12:50Z</time></trkpt><trkpt lat="43.90389365880675" lon="10.529994623609944"><ele>42.0</ele><time>2026-04-04T09:12:51Z</time></trkpt><trkpt lat="43.90403239821011" lon="10.529867585284471"><ele>42.0</ele><time>2026-04-04T09:12:52Z</time></trkpt><trkpt lat="43.904168758069034" lon="10.529736937060598"><ele>42.0</ele><time>2026-04-04T09:12:53Z</time></trkpt><trkpt lat="43.90432560609537" lon="10.529584748366347"><ele>42.0</ele><time>2026-04-04T09:12:54Z</time></trkpt><trkpt lat="43.904514447647045" lon="10.529404583332164"><ele>40.0</ele><time>2026-04-04T09:12:55Z</time></trkpt><trkpt lat="43.90470555312046" lon="10.529232840931078"><ele>38.0</ele><time>2026-04-04T09:12:56Z</time></trkpt><trkpt lat="43.904903805198025" lon="10.529076625318906"><ele>36.0</ele><time>2026-04-04T09:12:57Z</time></trkpt><trkpt lat="43.9050855886761" lon="10.528949551152218"><ele>34.0</ele><time>2026-04-04T09:12:58Z</time></trkpt><trkpt lat="43.90526382585163" lon="10.528843577055158"><ele>32.0</ele><time>2026-04-04T09:12:59Z</time></trkpt><trkpt lat="43.905428001764115" lon="10.528745245082066"><ele>38.33333333333333</ele><time>2026-04-04T09:13:00Z</time></trkpt><trkpt lat="43.90558631356108" lon="10.528661570630254"><ele>44.666666666666664</ele><time>2026-04-04T09:13:01Z</time></trkpt><trkpt lat="43.90574252376392" lon="10.52860099830109"><ele>51.0</ele><time>2026-04-04T09:13:02Z</time></trkpt><trkpt lat="43.90590597745288" lon="10.52855142858232"><ele>47.0</ele><time>2026-04-04T09:13:03Z</time></trkpt><trkpt lat="43.906072289168904" lon="10.528513599924336"><ele>43.0</ele><time>2026-04-04T09:13:04Z</time></trkpt><trkpt lat="43.90623465328697" lon="10.528462113105192"><ele>39.0</ele><time>2026-04-04T09:13:05Z</time></trkpt><trkpt lat="43.906400598064835" lon="10.52839232645989"><ele>39.0</ele><time>2026-04-04T09:13:06Z</time></trkpt><trkpt lat="43.9065678520186" lon="10.528314011942545"><ele>39.0</ele><time>2026-04-04T09:13:07Z</time></trkpt><trkpt lat="43.90673773872669" lon="10.528231915258077"><ele>39.0</ele><time>2026-04-04T09:13:08Z</time></trkpt><trkpt lat="43.906907835645406" lon="10.528149913600634"><ele>38.0</ele><time>2026-04-04T09:13:09Z</time></trkpt><trkpt lat="43.90708127498624" lon="10.528064335108567"><ele>37.0</ele><time>2026-04-04T09:13:10Z</time></trkpt><trkpt lat="43.90725014637158" lon="10.527980677084761"><ele>36.0</ele><time>2026-04-04T09:13:11Z</time></trkpt><trkpt lat="43.90740224643718" lon="10.527898919919235"><ele>38.0</ele><time>2026-04-04T09:13:12Z</time></trkpt><trkpt lat="43.90755208676324" lon="10.527818260886812"><ele>40.0</ele><time>2026-04-04T09:13:13Z</time></trkpt><trkpt lat="43.90769516505074" lon="10.52774443410819"><ele>42.0</ele><time>2026-04-04T09:13:14Z</time></trkpt><trkpt lat="43.90785187839899" lon="10.52767544603909"><ele>42.0</ele><time>2026-04-04T09:13:15Z</time></trkpt><trkpt lat="43.90801226117319" lon="10.527613874417455"><ele>42.0</ele><time>2026-04-04T09:13:16Z</time></trkpt><trkpt lat="43.90818372040059" lon="10.527562180288273"><ele>42.0</ele><time>2026-04-04T09:13:17Z</time></trkpt><trkpt lat="43.90835148358288" lon="10.52751314437283"><ele>41.0</ele><time>2026-04-04T09:13:18Z</time></trkpt><trkpt lat="43.908503305579785" lon="10.527467424930611"><ele>40.0</ele><time>2026-04-04T09:13:19Z</time></trkpt><trkpt lat="43.908642903783885" lon="10.527429026959869"><ele>39.0</ele><time>2026-04-04T09:13:20Z</time></trkpt><trkpt lat="43.908778220197576" lon="10.527386760730199"><ele>38.0</ele><time>2026-04-04T09:13:21Z</time></trkpt><trkpt lat="43.90890962538709" lon="10.527344676027862"><ele>38.0</ele><time>2026-04-04T09:13:22Z</time></trkpt><trkpt lat="43.90902908241232" lon="10.527298874955646"><ele>38.0</ele><time>2026-04-04T09:13:23Z</time></trkpt><trkpt lat="43.909138623323024" lon="10.527257285670968"><ele>38.0</ele><time>2026-04-04T09:13:24Z</time></trkpt><trkpt lat="43.909243568730375" lon="10.527212570220243"><ele>38.0</ele><time>2026-04-04T09:13:25Z</time></trkpt><trkpt lat="43.909340139051636" lon="10.527187075219764"><ele>38.0</ele><time>2026-04-04T09:13:26Z</time></trkpt><trkpt lat="43.9094331745535" lon="10.527151964574387"><ele>37.83333333333333</ele><time>2026-04-04T09:13:27Z</time></trkpt><trkpt lat="43.90952321030414" lon="10.527122505327727"><ele>37.666666666666664</ele><time>2026-04-04T09:13:28Z</time></trkpt><trkpt lat="43.90960155108918" lon="10.527095190735102"><ele>37.5</ele><time>2026-04-04T09:13:29Z</time></trkpt><trkpt lat="43.909673102868105" lon="10.52705851191219"><ele>37.333333333333336</ele><time>2026-04-04T09:13:30Z</time></trkpt><trkpt lat="43.90973794488083" lon="10.527022590151427"><ele>37.16666666666667</ele><time>2026-04-04T09:13:31Z</time></trkpt><trkpt lat="43.909800780573825" lon="10.526993572464134"><ele>37.0</ele><time>2026-04-04T09:13:32Z</time></trkpt><trkpt lat="43.90987105307704" lon="10.526967425364438"><ele>37.8</ele><time>2026-04-04T09:13:33Z</time></trkpt><trkpt lat="43.909948276923465" lon="10.526937911162946"><ele>38.6</ele><time>2026-04-04T09:13:34Z</time></trkpt><trkpt lat="43.91003079969554" lon="10.526887387301432"><ele>39.4</ele><time>2026-04-04T09:13:35Z</time></trkpt><trkpt lat="43.91011881655412" lon="10.52682892954611"><ele>40.199999999999996</ele><time>2026-04-04T09:13:36Z</time></trkpt><trkpt lat="43.91020095465046" lon="10.526736522158139"><ele>41.0</ele><time>2026-04-04T09:13:37Z</time></trkpt><trkpt lat="43.91028908061841" lon="10.526630782688422"><ele>41.0</ele><time>2026-04-04T09:13:38Z</time></trkpt><trkpt lat="43.910384419324" lon="10.526528002907641"><ele>41.0</ele><time>2026-04-04T09:13:39Z</time></trkpt><trkpt lat="43.91049106124216" lon="10.526447118127273"><ele>41.0</ele><time>2026-04-04T09:13:40Z</time></trkpt><trkpt lat="43.91060488939889" lon="10.526375172380025"><ele>41.0</ele><time>2026-04-04T09:13:41Z</time></trkpt><trkpt lat="43.91072418530744" lon="10.526304777799632"><ele>41.0</ele><time>2026-04-04T09:13:42Z</time></trkpt><trkpt lat="43.91084316997197" lon="10.526258006029426"><ele>41.0</ele><time>2026-04-04T09:13:43Z</time></trkpt><trkpt lat="43.91096146761619" lon="10.526219627684062"><ele>41.0</ele><time>2026-04-04T09:13:44Z</time></trkpt><trkpt lat="43.91106235733716" lon="10.526184371109368"><ele>41.0</ele><time>2026-04-04T09:13:45Z</time></trkpt><trkpt lat="43.91116083437567" lon="10.526146399519064"><ele>41.199999999999996</ele><time>2026-04-04T09:13:46Z</time></trkpt><trkpt lat="43.911251873299285" lon="10.526116195507027"><ele>41.4</ele><time>2026-04-04T09:13:47Z</time></trkpt><trkpt lat="43.91134156725046" lon="10.52607785849411"><ele>41.6</ele><time>2026-04-04T09:13:48Z</time></trkpt><trkpt lat="43.91144091452353" lon="10.52605737647863"><ele>41.8</ele><time>2026-04-04T09:13:49Z</time></trkpt><trkpt lat="43.91154327026877" lon="10.526032745338528"><ele>42.0</ele><time>2026-04-04T09:13:50Z</time></trkpt><trkpt lat="43.91164744133494" lon="10.52599906411728"><ele>41.75</ele><time>2026-04-04T09:13:51Z</time></trkpt><trkpt lat="43.91176026107522" lon="10.525945841785187"><ele>41.5</ele><time>2026-04-04T09:13:52Z</time></trkpt><trkpt lat="43.911881426493515" lon="10.525894723559459"><ele>41.25</ele><time>2026-04-04T09:13:53Z</time></trkpt><trkpt lat="43.91200780407169" lon="10.525870726896752"><ele>41.0</ele><time>2026-04-04T09:13:54Z</time></trkpt><trkpt lat="43.91213968509352" lon="10.52587287704522"><ele>41.0</ele><time>2026-04-04T09:13:55Z</time></trkpt><trkpt lat="43.91227328914351" lon="10.525899988711206"><ele>41.0</ele><time>2026-04-04T09:13:56Z</time></trkpt><trkpt lat="43.91241680379061" lon="10.52594295252237"><ele>41.0</ele><time>2026-04-04T09:13:57Z</time></trkpt><trkpt lat="43.9125640040218" lon="10.525989708131616"><ele>41.0</ele><time>2026-04-04T09:13:58Z</time></trkpt><trkpt lat="43.91271695135165" lon="10.526032679982997"><ele>41.666666666666664</ele><time>2026-04-04T09:13:59Z</time></trkpt><trkpt lat="43.912870334145715" lon="10.526076861545214"><ele>42.333333333333336</ele><time>2026-04-04T09:14:00Z</time></trkpt><trkpt lat="43.91302507438358" lon="10.526123822143893"><ele>43.0</ele><time>2026-04-04T09:14:01Z</time></trkpt><trkpt lat="43.91318441097996" lon="10.526167505160297"><ele>43.0</ele><time>2026-04-04T09:14:02Z</time></trkpt><trkpt lat="43.91334561683236" lon="10.526212159172083"><ele>43.0</ele><time>2026-04-04T09:14:03Z</time></trkpt><trkpt lat="43.91351182586039" lon="10.526254057105138"><ele>43.0</ele><time>2026-04-04T09:14:04Z</time></trkpt><trkpt lat="43.913675340302014" lon="10.526300848236309"><ele>43.333333333333336</ele><time>2026-04-04T09:14:05Z</time></trkpt><trkpt lat="43.913833306693526" lon="10.526345196194901"><ele>43.666666666666664</ele><time>2026-04-04T09:14:06Z</time></trkpt><trkpt lat="43.9139878039664" lon="10.52638474163468"><ele>44.0</ele><time>2026-04-04T09:14:07Z</time></trkpt><trkpt lat="43.91415096069144" lon="10.526417806277102"><ele>44.25</ele><time>2026-04-04T09:14:08Z</time></trkpt><trkpt lat="43.9142968025252" lon="10.526457676808773"><ele>44.5</ele><time>2026-04-04T09:14:09Z</time></trkpt><trkpt lat="43.91444362852242" lon="10.526506113293634"><ele>44.75</ele><time>2026-04-04T09:14:10Z</time></trkpt><trkpt lat="43.914589691354244" lon="10.526551286947415"><ele>45.0</ele><time>2026-04-04T09:14:11Z</time></trkpt><trkpt lat="43.91474073705394" lon="10.526584809460665"><ele>45.0</ele><time>2026-04-04T09:14:12Z</time></trkpt><trkpt lat="43.914887774975554" lon="10.526626316599316"><ele>45.0</ele><time>2026-04-04T09:14:13Z</time></trkpt><trkpt lat="43.91503574837578" lon="10.526663627338516"><ele>45.0</ele><time>2026-04-04T09:14:14Z</time></trkpt><trkpt lat="43.91518000527504" lon="10.526702706061458"><ele>45.0</ele><time>2026-04-04T09:14:15Z</time></trkpt><trkpt lat="43.91533069330945" lon="10.526742030003236"><ele>45.0</ele><time>2026-04-04T09:14:16Z</time></trkpt><trkpt lat="43.915468034931074" lon="10.526776620911445"><ele>45.0</ele><time>2026-04-04T09:14:17Z</time></trkpt><trkpt lat="43.91562040920256" lon="10.526817609835918"><ele>45.0</ele><time>2026-04-04T09:14:18Z</time></trkpt><trkpt lat="43.91576587236898" lon="10.52685742794158"><ele>45.0</ele><time>2026-04-04T09:14:19Z</time></trkpt><trkpt lat="43.91591319795468" lon="10.526898874166136"><ele>46.33333333333333</ele><time>2026-04-04T09:14:20Z</time></trkpt><trkpt lat="43.91606147924703" lon="10.52694033200657"><ele>47.666666666666664</ele><time>2026-04-04T09:14:21Z</time></trkpt><trkpt lat="43.91621789295131" lon="10.526980602815097"><ele>49.0</ele><time>2026-04-04T09:14:22Z</time></trkpt><trkpt lat="43.91637234740513" lon="10.527018477458965"><ele>47.33333333333333</ele><time>2026-04-04T09:14:23Z</time></trkpt><trkpt lat="43.91653100404968" lon="10.527061240480457"><ele>45.666666666666664</ele><time>2026-04-04T09:14:24Z</time></trkpt><trkpt lat="43.91668398761248" lon="10.527100869328585"><ele>44.0</ele><time>2026-04-04T09:14:25Z</time></trkpt><trkpt lat="43.9168443390358" lon="10.527143842520971"><ele>44.0</ele><time>2026-04-04T09:14:26Z</time></trkpt><trkpt lat="43.917001431208796" lon="10.527193535071591"><ele>44.0</ele><time>2026-04-04T09:14:27Z</time></trkpt><trkpt lat="43.91716028852605" lon="10.5272306900669"><ele>44.0</ele><time>2026-04-04T09:14:28Z</time></trkpt><trkpt lat="43.917315960483016" lon="10.527269963475767"><ele>44.0</ele><time>2026-04-04T09:14:29Z</time></trkpt><trkpt lat="43.917470449889954" lon="10.527311813718036"><ele>44.0</ele><time>2026-04-04T09:14:30Z</time></trkpt><trkpt lat="43.91762821296811" lon="10.527358329626582"><ele>44.0</ele><time>2026-04-04T09:14:31Z</time></trkpt><trkpt lat="43.91777839328818" lon="10.527390997031173"><ele>44.33333333333333</ele><time>2026-04-04T09:14:32Z</time></trkpt><trkpt lat="43.91793506950769" lon="10.527433523947911"><ele>44.666666666666664</ele><time>2026-04-04T09:14:33Z</time></trkpt><trkpt lat="43.91808691511012" lon="10.527477477576955"><ele>45.0</ele><time>2026-04-04T09:14:34Z</time></trkpt><trkpt lat="43.918240245000355" lon="10.527520002803662"><ele>45.0</ele><time>2026-04-04T09:14:35Z</time></trkpt><trkpt lat="43.918393495350095" lon="10.527561228672289"><ele>45.0</ele><time>2026-04-04T09:14:36Z</time></trkpt><trkpt lat="43.918548082968805" lon="10.527605183473232"><ele>45.0</ele><time>2026-04-04T09:14:37Z</time></trkpt><trkpt lat="43.918700848268486" lon="10.527646687029533"><ele>45.666666666666664</ele><time>2026-04-04T09:14:38Z</time></trkpt><trkpt lat="43.918853569813294" lon="10.527690633259159"><ele>46.33333333333333</ele><time>2026-04-04T09:14:39Z</time></trkpt><trkpt lat="43.919011772261804" lon="10.52772844362388"><ele>47.0</ele><time>2026-04-04T09:14:40Z</time></trkpt><trkpt lat="43.91916434877906" lon="10.527756022237968"><ele>47.5</ele><time>2026-04-04T09:14:41Z</time></trkpt><trkpt lat="43.91930847928581" lon="10.527769651298643"><ele>48.0</ele><time>2026-04-04T09:14:42Z</time></trkpt><trkpt lat="43.91945579862494" lon="10.527773915555104"><ele>48.5</ele><time>2026-04-04T09:14:43Z</time></trkpt><trkpt lat="43.91960560415287" lon="10.527769706846529"><ele>49.0</ele><time>2026-04-04T09:14:44Z</time></trkpt><trkpt lat="43.919758597783755" lon="10.527755502860764"><ele>49.0</ele><time>2026-04-04T09:14:45Z</time></trkpt><trkpt lat="43.91991876586601" lon="10.527733196527192"><ele>49.0</ele><time>2026-04-04T09:14:46Z</time></trkpt><trkpt lat="43.920079453012" lon="10.527704316662698"><ele>49.0</ele><time>2026-04-04T09:14:47Z</time></trkpt><trkpt lat="43.92024665623134" lon="10.527674028270093"><ele>49.0</ele><time>2026-04-04T09:14:48Z</time></trkpt><trkpt lat="43.920409850634535" lon="10.527631560005968"><ele>49.0</ele><time>2026-04-04T09:14:49Z</time></trkpt><trkpt lat="43.920569302588426" lon="10.527592229623057"><ele>49.0</ele><time>2026-04-04T09:14:50Z</time></trkpt><trkpt lat="43.92070841318212" lon="10.527560268171653"><ele>49.0</ele><time>2026-04-04T09:14:51Z</time></trkpt><trkpt lat="43.920843159884704" lon="10.527526121847904"><ele>49.0</ele><time>2026-04-04T09:14:52Z</time></trkpt><trkpt lat="43.92096105941113" lon="10.52749921180675"><ele>49.0</ele><time>2026-04-04T09:14:53Z</time></trkpt><trkpt lat="43.92106657676096" lon="10.527482430926854"><ele>49.0</ele><time>2026-04-04T09:14:54Z</time></trkpt><trkpt lat="43.921153213877155" lon="10.527468299369378"><ele>49.0</ele><time>2026-04-04T09:14:55Z</time></trkpt><trkpt lat="43.92121575412629" lon="10.527422077930257"><ele>49.0</ele><time>2026-04-04T09:14:56Z</time></trkpt><trkpt lat="43.921231370209384" lon="10.527082822454798"><ele>49.0</ele><time>2026-04-04T09:14:59Z</time></trkpt><trkpt lat="43.92121280708019" lon="10.526941131498866"><ele>49.0</ele><time>2026-04-04T09:15:00Z</time></trkpt><trkpt lat="43.92118632828202" lon="10.526814975847204"><ele>49.0</ele><time>2026-04-04T09:15:01Z</time></trkpt><trkpt lat="43.92119873313275" lon="10.52664088859624"><ele>49.0</ele><time>2026-04-04T09:15:02Z</time></trkpt><trkpt lat="43.92121800175991" lon="10.526477029549786"><ele>49.0</ele><time>2026-04-04T09:15:03Z</time></trkpt><trkpt lat="43.92128396053531" lon="10.526340721026115"><ele>49.0</ele><time>2026-04-04T09:15:04Z</time></trkpt><trkpt lat="43.92139343941867" lon="10.526236890241577"><ele>50.666666666666664</ele><time>2026-04-04T09:15:05Z</time></trkpt><trkpt lat="43.921542159734436" lon="10.526150876752054"><ele>52.33333333333333</ele><time>2026-04-04T09:15:06Z</time></trkpt><trkpt lat="43.9217276387329" lon="10.526074746415656"><ele>54.0</ele><time>2026-04-04T09:15:07Z</time></trkpt><trkpt lat="43.92194045774066" lon="10.525952641907159"><ele>55.5</ele><time>2026-04-04T09:15:08Z</time></trkpt><trkpt lat="43.922136217122606" lon="10.52585742124809"><ele>57.0</ele><time>2026-04-04T09:15:09Z</time></trkpt><trkpt lat="43.92225655335147" lon="10.525733594978947"><ele>58.5</ele><time>2026-04-04T09:15:10Z</time></trkpt><trkpt lat="43.922322944372276" lon="10.525655416302522"><ele>60.0</ele><time>2026-04-04T09:15:11Z</time></trkpt><trkpt lat="43.92239543747715" lon="10.52565151731683"><ele>60.0</ele><time>2026-04-04T09:15:13Z</time></trkpt><trkpt lat="43.92252484101508" lon="10.525513887050458"><ele>60.0</ele><time>2026-04-04T09:15:19Z</time></trkpt><trkpt lat="43.92267527703155" lon="10.525417823887498"><ele>60.0</ele><time>2026-04-04T09:15:20Z</time></trkpt><trkpt lat="43.9228728066551" lon="10.525317533283996"><ele>71.66666666666667</ele><time>2026-04-04T09:15:21Z</time></trkpt><trkpt lat="43.92302729857561" lon="10.525190518858853"><ele>83.33333333333334</ele><time>2026-04-04T09:15:22Z</time></trkpt><trkpt lat="43.923188183975824" lon="10.52508583060382"><ele>95.0</ele><time>2026-04-04T09:15:23Z</time></trkpt><trkpt lat="43.92334909660818" lon="10.524981222112448"><ele>94.66666666666667</ele><time>2026-04-04T09:15:24Z</time></trkpt><trkpt lat="43.92351000924931" lon="10.524876614728536"><ele>94.33333333333333</ele><time>2026-04-04T09:15:25Z</time></trkpt><trkpt lat="43.92367482172121" lon="10.524768797708651"><ele>94.0</ele><time>2026-04-04T09:15:26.026Z</time></trkpt><trkpt lat="43.923811269096106" lon="10.524623340174097"><ele>66.0</ele><time>2026-04-04T09:15:27.025Z</time></trkpt><trkpt lat="43.924280616928264" lon="10.523738907762866"><ele>68.66666666666667</ele><time>2026-04-04T09:15:32.15Z</time></trkpt><trkpt lat="43.92437507790441" lon="10.523573179858596"><ele>71.33333333333334</ele><time>2026-04-04T09:15:33.1Z</time></trkpt><trkpt lat="43.924498888970234" lon="10.52339987831497"><ele>74.0</ele><time>2026-04-04T09:15:34.05Z</time></trkpt><trkpt lat="43.92459312242037" lon="10.523223182928712"><ele>74.0</ele><time>2026-04-04T09:15:35Z</time></trkpt><trkpt lat="43.924687909713754" lon="10.523032480456541"><ele>74.0</ele><time>2026-04-04T09:15:36Z</time></trkpt><trkpt lat="43.924769102339596" lon="10.522832626449178"><ele>74.0</ele><time>2026-04-04T09:15:37Z</time></trkpt><trkpt lat="43.92486664098189" lon="10.522647601500651"><ele>78.0</ele><time>2026-04-04T09:15:38Z</time></trkpt><trkpt lat="43.92496661652473" lon="10.52245795267752"><ele>82.0</ele><time>2026-04-04T09:15:39.025Z</time></trkpt><trkpt lat="43.92511406842745" lon="10.521738786026853"><ele>71.66666666666666</ele><time>2026-04-04T09:15:42Z</time></trkpt><trkpt lat="43.92518601199542" lon="10.521515869141194"><ele>61.33333333333333</ele><time>2026-04-04T09:15:43Z</time></trkpt><trkpt lat="43.925260093262175" lon="10.521291489891839"><ele>51.0</ele><time>2026-04-04T09:15:44Z</time></trkpt><trkpt lat="43.925334607652594" lon="10.521066461472838"><ele>51.0</ele><time>2026-04-04T09:15:45Z</time></trkpt><trkpt lat="43.9254096557485" lon="10.520836358573375"><ele>51.0</ele><time>2026-04-04T09:15:46Z</time></trkpt><trkpt lat="43.925483400075905" lon="10.520599067226627"><ele>51.0</ele><time>2026-04-04T09:15:47Z</time></trkpt><trkpt lat="43.92555347843008" lon="10.520337992882428"><ele>51.33333333333333</ele><time>2026-04-04T09:15:48Z</time></trkpt><trkpt lat="43.925631194530645" lon="10.520101535791891"><ele>51.666666666666664</ele><time>2026-04-04T09:15:49Z</time></trkpt><trkpt lat="43.92571165865275" lon="10.519872043132061"><ele>52.0</ele><time>2026-04-04T09:15:50Z</time></trkpt><trkpt lat="43.92577659969006" lon="10.519642106572267"><ele>51.666666666666664</ele><time>2026-04-04T09:15:51Z</time></trkpt><trkpt lat="43.92584783358542" lon="10.51941405392384"><ele>51.33333333333333</ele><time>2026-04-04T09:15:52Z</time></trkpt><trkpt lat="43.9259200300118" lon="10.519186905202066"><ele>51.0</ele><time>2026-04-04T09:15:53Z</time></trkpt><trkpt lat="43.92599250472678" lon="10.518963704090904"><ele>56.0</ele><time>2026-04-04T09:15:54Z</time></trkpt><trkpt lat="43.92607334077566" lon="10.51873811592136"><ele>61.0</ele><time>2026-04-04T09:15:55Z</time></trkpt><trkpt lat="43.92615738253309" lon="10.518527836614131"><ele>66.0</ele><time>2026-04-04T09:15:56Z</time></trkpt><trkpt lat="43.92624999604431" lon="10.518312775200148"><ele>66.0</ele><time>2026-04-04T09:15:57Z</time></trkpt><trkpt lat="43.92635151242193" lon="10.51811637665844"><ele>66.0</ele><time>2026-04-04T09:15:58Z</time></trkpt><trkpt lat="43.926464841832825" lon="10.51792134269936"><ele>66.0</ele><time>2026-04-04T09:15:59Z</time></trkpt><trkpt lat="43.92658435336721" lon="10.517736882750805"><ele>61.33333333333333</ele><time>2026-04-04T09:16:00Z</time></trkpt><trkpt lat="43.92671359740832" lon="10.51756944261124"><ele>56.666666666666664</ele><time>2026-04-04T09:16:01Z</time></trkpt><trkpt lat="43.92684991695198" lon="10.517409147415831"><ele>52.0</ele><time>2026-04-04T09:16:02Z</time></trkpt><trkpt lat="43.92700109738338" lon="10.517265548339816"><ele>52.0</ele><time>2026-04-04T09:16:03Z</time></trkpt><trkpt lat="43.92714585384071" lon="10.517113487176873"><ele>52.0</ele><time>2026-04-04T09:16:04Z</time></trkpt><trkpt lat="43.927304559519605" lon="10.516972095716898"><ele>52.0</ele><time>2026-04-04T09:16:05Z</time></trkpt><trkpt lat="43.927456952133646" lon="10.516821626040791"><ele>64.33333333333333</ele><time>2026-04-04T09:16:06Z</time></trkpt><trkpt lat="43.92761708327242" lon="10.516674719072416"><ele>76.66666666666667</ele><time>2026-04-04T09:16:07Z</time></trkpt><trkpt lat="43.927777503532035" lon="10.51652879677562"><ele>89.0</ele><time>2026-04-04T09:16:08Z</time></trkpt><trkpt lat="43.92793701041448" lon="10.516377589711247"><ele>91.66666666666667</ele><time>2026-04-04T09:16:09Z</time></trkpt><trkpt lat="43.928097624508844" lon="10.516225406583652"><ele>94.33333333333334</ele><time>2026-04-04T09:16:10Z</time></trkpt><trkpt lat="43.9282575348864" lon="10.516073545600046"><ele>97.0</ele><time>2026-04-04T09:16:11Z</time></trkpt><trkpt lat="43.92842078673907" lon="10.515915830837052"><ele>97.0</ele><time>2026-04-04T09:16:12Z</time></trkpt><trkpt lat="43.92857959180219" lon="10.515740663235732"><ele>97.0</ele><time>2026-04-04T09:16:13Z</time></trkpt><trkpt lat="43.92873283469203" lon="10.515554086909516"><ele>97.0</ele><time>2026-04-04T09:16:14Z</time></trkpt><trkpt lat="43.928866408494585" lon="10.515340777326347"><ele>106.0</ele><time>2026-04-04T09:16:15Z</time></trkpt><trkpt lat="43.92900095691504" lon="10.515120306158684"><ele>115.0</ele><time>2026-04-04T09:16:16Z</time></trkpt><trkpt lat="43.92912366652279" lon="10.514891187401865"><ele>124.0</ele><time>2026-04-04T09:16:17Z</time></trkpt><trkpt lat="43.929252860350005" lon="10.51466071673702"><ele>112.33333333333334</ele><time>2026-04-04T09:16:18Z</time></trkpt><trkpt lat="43.929374090632905" lon="10.514440114520863"><ele>100.66666666666667</ele><time>2026-04-04T09:16:19Z</time></trkpt><trkpt lat="43.92949326435578" lon="10.514227448069448"><ele>89.0</ele><time>2026-04-04T09:16:20Z</time></trkpt><trkpt lat="43.9296063529088" lon="10.514013711429168"><ele>89.0</ele><time>2026-04-04T09:16:21Z</time></trkpt><trkpt lat="43.92970875869521" lon="10.513783909407287"><ele>89.0</ele><time>2026-04-04T09:16:22Z</time></trkpt><trkpt lat="43.929790883354336" lon="10.513537323027174"><ele>89.0</ele><time>2026-04-04T09:16:23Z</time></trkpt><trkpt lat="43.929853493013255" lon="10.513278302878646"><ele>84.0</ele><time>2026-04-04T09:16:24Z</time></trkpt><trkpt lat="43.929895272551" lon="10.51300876962006"><ele>79.0</ele><time>2026-04-04T09:16:25Z</time></trkpt><trkpt lat="43.92990503258883" lon="10.512724242841317"><ele>74.0</ele><time>2026-04-04T09:16:26Z</time></trkpt><trkpt lat="43.929903608831815" lon="10.512445222365058"><ele>73.66666666666667</ele><time>2026-04-04T09:16:27Z</time></trkpt><trkpt lat="43.92987761859124" lon="10.512166506174552"><ele>73.33333333333333</ele><time>2026-04-04T09:16:28Z</time></trkpt><trkpt lat="43.92982799918253" lon="10.511896681581176"><ele>73.0</ele><time>2026-04-04T09:16:29Z</time></trkpt><trkpt lat="43.92976758731894" lon="10.511642990489195"><ele>74.66666666666666</ele><time>2026-04-04T09:16:30Z</time></trkpt><trkpt lat="43.929696532585815" lon="10.511391150879716"><ele>76.33333333333333</ele><time>2026-04-04T09:16:31Z</time></trkpt><trkpt lat="43.9296302551016" lon="10.511153283623612"><ele>78.0</ele><time>2026-04-04T09:16:32Z</time></trkpt><trkpt lat="43.929558939545544" lon="10.510941893417904"><ele>79.66666666666667</ele><time>2026-04-04T09:16:33Z</time></trkpt><trkpt lat="43.929494643496156" lon="10.510745096886618"><ele>81.33333333333334</ele><time>2026-04-04T09:16:34Z</time></trkpt><trkpt lat="43.92943155242691" lon="10.510550394410421"><ele>83.0</ele><time>2026-04-04T09:16:35Z</time></trkpt><trkpt lat="43.929372751419656" lon="10.510351375758809"><ele>83.66666666666667</ele><time>2026-04-04T09:16:36Z</time></trkpt><trkpt lat="43.92931271080365" lon="10.510149211504265"><ele>84.33333333333333</ele><time>2026-04-04T09:16:37Z</time></trkpt><trkpt lat="43.9292504489726" lon="10.509948161897238"><ele>85.0</ele><time>2026-04-04T09:16:38Z</time></trkpt><trkpt lat="43.92918671118418" lon="10.509746888941418"><ele>77.33333333333333</ele><time>2026-04-04T09:16:39Z</time></trkpt><trkpt lat="43.929135292418316" lon="10.509533386887265"><ele>69.66666666666667</ele><time>2026-04-04T09:16:40Z</time></trkpt><trkpt lat="43.92912398459353" lon="10.50930736941062"><ele>62.0</ele><time>2026-04-04T09:16:41Z</time></trkpt><trkpt lat="43.92913958670993" lon="10.509110299818444"><ele>62.0</ele><time>2026-04-04T09:16:42Z</time></trkpt><trkpt lat="43.929174963105275" lon="10.508928120386981"><ele>62.0</ele><time>2026-04-04T09:16:43Z</time></trkpt><trkpt lat="43.92921319360561" lon="10.508737505437988"><ele>62.0</ele><time>2026-04-04T09:16:44Z</time></trkpt><trkpt lat="43.929258816762136" lon="10.508549857954362"><ele>62.0</ele><time>2026-04-04T09:16:45Z</time></trkpt><trkpt lat="43.92930809850098" lon="10.508348962305039"><ele>64.0</ele><time>2026-04-04T09:16:46Z</time></trkpt><trkpt lat="43.929367226688974" lon="10.508149860979733"><ele>66.0</ele><time>2026-04-04T09:16:47Z</time></trkpt><trkpt lat="43.929444381092225" lon="10.507952198576874"><ele>68.0</ele><time>2026-04-04T09:16:48Z</time></trkpt><trkpt lat="43.92955276746673" lon="10.507770861507556"><ele>68.0</ele><time>2026-04-04T09:16:49Z</time></trkpt><trkpt lat="43.92968810514778" lon="10.507607097101397"><ele>68.0</ele><time>2026-04-04T09:16:50Z</time></trkpt><trkpt lat="43.929839081933785" lon="10.507444386209063"><ele>68.0</ele><time>2026-04-04T09:16:51Z</time></trkpt><trkpt lat="43.9299802253648" lon="10.507295399460025"><ele>70.66666666666667</ele><time>2026-04-04T09:16:52Z</time></trkpt><trkpt lat="43.930105574451524" lon="10.507163514845569"><ele>73.33333333333333</ele><time>2026-04-04T09:16:53Z</time></trkpt><trkpt lat="43.9302289764004" lon="10.507028862288058"><ele>76.0</ele><time>2026-04-04T09:16:54Z</time></trkpt><trkpt lat="43.9303631420171" lon="10.506955080837043"><ele>71.75</ele><time>2026-04-04T09:16:55Z</time></trkpt><trkpt lat="43.93048390219817" lon="10.506853428747295"><ele>67.5</ele><time>2026-04-04T09:16:56Z</time></trkpt><trkpt lat="43.93060027889677" lon="10.50678944901503"><ele>63.25</ele><time>2026-04-04T09:16:57Z</time></trkpt><trkpt lat="43.930738517347585" lon="10.506842678211063"><ele>59.0</ele><time>2026-04-04T09:16:58Z</time></trkpt><trkpt lat="43.93090095011318" lon="10.506924843317691"><ele>57.333333333333336</ele><time>2026-04-04T09:16:59Z</time></trkpt><trkpt lat="43.93102435063254" lon="10.50705516809987"><ele>55.66666666666667</ele><time>2026-04-04T09:17:00Z</time></trkpt><trkpt lat="43.931133976494166" lon="10.507204750924009"><ele>54.0</ele><time>2026-04-04T09:17:01Z</time></trkpt><trkpt lat="43.93124081772225" lon="10.507435837930148"><ele>54.0</ele><time>2026-04-04T09:17:02Z</time></trkpt><trkpt lat="43.931296741251316" lon="10.507690597428333"><ele>54.0</ele><time>2026-04-04T09:17:03Z</time></trkpt><trkpt lat="43.93138438807631" lon="10.507897553322394"><ele>54.0</ele><time>2026-04-04T09:17:04Z</time></trkpt><trkpt lat="43.93147197304553" lon="10.508112535228769"><ele>54.66666666666667</ele><time>2026-04-04T09:17:05Z</time></trkpt><trkpt lat="43.93155742115269" lon="10.508324645820952"><ele>55.333333333333336</ele><time>2026-04-04T09:17:06Z</time></trkpt><trkpt lat="43.93163407029421" lon="10.508533051212142"><ele>56.0</ele><time>2026-04-04T09:17:07Z</time></trkpt><trkpt lat="43.931699385885366" lon="10.508741611948542"><ele>56.0</ele><time>2026-04-04T09:17:08Z</time></trkpt><trkpt lat="43.93175651416519" lon="10.508941648942102"><ele>56.0</ele><time>2026-04-04T09:17:09Z</time></trkpt><trkpt lat="43.93183465517938" lon="10.509121575729047"><ele>56.0</ele><time>2026-04-04T09:17:10Z</time></trkpt><trkpt lat="43.931940824085096" lon="10.509297586156894"><ele>56.0</ele><time>2026-04-04T09:17:11Z</time></trkpt><trkpt lat="43.932059324135544" lon="10.509454564644285"><ele>56.0</ele><time>2026-04-04T09:17:12Z</time></trkpt><trkpt lat="43.93219149242345" lon="10.509596029598477"><ele>56.0</ele><time>2026-04-04T09:17:13Z</time></trkpt><trkpt lat="43.93231657412278" lon="10.509705867360848"><ele>56.25</ele><time>2026-04-04T09:17:14Z</time></trkpt><trkpt lat="43.93243943834424" lon="10.509793007817011"><ele>56.5</ele><time>2026-04-04T09:17:15Z</time></trkpt><trkpt lat="43.93255610361238" lon="10.509855492975026"><ele>56.75</ele><time>2026-04-04T09:17:16Z</time></trkpt><trkpt lat="43.93264989840445" lon="10.509912499811895"><ele>57.0</ele><time>2026-04-04T09:17:17Z</time></trkpt><trkpt lat="43.932730011017135" lon="10.50996384817721"><ele>57.0</ele><time>2026-04-04T09:17:18Z</time></trkpt><trkpt lat="43.93280611438498" lon="10.510011793331525"><ele>57.0</ele><time>2026-04-04T09:17:19Z</time></trkpt><trkpt lat="43.93288103487367" lon="10.510056654684986"><ele>57.0</ele><time>2026-04-04T09:17:20Z</time></trkpt><trkpt lat="43.93296658192576" lon="10.510072735657166"><ele>57.0</ele><time>2026-04-04T09:17:21Z</time></trkpt><trkpt lat="43.933069837543236" lon="10.510073085616597"><ele>57.0</ele><time>2026-04-04T09:17:22Z</time></trkpt><trkpt lat="43.93317614108057" lon="10.509999205011809"><ele>57.0</ele><time>2026-04-04T09:17:23Z</time></trkpt><trkpt lat="43.93326900185321" lon="10.509848262177128"><ele>57.0</ele><time>2026-04-04T09:17:24Z</time></trkpt><trkpt lat="43.93337523876424" lon="10.509696594028307"><ele>57.0</ele><time>2026-04-04T09:17:25Z</time></trkpt><trkpt lat="43.933499399429905" lon="10.5095495131894"><ele>57.0</ele><time>2026-04-04T09:17:26Z</time></trkpt><trkpt lat="43.93363932593208" lon="10.50941285133649"><ele>57.0</ele><time>2026-04-04T09:17:27Z</time></trkpt><trkpt lat="43.93379160430985" lon="10.509283000348026"><ele>57.0</ele><time>2026-04-04T09:17:28Z</time></trkpt><trkpt lat="43.9339393933011" lon="10.509146193767325"><ele>57.0</ele><time>2026-04-04T09:17:29Z</time></trkpt><trkpt lat="43.93408916223225" lon="10.509004596558166"><ele>57.0</ele><time>2026-04-04T09:17:30Z</time></trkpt><trkpt lat="43.93423644519385" lon="10.50886204178404"><ele>57.0</ele><time>2026-04-04T09:17:31Z</time></trkpt><trkpt lat="43.93437929809121" lon="10.508712336174536"><ele>57.33333333333333</ele><time>2026-04-04T09:17:32Z</time></trkpt><trkpt lat="43.93452470960141" lon="10.508564538039597"><ele>57.666666666666664</ele><time>2026-04-04T09:17:33Z</time></trkpt><trkpt lat="43.93465391393487" lon="10.508401891371134"><ele>58.0</ele><time>2026-04-04T09:17:34Z</time></trkpt><trkpt lat="43.93477971945826" lon="10.50821483949023"><ele>58.0</ele><time>2026-04-04T09:17:35Z</time></trkpt><trkpt lat="43.93489582727909" lon="10.50802224193532"><ele>58.0</ele><time>2026-04-04T09:17:36Z</time></trkpt><trkpt lat="43.93500837932487" lon="10.50782813182959"><ele>58.0</ele><time>2026-04-04T09:17:37Z</time></trkpt><trkpt lat="43.93512261585383" lon="10.507625894861713"><ele>59.0</ele><time>2026-04-04T09:17:38Z</time></trkpt><trkpt lat="43.93523739311419" lon="10.507442871246315"><ele>60.0</ele><time>2026-04-04T09:17:39Z</time></trkpt><trkpt lat="43.935361255452186" lon="10.50725485630204"><ele>61.0</ele><time>2026-04-04T09:17:40Z</time></trkpt><trkpt lat="43.93547363125244" lon="10.507082267084717"><ele>61.0</ele><time>2026-04-04T09:17:41Z</time></trkpt><trkpt lat="43.935589807268954" lon="10.506912201752591"><ele>61.0</ele><time>2026-04-04T09:17:42Z</time></trkpt><trkpt lat="43.935705541190366" lon="10.506749139075861"><ele>61.0</ele><time>2026-04-04T09:17:43Z</time></trkpt><trkpt lat="43.93581510385014" lon="10.506583762445322"><ele>61.0</ele><time>2026-04-04T09:17:44Z</time></trkpt><trkpt lat="43.9359281200046" lon="10.50641098146064"><ele>61.0</ele><time>2026-04-04T09:17:45Z</time></trkpt><trkpt lat="43.93604266917778" lon="10.506247921226096"><ele>61.0</ele><time>2026-04-04T09:17:46Z</time></trkpt><trkpt lat="43.93615778634032" lon="10.506078296236634"><ele>60.0</ele><time>2026-04-04T09:17:47Z</time></trkpt><trkpt lat="43.936276503654746" lon="10.505902837660676"><ele>59.0</ele><time>2026-04-04T09:17:48Z</time></trkpt><trkpt lat="43.93639404032145" lon="10.505727484537672"><ele>58.0</ele><time>2026-04-04T09:17:49Z</time></trkpt><trkpt lat="43.93650848990165" lon="10.505555882534452"><ele>58.33333333333333</ele><time>2026-04-04T09:17:50Z</time></trkpt><trkpt lat="43.936623968572974" lon="10.505381968234515"><ele>58.66666666666667</ele><time>2026-04-04T09:17:51Z</time></trkpt><trkpt lat="43.93673829745916" lon="10.505213206838528"><ele>59.0</ele><time>2026-04-04T09:17:52Z</time></trkpt><trkpt lat="43.93685602432514" lon="10.505040086647869"><ele>60.0</ele><time>2026-04-04T09:17:53Z</time></trkpt><trkpt lat="43.93697359293864" lon="10.504865226825059"><ele>61.0</ele><time>2026-04-04T09:17:54Z</time></trkpt><trkpt lat="43.93709052767364" lon="10.504692362057272"><ele>62.0</ele><time>2026-04-04T09:17:55Z</time></trkpt><trkpt lat="43.93721084266417" lon="10.50451418396118"><ele>62.0</ele><time>2026-04-04T09:17:56Z</time></trkpt><trkpt lat="43.93732879341811" lon="10.504338971333157"><ele>62.0</ele><time>2026-04-04T09:17:57Z</time></trkpt><trkpt lat="43.937445823296976" lon="10.5041592441293"><ele>62.0</ele><time>2026-04-04T09:17:58Z</time></trkpt><trkpt lat="43.9375676405855" lon="10.503985810148157"><ele>67.0</ele><time>2026-04-04T09:17:59Z</time></trkpt><trkpt lat="43.9376863477479" lon="10.50380284266445"><ele>72.0</ele><time>2026-04-04T09:18:00Z</time></trkpt><trkpt lat="43.9378065046821" lon="10.50362463926619"><ele>77.0</ele><time>2026-04-04T09:18:01Z</time></trkpt><trkpt lat="43.9379271102501" lon="10.50344096305272"><ele>77.0</ele><time>2026-04-04T09:18:02Z</time></trkpt><trkpt lat="43.93804357808514" lon="10.503262235528192"><ele>77.0</ele><time>2026-04-04T09:18:03Z</time></trkpt><trkpt lat="43.93816590383035" lon="10.503083995970368"><ele>77.0</ele><time>2026-04-04T09:18:04Z</time></trkpt><trkpt lat="43.93828242528386" lon="10.502904702040317"><ele>75.66666666666667</ele><time>2026-04-04T09:18:05Z</time></trkpt><trkpt lat="43.93840547345989" lon="10.502725474321617"><ele>74.33333333333333</ele><time>2026-04-04T09:18:06Z</time></trkpt><trkpt lat="43.93851926503902" lon="10.502544660177266"><ele>73.0</ele><time>2026-04-04T09:18:07Z</time></trkpt><trkpt lat="43.93864815833735" lon="10.502417757134921"><ele>73.0</ele><time>2026-04-04T09:18:08Z</time></trkpt><trkpt lat="43.93879764218151" lon="10.502330751582669"><ele>73.0</ele><time>2026-04-04T09:18:09Z</time></trkpt><trkpt lat="43.938991033565486" lon="10.502249765487209"><ele>73.0</ele><time>2026-04-04T09:18:10Z</time></trkpt><trkpt lat="43.939182787862485" lon="10.502153509188783"><ele>73.66666666666666</ele><time>2026-04-04T09:18:11Z</time></trkpt><trkpt lat="43.939356165728704" lon="10.502096686673418"><ele>74.33333333333333</ele><time>2026-04-04T09:18:12Z</time></trkpt><trkpt lat="43.93950947497033" lon="10.502042121795446"><ele>75.0</ele><time>2026-04-04T09:18:13Z</time></trkpt><trkpt lat="43.939667660923114" lon="10.502046898273763"><ele>75.0</ele><time>2026-04-04T09:18:14Z</time></trkpt><trkpt lat="43.93983284994497" lon="10.50206157028859"><ele>75.0</ele><time>2026-04-04T09:18:15Z</time></trkpt><trkpt lat="43.93999584500383" lon="10.502096661179722"><ele>75.0</ele><time>2026-04-04T09:18:16Z</time></trkpt><trkpt lat="43.940171106604" lon="10.502149478777081"><ele>74.33333333333333</ele><time>2026-04-04T09:18:17Z</time></trkpt><trkpt lat="43.940341914596445" lon="10.502238338313663"><ele>73.66666666666666</ele><time>2026-04-04T09:18:18Z</time></trkpt><trkpt lat="43.94051822886856" lon="10.502358332833646"><ele>73.0</ele><time>2026-04-04T09:18:19Z</time></trkpt><trkpt lat="43.94069851552166" lon="10.502484990546508"><ele>71.33333333333333</ele><time>2026-04-04T09:18:20Z</time></trkpt><trkpt lat="43.94088482360922" lon="10.502605789015275"><ele>69.66666666666667</ele><time>2026-04-04T09:18:21Z</time></trkpt><trkpt lat="43.94107927807833" lon="10.502726036057778"><ele>68.0</ele><time>2026-04-04T09:18:22Z</time></trkpt><trkpt lat="43.94126911215374" lon="10.502866205723135"><ele>68.66666666666667</ele><time>2026-04-04T09:18:23Z</time></trkpt><trkpt lat="43.94146141073109" lon="10.502996292598146"><ele>69.33333333333333</ele><time>2026-04-04T09:18:24Z</time></trkpt><trkpt lat="43.94165551125761" lon="10.503144360717735"><ele>70.0</ele><time>2026-04-04T09:18:25Z</time></trkpt><trkpt lat="43.941857356926924" lon="10.50330860743048"><ele>70.0</ele><time>2026-04-04T09:18:26Z</time></trkpt><trkpt lat="43.94212161131269" lon="10.503530912172101"><ele>70.0</ele><time>2026-04-04T09:18:27Z</time></trkpt><trkpt lat="43.94233510427254" lon="10.503706668438593"><ele>73.33333333333333</ele><time>2026-04-04T09:18:28Z</time></trkpt><trkpt lat="43.94253641191234" lon="10.503840872133845"><ele>76.66666666666667</ele><time>2026-04-04T09:18:29Z</time></trkpt><trkpt lat="43.942719353368695" lon="10.503956415561994"><ele>80.0</ele><time>2026-04-04T09:18:30Z</time></trkpt><trkpt lat="43.94291317459271" lon="10.504045685208771"><ele>80.0</ele><time>2026-04-04T09:18:31Z</time></trkpt><trkpt lat="43.94309811696364" lon="10.504144038765528"><ele>80.0</ele><time>2026-04-04T09:18:32Z</time></trkpt><trkpt lat="43.9432871098538" lon="10.504223779341874"><ele>80.0</ele><time>2026-04-04T09:18:33Z</time></trkpt><trkpt lat="43.94347036632378" lon="10.504299738008443"><ele>76.0</ele><time>2026-04-04T09:18:34Z</time></trkpt><trkpt lat="43.943651628975765" lon="10.504374813341421"><ele>72.0</ele><time>2026-04-04T09:18:35Z</time></trkpt><trkpt lat="43.94382803305877" lon="10.504451400073302"><ele>68.0</ele><time>2026-04-04T09:18:36Z</time></trkpt><trkpt lat="43.94399696861581" lon="10.504527236247624"><ele>74.66666666666667</ele><time>2026-04-04T09:18:37Z</time></trkpt><trkpt lat="43.94416496389588" lon="10.504606850594216"><ele>81.33333333333333</ele><time>2026-04-04T09:18:38Z</time></trkpt><trkpt lat="43.944312559308415" lon="10.50468006300026"><ele>88.0</ele><time>2026-04-04T09:18:39Z</time></trkpt><trkpt lat="43.94446241942684" lon="10.50476440270781"><ele>88.0</ele><time>2026-04-04T09:18:40Z</time></trkpt><trkpt lat="43.944618734572956" lon="10.504870095047758"><ele>88.0</ele><time>2026-04-04T09:18:41Z</time></trkpt><trkpt lat="43.94477545453669" lon="10.504978281347658"><ele>88.0</ele><time>2026-04-04T09:18:42Z</time></trkpt><trkpt lat="43.94492886651925" lon="10.505080470832368"><ele>89.5</ele><time>2026-04-04T09:18:43Z</time></trkpt><trkpt lat="43.945073356561096" lon="10.505174987304677"><ele>91.0</ele><time>2026-04-04T09:18:44Z</time></trkpt><trkpt lat="43.945205521028385" lon="10.505265831359992"><ele>92.5</ele><time>2026-04-04T09:18:45Z</time></trkpt><trkpt lat="43.9453277228448" lon="10.505361327544735"><ele>94.0</ele><time>2026-04-04T09:18:46Z</time></trkpt><trkpt lat="43.94545080301212" lon="10.505478065147024"><ele>94.0</ele><time>2026-04-04T09:18:47Z</time></trkpt><trkpt lat="43.94562704181367" lon="10.505649836697915"><ele>94.0</ele><time>2026-04-04T09:18:48Z</time></trkpt><trkpt lat="43.94578980361769" lon="10.50581658430602"><ele>94.0</ele><time>2026-04-04T09:18:49Z</time></trkpt><trkpt lat="43.945929901659305" lon="10.505948367976186"><ele>87.0</ele><time>2026-04-04T09:18:50Z</time></trkpt><trkpt lat="43.94608335571683" lon="10.506033605993517"><ele>80.0</ele><time>2026-04-04T09:18:51Z</time></trkpt><trkpt lat="43.94625720015474" lon="10.506146304045282"><ele>73.0</ele><time>2026-04-04T09:18:52Z</time></trkpt><trkpt lat="43.94641114979055" lon="10.506228820194524"><ele>71.0</ele><time>2026-04-04T09:18:53Z</time></trkpt><trkpt lat="43.94657231409624" lon="10.506261864007906"><ele>69.0</ele><time>2026-04-04T09:18:54Z</time></trkpt><trkpt lat="43.94672829366894" lon="10.50626807356149"><ele>67.0</ele><time>2026-04-04T09:18:55Z</time></trkpt><trkpt lat="43.9468888883958" lon="10.506241462205153"><ele>67.0</ele><time>2026-04-04T09:18:56Z</time></trkpt><trkpt lat="43.94703983260684" lon="10.506165035901487"><ele>67.0</ele><time>2026-04-04T09:18:57Z</time></trkpt><trkpt lat="43.94718449115541" lon="10.506076119607158"><ele>67.0</ele><time>2026-04-04T09:18:58Z</time></trkpt><trkpt lat="43.947341027302386" lon="10.50602851607613"><ele>67.0</ele><time>2026-04-04T09:18:59Z</time></trkpt><trkpt lat="43.947509964492134" lon="10.506024547874445"><ele>67.0</ele><time>2026-04-04T09:19:00Z</time></trkpt><trkpt lat="43.9476853296604" lon="10.506036926885983"><ele>67.0</ele><time>2026-04-04T09:19:01Z</time></trkpt><trkpt lat="43.94787287516489" lon="10.506056632019535"><ele>67.0</ele><time>2026-04-04T09:19:02Z</time></trkpt><trkpt lat="43.9480631498163" lon="10.506078254901354"><ele>67.0</ele><time>2026-04-04T09:19:03Z</time></trkpt><trkpt lat="43.948275646750055" lon="10.506093996218267"><ele>67.0</ele><time>2026-04-04T09:19:04Z</time></trkpt><trkpt lat="43.94847704847761" lon="10.506111060839347"><ele>67.0</ele><time>2026-04-04T09:19:05Z</time></trkpt><trkpt lat="43.948688417593765" lon="10.506128134352629"><ele>67.0</ele><time>2026-04-04T09:19:06Z</time></trkpt><trkpt lat="43.948895448433476" lon="10.506152177469856"><ele>67.0</ele><time>2026-04-04T09:19:07Z</time></trkpt><trkpt lat="43.94910258344781" lon="10.506168743367116"><ele>67.0</ele><time>2026-04-04T09:19:08Z</time></trkpt><trkpt lat="43.949311546728076" lon="10.506188796469317"><ele>67.0</ele><time>2026-04-04T09:19:09Z</time></trkpt><trkpt lat="43.949520068609566" lon="10.506212710973006"><ele>67.0</ele><time>2026-04-04T09:19:10Z</time></trkpt><trkpt lat="43.94972756460209" lon="10.506234651901742"><ele>72.66666666666666</ele><time>2026-04-04T09:19:11Z</time></trkpt><trkpt lat="43.94993796076547" lon="10.506255581426053"><ele>78.33333333333333</ele><time>2026-04-04T09:19:12Z</time></trkpt><trkpt lat="43.95014746604154" lon="10.506278390874305"><ele>84.0</ele><time>2026-04-04T09:19:13Z</time></trkpt><trkpt lat="43.950357807161765" lon="10.506300407898195"><ele>85.0</ele><time>2026-04-04T09:19:14Z</time></trkpt><trkpt lat="43.950562553147115" lon="10.50631671624186"><ele>86.0</ele><time>2026-04-04T09:19:15Z</time></trkpt><trkpt lat="43.95075255106327" lon="10.50633415231426"><ele>87.0</ele><time>2026-04-04T09:19:16Z</time></trkpt><trkpt lat="43.95092816315104" lon="10.506354210828288"><ele>89.33333333333333</ele><time>2026-04-04T09:19:17Z</time></trkpt><trkpt lat="43.95110201764354" lon="10.506370551319176"><ele>91.66666666666666</ele><time>2026-04-04T09:19:18Z</time></trkpt><trkpt lat="43.951275866800074" lon="10.506394543406339"><ele>94.0</ele><time>2026-04-04T09:19:19Z</time></trkpt><trkpt lat="43.95144963515552" lon="10.50643363647169"><ele>94.0</ele><time>2026-04-04T09:19:20Z</time></trkpt><trkpt lat="43.95161260917947" lon="10.50648550681582"><ele>94.0</ele><time>2026-04-04T09:19:21Z</time></trkpt><trkpt lat="43.95174162416094" lon="10.50654366084572"><ele>94.0</ele><time>2026-04-04T09:19:22Z</time></trkpt><trkpt lat="43.95184108672366" lon="10.506596234515126"><ele>94.0</ele><time>2026-04-04T09:19:23Z</time></trkpt><trkpt lat="43.95191731249745" lon="10.506643340783777"><ele>91.5</ele><time>2026-04-04T09:19:24Z</time></trkpt><trkpt lat="43.95198012607911" lon="10.506681002949302"><ele>89.0</ele><time>2026-04-04T09:19:25Z</time></trkpt><trkpt lat="43.9520487806033" lon="10.506727686192487"><ele>86.5</ele><time>2026-04-04T09:19:27Z</time></trkpt><trkpt lat="43.9521285375701" lon="10.50670666567187"><ele>84.0</ele><time>2026-04-04T09:19:29Z</time></trkpt><trkpt lat="43.95220841316817" lon="10.506680399916883"><ele>81.5</ele><time>2026-04-04T09:21:05Z</time></trkpt><trkpt lat="43.952313866771156" lon="10.506714343730494"><ele>79.0</ele><time>2026-04-04T09:21:07Z</time></trkpt><trkpt lat="43.952383389352256" lon="10.506770104060763"><ele>79.0</ele><time>2026-04-04T09:21:08Z</time></trkpt><trkpt lat="43.952467167406674" lon="10.50680889444839"><ele>79.0</ele><time>2026-04-04T09:21:09Z</time></trkpt><trkpt lat="43.952553716530666" lon="10.50685013308519"><ele>79.0</ele><time>2026-04-04T09:21:10Z</time></trkpt><trkpt lat="43.952643326835336" lon="10.506893907247585"><ele>79.0</ele><time>2026-04-04T09:21:11Z</time></trkpt><trkpt lat="43.95273226198913" lon="10.506937709657313"><ele>79.0</ele><time>2026-04-04T09:21:12Z</time></trkpt><trkpt lat="43.95281833789169" lon="10.506981693729523"><ele>80.5</ele><time>2026-04-04T09:21:13Z</time></trkpt><trkpt lat="43.952900391799865" lon="10.50702362260212"><ele>82.0</ele><time>2026-04-04T09:21:14Z</time></trkpt><trkpt lat="43.95298535409769" lon="10.5070474392579"><ele>83.5</ele><time>2026-04-04T09:21:15Z</time></trkpt><trkpt lat="43.95306707335338" lon="10.507093456560275"><ele>85.0</ele><time>2026-04-04T09:21:16Z</time></trkpt><trkpt lat="43.953151487128274" lon="10.507140360857214"><ele>86.5</ele><time>2026-04-04T09:21:17Z</time></trkpt><trkpt lat="43.953238454620084" lon="10.507188312689532"><ele>88.0</ele><time>2026-04-04T09:21:18Z</time></trkpt><trkpt lat="43.95332915223952" lon="10.50724054882153"><ele>82.75</ele><time>2026-04-04T09:21:19Z</time></trkpt><trkpt lat="43.95342630948847" lon="10.507295314526203"><ele>77.5</ele><time>2026-04-04T09:21:20Z</time></trkpt><trkpt lat="43.953515565991175" lon="10.507381656276849"><ele>72.25</ele><time>2026-04-04T09:21:21Z</time></trkpt><trkpt lat="43.95361675653509" lon="10.507467781232128"><ele>67.0</ele><time>2026-04-04T09:21:22Z</time></trkpt><trkpt lat="43.953731495643225" lon="10.50758534334454"><ele>67.0</ele><time>2026-04-04T09:21:23Z</time></trkpt><trkpt lat="43.95384252457967" lon="10.50770505753834"><ele>67.0</ele><time>2026-04-04T09:21:24Z</time></trkpt><trkpt lat="43.953954561322796" lon="10.507796041830266"><ele>67.0</ele><time>2026-04-04T09:21:25Z</time></trkpt><trkpt lat="43.95405392316818" lon="10.507910130930993"><ele>67.0</ele><time>2026-04-04T09:21:26Z</time></trkpt><trkpt lat="43.954154784300854" lon="10.50802699009278"><ele>66.25</ele><time>2026-04-04T09:21:27Z</time></trkpt><trkpt lat="43.954254046618274" lon="10.508143736445374"><ele>65.5</ele><time>2026-04-04T09:21:28Z</time></trkpt><trkpt lat="43.95433894900232" lon="10.508271806401396"><ele>64.75</ele><time>2026-04-04T09:21:29Z</time></trkpt><trkpt lat="43.95441973917284" lon="10.508380125231605"><ele>64.0</ele><time>2026-04-04T09:21:30Z</time></trkpt><trkpt lat="43.954497891720685" lon="10.508504186391033"><ele>64.0</ele><time>2026-04-04T09:21:31Z</time></trkpt><trkpt lat="43.954573017709045" lon="10.508659629040704"><ele>64.0</ele><time>2026-04-04T09:21:32Z</time></trkpt><trkpt lat="43.95464929804046" lon="10.508831394444295"><ele>64.0</ele><time>2026-04-04T09:21:33Z</time></trkpt><trkpt lat="43.95472787066244" lon="10.509012881399642"><ele>64.0</ele><time>2026-04-04T09:21:34Z</time></trkpt><trkpt lat="43.954812091803554" lon="10.509203622528284"><ele>64.0</ele><time>2026-04-04T09:21:35Z</time></trkpt><trkpt lat="43.95490753253396" lon="10.509382943294966"><ele>64.0</ele><time>2026-04-04T09:21:36Z</time></trkpt><trkpt lat="43.954984877772596" lon="10.509557776022953"><ele>64.0</ele><time>2026-04-04T09:21:37Z</time></trkpt><trkpt lat="43.955067685710034" lon="10.509714618261778"><ele>64.0</ele><time>2026-04-04T09:21:38Z</time></trkpt><trkpt lat="43.955155990103506" lon="10.50990270908245"><ele>64.0</ele><time>2026-04-04T09:21:39Z</time></trkpt><trkpt lat="43.95524627613412" lon="10.510064177065056"><ele>64.0</ele><time>2026-04-04T09:21:40Z</time></trkpt><trkpt lat="43.955330778641745" lon="10.510235238117486"><ele>64.0</ele><time>2026-04-04T09:21:41Z</time></trkpt><trkpt lat="43.95540976807465" lon="10.510413340737484"><ele>64.0</ele><time>2026-04-04T09:21:42Z</time></trkpt><trkpt lat="43.95549057167625" lon="10.510607069047637"><ele>68.0</ele><time>2026-04-04T09:21:43Z</time></trkpt><trkpt lat="43.955571030869024" lon="10.510806350972679"><ele>72.0</ele><time>2026-04-04T09:21:44Z</time></trkpt><trkpt lat="43.955664668211924" lon="10.511009803011307"><ele>76.0</ele><time>2026-04-04T09:21:45Z</time></trkpt><trkpt lat="43.95574294641412" lon="10.51122512985625"><ele>72.0</ele><time>2026-04-04T09:21:46Z</time></trkpt><trkpt lat="43.95579891318033" lon="10.511452753600523"><ele>68.0</ele><time>2026-04-04T09:21:47Z</time></trkpt><trkpt lat="43.95587625755997" lon="10.511672051153608"><ele>64.0</ele><time>2026-04-04T09:21:48Z</time></trkpt><trkpt lat="43.95595695434627" lon="10.51188795700642"><ele>65.0</ele><time>2026-04-04T09:21:49Z</time></trkpt><trkpt lat="43.95603571151565" lon="10.512100022134158"><ele>66.0</ele><time>2026-04-04T09:21:50Z</time></trkpt><trkpt lat="43.956120627860635" lon="10.512336188886417"><ele>67.0</ele><time>2026-04-04T09:21:51Z</time></trkpt><trkpt lat="43.956195767528364" lon="10.512543188298997"><ele>67.0</ele><time>2026-04-04T09:21:52Z</time></trkpt><trkpt lat="43.95627387066323" lon="10.512739907533092"><ele>67.0</ele><time>2026-04-04T09:21:53Z</time></trkpt><trkpt lat="43.95635742711159" lon="10.512939020183875"><ele>67.0</ele><time>2026-04-04T09:21:54Z</time></trkpt><trkpt lat="43.95644317399176" lon="10.513134182110727"><ele>65.66666666666666</ele><time>2026-04-04T09:21:55Z</time></trkpt><trkpt lat="43.95653807411706" lon="10.513335127511814"><ele>64.33333333333333</ele><time>2026-04-04T09:21:56Z</time></trkpt><trkpt lat="43.95663367708982" lon="10.513531660820528"><ele>63.0</ele><time>2026-04-04T09:21:57Z</time></trkpt><trkpt lat="43.95672591086074" lon="10.513718650259797"><ele>63.66666666666667</ele><time>2026-04-04T09:21:58Z</time></trkpt><trkpt lat="43.95681732926079" lon="10.513901032883165"><ele>64.33333333333334</ele><time>2026-04-04T09:21:59Z</time></trkpt><trkpt lat="43.95690923007571" lon="10.51408239863434"><ele>65.0</ele><time>2026-04-04T09:22:00Z</time></trkpt><trkpt lat="43.95700308748368" lon="10.514261362565232"><ele>65.0</ele><time>2026-04-04T09:22:01Z</time></trkpt><trkpt lat="43.957098112791435" lon="10.514442951181657"><ele>65.0</ele><time>2026-04-04T09:22:02Z</time></trkpt><trkpt lat="43.95718915338434" lon="10.514622701285097"><ele>65.0</ele><time>2026-04-04T09:22:03Z</time></trkpt><trkpt lat="43.95727613045714" lon="10.514808115903278"><ele>68.0</ele><time>2026-04-04T09:22:04Z</time></trkpt><trkpt lat="43.95735582866735" lon="10.515004130535642"><ele>71.0</ele><time>2026-04-04T09:22:05Z</time></trkpt><trkpt lat="43.957427371099904" lon="10.515198281570939"><ele>74.0</ele><time>2026-04-04T09:22:06Z</time></trkpt><trkpt lat="43.95749780445533" lon="10.515391667729913"><ele>71.0</ele><time>2026-04-04T09:22:07Z</time></trkpt><trkpt lat="43.957571443724795" lon="10.515588554751481"><ele>68.0</ele><time>2026-04-04T09:22:08Z</time></trkpt><trkpt lat="43.95764700996618" lon="10.515790593857623"><ele>65.0</ele><time>2026-04-04T09:22:09Z</time></trkpt><trkpt lat="43.957719821973726" lon="10.515987994360525"><ele>65.0</ele><time>2026-04-04T09:22:10Z</time></trkpt><trkpt lat="43.95779069839035" lon="10.516193900974145"><ele>65.0</ele><time>2026-04-04T09:22:11Z</time></trkpt><trkpt lat="43.95785328210424" lon="10.516401480939242"><ele>65.0</ele><time>2026-04-04T09:22:12Z</time></trkpt><trkpt lat="43.95792023979851" lon="10.516584639126288"><ele>67.33333333333334</ele><time>2026-04-04T09:22:13Z</time></trkpt><trkpt lat="43.95801480653606" lon="10.516760776760513"><ele>69.66666666666667</ele><time>2026-04-04T09:22:14Z</time></trkpt><trkpt lat="43.958124814226636" lon="10.516936116130337"><ele>72.0</ele><time>2026-04-04T09:22:15Z</time></trkpt><trkpt lat="43.9582680620254" lon="10.517091362641676"><ele>70.66666666666667</ele><time>2026-04-04T09:22:16Z</time></trkpt><trkpt lat="43.95841822913135" lon="10.517242266720697"><ele>69.33333333333334</ele><time>2026-04-04T09:22:17Z</time></trkpt><trkpt lat="43.95855385225433" lon="10.517399317350955"><ele>68.0</ele><time>2026-04-04T09:22:18Z</time></trkpt><trkpt lat="43.958705062693525" lon="10.517545992211753"><ele>68.0</ele><time>2026-04-04T09:22:19Z</time></trkpt><trkpt lat="43.95885013961296" lon="10.517686404970412"><ele>68.0</ele><time>2026-04-04T09:22:20Z</time></trkpt><trkpt lat="43.958986616184006" lon="10.517818493681247"><ele>68.0</ele><time>2026-04-04T09:22:21Z</time></trkpt><trkpt lat="43.95913123280222" lon="10.517936806995326"><ele>68.0</ele><time>2026-04-04T09:22:22Z</time></trkpt><trkpt lat="43.959263332890856" lon="10.518069972615262"><ele>68.0</ele><time>2026-04-04T09:22:23Z</time></trkpt><trkpt lat="43.95938896499581" lon="10.518189500200904"><ele>68.0</ele><time>2026-04-04T09:22:24Z</time></trkpt><trkpt lat="43.959516761662215" lon="10.518319474453198"><ele>68.0</ele><time>2026-04-04T09:22:25Z</time></trkpt><trkpt lat="43.95964534496546" lon="10.518447834437923"><ele>68.0</ele><time>2026-04-04T09:22:26Z</time></trkpt><trkpt lat="43.95977195699162" lon="10.518574558621761"><ele>68.0</ele><time>2026-04-04T09:22:27Z</time></trkpt><trkpt lat="43.959899132215654" lon="10.518703404329889"><ele>68.33333333333334</ele><time>2026-04-04T09:22:28Z</time></trkpt><trkpt lat="43.960027248108865" lon="10.518829505214143"><ele>68.66666666666667</ele><time>2026-04-04T09:22:29Z</time></trkpt><trkpt lat="43.96015850833519" lon="10.518960131785514"><ele>69.0</ele><time>2026-04-04T09:22:30Z</time></trkpt><trkpt lat="43.9602905326491" lon="10.519089845725677"><ele>69.0</ele><time>2026-04-04T09:22:31Z</time></trkpt><trkpt lat="43.960418582092544" lon="10.51921855144654"><ele>69.0</ele><time>2026-04-04T09:22:32Z</time></trkpt><trkpt lat="43.96055159295387" lon="10.519352165355777"><ele>69.0</ele><time>2026-04-04T09:22:33Z</time></trkpt><trkpt lat="43.960686957008946" lon="10.519485839394589"><ele>69.0</ele><time>2026-04-04T09:22:34Z</time></trkpt><trkpt lat="43.96082514084601" lon="10.519622136079633"><ele>69.0</ele><time>2026-04-04T09:22:35Z</time></trkpt><trkpt lat="43.960961333885166" lon="10.519758812114045"><ele>69.0</ele><time>2026-04-04T09:22:36Z</time></trkpt><trkpt lat="43.961102280998496" lon="10.519899946067712"><ele>69.0</ele><time>2026-04-04T09:22:37Z</time></trkpt><trkpt lat="43.9612419056026" lon="10.520052957553872"><ele>69.0</ele><time>2026-04-04T09:22:38Z</time></trkpt><trkpt lat="43.96138790771683" lon="10.520197897809046"><ele>69.0</ele><time>2026-04-04T09:22:39Z</time></trkpt><trkpt lat="43.96153701317879" lon="10.52034365748125"><ele>69.0</ele><time>2026-04-04T09:22:40Z</time></trkpt><trkpt lat="43.961688638557405" lon="10.520495398404309"><ele>69.0</ele><time>2026-04-04T09:22:41Z</time></trkpt><trkpt lat="43.961854387852256" lon="10.520656005394615"><ele>69.0</ele><time>2026-04-04T09:22:42Z</time></trkpt><trkpt lat="43.96202232030884" lon="10.52082111057663"><ele>69.0</ele><time>2026-04-04T09:22:43Z</time></trkpt><trkpt lat="43.96219359472185" lon="10.520987438513398"><ele>69.0</ele><time>2026-04-04T09:22:44Z</time></trkpt><trkpt lat="43.962366298831235" lon="10.521160062205658"><ele>69.0</ele><time>2026-04-04T09:22:45Z</time></trkpt><trkpt lat="43.962541052777674" lon="10.521339403247097"><ele>69.33333333333333</ele><time>2026-04-04T09:22:46Z</time></trkpt><trkpt lat="43.962712732231516" lon="10.521513242041832"><ele>69.66666666666666</ele><time>2026-04-04T09:22:47Z</time></trkpt><trkpt lat="43.962880343883064" lon="10.521683485151614"><ele>70.0</ele><time>2026-04-04T09:22:48Z</time></trkpt><trkpt lat="43.963043628314864" lon="10.521843739624526"><ele>70.0</ele><time>2026-04-04T09:22:49Z</time></trkpt><trkpt lat="43.96320330948913" lon="10.521999935996373"><ele>70.0</ele><time>2026-04-04T09:22:50Z</time></trkpt><trkpt lat="43.96336106318024" lon="10.522156599071042"><ele>70.0</ele><time>2026-04-04T09:22:51Z</time></trkpt><trkpt lat="43.96351576312298" lon="10.522311156689883"><ele>70.33333333333333</ele><time>2026-04-04T09:22:52Z</time></trkpt><trkpt lat="43.96367312029584" lon="10.522469655970449"><ele>70.66666666666667</ele><time>2026-04-04T09:22:53Z</time></trkpt><trkpt lat="43.96383041834841" lon="10.522627797665644"><ele>71.0</ele><time>2026-04-04T09:22:54Z</time></trkpt><trkpt lat="43.963987591004056" lon="10.52278609673048"><ele>71.33333333333334</ele><time>2026-04-04T09:22:55Z</time></trkpt><trkpt lat="43.96414628317343" lon="10.522942414520672"><ele>71.66666666666667</ele><time>2026-04-04T09:22:56Z</time></trkpt><trkpt lat="43.96430497417014" lon="10.523097289232693"><ele>72.0</ele><time>2026-04-04T09:22:57Z</time></trkpt><trkpt lat="43.96446698201787" lon="10.523255267677438"><ele>72.0</ele><time>2026-04-04T09:22:58Z</time></trkpt><trkpt lat="43.96462595019457" lon="10.52341355774926"><ele>72.0</ele><time>2026-04-04T09:22:59Z</time></trkpt><trkpt lat="43.96478806916794" lon="10.523569273371441"><ele>72.0</ele><time>2026-04-04T09:23:00Z</time></trkpt><trkpt lat="43.96494221455249" lon="10.523725036873826"><ele>72.0</ele><time>2026-04-04T09:23:01Z</time></trkpt><trkpt lat="43.96509101980998" lon="10.523876162194414"><ele>72.0</ele><time>2026-04-04T09:23:02Z</time></trkpt><trkpt lat="43.96523675183343" lon="10.52402564633031"><ele>72.0</ele><time>2026-04-04T09:23:03Z</time></trkpt><trkpt lat="43.965377142867794" lon="10.524167718660653"><ele>72.0</ele><time>2026-04-04T09:23:04Z</time></trkpt><trkpt lat="43.96553122956984" lon="10.524314281362887"><ele>72.0</ele><time>2026-04-04T09:23:05Z</time></trkpt><trkpt lat="43.96567443635223" lon="10.52446046707251"><ele>72.0</ele><time>2026-04-04T09:23:06Z</time></trkpt><trkpt lat="43.96581417342402" lon="10.524604414757322"><ele>72.66666666666667</ele><time>2026-04-04T09:23:07Z</time></trkpt><trkpt lat="43.965958371660456" lon="10.524752206134016"><ele>73.33333333333334</ele><time>2026-04-04T09:23:08Z</time></trkpt><trkpt lat="43.96610507989899" lon="10.524900685214025"><ele>74.0</ele><time>2026-04-04T09:23:09Z</time></trkpt><trkpt lat="43.96624711991314" lon="10.525045192137593"><ele>74.0</ele><time>2026-04-04T09:23:10Z</time></trkpt><trkpt lat="43.9663941345879" lon="10.525190379912209"><ele>74.0</ele><time>2026-04-04T09:23:11Z</time></trkpt><trkpt lat="43.96653951906713" lon="10.52533669786933"><ele>74.0</ele><time>2026-04-04T09:23:12Z</time></trkpt><trkpt lat="43.966685390207566" lon="10.525477519780674"><ele>73.66666666666667</ele><time>2026-04-04T09:23:13Z</time></trkpt><trkpt lat="43.966830867625546" lon="10.525619638482908"><ele>73.33333333333333</ele><time>2026-04-04T09:23:14Z</time></trkpt><trkpt lat="43.96696674728543" lon="10.525781554777096"><ele>73.0</ele><time>2026-04-04T09:23:15Z</time></trkpt><trkpt lat="43.96712088610916" lon="10.525908611368177"><ele>73.0</ele><time>2026-04-04T09:23:16Z</time></trkpt><trkpt lat="43.967261402715486" lon="10.526054547471055"><ele>73.0</ele><time>2026-04-04T09:23:17Z</time></trkpt><trkpt lat="43.96739811362826" lon="10.526192778379288"><ele>73.0</ele><time>2026-04-04T09:23:18Z</time></trkpt><trkpt lat="43.96753577347469" lon="10.526329106955444"><ele>73.0</ele><time>2026-04-04T09:23:19Z</time></trkpt><trkpt lat="43.96767282631164" lon="10.52646980293886"><ele>73.0</ele><time>2026-04-04T09:23:20Z</time></trkpt><trkpt lat="43.96780880074792" lon="10.526605395785332"><ele>73.0</ele><time>2026-04-04T09:23:21Z</time></trkpt><trkpt lat="43.96794787195854" lon="10.526745006205665"><ele>73.0</ele><time>2026-04-04T09:23:22Z</time></trkpt><trkpt lat="43.9680812696061" lon="10.526897592923957"><ele>73.0</ele><time>2026-04-04T09:23:23Z</time></trkpt><trkpt lat="43.96820203155992" lon="10.527064368288986"><ele>73.0</ele><time>2026-04-04T09:23:24Z</time></trkpt><trkpt lat="43.9683246126998" lon="10.527219861026353"><ele>73.0</ele><time>2026-04-04T09:23:25Z</time></trkpt><trkpt lat="43.96845575009902" lon="10.52736592917333"><ele>73.0</ele><time>2026-04-04T09:23:26Z</time></trkpt><trkpt lat="43.968575317610714" lon="10.527527162067654"><ele>73.0</ele><time>2026-04-04T09:23:27Z</time></trkpt><trkpt lat="43.968694513719456" lon="10.527685988293282"><ele>73.0</ele><time>2026-04-04T09:23:28Z</time></trkpt><trkpt lat="43.96881420872985" lon="10.527832828449101"><ele>73.0</ele><time>2026-04-04T09:23:29Z</time></trkpt><trkpt lat="43.96893717470305" lon="10.52798766555163"><ele>73.0</ele><time>2026-04-04T09:23:30Z</time></trkpt><trkpt lat="43.96903547608536" lon="10.528155038286645"><ele>73.0</ele><time>2026-04-04T09:23:31Z</time></trkpt><trkpt lat="43.969142755162444" lon="10.528306146105194"><ele>73.0</ele><time>2026-04-04T09:23:32Z</time></trkpt><trkpt lat="43.96924750929661" lon="10.528454816089846"><ele>73.0</ele><time>2026-04-04T09:23:33Z</time></trkpt><trkpt lat="43.96934732356069" lon="10.528595479437298"><ele>73.0</ele><time>2026-04-04T09:23:34Z</time></trkpt><trkpt lat="43.96944571638213" lon="10.528733574331078"><ele>73.8</ele><time>2026-04-04T09:23:35Z</time></trkpt><trkpt lat="43.96954333030076" lon="10.528851483960292"><ele>74.6</ele><time>2026-04-04T09:23:36Z</time></trkpt><trkpt lat="43.96962278065112" lon="10.528970406878342"><ele>75.4</ele><time>2026-04-04T09:23:37Z</time></trkpt><trkpt lat="43.969691900769234" lon="10.529080952011794"><ele>76.2</ele><time>2026-04-04T09:23:38Z</time></trkpt><trkpt lat="43.969756930365754" lon="10.529181544576097"><ele>77.0</ele><time>2026-04-04T09:23:39Z</time></trkpt><trkpt lat="43.96980966111356" lon="10.529282849765295"><ele>77.0</ele><time>2026-04-04T09:23:40Z</time></trkpt><trkpt lat="43.96982661238124" lon="10.529404273973986"><ele>77.0</ele><time>2026-04-04T09:23:41Z</time></trkpt><trkpt lat="43.969846443517135" lon="10.52952571735386"><ele>77.0</ele><time>2026-04-04T09:23:42Z</time></trkpt><trkpt lat="43.96982147605425" lon="10.529665014963614"><ele>77.0</ele><time>2026-04-04T09:23:43Z</time></trkpt><trkpt lat="43.9697968480372" lon="10.529783884049493"><ele>77.0</ele><time>2026-04-04T09:23:44Z</time></trkpt><trkpt lat="43.969787716445964" lon="10.529893518488988"><ele>77.4</ele><time>2026-04-04T09:23:45Z</time></trkpt><trkpt lat="43.969817272112905" lon="10.529998691837097"><ele>77.80000000000001</ele><time>2026-04-04T09:23:46Z</time></trkpt><trkpt lat="43.969882290445476" lon="10.53007697454073"><ele>78.2</ele><time>2026-04-04T09:23:47Z</time></trkpt><trkpt lat="43.96997046346478" lon="10.530104789062088"><ele>78.60000000000001</ele><time>2026-04-04T09:23:48Z</time></trkpt><trkpt lat="43.97006666298274" lon="10.530077477683705"><ele>79.0</ele><time>2026-04-04T09:23:49Z</time></trkpt><trkpt lat="43.97016001537832" lon="10.530025343917117"><ele>79.0</ele><time>2026-04-04T09:23:50Z</time></trkpt><trkpt lat="43.9702591873466" lon="10.530003379549534"><ele>79.0</ele><time>2026-04-04T09:23:51Z</time></trkpt><trkpt lat="43.97035434539681" lon="10.530063629145667"><ele>79.0</ele><time>2026-04-04T09:23:52Z</time></trkpt><trkpt lat="43.97040534503889" lon="10.530203014168693"><ele>79.0</ele><time>2026-04-04T09:23:53Z</time></trkpt><trkpt lat="43.97048266898323" lon="10.530318308647503"><ele>79.0</ele><time>2026-04-04T09:23:54Z</time></trkpt><trkpt lat="43.9705605866624" lon="10.5304252038629"><ele>79.0</ele><time>2026-04-04T09:23:55Z</time></trkpt><trkpt lat="43.97063638555601" lon="10.530542528343089"><ele>79.0</ele><time>2026-04-04T09:23:56Z</time></trkpt><trkpt lat="43.97071639597141" lon="10.530660746139691"><ele>79.0</ele><time>2026-04-04T09:23:57Z</time></trkpt><trkpt lat="43.97080093877841" lon="10.53078628920146"><ele>79.0</ele><time>2026-04-04T09:23:58Z</time></trkpt><trkpt lat="43.970886725844395" lon="10.530916004325565"><ele>79.0</ele><time>2026-04-04T09:23:59Z</time></trkpt><trkpt lat="43.97097717683391" lon="10.531048998485147"><ele>79.0</ele><time>2026-04-04T09:24:00Z</time></trkpt><trkpt lat="43.97107161425482" lon="10.531190095691073"><ele>79.0</ele><time>2026-04-04T09:24:01Z</time></trkpt><trkpt lat="43.971164529840635" lon="10.531338240117764"><ele>79.0</ele><time>2026-04-04T09:24:02Z</time></trkpt><trkpt lat="43.97125805799135" lon="10.531495538066862"><ele>79.0</ele><time>2026-04-04T09:24:03Z</time></trkpt><trkpt lat="43.9713415800175" lon="10.531660819441386"><ele>79.0</ele><time>2026-04-04T09:24:04Z</time></trkpt><trkpt lat="43.971412254750724" lon="10.531831084013094"><ele>79.0</ele><time>2026-04-04T09:24:05Z</time></trkpt><trkpt lat="43.97147038660661" lon="10.532006310365649"><ele>79.0</ele><time>2026-04-04T09:24:06Z</time></trkpt><trkpt lat="43.97150093887799" lon="10.532191175838667"><ele>79.75</ele><time>2026-04-04T09:24:07Z</time></trkpt><trkpt lat="43.971526249363336" lon="10.532372010436006"><ele>80.5</ele><time>2026-04-04T09:24:08Z</time></trkpt><trkpt lat="43.97154730215159" lon="10.532563460608122"><ele>81.25</ele><time>2026-04-04T09:24:09Z</time></trkpt><trkpt lat="43.9715803122763" lon="10.532751817177973"><ele>82.0</ele><time>2026-04-04T09:24:10Z</time></trkpt><trkpt lat="43.97157838163936" lon="10.532960395576026"><ele>83.75</ele><time>2026-04-04T09:24:11Z</time></trkpt><trkpt lat="43.97158760411514" lon="10.533161116454213"><ele>85.5</ele><time>2026-04-04T09:24:12Z</time></trkpt><trkpt lat="43.971624368684026" lon="10.533355351464916"><ele>87.25</ele><time>2026-04-04T09:24:13Z</time></trkpt><trkpt lat="43.97164274616965" lon="10.533539355724198"><ele>89.0</ele><time>2026-04-04T09:24:14Z</time></trkpt><trkpt lat="43.97163834581012" lon="10.533729274149852"><ele>91.0</ele><time>2026-04-04T09:24:15Z</time></trkpt><trkpt lat="43.97164155029429" lon="10.533922776170243"><ele>93.0</ele><time>2026-04-04T09:24:16Z</time></trkpt><trkpt lat="43.97163689464061" lon="10.534126045987223"><ele>95.0</ele><time>2026-04-04T09:24:17Z</time></trkpt><trkpt lat="43.971636852632635" lon="10.53433894716297"><ele>97.0</ele><time>2026-04-04T09:24:18Z</time></trkpt><trkpt lat="43.97161405576966" lon="10.534547466056646"><ele>97.0</ele><time>2026-04-04T09:24:19Z</time></trkpt><trkpt lat="43.9715938608439" lon="10.534751440961122"><ele>97.0</ele><time>2026-04-04T09:24:20Z</time></trkpt><trkpt lat="43.97157604212082" lon="10.53495721577007"><ele>97.0</ele><time>2026-04-04T09:24:21Z</time></trkpt><trkpt lat="43.9715566457094" lon="10.535164527795835"><ele>97.0</ele><time>2026-04-04T09:24:22Z</time></trkpt><trkpt lat="43.971520343907855" lon="10.535424674486709"><ele>93.0</ele><time>2026-04-04T09:24:23Z</time></trkpt><trkpt lat="43.97147440560902" lon="10.535728772691058"><ele>89.0</ele><time>2026-04-04T09:24:24Z</time></trkpt><trkpt lat="43.97139874489238" lon="10.536036174660595"><ele>86.0</ele><time>2026-04-04T09:24:25Z</time></trkpt><trkpt lat="43.97134623465983" lon="10.536405828021898"><ele>83.0</ele><time>2026-04-04T09:24:26Z</time></trkpt><trkpt lat="43.971309697155924" lon="10.536724153487048"><ele>83.0</ele><time>2026-04-04T09:24:27Z</time></trkpt><trkpt lat="43.97129194192065" lon="10.53701637855757"><ele>83.0</ele><time>2026-04-04T09:24:28Z</time></trkpt><trkpt lat="43.97125960541682" lon="10.53728890180607"><ele>83.0</ele><time>2026-04-04T09:24:29Z</time></trkpt><trkpt lat="43.971230956859" lon="10.537544650432988"><ele>83.0</ele><time>2026-04-04T09:24:30Z</time></trkpt><trkpt lat="43.97118028016699" lon="10.53777334171102"><ele>83.0</ele><time>2026-04-04T09:24:31Z</time></trkpt><trkpt lat="43.971126547663175" lon="10.53799566073503"><ele>83.0</ele><time>2026-04-04T09:24:32Z</time></trkpt><trkpt lat="43.97105615495152" lon="10.538211793295364"><ele>83.66666666666667</ele><time>2026-04-04T09:24:33Z</time></trkpt><trkpt lat="43.9709730633742" lon="10.538435793012303"><ele>84.33333333333333</ele><time>2026-04-04T09:24:34Z</time></trkpt><trkpt lat="43.97090285331135" lon="10.538666840223087"><ele>85.0</ele><time>2026-04-04T09:24:35Z</time></trkpt><trkpt lat="43.97083220487101" lon="10.538901697810243"><ele>86.33333333333333</ele><time>2026-04-04T09:24:36Z</time></trkpt><trkpt lat="43.97078070826255" lon="10.539142915999127"><ele>87.66666666666667</ele><time>2026-04-04T09:24:37Z</time></trkpt><trkpt lat="43.97073963098908" lon="10.53939396535069"><ele>89.0</ele><time>2026-04-04T09:24:38Z</time></trkpt><trkpt lat="43.97071055491999" lon="10.539642279399486"><ele>89.0</ele><time>2026-04-04T09:24:39Z</time></trkpt><trkpt lat="43.97069031096118" lon="10.539896441639723"><ele>89.0</ele><time>2026-04-04T09:24:40Z</time></trkpt><trkpt lat="43.97069319662035" lon="10.540134402159268"><ele>89.0</ele><time>2026-04-04T09:24:41Z</time></trkpt><trkpt lat="43.97071349981079" lon="10.540388727928686"><ele>89.33333333333334</ele><time>2026-04-04T09:24:42Z</time></trkpt><trkpt lat="43.97074965571132" lon="10.540636240161888"><ele>89.66666666666667</ele><time>2026-04-04T09:24:43Z</time></trkpt><trkpt lat="43.970801000362414" lon="10.540872547084211"><ele>90.0</ele><time>2026-04-04T09:24:44Z</time></trkpt><trkpt lat="43.970865533392946" lon="10.541100719622948"><ele>90.0</ele><time>2026-04-04T09:24:45Z</time></trkpt><trkpt lat="43.970941126739426" lon="10.541315665691037"><ele>90.0</ele><time>2026-04-04T09:24:46Z</time></trkpt><trkpt lat="43.97101065365848" lon="10.5415133512684"><ele>90.0</ele><time>2026-04-04T09:24:47Z</time></trkpt><trkpt lat="43.971060058618974" lon="10.541715242304354"><ele>90.0</ele><time>2026-04-04T09:24:48Z</time></trkpt><trkpt lat="43.971111703906836" lon="10.54192495301792"><ele>90.0</ele><time>2026-04-04T09:24:49Z</time></trkpt><trkpt lat="43.9711633765155" lon="10.542154451539778"><ele>90.0</ele><time>2026-04-04T09:24:50Z</time></trkpt><trkpt lat="43.97121410121401" lon="10.542386955541346"><ele>90.33333333333333</ele><time>2026-04-04T09:24:51Z</time></trkpt><trkpt lat="43.971244213096554" lon="10.542627224984678"><ele>90.66666666666666</ele><time>2026-04-04T09:24:52Z</time></trkpt><trkpt lat="43.971297298873374" lon="10.542859962758182"><ele>91.0</ele><time>2026-04-04T09:24:53Z</time></trkpt><trkpt lat="43.97134259095112" lon="10.543061468497523"><ele>91.5</ele><time>2026-04-04T09:24:54Z</time></trkpt><trkpt lat="43.971408373414725" lon="10.543246641670072"><ele>92.0</ele><time>2026-04-04T09:24:55Z</time></trkpt><trkpt lat="43.971461906683075" lon="10.543415823760839"><ele>92.5</ele><time>2026-04-04T09:24:56Z</time></trkpt><trkpt lat="43.971542826937856" lon="10.543573673223927"><ele>93.0</ele><time>2026-04-04T09:24:57Z</time></trkpt><trkpt lat="43.97165021239028" lon="10.543736837240237"><ele>91.33333333333333</ele><time>2026-04-04T09:24:58Z</time></trkpt><trkpt lat="43.97177208677962" lon="10.543912006276122"><ele>89.66666666666666</ele><time>2026-04-04T09:24:59Z</time></trkpt><trkpt lat="43.971894955193775" lon="10.544087975958128"><ele>88.0</ele><time>2026-04-04T09:25:00Z</time></trkpt><trkpt lat="43.97202104270064" lon="10.544279807249367"><ele>88.0</ele><time>2026-04-04T09:25:01Z</time></trkpt><trkpt lat="43.9721540316619" lon="10.544480879667153"><ele>88.0</ele><time>2026-04-04T09:25:02Z</time></trkpt><trkpt lat="43.97227927360898" lon="10.544669382304507"><ele>88.0</ele><time>2026-04-04T09:25:03Z</time></trkpt><trkpt lat="43.972413414279835" lon="10.544836097646648"><ele>88.33333333333333</ele><time>2026-04-04T09:25:04Z</time></trkpt><trkpt lat="43.97256015532263" lon="10.54500816767707"><ele>88.66666666666667</ele><time>2026-04-04T09:25:05Z</time></trkpt><trkpt lat="43.97270892937598" lon="10.545159250293196"><ele>89.0</ele><time>2026-04-04T09:25:06Z</time></trkpt><trkpt lat="43.972867955739275" lon="10.545294889567085"><ele>89.33333333333334</ele><time>2026-04-04T09:25:07Z</time></trkpt><trkpt lat="43.97304545505413" lon="10.545408890816853"><ele>89.66666666666667</ele><time>2026-04-04T09:25:08Z</time></trkpt><trkpt lat="43.97323976601846" lon="10.545505519911263"><ele>90.0</ele><time>2026-04-04T09:25:09Z</time></trkpt><trkpt lat="43.973435284281464" lon="10.545588665081555"><ele>90.0</ele><time>2026-04-04T09:25:10Z</time></trkpt><trkpt lat="43.97363216291162" lon="10.545669086486056"><ele>90.0</ele><time>2026-04-04T09:25:11Z</time></trkpt><trkpt lat="43.97381226328553" lon="10.545744210022779"><ele>90.0</ele><time>2026-04-04T09:25:12Z</time></trkpt><trkpt lat="43.97397628429471" lon="10.54581556978018"><ele>90.0</ele><time>2026-04-04T09:25:13Z</time></trkpt><trkpt lat="43.97413215018605" lon="10.545933675578603"><ele>90.0</ele><time>2026-04-04T09:25:14Z</time></trkpt><trkpt lat="43.974289468436" lon="10.546077241184964"><ele>90.0</ele><time>2026-04-04T09:25:15Z</time></trkpt><trkpt lat="43.97443995489771" lon="10.54626084389931"><ele>88.66666666666667</ele><time>2026-04-04T09:25:16Z</time></trkpt><trkpt lat="43.974571094728965" lon="10.546478328832173"><ele>87.33333333333334</ele><time>2026-04-04T09:25:17Z</time></trkpt><trkpt lat="43.97468006314518" lon="10.546706432015503"><ele>86.0</ele><time>2026-04-04T09:25:18Z</time></trkpt><trkpt lat="43.974794797067986" lon="10.546929634050949"><ele>85.33333333333334</ele><time>2026-04-04T09:25:19Z</time></trkpt><trkpt lat="43.974891600650295" lon="10.547165576130269"><ele>84.66666666666667</ele><time>2026-04-04T09:25:20Z</time></trkpt><trkpt lat="43.97499400355436" lon="10.547399383549715"><ele>84.0</ele><time>2026-04-04T09:25:21Z</time></trkpt><trkpt lat="43.97510752905063" lon="10.547645295496308"><ele>85.0</ele><time>2026-04-04T09:25:22Z</time></trkpt><trkpt lat="43.97522351947321" lon="10.547893111057533"><ele>86.0</ele><time>2026-04-04T09:25:23Z</time></trkpt><trkpt lat="43.97534514215132" lon="10.548150151521341"><ele>87.0</ele><time>2026-04-04T09:25:24Z</time></trkpt><trkpt lat="43.97546485976259" lon="10.548410157880308"><ele>87.0</ele><time>2026-04-04T09:25:25Z</time></trkpt><trkpt lat="43.97558847745063" lon="10.548670798233406"><ele>87.0</ele><time>2026-04-04T09:25:26Z</time></trkpt><trkpt lat="43.97571567921688" lon="10.548912460467516"><ele>87.0</ele><time>2026-04-04T09:25:27Z</time></trkpt><trkpt lat="43.975858580676295" lon="10.549136637448745"><ele>86.33333333333333</ele><time>2026-04-04T09:25:28Z</time></trkpt><trkpt lat="43.97600447460532" lon="10.54935683065043"><ele>85.66666666666666</ele><time>2026-04-04T09:25:29Z</time></trkpt><trkpt lat="43.9761562682076" lon="10.549561827939284"><ele>85.0</ele><time>2026-04-04T09:25:30Z</time></trkpt><trkpt lat="43.976311794242704" lon="10.549770631464579"><ele>88.33333333333333</ele><time>2026-04-04T09:25:31Z</time></trkpt><trkpt lat="43.97647156510333" lon="10.549968980490892"><ele>91.66666666666667</ele><time>2026-04-04T09:25:32Z</time></trkpt><trkpt lat="43.97663143402712" lon="10.550167252361994"><ele>95.0</ele><time>2026-04-04T09:25:33Z</time></trkpt><trkpt lat="43.97678223056461" lon="10.550388273940708"><ele>96.66666666666667</ele><time>2026-04-04T09:25:34Z</time></trkpt><trkpt lat="43.976954523400245" lon="10.550569650171136"><ele>98.33333333333334</ele><time>2026-04-04T09:25:35Z</time></trkpt><trkpt lat="43.97711839726742" lon="10.55075718835592"><ele>100.0</ele><time>2026-04-04T09:25:36Z</time></trkpt><trkpt lat="43.977285349675604" lon="10.550916803931004"><ele>100.0</ele><time>2026-04-04T09:25:37Z</time></trkpt><trkpt lat="43.977463686958956" lon="10.551045178136699"><ele>100.0</ele><time>2026-04-04T09:25:38Z</time></trkpt><trkpt lat="43.97765493946084" lon="10.551151671683627"><ele>100.0</ele><time>2026-04-04T09:25:39Z</time></trkpt><trkpt lat="43.97785618888343" lon="10.551236899152213"><ele>102.66666666666667</ele><time>2026-04-04T09:25:40Z</time></trkpt><trkpt lat="43.97805462763082" lon="10.551301960810973"><ele>105.33333333333334</ele><time>2026-04-04T09:25:41Z</time></trkpt><trkpt lat="43.97824221800836" lon="10.551352594331448"><ele>108.0</ele><time>2026-04-04T09:25:42Z</time></trkpt><trkpt lat="43.978424597889116" lon="10.55140166163716"><ele>108.0</ele><time>2026-04-04T09:25:43Z</time></trkpt><trkpt lat="43.97860182225554" lon="10.551448318741176"><ele>108.0</ele><time>2026-04-04T09:25:44Z</time></trkpt><trkpt lat="43.97877963660407" lon="10.551488340991142"><ele>108.0</ele><time>2026-04-04T09:25:45Z</time></trkpt><trkpt lat="43.978943981500755" lon="10.551530369044432"><ele>108.0</ele><time>2026-04-04T09:25:46Z</time></trkpt><trkpt lat="43.979087454112154" lon="10.551575200869861"><ele>108.0</ele><time>2026-04-04T09:25:47Z</time></trkpt><trkpt lat="43.979216540070084" lon="10.551631354953074"><ele>108.0</ele><time>2026-04-04T09:25:48Z</time></trkpt><trkpt lat="43.979340170932105" lon="10.551694162297087"><ele>108.0</ele><time>2026-04-04T09:25:49Z</time></trkpt><trkpt lat="43.97947235096271" lon="10.551761120991868"><ele>101.33333333333333</ele><time>2026-04-04T09:25:50Z</time></trkpt><trkpt lat="43.97962136103126" lon="10.551844238804186"><ele>94.66666666666666</ele><time>2026-04-04T09:25:51Z</time></trkpt><trkpt lat="43.97981435926258" lon="10.551927076975872"><ele>88.0</ele><time>2026-04-04T09:25:52Z</time></trkpt><trkpt lat="43.980011894330666" lon="10.552014461778121"><ele>92.33333333333333</ele><time>2026-04-04T09:25:53Z</time></trkpt><trkpt lat="43.9801812974771" lon="10.552099678313104"><ele>96.66666666666666</ele><time>2026-04-04T09:25:54Z</time></trkpt><trkpt lat="43.98033371959997" lon="10.552232519862786"><ele>101.0</ele><time>2026-04-04T09:25:55Z</time></trkpt><trkpt lat="43.980491412202625" lon="10.552371487069843"><ele>101.0</ele><time>2026-04-04T09:25:56Z</time></trkpt><trkpt lat="43.98064925125698" lon="10.55251395993942"><ele>101.0</ele><time>2026-04-04T09:25:57Z</time></trkpt><trkpt lat="43.98080325705958" lon="10.552641126260161"><ele>101.0</ele><time>2026-04-04T09:25:58Z</time></trkpt><trkpt lat="43.980935526402405" lon="10.552763087860706"><ele>105.0</ele><time>2026-04-04T09:25:59Z</time></trkpt><trkpt lat="43.98106416640317" lon="10.552880241514835"><ele>109.0</ele><time>2026-04-04T09:26:00Z</time></trkpt><trkpt lat="43.98119827619188" lon="10.55299225579709"><ele>113.0</ele><time>2026-04-04T09:26:01Z</time></trkpt><trkpt lat="43.981337221863534" lon="10.553095312033554"><ele>113.0</ele><time>2026-04-04T09:26:02Z</time></trkpt><trkpt lat="43.98149899637269" lon="10.553156495016731"><ele>113.0</ele><time>2026-04-04T09:26:03Z</time></trkpt><trkpt lat="43.9816738683258" lon="10.553165502596826"><ele>113.0</ele><time>2026-04-04T09:26:04Z</time></trkpt><trkpt lat="43.981847434002596" lon="10.553180713942327"><ele>113.0</ele><time>2026-04-04T09:26:05Z</time></trkpt><trkpt lat="43.98200880817052" lon="10.553198294576202"><ele>113.0</ele><time>2026-04-04T09:26:06Z</time></trkpt><trkpt lat="43.982159679872616" lon="10.553209766870197"><ele>113.0</ele><time>2026-04-04T09:26:07Z</time></trkpt><trkpt lat="43.98231673620259" lon="10.553211243711301"><ele>113.0</ele><time>2026-04-04T09:26:08Z</time></trkpt><trkpt lat="43.98247385441756" lon="10.553200293842137"><ele>113.0</ele><time>2026-04-04T09:26:09Z</time></trkpt><trkpt lat="43.98262964834627" lon="10.55317363402898"><ele>113.0</ele><time>2026-04-04T09:26:10Z</time></trkpt><trkpt lat="43.982780133226086" lon="10.553151095244443"><ele>113.0</ele><time>2026-04-04T09:26:11Z</time></trkpt><trkpt lat="43.982932051748676" lon="10.55312876701753"><ele>113.0</ele><time>2026-04-04T09:26:12Z</time></trkpt><trkpt lat="43.98307983307175" lon="10.553106038810085"><ele>113.0</ele><time>2026-04-04T09:26:13Z</time></trkpt><trkpt lat="43.98322739932595" lon="10.553089493477499"><ele>113.0</ele><time>2026-04-04T09:26:14Z</time></trkpt><trkpt lat="43.9833768811577" lon="10.553067476170472"><ele>113.0</ele><time>2026-04-04T09:26:15Z</time></trkpt><trkpt lat="43.98353215321367" lon="10.553039575873632"><ele>113.0</ele><time>2026-04-04T09:26:16Z</time></trkpt><trkpt lat="43.983690165093584" lon="10.553011849111778"><ele>113.0</ele><time>2026-04-04T09:26:17Z</time></trkpt><trkpt lat="43.98385765323051" lon="10.55298459918551"><ele>113.0</ele><time>2026-04-04T09:26:18Z</time></trkpt><trkpt lat="43.98402088165576" lon="10.55296175973393"><ele>113.0</ele><time>2026-04-04T09:26:19Z</time></trkpt><trkpt lat="43.98418969026107" lon="10.552939649365479"><ele>113.0</ele><time>2026-04-04T09:26:20Z</time></trkpt><trkpt lat="43.98436124010941" lon="10.552917635919426"><ele>116.33333333333333</ele><time>2026-04-04T09:26:21Z</time></trkpt><trkpt lat="43.98453906637716" lon="10.552891200646574"><ele>119.66666666666666</ele><time>2026-04-04T09:26:22Z</time></trkpt><trkpt lat="43.98471966608436" lon="10.552869599742477"><ele>123.0</ele><time>2026-04-04T09:26:23Z</time></trkpt><trkpt lat="43.98488412082921" lon="10.552846146801299"><ele>117.0</ele><time>2026-04-04T09:26:24Z</time></trkpt><trkpt lat="43.98503966509218" lon="10.552823278691923"><ele>111.0</ele><time>2026-04-04T09:26:25Z</time></trkpt><trkpt lat="43.98519086728082" lon="10.552799454837631"><ele>105.0</ele><time>2026-04-04T09:26:26Z</time></trkpt><trkpt lat="43.98533558260873" lon="10.55277441756179"><ele>105.0</ele><time>2026-04-04T09:26:27Z</time></trkpt><trkpt lat="43.9854835634799" lon="10.55275087979164"><ele>105.0</ele><time>2026-04-04T09:26:28Z</time></trkpt><trkpt lat="43.985631127870896" lon="10.55273595476671"><ele>105.0</ele><time>2026-04-04T09:26:29Z</time></trkpt><trkpt lat="43.985781620862994" lon="10.552728088218332"><ele>105.0</ele><time>2026-04-04T09:26:30Z</time></trkpt><trkpt lat="43.98593705595419" lon="10.552740223208557"><ele>106.33333333333334</ele><time>2026-04-04T09:26:31Z</time></trkpt><trkpt lat="43.98609276938689" lon="10.552768290901442"><ele>107.66666666666667</ele><time>2026-04-04T09:26:32Z</time></trkpt><trkpt lat="43.98625032314803" lon="10.552815427597535"><ele>109.0</ele><time>2026-04-04T09:26:33Z</time></trkpt><trkpt lat="43.986406683506544" lon="10.552872426317034"><ele>114.66666666666667</ele><time>2026-04-04T09:26:34Z</time></trkpt><trkpt lat="43.986565268529155" lon="10.552921559637367"><ele>120.33333333333334</ele><time>2026-04-04T09:26:35Z</time></trkpt><trkpt lat="43.98672164008248" lon="10.552963796428452"><ele>126.0</ele><time>2026-04-04T09:26:36Z</time></trkpt><trkpt lat="43.986876141355665" lon="10.553003669263497"><ele>133.66666666666666</ele><time>2026-04-04T09:26:37Z</time></trkpt><trkpt lat="43.98703242493466" lon="10.553028666434287"><ele>141.33333333333331</ele><time>2026-04-04T09:26:38Z</time></trkpt><trkpt lat="43.98719036433594" lon="10.553040512897224"><ele>149.0</ele><time>2026-04-04T09:26:39Z</time></trkpt><trkpt lat="43.98735072685567" lon="10.553027865757054"><ele>153.66666666666666</ele><time>2026-04-04T09:26:40Z</time></trkpt><trkpt lat="43.98751654714485" lon="10.553011747270507"><ele>158.33333333333334</ele><time>2026-04-04T09:26:41Z</time></trkpt><trkpt lat="43.987684582122625" lon="10.552998386649405"><ele>163.0</ele><time>2026-04-04T09:26:42Z</time></trkpt><trkpt lat="43.987854782650324" lon="10.552992690508297"><ele>163.0</ele><time>2026-04-04T09:26:43Z</time></trkpt><trkpt lat="43.98802750353928" lon="10.552986134837553"><ele>163.0</ele><time>2026-04-04T09:26:44Z</time></trkpt><trkpt lat="43.98820172823605" lon="10.552987450850726"><ele>163.0</ele><time>2026-04-04T09:26:45Z</time></trkpt><trkpt lat="43.98837504156547" lon="10.552991603132593"><ele>159.33333333333334</ele><time>2026-04-04T09:26:46Z</time></trkpt><trkpt lat="43.98855145268347" lon="10.553003563415631"><ele>155.66666666666666</ele><time>2026-04-04T09:26:47Z</time></trkpt><trkpt lat="43.98872458656317" lon="10.553003770099766"><ele>152.0</ele><time>2026-04-04T09:26:48Z</time></trkpt><trkpt lat="43.98890596260873" lon="10.553012622510858"><ele>152.0</ele><time>2026-04-04T09:26:49Z</time></trkpt><trkpt lat="43.989086964579634" lon="10.5530120392956"><ele>152.0</ele><time>2026-04-04T09:26:50Z</time></trkpt><trkpt lat="43.98926457022743" lon="10.553018281229683"><ele>152.0</ele><time>2026-04-04T09:26:51Z</time></trkpt><trkpt lat="43.989432936040124" lon="10.553032080640282"><ele>146.0</ele><time>2026-04-04T09:26:52Z</time></trkpt><trkpt lat="43.98960031481503" lon="10.553037237311827"><ele>140.0</ele><time>2026-04-04T09:26:53Z</time></trkpt><trkpt lat="43.98976471659255" lon="10.553032110333191"><ele>134.0</ele><time>2026-04-04T09:26:54Z</time></trkpt><trkpt lat="43.98992799507713" lon="10.553042403175423"><ele>131.66666666666666</ele><time>2026-04-04T09:26:55Z</time></trkpt><trkpt lat="43.990089752848284" lon="10.553066197653834"><ele>129.33333333333334</ele><time>2026-04-04T09:26:56Z</time></trkpt><trkpt lat="43.990248715545796" lon="10.55309019448756"><ele>127.0</ele><time>2026-04-04T09:26:57Z</time></trkpt><trkpt lat="43.99040983021742" lon="10.553124540838155"><ele>127.0</ele><time>2026-04-04T09:26:58Z</time></trkpt><trkpt lat="43.990573230417255" lon="10.553160479919164"><ele>127.0</ele><time>2026-04-04T09:26:59Z</time></trkpt><trkpt lat="43.99074023707498" lon="10.553196373294364"><ele>127.0</ele><time>2026-04-04T09:27:00Z</time></trkpt><trkpt lat="43.99090629341651" lon="10.553249514551231"><ele>121.33333333333334</ele><time>2026-04-04T09:27:01Z</time></trkpt><trkpt lat="43.991073275403366" lon="10.553262322112644"><ele>115.66666666666666</ele><time>2026-04-04T09:27:02Z</time></trkpt><trkpt lat="43.99122984238382" lon="10.553300639091884"><ele>110.0</ele><time>2026-04-04T09:27:03Z</time></trkpt><trkpt lat="43.99138199762696" lon="10.55334020229922"><ele>110.0</ele><time>2026-04-04T09:27:04Z</time></trkpt><trkpt lat="43.99153435735255" lon="10.553368100710937"><ele>110.0</ele><time>2026-04-04T09:27:05Z</time></trkpt><trkpt lat="43.99168665647495" lon="10.553424711994378"><ele>110.0</ele><time>2026-04-04T09:27:06Z</time></trkpt><trkpt lat="43.99184031179871" lon="10.553465326800008"><ele>107.33333333333333</ele><time>2026-04-04T09:27:07Z</time></trkpt><trkpt lat="43.991996817512046" lon="10.55350948100054"><ele>104.66666666666666</ele><time>2026-04-04T09:27:08Z</time></trkpt><trkpt lat="43.99215246149978" lon="10.553553754131896"><ele>102.0</ele><time>2026-04-04T09:27:09Z</time></trkpt><trkpt lat="43.99230496904285" lon="10.553599701784833"><ele>102.0</ele><time>2026-04-04T09:27:10Z</time></trkpt><trkpt lat="43.99245761664612" lon="10.55365648823259"><ele>102.0</ele><time>2026-04-04T09:27:11Z</time></trkpt><trkpt lat="43.99261760184035" lon="10.55370755549289"><ele>102.0</ele><time>2026-04-04T09:27:12Z</time></trkpt><trkpt lat="43.99277214335735" lon="10.553782802474075"><ele>102.66666666666666</ele><time>2026-04-04T09:27:13Z</time></trkpt><trkpt lat="43.992913477412124" lon="10.553904880846966"><ele>103.33333333333333</ele><time>2026-04-04T09:27:14Z</time></trkpt><trkpt lat="43.993055320386134" lon="10.554023269305784"><ele>104.0</ele><time>2026-04-04T09:27:15Z</time></trkpt><trkpt lat="43.99320676879916" lon="10.554143521826298"><ele>104.0</ele><time>2026-04-04T09:27:16Z</time></trkpt><trkpt lat="43.9933362559012" lon="10.554286158408024"><ele>104.0</ele><time>2026-04-04T09:27:17Z</time></trkpt><trkpt lat="43.993468018850244" lon="10.554435032349872"><ele>104.0</ele><time>2026-04-04T09:27:18Z</time></trkpt><trkpt lat="43.99360466561663" lon="10.554585032242615"><ele>105.0</ele><time>2026-04-04T09:27:19Z</time></trkpt><trkpt lat="43.99374436798589" lon="10.554731068505525"><ele>106.0</ele><time>2026-04-04T09:27:20Z</time></trkpt><trkpt lat="43.99388559392327" lon="10.554860535278273"><ele>107.0</ele><time>2026-04-04T09:27:21Z</time></trkpt><trkpt lat="43.99403077352166" lon="10.55498108166427"><ele>103.66666666666666</ele><time>2026-04-04T09:27:22Z</time></trkpt><trkpt lat="43.994176705166986" lon="10.555084329847967"><ele>100.33333333333334</ele><time>2026-04-04T09:27:23Z</time></trkpt><trkpt lat="43.99432470735463" lon="10.555175695641088"><ele>97.0</ele><time>2026-04-04T09:27:24Z</time></trkpt><trkpt lat="43.99446624082534" lon="10.555293831599881"><ele>100.0</ele><time>2026-04-04T09:27:25Z</time></trkpt><trkpt lat="43.99460810049255" lon="10.555397653174609"><ele>103.0</ele><time>2026-04-04T09:27:26Z</time></trkpt><trkpt lat="43.99474558560906" lon="10.555539951023993"><ele>106.0</ele><time>2026-04-04T09:27:27Z</time></trkpt><trkpt lat="43.994876551709055" lon="10.555699868462957"><ele>104.33333333333334</ele><time>2026-04-04T09:27:28Z</time></trkpt><trkpt lat="43.99501614871833" lon="10.555851926599471"><ele>102.66666666666666</ele><time>2026-04-04T09:27:29Z</time></trkpt><trkpt lat="43.995152007751294" lon="10.556012232845024"><ele>101.0</ele><time>2026-04-04T09:27:30Z</time></trkpt><trkpt lat="43.995306294480805" lon="10.556147032438057"><ele>105.66666666666666</ele><time>2026-04-04T09:27:31Z</time></trkpt><trkpt lat="43.995472464408714" lon="10.556242546103865"><ele>110.33333333333334</ele><time>2026-04-04T09:27:32Z</time></trkpt><trkpt lat="43.995640262525356" lon="10.556310998708726"><ele>115.0</ele><time>2026-04-04T09:27:33Z</time></trkpt><trkpt lat="43.995796340038346" lon="10.556359931128313"><ele>112.75</ele><time>2026-04-04T09:27:34Z</time></trkpt><trkpt lat="43.99594124932445" lon="10.556405261660595"><ele>110.5</ele><time>2026-04-04T09:27:35Z</time></trkpt><trkpt lat="43.99608333956252" lon="10.556456328090102"><ele>108.25</ele><time>2026-04-04T09:27:36Z</time></trkpt><trkpt lat="43.99622526575642" lon="10.55650504944493"><ele>106.0</ele><time>2026-04-04T09:27:37Z</time></trkpt><trkpt lat="43.996368355091775" lon="10.556568771196549"><ele>106.0</ele><time>2026-04-04T09:27:38Z</time></trkpt><trkpt lat="43.99650638830668" lon="10.556636438374055"><ele>106.0</ele><time>2026-04-04T09:27:39Z</time></trkpt><trkpt lat="43.9966572142449" lon="10.556714095555478"><ele>106.0</ele><time>2026-04-04T09:27:40Z</time></trkpt><trkpt lat="43.996810037633594" lon="10.556789595993598"><ele>106.0</ele><time>2026-04-04T09:27:41Z</time></trkpt><trkpt lat="43.99695503450245" lon="10.556855051995951"><ele>106.0</ele><time>2026-04-04T09:27:42Z</time></trkpt><trkpt lat="43.99708718558739" lon="10.556915187205533"><ele>106.0</ele><time>2026-04-04T09:27:43Z</time></trkpt><trkpt lat="43.99722157330681" lon="10.556978972678882"><ele>106.0</ele><time>2026-04-04T09:27:44Z</time></trkpt><trkpt lat="43.99735586984504" lon="10.557054015374707"><ele>106.0</ele><time>2026-04-04T09:27:45Z</time></trkpt><trkpt lat="43.99749117572492" lon="10.557147876429081"><ele>106.0</ele><time>2026-04-04T09:27:46Z</time></trkpt><trkpt lat="43.99762404547883" lon="10.557254060738945"><ele>106.0</ele><time>2026-04-04T09:27:47Z</time></trkpt><trkpt lat="43.997755057519825" lon="10.557355444521093"><ele>106.0</ele><time>2026-04-04T09:27:48Z</time></trkpt><trkpt lat="43.99789171693229" lon="10.557456437737988"><ele>106.0</ele><time>2026-04-04T09:27:49Z</time></trkpt><trkpt lat="43.99803066594107" lon="10.557559317245198"><ele>106.0</ele><time>2026-04-04T09:27:50Z</time></trkpt><trkpt lat="43.9981775736066" lon="10.557660063852781"><ele>106.0</ele><time>2026-04-04T09:27:51Z</time></trkpt><trkpt lat="43.99832538161496" lon="10.557767856098986"><ele>106.0</ele><time>2026-04-04T09:27:52Z</time></trkpt><trkpt lat="43.998466438651484" lon="10.557869267668398"><ele>106.0</ele><time>2026-04-04T09:27:53Z</time></trkpt><trkpt lat="43.9986122400477" lon="10.557972663782984"><ele>107.33333333333334</ele><time>2026-04-04T09:27:54Z</time></trkpt><trkpt lat="43.998748179481446" lon="10.558070565506423"><ele>108.66666666666666</ele><time>2026-04-04T09:27:55Z</time></trkpt><trkpt lat="43.998887978528835" lon="10.558166918598708"><ele>110.0</ele><time>2026-04-04T09:27:56Z</time></trkpt><trkpt lat="43.999023312909124" lon="10.558265456633976"><ele>110.0</ele><time>2026-04-04T09:27:57Z</time></trkpt><trkpt lat="43.99915608707086" lon="10.558354379257821"><ele>110.0</ele><time>2026-04-04T09:27:58Z</time></trkpt><trkpt lat="43.99928202405955" lon="10.558441249539396"><ele>110.0</ele><time>2026-04-04T09:27:59Z</time></trkpt><trkpt lat="43.99940978895026" lon="10.55853193408821"><ele>110.0</ele><time>2026-04-04T09:28:00Z</time></trkpt><trkpt lat="43.999531590885" lon="10.55861988567359"><ele>110.2</ele><time>2026-04-04T09:28:01Z</time></trkpt><trkpt lat="43.999643807148885" lon="10.558702399561666"><ele>110.4</ele><time>2026-04-04T09:28:02Z</time></trkpt><trkpt lat="43.99975003808435" lon="10.558778668462022"><ele>110.6</ele><time>2026-04-04T09:28:03Z</time></trkpt><trkpt lat="43.99984621687059" lon="10.55884758179803"><ele>110.8</ele><time>2026-04-04T09:28:04Z</time></trkpt><trkpt lat="43.999927087349874" lon="10.558907861760355"><ele>111.0</ele><time>2026-04-04T09:28:05Z</time></trkpt><trkpt lat="43.99999549786884" lon="10.55895988317289"><ele>111.0</ele><time>2026-04-04T09:28:06Z</time></trkpt><trkpt lat="44.00005358284358" lon="10.559004199365658"><ele>111.0</ele><time>2026-04-04T09:28:07Z</time></trkpt><trkpt lat="44.00015538289267" lon="10.559078323164396"><ele>111.0</ele><time>2026-04-04T09:28:09Z</time></trkpt><trkpt lat="44.000248182061924" lon="10.55892187946911"><ele>111.0</ele><time>2026-04-04T09:28:10Z</time></trkpt><trkpt lat="44.00032105422049" lon="10.558795945810543"><ele>111.0</ele><time>2026-04-04T09:28:11Z</time></trkpt><trkpt lat="44.00040517103002" lon="10.558669260217204"><ele>109.66666666666666</ele><time>2026-04-04T09:28:12Z</time></trkpt><trkpt lat="44.00052165494066" lon="10.558546003459353"><ele>108.33333333333333</ele><time>2026-04-04T09:28:13Z</time></trkpt><trkpt lat="44.00068847583694" lon="10.558414632667304"><ele>107.0</ele><time>2026-04-04T09:28:14Z</time></trkpt><trkpt lat="44.00085801449845" lon="10.558310818548163"><ele>107.0</ele><time>2026-04-04T09:28:15Z</time></trkpt><trkpt lat="44.000993692148256" lon="10.558223627993266"><ele>107.0</ele><time>2026-04-04T09:28:16Z</time></trkpt><trkpt lat="44.00112982338797" lon="10.55813617505755"><ele>107.0</ele><time>2026-04-04T09:28:17Z</time></trkpt><trkpt lat="44.001259022084994" lon="10.558046280784508"><ele>107.0</ele><time>2026-04-04T09:28:18Z</time></trkpt><trkpt lat="44.00138829700433" lon="10.557964301340228"><ele>107.0</ele><time>2026-04-04T09:28:19Z</time></trkpt><trkpt lat="44.00151733647916" lon="10.557876092741301"><ele>107.0</ele><time>2026-04-04T09:28:20Z</time></trkpt><trkpt lat="44.00165642949269" lon="10.55778576773631"><ele>107.0</ele><time>2026-04-04T09:28:21Z</time></trkpt><trkpt lat="44.00179153074815" lon="10.557693601486378"><ele>107.0</ele><time>2026-04-04T09:28:22Z</time></trkpt><trkpt lat="44.00193016155868" lon="10.557598965546594"><ele>104.66666666666666</ele><time>2026-04-04T09:28:23Z</time></trkpt><trkpt lat="44.002072119226" lon="10.55750552067428"><ele>102.33333333333334</ele><time>2026-04-04T09:28:24Z</time></trkpt><trkpt lat="44.002213920263074" lon="10.55741171515203"><ele>100.0</ele><time>2026-04-04T09:28:25Z</time></trkpt><trkpt lat="44.00235487843028" lon="10.557315143240334"><ele>100.0</ele><time>2026-04-04T09:28:26Z</time></trkpt><trkpt lat="44.00249745690692" lon="10.557219459866262"><ele>100.0</ele><time>2026-04-04T09:28:27Z</time></trkpt><trkpt lat="44.002642062094914" lon="10.557122371675614"><ele>100.0</ele><time>2026-04-04T09:28:28Z</time></trkpt><trkpt lat="44.00278247008652" lon="10.557024956576628"><ele>101.66666666666667</ele><time>2026-04-04T09:28:29Z</time></trkpt><trkpt lat="44.002924394612265" lon="10.556927473240616"><ele>103.33333333333334</ele><time>2026-04-04T09:28:30Z</time></trkpt><trkpt lat="44.003066951616724" lon="10.55682858459174"><ele>105.0</ele><time>2026-04-04T09:28:31Z</time></trkpt><trkpt lat="44.003212205795975" lon="10.556729871292458"><ele>106.33333333333334</ele><time>2026-04-04T09:28:32Z</time></trkpt><trkpt lat="44.00335555890952" lon="10.556634297140263"><ele>107.66666666666667</ele><time>2026-04-04T09:28:33Z</time></trkpt><trkpt lat="44.00350147914324" lon="10.556539784924132"><ele>109.0</ele><time>2026-04-04T09:28:34Z</time></trkpt><trkpt lat="44.003641606151774" lon="10.556448741403168"><ele>109.0</ele><time>2026-04-04T09:28:35Z</time></trkpt><trkpt lat="44.00378671089821" lon="10.556353876477012"><ele>109.0</ele><time>2026-04-04T09:28:36Z</time></trkpt><trkpt lat="44.00392694027227" lon="10.556260693664125"><ele>109.0</ele><time>2026-04-04T09:28:37Z</time></trkpt><trkpt lat="44.00406506521605" lon="10.556165718618141"><ele>109.33333333333334</ele><time>2026-04-04T09:28:38Z</time></trkpt><trkpt lat="44.004203510720885" lon="10.556069217911968"><ele>109.66666666666666</ele><time>2026-04-04T09:28:39Z</time></trkpt><trkpt lat="44.00434124237222" lon="10.55597682419405"><ele>110.0</ele><time>2026-04-04T09:28:40Z</time></trkpt><trkpt lat="44.004476140393486" lon="10.555889612998893"><ele>110.0</ele><time>2026-04-04T09:28:41Z</time></trkpt><trkpt lat="44.004606482821465" lon="10.555804434572302"><ele>110.0</ele><time>2026-04-04T09:28:42Z</time></trkpt><trkpt lat="44.004729971288825" lon="10.55572152032679"><ele>110.0</ele><time>2026-04-04T09:28:43Z</time></trkpt><trkpt lat="44.00484187887494" lon="10.555648147548588"><ele>110.0</ele><time>2026-04-04T09:28:44Z</time></trkpt><trkpt lat="44.004942340340286" lon="10.555578755688396"><ele>110.8</ele><time>2026-04-04T09:28:45Z</time></trkpt><trkpt lat="44.005037735197725" lon="10.555514677969812"><ele>111.6</ele><time>2026-04-04T09:28:46Z</time></trkpt><trkpt lat="44.005113282893014" lon="10.555420442371041"><ele>112.4</ele><time>2026-04-04T09:28:47Z</time></trkpt><trkpt lat="44.00516290473751" lon="10.555290269465404"><ele>113.2</ele><time>2026-04-04T09:28:48Z</time></trkpt><trkpt lat="44.00517795983905" lon="10.555135392995446"><ele>114.0</ele><time>2026-04-04T09:28:49Z</time></trkpt><trkpt lat="44.00519169620888" lon="10.554994490448047"><ele>114.5</ele><time>2026-04-04T09:28:50Z</time></trkpt><trkpt lat="44.00514179070021" lon="10.554822665858083"><ele>115.0</ele><time>2026-04-04T09:28:51Z</time></trkpt><trkpt lat="44.00508019009423" lon="10.554647355536266"><ele>115.5</ele><time>2026-04-04T09:28:52Z</time></trkpt><trkpt lat="44.00502161090506" lon="10.55447088718579"><ele>116.0</ele><time>2026-04-04T09:28:53Z</time></trkpt><trkpt lat="44.00496804668149" lon="10.554290946076993"><ele>115.0</ele><time>2026-04-04T09:28:54Z</time></trkpt><trkpt lat="44.00491659846658" lon="10.554104049152137"><ele>114.0</ele><time>2026-04-04T09:28:55Z</time></trkpt><trkpt lat="44.00486535206719" lon="10.553908973154018"><ele>113.0</ele><time>2026-04-04T09:28:56Z</time></trkpt><trkpt lat="44.00481145982773" lon="10.55372015574333"><ele>112.0</ele><time>2026-04-04T09:28:57Z</time></trkpt><trkpt lat="44.004748790953315" lon="10.553542124769123"><ele>112.0</ele><time>2026-04-04T09:28:58Z</time></trkpt><trkpt lat="44.00468007889398" lon="10.553368401100954"><ele>112.0</ele><time>2026-04-04T09:28:59Z</time></trkpt><trkpt lat="44.004611218132226" lon="10.553193514025459"><ele>112.0</ele><time>2026-04-04T09:29:00Z</time></trkpt><trkpt lat="44.00454769190251" lon="10.553016262221606"><ele>112.0</ele><time>2026-04-04T09:29:01Z</time></trkpt><trkpt lat="44.00448285623311" lon="10.55285602508581"><ele>113.25</ele><time>2026-04-04T09:29:02Z</time></trkpt><trkpt lat="44.004409833314966" lon="10.552716920292"><ele>114.5</ele><time>2026-04-04T09:29:03Z</time></trkpt><trkpt lat="44.00433092212786" lon="10.552593233312333"><ele>115.75</ele><time>2026-04-04T09:29:04Z</time></trkpt><trkpt lat="44.004266627385924" lon="10.552450658779263"><ele>117.0</ele><time>2026-04-04T09:29:05Z</time></trkpt><trkpt lat="44.00423128605814" lon="10.552278105165186"><ele>117.0</ele><time>2026-04-04T09:29:06Z</time></trkpt><trkpt lat="44.00422722813045" lon="10.55209913139641"><ele>117.0</ele><time>2026-04-04T09:29:07Z</time></trkpt><trkpt lat="44.00425573580083" lon="10.551916376019552"><ele>117.0</ele><time>2026-04-04T09:29:08Z</time></trkpt><trkpt lat="44.00433214239783" lon="10.551763575684241"><ele>117.0</ele><time>2026-04-04T09:29:09Z</time></trkpt><trkpt lat="44.00441218981458" lon="10.551616500906855"><ele>116.0</ele><time>2026-04-04T09:29:10Z</time></trkpt><trkpt lat="44.00454049198486" lon="10.551542078342651"><ele>115.0</ele><time>2026-04-04T09:29:11Z</time></trkpt><trkpt lat="44.00467349959536" lon="10.55146977813797"><ele>114.0</ele><time>2026-04-04T09:29:12Z</time></trkpt><trkpt lat="44.00486080001166" lon="10.551359735892001"><ele>114.0</ele><time>2026-04-04T09:29:13Z</time></trkpt><trkpt lat="44.00502618983857" lon="10.551198497508786"><ele>114.0</ele><time>2026-04-04T09:29:14Z</time></trkpt><trkpt lat="44.00522084393839" lon="10.550978192424934"><ele>114.0</ele><time>2026-04-04T09:29:15Z</time></trkpt><trkpt lat="44.0054435460947" lon="10.55076264869147"><ele>114.0</ele><time>2026-04-04T09:29:16Z</time></trkpt><trkpt lat="44.00563089582795" lon="10.550600128297711"><ele>114.0</ele><time>2026-04-04T09:29:17Z</time></trkpt><trkpt lat="44.00579148129531" lon="10.550463513656227"><ele>114.0</ele><time>2026-04-04T09:29:18Z</time></trkpt><trkpt lat="44.00594236714974" lon="10.550352454773785"><ele>114.0</ele><time>2026-04-04T09:29:19Z</time></trkpt><trkpt lat="44.00608738979431" lon="10.550255397972556"><ele>115.33333333333334</ele><time>2026-04-04T09:29:20Z</time></trkpt><trkpt lat="44.00623413836692" lon="10.550176886479251"><ele>116.66666666666667</ele><time>2026-04-04T09:29:21Z</time></trkpt><trkpt lat="44.00638005989969" lon="10.550118778262975"><ele>118.0</ele><time>2026-04-04T09:29:22Z</time></trkpt><trkpt lat="44.006530834245844" lon="10.550077971466356"><ele>122.33333333333334</ele><time>2026-04-04T09:29:23Z</time></trkpt><trkpt lat="44.006682634791176" lon="10.550039643931887"><ele>126.66666666666666</ele><time>2026-04-04T09:29:24Z</time></trkpt><trkpt lat="44.00683697995041" lon="10.549998698243176"><ele>131.0</ele><time>2026-04-04T09:29:25Z</time></trkpt><trkpt lat="44.00698653205609" lon="10.54995272798208"><ele>131.0</ele><time>2026-04-04T09:29:26Z</time></trkpt><trkpt lat="44.00713492942004" lon="10.549893620298313"><ele>131.0</ele><time>2026-04-04T09:29:27Z</time></trkpt><trkpt lat="44.00727900171386" lon="10.549809869776178"><ele>131.0</ele><time>2026-04-04T09:29:28Z</time></trkpt><trkpt lat="44.0074231511623" lon="10.549703522651452"><ele>130.33333333333331</ele><time>2026-04-04T09:29:29Z</time></trkpt><trkpt lat="44.007570543832045" lon="10.54958998330823"><ele>129.66666666666666</ele><time>2026-04-04T09:29:30Z</time></trkpt><trkpt lat="44.007719516708285" lon="10.549468974559678"><ele>129.0</ele><time>2026-04-04T09:29:31Z</time></trkpt><trkpt lat="44.00786025002349" lon="10.549355658599298"><ele>129.0</ele><time>2026-04-04T09:29:32Z</time></trkpt><trkpt lat="44.00799119500437" lon="10.549243184234847"><ele>129.0</ele><time>2026-04-04T09:29:33Z</time></trkpt><trkpt lat="44.00811022468744" lon="10.549129654471665"><ele>129.0</ele><time>2026-04-04T09:29:34Z</time></trkpt><trkpt lat="44.00821397331519" lon="10.549004706827983"><ele>129.0</ele><time>2026-04-04T09:29:35Z</time></trkpt><trkpt lat="44.00829426186868" lon="10.548860374222588"><ele>130.5</ele><time>2026-04-04T09:29:36Z</time></trkpt><trkpt lat="44.00835352690613" lon="10.548700812720455"><ele>132.0</ele><time>2026-04-04T09:29:37Z</time></trkpt><trkpt lat="44.008377106529004" lon="10.548522142705245"><ele>133.5</ele><time>2026-04-04T09:29:38Z</time></trkpt><trkpt lat="44.0083722474245" lon="10.548355118943112"><ele>135.0</ele><time>2026-04-04T09:29:39Z</time></trkpt><trkpt lat="44.00836472254508" lon="10.548210217348801"><ele>135.0</ele><time>2026-04-04T09:29:40Z</time></trkpt><trkpt lat="44.008357320797884" lon="10.54808305305699"><ele>135.0</ele><time>2026-04-04T09:29:41Z</time></trkpt><trkpt lat="44.00834896817148" lon="10.547964368514487"><ele>135.0</ele><time>2026-04-04T09:29:42Z</time></trkpt><trkpt lat="44.00834468964334" lon="10.547854233360056"><ele>135.0</ele><time>2026-04-04T09:29:43Z</time></trkpt><trkpt lat="44.008366365627154" lon="10.547736702686649"><ele>135.0</ele><time>2026-04-04T09:29:44Z</time></trkpt><trkpt lat="44.00841731870672" lon="10.547628788887952"><ele>135.0</ele><time>2026-04-04T09:29:45Z</time></trkpt><trkpt lat="44.00851648140702" lon="10.547542479149179"><ele>132.8</ele><time>2026-04-04T09:29:46Z</time></trkpt><trkpt lat="44.00862094144863" lon="10.547471725354939"><ele>130.6</ele><time>2026-04-04T09:29:47Z</time></trkpt><trkpt lat="44.00872446040526" lon="10.547427554724832"><ele>128.4</ele><time>2026-04-04T09:29:48Z</time></trkpt><trkpt lat="44.00882348296737" lon="10.547392091883612"><ele>126.2</ele><time>2026-04-04T09:29:49Z</time></trkpt><trkpt lat="44.00891520695828" lon="10.54735470581836"><ele>124.0</ele><time>2026-04-04T09:29:50Z</time></trkpt><trkpt lat="44.00900894123112" lon="10.547319379980513"><ele>124.0</ele><time>2026-04-04T09:29:51Z</time></trkpt><trkpt lat="44.00909622347796" lon="10.547287601114634"><ele>124.0</ele><time>2026-04-04T09:29:52Z</time></trkpt><trkpt lat="44.009182441914426" lon="10.5472523988988"><ele>124.0</ele><time>2026-04-04T09:29:53Z</time></trkpt><trkpt lat="44.00927269328001" lon="10.547213685525174"><ele>124.0</ele><time>2026-04-04T09:29:54Z</time></trkpt><trkpt lat="44.00937852745813" lon="10.547178442707745"><ele>124.0</ele><time>2026-04-04T09:29:55Z</time></trkpt><trkpt lat="44.0094937694716" lon="10.547162115297184"><ele>126.25</ele><time>2026-04-04T09:29:56Z</time></trkpt><trkpt lat="44.009623639175274" lon="10.547169371101303"><ele>128.5</ele><time>2026-04-04T09:29:57Z</time></trkpt><trkpt lat="44.00975886815997" lon="10.547180634802368"><ele>130.75</ele><time>2026-04-04T09:29:58Z</time></trkpt><trkpt lat="44.009899127400445" lon="10.54718794039606"><ele>133.0</ele><time>2026-04-04T09:29:59Z</time></trkpt><trkpt lat="44.01003929998865" lon="10.547188725758396"><ele>133.25</ele><time>2026-04-04T09:30:00Z</time></trkpt><trkpt lat="44.01017840609938" lon="10.547188620451236"><ele>133.5</ele><time>2026-04-04T09:30:01Z</time></trkpt><trkpt lat="44.01031420422032" lon="10.54717487211403"><ele>133.75</ele><time>2026-04-04T09:30:02Z</time></trkpt><trkpt lat="44.010443480063365" lon="10.547140128409124"><ele>134.0</ele><time>2026-04-04T09:30:03Z</time></trkpt><trkpt lat="44.01056440765496" lon="10.547085457124247"><ele>130.75</ele><time>2026-04-04T09:30:04Z</time></trkpt><trkpt lat="44.01067566030037" lon="10.54702619064747"><ele>127.5</ele><time>2026-04-04T09:30:05Z</time></trkpt><trkpt lat="44.01078171137282" lon="10.546957278185502"><ele>124.25</ele><time>2026-04-04T09:30:06Z</time></trkpt><trkpt lat="44.01088303202956" lon="10.546875222856688"><ele>121.0</ele><time>2026-04-04T09:30:07Z</time></trkpt><trkpt lat="44.010977494014654" lon="10.546775502435233"><ele>121.0</ele><time>2026-04-04T09:30:08Z</time></trkpt><trkpt lat="44.01107136683564" lon="10.546663379671962"><ele>121.0</ele><time>2026-04-04T09:30:09Z</time></trkpt><trkpt lat="44.011162167326574" lon="10.546534701210424"><ele>121.0</ele><time>2026-04-04T09:30:10Z</time></trkpt><trkpt lat="44.01124752464277" lon="10.546389486218812"><ele>121.0</ele><time>2026-04-04T09:30:11Z</time></trkpt><trkpt lat="44.01132377520865" lon="10.546228382456656"><ele>119.5</ele><time>2026-04-04T09:30:12Z</time></trkpt><trkpt lat="44.01140228328217" lon="10.54606875446695"><ele>118.0</ele><time>2026-04-04T09:30:13Z</time></trkpt><trkpt lat="44.01148587715176" lon="10.545913819128694"><ele>116.5</ele><time>2026-04-04T09:30:14Z</time></trkpt><trkpt lat="44.01156668775189" lon="10.545763089482499"><ele>115.0</ele><time>2026-04-04T09:30:15Z</time></trkpt><trkpt lat="44.011642602448276" lon="10.545620750579358"><ele>116.25</ele><time>2026-04-04T09:30:16Z</time></trkpt><trkpt lat="44.01171354509058" lon="10.545483771526373"><ele>117.5</ele><time>2026-04-04T09:30:17Z</time></trkpt><trkpt lat="44.01178358494991" lon="10.545346858036027"><ele>118.75</ele><time>2026-04-04T09:30:18Z</time></trkpt><trkpt lat="44.011855463522046" lon="10.545210018209778"><ele>120.0</ele><time>2026-04-04T09:30:19Z</time></trkpt><trkpt lat="44.01192945379244" lon="10.545075545659271"><ele>120.0</ele><time>2026-04-04T09:30:20Z</time></trkpt><trkpt lat="44.0120026537154" lon="10.544929413200562"><ele>120.0</ele><time>2026-04-04T09:30:21Z</time></trkpt><trkpt lat="44.01208747648442" lon="10.544798129763981"><ele>120.0</ele><time>2026-04-04T09:30:22Z</time></trkpt><trkpt lat="44.01217938585756" lon="10.544668816357465"><ele>120.0</ele><time>2026-04-04T09:30:23Z</time></trkpt><trkpt lat="44.012276610302806" lon="10.54455149670702"><ele>120.5</ele><time>2026-04-04T09:30:24Z</time></trkpt><trkpt lat="44.01237872286245" lon="10.544443261419861"><ele>121.0</ele><time>2026-04-04T09:30:25Z</time></trkpt><trkpt lat="44.0124841327723" lon="10.544339348249467"><ele>121.5</ele><time>2026-04-04T09:30:26Z</time></trkpt><trkpt lat="44.01259697905394" lon="10.544232232129565"><ele>122.0</ele><time>2026-04-04T09:30:27Z</time></trkpt><trkpt lat="44.01271416051829" lon="10.544124416225923"><ele>122.0</ele><time>2026-04-04T09:30:28Z</time></trkpt><trkpt lat="44.01283284691827" lon="10.544017941306281"><ele>122.0</ele><time>2026-04-04T09:30:29Z</time></trkpt><trkpt lat="44.01295861836264" lon="10.543911534553345"><ele>122.0</ele><time>2026-04-04T09:30:30Z</time></trkpt><trkpt lat="44.01308826180488" lon="10.543800506198394"><ele>122.0</ele><time>2026-04-04T09:30:31Z</time></trkpt><trkpt lat="44.01321917334365" lon="10.54367669562772"><ele>121.66666666666666</ele><time>2026-04-04T09:30:32Z</time></trkpt><trkpt lat="44.013354715261066" lon="10.54356174369489"><ele>121.33333333333334</ele><time>2026-04-04T09:30:33Z</time></trkpt><trkpt lat="44.01349665423441" lon="10.543438568181347"><ele>121.0</ele><time>2026-04-04T09:30:34Z</time></trkpt><trkpt lat="44.01363673498493" lon="10.543308619317445"><ele>121.0</ele><time>2026-04-04T09:30:35Z</time></trkpt><trkpt lat="44.01377154646687" lon="10.543199049981853"><ele>121.0</ele><time>2026-04-04T09:30:36Z</time></trkpt><trkpt lat="44.01390303117359" lon="10.543084233625676"><ele>121.0</ele><time>2026-04-04T09:30:37Z</time></trkpt><trkpt lat="44.01402796615636" lon="10.542974385266653"><ele>121.0</ele><time>2026-04-04T09:30:38Z</time></trkpt><trkpt lat="44.014152828453994" lon="10.542869870610284"><ele>121.0</ele><time>2026-04-04T09:30:39Z</time></trkpt><trkpt lat="44.01427577695787" lon="10.542763600296396"><ele>121.0</ele><time>2026-04-04T09:30:40Z</time></trkpt><trkpt lat="44.01439408421967" lon="10.542661335166269"><ele>121.0</ele><time>2026-04-04T09:30:41Z</time></trkpt><trkpt lat="44.0144994671792" lon="10.542562080055465"><ele>121.0</ele><time>2026-04-04T09:30:42Z</time></trkpt><trkpt lat="44.01460201250527" lon="10.542481450297215"><ele>121.0</ele><time>2026-04-04T09:30:43Z</time></trkpt><trkpt lat="44.01470061883243" lon="10.542393615068887"><ele>121.0</ele><time>2026-04-04T09:30:44Z</time></trkpt><trkpt lat="44.014803520053626" lon="10.542313169253433"><ele>121.0</ele><time>2026-04-04T09:30:45Z</time></trkpt><trkpt lat="44.01490283084173" lon="10.542229540881003"><ele>122.25</ele><time>2026-04-04T09:30:46Z</time></trkpt><trkpt lat="44.015006172940666" lon="10.542149267170155"><ele>123.5</ele><time>2026-04-04T09:30:47Z</time></trkpt><trkpt lat="44.0151150920765" lon="10.542087974330407"><ele>124.75</ele><time>2026-04-04T09:30:48Z</time></trkpt><trkpt lat="44.01523342340798" lon="10.54204915766583"><ele>126.0</ele><time>2026-04-04T09:30:49Z</time></trkpt><trkpt lat="44.01536814243961" lon="10.54202395753777"><ele>125.25</ele><time>2026-04-04T09:30:50Z</time></trkpt><trkpt lat="44.015509280069935" lon="10.542010260740556"><ele>124.5</ele><time>2026-04-04T09:30:51Z</time></trkpt><trkpt lat="44.01565737802969" lon="10.541986469048256"><ele>123.75</ele><time>2026-04-04T09:30:52Z</time></trkpt><trkpt lat="44.015796123190114" lon="10.541958994820446"><ele>123.0</ele><time>2026-04-04T09:30:53Z</time></trkpt><trkpt lat="44.015938886729344" lon="10.54193159206664"><ele>123.0</ele><time>2026-04-04T09:30:54Z</time></trkpt><trkpt lat="44.01608386256682" lon="10.5419049728458"><ele>123.0</ele><time>2026-04-04T09:30:55Z</time></trkpt><trkpt lat="44.01622603013413" lon="10.541877541715133"><ele>123.0</ele><time>2026-04-04T09:30:56Z</time></trkpt><trkpt lat="44.016357689506755" lon="10.5418528458555"><ele>123.0</ele><time>2026-04-04T09:30:57Z</time></trkpt><trkpt lat="44.01648228826757" lon="10.54183001452026"><ele>123.0</ele><time>2026-04-04T09:30:58Z</time></trkpt><trkpt lat="44.01660525896155" lon="10.54183503982409"><ele>123.0</ele><time>2026-04-04T09:30:59Z</time></trkpt><trkpt lat="44.01672068094051" lon="10.541921426714067"><ele>123.0</ele><time>2026-04-04T09:31:00Z</time></trkpt><trkpt lat="44.016846935265065" lon="10.541992575821771"><ele>123.0</ele><time>2026-04-04T09:31:01Z</time></trkpt><trkpt lat="44.01697774873577" lon="10.542053360918914"><ele>125.0</ele><time>2026-04-04T09:31:02Z</time></trkpt><trkpt lat="44.01711056773407" lon="10.542133763344731"><ele>127.0</ele><time>2026-04-04T09:31:03Z</time></trkpt><trkpt lat="44.01724685494023" lon="10.542214778291903"><ele>129.0</ele><time>2026-04-04T09:31:04Z</time></trkpt><trkpt lat="44.01738389323057" lon="10.542286062960432"><ele>131.0</ele><time>2026-04-04T09:31:05Z</time></trkpt><trkpt lat="44.01750796831042" lon="10.542374928671618"><ele>131.0</ele><time>2026-04-04T09:31:06Z</time></trkpt><trkpt lat="44.01762070167745" lon="10.542479607127625"><ele>131.0</ele><time>2026-04-04T09:31:07Z</time></trkpt><trkpt lat="44.017725735860644" lon="10.542614392116114"><ele>131.0</ele><time>2026-04-04T09:31:08Z</time></trkpt><trkpt lat="44.01781463483167" lon="10.542784351629386"><ele>131.0</ele><time>2026-04-04T09:31:09Z</time></trkpt><trkpt lat="44.017933326398094" lon="10.542918933500323"><ele>134.0</ele><time>2026-04-04T09:31:10Z</time></trkpt><trkpt lat="44.01804509528856" lon="10.543071084620458"><ele>137.0</ele><time>2026-04-04T09:31:11Z</time></trkpt><trkpt lat="44.01815594005964" lon="10.543226888886187"><ele>140.0</ele><time>2026-04-04T09:31:12Z</time></trkpt><trkpt lat="44.01827069510926" lon="10.543387124112057"><ele>140.66666666666666</ele><time>2026-04-04T09:31:13Z</time></trkpt><trkpt lat="44.0183890555535" lon="10.543550997864132"><ele>141.33333333333334</ele><time>2026-04-04T09:31:14Z</time></trkpt><trkpt lat="44.01850929002736" lon="10.543715281361582"><ele>142.0</ele><time>2026-04-04T09:31:15Z</time></trkpt><trkpt lat="44.01862695887659" lon="10.543875682110087"><ele>142.0</ele><time>2026-04-04T09:31:16Z</time></trkpt><trkpt lat="44.01875164167673" lon="10.544037529545479"><ele>142.0</ele><time>2026-04-04T09:31:17Z</time></trkpt><trkpt lat="44.01888468977855" lon="10.544186784856704"><ele>142.0</ele><time>2026-04-04T09:31:18Z</time></trkpt><trkpt lat="44.01902505090469" lon="10.544318832670882"><ele>142.0</ele><time>2026-04-04T09:31:19Z</time></trkpt><trkpt lat="44.01917649042226" lon="10.544444396310825"><ele>142.0</ele><time>2026-04-04T09:31:20Z</time></trkpt><trkpt lat="44.019332453650804" lon="10.544571295447339"><ele>142.0</ele><time>2026-04-04T09:31:21Z</time></trkpt><trkpt lat="44.01948375424917" lon="10.544695700072955"><ele>142.0</ele><time>2026-04-04T09:31:22Z</time></trkpt><trkpt lat="44.01963994492095" lon="10.544823455720035"><ele>142.0</ele><time>2026-04-04T09:31:23Z</time></trkpt><trkpt lat="44.01979208062675" lon="10.544957934591539"><ele>142.0</ele><time>2026-04-04T09:31:24Z</time></trkpt><trkpt lat="44.019947427903894" lon="10.545091295458075"><ele>143.66666666666669</ele><time>2026-04-04T09:31:25Z</time></trkpt><trkpt lat="44.020102388647075" lon="10.545226718012032"><ele>145.33333333333334</ele><time>2026-04-04T09:31:26Z</time></trkpt><trkpt lat="44.02025413929151" lon="10.545354611540787"><ele>147.0</ele><time>2026-04-04T09:31:27Z</time></trkpt><trkpt lat="44.02040075947692" lon="10.545481305839848"><ele>147.0</ele><time>2026-04-04T09:31:28Z</time></trkpt><trkpt lat="44.0205647828333" lon="10.54561722038824"><ele>147.0</ele><time>2026-04-04T09:31:29Z</time></trkpt><trkpt lat="44.020709084412424" lon="10.545732732591263"><ele>147.0</ele><time>2026-04-04T09:31:30Z</time></trkpt><trkpt lat="44.02083300792011" lon="10.545864342571765"><ele>146.33333333333334</ele><time>2026-04-04T09:31:31Z</time></trkpt><trkpt lat="44.02102346675538" lon="10.546008790609473"><ele>145.66666666666669</ele><time>2026-04-04T09:31:32Z</time></trkpt><trkpt lat="44.02116791456468" lon="10.546134402480295"><ele>145.0</ele><time>2026-04-04T09:31:33Z</time></trkpt><trkpt lat="44.02131287037188" lon="10.546257638976696"><ele>145.75</ele><time>2026-04-04T09:31:34Z</time></trkpt><trkpt lat="44.02144696854808" lon="10.546369935459365"><ele>146.5</ele><time>2026-04-04T09:31:35Z</time></trkpt><trkpt lat="44.02156727797957" lon="10.54647261696358"><ele>147.25</ele><time>2026-04-04T09:31:36Z</time></trkpt><trkpt lat="44.02166679186129" lon="10.546566177627952"><ele>148.0</ele><time>2026-04-04T09:31:37Z</time></trkpt><trkpt lat="44.02172276667806" lon="10.546663673354185"><ele>148.0</ele><time>2026-04-04T09:31:38Z</time></trkpt><trkpt lat="44.021779806857616" lon="10.546747693072906"><ele>148.0</ele><time>2026-04-04T09:31:39Z</time></trkpt><trkpt lat="44.02183327422405" lon="10.546852110429802"><ele>148.0</ele><time>2026-04-04T09:31:40Z</time></trkpt><trkpt lat="44.02188520089728" lon="10.546977455234076"><ele>148.0</ele><time>2026-04-04T09:31:41Z</time></trkpt><trkpt lat="44.02193781413211" lon="10.547119350487572"><ele>148.0</ele><time>2026-04-04T09:31:42Z</time></trkpt><trkpt lat="44.02199507513169" lon="10.54727573076488"><ele>149.75</ele><time>2026-04-04T09:31:43Z</time></trkpt><trkpt lat="44.02205462230498" lon="10.547442258786933"><ele>151.5</ele><time>2026-04-04T09:31:44Z</time></trkpt><trkpt lat="44.022116522230675" lon="10.54761212776577"><ele>153.25</ele><time>2026-04-04T09:31:45Z</time></trkpt><trkpt lat="44.022186580969155" lon="10.5477792753134"><ele>155.0</ele><time>2026-04-04T09:31:46Z</time></trkpt><trkpt lat="44.02226868760812" lon="10.547940362982546"><ele>155.25</ele><time>2026-04-04T09:31:47Z</time></trkpt><trkpt lat="44.02238055433987" lon="10.548066138236981"><ele>155.5</ele><time>2026-04-04T09:31:48Z</time></trkpt><trkpt lat="44.022507329595406" lon="10.548167618544449"><ele>155.75</ele><time>2026-04-04T09:31:49Z</time></trkpt><trkpt lat="44.02263931899116" lon="10.548262345472693"><ele>156.0</ele><time>2026-04-04T09:31:50Z</time></trkpt><trkpt lat="44.02276365332145" lon="10.54835443043439"><ele>156.0</ele><time>2026-04-04T09:31:51Z</time></trkpt><trkpt lat="44.02287747063616" lon="10.54843929076778"><ele>156.0</ele><time>2026-04-04T09:31:52Z</time></trkpt><trkpt lat="44.022986337668556" lon="10.548522373099244"><ele>156.0</ele><time>2026-04-04T09:31:53Z</time></trkpt><trkpt lat="44.02306732744763" lon="10.548648593957918"><ele>156.0</ele><time>2026-04-04T09:31:54Z</time></trkpt><trkpt lat="44.02312233838358" lon="10.54879698615805"><ele>159.5</ele><time>2026-04-04T09:31:55Z</time></trkpt><trkpt lat="44.02317308353678" lon="10.548967588738751"><ele>163.0</ele><time>2026-04-04T09:31:56Z</time></trkpt><trkpt lat="44.0232215935931" lon="10.549165134667847"><ele>166.5</ele><time>2026-04-04T09:31:57Z</time></trkpt><trkpt lat="44.023273136535124" lon="10.549376546476545"><ele>170.0</ele><time>2026-04-04T09:31:58Z</time></trkpt><trkpt lat="44.02332641770296" lon="10.549588871341385"><ele>170.5</ele><time>2026-04-04T09:31:59Z</time></trkpt><trkpt lat="44.0233785903953" lon="10.54979413870555"><ele>171.0</ele><time>2026-04-04T09:32:00Z</time></trkpt><trkpt lat="44.023441948648305" lon="10.549976441366052"><ele>171.5</ele><time>2026-04-04T09:32:01Z</time></trkpt><trkpt lat="44.02348590827102" lon="10.550146422333805"><ele>172.0</ele><time>2026-04-04T09:32:02Z</time></trkpt><trkpt lat="44.02352570126196" lon="10.5502991193582"><ele>175.0</ele><time>2026-04-04T09:32:03Z</time></trkpt><trkpt lat="44.023566091098616" lon="10.550451228337822"><ele>178.0</ele><time>2026-04-04T09:32:04Z</time></trkpt><trkpt lat="44.02360476634973" lon="10.550596376421296"><ele>181.0</ele><time>2026-04-04T09:32:05Z</time></trkpt><trkpt lat="44.02365328654209" lon="10.550727836884542"><ele>184.0</ele><time>2026-04-04T09:32:06Z</time></trkpt><trkpt lat="44.0237361829004" lon="10.550823761535554"><ele>187.0</ele><time>2026-04-04T09:32:07Z</time></trkpt><trkpt lat="44.02384379220332" lon="10.550859542070988"><ele>187.0</ele><time>2026-04-04T09:32:08Z</time></trkpt><trkpt lat="44.023949521718656" lon="10.550788779666531"><ele>187.0</ele><time>2026-04-04T09:32:09Z</time></trkpt><trkpt lat="44.02403748150293" lon="10.550674422204258"><ele>187.0</ele><time>2026-04-04T09:32:10Z</time></trkpt><trkpt lat="44.0241509631049" lon="10.550561691457764"><ele>187.0</ele><time>2026-04-04T09:32:11Z</time></trkpt><trkpt lat="44.02426606206309" lon="10.550554770802442"><ele>185.5</ele><time>2026-04-04T09:32:12Z</time></trkpt><trkpt lat="44.024391792844746" lon="10.550583641090162"><ele>184.0</ele><time>2026-04-04T09:32:13Z</time></trkpt><trkpt lat="44.024524490589" lon="10.550626240586315"><ele>182.5</ele><time>2026-04-04T09:32:14Z</time></trkpt><trkpt lat="44.02462560644012" lon="10.55071081220166"><ele>181.0</ele><time>2026-04-04T09:32:15Z</time></trkpt><trkpt lat="44.02472411412929" lon="10.550817149435979"><ele>181.0</ele><time>2026-04-04T09:32:16Z</time></trkpt><trkpt lat="44.02483335359906" lon="10.550938243498944"><ele>181.0</ele><time>2026-04-04T09:32:17Z</time></trkpt><trkpt lat="44.024955172627074" lon="10.551070605469068"><ele>181.0</ele><time>2026-04-04T09:32:18Z</time></trkpt><trkpt lat="44.02507736720097" lon="10.551214168135349"><ele>183.33333333333334</ele><time>2026-04-04T09:32:19Z</time></trkpt><trkpt lat="44.02521310504322" lon="10.551351682711438"><ele>185.66666666666666</ele><time>2026-04-04T09:32:20Z</time></trkpt><trkpt lat="44.025347365136206" lon="10.551495946271503"><ele>188.0</ele><time>2026-04-04T09:32:21Z</time></trkpt><trkpt lat="44.025484947080365" lon="10.551642244127345"><ele>188.0</ele><time>2026-04-04T09:32:22Z</time></trkpt><trkpt lat="44.025612953723275" lon="10.551779163845934"><ele>188.0</ele><time>2026-04-04T09:32:23Z</time></trkpt><trkpt lat="44.02574205104886" lon="10.551920393464206"><ele>188.0</ele><time>2026-04-04T09:32:24Z</time></trkpt><trkpt lat="44.02586733952462" lon="10.55205348463965"><ele>186.66666666666666</ele><time>2026-04-04T09:32:25Z</time></trkpt><trkpt lat="44.025991571113394" lon="10.552185422457645"><ele>185.33333333333334</ele><time>2026-04-04T09:32:26Z</time></trkpt><trkpt lat="44.0261178353934" lon="10.552316293766134"><ele>184.0</ele><time>2026-04-04T09:32:27Z</time></trkpt><trkpt lat="44.02623737524418" lon="10.552444690849088"><ele>184.0</ele><time>2026-04-04T09:32:28Z</time></trkpt><trkpt lat="44.02636392165373" lon="10.552580805703833"><ele>184.0</ele><time>2026-04-04T09:32:29Z</time></trkpt><trkpt lat="44.0264912730631" lon="10.552714634663701"><ele>184.0</ele><time>2026-04-04T09:32:30Z</time></trkpt><trkpt lat="44.02661853741565" lon="10.552849603332549"><ele>185.33333333333334</ele><time>2026-04-04T09:32:31Z</time></trkpt><trkpt lat="44.026744560339075" lon="10.552988559289581"><ele>186.66666666666666</ele><time>2026-04-04T09:32:32Z</time></trkpt><trkpt lat="44.0268666287806" lon="10.553123151158488"><ele>188.0</ele><time>2026-04-04T09:32:33Z</time></trkpt><trkpt lat="44.02699270038172" lon="10.553261089629844"><ele>188.0</ele><time>2026-04-04T09:32:34Z</time></trkpt><trkpt lat="44.0271203738025" lon="10.553400360042387"><ele>188.0</ele><time>2026-04-04T09:32:35Z</time></trkpt><trkpt lat="44.02724693227835" lon="10.553539125369314"><ele>188.0</ele><time>2026-04-04T09:32:36Z</time></trkpt><trkpt lat="44.02736883460268" lon="10.553671642141078"><ele>189.0</ele><time>2026-04-04T09:32:37Z</time></trkpt><trkpt lat="44.02749245962795" lon="10.553804800287226"><ele>190.0</ele><time>2026-04-04T09:32:38Z</time></trkpt><trkpt lat="44.027613842622536" lon="10.553934903404953"><ele>191.0</ele><time>2026-04-04T09:32:39Z</time></trkpt><trkpt lat="44.027739011412585" lon="10.554069538815181"><ele>191.0</ele><time>2026-04-04T09:32:40Z</time></trkpt><trkpt lat="44.02786164955559" lon="10.554197115267835"><ele>191.0</ele><time>2026-04-04T09:32:41Z</time></trkpt><trkpt lat="44.027987331172085" lon="10.554327745898139"><ele>191.0</ele><time>2026-04-04T09:32:42Z</time></trkpt><trkpt lat="44.0281003545352" lon="10.554475978734654"><ele>193.33333333333331</ele><time>2026-04-04T09:32:43Z</time></trkpt><trkpt lat="44.02822426024321" lon="10.554610458445067"><ele>195.66666666666666</ele><time>2026-04-04T09:32:44Z</time></trkpt><trkpt lat="44.028347331907305" lon="10.554744033035897"><ele>198.0</ele><time>2026-04-04T09:32:45Z</time></trkpt><trkpt lat="44.02848343170715" lon="10.554863208283532"><ele>198.0</ele><time>2026-04-04T09:32:46Z</time></trkpt><trkpt lat="44.028609313420525" lon="10.555012258935406"><ele>198.0</ele><time>2026-04-04T09:32:47Z</time></trkpt><trkpt lat="44.02873825186669" lon="10.555149129296304"><ele>198.0</ele><time>2026-04-04T09:32:48Z</time></trkpt><trkpt lat="44.0288683547981" lon="10.555295747009998"><ele>199.33333333333331</ele><time>2026-04-04T09:32:49Z</time></trkpt><trkpt lat="44.02899867040782" lon="10.55543823510158"><ele>200.66666666666666</ele><time>2026-04-04T09:32:50Z</time></trkpt><trkpt lat="44.02913379952944" lon="10.555583674762852"><ele>202.0</ele><time>2026-04-04T09:32:51Z</time></trkpt><trkpt lat="44.02926517147188" lon="10.555724857447442"><ele>202.0</ele><time>2026-04-04T09:32:52Z</time></trkpt><trkpt lat="44.02939623630932" lon="10.555865455017921"><ele>202.0</ele><time>2026-04-04T09:32:53Z</time></trkpt><trkpt lat="44.02951916218073" lon="10.556017844320403"><ele>202.0</ele><time>2026-04-04T09:32:54Z</time></trkpt><trkpt lat="44.02962014315633" lon="10.55619560974821"><ele>204.75</ele><time>2026-04-04T09:32:55Z</time></trkpt><trkpt lat="44.02970463468659" lon="10.556371278536902"><ele>207.5</ele><time>2026-04-04T09:32:56Z</time></trkpt><trkpt lat="44.02977452325184" lon="10.55653325815937"><ele>210.25</ele><time>2026-04-04T09:32:57Z</time></trkpt><trkpt lat="44.029819451493374" lon="10.556699367136103"><ele>213.0</ele><time>2026-04-04T09:32:58Z</time></trkpt><trkpt lat="44.02984298957483" lon="10.556890021296857"><ele>217.0</ele><time>2026-04-04T09:32:59Z</time></trkpt><trkpt lat="44.029848915573524" lon="10.557077740563672"><ele>221.0</ele><time>2026-04-04T09:33:00Z</time></trkpt><trkpt lat="44.029855934208825" lon="10.557235192517494"><ele>225.0</ele><time>2026-04-04T09:33:01Z</time></trkpt><trkpt lat="44.02986668724045" lon="10.557363872042393"><ele>229.0</ele><time>2026-04-04T09:33:02Z</time></trkpt><trkpt lat="44.029890253575836" lon="10.557467206795051"><ele>233.0</ele><time>2026-04-04T09:33:03Z</time></trkpt><trkpt lat="44.02995490462075" lon="10.557520527306849"><ele>230.0</ele><time>2026-04-04T09:33:04Z</time></trkpt><trkpt lat="44.030047328730745" lon="10.557532197477714"><ele>227.0</ele><time>2026-04-04T09:33:05Z</time></trkpt><trkpt lat="44.03016002951393" lon="10.557488837201417"><ele>224.0</ele><time>2026-04-04T09:33:06Z</time></trkpt><trkpt lat="44.0302462906818" lon="10.557396249265585"><ele>221.0</ele><time>2026-04-04T09:33:07Z</time></trkpt><trkpt lat="44.030290094949066" lon="10.55724993568905"><ele>218.0</ele><time>2026-04-04T09:33:08Z</time></trkpt><trkpt lat="44.030300556996536" lon="10.55709099948654"><ele>214.60000000000002</ele><time>2026-04-04T09:33:09Z</time></trkpt><trkpt lat="44.03030405406105" lon="10.556961994285052"><ele>211.20000000000002</ele><time>2026-04-04T09:33:10Z</time></trkpt><trkpt lat="44.030349990778085" lon="10.556876469126841"><ele>207.8</ele><time>2026-04-04T09:33:11Z</time></trkpt><trkpt lat="44.03044228659745" lon="10.556830655464587"><ele>204.4</ele><time>2026-04-04T09:33:12Z</time></trkpt><trkpt lat="44.03055261208088" lon="10.55684989342886"><ele>201.0</ele><time>2026-04-04T09:33:13Z</time></trkpt><trkpt lat="44.03068763043874" lon="10.55692334639043"><ele>200.66666666666669</ele><time>2026-04-04T09:33:14Z</time></trkpt><trkpt lat="44.03083649773139" lon="10.556985967186643"><ele>200.33333333333334</ele><time>2026-04-04T09:33:15Z</time></trkpt><trkpt lat="44.03099426365607" lon="10.557034260179844"><ele>200.0</ele><time>2026-04-04T09:33:16Z</time></trkpt><trkpt lat="44.03114806317032" lon="10.557093288513473"><ele>203.5</ele><time>2026-04-04T09:33:17Z</time></trkpt><trkpt lat="44.03129419538904" lon="10.5571773222172"><ele>207.0</ele><time>2026-04-04T09:33:18Z</time></trkpt><trkpt lat="44.031420803791654" lon="10.557274586173698"><ele>210.5</ele><time>2026-04-04T09:33:19Z</time></trkpt><trkpt lat="44.03154022939008" lon="10.557359661258277"><ele>214.0</ele><time>2026-04-04T09:33:20Z</time></trkpt><trkpt lat="44.03165671671065" lon="10.557430209034106"><ele>214.0</ele><time>2026-04-04T09:33:21Z</time></trkpt><trkpt lat="44.031790574203605" lon="10.557463582459462"><ele>214.0</ele><time>2026-04-04T09:33:22Z</time></trkpt><trkpt lat="44.031943618884085" lon="10.557441616947335"><ele>214.0</ele><time>2026-04-04T09:33:23Z</time></trkpt><trkpt lat="44.03208635832087" lon="10.557383074305214"><ele>214.0</ele><time>2026-04-04T09:33:24Z</time></trkpt><trkpt lat="44.03221230294551" lon="10.557350237025966"><ele>214.0</ele><time>2026-04-04T09:33:25Z</time></trkpt><trkpt lat="44.03232668443245" lon="10.557393000473885"><ele>214.0</ele><time>2026-04-04T09:33:26Z</time></trkpt><trkpt lat="44.03241856764899" lon="10.557500137894978"><ele>214.0</ele><time>2026-04-04T09:33:27Z</time></trkpt><trkpt lat="44.032475188823746" lon="10.55763990959434"><ele>214.0</ele><time>2026-04-04T09:33:28Z</time></trkpt><trkpt lat="44.032491759195814" lon="10.557806602728398"><ele>216.79999999999998</ele><time>2026-04-04T09:33:29Z</time></trkpt><trkpt lat="44.032477131369575" lon="10.557965089935326"><ele>219.59999999999997</ele><time>2026-04-04T09:33:30Z</time></trkpt><trkpt lat="44.03247943692792" lon="10.558091918766255"><ele>222.4</ele><time>2026-04-04T09:33:31Z</time></trkpt><trkpt lat="44.03254475924137" lon="10.558197994211062"><ele>225.2</ele><time>2026-04-04T09:33:32Z</time></trkpt><trkpt lat="44.0326573706563" lon="10.558283119115782"><ele>228.0</ele><time>2026-04-04T09:33:33Z</time></trkpt><trkpt lat="44.03276363801038" lon="10.55830956618819"><ele>228.0</ele><time>2026-04-04T09:33:34Z</time></trkpt><trkpt lat="44.03286719167872" lon="10.55825891377324"><ele>228.0</ele><time>2026-04-04T09:33:35Z</time></trkpt><trkpt lat="44.03295945297501" lon="10.558138599647096"><ele>228.0</ele><time>2026-04-04T09:33:36Z</time></trkpt><trkpt lat="44.033038613896046" lon="10.557981496653456"><ele>228.0</ele><time>2026-04-04T09:33:37Z</time></trkpt><trkpt lat="44.033115972788096" lon="10.557858212264593"><ele>222.5</ele><time>2026-04-04T09:33:38Z</time></trkpt><trkpt lat="44.03320228683916" lon="10.557783631495209"><ele>217.0</ele><time>2026-04-04T09:33:39Z</time></trkpt><trkpt lat="44.03330607803096" lon="10.557755134859852"><ele>211.5</ele><time>2026-04-04T09:33:40Z</time></trkpt><trkpt lat="44.033427892003274" lon="10.557763121412638"><ele>206.0</ele><time>2026-04-04T09:33:41Z</time></trkpt><trkpt lat="44.03357105889673" lon="10.55782831996787"><ele>213.66666666666669</ele><time>2026-04-04T09:33:42Z</time></trkpt><trkpt lat="44.03372666510898" lon="10.557910030624749"><ele>221.33333333333331</ele><time>2026-04-04T09:33:43Z</time></trkpt><trkpt lat="44.033894873559916" lon="10.557987523482286"><ele>229.0</ele><time>2026-04-04T09:33:44Z</time></trkpt><trkpt lat="44.0340674014461" lon="10.55805456865718"><ele>227.66666666666666</ele><time>2026-04-04T09:33:45Z</time></trkpt><trkpt lat="44.03423548374467" lon="10.558118229238918"><ele>226.33333333333331</ele><time>2026-04-04T09:33:46Z</time></trkpt><trkpt lat="44.034401866253845" lon="10.55817949161478"><ele>225.0</ele><time>2026-04-04T09:33:47Z</time></trkpt><trkpt lat="44.034555120878" lon="10.558235821610955"><ele>225.0</ele><time>2026-04-04T09:33:48Z</time></trkpt><trkpt lat="44.03469108632678" lon="10.558289000622771"><ele>225.0</ele><time>2026-04-04T09:33:49Z</time></trkpt><trkpt lat="44.0348167670867" lon="10.558337788299635"><ele>225.0</ele><time>2026-04-04T09:33:50Z</time></trkpt><trkpt lat="44.03494102601729" lon="10.55839575757161"><ele>225.0</ele><time>2026-04-04T09:33:51Z</time></trkpt><trkpt lat="44.035061692526604" lon="10.558491035390833"><ele>224.5</ele><time>2026-04-04T09:33:52Z</time></trkpt><trkpt lat="44.03517167258598" lon="10.558629643745677"><ele>224.0</ele><time>2026-04-04T09:33:53Z</time></trkpt><trkpt lat="44.03525646297648" lon="10.55879516964031"><ele>223.5</ele><time>2026-04-04T09:33:54Z</time></trkpt><trkpt lat="44.03531651129895" lon="10.558956766013548"><ele>223.0</ele><time>2026-04-04T09:33:55Z</time></trkpt><trkpt lat="44.03536702247924" lon="10.559102500870681"><ele>225.49999999999997</ele><time>2026-04-04T09:33:56Z</time></trkpt><trkpt lat="44.035417876411685" lon="10.559229068598354"><ele>228.0</ele><time>2026-04-04T09:33:57Z</time></trkpt><trkpt lat="44.03546714640333" lon="10.559329005565267"><ele>230.5</ele><time>2026-04-04T09:33:58Z</time></trkpt><trkpt lat="44.035524467157884" lon="10.559402748363327"><ele>233.0</ele><time>2026-04-04T09:33:59Z</time></trkpt><trkpt lat="44.035597520765144" lon="10.559431678471324"><ele>235.49999999999997</ele><time>2026-04-04T09:34:00Z</time></trkpt><trkpt lat="44.035674629144566" lon="10.559383276284612"><ele>238.0</ele><time>2026-04-04T09:34:01Z</time></trkpt><trkpt lat="44.03573967137658" lon="10.559263338046025"><ele>238.0</ele><time>2026-04-04T09:34:02Z</time></trkpt><trkpt lat="44.035790083111436" lon="10.559114504880982"><ele>238.0</ele><time>2026-04-04T09:34:03Z</time></trkpt><trkpt lat="44.03583325392637" lon="10.558968910925273"><ele>238.0</ele><time>2026-04-04T09:34:04Z</time></trkpt><trkpt lat="44.035873337932316" lon="10.558871244499475"><ele>238.0</ele><time>2026-04-04T09:34:05Z</time></trkpt><trkpt lat="44.0359337741295" lon="10.558814450980053"><ele>238.0</ele><time>2026-04-04T09:34:06Z</time></trkpt><trkpt lat="44.03602462753989" lon="10.558792372509041"><ele>236.25</ele><time>2026-04-04T09:34:07Z</time></trkpt><trkpt lat="44.03613898775624" lon="10.558835499074224"><ele>234.5</ele><time>2026-04-04T09:34:08Z</time></trkpt><trkpt lat="44.03626688000585" lon="10.558898379932643"><ele>232.75</ele><time>2026-04-04T09:34:09Z</time></trkpt><trkpt lat="44.036405509377104" lon="10.558968391096984"><ele>231.0</ele><time>2026-04-04T09:34:10Z</time></trkpt><trkpt lat="44.03653462530976" lon="10.559055727708628"><ele>231.0</ele><time>2026-04-04T09:34:11Z</time></trkpt><trkpt lat="44.03663386635249" lon="10.559175204244816"><ele>231.0</ele><time>2026-04-04T09:34:12Z</time></trkpt><trkpt lat="44.03671226276073" lon="10.559326956724783"><ele>231.0</ele><time>2026-04-04T09:34:13Z</time></trkpt><trkpt lat="44.036779326797785" lon="10.559475703270593"><ele>231.0</ele><time>2026-04-04T09:34:14Z</time></trkpt><trkpt lat="44.03683977827723" lon="10.559610421590277"><ele>232.75</ele><time>2026-04-04T09:34:15Z</time></trkpt><trkpt lat="44.036879192909794" lon="10.559751086059634"><ele>234.5</ele><time>2026-04-04T09:34:16Z</time></trkpt><trkpt lat="44.03689738555308" lon="10.55991094784982"><ele>236.25</ele><time>2026-04-04T09:34:17Z</time></trkpt><trkpt lat="44.03691665435329" lon="10.560072144146773"><ele>238.0</ele><time>2026-04-04T09:34:18Z</time></trkpt><trkpt lat="44.036994467037154" lon="10.560211562228801"><ele>238.0</ele><time>2026-04-04T09:34:19Z</time></trkpt><trkpt lat="44.037121019479684" lon="10.560330477517052"><ele>238.0</ele><time>2026-04-04T09:34:20Z</time></trkpt><trkpt lat="44.03726772634844" lon="10.560412458140826"><ele>238.0</ele><time>2026-04-04T09:34:21Z</time></trkpt><trkpt lat="44.037362013837026" lon="10.560539111821436"><ele>238.0</ele><time>2026-04-04T09:34:22Z</time></trkpt><trkpt lat="44.037451077183015" lon="10.560717292859502"><ele>239.0</ele><time>2026-04-04T09:34:23Z</time></trkpt><trkpt lat="44.037541918101354" lon="10.560850503075605"><ele>240.0</ele><time>2026-04-04T09:34:24Z</time></trkpt><trkpt lat="44.03769267276416" lon="10.560977896267028"><ele>241.0</ele><time>2026-04-04T09:34:25Z</time></trkpt><trkpt lat="44.03783002445921" lon="10.561072383555343"><ele>241.0</ele><time>2026-04-04T09:34:26Z</time></trkpt><trkpt lat="44.037955576675905" lon="10.561164867893275"><ele>241.0</ele><time>2026-04-04T09:34:27Z</time></trkpt><trkpt lat="44.03807094865341" lon="10.56123550574687"><ele>241.0</ele><time>2026-04-04T09:34:28Z</time></trkpt><trkpt lat="44.03819602354044" lon="10.561280570628393"><ele>241.0</ele><time>2026-04-04T09:34:29Z</time></trkpt><trkpt lat="44.03832948257596" lon="10.561272460523469"><ele>239.25</ele><time>2026-04-04T09:34:30Z</time></trkpt><trkpt lat="44.03846664332216" lon="10.56121319647478"><ele>237.5</ele><time>2026-04-04T09:34:31Z</time></trkpt><trkpt lat="44.03858080086702" lon="10.5611152927545"><ele>235.75</ele><time>2026-04-04T09:34:32Z</time></trkpt><trkpt lat="44.038678263914065" lon="10.56104132737884"><ele>234.0</ele><time>2026-04-04T09:34:33Z</time></trkpt><trkpt lat="44.038794314634565" lon="10.561025572793193"><ele>234.0</ele><time>2026-04-04T09:34:34Z</time></trkpt><trkpt lat="44.03889528662201" lon="10.561068695478673"><ele>234.0</ele><time>2026-04-04T09:34:35Z</time></trkpt><trkpt lat="44.03898525474182" lon="10.561043029371021"><ele>234.0</ele><time>2026-04-04T09:34:36Z</time></trkpt><trkpt lat="44.0390747942254" lon="10.560926099172782"><ele>234.0</ele><time>2026-04-04T09:34:37Z</time></trkpt><trkpt lat="44.03915613269471" lon="10.560752404771659"><ele>233.75</ele><time>2026-04-04T09:34:38Z</time></trkpt><trkpt lat="44.03922964945289" lon="10.560596972585644"><ele>233.5</ele><time>2026-04-04T09:34:39Z</time></trkpt><trkpt lat="44.03930200514378" lon="10.560470217824324"><ele>233.25</ele><time>2026-04-04T09:34:40Z</time></trkpt><trkpt lat="44.03938622953991" lon="10.560376908550568"><ele>233.0</ele><time>2026-04-04T09:34:41Z</time></trkpt><trkpt lat="44.03948502681518" lon="10.560323756226332"><ele>233.0</ele><time>2026-04-04T09:34:42Z</time></trkpt><trkpt lat="44.03959622254999" lon="10.560310987908426"><ele>233.0</ele><time>2026-04-04T09:34:43Z</time></trkpt><trkpt lat="44.03972214156852" lon="10.560323369190533"><ele>233.0</ele><time>2026-04-04T09:34:44Z</time></trkpt><trkpt lat="44.03985130573134" lon="10.560338059806442"><ele>233.0</ele><time>2026-04-04T09:34:45Z</time></trkpt><trkpt lat="44.03996906431286" lon="10.56035010518253"><ele>235.0</ele><time>2026-04-04T09:34:46Z</time></trkpt><trkpt lat="44.04007642910656" lon="10.560354884942216"><ele>237.0</ele><time>2026-04-04T09:34:47Z</time></trkpt><trkpt lat="44.04017979863421" lon="10.560331283572646"><ele>239.0</ele><time>2026-04-04T09:34:48Z</time></trkpt><trkpt lat="44.04028006609957" lon="10.560248749695155"><ele>241.0</ele><time>2026-04-04T09:34:49Z</time></trkpt><trkpt lat="44.04036845181506" lon="10.560156840864234"><ele>243.0</ele><time>2026-04-04T09:34:50Z</time></trkpt><trkpt lat="44.04046111823388" lon="10.560109404890223"><ele>243.0</ele><time>2026-04-04T09:34:51Z</time></trkpt><trkpt lat="44.04056524449091" lon="10.560097386251046"><ele>243.0</ele><time>2026-04-04T09:34:52Z</time></trkpt><trkpt lat="44.040665980874145" lon="10.560099022845515"><ele>243.0</ele><time>2026-04-04T09:34:53Z</time></trkpt><trkpt lat="44.04075751982813" lon="10.560118917639894"><ele>243.0</ele><time>2026-04-04T09:34:54Z</time></trkpt><trkpt lat="44.04089259186258" lon="10.560275193204468"><ele>247.75</ele><time>2026-04-04T09:34:55Z</time></trkpt><trkpt lat="44.04101261241531" lon="10.560380593370521"><ele>252.5</ele><time>2026-04-04T09:34:56Z</time></trkpt><trkpt lat="44.04114749573456" lon="10.560460612164194"><ele>257.25</ele><time>2026-04-04T09:34:57Z</time></trkpt><trkpt lat="44.04128702668137" lon="10.560535067206253"><ele>262.0</ele><time>2026-04-04T09:34:58Z</time></trkpt><trkpt lat="44.04143375631576" lon="10.56060565949243"><ele>262.0</ele><time>2026-04-04T09:34:59Z</time></trkpt><trkpt lat="44.041576336746516" lon="10.560669161044954"><ele>262.0</ele><time>2026-04-04T09:35:00Z</time></trkpt><trkpt lat="44.04172363441723" lon="10.560726405673957"><ele>262.0</ele><time>2026-04-04T09:35:01Z</time></trkpt><trkpt lat="44.041877060506984" lon="10.560771083485522"><ele>259.5</ele><time>2026-04-04T09:35:02Z</time></trkpt><trkpt lat="44.042025223942275" lon="10.560805790100023"><ele>257.0</ele><time>2026-04-04T09:35:03Z</time></trkpt><trkpt lat="44.04216325165865" lon="10.56086169579567"><ele>254.5</ele><time>2026-04-04T09:35:04Z</time></trkpt><trkpt lat="44.0422947889199" lon="10.560957228701666"><ele>252.0</ele><time>2026-04-04T09:35:05Z</time></trkpt><trkpt lat="44.04242440106019" lon="10.561046436779533"><ele>249.66666666666669</ele><time>2026-04-04T09:35:06Z</time></trkpt><trkpt lat="44.04257317781438" lon="10.561093629170756"><ele>247.33333333333334</ele><time>2026-04-04T09:35:07Z</time></trkpt><trkpt lat="44.04273335630082" lon="10.561106402042714"><ele>245.0</ele><time>2026-04-04T09:35:08Z</time></trkpt><trkpt lat="44.0428943174967" lon="10.561101679213397"><ele>245.0</ele><time>2026-04-04T09:35:09Z</time></trkpt><trkpt lat="44.043045397437844" lon="10.56109416047152"><ele>245.0</ele><time>2026-04-04T09:35:10Z</time></trkpt><trkpt lat="44.043186052848554" lon="10.561094547611324"><ele>245.0</ele><time>2026-04-04T09:35:11Z</time></trkpt><trkpt lat="44.043324490382" lon="10.561091820366224"><ele>245.0</ele><time>2026-04-04T09:35:12Z</time></trkpt><trkpt lat="44.043463565702154" lon="10.561091517388919"><ele>244.0</ele><time>2026-04-04T09:35:13Z</time></trkpt><trkpt lat="44.04360242182534" lon="10.561127991388869"><ele>243.0</ele><time>2026-04-04T09:35:14Z</time></trkpt><trkpt lat="44.043734791001164" lon="10.561209271438694"><ele>242.0</ele><time>2026-04-04T09:35:15Z</time></trkpt><trkpt lat="44.04386462573739" lon="10.561308941428182"><ele>241.0</ele><time>2026-04-04T09:35:16Z</time></trkpt><trkpt lat="44.04400183591424" lon="10.561416472545082"><ele>250.33333333333331</ele><time>2026-04-04T09:35:17Z</time></trkpt><trkpt lat="44.04413643024464" lon="10.561521114790699"><ele>259.6666666666667</ele><time>2026-04-04T09:35:18Z</time></trkpt><trkpt lat="44.04426654288977" lon="10.561629614587162"><ele>269.0</ele><time>2026-04-04T09:35:19Z</time></trkpt><trkpt lat="44.04439351197668" lon="10.561741104120856"><ele>269.0</ele><time>2026-04-04T09:35:20Z</time></trkpt><trkpt lat="44.0445071327497" lon="10.56187048219259"><ele>269.0</ele><time>2026-04-04T09:35:21Z</time></trkpt><trkpt lat="44.044605124713776" lon="10.562005096312136"><ele>269.0</ele><time>2026-04-04T09:35:22Z</time></trkpt><trkpt lat="44.0446944776349" lon="10.562114079259564"><ele>269.0</ele><time>2026-04-04T09:35:23Z</time></trkpt><trkpt lat="44.044773675123125" lon="10.562205035527699"><ele>269.59999999999997</ele><time>2026-04-04T09:35:24Z</time></trkpt><trkpt lat="44.044857307636185" lon="10.562266263303963"><ele>270.2</ele><time>2026-04-04T09:35:25Z</time></trkpt><trkpt lat="44.04496121689688" lon="10.562283001774166"><ele>270.79999999999995</ele><time>2026-04-04T09:35:26Z</time></trkpt><trkpt lat="44.04506924435998" lon="10.56224127338984"><ele>271.4</ele><time>2026-04-04T09:35:27Z</time></trkpt><trkpt lat="44.045175313958026" lon="10.562163257847365"><ele>272.0</ele><time>2026-04-04T09:35:28Z</time></trkpt><trkpt lat="44.04527677635627" lon="10.562082337291628"><ele>268.8</ele><time>2026-04-04T09:35:29Z</time></trkpt><trkpt lat="44.04536110163196" lon="10.562016680783948"><ele>265.6</ele><time>2026-04-04T09:35:30Z</time></trkpt><trkpt lat="44.04542050222182" lon="10.561914390233074"><ele>262.40000000000003</ele><time>2026-04-04T09:35:31Z</time></trkpt><trkpt lat="44.045437157986676" lon="10.561790505527153"><ele>259.2</ele><time>2026-04-04T09:35:32Z</time></trkpt><trkpt lat="44.04540444994363" lon="10.561656175627684"><ele>256.0</ele><time>2026-04-04T09:35:33Z</time></trkpt><trkpt lat="44.04534294179255" lon="10.56152714366124"><ele>256.0</ele><time>2026-04-04T09:35:34Z</time></trkpt><trkpt lat="44.04526738205968" lon="10.561377433823052"><ele>256.0</ele><time>2026-04-04T09:35:35Z</time></trkpt><trkpt lat="44.045209529686076" lon="10.561231163511968"><ele>256.0</ele><time>2026-04-04T09:35:36Z</time></trkpt><trkpt lat="44.045124690426924" lon="10.56112276995791"><ele>256.0</ele><time>2026-04-04T09:35:37Z</time></trkpt><trkpt lat="44.04499170999636" lon="10.561034502552564"><ele>253.25</ele><time>2026-04-04T09:35:38Z</time></trkpt><trkpt lat="44.04489409074655" lon="10.560956886424016"><ele>250.5</ele><time>2026-04-04T09:35:39Z</time></trkpt><trkpt lat="44.04481761113379" lon="10.56083122667254"><ele>247.75</ele><time>2026-04-04T09:35:40Z</time></trkpt><trkpt lat="44.044766054847415" lon="10.560655049318804"><ele>245.0</ele><time>2026-04-04T09:35:41Z</time></trkpt><trkpt lat="44.0447172588853" lon="10.560465269333239"><ele>247.6</ele><time>2026-04-04T09:35:42Z</time></trkpt><trkpt lat="44.04467129825654" lon="10.560289885332276"><ele>250.2</ele><time>2026-04-04T09:35:43Z</time></trkpt><trkpt lat="44.0446314451459" lon="10.560155606274376"><ele>252.8</ele><time>2026-04-04T09:35:44Z</time></trkpt><trkpt lat="44.0446002668614" lon="10.560054451868332"><ele>255.4</ele><time>2026-04-04T09:35:45Z</time></trkpt><trkpt lat="44.04462839343888" lon="10.559946739739571"><ele>258.0</ele><time>2026-04-04T09:35:47Z</time></trkpt><trkpt lat="44.04471377289385" lon="10.559996977386682"><ele>258.0</ele><time>2026-04-04T09:35:49Z</time></trkpt><trkpt lat="44.044739992033335" lon="10.560102511226662"><ele>258.0</ele><time>2026-04-04T09:35:50Z</time></trkpt><trkpt lat="44.04478018555311" lon="10.560216739219598"><ele>258.0</ele><time>2026-04-04T09:35:51Z</time></trkpt><trkpt lat="44.04482520194887" lon="10.56034436288895"><ele>258.0</ele><time>2026-04-04T09:35:52Z</time></trkpt><trkpt lat="44.04487498259035" lon="10.560489454995645"><ele>258.0</ele><time>2026-04-04T09:35:53Z</time></trkpt><trkpt lat="44.04489955140268" lon="10.56063896753656"><ele>261.0</ele><time>2026-04-04T09:35:54Z</time></trkpt><trkpt lat="44.04497124750371" lon="10.560755621041706"><ele>264.0</ele><time>2026-04-04T09:35:55Z</time></trkpt><trkpt lat="44.04506122282685" lon="10.560852108063864"><ele>267.0</ele><time>2026-04-04T09:35:56Z</time></trkpt><trkpt lat="44.04515971591107" lon="10.560949347756601"><ele>270.0</ele><time>2026-04-04T09:35:57Z</time></trkpt><trkpt lat="44.04526527337347" lon="10.561054630094059"><ele>270.0</ele><time>2026-04-04T09:35:58Z</time></trkpt><trkpt lat="44.04537548490224" lon="10.561164496841542"><ele>270.0</ele><time>2026-04-04T09:35:59Z</time></trkpt><trkpt lat="44.045457353531695" lon="10.561209845527195"><ele>270.0</ele><time>2026-04-04T09:36:00Z</time></trkpt><trkpt lat="44.045567383166514" lon="10.561301870080529"><ele>270.0</ele><time>2026-04-04T09:36:01Z</time></trkpt><trkpt lat="44.04568617218584" lon="10.561391046980232"><ele>272.5</ele><time>2026-04-04T09:36:02Z</time></trkpt><trkpt lat="44.045809604680365" lon="10.561474667539102"><ele>275.0</ele><time>2026-04-04T09:36:03Z</time></trkpt><trkpt lat="44.04593419453839" lon="10.56155128877881"><ele>277.5</ele><time>2026-04-04T09:36:04Z</time></trkpt><trkpt lat="44.04605547945892" lon="10.561623380865218"><ele>280.0</ele><time>2026-04-04T09:36:05Z</time></trkpt><trkpt lat="44.046175571200926" lon="10.561692996439646"><ele>280.0</ele><time>2026-04-04T09:36:06Z</time></trkpt><trkpt lat="44.04628207175821" lon="10.561756343105932"><ele>280.0</ele><time>2026-04-04T09:36:07Z</time></trkpt><trkpt lat="44.046370988966" lon="10.561818236660727"><ele>280.0</ele><time>2026-04-04T09:36:08Z</time></trkpt><trkpt lat="44.046445331072576" lon="10.561870914053554"><ele>280.0</ele><time>2026-04-04T09:36:09Z</time></trkpt><trkpt lat="44.04652393667746" lon="10.561871849225797"><ele>280.0</ele><time>2026-04-04T09:36:10Z</time></trkpt><trkpt lat="44.046595387853216" lon="10.561803201336756"><ele>280.0</ele><time>2026-04-04T09:36:11Z</time></trkpt><trkpt lat="44.04661996811967" lon="10.56166544796432"><ele>280.0</ele><time>2026-04-04T09:36:12Z</time></trkpt><trkpt lat="44.04658697740942" lon="10.561521986783712"><ele>280.0</ele><time>2026-04-04T09:36:13Z</time></trkpt><trkpt lat="44.046524347871305" lon="10.561384025967278"><ele>280.0</ele><time>2026-04-04T09:36:14Z</time></trkpt><trkpt lat="44.04644794496586" lon="10.561241296691021"><ele>283.5</ele><time>2026-04-04T09:36:15Z</time></trkpt><trkpt lat="44.04636740061398" lon="10.561107596604597"><ele>287.0</ele><time>2026-04-04T09:36:16Z</time></trkpt><trkpt lat="44.04627964701721" lon="10.56097419981291"><ele>290.5</ele><time>2026-04-04T09:36:17Z</time></trkpt><trkpt lat="44.0461713735722" lon="10.560876987918896"><ele>294.0</ele><time>2026-04-04T09:36:18Z</time></trkpt><trkpt lat="44.046083615514476" lon="10.56074022559962"><ele>294.0</ele><time>2026-04-04T09:36:19Z</time></trkpt><trkpt lat="44.045993770701465" lon="10.56059636328994"><ele>294.0</ele><time>2026-04-04T09:36:20Z</time></trkpt><trkpt lat="44.04590381923652" lon="10.56044472804858"><ele>294.0</ele><time>2026-04-04T09:36:21Z</time></trkpt><trkpt lat="44.0458102864568" lon="10.560293144072997"><ele>294.0</ele><time>2026-04-04T09:36:22Z</time></trkpt><trkpt lat="44.04572238380436" lon="10.560156791405602"><ele>292.8333333333333</ele><time>2026-04-04T09:36:23Z</time></trkpt><trkpt lat="44.04564789542645" lon="10.560044456752628"><ele>291.6666666666667</ele><time>2026-04-04T09:36:24Z</time></trkpt><trkpt lat="44.04557671410646" lon="10.559957284907858"><ele>290.5</ele><time>2026-04-04T09:36:25Z</time></trkpt><trkpt lat="44.04551134144388" lon="10.559885465430101"><ele>289.33333333333337</ele><time>2026-04-04T09:36:26Z</time></trkpt><trkpt lat="44.045480419177174" lon="10.559799689811074"><ele>288.1666666666667</ele><time>2026-04-04T09:36:27Z</time></trkpt><trkpt lat="44.04553385180837" lon="10.559698892305239"><ele>287.0</ele><time>2026-04-04T09:36:29Z</time></trkpt><trkpt lat="44.04566354849598" lon="10.559783510499605"><ele>287.0</ele><time>2026-04-04T09:36:31Z</time></trkpt><trkpt lat="44.045764716057064" lon="10.559902690772256"><ele>287.0</ele><time>2026-04-04T09:36:32Z</time></trkpt><trkpt lat="44.04589295357006" lon="10.560026607783463"><ele>287.0</ele><time>2026-04-04T09:36:33Z</time></trkpt><trkpt lat="44.04602737755715" lon="10.560157246589208"><ele>289.33333333333337</ele><time>2026-04-04T09:36:34Z</time></trkpt><trkpt lat="44.04615437391778" lon="10.560293606190214"><ele>291.6666666666667</ele><time>2026-04-04T09:36:35Z</time></trkpt><trkpt lat="44.04627219758644" lon="10.560444291306183"><ele>294.0</ele><time>2026-04-04T09:36:36Z</time></trkpt><trkpt lat="44.04637985962825" lon="10.560598917935012"><ele>294.0</ele><time>2026-04-04T09:36:37Z</time></trkpt><trkpt lat="44.0464800169076" lon="10.560759328374322"><ele>294.0</ele><time>2026-04-04T09:36:38Z</time></trkpt><trkpt lat="44.04657879682182" lon="10.560908872076448"><ele>294.0</ele><time>2026-04-04T09:36:39Z</time></trkpt><trkpt lat="44.046689885335525" lon="10.561033637515253"><ele>294.0</ele><time>2026-04-04T09:36:40Z</time></trkpt><trkpt lat="44.04680812006457" lon="10.561146458948043"><ele>294.75</ele><time>2026-04-04T09:36:41Z</time></trkpt><trkpt lat="44.046925643329295" lon="10.561246859976864"><ele>295.5</ele><time>2026-04-04T09:36:42Z</time></trkpt><trkpt lat="44.04704395236775" lon="10.56133645636212"><ele>296.25</ele><time>2026-04-04T09:36:43Z</time></trkpt><trkpt lat="44.047172487518274" lon="10.561411124493457"><ele>297.0</ele><time>2026-04-04T09:36:44Z</time></trkpt><trkpt lat="44.047298125272114" lon="10.56149543049368"><ele>297.0</ele><time>2026-04-04T09:36:45Z</time></trkpt><trkpt lat="44.04741684776176" lon="10.561574116625644"><ele>297.0</ele><time>2026-04-04T09:36:46Z</time></trkpt><trkpt lat="44.04751689996155" lon="10.561658385036107"><ele>297.0</ele><time>2026-04-04T09:36:47Z</time></trkpt><trkpt lat="44.04759703390066" lon="10.561748708609736"><ele>297.0</ele><time>2026-04-04T09:36:48Z</time></trkpt><trkpt lat="44.04765160953357" lon="10.561834619834938"><ele>297.0</ele><time>2026-04-04T09:36:49Z</time></trkpt><trkpt lat="44.047748738169325" lon="10.561873215412207"><ele>302.2</ele><time>2026-04-04T09:36:51Z</time></trkpt><trkpt lat="44.047783085500015" lon="10.561798669576504"><ele>307.4</ele><time>2026-04-04T09:36:52Z</time></trkpt><trkpt lat="44.047757265911336" lon="10.561693151245105"><ele>312.59999999999997</ele><time>2026-04-04T09:36:53Z</time></trkpt><trkpt lat="44.04768109790232" lon="10.561617579242037"><ele>317.79999999999995</ele><time>2026-04-04T09:36:54Z</time></trkpt><trkpt lat="44.04759163136281" lon="10.561529071139205"><ele>323.0</ele><time>2026-04-04T09:36:55Z</time></trkpt><trkpt lat="44.04749105435882" lon="10.56142134532842"><ele>324.33333333333337</ele><time>2026-04-04T09:36:56Z</time></trkpt><trkpt lat="44.047368112324214" lon="10.561312639233629"><ele>325.6666666666667</ele><time>2026-04-04T09:36:57Z</time></trkpt><trkpt lat="44.04722752791626" lon="10.561198115415346"><ele>327.0</ele><time>2026-04-04T09:36:58Z</time></trkpt><trkpt lat="44.04709728531752" lon="10.561097481569911"><ele>327.0</ele><time>2026-04-04T09:36:59Z</time></trkpt><trkpt lat="44.04698388476592" lon="10.560991223688028"><ele>327.0</ele><time>2026-04-04T09:37:00Z</time></trkpt><trkpt lat="44.046884142627555" lon="10.560850197945724"><ele>327.0</ele><time>2026-04-04T09:37:01Z</time></trkpt><trkpt lat="44.046801269947444" lon="10.560724744271191"><ele>327.0</ele><time>2026-04-04T09:37:02Z</time></trkpt><trkpt lat="44.04672133375931" lon="10.560606011706277"><ele>327.0</ele><time>2026-04-04T09:37:03Z</time></trkpt><trkpt lat="44.04665654671695" lon="10.560448118863706"><ele>327.0</ele><time>2026-04-04T09:37:04Z</time></trkpt><trkpt lat="44.0466006577315" lon="10.560249821895452"><ele>327.0</ele><time>2026-04-04T09:37:05Z</time></trkpt><trkpt lat="44.04655834330905" lon="10.560064915197838"><ele>327.0</ele><time>2026-04-04T09:37:06Z</time></trkpt><trkpt lat="44.046502386333955" lon="10.559897653445072"><ele>327.25</ele><time>2026-04-04T09:37:07Z</time></trkpt><trkpt lat="44.046423410878305" lon="10.559732148849468"><ele>327.5</ele><time>2026-04-04T09:37:08Z</time></trkpt><trkpt lat="44.046337541405215" lon="10.559565854728119"><ele>327.75</ele><time>2026-04-04T09:37:09Z</time></trkpt><trkpt lat="44.04626778655607" lon="10.55941500677512"><ele>328.0</ele><time>2026-04-04T09:37:10Z</time></trkpt><trkpt lat="44.046204827436924" lon="10.55929383602116"><ele>328.0</ele><time>2026-04-04T09:37:11Z</time></trkpt><trkpt lat="44.04615594016308" lon="10.559216210274778"><ele>328.0</ele><time>2026-04-04T09:37:12Z</time></trkpt><trkpt lat="44.0461542278727" lon="10.559105980465755"><ele>328.0</ele><time>2026-04-04T09:37:14Z</time></trkpt><trkpt lat="44.0462371851645" lon="10.559118485576834"><ele>328.0</ele><time>2026-04-04T09:37:17Z</time></trkpt><trkpt lat="44.046268225405306" lon="10.559216339503715"><ele>328.0</ele><time>2026-04-04T09:37:18Z</time></trkpt><trkpt lat="44.04632123217339" lon="10.559338351839958"><ele>328.0</ele><time>2026-04-04T09:37:19Z</time></trkpt><trkpt lat="44.04641600474994" lon="10.559475081648673"><ele>323.25</ele><time>2026-04-04T09:37:20Z</time></trkpt><trkpt lat="44.04650536133398" lon="10.55962078715975"><ele>318.5</ele><time>2026-04-04T09:37:21Z</time></trkpt><trkpt lat="44.0465830688517" lon="10.559770866818933"><ele>313.75</ele><time>2026-04-04T09:37:22Z</time></trkpt><trkpt lat="44.04668298366899" lon="10.55988275560464"><ele>309.0</ele><time>2026-04-04T09:37:23Z</time></trkpt><trkpt lat="44.04673992275011" lon="10.560048531144007"><ele>313.5</ele><time>2026-04-04T09:37:24Z</time></trkpt><trkpt lat="44.04677989764112" lon="10.560222659954984"><ele>318.0</ele><time>2026-04-04T09:37:25Z</time></trkpt><trkpt lat="44.04683637578311" lon="10.560378561512549"><ele>322.5</ele><time>2026-04-04T09:37:26Z</time></trkpt><trkpt lat="44.04692370919985" lon="10.560519984061028"><ele>327.0</ele><time>2026-04-04T09:37:27Z</time></trkpt><trkpt lat="44.047026245247245" lon="10.560641449258437"><ele>327.0</ele><time>2026-04-04T09:37:28Z</time></trkpt><trkpt lat="44.047129501311424" lon="10.5607325812221"><ele>327.0</ele><time>2026-04-04T09:37:29Z</time></trkpt><trkpt lat="44.04723964077157" lon="10.560807830300721"><ele>327.0</ele><time>2026-04-04T09:37:30Z</time></trkpt><trkpt lat="44.047366826844744" lon="10.560849616078363"><ele>327.0</ele><time>2026-04-04T09:37:31Z</time></trkpt><trkpt lat="44.0474962942787" lon="10.56088833581621"><ele>336.75</ele><time>2026-04-04T09:37:32Z</time></trkpt><trkpt lat="44.04762569710789" lon="10.560935065414803"><ele>346.5</ele><time>2026-04-04T09:37:33Z</time></trkpt><trkpt lat="44.047753058523135" lon="10.56096937439657"><ele>356.25</ele><time>2026-04-04T09:37:34Z</time></trkpt><trkpt lat="44.04788075946314" lon="10.561010484473542"><ele>366.0</ele><time>2026-04-04T09:37:35Z</time></trkpt><trkpt lat="44.047987163158496" lon="10.561090760149462"><ele>366.0</ele><time>2026-04-04T09:37:36Z</time></trkpt><trkpt lat="44.04808791784006" lon="10.561189142056522"><ele>366.0</ele><time>2026-04-04T09:37:37Z</time></trkpt><trkpt lat="44.048176648170944" lon="10.561288090896713"><ele>366.0</ele><time>2026-04-04T09:37:38Z</time></trkpt><trkpt lat="44.04825407860676" lon="10.561365697579186"><ele>366.0</ele><time>2026-04-04T09:37:39Z</time></trkpt><trkpt lat="44.04832787455138" lon="10.561404062595017"><ele>366.0</ele><time>2026-04-04T09:37:40Z</time></trkpt><trkpt lat="44.048398136890384" lon="10.561384662641004"><ele>364.8</ele><time>2026-04-04T09:37:41Z</time></trkpt><trkpt lat="44.04848263112838" lon="10.561284322011563"><ele>363.6</ele><time>2026-04-04T09:37:42Z</time></trkpt><trkpt lat="44.04856281445569" lon="10.561169260387777"><ele>362.4</ele><time>2026-04-04T09:37:43Z</time></trkpt><trkpt lat="44.04861884338704" lon="10.561070677132566"><ele>361.2</ele><time>2026-04-04T09:37:44Z</time></trkpt><trkpt lat="44.04865622807845" lon="10.560997294216055"><ele>360.0</ele><time>2026-04-04T09:37:45Z</time></trkpt><trkpt lat="44.04873104935179" lon="10.560975900921179"><ele>360.0</ele><time>2026-04-04T09:37:46Z</time></trkpt><trkpt lat="44.04880680135096" lon="10.561013651578428"><ele>360.0</ele><time>2026-04-04T09:37:47Z</time></trkpt><trkpt lat="44.048858810889875" lon="10.561111333351837"><ele>360.0</ele><time>2026-04-04T09:37:48Z</time></trkpt><trkpt lat="44.04887255338002" lon="10.561253972709755"><ele>360.0</ele><time>2026-04-04T09:37:49Z</time></trkpt><trkpt lat="44.048861167351454" lon="10.561418158896165"><ele>360.0</ele><time>2026-04-04T09:37:50Z</time></trkpt><trkpt lat="44.04885471996657" lon="10.561594185704278"><ele>360.0</ele><time>2026-04-04T09:37:51Z</time></trkpt><trkpt lat="44.04885796785532" lon="10.561774158217442"><ele>360.0</ele><time>2026-04-04T09:37:52Z</time></trkpt><trkpt lat="44.048876930068296" lon="10.561912341350867"><ele>360.0</ele><time>2026-04-04T09:37:53Z</time></trkpt><trkpt lat="44.048920759627116" lon="10.562019701394599"><ele>360.0</ele><time>2026-04-04T09:37:54Z</time></trkpt><trkpt lat="44.04900073177045" lon="10.562105127943568"><ele>360.0</ele><time>2026-04-04T09:37:55Z</time></trkpt><trkpt lat="44.04911426329741" lon="10.562155087413032"><ele>360.0</ele><time>2026-04-04T09:37:56Z</time></trkpt><trkpt lat="44.0492436457557" lon="10.56218034701177"><ele>360.0</ele><time>2026-04-04T09:37:57Z</time></trkpt><trkpt lat="44.04936421991479" lon="10.562196373686014"><ele>360.0</ele><time>2026-04-04T09:37:58Z</time></trkpt><trkpt lat="44.049462009596546" lon="10.562197456180542"><ele>360.0</ele><time>2026-04-04T09:37:59Z</time></trkpt><trkpt lat="44.04955252893069" lon="10.562109763120615"><ele>368.5</ele><time>2026-04-04T09:38:00Z</time></trkpt><trkpt lat="44.04965007659944" lon="10.561988656031428"><ele>377.0</ele><time>2026-04-04T09:38:01Z</time></trkpt><trkpt lat="44.04975387420027" lon="10.561862424916923"><ele>385.5</ele><time>2026-04-04T09:38:02Z</time></trkpt><trkpt lat="44.04986216525356" lon="10.56176262759433"><ele>394.0</ele><time>2026-04-04T09:38:03Z</time></trkpt><trkpt lat="44.04997025118972" lon="10.561708871936107"><ele>395.6</ele><time>2026-04-04T09:38:04Z</time></trkpt><trkpt lat="44.05007107877225" lon="10.56168912194165"><ele>397.2</ele><time>2026-04-04T09:38:05Z</time></trkpt><trkpt lat="44.05015245481222" lon="10.561694392178167"><ele>398.8</ele><time>2026-04-04T09:38:06Z</time></trkpt><trkpt lat="44.05023923304845" lon="10.561633028811224"><ele>400.40000000000003</ele><time>2026-04-04T09:38:08Z</time></trkpt><trkpt lat="44.05016085780258" lon="10.561506282762167"><ele>402.0</ele><time>2026-04-04T09:38:10Z</time></trkpt><trkpt lat="44.05006548152179" lon="10.561497964857"><ele>400.0</ele><time>2026-04-04T09:38:11Z</time></trkpt><trkpt lat="44.0499425829569" lon="10.561516031639952"><ele>398.0</ele><time>2026-04-04T09:38:12Z</time></trkpt><trkpt lat="44.04981982394779" lon="10.561540655274491"><ele>396.0</ele><time>2026-04-04T09:38:13Z</time></trkpt><trkpt lat="44.04967706360748" lon="10.561638184225743"><ele>394.0</ele><time>2026-04-04T09:38:14Z</time></trkpt><trkpt lat="44.04956959656093" lon="10.561760411970193"><ele>394.0</ele><time>2026-04-04T09:38:15Z</time></trkpt><trkpt lat="44.04948639589832" lon="10.561865535770671"><ele>394.0</ele><time>2026-04-04T09:38:16Z</time></trkpt><trkpt lat="44.049423039785346" lon="10.561927969859006"><ele>394.0</ele><time>2026-04-04T09:38:17Z</time></trkpt><trkpt lat="44.049337485503244" lon="10.561888890095467"><ele>394.0</ele><time>2026-04-04T09:38:19Z</time></trkpt><trkpt lat="44.049386536894" lon="10.561761650076898"><ele>394.0</ele><time>2026-04-04T09:38:21Z</time></trkpt><trkpt lat="44.049461033553605" lon="10.561718567598419"><ele>394.0</ele><time>2026-04-04T09:38:22Z</time></trkpt><trkpt lat="44.04954722348513" lon="10.56165775578054"><ele>394.0</ele><time>2026-04-04T09:38:23Z</time></trkpt><trkpt lat="44.049618975971015" lon="10.561554560582552"><ele>394.0</ele><time>2026-04-04T09:38:24Z</time></trkpt><trkpt lat="44.04969004320336" lon="10.561421953892173"><ele>394.0</ele><time>2026-04-04T09:38:25Z</time></trkpt><trkpt lat="44.04977500833663" lon="10.561297357035933"><ele>394.0</ele><time>2026-04-04T09:38:26Z</time></trkpt><trkpt lat="44.049876972120614" lon="10.561207071272898"><ele>400.5</ele><time>2026-04-04T09:38:27Z</time></trkpt><trkpt lat="44.05000245192026" lon="10.56114149960751"><ele>407.0</ele><time>2026-04-04T09:38:28Z</time></trkpt><trkpt lat="44.05013089231758" lon="10.561098261930484"><ele>413.5</ele><time>2026-04-04T09:38:29Z</time></trkpt><trkpt lat="44.05025541563193" lon="10.561071911885216"><ele>420.0</ele><time>2026-04-04T09:38:30Z</time></trkpt><trkpt lat="44.05036862690888" lon="10.561054321653662"><ele>420.0</ele><time>2026-04-04T09:38:31Z</time></trkpt><trkpt lat="44.05046372629175" lon="10.561062470205894"><ele>420.0</ele><time>2026-04-04T09:38:32Z</time></trkpt><trkpt lat="44.050540612624616" lon="10.56108002913613"><ele>420.0</ele><time>2026-04-04T09:38:33Z</time></trkpt><trkpt lat="44.050639658386345" lon="10.561023353413894"><ele>420.0</ele><time>2026-04-04T09:38:35Z</time></trkpt><trkpt lat="44.05055531363951" lon="10.56088932164003"><ele>420.0</ele><time>2026-04-04T09:38:37Z</time></trkpt><trkpt lat="44.05046906034341" lon="10.560878459198085"><ele>420.0</ele><time>2026-04-04T09:38:38Z</time></trkpt><trkpt lat="44.0503671553058" lon="10.560875820904217"><ele>420.0</ele><time>2026-04-04T09:38:39Z</time></trkpt><trkpt lat="44.050248239978465" lon="10.560877015211368"><ele>420.0</ele><time>2026-04-04T09:38:40Z</time></trkpt><trkpt lat="44.0501166261937" lon="10.560853484224502"><ele>420.0</ele><time>2026-04-04T09:38:41Z</time></trkpt><trkpt lat="44.04997718384485" lon="10.560837052876996"><ele>418.0</ele><time>2026-04-04T09:38:42Z</time></trkpt><trkpt lat="44.04984928229763" lon="10.560848227409325"><ele>416.0</ele><time>2026-04-04T09:38:43Z</time></trkpt><trkpt lat="44.049720987662845" lon="10.560912275706226"><ele>414.0</ele><time>2026-04-04T09:38:44Z</time></trkpt><trkpt lat="44.04961135208554" lon="10.56103482803376"><ele>412.0</ele><time>2026-04-04T09:38:45Z</time></trkpt><trkpt lat="44.04953284605085" lon="10.561157198332198"><ele>412.00000000000006</ele><time>2026-04-04T09:38:46Z</time></trkpt><trkpt lat="44.049489901466536" lon="10.561248353318982"><ele>412.0</ele><time>2026-04-04T09:38:47Z</time></trkpt><trkpt lat="44.04941357850217" lon="10.561274917022565"><ele>412.0</ele><time>2026-04-04T09:38:49Z</time></trkpt><trkpt lat="44.04940031370227" lon="10.561147967075588"><ele>412.0</ele><time>2026-04-04T09:38:51Z</time></trkpt><trkpt lat="44.049454456946755" lon="10.561085068872153"><ele>412.00000000000006</ele><time>2026-04-04T09:38:52Z</time></trkpt><trkpt lat="44.04955040570564" lon="10.561014617793665"><ele>412.0</ele><time>2026-04-04T09:38:53Z</time></trkpt><trkpt lat="44.04965606224795" lon="10.560892469762042"><ele>412.0</ele><time>2026-04-04T09:38:54Z</time></trkpt><trkpt lat="44.04975813829169" lon="10.560718795314326"><ele>412.0</ele><time>2026-04-04T09:38:55Z</time></trkpt><trkpt lat="44.04984904889105" lon="10.560570586355034"><ele>412.0</ele><time>2026-04-04T09:38:56Z</time></trkpt><trkpt lat="44.04996454263919" lon="10.560480006696839"><ele>412.0</ele><time>2026-04-04T09:38:57Z</time></trkpt><trkpt lat="44.05011168018414" lon="10.560434725763537"><ele>414.0</ele><time>2026-04-04T09:38:58Z</time></trkpt><trkpt lat="44.05025460930468" lon="10.560404921034962"><ele>416.0</ele><time>2026-04-04T09:38:59Z</time></trkpt><trkpt lat="44.050390159407726" lon="10.560409492457387"><ele>418.0</ele><time>2026-04-04T09:39:00Z</time></trkpt><trkpt lat="44.05051575756073" lon="10.560434690271306"><ele>420.0</ele><time>2026-04-04T09:39:01Z</time></trkpt><trkpt lat="44.050635911105616" lon="10.560455772327252"><ele>420.0</ele><time>2026-04-04T09:39:02Z</time></trkpt><trkpt lat="44.05075871995425" lon="10.56047942601154"><ele>420.0</ele><time>2026-04-04T09:39:03Z</time></trkpt><trkpt lat="44.05087761161636" lon="10.560523637925325"><ele>420.0</ele><time>2026-04-04T09:39:04Z</time></trkpt><trkpt lat="44.05098390506922" lon="10.560552186646246"><ele>420.0</ele><time>2026-04-04T09:39:05Z</time></trkpt><trkpt lat="44.05108199776569" lon="10.560547846831486"><ele>423.4</ele><time>2026-04-04T09:39:06Z</time></trkpt><trkpt lat="44.05116686426198" lon="10.56054830207971"><ele>426.8</ele><time>2026-04-04T09:39:07Z</time></trkpt><trkpt lat="44.05124406304288" lon="10.560609742720501"><ele>430.20000000000005</ele><time>2026-04-04T09:39:08Z</time></trkpt><trkpt lat="44.0512806542429" lon="10.560749893729879"><ele>433.6</ele><time>2026-04-04T09:39:09Z</time></trkpt><trkpt lat="44.05128829327574" lon="10.560946512569746"><ele>437.0</ele><time>2026-04-04T09:39:10Z</time></trkpt><trkpt lat="44.05127373001881" lon="10.561138141246756"><ele>433.6</ele><time>2026-04-04T09:39:11Z</time></trkpt><trkpt lat="44.05125816852184" lon="10.561295117457504"><ele>430.20000000000005</ele><time>2026-04-04T09:39:12Z</time></trkpt><trkpt lat="44.051245972884224" lon="10.561447935196966"><ele>426.8</ele><time>2026-04-04T09:39:13Z</time></trkpt><trkpt lat="44.0512393394163" lon="10.561584867253632"><ele>423.4</ele><time>2026-04-04T09:39:14Z</time></trkpt><trkpt lat="44.051235205831986" lon="10.56170913756751"><ele>420.0</ele><time>2026-04-04T09:39:15Z</time></trkpt><trkpt lat="44.0512444686176" lon="10.561808169526108"><ele>420.0</ele><time>2026-04-04T09:39:16Z</time></trkpt><trkpt lat="44.05128271155115" lon="10.56189998917508"><ele>420.0</ele><time>2026-04-04T09:39:17Z</time></trkpt><trkpt lat="44.05135612053834" lon="10.561962801705894"><ele>420.0</ele><time>2026-04-04T09:39:18Z</time></trkpt><trkpt lat="44.05145071356954" lon="10.561996605000289"><ele>420.0</ele><time>2026-04-04T09:39:19Z</time></trkpt><trkpt lat="44.05155158325535" lon="10.562033198102197"><ele>420.0</ele><time>2026-04-04T09:39:20Z</time></trkpt><trkpt lat="44.05165314713439" lon="10.562079661256604"><ele>421.4</ele><time>2026-04-04T09:39:21Z</time></trkpt><trkpt lat="44.05175600164193" lon="10.562134999152711"><ele>422.8</ele><time>2026-04-04T09:39:22Z</time></trkpt><trkpt lat="44.05186123716645" lon="10.562195224075126"><ele>424.20000000000005</ele><time>2026-04-04T09:39:23Z</time></trkpt><trkpt lat="44.051968536671794" lon="10.56225198675805"><ele>425.6</ele><time>2026-04-04T09:39:24Z</time></trkpt><trkpt lat="44.05207297437861" lon="10.562288925677692"><ele>427.0</ele><time>2026-04-04T09:39:25Z</time></trkpt><trkpt lat="44.05217945414956" lon="10.562279464782796"><ele>427.00000000000006</ele><time>2026-04-04T09:39:26Z</time></trkpt><trkpt lat="44.05227709786745" lon="10.56221827957718"><ele>427.0</ele><time>2026-04-04T09:39:27Z</time></trkpt><trkpt lat="44.05235124510916" lon="10.562149701553041"><ele>427.0</ele><time>2026-04-04T09:39:28Z</time></trkpt><trkpt lat="44.052424738436834" lon="10.562116121475498"><ele>427.0</ele><time>2026-04-04T09:39:29Z</time></trkpt><trkpt lat="44.05249462325342" lon="10.562162992908622"><ele>427.00000000000006</ele><time>2026-04-04T09:39:30Z</time></trkpt><trkpt lat="44.052548241818" lon="10.56227282132137"><ele>427.0</ele><time>2026-04-04T09:39:31Z</time></trkpt><trkpt lat="44.052571146939606" lon="10.562432811812894"><ele>425.75</ele><time>2026-04-04T09:39:32Z</time></trkpt><trkpt lat="44.05262604740738" lon="10.562565748772569"><ele>424.5</ele><time>2026-04-04T09:39:33Z</time></trkpt><trkpt lat="44.052725884887124" lon="10.562674222171657"><ele>423.25</ele><time>2026-04-04T09:39:34Z</time></trkpt><trkpt lat="44.052836266486366" lon="10.56277546479767"><ele>422.0</ele><time>2026-04-04T09:39:35Z</time></trkpt><trkpt lat="44.05292357844251" lon="10.56287004782498"><ele>422.0</ele><time>2026-04-04T09:39:36Z</time></trkpt><trkpt lat="44.05299595154546" lon="10.562925792765807"><ele>422.0</ele><time>2026-04-04T09:39:37Z</time></trkpt><trkpt lat="44.05307072898685" lon="10.562913625312119"><ele>422.0</ele><time>2026-04-04T09:39:38Z</time></trkpt><trkpt lat="44.05315961910729" lon="10.562861398813013"><ele>422.0</ele><time>2026-04-04T09:39:39Z</time></trkpt><trkpt lat="44.053271277581224" lon="10.562781378517506"><ele>422.0</ele><time>2026-04-04T09:39:40Z</time></trkpt><trkpt lat="44.05336387924197" lon="10.562715657868713"><ele>430.0</ele><time>2026-04-04T09:39:41Z</time></trkpt><trkpt lat="44.05344160063642" lon="10.562704564385276"><ele>438.0</ele><time>2026-04-04T09:39:42Z</time></trkpt><trkpt lat="44.053499163939215" lon="10.562762904336159"><ele>446.00000000000006</ele><time>2026-04-04T09:39:43Z</time></trkpt><trkpt lat="44.053535881658306" lon="10.562884566715717"><ele>454.0</ele><time>2026-04-04T09:39:44Z</time></trkpt><trkpt lat="44.05355614916526" lon="10.563061033073977"><ele>462.0</ele><time>2026-04-04T09:39:45Z</time></trkpt><trkpt lat="44.05358524903214" lon="10.563224753431411"><ele>462.0</ele><time>2026-04-04T09:39:46Z</time></trkpt><trkpt lat="44.053614604656076" lon="10.563378122403956"><ele>462.00000000000006</ele><time>2026-04-04T09:39:47Z</time></trkpt><trkpt lat="44.05365164819949" lon="10.563492948750024"><ele>462.00000000000006</ele><time>2026-04-04T09:39:48Z</time></trkpt><trkpt lat="44.0537108474584" lon="10.563580461935631"><ele>462.0</ele><time>2026-04-04T09:39:49Z</time></trkpt><trkpt lat="44.053818584985514" lon="10.56363731566287"><ele>462.0</ele><time>2026-04-04T09:39:50Z</time></trkpt><trkpt lat="44.05394287351199" lon="10.563688056229998"><ele>463.0</ele><time>2026-04-04T09:39:51Z</time></trkpt><trkpt lat="44.054073154407945" lon="10.563722171208235"><ele>464.0</ele><time>2026-04-04T09:39:52Z</time></trkpt><trkpt lat="44.054196280995214" lon="10.563739470829965"><ele>465.0</ele><time>2026-04-04T09:39:53Z</time></trkpt><trkpt lat="44.05430404240039" lon="10.563732574868327"><ele>466.0</ele><time>2026-04-04T09:39:54Z</time></trkpt><trkpt lat="44.05439479537934" lon="10.563710252808976"><ele>466.00000000000006</ele><time>2026-04-04T09:39:55Z</time></trkpt><trkpt lat="44.05446837372133" lon="10.563740349031441"><ele>466.0</ele><time>2026-04-04T09:39:56Z</time></trkpt><trkpt lat="44.05451865914138" lon="10.563838239203612"><ele>466.0</ele><time>2026-04-04T09:39:57Z</time></trkpt><trkpt lat="44.05451646275088" lon="10.563962850768027"><ele>466.0</ele><time>2026-04-04T09:39:58Z</time></trkpt><trkpt lat="44.05448644780595" lon="10.564094999692067"><ele>466.00000000000006</ele><time>2026-04-04T09:39:59Z</time></trkpt><trkpt lat="44.054463847078225" lon="10.564212690090876"><ele>466.0</ele><time>2026-04-04T09:40:00Z</time></trkpt><trkpt lat="44.05446492956335" lon="10.564306425151607"><ele>466.00000000000006</ele><time>2026-04-04T09:40:01Z</time></trkpt><trkpt lat="44.054500159468205" lon="10.564391789045377"><ele>466.0</ele><time>2026-04-04T09:40:02Z</time></trkpt><trkpt lat="44.054567031272896" lon="10.56444886926162"><ele>466.0</ele><time>2026-04-04T09:40:03Z</time></trkpt><trkpt lat="44.05465474018523" lon="10.564448041935362"><ele>466.0</ele><time>2026-04-04T09:40:04Z</time></trkpt><trkpt lat="44.054749287894495" lon="10.564399871554167"><ele>466.00000000000006</ele><time>2026-04-04T09:40:05Z</time></trkpt><trkpt lat="44.05484663222119" lon="10.564337245210577"><ele>466.0</ele><time>2026-04-04T09:40:06Z</time></trkpt><trkpt lat="44.05494503532415" lon="10.564282353204414"><ele>471.4</ele><time>2026-04-04T09:40:07Z</time></trkpt><trkpt lat="44.05503453328045" lon="10.564251112875255"><ele>476.8</ele><time>2026-04-04T09:40:08Z</time></trkpt><trkpt lat="44.055131603839904" lon="10.564265970311617"><ele>482.19999999999993</ele><time>2026-04-04T09:40:09Z</time></trkpt><trkpt lat="44.0552229629954" lon="10.564336725093076"><ele>487.59999999999997</ele><time>2026-04-04T09:40:10Z</time></trkpt><trkpt lat="44.05532218546643" lon="10.564362479992656"><ele>493.0</ele><time>2026-04-04T09:40:11Z</time></trkpt><trkpt lat="44.055424734102495" lon="10.564367950945336"><ele>493.0</ele><time>2026-04-04T09:40:12Z</time></trkpt><trkpt lat="44.05551489885751" lon="10.564422439308435"><ele>492.99999999999994</ele><time>2026-04-04T09:40:13Z</time></trkpt><trkpt lat="44.05559964071957" lon="10.564503793075971"><ele>492.99999999999994</ele><time>2026-04-04T09:40:14Z</time></trkpt><trkpt lat="44.055689956721835" lon="10.564563982869895"><ele>493.0</ele><time>2026-04-04T09:40:15Z</time></trkpt><trkpt lat="44.05575270064916" lon="10.564650293204691"><ele>493.0</ele><time>2026-04-04T09:40:16Z</time></trkpt><trkpt lat="44.05577268275113" lon="10.564775913057282"><ele>489.4</ele><time>2026-04-04T09:40:17Z</time></trkpt><trkpt lat="44.05575222726379" lon="10.564912394441313"><ele>485.79999999999995</ele><time>2026-04-04T09:40:18Z</time></trkpt><trkpt lat="44.055718796066145" lon="10.5650611583637"><ele>482.2</ele><time>2026-04-04T09:40:19Z</time></trkpt><trkpt lat="44.055684025244126" lon="10.56519890679978"><ele>478.6</ele><time>2026-04-04T09:40:20Z</time></trkpt><trkpt lat="44.05564419173756" lon="10.56534553377193"><ele>475.0</ele><time>2026-04-04T09:40:21Z</time></trkpt><trkpt lat="44.05560653245338" lon="10.56550213374164"><ele>470.75</ele><time>2026-04-04T09:40:22Z</time></trkpt><trkpt lat="44.05556938411204" lon="10.565664986861952"><ele>466.5</ele><time>2026-04-04T09:40:23Z</time></trkpt><trkpt lat="44.055528912772566" lon="10.565827208040414"><ele>462.25</ele><time>2026-04-04T09:40:24Z</time></trkpt><trkpt lat="44.05549226245148" lon="10.565969751260761"><ele>458.0</ele><time>2026-04-04T09:40:25Z</time></trkpt><trkpt lat="44.055465765941676" lon="10.566096296299495"><ele>458.2</ele><time>2026-04-04T09:40:26Z</time></trkpt><trkpt lat="44.05546805855211" lon="10.566223414600678"><ele>458.4</ele><time>2026-04-04T09:40:27Z</time></trkpt><trkpt lat="44.05550840953379" lon="10.566348121887593"><ele>458.59999999999997</ele><time>2026-04-04T09:40:28Z</time></trkpt><trkpt lat="44.055571451129246" lon="10.56646156526686"><ele>458.79999999999995</ele><time>2026-04-04T09:40:29Z</time></trkpt><trkpt lat="44.05565376311987" lon="10.566547802969602"><ele>459.0</ele><time>2026-04-04T09:40:30Z</time></trkpt><trkpt lat="44.05575432131416" lon="10.566590316831585"><ele>467.75</ele><time>2026-04-04T09:40:31Z</time></trkpt><trkpt lat="44.05586876790279" lon="10.566601319654803"><ele>476.5</ele><time>2026-04-04T09:40:32Z</time></trkpt><trkpt lat="44.055993008963256" lon="10.566615328161744"><ele>485.25</ele><time>2026-04-04T09:40:33Z</time></trkpt><trkpt lat="44.05612217214369" lon="10.56663289927531"><ele>494.0</ele><time>2026-04-04T09:40:34Z</time></trkpt><trkpt lat="44.05625269461989" lon="10.566647474572152"><ele>494.0</ele><time>2026-04-04T09:40:35Z</time></trkpt><trkpt lat="44.05638871343642" lon="10.56665996571233"><ele>494.0</ele><time>2026-04-04T09:40:36Z</time></trkpt><trkpt lat="44.05652858200685" lon="10.566666619915638"><ele>494.0</ele><time>2026-04-04T09:40:37Z</time></trkpt><trkpt lat="44.0566737489036" lon="10.566668331644594"><ele>494.0</ele><time>2026-04-04T09:40:38Z</time></trkpt><trkpt lat="44.05680693381124" lon="10.566668917228712"><ele>498.6</ele><time>2026-04-04T09:40:39Z</time></trkpt><trkpt lat="44.05692377966818" lon="10.566671727968929"><ele>503.2</ele><time>2026-04-04T09:40:40Z</time></trkpt><trkpt lat="44.05702825729522" lon="10.566666819065663"><ele>507.80000000000007</ele><time>2026-04-04T09:40:41Z</time></trkpt><trkpt lat="44.05712769568234" lon="10.566674572200375"><ele>512.4</ele><time>2026-04-04T09:40:42Z</time></trkpt><trkpt lat="44.05722223052324" lon="10.566736082896803"><ele>517.0</ele><time>2026-04-04T09:40:43Z</time></trkpt><trkpt lat="44.0572876509039" lon="10.566850222834288"><ele>517.0</ele><time>2026-04-04T09:40:44Z</time></trkpt><trkpt lat="44.057346650422815" lon="10.566983239755844"><ele>517.0</ele><time>2026-04-04T09:40:45Z</time></trkpt><trkpt lat="44.05738534749728" lon="10.567122849793906"><ele>517.0</ele><time>2026-04-04T09:40:46Z</time></trkpt><trkpt lat="44.057401883501555" lon="10.567264603271365"><ele>517.0</ele><time>2026-04-04T09:40:47Z</time></trkpt><trkpt lat="44.0573816645598" lon="10.567391761615953"><ele>517.0</ele><time>2026-04-04T09:40:48Z</time></trkpt><trkpt lat="44.05736286589081" lon="10.567517346723692"><ele>511.33333333333337</ele><time>2026-04-04T09:40:49Z</time></trkpt><trkpt lat="44.05735409789027" lon="10.567657816291279"><ele>505.6666666666667</ele><time>2026-04-04T09:40:50Z</time></trkpt><trkpt lat="44.05735481721343" lon="10.56779908694645"><ele>500.0</ele><time>2026-04-04T09:40:51Z</time></trkpt><trkpt lat="44.05735348187793" lon="10.567912634073627"><ele>494.33333333333337</ele><time>2026-04-04T09:40:52Z</time></trkpt><trkpt lat="44.05736903951446" lon="10.568006913292853"><ele>488.6666666666667</ele><time>2026-04-04T09:40:53Z</time></trkpt><trkpt lat="44.0574240341253" lon="10.568080474756819"><ele>483.0</ele><time>2026-04-04T09:40:54Z</time></trkpt><trkpt lat="44.05733287833696" lon="10.568241970470835"><ele>481.4</ele><time>2026-04-04T09:40:55Z</time></trkpt><trkpt lat="44.057416020875515" lon="10.568247475568079"><ele>479.79999999999995</ele><time>2026-04-04T09:40:56Z</time></trkpt><trkpt lat="44.05750801657567" lon="10.568233696059337"><ele>478.2</ele><time>2026-04-04T09:40:57Z</time></trkpt><trkpt lat="44.057609729415795" lon="10.568225914717662"><ele>476.6</ele><time>2026-04-04T09:40:58Z</time></trkpt><trkpt lat="44.05772863878759" lon="10.568220636834997"><ele>475.0</ele><time>2026-04-04T09:40:59Z</time></trkpt><trkpt lat="44.05785130471748" lon="10.568213950701974"><ele>484.25</ele><time>2026-04-04T09:41:00Z</time></trkpt><trkpt lat="44.057981732171555" lon="10.568198551898206"><ele>493.5</ele><time>2026-04-04T09:41:01Z</time></trkpt><trkpt lat="44.058102998727165" lon="10.568206821839684"><ele>502.75</ele><time>2026-04-04T09:41:02Z</time></trkpt><trkpt lat="44.058211845952165" lon="10.568207975488207"><ele>512.0</ele><time>2026-04-04T09:41:03Z</time></trkpt><trkpt lat="44.05831276034581" lon="10.568192998716682"><ele>514.4</ele><time>2026-04-04T09:41:04Z</time></trkpt><trkpt lat="44.05839669538941" lon="10.568202140744662"><ele>516.8000000000001</ele><time>2026-04-04T09:41:05Z</time></trkpt><trkpt lat="44.058464518988956" lon="10.568264237040946"><ele>519.2</ele><time>2026-04-04T09:41:06Z</time></trkpt><trkpt lat="44.05849786149121" lon="10.568393652168156"><ele>521.6</ele><time>2026-04-04T09:41:07Z</time></trkpt><trkpt lat="44.05852737704542" lon="10.568530411084417"><ele>524.0</ele><time>2026-04-04T09:41:08Z</time></trkpt><trkpt lat="44.058540852148916" lon="10.56871572478673"><ele>524.0</ele><time>2026-04-04T09:41:09Z</time></trkpt><trkpt lat="44.058585627429466" lon="10.568869994717963"><ele>524.0</ele><time>2026-04-04T09:41:10Z</time></trkpt><trkpt lat="44.05860698968783" lon="10.569044451869399"><ele>524.0</ele><time>2026-04-04T09:41:11Z</time></trkpt><trkpt lat="44.05857167858267" lon="10.569249759982881"><ele>524.0</ele><time>2026-04-04T09:41:12Z</time></trkpt><trkpt lat="44.05853846100713" lon="10.56942840542481"><ele>524.5</ele><time>2026-04-04T09:41:13Z</time></trkpt><trkpt lat="44.058502417791594" lon="10.569585400210885"><ele>525.0</ele><time>2026-04-04T09:41:14Z</time></trkpt><trkpt lat="44.05845291394627" lon="10.56972019258299"><ele>525.5</ele><time>2026-04-04T09:41:15Z</time></trkpt><trkpt lat="44.05842484458208" lon="10.569863255070398"><ele>526.0</ele><time>2026-04-04T09:41:16Z</time></trkpt><trkpt lat="44.058429101795916" lon="10.57002877955075"><ele>526.0</ele><time>2026-04-04T09:41:17Z</time></trkpt><trkpt lat="44.05845375869323" lon="10.570169128408198"><ele>526.0</ele><time>2026-04-04T09:41:18Z</time></trkpt><trkpt lat="44.05845566526411" lon="10.570294374815788"><ele>526.0</ele><time>2026-04-04T09:41:19Z</time></trkpt><trkpt lat="44.05842536524507" lon="10.57040009383973"><ele>526.0</ele><time>2026-04-04T09:41:20Z</time></trkpt><trkpt lat="44.058389229242" lon="10.570496079478977"><ele>526.0</ele><time>2026-04-04T09:41:21Z</time></trkpt><trkpt lat="44.05835658751011" lon="10.570588058192685"><ele>526.0</ele><time>2026-04-04T09:41:22Z</time></trkpt><trkpt lat="44.058332214823885" lon="10.570686372745067"><ele>527.0</ele><time>2026-04-04T09:41:23Z</time></trkpt><trkpt lat="44.05830996706707" lon="10.570784061588993"><ele>528.0</ele><time>2026-04-04T09:41:24Z</time></trkpt><trkpt lat="44.05830932567099" lon="10.570879651917558"><ele>529.0</ele><time>2026-04-04T09:41:25Z</time></trkpt><trkpt lat="44.05834699138674" lon="10.570954475580384"><ele>530.0</ele><time>2026-04-04T09:41:26Z</time></trkpt><trkpt lat="44.05841112269339" lon="10.570998228610888"><ele>531.0</ele><time>2026-04-04T09:41:27Z</time></trkpt><trkpt lat="44.05848273358875" lon="10.571001328184593"><ele>532.0</ele><time>2026-04-04T09:41:28Z</time></trkpt><trkpt lat="44.05854553501285" lon="10.570976177109614"><ele>533.0</ele><time>2026-04-04T09:41:29Z</time></trkpt><trkpt lat="44.05863053307257" lon="10.570905595926916"><ele>533.0</ele><time>2026-04-04T09:41:31Z</time></trkpt><trkpt lat="44.058668088825264" lon="10.570834346387747"><ele>533.0</ele><time>2026-04-04T09:41:33Z</time></trkpt><trkpt lat="44.058724623990564" lon="10.570884887349745"><ele>533.0</ele><time>2026-04-04T09:43:47Z</time></trkpt><trkpt lat="44.05882362422064" lon="10.57092836499674"><ele>533.0</ele><time>2026-04-04T09:43:50Z</time></trkpt><trkpt lat="44.058936419790804" lon="10.570978052990464"><ele>533.0</ele><time>2026-04-04T09:43:52Z</time></trkpt><trkpt lat="44.05900884045832" lon="10.571033219258416"><ele>533.0</ele><time>2026-04-04T09:43:53Z</time></trkpt><trkpt lat="44.05907227958379" lon="10.571102081616909"><ele>530.0</ele><time>2026-04-04T09:43:54Z</time></trkpt><trkpt lat="44.05912830591812" lon="10.571168516189138"><ele>527.0</ele><time>2026-04-04T09:43:55Z</time></trkpt><trkpt lat="44.05918873944156" lon="10.57125226949336"><ele>524.0</ele><time>2026-04-04T09:43:56Z</time></trkpt><trkpt lat="44.05931281155019" lon="10.571365901188042"><ele>521.0</ele><time>2026-04-04T09:43:57Z</time></trkpt><trkpt lat="44.059394764533046" lon="10.571393273793925"><ele>518.0</ele><time>2026-04-04T09:43:58Z</time></trkpt><trkpt lat="44.05947540109294" lon="10.57135535623764"><ele>518.0</ele><time>2026-04-04T09:43:59Z</time></trkpt><trkpt lat="44.05954682629057" lon="10.571270679711136"><ele>518.0</ele><time>2026-04-04T09:44:00Z</time></trkpt><trkpt lat="44.05960897500774" lon="10.571177779412139"><ele>518.0</ele><time>2026-04-04T09:44:01Z</time></trkpt><trkpt lat="44.059676851942" lon="10.571113467209964"><ele>518.0</ele><time>2026-04-04T09:44:02Z</time></trkpt><trkpt lat="44.05977076721334" lon="10.571094313817811"><ele>518.0</ele><time>2026-04-04T09:44:03Z</time></trkpt><trkpt lat="44.05986798149915" lon="10.571135862234106"><ele>518.0</ele><time>2026-04-04T09:44:04Z</time></trkpt><trkpt lat="44.05994894983762" lon="10.571212283925568"><ele>518.0</ele><time>2026-04-04T09:44:05Z</time></trkpt><trkpt lat="44.060043079211354" lon="10.571263927073534"><ele>518.0</ele><time>2026-04-04T09:44:06Z</time></trkpt><trkpt lat="44.06013166589475" lon="10.57132217296681"><ele>518.0</ele><time>2026-04-04T09:44:07Z</time></trkpt><trkpt lat="44.06022395373482" lon="10.571339078112292"><ele>518.0</ele><time>2026-04-04T09:44:08Z</time></trkpt><trkpt lat="44.060315676193795" lon="10.57131305217226"><ele>520.1666666666666</ele><time>2026-04-04T09:44:09Z</time></trkpt><trkpt lat="44.060389893308844" lon="10.57131250959112"><ele>522.3333333333333</ele><time>2026-04-04T09:44:10Z</time></trkpt><trkpt lat="44.06048581554349" lon="10.571294627350445"><ele>524.5</ele><time>2026-04-04T09:44:11Z</time></trkpt><trkpt lat="44.06058329577669" lon="10.571278150955663"><ele>526.6666666666666</ele><time>2026-04-04T09:44:12Z</time></trkpt><trkpt lat="44.06067052008927" lon="10.571270202095963"><ele>528.8333333333334</ele><time>2026-04-04T09:44:13Z</time></trkpt><trkpt lat="44.060747217129446" lon="10.571251777562235"><ele>531.0</ele><time>2026-04-04T09:44:14Z</time></trkpt><trkpt lat="44.06080557122813" lon="10.571215883923193"><ele>535.6</ele><time>2026-04-04T09:44:15Z</time></trkpt><trkpt lat="44.06090680560581" lon="10.571212967177983"><ele>540.2</ele><time>2026-04-04T09:44:17Z</time></trkpt><trkpt lat="44.060953223394804" lon="10.571284257300164"><ele>544.8</ele><time>2026-04-04T09:44:18Z</time></trkpt><trkpt lat="44.06103019220986" lon="10.571456079831586"><ele>549.4</ele><time>2026-04-04T09:44:20Z</time></trkpt><trkpt lat="44.06102574614101" lon="10.571589695474968"><ele>554.0</ele><time>2026-04-04T09:44:21Z</time></trkpt><trkpt lat="44.061021277204595" lon="10.571723270470352"><ele>554.0</ele><time>2026-04-04T09:44:22Z</time></trkpt><trkpt lat="44.061045539333854" lon="10.571831807584466"><ele>554.0</ele><time>2026-04-04T09:44:23Z</time></trkpt><trkpt lat="44.061110394801055" lon="10.571911985867475"><ele>554.0</ele><time>2026-04-04T09:44:24Z</time></trkpt><trkpt lat="44.06119901038697" lon="10.571937922133833"><ele>554.0</ele><time>2026-04-04T09:44:25Z</time></trkpt><trkpt lat="44.06129328438019" lon="10.57194047373675"><ele>554.0</ele><time>2026-04-04T09:44:26Z</time></trkpt><trkpt lat="44.06138644280931" lon="10.571948462586835"><ele>554.0</ele><time>2026-04-04T09:44:27Z</time></trkpt><trkpt lat="44.06147249450188" lon="10.571966755811863"><ele>554.0</ele><time>2026-04-04T09:44:28Z</time></trkpt><trkpt lat="44.061547410995345" lon="10.571988417546573"><ele>554.0</ele><time>2026-04-04T09:44:29Z</time></trkpt><trkpt lat="44.06159597527702" lon="10.572050946219242"><ele>554.0</ele><time>2026-04-04T09:44:30Z</time></trkpt><trkpt lat="44.061621244674186" lon="10.57214322723839"><ele>554.0</ele><time>2026-04-04T09:44:31Z</time></trkpt><trkpt lat="44.061609014826175" lon="10.572260755595194"><ele>554.0</ele><time>2026-04-04T09:44:32Z</time></trkpt><trkpt lat="44.06158005056664" lon="10.572388541845417"><ele>554.0</ele><time>2026-04-04T09:44:33Z</time></trkpt><trkpt lat="44.0615237707567" lon="10.572508020206799"><ele>553.4</ele><time>2026-04-04T09:44:34Z</time></trkpt><trkpt lat="44.06145837837505" lon="10.572612560086176"><ele>552.8</ele><time>2026-04-04T09:44:35Z</time></trkpt><trkpt lat="44.06137528917688" lon="10.572706571495415"><ele>552.2</ele><time>2026-04-04T09:44:36Z</time></trkpt><trkpt lat="44.06128170627239" lon="10.572794975350705"><ele>551.6</ele><time>2026-04-04T09:44:37Z</time></trkpt><trkpt lat="44.0611816828906" lon="10.57286494938277"><ele>551.0</ele><time>2026-04-04T09:44:38Z</time></trkpt><trkpt lat="44.06107429985365" lon="10.572910830920877"><ele>551.2</ele><time>2026-04-04T09:44:39Z</time></trkpt><trkpt lat="44.060962999665165" lon="10.572940450293586"><ele>551.4000000000001</ele><time>2026-04-04T09:44:40Z</time></trkpt><trkpt lat="44.06085096706807" lon="10.57296889646737"><ele>551.6</ele><time>2026-04-04T09:44:41Z</time></trkpt><trkpt lat="44.06073961137364" lon="10.572997104227"><ele>551.8000000000001</ele><time>2026-04-04T09:44:42Z</time></trkpt><trkpt lat="44.060637520403894" lon="10.573027746552395"><ele>552.0</ele><time>2026-04-04T09:44:43Z</time></trkpt><trkpt lat="44.060549889082274" lon="10.573055579080078"><ele>552.0</ele><time>2026-04-04T09:44:44Z</time></trkpt><trkpt lat="44.060472746594634" lon="10.573086074511462"><ele>552.0</ele><time>2026-04-04T09:44:45Z</time></trkpt><trkpt lat="44.06039940432287" lon="10.573142349248059"><ele>552.0</ele><time>2026-04-04T09:44:46Z</time></trkpt><trkpt lat="44.060331698773254" lon="10.573232358178815"><ele>552.0</ele><time>2026-04-04T09:44:47Z</time></trkpt><trkpt lat="44.06026875718695" lon="10.573335512915667"><ele>552.0</ele><time>2026-04-04T09:44:48Z</time></trkpt><trkpt lat="44.060205645993065" lon="10.573446407805868"><ele>552.0</ele><time>2026-04-04T09:44:49Z</time></trkpt><trkpt lat="44.06016560070789" lon="10.573582404577095"><ele>552.0</ele><time>2026-04-04T09:44:50Z</time></trkpt><trkpt lat="44.06015641789011" lon="10.573717192892865"><ele>552.0</ele><time>2026-04-04T09:44:51Z</time></trkpt><trkpt lat="44.06017191273491" lon="10.573859399384718"><ele>552.0</ele><time>2026-04-04T09:44:52Z</time></trkpt><trkpt lat="44.06021729867316" lon="10.573985644178471"><ele>552.0</ele><time>2026-04-04T09:44:53Z</time></trkpt><trkpt lat="44.06029182422346" lon="10.574095486460061"><ele>553.0</ele><time>2026-04-04T09:44:54Z</time></trkpt><trkpt lat="44.06039426189639" lon="10.574180100626638"><ele>554.0</ele><time>2026-04-04T09:44:55Z</time></trkpt><trkpt lat="44.06048883425519" lon="10.574269858855265"><ele>555.0</ele><time>2026-04-04T09:44:56Z</time></trkpt><trkpt lat="44.06056658289693" lon="10.57434710672312"><ele>556.0</ele><time>2026-04-04T09:44:57Z</time></trkpt><trkpt lat="44.06065291031777" lon="10.574391799829405"><ele>557.0</ele><time>2026-04-04T09:44:58Z</time></trkpt><trkpt lat="44.06075681915063" lon="10.574376764273731"><ele>564.25</ele><time>2026-04-04T09:44:59Z</time></trkpt><trkpt lat="44.06086660679269" lon="10.574340033670852"><ele>571.5</ele><time>2026-04-04T09:45:00Z</time></trkpt><trkpt lat="44.06097969260902" lon="10.574304633660299"><ele>578.75</ele><time>2026-04-04T09:45:01Z</time></trkpt><trkpt lat="44.0610984135474" lon="10.5742752840431"><ele>586.0</ele><time>2026-04-04T09:45:02Z</time></trkpt><trkpt lat="44.06122161946585" lon="10.574244856059563"><ele>586.0</ele><time>2026-04-04T09:45:03Z</time></trkpt><trkpt lat="44.061339833647395" lon="10.57418416682798"><ele>586.0</ele><time>2026-04-04T09:45:04Z</time></trkpt><trkpt lat="44.061470835184245" lon="10.574145611216862"><ele>586.0</ele><time>2026-04-04T09:45:05Z</time></trkpt><trkpt lat="44.0616010680959" lon="10.574115597547895"><ele>586.0</ele><time>2026-04-04T09:45:06Z</time></trkpt><trkpt lat="44.06170624214474" lon="10.574078844258485"><ele>587.6666666666667</ele><time>2026-04-04T09:45:07Z</time></trkpt><trkpt lat="44.06179648284023" lon="10.574042715416542"><ele>589.3333333333334</ele><time>2026-04-04T09:45:08Z</time></trkpt><trkpt lat="44.06187382244813" lon="10.57405241377874"><ele>591.0</ele><time>2026-04-04T09:45:09Z</time></trkpt><trkpt lat="44.06193710774755" lon="10.574117729103746"><ele>592.6666666666666</ele><time>2026-04-04T09:45:10Z</time></trkpt><trkpt lat="44.0619844463162" lon="10.57422162914679"><ele>594.3333333333333</ele><time>2026-04-04T09:45:11Z</time></trkpt><trkpt lat="44.062022858281736" lon="10.574366121194279"><ele>596.0</ele><time>2026-04-04T09:45:12Z</time></trkpt><trkpt lat="44.0620605721422" lon="10.574514472680049"><ele>589.0</ele><time>2026-04-04T09:45:13Z</time></trkpt><trkpt lat="44.06210850979379" lon="10.574662711155415"><ele>582.0</ele><time>2026-04-04T09:45:14Z</time></trkpt><trkpt lat="44.06215749808294" lon="10.574795204857997"><ele>575.0</ele><time>2026-04-04T09:45:15Z</time></trkpt><trkpt lat="44.06222589083703" lon="10.574898411503865"><ele>568.0</ele><time>2026-04-04T09:45:16Z</time></trkpt><trkpt lat="44.06229236858431" lon="10.574999945583016"><ele>561.0</ele><time>2026-04-04T09:45:17Z</time></trkpt><trkpt lat="44.06238481874468" lon="10.575093390369911"><ele>561.0</ele><time>2026-04-04T09:45:18Z</time></trkpt><trkpt lat="44.06248479962285" lon="10.575184468261323"><ele>561.0</ele><time>2026-04-04T09:45:19Z</time></trkpt><trkpt lat="44.062589582197376" lon="10.575289261846759"><ele>561.0</ele><time>2026-04-04T09:45:20Z</time></trkpt><trkpt lat="44.06269344578882" lon="10.575396303715738"><ele>561.0</ele><time>2026-04-04T09:45:21Z</time></trkpt><trkpt lat="44.06278811823789" lon="10.575497434109568"><ele>561.0</ele><time>2026-04-04T09:45:22Z</time></trkpt><trkpt lat="44.062875050057706" lon="10.575591597890043"><ele>561.0</ele><time>2026-04-04T09:45:23Z</time></trkpt><trkpt lat="44.06295614260119" lon="10.575664794858454"><ele>561.0</ele><time>2026-04-04T09:45:24Z</time></trkpt><trkpt lat="44.06303705408919" lon="10.575725221181271"><ele>561.0</ele><time>2026-04-04T09:45:25Z</time></trkpt><trkpt lat="44.06312930283602" lon="10.575739269754118"><ele>561.0</ele><time>2026-04-04T09:45:26Z</time></trkpt><trkpt lat="44.0632373112597" lon="10.575705794374562"><ele>567.2</ele><time>2026-04-04T09:45:27Z</time></trkpt><trkpt lat="44.06334108775845" lon="10.575684837365442"><ele>573.4000000000001</ele><time>2026-04-04T09:45:28Z</time></trkpt><trkpt lat="44.06344068544451" lon="10.575660340885847"><ele>579.6</ele><time>2026-04-04T09:45:29Z</time></trkpt><trkpt lat="44.0635258949868" lon="10.575689764037293"><ele>585.8000000000001</ele><time>2026-04-04T09:45:30Z</time></trkpt><trkpt lat="44.06358263460903" lon="10.575801802730629"><ele>592.0</ele><time>2026-04-04T09:45:31Z</time></trkpt><trkpt lat="44.063631426080136" lon="10.57594744572802"><ele>592.0</ele><time>2026-04-04T09:45:32Z</time></trkpt><trkpt lat="44.063661337969926" lon="10.576099716984068"><ele>592.0</ele><time>2026-04-04T09:45:33Z</time></trkpt><trkpt lat="44.063692405773864" lon="10.576245921150099"><ele>592.0</ele><time>2026-04-04T09:45:34Z</time></trkpt><trkpt lat="44.06373862244008" lon="10.576374421114789"><ele>592.0</ele><time>2026-04-04T09:45:35Z</time></trkpt><trkpt lat="44.06381560390483" lon="10.57648875214037"><ele>592.0</ele><time>2026-04-04T09:45:36Z</time></trkpt><trkpt lat="44.063917378314464" lon="10.576591630735182"><ele>592.0</ele><time>2026-04-04T09:45:37Z</time></trkpt><trkpt lat="44.064018020169605" lon="10.57669840736238"><ele>592.0</ele><time>2026-04-04T09:45:38Z</time></trkpt><trkpt lat="44.06410202637953" lon="10.576782468886798"><ele>592.0</ele><time>2026-04-04T09:45:39Z</time></trkpt><trkpt lat="44.06417424250012" lon="10.576863688746919"><ele>592.0</ele><time>2026-04-04T09:45:40Z</time></trkpt><trkpt lat="44.06424978479054" lon="10.576904729361534"><ele>592.0</ele><time>2026-04-04T09:45:41Z</time></trkpt><trkpt lat="44.06433844179578" lon="10.57690431191675"><ele>592.0</ele><time>2026-04-04T09:45:42Z</time></trkpt><trkpt lat="44.0644531124858" lon="10.576861935524652"><ele>592.0</ele><time>2026-04-04T09:45:43Z</time></trkpt><trkpt lat="44.06457572288056" lon="10.576816315431202"><ele>592.0</ele><time>2026-04-04T09:45:44Z</time></trkpt><trkpt lat="44.06470292838191" lon="10.576785022013624"><ele>592.0</ele><time>2026-04-04T09:45:45Z</time></trkpt><trkpt lat="44.064833087865814" lon="10.576749607955827"><ele>594.25</ele><time>2026-04-04T09:45:46Z</time></trkpt><trkpt lat="44.064969694683796" lon="10.576714526928603"><ele>596.5</ele><time>2026-04-04T09:45:47Z</time></trkpt><trkpt lat="44.06510712934061" lon="10.57668711209102"><ele>598.75</ele><time>2026-04-04T09:45:48Z</time></trkpt><trkpt lat="44.06523723928091" lon="10.576672428890788"><ele>601.0</ele><time>2026-04-04T09:45:49Z</time></trkpt><trkpt lat="44.0653552798162" lon="10.576649258097692"><ele>601.0</ele><time>2026-04-04T09:45:50Z</time></trkpt><trkpt lat="44.06545925039731" lon="10.576633258909197"><ele>601.0</ele><time>2026-04-04T09:45:51Z</time></trkpt><trkpt lat="44.06555513961138" lon="10.576599444716985"><ele>601.0</ele><time>2026-04-04T09:45:52Z</time></trkpt><trkpt lat="44.06562958007327" lon="10.576488703341802"><ele>601.0</ele><time>2026-04-04T09:45:54Z</time></trkpt><trkpt lat="44.06563912613478" lon="10.576384614604052"><ele>601.0</ele><time>2026-04-04T09:45:55Z</time></trkpt><trkpt lat="44.06566536751517" lon="10.576259322689427"><ele>596.2</ele><time>2026-04-04T09:45:56Z</time></trkpt><trkpt lat="44.065718099951944" lon="10.576169987513689"><ele>591.4000000000001</ele><time>2026-04-04T09:45:57Z</time></trkpt><trkpt lat="44.06582206092741" lon="10.57619260363014"><ele>586.6</ele><time>2026-04-04T09:45:58Z</time></trkpt><trkpt lat="44.06592362603481" lon="10.576235920009449"><ele>581.8000000000001</ele><time>2026-04-04T09:45:59Z</time></trkpt><trkpt lat="44.06601862012872" lon="10.576266052738323"><ele>577.0</ele><time>2026-04-04T09:46:00Z</time></trkpt><trkpt lat="44.066093786781494" lon="10.576215078835586"><ele>590.2</ele><time>2026-04-04T09:46:01Z</time></trkpt><trkpt lat="44.06618151685965" lon="10.57609762183849"><ele>603.4000000000001</ele><time>2026-04-04T09:46:02Z</time></trkpt><trkpt lat="44.066271573469514" lon="10.576009956660457"><ele>616.5999999999999</ele><time>2026-04-04T09:46:03Z</time></trkpt><trkpt lat="44.06637603146046" lon="10.575979429057302"><ele>629.8</ele><time>2026-04-04T09:46:04Z</time></trkpt><trkpt lat="44.066476110350074" lon="10.575972272268457"><ele>643.0</ele><time>2026-04-04T09:46:05Z</time></trkpt><trkpt lat="44.066574780131106" lon="10.576002562570743"><ele>641.6</ele><time>2026-04-04T09:46:06Z</time></trkpt><trkpt lat="44.06666480208126" lon="10.576080014437903"><ele>640.1999999999999</ele><time>2026-04-04T09:46:07Z</time></trkpt><trkpt lat="44.06674261351554" lon="10.57617773389553"><ele>638.8</ele><time>2026-04-04T09:46:08Z</time></trkpt><trkpt lat="44.06681951686877" lon="10.57626851404607"><ele>637.4</ele><time>2026-04-04T09:46:09Z</time></trkpt><trkpt lat="44.066894569919256" lon="10.57634813720825"><ele>636.0</ele><time>2026-04-04T09:46:10Z</time></trkpt><trkpt lat="44.06697895383044" lon="10.576430741319017"><ele>629.5</ele><time>2026-04-04T09:46:11Z</time></trkpt><trkpt lat="44.06707744504478" lon="10.57649895717342"><ele>623.0</ele><time>2026-04-04T09:46:12Z</time></trkpt><trkpt lat="44.06718898263547" lon="10.576553571670148"><ele>616.5</ele><time>2026-04-04T09:46:13Z</time></trkpt><trkpt lat="44.067320253777666" lon="10.576601404252589"><ele>610.0</ele><time>2026-04-04T09:46:14Z</time></trkpt><trkpt lat="44.06744401296536" lon="10.576647711225885"><ele>610.0</ele><time>2026-04-04T09:46:15Z</time></trkpt><trkpt lat="44.067555124897794" lon="10.57669730422059"><ele>610.0</ele><time>2026-04-04T09:46:16Z</time></trkpt><trkpt lat="44.06763997315572" lon="10.576746772785276"><ele>610.0</ele><time>2026-04-04T09:46:17Z</time></trkpt><trkpt lat="44.06771431122647" lon="10.576807499873846"><ele>610.0</ele><time>2026-04-04T09:46:18Z</time></trkpt><trkpt lat="44.06776597608666" lon="10.576898654597596"><ele>610.0</ele><time>2026-04-04T09:46:19Z</time></trkpt><trkpt lat="44.06780266609453" lon="10.577036723897095"><ele>601.6</ele><time>2026-04-04T09:46:20Z</time></trkpt><trkpt lat="44.0678445984417" lon="10.5771753887273"><ele>593.2</ele><time>2026-04-04T09:46:21Z</time></trkpt><trkpt lat="44.06790574754927" lon="10.577303870515403"><ele>584.8</ele><time>2026-04-04T09:46:22Z</time></trkpt><trkpt lat="44.06797694960764" lon="10.577412815387818"><ele>576.4</ele><time>2026-04-04T09:46:23Z</time></trkpt><trkpt lat="44.0680560009668" lon="10.577497674468768"><ele>568.0</ele><time>2026-04-04T09:46:24Z</time></trkpt><trkpt lat="44.06814598164383" lon="10.577554338479768"><ele>568.0</ele><time>2026-04-04T09:46:25Z</time></trkpt><trkpt lat="44.06825774010208" lon="10.577586550439193"><ele>568.0</ele><time>2026-04-04T09:46:26Z</time></trkpt><trkpt lat="44.068378460120165" lon="10.57762915974927"><ele>568.0</ele><time>2026-04-04T09:46:27Z</time></trkpt><trkpt lat="44.06848976686861" lon="10.577674080330786"><ele>568.0</ele><time>2026-04-04T09:46:28Z</time></trkpt><trkpt lat="44.06859410618038" lon="10.577723185791452"><ele>573.8</ele><time>2026-04-04T09:46:29Z</time></trkpt><trkpt lat="44.068689890451644" lon="10.577757697962683"><ele>579.5999999999999</ele><time>2026-04-04T09:46:30Z</time></trkpt><trkpt lat="44.06879043781445" lon="10.577741159154401"><ele>585.4000000000001</ele><time>2026-04-04T09:46:31Z</time></trkpt><trkpt lat="44.06889604264102" lon="10.577674264212323"><ele>591.2</ele><time>2026-04-04T09:46:32Z</time></trkpt><trkpt lat="44.06900988823458" lon="10.577599556258926"><ele>597.0</ele><time>2026-04-04T09:46:33Z</time></trkpt><trkpt lat="44.06913573223391" lon="10.577567188102995"><ele>598.4</ele><time>2026-04-04T09:46:34Z</time></trkpt><trkpt lat="44.06925696223658" lon="10.577573511940802"><ele>599.8000000000001</ele><time>2026-04-04T09:46:35Z</time></trkpt><trkpt lat="44.069371277032324" lon="10.577585841273269"><ele>601.2</ele><time>2026-04-04T09:46:36Z</time></trkpt><trkpt lat="44.06947358325822" lon="10.57760122459187"><ele>602.6</ele><time>2026-04-04T09:46:37Z</time></trkpt><trkpt lat="44.06956900968603" lon="10.577618496671754"><ele>604.0</ele><time>2026-04-04T09:46:38Z</time></trkpt><trkpt lat="44.06965569513657" lon="10.577623954232049"><ele>604.0</ele><time>2026-04-04T09:46:39Z</time></trkpt><trkpt lat="44.069739548387986" lon="10.577602079668727"><ele>604.0</ele><time>2026-04-04T09:46:40Z</time></trkpt><trkpt lat="44.069812485047834" lon="10.57753029937496"><ele>604.0</ele><time>2026-04-04T09:46:41Z</time></trkpt><trkpt lat="44.069877615865074" lon="10.57743158906852"><ele>604.0</ele><time>2026-04-04T09:46:42Z</time></trkpt><trkpt lat="44.06993386303575" lon="10.577321743556992"><ele>604.0</ele><time>2026-04-04T09:46:43Z</time></trkpt><trkpt lat="44.06999605463523" lon="10.577249483336805"><ele>604.0</ele><time>2026-04-04T09:46:44Z</time></trkpt><trkpt lat="44.070054165943134" lon="10.577194772257835"><ele>602.6</ele><time>2026-04-04T09:46:45Z</time></trkpt><trkpt lat="44.07018101342046" lon="10.577225280112252"><ele>601.2</ele><time>2026-04-04T09:46:47Z</time></trkpt><trkpt lat="44.070257124012585" lon="10.577275380337236"><ele>599.8000000000001</ele><time>2026-04-04T09:46:48Z</time></trkpt><trkpt lat="44.07034295421257" lon="10.577341150962422"><ele>598.4</ele><time>2026-04-04T09:46:49Z</time></trkpt><trkpt lat="44.07043035784428" lon="10.577423741801521"><ele>597.0</ele><time>2026-04-04T09:46:50Z</time></trkpt><trkpt lat="44.070515702651534" lon="10.577509792219422"><ele>597.0</ele><time>2026-04-04T09:46:51Z</time></trkpt><trkpt lat="44.070604098958775" lon="10.57760040524227"><ele>597.0</ele><time>2026-04-04T09:46:52Z</time></trkpt><trkpt lat="44.07069378051074" lon="10.577682191609203"><ele>597.0</ele><time>2026-04-04T09:46:53Z</time></trkpt><trkpt lat="44.0707888009656" lon="10.577762151215865"><ele>597.0</ele><time>2026-04-04T09:46:54Z</time></trkpt><trkpt lat="44.070874682769286" lon="10.577842957338646"><ele>597.0</ele><time>2026-04-04T09:46:55Z</time></trkpt><trkpt lat="44.070955295244715" lon="10.577943321346805"><ele>595.0</ele><time>2026-04-04T09:46:56Z</time></trkpt><trkpt lat="44.071017079273815" lon="10.578052636068422"><ele>593.0</ele><time>2026-04-04T09:46:57Z</time></trkpt><trkpt lat="44.07108927101618" lon="10.578144167686501"><ele>591.0</ele><time>2026-04-04T09:46:58Z</time></trkpt><trkpt lat="44.07113769602442" lon="10.57825314587045"><ele>589.0</ele><time>2026-04-04T09:46:59Z</time></trkpt><trkpt lat="44.07114406933689" lon="10.57839221224674"><ele>587.0</ele><time>2026-04-04T09:47:00Z</time></trkpt><trkpt lat="44.0711028363269" lon="10.578527977174483"><ele>587.0</ele><time>2026-04-04T09:47:01Z</time></trkpt><trkpt lat="44.07104831499967" lon="10.578666138585124"><ele>587.0</ele><time>2026-04-04T09:47:02Z</time></trkpt><trkpt lat="44.07098281632083" lon="10.57880083125976"><ele>587.0</ele><time>2026-04-04T09:47:03Z</time></trkpt><trkpt lat="44.070920438764226" lon="10.578930286369738"><ele>587.0</ele><time>2026-04-04T09:47:04Z</time></trkpt><trkpt lat="44.07085938790915" lon="10.579072606032389"><ele>589.75</ele><time>2026-04-04T09:47:05Z</time></trkpt><trkpt lat="44.070802653010745" lon="10.57922201115003"><ele>592.5</ele><time>2026-04-04T09:47:06Z</time></trkpt><trkpt lat="44.0707513181024" lon="10.579371043699826"><ele>595.25</ele><time>2026-04-04T09:47:07Z</time></trkpt><trkpt lat="44.07070588988002" lon="10.579523448850132"><ele>598.0</ele><time>2026-04-04T09:47:08Z</time></trkpt><trkpt lat="44.07066317735116" lon="10.579668045384677"><ele>588.3333333333334</ele><time>2026-04-04T09:47:09Z</time></trkpt><trkpt lat="44.07062280366999" lon="10.579805533697703"><ele>578.6666666666667</ele><time>2026-04-04T09:47:10Z</time></trkpt><trkpt lat="44.07058980466007" lon="10.579923763412117"><ele>569.0</ele><time>2026-04-04T09:47:11Z</time></trkpt><trkpt lat="44.07055680062737" lon="10.580027307465844"><ele>559.3333333333334</ele><time>2026-04-04T09:47:12Z</time></trkpt><trkpt lat="44.070550591795794" lon="10.580127020560244"><ele>549.6666666666666</ele><time>2026-04-04T09:47:13Z</time></trkpt><trkpt lat="44.070587817566505" lon="10.580238984684044"><ele>540.0</ele><time>2026-04-04T09:47:14Z</time></trkpt><trkpt lat="44.07065647366637" lon="10.5803583707392"><ele>533.8</ele><time>2026-04-04T09:47:15Z</time></trkpt><trkpt lat="44.070722201902775" lon="10.580482750891681"><ele>527.6</ele><time>2026-04-04T09:47:16Z</time></trkpt><trkpt lat="44.07080183904943" lon="10.580590668890169"><ele>521.4</ele><time>2026-04-04T09:47:17Z</time></trkpt><trkpt lat="44.07089788845238" lon="10.580672304076874"><ele>515.2</ele><time>2026-04-04T09:47:18Z</time></trkpt><trkpt lat="44.070993055999196" lon="10.580735641214257"><ele>509.0</ele><time>2026-04-04T09:47:19Z</time></trkpt><trkpt lat="44.07107960228932" lon="10.580828917156442"><ele>514.8</ele><time>2026-04-04T09:47:20Z</time></trkpt><trkpt lat="44.07113377438138" lon="10.580949173222145"><ele>520.5999999999999</ele><time>2026-04-04T09:47:21Z</time></trkpt><trkpt lat="44.07118743441037" lon="10.58107638927991"><ele>526.4</ele><time>2026-04-04T09:47:22Z</time></trkpt><trkpt lat="44.071247289295314" lon="10.581164913643523"><ele>532.1999999999999</ele><time>2026-04-04T09:47:23Z</time></trkpt><trkpt lat="44.07134565429941" lon="10.581201649170506"><ele>538.0</ele><time>2026-04-04T09:47:24Z</time></trkpt><trkpt lat="44.07146329887442" lon="10.581237007754032"><ele>538.0</ele><time>2026-04-04T09:47:25Z</time></trkpt><trkpt lat="44.07157676209979" lon="10.581286121440177"><ele>538.0</ele><time>2026-04-04T09:47:26Z</time></trkpt><trkpt lat="44.071694545450036" lon="10.58134469626348"><ele>538.0</ele><time>2026-04-04T09:47:27Z</time></trkpt><trkpt lat="44.07180355125352" lon="10.581409341349023"><ele>538.0</ele><time>2026-04-04T09:47:28Z</time></trkpt><trkpt lat="44.07190421743229" lon="10.581459861205275"><ele>547.3333333333334</ele><time>2026-04-04T09:47:29Z</time></trkpt><trkpt lat="44.07199343287047" lon="10.581488767754134"><ele>556.6666666666667</ele><time>2026-04-04T09:47:30Z</time></trkpt><trkpt lat="44.07206880213723" lon="10.581525087052334"><ele>566.0</ele><time>2026-04-04T09:47:31Z</time></trkpt><trkpt lat="44.07211452906263" lon="10.58159051330994"><ele>575.3333333333334</ele><time>2026-04-04T09:47:32Z</time></trkpt><trkpt lat="44.072107720891644" lon="10.581695332502687"><ele>584.6666666666666</ele><time>2026-04-04T09:47:33Z</time></trkpt><trkpt lat="44.07206663845036" lon="10.581846073042962"><ele>594.0</ele><time>2026-04-04T09:47:34Z</time></trkpt><trkpt lat="44.07203435150306" lon="10.582004533717985"><ele>589.75</ele><time>2026-04-04T09:47:35Z</time></trkpt><trkpt lat="44.0720120460206" lon="10.582180334943764"><ele>585.5</ele><time>2026-04-04T09:47:36Z</time></trkpt><trkpt lat="44.072012105843285" lon="10.582343756600824"><ele>581.25</ele><time>2026-04-04T09:47:37Z</time></trkpt><trkpt lat="44.072016530550975" lon="10.582498585175037"><ele>577.0</ele><time>2026-04-04T09:47:38Z</time></trkpt><trkpt lat="44.07198679750969" lon="10.582646399083886"><ele>577.0</ele><time>2026-04-04T09:47:39Z</time></trkpt><trkpt lat="44.07192448408801" lon="10.582782285765747"><ele>577.0</ele><time>2026-04-04T09:47:40Z</time></trkpt><trkpt lat="44.071850167404634" lon="10.582903545876123"><ele>577.0</ele><time>2026-04-04T09:47:41Z</time></trkpt><trkpt lat="44.07178316543966" lon="10.58301526586472"><ele>577.0</ele><time>2026-04-04T09:47:42Z</time></trkpt><trkpt lat="44.07173321059174" lon="10.583130021455354"><ele>577.0</ele><time>2026-04-04T09:47:43Z</time></trkpt><trkpt lat="44.071719905982675" lon="10.583268581636483"><ele>578.0</ele><time>2026-04-04T09:47:44Z</time></trkpt><trkpt lat="44.07175586615812" lon="10.58342750682831"><ele>579.0</ele><time>2026-04-04T09:47:45Z</time></trkpt><trkpt lat="44.07178043979567" lon="10.58357363868504"><ele>580.0</ele><time>2026-04-04T09:47:46Z</time></trkpt><trkpt lat="44.071783694457324" lon="10.583717618126574"><ele>581.0</ele><time>2026-04-04T09:47:47Z</time></trkpt><trkpt lat="44.07177028350163" lon="10.583847162004448"><ele>582.0</ele><time>2026-04-04T09:47:48Z</time></trkpt><trkpt lat="44.071748975544764" lon="10.58395240658763"><ele>582.2</ele><time>2026-04-04T09:47:49Z</time></trkpt><trkpt lat="44.0717604936319" lon="10.584129287074955"><ele>582.4000000000001</ele><time>2026-04-04T09:47:51Z</time></trkpt><trkpt lat="44.07182358769216" lon="10.584225423928027"><ele>582.5999999999999</ele><time>2026-04-04T09:47:52Z</time></trkpt><trkpt lat="44.071917064513634" lon="10.584310603808063"><ele>582.8</ele><time>2026-04-04T09:47:53Z</time></trkpt><trkpt lat="44.072003973733274" lon="10.584405802946183"><ele>583.0</ele><time>2026-04-04T09:47:54Z</time></trkpt><trkpt lat="44.07209040076666" lon="10.584518456926983"><ele>574.8</ele><time>2026-04-04T09:47:55Z</time></trkpt><trkpt lat="44.072179089905795" lon="10.58463441357934"><ele>566.5999999999999</ele><time>2026-04-04T09:47:56Z</time></trkpt><trkpt lat="44.07225253627412" lon="10.584748314203079"><ele>558.4000000000001</ele><time>2026-04-04T09:47:57Z</time></trkpt><trkpt lat="44.07231285945807" lon="10.5848394290264"><ele>550.2</ele><time>2026-04-04T09:47:58Z</time></trkpt><trkpt lat="44.07235900091222" lon="10.584923730198717"><ele>542.0</ele><time>2026-04-04T09:47:59Z</time></trkpt><trkpt lat="44.07237204930102" lon="10.585023239297449"><ele>542.0</ele><time>2026-04-04T09:48:00Z</time></trkpt><trkpt lat="44.07235590975672" lon="10.5851282289331"><ele>542.0</ele><time>2026-04-04T09:48:01Z</time></trkpt><trkpt lat="44.072306182556254" lon="10.58523071686179"><ele>542.0</ele><time>2026-04-04T09:48:02Z</time></trkpt><trkpt lat="44.07224132565056" lon="10.585307757170126"><ele>542.0</ele><time>2026-04-04T09:48:03Z</time></trkpt><trkpt lat="44.072203685798755" lon="10.585393395233112"><ele>542.0</ele><time>2026-04-04T09:48:04Z</time></trkpt><trkpt lat="44.07219173394531" lon="10.585522517649839"><ele>542.0</ele><time>2026-04-04T09:48:05Z</time></trkpt><trkpt lat="44.07222644096798" lon="10.585664350784421"><ele>537.2</ele><time>2026-04-04T09:48:06Z</time></trkpt><trkpt lat="44.07227032513656" lon="10.585792340092894"><ele>532.4000000000001</ele><time>2026-04-04T09:48:07Z</time></trkpt><trkpt lat="44.07234641410896" lon="10.58590493930591"><ele>527.5999999999999</ele><time>2026-04-04T09:48:08Z</time></trkpt><trkpt lat="44.07242576024996" lon="10.586005240616918"><ele>522.8</ele><time>2026-04-04T09:48:09Z</time></trkpt><trkpt lat="44.07248382810815" lon="10.586094289558877"><ele>518.0</ele><time>2026-04-04T09:48:10Z</time></trkpt><trkpt lat="44.07254348649225" lon="10.58613980557137"><ele>522.0</ele><time>2026-04-04T09:48:11Z</time></trkpt><trkpt lat="44.072629905123534" lon="10.586141408180096"><ele>526.0</ele><time>2026-04-04T09:48:12Z</time></trkpt><trkpt lat="44.072732378253804" lon="10.58613147102447"><ele>530.0</ele><time>2026-04-04T09:48:13Z</time></trkpt><trkpt lat="44.07283690729457" lon="10.586132897130671"><ele>534.0</ele><time>2026-04-04T09:48:14Z</time></trkpt><trkpt lat="44.07294241158912" lon="10.586156509212579"><ele>538.0</ele><time>2026-04-04T09:48:15Z</time></trkpt><trkpt lat="44.0730440308582" lon="10.586208379697421"><ele>538.0</ele><time>2026-04-04T09:48:16Z</time></trkpt><trkpt lat="44.07313089764673" lon="10.586267473986211"><ele>538.0</ele><time>2026-04-04T09:48:17Z</time></trkpt><trkpt lat="44.07321176456912" lon="10.58632547804266"><ele>538.0</ele><time>2026-04-04T09:48:18Z</time></trkpt><trkpt lat="44.07330052519586" lon="10.586357330950875"><ele>538.0</ele><time>2026-04-04T09:48:19Z</time></trkpt><trkpt lat="44.07339374371727" lon="10.586347445383701"><ele>538.0</ele><time>2026-04-04T09:48:20Z</time></trkpt><trkpt lat="44.07349539366348" lon="10.58631568909654"><ele>545.0</ele><time>2026-04-04T09:48:21Z</time></trkpt><trkpt lat="44.07359814459846" lon="10.586281108856728"><ele>552.0</ele><time>2026-04-04T09:48:22Z</time></trkpt><trkpt lat="44.0737127739491" lon="10.586274470399648"><ele>559.0</ele><time>2026-04-04T09:48:23Z</time></trkpt><trkpt lat="44.07383522368818" lon="10.58630241396901"><ele>566.0</ele><time>2026-04-04T09:48:24Z</time></trkpt><trkpt lat="44.07395403970106" lon="10.586343324188284"><ele>566.0</ele><time>2026-04-04T09:48:25Z</time></trkpt><trkpt lat="44.07406550703375" lon="10.586376183158263"><ele>566.0</ele><time>2026-04-04T09:48:26Z</time></trkpt><trkpt lat="44.07417092672062" lon="10.586392150020988"><ele>566.0</ele><time>2026-04-04T09:48:27Z</time></trkpt><trkpt lat="44.07427429067884" lon="10.586379440876481"><ele>566.0</ele><time>2026-04-04T09:48:28Z</time></trkpt><trkpt lat="44.07437762440914" lon="10.58634168794909"><ele>566.0</ele><time>2026-04-04T09:48:29Z</time></trkpt><trkpt lat="44.07446800822517" lon="10.586286385317042"><ele>568.6</ele><time>2026-04-04T09:48:30Z</time></trkpt><trkpt lat="44.0745602755734" lon="10.586259485324781"><ele>571.2</ele><time>2026-04-04T09:48:31Z</time></trkpt><trkpt lat="44.07465441754024" lon="10.58628931833865"><ele>573.8</ele><time>2026-04-04T09:48:32Z</time></trkpt><trkpt lat="44.07474923078032" lon="10.586347737667936"><ele>576.4</ele><time>2026-04-04T09:48:33Z</time></trkpt><trkpt lat="44.07484525376486" lon="10.586438617236867"><ele>579.0</ele><time>2026-04-04T09:48:34Z</time></trkpt><trkpt lat="44.074940945946665" lon="10.586518947656156"><ele>583.75</ele><time>2026-04-04T09:48:35Z</time></trkpt><trkpt lat="44.07504382182552" lon="10.586596099067885"><ele>588.5</ele><time>2026-04-04T09:48:36Z</time></trkpt><trkpt lat="44.07514977934526" lon="10.58665370188567"><ele>593.25</ele><time>2026-04-04T09:48:37Z</time></trkpt><trkpt lat="44.07526085756436" lon="10.5866923504284"><ele>598.0</ele><time>2026-04-04T09:48:38Z</time></trkpt><trkpt lat="44.07536633670925" lon="10.586731196837075"><ele>598.0</ele><time>2026-04-04T09:48:39Z</time></trkpt><trkpt lat="44.07545786369906" lon="10.586767877475491"><ele>598.0</ele><time>2026-04-04T09:48:40Z</time></trkpt><trkpt lat="44.07553847808025" lon="10.586789747337427"><ele>598.0</ele><time>2026-04-04T09:48:41Z</time></trkpt><trkpt lat="44.07560298987415" lon="10.586828730587946"><ele>598.0</ele><time>2026-04-04T09:48:42Z</time></trkpt><trkpt lat="44.075648464054446" lon="10.586900085233735"><ele>598.0</ele><time>2026-04-04T09:48:43Z</time></trkpt><trkpt lat="44.07567676416727" lon="10.586992934143677"><ele>598.0</ele><time>2026-04-04T09:48:44Z</time></trkpt><trkpt lat="44.07567362981047" lon="10.587094130968497"><ele>597.4</ele><time>2026-04-04T09:48:45Z</time></trkpt><trkpt lat="44.075644646063196" lon="10.5871877341837"><ele>596.8</ele><time>2026-04-04T09:48:46Z</time></trkpt><trkpt lat="44.07558949879846" lon="10.587271424676224"><ele>596.2</ele><time>2026-04-04T09:48:47Z</time></trkpt><trkpt lat="44.07550356693053" lon="10.58731953905105"><ele>595.6</ele><time>2026-04-04T09:48:48Z</time></trkpt><trkpt lat="44.07540210533858" lon="10.587351008288723"><ele>595.0</ele><time>2026-04-04T09:48:49Z</time></trkpt><trkpt lat="44.07530321553827" lon="10.587374440286098"><ele>595.0</ele><time>2026-04-04T09:48:50Z</time></trkpt><trkpt lat="44.07520877046539" lon="10.587408140529634"><ele>595.0</ele><time>2026-04-04T09:48:51Z</time></trkpt><trkpt lat="44.075129933562046" lon="10.587444958604722"><ele>595.0</ele><time>2026-04-04T09:48:52Z</time></trkpt><trkpt lat="44.07506244375091" lon="10.587495926894075"><ele>595.0</ele><time>2026-04-04T09:48:53Z</time></trkpt><trkpt lat="44.075006484691784" lon="10.587594457077726"><ele>595.0</ele><time>2026-04-04T09:48:54Z</time></trkpt><trkpt lat="44.07496008935178" lon="10.587727202692566"><ele>593.5</ele><time>2026-04-04T09:48:55Z</time></trkpt><trkpt lat="44.074908564230235" lon="10.587871084711752"><ele>592.0</ele><time>2026-04-04T09:48:56Z</time></trkpt><trkpt lat="44.07485195750627" lon="10.588020520743948"><ele>590.5</ele><time>2026-04-04T09:48:57Z</time></trkpt><trkpt lat="44.074789480114205" lon="10.58817412889425"><ele>589.0</ele><time>2026-04-04T09:48:58Z</time></trkpt><trkpt lat="44.07471848647015" lon="10.588327116408742"><ele>589.0</ele><time>2026-04-04T09:48:59Z</time></trkpt><trkpt lat="44.07463713493054" lon="10.588472344586377"><ele>589.0</ele><time>2026-04-04T09:49:00Z</time></trkpt><trkpt lat="44.074564483906855" lon="10.588603768191682"><ele>589.0</ele><time>2026-04-04T09:49:01Z</time></trkpt><trkpt lat="44.07449713507401" lon="10.588725362526622"><ele>589.0</ele><time>2026-04-04T09:49:02Z</time></trkpt><trkpt lat="44.074433012556185" lon="10.588841861109376"><ele>594.75</ele><time>2026-04-04T09:49:03Z</time></trkpt><trkpt lat="44.07436573917062" lon="10.588962200198967"><ele>600.5</ele><time>2026-04-04T09:49:04Z</time></trkpt><trkpt lat="44.07429493645271" lon="10.58908761789928"><ele>606.25</ele><time>2026-04-04T09:49:05Z</time></trkpt><trkpt lat="44.07422884535181" lon="10.58922369956374"><ele>612.0</ele><time>2026-04-04T09:49:06Z</time></trkpt><trkpt lat="44.07416607315077" lon="10.589349787741078"><ele>609.0</ele><time>2026-04-04T09:49:07Z</time></trkpt><trkpt lat="44.07408912768328" lon="10.589462481667343"><ele>606.0</ele><time>2026-04-04T09:49:08Z</time></trkpt><trkpt lat="44.0740018114002" lon="10.589562741516229"><ele>603.0</ele><time>2026-04-04T09:49:09Z</time></trkpt><trkpt lat="44.073913315361615" lon="10.589654098003985"><ele>600.0</ele><time>2026-04-04T09:49:10Z</time></trkpt><trkpt lat="44.07381273867914" lon="10.589719291726983"><ele>597.0</ele><time>2026-04-04T09:49:11Z</time></trkpt><trkpt lat="44.07370427358119" lon="10.58976831449516"><ele>597.0</ele><time>2026-04-04T09:49:12Z</time></trkpt><trkpt lat="44.07360099251263" lon="10.589819180354061"><ele>597.0</ele><time>2026-04-04T09:49:13Z</time></trkpt><trkpt lat="44.07351049725334" lon="10.589864651754922"><ele>597.0</ele><time>2026-04-04T09:49:14Z</time></trkpt><trkpt lat="44.07344927498645" lon="10.589920625624286"><ele>597.0</ele><time>2026-04-04T09:49:15Z</time></trkpt><trkpt lat="44.07340615914188" lon="10.590005544203049"><ele>597.0</ele><time>2026-04-04T09:49:16Z</time></trkpt><trkpt lat="44.07339713653592" lon="10.590114785007005"><ele>597.0</ele><time>2026-04-04T09:49:17Z</time></trkpt><trkpt lat="44.073441150262866" lon="10.590241446787307"><ele>596.0</ele><time>2026-04-04T09:49:18Z</time></trkpt><trkpt lat="44.07350257398861" lon="10.590347485687408"><ele>595.0</ele><time>2026-04-04T09:49:19Z</time></trkpt><trkpt lat="44.07358671922943" lon="10.590455605762429"><ele>594.0</ele><time>2026-04-04T09:49:20Z</time></trkpt><trkpt lat="44.073665499861235" lon="10.590578118657525"><ele>593.0</ele><time>2026-04-04T09:49:21Z</time></trkpt><trkpt lat="44.073743685952564" lon="10.590718141148118"><ele>593.0</ele><time>2026-04-04T09:49:22Z</time></trkpt><trkpt lat="44.07382103056635" lon="10.590859046402397"><ele>593.0</ele><time>2026-04-04T09:49:23Z</time></trkpt><trkpt lat="44.07390052713742" lon="10.590994298487535"><ele>593.0</ele><time>2026-04-04T09:49:24Z</time></trkpt><trkpt lat="44.07399117734404" lon="10.591109144647843"><ele>593.0</ele><time>2026-04-04T09:49:25Z</time></trkpt><trkpt lat="44.074093887506095" lon="10.59120313026086"><ele>597.25</ele><time>2026-04-04T09:49:26Z</time></trkpt><trkpt lat="44.074203291913584" lon="10.591285438206125"><ele>601.5</ele><time>2026-04-04T09:49:27Z</time></trkpt><trkpt lat="44.07431249216681" lon="10.591356862675841"><ele>605.75</ele><time>2026-04-04T09:49:28Z</time></trkpt><trkpt lat="44.07442925446904" lon="10.591423979791251"><ele>610.0</ele><time>2026-04-04T09:49:29Z</time></trkpt><trkpt lat="44.07453657314358" lon="10.591501030205624"><ele>610.0</ele><time>2026-04-04T09:49:30Z</time></trkpt><trkpt lat="44.07464040078661" lon="10.591578773642315"><ele>610.0</ele><time>2026-04-04T09:49:31Z</time></trkpt><trkpt lat="44.07473843204919" lon="10.591657753903092"><ele>610.0</ele><time>2026-04-04T09:49:32Z</time></trkpt><trkpt lat="44.0748273788356" lon="10.591748938348848"><ele>610.0</ele><time>2026-04-04T09:49:33Z</time></trkpt><trkpt lat="44.07491339621602" lon="10.591849838631333"><ele>610.25</ele><time>2026-04-04T09:49:34Z</time></trkpt><trkpt lat="44.074997562277176" lon="10.591967674290423"><ele>610.5</ele><time>2026-04-04T09:49:35Z</time></trkpt><trkpt lat="44.07507249952736" lon="10.592101783842718"><ele>610.75</ele><time>2026-04-04T09:49:36Z</time></trkpt><trkpt lat="44.07514053165585" lon="10.59224563303137"><ele>611.0</ele><time>2026-04-04T09:49:37Z</time></trkpt><trkpt lat="44.07521027422434" lon="10.592383437783097"><ele>611.0</ele><time>2026-04-04T09:49:38Z</time></trkpt><trkpt lat="44.07529186732274" lon="10.592514255926535"><ele>611.0</ele><time>2026-04-04T09:49:39Z</time></trkpt><trkpt lat="44.075373700009564" lon="10.592617523272494"><ele>611.0</ele><time>2026-04-04T09:49:40Z</time></trkpt><trkpt lat="44.075444212091284" lon="10.592731042852206"><ele>611.0</ele><time>2026-04-04T09:49:41Z</time></trkpt><trkpt lat="44.07551424856723" lon="10.592821082059018"><ele>611.0</ele><time>2026-04-04T09:49:42Z</time></trkpt><trkpt lat="44.075573889577186" lon="10.592911128433482"><ele>612.3333333333333</ele><time>2026-04-04T09:49:43Z</time></trkpt><trkpt lat="44.075627697124254" lon="10.592992827455321"><ele>613.6666666666666</ele><time>2026-04-04T09:49:44Z</time></trkpt><trkpt lat="44.07568119847263" lon="10.593058144133128"><ele>615.0</ele><time>2026-04-04T09:49:45Z</time></trkpt><trkpt lat="44.0757527375602" lon="10.593087421832438"><ele>616.3333333333334</ele><time>2026-04-04T09:49:46Z</time></trkpt><trkpt lat="44.0758342057572" lon="10.593097252907565"><ele>617.6666666666667</ele><time>2026-04-04T09:49:47Z</time></trkpt><trkpt lat="44.07591161328006" lon="10.593111294614495"><ele>619.0</ele><time>2026-04-04T09:49:48Z</time></trkpt><trkpt lat="44.075990239333784" lon="10.593122321508552"><ele>619.0</ele><time>2026-04-04T09:49:49Z</time></trkpt><trkpt lat="44.076068677337915" lon="10.593137008095873"><ele>619.0</ele><time>2026-04-04T09:49:50Z</time></trkpt><trkpt lat="44.07614287518774" lon="10.593163307512173"><ele>619.0</ele><time>2026-04-04T09:49:51Z</time></trkpt><trkpt lat="44.0762043552607" lon="10.593212914384855"><ele>619.0</ele><time>2026-04-04T09:49:52Z</time></trkpt><trkpt lat="44.07624098053353" lon="10.593296643839414"><ele>619.0</ele><time>2026-04-04T09:49:53Z</time></trkpt><trkpt lat="44.07625812121757" lon="10.593397729277308"><ele>619.0</ele><time>2026-04-04T09:49:54Z</time></trkpt><trkpt lat="44.07624827807655" lon="10.593513729785379"><ele>621.6666666666667</ele><time>2026-04-04T09:49:55Z</time></trkpt><trkpt lat="44.076280328076194" lon="10.593674866768273"><ele>624.3333333333334</ele><time>2026-04-04T09:49:57Z</time></trkpt><trkpt lat="44.07634116858386" lon="10.593727087665457"><ele>627.0</ele><time>2026-04-04T09:49:58Z</time></trkpt><trkpt lat="44.07642077815675" lon="10.593750105467763"><ele>629.6666666666666</ele><time>2026-04-04T09:49:59Z</time></trkpt><trkpt lat="44.07649870617375" lon="10.593770624132594"><ele>632.3333333333333</ele><time>2026-04-04T09:50:00Z</time></trkpt><trkpt lat="44.0765845587833" lon="10.593802846158281"><ele>635.0</ele><time>2026-04-04T09:50:01Z</time></trkpt><trkpt lat="44.07666777585836" lon="10.593827416770065"><ele>635.0</ele><time>2026-04-04T09:50:02Z</time></trkpt><trkpt lat="44.07674519075244" lon="10.593872170712256"><ele>635.0</ele><time>2026-04-04T09:50:03Z</time></trkpt><trkpt lat="44.07679889149544" lon="10.593952489029004"><ele>635.0</ele><time>2026-04-04T09:50:04Z</time></trkpt><trkpt lat="44.076829930883406" lon="10.59405693481923"><ele>635.0</ele><time>2026-04-04T09:50:05Z</time></trkpt><trkpt lat="44.076844753989306" lon="10.59415156703722"><ele>635.0</ele><time>2026-04-04T09:50:06Z</time></trkpt><trkpt lat="44.07684620239953" lon="10.594269482014962"><ele>635.0</ele><time>2026-04-04T09:50:07Z</time></trkpt><trkpt lat="44.076762658127414" lon="10.594352853496371"><ele>635.0</ele><time>2026-04-04T09:50:08Z</time></trkpt><trkpt lat="44.076737717503896" lon="10.59445059571633"><ele>635.0</ele><time>2026-04-04T09:50:09Z</time></trkpt><trkpt lat="44.076727791127766" lon="10.594557889379308"><ele>635.0</ele><time>2026-04-04T09:50:10Z</time></trkpt><trkpt lat="44.07673448771927" lon="10.594659664603453"><ele>635.0</ele><time>2026-04-04T09:50:11Z</time></trkpt><trkpt lat="44.07675550211643" lon="10.594761683928908"><ele>635.0</ele><time>2026-04-04T09:50:12Z</time></trkpt><trkpt lat="44.07678924945461" lon="10.594856615333299"><ele>635.0</ele><time>2026-04-04T09:50:13Z</time></trkpt><trkpt lat="44.076832137090136" lon="10.594943052259733"><ele>632.3333333333333</ele><time>2026-04-04T09:50:14Z</time></trkpt><trkpt lat="44.07688424848915" lon="10.59503437202946"><ele>629.6666666666666</ele><time>2026-04-04T09:50:15Z</time></trkpt><trkpt lat="44.0769380436661" lon="10.59512367031078"><ele>627.0</ele><time>2026-04-04T09:50:16Z</time></trkpt><trkpt lat="44.07699862381739" lon="10.595199525831642"><ele>624.3333333333334</ele><time>2026-04-04T09:50:17Z</time></trkpt><trkpt lat="44.077057497967594" lon="10.595268029232185"><ele>621.6666666666667</ele><time>2026-04-04T09:50:18Z</time></trkpt><trkpt lat="44.077103570108214" lon="10.595361222455107"><ele>619.0</ele><time>2026-04-04T09:50:19Z</time></trkpt><trkpt lat="44.077114984130226" lon="10.595465815457393"><ele>615.8333333333334</ele><time>2026-04-04T09:50:20Z</time></trkpt><trkpt lat="44.07711065945523" lon="10.59558352981237"><ele>612.6666666666667</ele><time>2026-04-04T09:50:21Z</time></trkpt><trkpt lat="44.077115688760514" lon="10.595714433966254"><ele>609.5</ele><time>2026-04-04T09:50:22Z</time></trkpt><trkpt lat="44.077135168758986" lon="10.595828251077517"><ele>606.3333333333334</ele><time>2026-04-04T09:50:23Z</time></trkpt><trkpt lat="44.077163562078844" lon="10.595945562595809"><ele>603.1666666666666</ele><time>2026-04-04T09:50:24Z</time></trkpt><trkpt lat="44.077193363171155" lon="10.596057641270438"><ele>600.0</ele><time>2026-04-04T09:50:25Z</time></trkpt><trkpt lat="44.07723573469882" lon="10.59617492011182"><ele>595.4</ele><time>2026-04-04T09:50:26Z</time></trkpt><trkpt lat="44.07728589623604" lon="10.596294828439607"><ele>590.8</ele><time>2026-04-04T09:50:27Z</time></trkpt><trkpt lat="44.07733176520106" lon="10.596415018961602"><ele>586.2</ele><time>2026-04-04T09:50:28Z</time></trkpt><trkpt lat="44.077374092567574" lon="10.59653599010467"><ele>581.6</ele><time>2026-04-04T09:50:29Z</time></trkpt><trkpt lat="44.07741404503794" lon="10.596648750471989"><ele>577.0</ele><time>2026-04-04T09:50:30Z</time></trkpt><trkpt lat="44.07745292992442" lon="10.596757059540138"><ele>586.5</ele><time>2026-04-04T09:50:31Z</time></trkpt><trkpt lat="44.07748893690223" lon="10.5968646926633"><ele>596.0</ele><time>2026-04-04T09:50:32Z</time></trkpt><trkpt lat="44.07750774230287" lon="10.596965480578994"><ele>605.5</ele><time>2026-04-04T09:50:33Z</time></trkpt><trkpt lat="44.07750669685164" lon="10.597067005241744"><ele>615.0</ele><time>2026-04-04T09:50:34Z</time></trkpt><trkpt lat="44.07749364992254" lon="10.59716124554988"><ele>624.5</ele><time>2026-04-04T09:50:35Z</time></trkpt><trkpt lat="44.07751998641985" lon="10.597329226140687"><ele>634.0</ele><time>2026-04-04T09:50:36Z</time></trkpt><trkpt lat="44.07752713258921" lon="10.597455889613354"><ele>634.0</ele><time>2026-04-04T09:50:37Z</time></trkpt><trkpt lat="44.07753481955031" lon="10.597574006743814"><ele>634.0</ele><time>2026-04-04T09:50:38Z</time></trkpt><trkpt lat="44.077540704119656" lon="10.597690910413588"><ele>634.0</ele><time>2026-04-04T09:50:39Z</time></trkpt><trkpt lat="44.077548854631274" lon="10.597808223744396"><ele>634.0</ele><time>2026-04-04T09:50:40Z</time></trkpt><trkpt lat="44.0775582911312" lon="10.597919417453726"><ele>634.0</ele><time>2026-04-04T09:50:41Z</time></trkpt><trkpt lat="44.0775664104043" lon="10.598016129045256"><ele>634.0</ele><time>2026-04-04T09:50:42Z</time></trkpt><trkpt lat="44.07758922074509" lon="10.598104972919353"><ele>629.2</ele><time>2026-04-04T09:50:43Z</time></trkpt><trkpt lat="44.07764788594974" lon="10.59817942046115"><ele>624.4</ele><time>2026-04-04T09:50:44Z</time></trkpt><trkpt lat="44.07772283014695" lon="10.598245038408532"><ele>619.6</ele><time>2026-04-04T09:50:45Z</time></trkpt><trkpt lat="44.077799972168464" lon="10.598312664589034"><ele>614.8</ele><time>2026-04-04T09:50:46Z</time></trkpt><trkpt lat="44.07787541611046" lon="10.598403485403868"><ele>610.0</ele><time>2026-04-04T09:50:47Z</time></trkpt><trkpt lat="44.07794416718449" lon="10.59850239557601"><ele>610.0</ele><time>2026-04-04T09:50:48Z</time></trkpt><trkpt lat="44.07801276272342" lon="10.598615174866886"><ele>610.0</ele><time>2026-04-04T09:50:49Z</time></trkpt><trkpt lat="44.07808045350905" lon="10.598735361374507"><ele>610.0</ele><time>2026-04-04T09:50:50Z</time></trkpt><trkpt lat="44.078142824348454" lon="10.598848730547532"><ele>610.0</ele><time>2026-04-04T09:50:51Z</time></trkpt><trkpt lat="44.078206041253715" lon="10.59896502375305"><ele>610.0</ele><time>2026-04-04T09:50:52Z</time></trkpt><trkpt lat="44.07826654560955" lon="10.599074287831279"><ele>611.8</ele><time>2026-04-04T09:50:53Z</time></trkpt><trkpt lat="44.07833014500299" lon="10.599182179122575"><ele>613.6</ele><time>2026-04-04T09:50:54Z</time></trkpt><trkpt lat="44.07839514532713" lon="10.599293953245846"><ele>615.4</ele><time>2026-04-04T09:50:55Z</time></trkpt><trkpt lat="44.07846039356696" lon="10.599409842300457"><ele>617.2</ele><time>2026-04-04T09:50:56Z</time></trkpt><trkpt lat="44.07852804473748" lon="10.59953145363146"><ele>619.0</ele><time>2026-04-04T09:50:57Z</time></trkpt><trkpt lat="44.07859808523844" lon="10.599655757354514"><ele>619.0</ele><time>2026-04-04T09:50:58Z</time></trkpt><trkpt lat="44.07866596298817" lon="10.599783344743496"><ele>619.0</ele><time>2026-04-04T09:50:59Z</time></trkpt><trkpt lat="44.07873449021064" lon="10.599905177271557"><ele>619.0</ele><time>2026-04-04T09:51:00Z</time></trkpt><trkpt lat="44.078798534112266" lon="10.600029161480176"><ele>619.0</ele><time>2026-04-04T09:51:01Z</time></trkpt><trkpt lat="44.078866688697914" lon="10.600149485004865"><ele>619.0</ele><time>2026-04-04T09:51:02Z</time></trkpt><trkpt lat="44.07893532710374" lon="10.600259263784336"><ele>621.8</ele><time>2026-04-04T09:51:03Z</time></trkpt><trkpt lat="44.079014411042515" lon="10.600352960244905"><ele>624.5999999999999</ele><time>2026-04-04T09:51:04Z</time></trkpt><trkpt lat="44.07910089454642" lon="10.600433455013759"><ele>627.4</ele><time>2026-04-04T09:51:05Z</time></trkpt><trkpt lat="44.07919053698909" lon="10.600510422222554"><ele>630.1999999999999</ele><time>2026-04-04T09:51:06Z</time></trkpt><trkpt lat="44.07928378194946" lon="10.600594116202409"><ele>633.0</ele><time>2026-04-04T09:51:07Z</time></trkpt><trkpt lat="44.07937598101749" lon="10.600687111114185"><ele>633.0</ele><time>2026-04-04T09:51:08Z</time></trkpt><trkpt lat="44.07950912677999" lon="10.600719259533161"><ele>633.0</ele><time>2026-04-04T09:51:09Z</time></trkpt><trkpt lat="44.079615696152764" lon="10.600790088479597"><ele>633.0</ele><time>2026-04-04T09:51:10Z</time></trkpt><trkpt lat="44.07971358126185" lon="10.600856283289945"><ele>633.0</ele><time>2026-04-04T09:51:11Z</time></trkpt><trkpt lat="44.079804235704614" lon="10.600922983811998"><ele>633.0</ele><time>2026-04-04T09:51:12Z</time></trkpt><trkpt lat="44.0798921177615" lon="10.600975159988621"><ele>633.0</ele><time>2026-04-04T09:51:13Z</time></trkpt><trkpt lat="44.079988346074515" lon="10.601000758844565"><ele>633.0</ele><time>2026-04-04T09:51:14Z</time></trkpt><trkpt lat="44.08008969672651" lon="10.601021362028918"><ele>633.0</ele><time>2026-04-04T09:51:15Z</time></trkpt><trkpt lat="44.080189533137876" lon="10.601023773896411"><ele>633.0</ele><time>2026-04-04T09:51:16Z</time></trkpt><trkpt lat="44.08028240401411" lon="10.601005097962965"><ele>638.2</ele><time>2026-04-04T09:51:17Z</time></trkpt><trkpt lat="44.08037828622927" lon="10.600969345371535"><ele>643.4</ele><time>2026-04-04T09:51:18Z</time></trkpt><trkpt lat="44.08046895499081" lon="10.60090303852905"><ele>648.6</ele><time>2026-04-04T09:51:19Z</time></trkpt><trkpt lat="44.080560472150516" lon="10.60082946041807"><ele>653.8000000000001</ele><time>2026-04-04T09:51:20Z</time></trkpt><trkpt lat="44.08064718597684" lon="10.600759181765685"><ele>659.0</ele><time>2026-04-04T09:51:21Z</time></trkpt><trkpt lat="44.08071655185704" lon="10.600687986942724"><ele>657.8000000000001</ele><time>2026-04-04T09:51:22Z</time></trkpt><trkpt lat="44.080774481891375" lon="10.600600081494239"><ele>656.6</ele><time>2026-04-04T09:51:23Z</time></trkpt><trkpt lat="44.08081750620426" lon="10.600498503224227"><ele>655.4</ele><time>2026-04-04T09:51:24Z</time></trkpt><trkpt lat="44.08087472251593" lon="10.600372271168627"><ele>654.2</ele><time>2026-04-04T09:51:25Z</time></trkpt><trkpt lat="44.080933117389584" lon="10.60028041830544"><ele>653.0</ele><time>2026-04-04T09:51:26Z</time></trkpt><trkpt lat="44.08100015427224" lon="10.600198491901947"><ele>661.4</ele><time>2026-04-04T09:51:27Z</time></trkpt><trkpt lat="44.08107820791052" lon="10.600139743056038"><ele>669.8</ele><time>2026-04-04T09:51:28Z</time></trkpt><trkpt lat="44.08116586630563" lon="10.600104047963855"><ele>678.2</ele><time>2026-04-04T09:51:29Z</time></trkpt><trkpt lat="44.08124743204564" lon="10.600045919989421"><ele>686.6</ele><time>2026-04-04T09:51:30Z</time></trkpt><trkpt lat="44.081324517445005" lon="10.599957918644812"><ele>695.0</ele><time>2026-04-04T09:51:31Z</time></trkpt><trkpt lat="44.08139769942829" lon="10.599870841092411"><ele>695.0</ele><time>2026-04-04T09:51:32Z</time></trkpt><trkpt lat="44.08146402674147" lon="10.599775851441231"><ele>695.0</ele><time>2026-04-04T09:51:33Z</time></trkpt><trkpt lat="44.081520813725426" lon="10.599667311471554"><ele>695.0</ele><time>2026-04-04T09:51:34Z</time></trkpt><trkpt lat="44.08156684799553" lon="10.599554677078082"><ele>695.0</ele><time>2026-04-04T09:51:35Z</time></trkpt><trkpt lat="44.08161248623112" lon="10.599427201841632"><ele>695.0</ele><time>2026-04-04T09:51:36Z</time></trkpt><trkpt lat="44.08165220415857" lon="10.599306311099985"><ele>695.8333333333333</ele><time>2026-04-04T09:51:37Z</time></trkpt><trkpt lat="44.08169876213042" lon="10.599197643121217"><ele>696.6666666666666</ele><time>2026-04-04T09:51:38Z</time></trkpt><trkpt lat="44.08173045066417" lon="10.599095512205079"><ele>697.5</ele><time>2026-04-04T09:51:39Z</time></trkpt><trkpt lat="44.081781678690135" lon="10.599018383179905"><ele>698.3333333333334</ele><time>2026-04-04T09:51:40Z</time></trkpt><trkpt lat="44.081836377769925" lon="10.59894807934134"><ele>699.1666666666667</ele><time>2026-04-04T09:51:41Z</time></trkpt><trkpt lat="44.08190830323318" lon="10.59892187409306"><ele>700.0</ele><time>2026-04-04T09:51:42Z</time></trkpt><trkpt lat="44.081982309085234" lon="10.598939188215786"><ele>700.0</ele><time>2026-04-04T09:51:43Z</time></trkpt><trkpt lat="44.08204138312764" lon="10.598996083566098"><ele>700.0</ele><time>2026-04-04T09:51:44Z</time></trkpt><trkpt lat="44.082087882575095" lon="10.599096600655534"><ele>700.0</ele><time>2026-04-04T09:51:45Z</time></trkpt><trkpt lat="44.082116892511515" lon="10.599216151390427"><ele>700.0</ele><time>2026-04-04T09:51:46Z</time></trkpt><trkpt lat="44.082150563074094" lon="10.59933847555566"><ele>700.0</ele><time>2026-04-04T09:51:47Z</time></trkpt><trkpt lat="44.08219317910905" lon="10.599451154138226"><ele>700.0</ele><time>2026-04-04T09:51:48Z</time></trkpt><trkpt lat="44.08225344575153" lon="10.599548144737847"><ele>694.0</ele><time>2026-04-04T09:51:49Z</time></trkpt><trkpt lat="44.08232854409615" lon="10.599625876055557"><ele>688.0</ele><time>2026-04-04T09:51:50Z</time></trkpt><trkpt lat="44.08241057085243" lon="10.599663648025224"><ele>682.0</ele><time>2026-04-04T09:51:51Z</time></trkpt><trkpt lat="44.0825005986873" lon="10.599654860403623"><ele>676.0</ele><time>2026-04-04T09:51:52Z</time></trkpt><trkpt lat="44.08258295312474" lon="10.599622547447012"><ele>670.0</ele><time>2026-04-04T09:51:53Z</time></trkpt><trkpt lat="44.082673716053826" lon="10.599581920640798"><ele>669.6</ele><time>2026-04-04T09:51:54Z</time></trkpt><trkpt lat="44.082770624727175" lon="10.599537316932668"><ele>669.2</ele><time>2026-04-04T09:51:55Z</time></trkpt><trkpt lat="44.08286817765168" lon="10.599489633791787"><ele>668.8</ele><time>2026-04-04T09:51:56Z</time></trkpt><trkpt lat="44.082969235945505" lon="10.599442614064118"><ele>668.4</ele><time>2026-04-04T09:51:57Z</time></trkpt><trkpt lat="44.08307230994164" lon="10.59939786824519"><ele>668.0</ele><time>2026-04-04T09:51:58Z</time></trkpt><trkpt lat="44.0831745643092" lon="10.59935319240675"><ele>675.4</ele><time>2026-04-04T09:51:59Z</time></trkpt><trkpt lat="44.083274426645964" lon="10.599308501633123"><ele>682.8</ele><time>2026-04-04T09:52:00Z</time></trkpt><trkpt lat="44.08337564729516" lon="10.599264602577996"><ele>690.2</ele><time>2026-04-04T09:52:01Z</time></trkpt><trkpt lat="44.08347101354728" lon="10.59921092449852"><ele>697.6</ele><time>2026-04-04T09:52:02Z</time></trkpt><trkpt lat="44.08356303451092" lon="10.599160171123263"><ele>705.0</ele><time>2026-04-04T09:52:03Z</time></trkpt><trkpt lat="44.08365464383584" lon="10.59910170618776"><ele>705.0</ele><time>2026-04-04T09:52:04Z</time></trkpt><trkpt lat="44.083741650730815" lon="10.599024303983317"><ele>705.0</ele><time>2026-04-04T09:52:05Z</time></trkpt><trkpt lat="44.08382116928494" lon="10.598929859757545"><ele>705.0</ele><time>2026-04-04T09:52:06Z</time></trkpt><trkpt lat="44.08389660918797" lon="10.598821458910436"><ele>705.0</ele><time>2026-04-04T09:52:07Z</time></trkpt><trkpt lat="44.083971034884215" lon="10.598707992846009"><ele>705.0</ele><time>2026-04-04T09:52:08Z</time></trkpt><trkpt lat="44.08403893593497" lon="10.598585832710095"><ele>705.6</ele><time>2026-04-04T09:52:09Z</time></trkpt><trkpt lat="44.08409793522742" lon="10.598447852428908"><ele>706.2</ele><time>2026-04-04T09:52:10Z</time></trkpt><trkpt lat="44.084146933335326" lon="10.598313190299427"><ele>706.8</ele><time>2026-04-04T09:52:11Z</time></trkpt><trkpt lat="44.084195352569374" lon="10.598175578326751"><ele>707.4</ele><time>2026-04-04T09:52:12Z</time></trkpt><trkpt lat="44.084243383298926" lon="10.5980388325998"><ele>708.0</ele><time>2026-04-04T09:52:13Z</time></trkpt><trkpt lat="44.08429630950018" lon="10.597907621603964"><ele>715.4</ele><time>2026-04-04T09:52:14Z</time></trkpt><trkpt lat="44.084348497444" lon="10.59778292666029"><ele>722.8</ele><time>2026-04-04T09:52:15Z</time></trkpt><trkpt lat="44.084410016393385" lon="10.597671937782732"><ele>730.2</ele><time>2026-04-04T09:52:16Z</time></trkpt><trkpt lat="44.08447789468364" lon="10.597571469349486"><ele>737.6</ele><time>2026-04-04T09:52:17Z</time></trkpt><trkpt lat="44.0845515031959" lon="10.59747001237981"><ele>745.0</ele><time>2026-04-04T09:52:18Z</time></trkpt><trkpt lat="44.084634937214226" lon="10.59736464592846"><ele>745.0</ele><time>2026-04-04T09:52:19Z</time></trkpt><trkpt lat="44.08470805266439" lon="10.59724846533045"><ele>745.0</ele><time>2026-04-04T09:52:20Z</time></trkpt><trkpt lat="44.08487267757025" lon="10.597221644404588"><ele>745.0</ele><time>2026-04-04T09:52:21Z</time></trkpt><trkpt lat="44.08497021895934" lon="10.597135579583888"><ele>745.0</ele><time>2026-04-04T09:52:22Z</time></trkpt><trkpt lat="44.08507450001007" lon="10.597053745637314"><ele>747.0</ele><time>2026-04-04T09:52:23Z</time></trkpt><trkpt lat="44.085186061041796" lon="10.596986331806905"><ele>749.0</ele><time>2026-04-04T09:52:24Z</time></trkpt><trkpt lat="44.0853019485791" lon="10.596952522986603"><ele>751.0</ele><time>2026-04-04T09:52:25Z</time></trkpt><trkpt lat="44.085417172807865" lon="10.59694898991545"><ele>753.0</ele><time>2026-04-04T09:52:26Z</time></trkpt><trkpt lat="44.085535609010826" lon="10.596934776312228"><ele>753.0</ele><time>2026-04-04T09:52:27Z</time></trkpt><trkpt lat="44.085650881342474" lon="10.59689150872063"><ele>753.0</ele><time>2026-04-04T09:52:28Z</time></trkpt><trkpt lat="44.08576601455705" lon="10.596836421685161"><ele>753.0</ele><time>2026-04-04T09:52:29Z</time></trkpt><trkpt lat="44.08587321635219" lon="10.596787475606506"><ele>753.0</ele><time>2026-04-04T09:52:30Z</time></trkpt><trkpt lat="44.08597366713136" lon="10.596746145095713"><ele>748.2</ele><time>2026-04-04T09:52:31Z</time></trkpt><trkpt lat="44.08607537128831" lon="10.596702273152395"><ele>743.4</ele><time>2026-04-04T09:52:32Z</time></trkpt><trkpt lat="44.086178558284324" lon="10.59667009612651"><ele>738.6</ele><time>2026-04-04T09:52:33Z</time></trkpt><trkpt lat="44.08627503456949" lon="10.596680146487866"><ele>733.8000000000001</ele><time>2026-04-04T09:52:34Z</time></trkpt><trkpt lat="44.08636411716098" lon="10.596718148352194"><ele>729.0</ele><time>2026-04-04T09:52:35Z</time></trkpt><trkpt lat="44.086443908168306" lon="10.59676338061382"><ele>729.0</ele><time>2026-04-04T09:52:36Z</time></trkpt><trkpt lat="44.08652159303719" lon="10.59678871643925"><ele>729.0</ele><time>2026-04-04T09:52:37Z</time></trkpt><trkpt lat="44.08659908410197" lon="10.596781292967824"><ele>729.0</ele><time>2026-04-04T09:52:38Z</time></trkpt><trkpt lat="44.08667325076127" lon="10.596747545716733"><ele>729.0</ele><time>2026-04-04T09:52:39Z</time></trkpt><trkpt lat="44.08675346831158" lon="10.596702302920571"><ele>729.0</ele><time>2026-04-04T09:52:40Z</time></trkpt><trkpt lat="44.086836974374016" lon="10.596654942766117"><ele>729.0</ele><time>2026-04-04T09:52:41Z</time></trkpt><trkpt lat="44.08691832939084" lon="10.59661164955069"><ele>728.6666666666666</ele><time>2026-04-04T09:52:42Z</time></trkpt><trkpt lat="44.0869916537174" lon="10.596578507403438"><ele>728.3333333333334</ele><time>2026-04-04T09:52:43Z</time></trkpt><trkpt lat="44.08706263366454" lon="10.596533448383452"><ele>728.0</ele><time>2026-04-04T09:52:44Z</time></trkpt><trkpt lat="44.08713270353796" lon="10.59646836789695"><ele>727.6666666666667</ele><time>2026-04-04T09:52:45Z</time></trkpt><trkpt lat="44.087193616784944" lon="10.596389097181286"><ele>727.3333333333334</ele><time>2026-04-04T09:52:46Z</time></trkpt><trkpt lat="44.08724624479827" lon="10.596295093428099"><ele>727.0</ele><time>2026-04-04T09:52:47Z</time></trkpt><trkpt lat="44.08729544271976" lon="10.596202842898604"><ele>726.0</ele><time>2026-04-04T09:52:48Z</time></trkpt><trkpt lat="44.087346980780815" lon="10.596132439613704"><ele>725.0</ele><time>2026-04-04T09:52:49Z</time></trkpt><trkpt lat="44.08741304185389" lon="10.596090495296032"><ele>724.0</ele><time>2026-04-04T09:52:50Z</time></trkpt><trkpt lat="44.087492640342234" lon="10.596087702231664"><ele>723.0</ele><time>2026-04-04T09:52:51Z</time></trkpt><trkpt lat="44.08757037062221" lon="10.596102969790413"><ele>722.0</ele><time>2026-04-04T09:52:52Z</time></trkpt><trkpt lat="44.087644819360925" lon="10.596138502020931"><ele>721.0</ele><time>2026-04-04T09:52:53Z</time></trkpt><trkpt lat="44.087701737373195" lon="10.596207823911032"><ele>721.0</ele><time>2026-04-04T09:52:54Z</time></trkpt><trkpt lat="44.08774773253035" lon="10.596309768050968"><ele>721.0</ele><time>2026-04-04T09:52:55Z</time></trkpt><trkpt lat="44.0877751215135" lon="10.596438021023372"><ele>721.0</ele><time>2026-04-04T09:52:56Z</time></trkpt><trkpt lat="44.08780356473056" lon="10.596564758534369"><ele>721.0</ele><time>2026-04-04T09:52:57Z</time></trkpt><trkpt lat="44.08784073337105" lon="10.596684661647425"><ele>721.0</ele><time>2026-04-04T09:52:58Z</time></trkpt><trkpt lat="44.08788461820337" lon="10.59680897498737"><ele>721.0</ele><time>2026-04-04T09:52:59Z</time></trkpt><trkpt lat="44.08792621330452" lon="10.596933628214956"><ele>721.0</ele><time>2026-04-04T09:53:00Z</time></trkpt><trkpt lat="44.08796804341446" lon="10.597059555607037"><ele>721.0</ele><time>2026-04-04T09:53:01Z</time></trkpt><trkpt lat="44.08800090385245" lon="10.597186352696141"><ele>721.0</ele><time>2026-04-04T09:53:02Z</time></trkpt><trkpt lat="44.08803340291456" lon="10.597301508753027"><ele>721.0</ele><time>2026-04-04T09:53:03Z</time></trkpt><trkpt lat="44.08806942336945" lon="10.597401422962372"><ele>719.0</ele><time>2026-04-04T09:53:04Z</time></trkpt><trkpt lat="44.088128010070726" lon="10.597484436311872"><ele>717.0</ele><time>2026-04-04T09:53:05Z</time></trkpt><trkpt lat="44.08821124540961" lon="10.597556289552774"><ele>715.0</ele><time>2026-04-04T09:53:06Z</time></trkpt><trkpt lat="44.088300939202135" lon="10.597616055287773"><ele>713.0</ele><time>2026-04-04T09:53:07Z</time></trkpt><trkpt lat="44.08839114811319" lon="10.597671761790668"><ele>711.0</ele><time>2026-04-04T09:53:08Z</time></trkpt><trkpt lat="44.08848481797136" lon="10.597734856168076"><ele>713.8</ele><time>2026-04-04T09:53:09Z</time></trkpt><trkpt lat="44.08858061600129" lon="10.597810293121183"><ele>716.5999999999999</ele><time>2026-04-04T09:53:10Z</time></trkpt><trkpt lat="44.0886798762926" lon="10.597885774488892"><ele>719.4</ele><time>2026-04-04T09:53:11Z</time></trkpt><trkpt lat="44.08878259719768" lon="10.597951029998296"><ele>722.2</ele><time>2026-04-04T09:53:12Z</time></trkpt><trkpt lat="44.08888504115346" lon="10.598009058961438"><ele>725.0</ele><time>2026-04-04T09:53:13Z</time></trkpt><trkpt lat="44.088977243563285" lon="10.59807425420852"><ele>725.0</ele><time>2026-04-04T09:53:14Z</time></trkpt><trkpt lat="44.089048518717426" lon="10.59816692235494"><ele>725.0</ele><time>2026-04-04T09:53:15Z</time></trkpt><trkpt lat="44.08911420200742" lon="10.598280372739879"><ele>725.0</ele><time>2026-04-04T09:53:16Z</time></trkpt><trkpt lat="44.08917557234274" lon="10.598389381708303"><ele>725.0</ele><time>2026-04-04T09:53:17Z</time></trkpt><trkpt lat="44.08922812495124" lon="10.598478299301174"><ele>725.0</ele><time>2026-04-04T09:53:18Z</time></trkpt><trkpt lat="44.089268604454986" lon="10.598549711804434"><ele>730.0</ele><time>2026-04-04T09:53:19Z</time></trkpt><trkpt lat="44.08935058253396" lon="10.598579283299241"><ele>735.0</ele><time>2026-04-04T09:53:21Z</time></trkpt><trkpt lat="44.08936983481737" lon="10.598423319709573"><ele>740.0</ele><time>2026-04-04T09:53:23Z</time></trkpt><trkpt lat="44.08931566984487" lon="10.598331154371078"><ele>745.0</ele><time>2026-04-04T09:53:24Z</time></trkpt><trkpt lat="44.08924259589791" lon="10.598250232697783"><ele>750.0</ele><time>2026-04-04T09:53:25Z</time></trkpt><trkpt lat="44.0891689458015" lon="10.598162952909389"><ele>750.0</ele><time>2026-04-04T09:53:26Z</time></trkpt><trkpt lat="44.08910165956219" lon="10.598047688267044"><ele>750.0</ele><time>2026-04-04T09:53:27Z</time></trkpt><trkpt lat="44.08905156269623" lon="10.59792127851186"><ele>750.0</ele><time>2026-04-04T09:53:28Z</time></trkpt><trkpt lat="44.08899972564658" lon="10.597782626997931"><ele>750.0</ele><time>2026-04-04T09:53:29Z</time></trkpt><trkpt lat="44.088942852052696" lon="10.597670445652867"><ele>750.0</ele><time>2026-04-04T09:53:30Z</time></trkpt><trkpt lat="44.08887255095589" lon="10.597588717846216"><ele>747.0</ele><time>2026-04-04T09:53:31Z</time></trkpt><trkpt lat="44.088780664985" lon="10.597539763682681"><ele>744.0</ele><time>2026-04-04T09:53:32Z</time></trkpt><trkpt lat="44.088683671435874" lon="10.597495560391941"><ele>741.0</ele><time>2026-04-04T09:53:33Z</time></trkpt><trkpt lat="44.08859600343328" lon="10.597434015852729"><ele>738.0</ele><time>2026-04-04T09:53:34Z</time></trkpt><trkpt lat="44.088529136644084" lon="10.597375020980838"><ele>735.0</ele><time>2026-04-04T09:53:35Z</time></trkpt><trkpt lat="44.08846588678139" lon="10.597285309813865"><ele>735.0</ele><time>2026-04-04T09:53:36Z</time></trkpt><trkpt lat="44.0884186257761" lon="10.597179536974416"><ele>735.0</ele><time>2026-04-04T09:53:37Z</time></trkpt><trkpt lat="44.08838616004797" lon="10.597068616481083"><ele>735.0</ele><time>2026-04-04T09:53:38Z</time></trkpt><trkpt lat="44.08837766867183" lon="10.596948211534974"><ele>735.0</ele><time>2026-04-04T09:53:39Z</time></trkpt><trkpt lat="44.088390156320685" lon="10.5968209871397"><ele>735.0</ele><time>2026-04-04T09:53:40Z</time></trkpt><trkpt lat="44.08842043270146" lon="10.596703824848813"><ele>735.0</ele><time>2026-04-04T09:53:41Z</time></trkpt><trkpt lat="44.088473977567304" lon="10.596590980812488"><ele>737.6</ele><time>2026-04-04T09:53:42Z</time></trkpt><trkpt lat="44.0885299963654" lon="10.59648981616815"><ele>740.2</ele><time>2026-04-04T09:53:43Z</time></trkpt><trkpt lat="44.08856208999437" lon="10.596367546585281"><ele>742.8</ele><time>2026-04-04T09:53:44Z</time></trkpt><trkpt lat="44.08856004030575" lon="10.59623454658228"><ele>745.4</ele><time>2026-04-04T09:53:45Z</time></trkpt><trkpt lat="44.088514630520365" lon="10.59610087398858"><ele>748.0</ele><time>2026-04-04T09:53:46Z</time></trkpt><trkpt lat="44.088450525572895" lon="10.595990180330794"><ele>748.8333333333334</ele><time>2026-04-04T09:53:47Z</time></trkpt><trkpt lat="44.088370338867705" lon="10.595921225287363"><ele>749.6666666666667</ele><time>2026-04-04T09:53:48Z</time></trkpt><trkpt lat="44.08830640914935" lon="10.595873245620535"><ele>750.5</ele><time>2026-04-04T09:53:49Z</time></trkpt><trkpt lat="44.08829083922903" lon="10.595713909678949"><ele>751.3333333333334</ele><time>2026-04-04T09:53:51Z</time></trkpt><trkpt lat="44.08833044915936" lon="10.595643875090495"><ele>752.1666666666666</ele><time>2026-04-04T09:53:52Z</time></trkpt><trkpt lat="44.08840113882009" lon="10.595621774217229"><ele>753.0</ele><time>2026-04-04T09:53:53Z</time></trkpt><trkpt lat="44.08847683967212" lon="10.59567996546941"><ele>753.0</ele><time>2026-04-04T09:53:54Z</time></trkpt><trkpt lat="44.0885445511806" lon="10.595755246707801"><ele>753.0</ele><time>2026-04-04T09:53:55Z</time></trkpt><trkpt lat="44.08861755291795" lon="10.595834879197023"><ele>753.0</ele><time>2026-04-04T09:53:56Z</time></trkpt><trkpt lat="44.088681971305405" lon="10.595900875134795"><ele>753.0</ele><time>2026-04-04T09:53:57Z</time></trkpt><trkpt lat="44.08874998614921" lon="10.595983369920834"><ele>753.0</ele><time>2026-04-04T09:53:58Z</time></trkpt><trkpt lat="44.08880990332327" lon="10.596087564732512"><ele>753.0</ele><time>2026-04-04T09:53:59Z</time></trkpt><trkpt lat="44.08884724454147" lon="10.596219800027416"><ele>752.0</ele><time>2026-04-04T09:54:00Z</time></trkpt><trkpt lat="44.088870401152754" lon="10.596366278637664"><ele>751.0</ele><time>2026-04-04T09:54:01Z</time></trkpt><trkpt lat="44.08888825287933" lon="10.596509807150456"><ele>750.0</ele><time>2026-04-04T09:54:02Z</time></trkpt><trkpt lat="44.08891219625082" lon="10.596652012391"><ele>749.0</ele><time>2026-04-04T09:54:03Z</time></trkpt><trkpt lat="44.088937922544496" lon="10.596793996846907"><ele>748.0</ele><time>2026-04-04T09:54:04Z</time></trkpt><trkpt lat="44.08897087985233" lon="10.596937714095354"><ele>745.4</ele><time>2026-04-04T09:54:05Z</time></trkpt><trkpt lat="44.08903047314322" lon="10.597081216089085"><ele>742.8</ele><time>2026-04-04T09:54:06Z</time></trkpt><trkpt lat="44.08909485021023" lon="10.597198325413123"><ele>740.2</ele><time>2026-04-04T09:54:07Z</time></trkpt><trkpt lat="44.0891451020029" lon="10.597290924038722"><ele>737.6</ele><time>2026-04-04T09:54:08Z</time></trkpt><trkpt lat="44.08918511469581" lon="10.597375497368256"><ele>735.0</ele><time>2026-04-04T09:54:09Z</time></trkpt><trkpt lat="44.089248538850896" lon="10.597454257633766"><ele>740.8333333333334</ele><time>2026-04-04T09:54:11Z</time></trkpt><trkpt lat="44.089313728012925" lon="10.597356743637967"><ele>746.6666666666667</ele><time>2026-04-04T09:54:13Z</time></trkpt><trkpt lat="44.08928722061477" lon="10.597274321917565"><ele>752.5</ele><time>2026-04-04T09:54:14Z</time></trkpt><trkpt lat="44.08923700233288" lon="10.597191089194606"><ele>758.3333333333334</ele><time>2026-04-04T09:54:15Z</time></trkpt><trkpt lat="44.089179080908586" lon="10.59710295686639"><ele>764.1666666666667</ele><time>2026-04-04T09:54:16Z</time></trkpt><trkpt lat="44.08912910207329" lon="10.597010555162113"><ele>770.0</ele><time>2026-04-04T09:54:17Z</time></trkpt><trkpt lat="44.08911285007529" lon="10.596899418760199"><ele>771.8</ele><time>2026-04-04T09:54:18Z</time></trkpt><trkpt lat="44.08912656524445" lon="10.59677975293503"><ele>773.6</ele><time>2026-04-04T09:54:19Z</time></trkpt><trkpt lat="44.08916931906772" lon="10.59666263553825"><ele>775.4000000000001</ele><time>2026-04-04T09:54:20Z</time></trkpt><trkpt lat="44.089212527845596" lon="10.596547192123758"><ele>777.2</ele><time>2026-04-04T09:54:21Z</time></trkpt><trkpt lat="44.089263700395485" lon="10.596429005689362"><ele>779.0</ele><time>2026-04-04T09:54:22Z</time></trkpt><trkpt lat="44.0893097969438" lon="10.596302958261472"><ele>779.0</ele><time>2026-04-04T09:54:23Z</time></trkpt><trkpt lat="44.08935802051771" lon="10.596172839126046"><ele>779.0</ele><time>2026-04-04T09:54:24Z</time></trkpt><trkpt lat="44.08940092084585" lon="10.596046733640918"><ele>779.0</ele><time>2026-04-04T09:54:25Z</time></trkpt><trkpt lat="44.08943114488846" lon="10.595918560155537"><ele>779.0</ele><time>2026-04-04T09:54:26Z</time></trkpt><trkpt lat="44.089444345499096" lon="10.595790635779094"><ele>779.0</ele><time>2026-04-04T09:54:27Z</time></trkpt><trkpt lat="44.08943434182238" lon="10.59565891971108"><ele>778.6666666666667</ele><time>2026-04-04T09:54:28Z</time></trkpt><trkpt lat="44.0893991165845" lon="10.595541908812697"><ele>778.3333333333334</ele><time>2026-04-04T09:54:29Z</time></trkpt><trkpt lat="44.08935785099153" lon="10.59543969097202"><ele>778.0</ele><time>2026-04-04T09:54:30Z</time></trkpt><trkpt lat="44.08934953546716" lon="10.595351533868092"><ele>777.6666666666667</ele><time>2026-04-04T09:54:31Z</time></trkpt><trkpt lat="44.089387230148695" lon="10.5952666223438"><ele>777.3333333333334</ele><time>2026-04-04T09:54:32Z</time></trkpt><trkpt lat="44.089457115938735" lon="10.595205567382935"><ele>777.0</ele><time>2026-04-04T09:54:33Z</time></trkpt><trkpt lat="44.08953137390713" lon="10.595191178456748"><ele>777.0</ele><time>2026-04-04T09:54:34Z</time></trkpt><trkpt lat="44.08960747730459" lon="10.595220526492001"><ele>777.0</ele><time>2026-04-04T09:54:35Z</time></trkpt><trkpt lat="44.08966453394582" lon="10.595314024094685"><ele>777.0</ele><time>2026-04-04T09:54:36Z</time></trkpt><trkpt lat="44.08968977039817" lon="10.595427046151716"><ele>777.0</ele><time>2026-04-04T09:54:37Z</time></trkpt><trkpt lat="44.08969406779737" lon="10.595559977665653"><ele>777.0</ele><time>2026-04-04T09:54:38Z</time></trkpt><trkpt lat="44.089703648469396" lon="10.595692026599597"><ele>777.0</ele><time>2026-04-04T09:54:39Z</time></trkpt><trkpt lat="44.08971810113194" lon="10.595836393852778"><ele>777.0</ele><time>2026-04-04T09:54:40Z</time></trkpt><trkpt lat="44.089734168466016" lon="10.5959850504359"><ele>777.0</ele><time>2026-04-04T09:54:41Z</time></trkpt><trkpt lat="44.08974309979611" lon="10.596137868615466"><ele>777.0</ele><time>2026-04-04T09:54:42Z</time></trkpt><trkpt lat="44.089739445291244" lon="10.596288110313308"><ele>777.0</ele><time>2026-04-04T09:54:43Z</time></trkpt><trkpt lat="44.08972713144608" lon="10.596443764513095"><ele>777.0</ele><time>2026-04-04T09:54:44Z</time></trkpt><trkpt lat="44.08970912528281" lon="10.59660142394808"><ele>777.4000000000001</ele><time>2026-04-04T09:54:45Z</time></trkpt><trkpt lat="44.08968945970092" lon="10.59675266820698"><ele>777.8000000000001</ele><time>2026-04-04T09:54:46Z</time></trkpt><trkpt lat="44.0896697501459" lon="10.596892397950919"><ele>778.2</ele><time>2026-04-04T09:54:47Z</time></trkpt><trkpt lat="44.08966617651599" lon="10.597004753664258"><ele>778.6</ele><time>2026-04-04T09:54:48Z</time></trkpt><trkpt lat="44.089697851361976" lon="10.597118437633831"><ele>779.0</ele><time>2026-04-04T09:54:49Z</time></trkpt><trkpt lat="44.08976909930062" lon="10.59723524591451"><ele>777.2</ele><time>2026-04-04T09:54:50Z</time></trkpt><trkpt lat="44.08984734527739" lon="10.597329718423985"><ele>775.4000000000001</ele><time>2026-04-04T09:54:51Z</time></trkpt><trkpt lat="44.08991271168803" lon="10.597400379831102"><ele>773.6</ele><time>2026-04-04T09:54:52Z</time></trkpt><trkpt lat="44.0899701943555" lon="10.597474761163824"><ele>771.8</ele><time>2026-04-04T09:54:53Z</time></trkpt><trkpt lat="44.090006831299064" lon="10.597591164627078"><ele>770.0</ele><time>2026-04-04T09:54:54Z</time></trkpt><trkpt lat="44.090009697610455" lon="10.597738286254994"><ele>775.8</ele><time>2026-04-04T09:54:55Z</time></trkpt><trkpt lat="44.089981249220564" lon="10.597885589716453"><ele>781.6</ele><time>2026-04-04T09:54:56Z</time></trkpt><trkpt lat="44.089941935541354" lon="10.598014225692758"><ele>787.4000000000001</ele><time>2026-04-04T09:54:57Z</time></trkpt><trkpt lat="44.08993035500402" lon="10.598118109050775"><ele>793.2</ele><time>2026-04-04T09:54:58Z</time></trkpt><trkpt lat="44.08997482017753" lon="10.598210481760455"><ele>799.0</ele><time>2026-04-04T09:54:59Z</time></trkpt><trkpt lat="44.09006001074973" lon="10.598285799171943"><ele>799.0</ele><time>2026-04-04T09:55:00Z</time></trkpt><trkpt lat="44.09017403436716" lon="10.598328052635743"><ele>799.0</ele><time>2026-04-04T09:55:01Z</time></trkpt><trkpt lat="44.090277859527305" lon="10.598376475988346"><ele>799.0</ele><time>2026-04-04T09:55:02Z</time></trkpt><trkpt lat="44.090361427160616" lon="10.598441447109979"><ele>799.0</ele><time>2026-04-04T09:55:03Z</time></trkpt><trkpt lat="44.09043146953305" lon="10.598546863801939"><ele>799.0</ele><time>2026-04-04T09:55:04Z</time></trkpt><trkpt lat="44.09049560355008" lon="10.598686527641533"><ele>794.0</ele><time>2026-04-04T09:55:05Z</time></trkpt><trkpt lat="44.090557562498994" lon="10.598819802644844"><ele>789.0</ele><time>2026-04-04T09:55:06Z</time></trkpt><trkpt lat="44.090617180728984" lon="10.598956431138866"><ele>784.0</ele><time>2026-04-04T09:55:07Z</time></trkpt><trkpt lat="44.09067831399504" lon="10.599090490200998"><ele>779.0</ele><time>2026-04-04T09:55:08Z</time></trkpt><trkpt lat="44.09074898817546" lon="10.599223822746758"><ele>785.0</ele><time>2026-04-04T09:55:09Z</time></trkpt><trkpt lat="44.09082112821139" lon="10.59936203294583"><ele>791.0</ele><time>2026-04-04T09:55:10Z</time></trkpt><trkpt lat="44.09089214691909" lon="10.599500977276021"><ele>797.0</ele><time>2026-04-04T09:55:11Z</time></trkpt><trkpt lat="44.09095273333823" lon="10.599632597047517"><ele>803.0</ele><time>2026-04-04T09:55:12Z</time></trkpt><trkpt lat="44.09100194355934" lon="10.599744719047544"><ele>803.0000000000001</ele><time>2026-04-04T09:55:13Z</time></trkpt><trkpt lat="44.09105303243065" lon="10.599845123771555"><ele>803.0</ele><time>2026-04-04T09:55:14Z</time></trkpt><trkpt lat="44.0911102797218" lon="10.599941160604597"><ele>803.0</ele><time>2026-04-04T09:55:15Z</time></trkpt><trkpt lat="44.09117423061281" lon="10.600003945434434"><ele>803.0</ele><time>2026-04-04T09:55:16Z</time></trkpt><trkpt lat="44.091233766930195" lon="10.60003878592241"><ele>803.0000000000001</ele><time>2026-04-04T09:55:17Z</time></trkpt><trkpt lat="44.09134086909807" lon="10.600001787340322"><ele>803.0</ele><time>2026-04-04T09:55:19Z</time></trkpt><trkpt lat="44.0914043258421" lon="10.599966811836046"><ele>803.0000000000001</ele><time>2026-04-04T09:55:20Z</time></trkpt><trkpt lat="44.09146829646581" lon="10.599958411895772"><ele>803.0</ele><time>2026-04-04T09:55:21Z</time></trkpt><trkpt lat="44.091572407080925" lon="10.600010453444972"><ele>803.0</ele><time>2026-04-04T09:55:23Z</time></trkpt><trkpt lat="44.09162523854194" lon="10.600061089766593"><ele>803.0</ele><time>2026-04-04T09:55:24Z</time></trkpt><trkpt lat="44.091685086134426" lon="10.60013526495745"><ele>803.0000000000001</ele><time>2026-04-04T09:55:25Z</time></trkpt><trkpt lat="44.0917453461206" lon="10.600220577677119"><ele>803.0</ele><time>2026-04-04T09:55:26Z</time></trkpt><trkpt lat="44.09180501723263" lon="10.600308027458"><ele>804.5714285714286</ele><time>2026-04-04T09:55:27Z</time></trkpt><trkpt lat="44.09185785334321" lon="10.600386879310689"><ele>806.1428571428571</ele><time>2026-04-04T09:55:28Z</time></trkpt><trkpt lat="44.091908402292944" lon="10.600452537254883"><ele>807.7142857142858</ele><time>2026-04-04T09:55:29Z</time></trkpt><trkpt lat="44.091959032188726" lon="10.600515663982545"><ele>809.2857142857142</ele><time>2026-04-04T09:55:30Z</time></trkpt><trkpt lat="44.09200749569939" lon="10.600577375622018"><ele>810.8571428571429</ele><time>2026-04-04T09:55:31Z</time></trkpt><trkpt lat="44.09205979355064" lon="10.600644566284597"><ele>812.4285714285714</ele><time>2026-04-04T09:55:32Z</time></trkpt><trkpt lat="44.092116372549285" lon="10.600722546881874"><ele>814.0</ele><time>2026-04-04T09:55:33Z</time></trkpt><trkpt lat="44.09217458598687" lon="10.60079490595485"><ele>813.9999999999999</ele><time>2026-04-04T09:55:34Z</time></trkpt><trkpt lat="44.092236366654795" lon="10.60086562607443"><ele>814.0</ele><time>2026-04-04T09:55:35Z</time></trkpt><trkpt lat="44.09229891822618" lon="10.600953038817355"><ele>814.0</ele><time>2026-04-04T09:55:36Z</time></trkpt><trkpt lat="44.092346218364035" lon="10.601034758701234"><ele>814.0</ele><time>2026-04-04T09:55:37Z</time></trkpt><trkpt lat="44.09239246565848" lon="10.60112968820642"><ele>813.9999999999999</ele><time>2026-04-04T09:55:38Z</time></trkpt><trkpt lat="44.092435380882215" lon="10.601214424873675"><ele>814.0</ele><time>2026-04-04T09:55:39Z</time></trkpt><trkpt lat="44.09248496981151" lon="10.601299670688427"><ele>816.3333333333333</ele><time>2026-04-04T09:55:40Z</time></trkpt><trkpt lat="44.09254148932055" lon="10.601373300458004"><ele>818.6666666666666</ele><time>2026-04-04T09:55:41Z</time></trkpt><trkpt lat="44.09260045280013" lon="10.60144064983472"><ele>821.0</ele><time>2026-04-04T09:55:42Z</time></trkpt><trkpt lat="44.092662199663216" lon="10.601514305270387"><ele>823.3333333333333</ele><time>2026-04-04T09:55:43Z</time></trkpt><trkpt lat="44.09273192648757" lon="10.601574516257743"><ele>825.6666666666666</ele><time>2026-04-04T09:55:44Z</time></trkpt><trkpt lat="44.09279733396794" lon="10.60163054368275"><ele>828.0</ele><time>2026-04-04T09:55:45Z</time></trkpt><trkpt lat="44.09286240340209" lon="10.601688916342646"><ele>828.0</ele><time>2026-04-04T09:55:46Z</time></trkpt><trkpt lat="44.092931047112536" lon="10.601743710169083"><ele>828.0</ele><time>2026-04-04T09:55:47Z</time></trkpt><trkpt lat="44.0929970737831" lon="10.601797422358475"><ele>828.0</ele><time>2026-04-04T09:55:48Z</time></trkpt><trkpt lat="44.093059799096594" lon="10.601859927393585"><ele>828.0</ele><time>2026-04-04T09:55:49Z</time></trkpt><trkpt lat="44.09311409092209" lon="10.601938209856103"><ele>828.0</ele><time>2026-04-04T09:55:50Z</time></trkpt><trkpt lat="44.09315279570665" lon="10.602021686789293"><ele>828.0</ele><time>2026-04-04T09:55:51Z</time></trkpt><trkpt lat="44.09318636899178" lon="10.602108534409265"><ele>828.1666666666666</ele><time>2026-04-04T09:55:52Z</time></trkpt><trkpt lat="44.09321705851521" lon="10.602206119913662"><ele>828.3333333333333</ele><time>2026-04-04T09:55:53Z</time></trkpt><trkpt lat="44.09323594886503" lon="10.602299196850682"><ele>828.5</ele><time>2026-04-04T09:55:54Z</time></trkpt><trkpt lat="44.09323386317701" lon="10.602391525235483"><ele>828.6666666666666</ele><time>2026-04-04T09:55:55Z</time></trkpt><trkpt lat="44.09317463215293" lon="10.602532847892006"><ele>828.8333333333333</ele><time>2026-04-04T09:55:57Z</time></trkpt><trkpt lat="44.09309522167688" lon="10.602617560471504"><ele>829.0</ele><time>2026-04-04T09:55:59Z</time></trkpt><trkpt lat="44.093156385808825" lon="10.602790871149832"><ele>832.6666666666666</ele><time>2026-04-04T09:56:01Z</time></trkpt><trkpt lat="44.09322955403706" lon="10.602940550489453"><ele>836.3333333333333</ele><time>2026-04-04T09:56:03Z</time></trkpt><trkpt lat="44.09324957184667" lon="10.6030245061104"><ele>840.0</ele><time>2026-04-04T09:56:04Z</time></trkpt><trkpt lat="44.093313104839375" lon="10.60306212366089"><ele>843.6666666666667</ele><time>2026-04-04T09:56:05Z</time></trkpt><trkpt lat="44.09338462167198" lon="10.603129701795666"><ele>847.3333333333334</ele><time>2026-04-04T09:56:07Z</time></trkpt><trkpt lat="44.093316875829586" lon="10.60322588135608"><ele>851.0</ele><time>2026-04-04T09:56:09Z</time></trkpt><trkpt lat="44.09325563651347" lon="10.603192570994318"><ele>852.8333333333334</ele><time>2026-04-04T09:56:10Z</time></trkpt><trkpt lat="44.09320152558677" lon="10.603127973833287"><ele>854.6666666666667</ele><time>2026-04-04T09:56:11Z</time></trkpt><trkpt lat="44.09314457225514" lon="10.603054050830796"><ele>856.5</ele><time>2026-04-04T09:56:12Z</time></trkpt><trkpt lat="44.0930847325989" lon="10.602966863680171"><ele>858.3333333333333</ele><time>2026-04-04T09:56:13Z</time></trkpt><trkpt lat="44.09302202883565" lon="10.602883294154095"><ele>860.1666666666666</ele><time>2026-04-04T09:56:14Z</time></trkpt><trkpt lat="44.09296111429687" lon="10.602804615135012"><ele>862.0</ele><time>2026-04-04T09:56:15Z</time></trkpt><trkpt lat="44.09289721563382" lon="10.602742435070557"><ele>857.4999999999999</ele><time>2026-04-04T09:56:16Z</time></trkpt><trkpt lat="44.092824050311684" lon="10.602715397955853"><ele>853.0</ele><time>2026-04-04T09:56:17Z</time></trkpt><trkpt lat="44.092742861785865" lon="10.60270219188432"><ele>848.5</ele><time>2026-04-04T09:56:18Z</time></trkpt><trkpt lat="44.09266067528287" lon="10.60268170992789"><ele>844.0</ele><time>2026-04-04T09:56:19Z</time></trkpt><trkpt lat="44.092576312071856" lon="10.602657298819373"><ele>839.4999999999999</ele><time>2026-04-04T09:56:20Z</time></trkpt><trkpt lat="44.09249088005269" lon="10.602656674604246"><ele>835.0</ele><time>2026-04-04T09:56:21Z</time></trkpt><trkpt lat="44.0924064738835" lon="10.60268390992806"><ele>835.0</ele><time>2026-04-04T09:56:22Z</time></trkpt><trkpt lat="44.09232229262188" lon="10.602720341370736"><ele>835.0</ele><time>2026-04-04T09:56:23Z</time></trkpt><trkpt lat="44.09223669903924" lon="10.60276602399077"><ele>835.0</ele><time>2026-04-04T09:56:24Z</time></trkpt><trkpt lat="44.092152209666615" lon="10.602799868826374"><ele>835.0</ele><time>2026-04-04T09:56:25Z</time></trkpt><trkpt lat="44.092066654266276" lon="10.602849672742034"><ele>835.0</ele><time>2026-04-04T09:56:26Z</time></trkpt><trkpt lat="44.091976020227925" lon="10.602884604488317"><ele>841.4</ele><time>2026-04-04T09:56:27Z</time></trkpt><trkpt lat="44.09188478157682" lon="10.602921498162013"><ele>847.8</ele><time>2026-04-04T09:56:28Z</time></trkpt><trkpt lat="44.09179567930089" lon="10.602930648952695"><ele>854.2</ele><time>2026-04-04T09:56:29Z</time></trkpt><trkpt lat="44.091698827253715" lon="10.602941153291138"><ele>860.6</ele><time>2026-04-04T09:56:30Z</time></trkpt><trkpt lat="44.09161069041737" lon="10.60293276967088"><ele>867.0</ele><time>2026-04-04T09:56:31Z</time></trkpt><trkpt lat="44.09152600550156" lon="10.602931623142348"><ele>865.5</ele><time>2026-04-04T09:56:32Z</time></trkpt><trkpt lat="44.09144671210274" lon="10.60293508862122"><ele>864.0</ele><time>2026-04-04T09:56:33Z</time></trkpt><trkpt lat="44.09136010950469" lon="10.602921311502506"><ele>862.5</ele><time>2026-04-04T09:56:34Z</time></trkpt><trkpt lat="44.091292652380574" lon="10.602867077263847"><ele>861.0</ele><time>2026-04-04T09:56:35Z</time></trkpt><trkpt lat="44.091243301285004" lon="10.60280035361221"><ele>859.5</ele><time>2026-04-04T09:56:36Z</time></trkpt><trkpt lat="44.09120653229943" lon="10.602712743391661"><ele>858.0</ele><time>2026-04-04T09:56:37Z</time></trkpt><trkpt lat="44.091181282059416" lon="10.602621045227073"><ele>858.0</ele><time>2026-04-04T09:56:38Z</time></trkpt><trkpt lat="44.09114053237326" lon="10.602534485534232"><ele>858.0</ele><time>2026-04-04T09:56:39Z</time></trkpt><trkpt lat="44.09108133005452" lon="10.60246183586511"><ele>858.0</ele><time>2026-04-04T09:56:40Z</time></trkpt><trkpt lat="44.09100690394767" lon="10.602402670471374"><ele>858.0</ele><time>2026-04-04T09:56:41Z</time></trkpt><trkpt lat="44.09092626321824" lon="10.602348938269138"><ele>858.0</ele><time>2026-04-04T09:56:42Z</time></trkpt><trkpt lat="44.09084002752465" lon="10.602302260953195"><ele>858.0</ele><time>2026-04-04T09:56:43Z</time></trkpt><trkpt lat="44.09074667500168" lon="10.602298751109512"><ele>861.8</ele><time>2026-04-04T09:56:44Z</time></trkpt><trkpt lat="44.09065062386524" lon="10.602321287018029"><ele>865.5999999999999</ele><time>2026-04-04T09:56:45Z</time></trkpt><trkpt lat="44.090562962208" lon="10.602349534751315"><ele>869.4000000000001</ele><time>2026-04-04T09:56:46Z</time></trkpt><trkpt lat="44.09047257589699" lon="10.60236533574226"><ele>873.2</ele><time>2026-04-04T09:56:47Z</time></trkpt><trkpt lat="44.09038223359976" lon="10.602370444442288"><ele>877.0</ele><time>2026-04-04T09:56:48Z</time></trkpt><trkpt lat="44.09029575779223" lon="10.602350929666613"><ele>877.0</ele><time>2026-04-04T09:56:49Z</time></trkpt><trkpt lat="44.090207805617176" lon="10.602316201576322"><ele>877.0</ele><time>2026-04-04T09:56:50Z</time></trkpt><trkpt lat="44.09011196592619" lon="10.602284195803186"><ele>877.0</ele><time>2026-04-04T09:56:51Z</time></trkpt><trkpt lat="44.09001761077167" lon="10.602265512154947"><ele>877.0</ele><time>2026-04-04T09:56:52Z</time></trkpt><trkpt lat="44.089918585407695" lon="10.602244577556347"><ele>877.0</ele><time>2026-04-04T09:56:53Z</time></trkpt><trkpt lat="44.089826243935214" lon="10.60222130159657"><ele>879.2</ele><time>2026-04-04T09:56:54Z</time></trkpt><trkpt lat="44.089732517685306" lon="10.602196842576458"><ele>881.4000000000001</ele><time>2026-04-04T09:56:55Z</time></trkpt><trkpt lat="44.089643283844886" lon="10.602175423060514"><ele>883.5999999999999</ele><time>2026-04-04T09:56:56Z</time></trkpt><trkpt lat="44.089551854294015" lon="10.602162735444827"><ele>885.8</ele><time>2026-04-04T09:56:57Z</time></trkpt><trkpt lat="44.08945465876336" lon="10.602138973069605"><ele>888.0</ele><time>2026-04-04T09:56:58Z</time></trkpt><trkpt lat="44.08935881273882" lon="10.602108897607097"><ele>888.0</ele><time>2026-04-04T09:56:59Z</time></trkpt><trkpt lat="44.0892644419881" lon="10.602073758671844"><ele>888.0</ele><time>2026-04-04T09:57:00Z</time></trkpt><trkpt lat="44.089183657897884" lon="10.602035374686382"><ele>888.0</ele><time>2026-04-04T09:57:01Z</time></trkpt><trkpt lat="44.089103486960916" lon="10.60201159836812"><ele>888.0</ele><time>2026-04-04T09:57:02Z</time></trkpt><trkpt lat="44.08902148276143" lon="10.602004506426892"><ele>888.0</ele><time>2026-04-04T09:57:03Z</time></trkpt><trkpt lat="44.08894023352503" lon="10.602012200305097"><ele>888.0</ele><time>2026-04-04T09:57:04Z</time></trkpt><trkpt lat="44.08885432327493" lon="10.602032717943532"><ele>886.0</ele><time>2026-04-04T09:57:05Z</time></trkpt><trkpt lat="44.08876940030141" lon="10.60207798355972"><ele>884.0</ele><time>2026-04-04T09:57:06Z</time></trkpt><trkpt lat="44.08868487519762" lon="10.602132377256657"><ele>882.0</ele><time>2026-04-04T09:57:07Z</time></trkpt><trkpt lat="44.08859803715091" lon="10.602178423022814"><ele>880.0</ele><time>2026-04-04T09:57:08Z</time></trkpt><trkpt lat="44.0885111144946" lon="10.602228858570966"><ele>878.0</ele><time>2026-04-04T09:57:09Z</time></trkpt><trkpt lat="44.08842467229053" lon="10.602281953266665"><ele>878.0</ele><time>2026-04-04T09:57:10Z</time></trkpt><trkpt lat="44.08833380345636" lon="10.602334068022197"><ele>878.0</ele><time>2026-04-04T09:57:11Z</time></trkpt><trkpt lat="44.08824908177279" lon="10.602384571672424"><ele>878.0</ele><time>2026-04-04T09:57:12Z</time></trkpt><trkpt lat="44.088164533688875" lon="10.60243412713746"><ele>878.0</ele><time>2026-04-04T09:57:13Z</time></trkpt><trkpt lat="44.088081737793864" lon="10.60248378579545"><ele>878.0</ele><time>2026-04-04T09:57:14Z</time></trkpt><trkpt lat="44.08799403362666" lon="10.602533251034517"><ele>875.4</ele><time>2026-04-04T09:57:15Z</time></trkpt><trkpt lat="44.08790923057206" lon="10.602587948227756"><ele>872.8</ele><time>2026-04-04T09:57:16Z</time></trkpt><trkpt lat="44.08782374477026" lon="10.602634394751789"><ele>870.2</ele><time>2026-04-04T09:57:17Z</time></trkpt><trkpt lat="44.08774120932969" lon="10.602685698121865"><ele>867.6</ele><time>2026-04-04T09:57:18Z</time></trkpt><trkpt lat="44.08765529392251" lon="10.602722600558208"><ele>865.0</ele><time>2026-04-04T09:57:19Z</time></trkpt><trkpt lat="44.0875663810147" lon="10.602768164526239"><ele>864.9999999999999</ele><time>2026-04-04T09:57:20Z</time></trkpt><trkpt lat="44.087489695277405" lon="10.602814992595626"><ele>865.0</ele><time>2026-04-04T09:57:21Z</time></trkpt><trkpt lat="44.087419841046675" lon="10.6028791907104"><ele>865.0</ele><time>2026-04-04T09:57:22Z</time></trkpt><trkpt lat="44.087364943049735" lon="10.602971169631255"><ele>865.0</ele><time>2026-04-04T09:57:23Z</time></trkpt><trkpt lat="44.087338001334345" lon="10.603109712300004"><ele>864.9999999999999</ele><time>2026-04-04T09:57:24Z</time></trkpt><trkpt lat="44.08732065650555" lon="10.603233560368983"><ele>865.0</ele><time>2026-04-04T09:57:25Z</time></trkpt><trkpt lat="44.08731246700781" lon="10.603344315998012"><ele>860.9999999999999</ele><time>2026-04-04T09:57:26Z</time></trkpt><trkpt lat="44.08731381414168" lon="10.603451608717444"><ele>857.0</ele><time>2026-04-04T09:57:27Z</time></trkpt><trkpt lat="44.087319185282226" lon="10.603570239944167"><ele>853.0</ele><time>2026-04-04T09:57:28Z</time></trkpt><trkpt lat="44.087321849795245" lon="10.603695710670722"><ele>849.0</ele><time>2026-04-04T09:57:29Z</time></trkpt><trkpt lat="44.08732645955575" lon="10.603818555999098"><ele>844.9999999999999</ele><time>2026-04-04T09:57:30Z</time></trkpt><trkpt lat="44.08731167500172" lon="10.60394707812778"><ele>841.0</ele><time>2026-04-04T09:57:31Z</time></trkpt><trkpt lat="44.087292750032624" lon="10.60404262170969"><ele>841.0</ele><time>2026-04-04T09:57:32Z</time></trkpt><trkpt lat="44.08732823755496" lon="10.604126775960633"><ele>841.0</ele><time>2026-04-04T09:57:34Z</time></trkpt><trkpt lat="44.08740774846722" lon="10.604105422163371"><ele>841.0</ele><time>2026-04-04T09:57:36Z</time></trkpt><trkpt lat="44.087438126977816" lon="10.603910183959663"><ele>841.0</ele><time>2026-04-04T09:57:38Z</time></trkpt><trkpt lat="44.087418854468055" lon="10.603789203587382"><ele>841.0</ele><time>2026-04-04T09:57:39Z</time></trkpt><trkpt lat="44.08741902938176" lon="10.60366054574376"><ele>839.8333333333333</ele><time>2026-04-04T09:57:40Z</time></trkpt><trkpt lat="44.08741988319728" lon="10.603517679019323"><ele>838.6666666666666</ele><time>2026-04-04T09:57:41Z</time></trkpt><trkpt lat="44.08743259606684" lon="10.603408590075206"><ele>837.5</ele><time>2026-04-04T09:57:42Z</time></trkpt><trkpt lat="44.08745357347466" lon="10.60330719718387"><ele>836.3333333333333</ele><time>2026-04-04T09:57:43Z</time></trkpt><trkpt lat="44.087494828349605" lon="10.603234432002017"><ele>835.1666666666666</ele><time>2026-04-04T09:57:44Z</time></trkpt><trkpt lat="44.08754550406862" lon="10.603165227405109"><ele>834.0</ele><time>2026-04-04T09:57:45Z</time></trkpt><trkpt lat="44.08761446334396" lon="10.603108788770303"><ele>843.8000000000001</ele><time>2026-04-04T09:57:46Z</time></trkpt><trkpt lat="44.08770068672085" lon="10.603057681885307"><ele>853.6</ele><time>2026-04-04T09:57:47Z</time></trkpt><trkpt lat="44.087796657990964" lon="10.603030467195534"><ele>863.4</ele><time>2026-04-04T09:57:48Z</time></trkpt><trkpt lat="44.08788904549311" lon="10.603005821977682"><ele>873.2</ele><time>2026-04-04T09:57:49Z</time></trkpt><trkpt lat="44.08797727366043" lon="10.60297510868809"><ele>883.0</ele><time>2026-04-04T09:57:50Z</time></trkpt><trkpt lat="44.08806660861948" lon="10.602952872549311"><ele>882.9999999999999</ele><time>2026-04-04T09:57:51Z</time></trkpt><trkpt lat="44.08815452947442" lon="10.60293338063962"><ele>883.0</ele><time>2026-04-04T09:57:52Z</time></trkpt><trkpt lat="44.08825315173698" lon="10.602908965824394"><ele>883.0</ele><time>2026-04-04T09:57:53Z</time></trkpt><trkpt lat="44.088347941110186" lon="10.602879123626991"><ele>883.0</ele><time>2026-04-04T09:57:54Z</time></trkpt><trkpt lat="44.088431124211695" lon="10.602856118983741"><ele>882.9999999999999</ele><time>2026-04-04T09:57:55Z</time></trkpt><trkpt lat="44.08849761944186" lon="10.602836718220825"><ele>883.0</ele><time>2026-04-04T09:57:56Z</time></trkpt><trkpt lat="44.08858148650183" lon="10.60284537622161"><ele>882.9999999999999</ele><time>2026-04-04T09:57:58Z</time></trkpt><trkpt lat="44.0885499725838" lon="10.60296133579861"><ele>883.0</ele><time>2026-04-04T09:58:00Z</time></trkpt><trkpt lat="44.08848523749537" lon="10.60298818927258"><ele>883.0</ele><time>2026-04-04T09:58:01Z</time></trkpt><trkpt lat="44.088403543598446" lon="10.60300982033558"><ele>883.0</ele><time>2026-04-04T09:58:02Z</time></trkpt><trkpt lat="44.08831937237909" lon="10.603039653808041"><ele>882.9999999999999</ele><time>2026-04-04T09:58:03Z</time></trkpt><trkpt lat="44.08822826076817" lon="10.603065640235059"><ele>883.0</ele><time>2026-04-04T09:58:04Z</time></trkpt><trkpt lat="44.08813707408008" lon="10.603089613547956"><ele>883.0</ele><time>2026-04-04T09:58:05Z</time></trkpt><trkpt lat="44.0880442675258" lon="10.603110873888626"><ele>883.0</ele><time>2026-04-04T09:58:06Z</time></trkpt><trkpt lat="44.08795576667452" lon="10.603155752802262"><ele>883.0</ele><time>2026-04-04T09:58:07Z</time></trkpt><trkpt lat="44.0878694637796" lon="10.603213584283065"><ele>883.0</ele><time>2026-04-04T09:58:08Z</time></trkpt><trkpt lat="44.08779850699269" lon="10.60326121942553"><ele>883.0</ele><time>2026-04-04T09:58:09Z</time></trkpt><trkpt lat="44.08771049539379" lon="10.603341895686558"><ele>882.9999999999999</ele><time>2026-04-04T09:58:11Z</time></trkpt><trkpt lat="44.08776335834768" lon="10.603448292572159"><ele>883.0</ele><time>2026-04-04T09:58:13Z</time></trkpt><trkpt lat="44.08782997983803" lon="10.603443959051978"><ele>883.0</ele><time>2026-04-04T09:58:14Z</time></trkpt><trkpt lat="44.08790633064276" lon="10.603407841475839"><ele>883.0</ele><time>2026-04-04T09:58:15Z</time></trkpt><trkpt lat="44.08798879762521" lon="10.603370504877079"><ele>882.9999999999999</ele><time>2026-04-04T09:58:16Z</time></trkpt><trkpt lat="44.088076880103436" lon="10.603360595307862"><ele>883.0</ele><time>2026-04-04T09:58:17Z</time></trkpt><trkpt lat="44.08817959332242" lon="10.603367938854676"><ele>889.0</ele><time>2026-04-04T09:58:18Z</time></trkpt><trkpt lat="44.08828502986125" lon="10.603385165696327"><ele>895.0</ele><time>2026-04-04T09:58:19Z</time></trkpt><trkpt lat="44.08838847181562" lon="10.603390577676208"><ele>901.0</ele><time>2026-04-04T09:58:20Z</time></trkpt><trkpt lat="44.08849347332149" lon="10.60339128183055"><ele>907.0</ele><time>2026-04-04T09:58:21Z</time></trkpt><trkpt lat="44.08859188439288" lon="10.603382064187505"><ele>913.0</ele><time>2026-04-04T09:58:22Z</time></trkpt><trkpt lat="44.08868085317977" lon="10.60335297080941"><ele>912.9999999999999</ele><time>2026-04-04T09:58:23Z</time></trkpt><trkpt lat="44.08876914059406" lon="10.603306798350978"><ele>913.0</ele><time>2026-04-04T09:58:24Z</time></trkpt><trkpt lat="44.08884480544546" lon="10.603248638752106"><ele>913.0</ele><time>2026-04-04T09:58:25Z</time></trkpt><trkpt lat="44.088919733372535" lon="10.603194949355233"><ele>913.0</ele><time>2026-04-04T09:58:26Z</time></trkpt><trkpt lat="44.08900238346641" lon="10.603160645834233"><ele>912.9999999999999</ele><time>2026-04-04T09:58:27Z</time></trkpt><trkpt lat="44.089080448018514" lon="10.603132603083026"><ele>913.0</ele><time>2026-04-04T09:58:28Z</time></trkpt><trkpt lat="44.08915291610378" lon="10.603136591032326"><ele>913.9999999999999</ele><time>2026-04-04T09:58:29Z</time></trkpt><trkpt lat="44.08921962334981" lon="10.60316321909269"><ele>915.0</ele><time>2026-04-04T09:58:30Z</time></trkpt><trkpt lat="44.08927701770146" lon="10.60322043716381"><ele>916.0</ele><time>2026-04-04T09:58:31Z</time></trkpt><trkpt lat="44.089311792536556" lon="10.603316162573327"><ele>917.0</ele><time>2026-04-04T09:58:32Z</time></trkpt><trkpt lat="44.089334391907116" lon="10.603431184764124"><ele>917.9999999999999</ele><time>2026-04-04T09:58:33Z</time></trkpt><trkpt lat="44.089366715158434" lon="10.603545610910244"><ele>919.0</ele><time>2026-04-04T09:58:34Z</time></trkpt><trkpt lat="44.0894248047466" lon="10.603639586262286"><ele>921.6666666666666</ele><time>2026-04-04T09:58:35Z</time></trkpt><trkpt lat="44.08949911697637" lon="10.603705513189892"><ele>924.3333333333333</ele><time>2026-04-04T09:58:36Z</time></trkpt><trkpt lat="44.089577327500734" lon="10.603740625675044"><ele>927.0</ele><time>2026-04-04T09:58:37Z</time></trkpt><trkpt lat="44.089670806993226" lon="10.60374333406417"><ele>929.6666666666667</ele><time>2026-04-04T09:58:38Z</time></trkpt><trkpt lat="44.08975360401442" lon="10.603727094933133"><ele>932.3333333333334</ele><time>2026-04-04T09:58:39Z</time></trkpt><trkpt lat="44.08982876042042" lon="10.60369646748835"><ele>935.0</ele><time>2026-04-04T09:58:40Z</time></trkpt><trkpt lat="44.08993023870943" lon="10.60368789164408"><ele>935.0000000000001</ele><time>2026-04-04T09:58:42Z</time></trkpt><trkpt lat="44.089930762751" lon="10.603817795393594"><ele>935.0</ele><time>2026-04-04T09:58:44Z</time></trkpt><trkpt lat="44.0898776000093" lon="10.603871110923127"><ele>935.0</ele><time>2026-04-04T09:58:45Z</time></trkpt><trkpt lat="44.089803232746966" lon="10.60389266505171"><ele>935.0</ele><time>2026-04-04T09:58:46Z</time></trkpt><trkpt lat="44.08971501599118" lon="10.603916412398117"><ele>935.0000000000001</ele><time>2026-04-04T09:58:47Z</time></trkpt><trkpt lat="44.08962818493163" lon="10.603957936625704"><ele>935.0</ele><time>2026-04-04T09:58:48Z</time></trkpt><trkpt lat="44.089530973000734" lon="10.603994818706738"><ele>935.0</ele><time>2026-04-04T09:58:49Z</time></trkpt><trkpt lat="44.08941773523192" lon="10.604016119745589"><ele>935.0</ele><time>2026-04-04T09:58:50Z</time></trkpt><trkpt lat="44.089302284791906" lon="10.604016525023647"><ele>935.0</ele><time>2026-04-04T09:58:51Z</time></trkpt><trkpt lat="44.08919788920109" lon="10.604004370022542"><ele>935.0</ele><time>2026-04-04T09:58:52Z</time></trkpt><trkpt lat="44.089102726824756" lon="10.603987336934036"><ele>935.0</ele><time>2026-04-04T09:58:53Z</time></trkpt><trkpt lat="44.08901446485654" lon="10.603983659647808"><ele>933.6</ele><time>2026-04-04T09:58:54Z</time></trkpt><trkpt lat="44.08892295416908" lon="10.60400444841127"><ele>932.2</ele><time>2026-04-04T09:58:55Z</time></trkpt><trkpt lat="44.08883279334265" lon="10.604048308710855"><ele>930.8</ele><time>2026-04-04T09:58:56Z</time></trkpt><trkpt lat="44.08875224043438" lon="10.604125819908578"><ele>929.4</ele><time>2026-04-04T09:58:57Z</time></trkpt><trkpt lat="44.08868102760913" lon="10.604214920673458"><ele>928.0</ele><time>2026-04-04T09:58:58Z</time></trkpt><trkpt lat="44.088611595164224" lon="10.604310146748093"><ele>928.0</ele><time>2026-04-04T09:58:59Z</time></trkpt><trkpt lat="44.088555770708055" lon="10.604425977253864"><ele>928.0</ele><time>2026-04-04T09:59:00Z</time></trkpt><trkpt lat="44.088516186223394" lon="10.604565296587001"><ele>928.0</ele><time>2026-04-04T09:59:01Z</time></trkpt><trkpt lat="44.088480781776546" lon="10.604715729394638"><ele>928.0</ele><time>2026-04-04T09:59:02Z</time></trkpt><trkpt lat="44.088448163448795" lon="10.604853435421525"><ele>928.0</ele><time>2026-04-04T09:59:03Z</time></trkpt><trkpt lat="44.088414957410826" lon="10.604964308058028"><ele>930.8</ele><time>2026-04-04T09:59:04Z</time></trkpt><trkpt lat="44.088378327098866" lon="10.605101086770732"><ele>933.5999999999999</ele><time>2026-04-04T09:59:06Z</time></trkpt><trkpt lat="44.088461887513986" lon="10.605152715039809"><ele>936.4000000000001</ele><time>2026-04-04T09:59:08Z</time></trkpt><trkpt lat="44.088533621623746" lon="10.605009625173627"><ele>939.2</ele><time>2026-04-04T09:59:10Z</time></trkpt><trkpt lat="44.088558086082124" lon="10.604904535735786"><ele>942.0</ele><time>2026-04-04T09:59:11Z</time></trkpt><trkpt lat="44.08861317236921" lon="10.604810169524532"><ele>942.0</ele><time>2026-04-04T09:59:12Z</time></trkpt><trkpt lat="44.08870257109884" lon="10.604755881201369"><ele>942.0</ele><time>2026-04-04T09:59:13Z</time></trkpt><trkpt lat="44.088806823766674" lon="10.604731928701144"><ele>942.0</ele><time>2026-04-04T09:59:14Z</time></trkpt><trkpt lat="44.088915092462756" lon="10.604733141258572"><ele>942.0</ele><time>2026-04-04T09:59:15Z</time></trkpt><trkpt lat="44.08902450659328" lon="10.60474171017422"><ele>942.0</ele><time>2026-04-04T09:59:16Z</time></trkpt><trkpt lat="44.08914084090759" lon="10.604761688779522"><ele>945.6</ele><time>2026-04-04T09:59:17Z</time></trkpt><trkpt lat="44.08924948335822" lon="10.604783389285066"><ele>949.2</ele><time>2026-04-04T09:59:18Z</time></trkpt><trkpt lat="44.089356659274" lon="10.604800980533076"><ele>952.8</ele><time>2026-04-04T09:59:19Z</time></trkpt><trkpt lat="44.0894655084053" lon="10.6048235582043"><ele>956.4</ele><time>2026-04-04T09:59:20Z</time></trkpt><trkpt lat="44.08956833024492" lon="10.604836942016181"><ele>960.0</ele><time>2026-04-04T09:59:21Z</time></trkpt><trkpt lat="44.089654270645696" lon="10.604842706402795"><ele>960.0</ele><time>2026-04-04T09:59:22Z</time></trkpt><trkpt lat="44.0897296630761" lon="10.604881441741014"><ele>960.0</ele><time>2026-04-04T09:59:23Z</time></trkpt><trkpt lat="44.08979241297397" lon="10.604967287506476"><ele>960.0</ele><time>2026-04-04T09:59:24Z</time></trkpt><trkpt lat="44.08982202928254" lon="10.605098873863428"><ele>960.0</ele><time>2026-04-04T09:59:25Z</time></trkpt><trkpt lat="44.089842354932216" lon="10.605239870996183"><ele>960.0</ele><time>2026-04-04T09:59:26Z</time></trkpt><trkpt lat="44.08988762256566" lon="10.605362648924167"><ele>961.6666666666666</ele><time>2026-04-04T09:59:27Z</time></trkpt><trkpt lat="44.08994625950588" lon="10.605430086540151"><ele>963.3333333333333</ele><time>2026-04-04T09:59:28Z</time></trkpt><trkpt lat="44.09002779416204" lon="10.605470241865872"><ele>965.0</ele><time>2026-04-04T09:59:29Z</time></trkpt><trkpt lat="44.09011156952533" lon="10.605493935594419"><ele>966.6666666666666</ele><time>2026-04-04T09:59:30Z</time></trkpt><trkpt lat="44.09020311307101" lon="10.605511137206417"><ele>968.3333333333333</ele><time>2026-04-04T09:59:31Z</time></trkpt><trkpt lat="44.09029278352769" lon="10.60553515698301"><ele>970.0</ele><time>2026-04-04T09:59:32Z</time></trkpt><trkpt lat="44.0903831927933" lon="10.60555660491203"><ele>970.0</ele><time>2026-04-04T09:59:33Z</time></trkpt><trkpt lat="44.090459648170494" lon="10.605565222273832"><ele>970.0</ele><time>2026-04-04T09:59:34Z</time></trkpt><trkpt lat="44.09054065720113" lon="10.605613197623734"><ele>970.0</ele><time>2026-04-04T09:59:36Z</time></trkpt><trkpt lat="44.090479702664496" lon="10.605734433756894"><ele>970.0</ele><time>2026-04-04T09:59:38Z</time></trkpt><trkpt lat="44.09035548101128" lon="10.605716744127424"><ele>970.0</ele><time>2026-04-04T09:59:40Z</time></trkpt><trkpt lat="44.09027315718175" lon="10.605698736064264"><ele>970.0</ele><time>2026-04-04T09:59:41Z</time></trkpt><trkpt lat="44.0901869471587" lon="10.605685301101285"><ele>970.0</ele><time>2026-04-04T09:59:42Z</time></trkpt><trkpt lat="44.09009092409142" lon="10.605679812113824"><ele>970.0</ele><time>2026-04-04T09:59:43Z</time></trkpt><trkpt lat="44.08998367993352" lon="10.605671381783738"><ele>970.0</ele><time>2026-04-04T09:59:44Z</time></trkpt><trkpt lat="44.08988056546067" lon="10.605663740836638"><ele>970.0</ele><time>2026-04-04T09:59:45Z</time></trkpt><trkpt lat="44.08978237060361" lon="10.605657995334038"><ele>970.0</ele><time>2026-04-04T09:59:46Z</time></trkpt><trkpt lat="44.08968044958031" lon="10.605641950094007"><ele>970.0</ele><time>2026-04-04T09:59:47Z</time></trkpt><trkpt lat="44.08958368192691" lon="10.605627644561755"><ele>970.0</ele><time>2026-04-04T09:59:48Z</time></trkpt><trkpt lat="44.08948981556939" lon="10.605615817745559"><ele>970.0</ele><time>2026-04-04T09:59:49Z</time></trkpt><trkpt lat="44.089409223694695" lon="10.605610809310825"><ele>970.0</ele><time>2026-04-04T09:59:50Z</time></trkpt><trkpt lat="44.08933006966086" lon="10.605628218538815"><ele>970.0</ele><time>2026-04-04T09:59:51Z</time></trkpt><trkpt lat="44.08925016852312" lon="10.60568123460301"><ele>970.0</ele><time>2026-04-04T09:59:52Z</time></trkpt><trkpt lat="44.08917954767148" lon="10.605764351387046"><ele>970.0</ele><time>2026-04-04T09:59:53Z</time></trkpt><trkpt lat="44.08911554270763" lon="10.605862609915397"><ele>970.0</ele><time>2026-04-04T09:59:54Z</time></trkpt><trkpt lat="44.089063479111154" lon="10.605969645716042"><ele>970.0</ele><time>2026-04-04T09:59:55Z</time></trkpt><trkpt lat="44.08901338856608" lon="10.606074400040251"><ele>971.3333333333333</ele><time>2026-04-04T09:59:56Z</time></trkpt><trkpt lat="44.088957071308805" lon="10.606175438139806"><ele>972.6666666666666</ele><time>2026-04-04T09:59:57Z</time></trkpt><trkpt lat="44.08889650291407" lon="10.606276776488105"><ele>974.0</ele><time>2026-04-04T09:59:58Z</time></trkpt><trkpt lat="44.088838552918574" lon="10.606365615625625"><ele>975.3333333333333</ele><time>2026-04-04T09:59:59Z</time></trkpt><trkpt lat="44.08878331866354" lon="10.606442628834527"><ele>976.6666666666666</ele><time>2026-04-04T10:00:00Z</time></trkpt><trkpt lat="44.088730085647505" lon="10.606502757127247"><ele>978.0</ele><time>2026-04-04T10:00:01Z</time></trkpt><trkpt lat="44.0886833795368" lon="10.606622838874538"><ele>978.0</ele><time>2026-04-04T10:00:03Z</time></trkpt><trkpt lat="44.08877182160254" lon="10.606672703580973"><ele>978.0</ele><time>2026-04-04T10:00:05Z</time></trkpt><trkpt lat="44.08882901819879" lon="10.606624437533942"><ele>978.0</ele><time>2026-04-04T10:00:06Z</time></trkpt><trkpt lat="44.08888205872798" lon="10.6065501108436"><ele>978.0</ele><time>2026-04-04T10:00:07Z</time></trkpt><trkpt lat="44.0889534881354" lon="10.606486896474594"><ele>978.0</ele><time>2026-04-04T10:00:08Z</time></trkpt><trkpt lat="44.08904401845091" lon="10.606452851357998"><ele>978.0</ele><time>2026-04-04T10:00:09Z</time></trkpt><trkpt lat="44.08914471495697" lon="10.606443734356272"><ele>980.0</ele><time>2026-04-04T10:00:10Z</time></trkpt><trkpt lat="44.08924503920964" lon="10.606444766236043"><ele>982.0</ele><time>2026-04-04T10:00:11Z</time></trkpt><trkpt lat="44.08935215481361" lon="10.606476407528211"><ele>984.0</ele><time>2026-04-04T10:00:12Z</time></trkpt><trkpt lat="44.089453425661084" lon="10.606491898453875"><ele>986.0</ele><time>2026-04-04T10:00:13Z</time></trkpt><trkpt lat="44.08955408772066" lon="10.606489702458298"><ele>988.0</ele><time>2026-04-04T10:00:14Z</time></trkpt><trkpt lat="44.089648114115384" lon="10.606476984436975"><ele>987.9999999999999</ele><time>2026-04-04T10:00:15Z</time></trkpt><trkpt lat="44.08973640455119" lon="10.606446826351041"><ele>988.0</ele><time>2026-04-04T10:00:16Z</time></trkpt><trkpt lat="44.08980985570847" lon="10.60640941458066"><ele>988.0</ele><time>2026-04-04T10:00:17Z</time></trkpt><trkpt lat="44.089879515297426" lon="10.606360579559853"><ele>988.0</ele><time>2026-04-04T10:00:18Z</time></trkpt><trkpt lat="44.08996186774713" lon="10.606330229344746"><ele>987.9999999999999</ele><time>2026-04-04T10:00:19Z</time></trkpt><trkpt lat="44.09005103360397" lon="10.60633952851466"><ele>988.0</ele><time>2026-04-04T10:00:20Z</time></trkpt><trkpt lat="44.09014148070829" lon="10.606369849146468"><ele>989.8</ele><time>2026-04-04T10:00:21Z</time></trkpt><trkpt lat="44.09023500568498" lon="10.606417917181496"><ele>991.5999999999999</ele><time>2026-04-04T10:00:22Z</time></trkpt><trkpt lat="44.090330992951465" lon="10.606463502034993"><ele>993.4000000000001</ele><time>2026-04-04T10:00:23Z</time></trkpt><trkpt lat="44.090431470082144" lon="10.606523595479668"><ele>995.2</ele><time>2026-04-04T10:00:24Z</time></trkpt><trkpt lat="44.09053109753321" lon="10.606598727607548"><ele>997.0</ele><time>2026-04-04T10:00:25Z</time></trkpt><trkpt lat="44.090630153051436" lon="10.606676580475753"><ele>997.0</ele><time>2026-04-04T10:00:26Z</time></trkpt><trkpt lat="44.090723936809034" lon="10.606756222492326"><ele>997.0</ele><time>2026-04-04T10:00:27Z</time></trkpt><trkpt lat="44.090807912500686" lon="10.606832001759615"><ele>997.0</ele><time>2026-04-04T10:00:28Z</time></trkpt><trkpt lat="44.09088673115763" lon="10.606893526144342"><ele>997.0</ele><time>2026-04-04T10:00:29Z</time></trkpt><trkpt lat="44.09097928201711" lon="10.60692740462128"><ele>997.0</ele><time>2026-04-04T10:00:30Z</time></trkpt><trkpt lat="44.09107814193746" lon="10.606921658450908"><ele>996.6</ele><time>2026-04-04T10:00:31Z</time></trkpt><trkpt lat="44.09118256744669" lon="10.60691012759248"><ele>996.2</ele><time>2026-04-04T10:00:32Z</time></trkpt><trkpt lat="44.091287467997276" lon="10.60691069203301"><ele>995.8</ele><time>2026-04-04T10:00:33Z</time></trkpt><trkpt lat="44.09139730508393" lon="10.606910328696134"><ele>995.4</ele><time>2026-04-04T10:00:34Z</time></trkpt><trkpt lat="44.0915090263469" lon="10.606911492012001"><ele>995.0</ele><time>2026-04-04T10:00:35Z</time></trkpt><trkpt lat="44.09162528830987" lon="10.606913495984674"><ele>995.0</ele><time>2026-04-04T10:00:36Z</time></trkpt><trkpt lat="44.091734528571024" lon="10.606897258865105"><ele>995.0</ele><time>2026-04-04T10:00:37Z</time></trkpt><trkpt lat="44.091845309889166" lon="10.606919404060688"><ele>995.0</ele><time>2026-04-04T10:00:38Z</time></trkpt><trkpt lat="44.091951118363056" lon="10.606911988086702"><ele>995.0</ele><time>2026-04-04T10:00:39Z</time></trkpt><trkpt lat="44.09206000049985" lon="10.606914945546555"><ele>995.0</ele><time>2026-04-04T10:00:40Z</time></trkpt><trkpt lat="44.0921639709969" lon="10.60692774530639"><ele>995.0</ele><time>2026-04-04T10:00:41Z</time></trkpt><trkpt lat="44.09226785265522" lon="10.606958883747176"><ele>995.0</ele><time>2026-04-04T10:00:42Z</time></trkpt><trkpt lat="44.09236696707988" lon="10.606989881012128"><ele>995.0</ele><time>2026-04-04T10:00:43Z</time></trkpt><trkpt lat="44.09247265302216" lon="10.60701789847613"><ele>995.0</ele><time>2026-04-04T10:00:44Z</time></trkpt><trkpt lat="44.092578219794994" lon="10.607050381247092"><ele>995.0</ele><time>2026-04-04T10:00:45Z</time></trkpt><trkpt lat="44.092676132578816" lon="10.607086369487442"><ele>1002.2</ele><time>2026-04-04T10:00:46Z</time></trkpt><trkpt lat="44.09275806991521" lon="10.607116810551581"><ele>1009.4</ele><time>2026-04-04T10:00:47Z</time></trkpt><trkpt lat="44.09282399367151" lon="10.607206346602972"><ele>1016.5999999999999</ele><time>2026-04-04T10:00:48Z</time></trkpt><trkpt lat="44.09287993321984" lon="10.607308504597109"><ele>1023.8</ele><time>2026-04-04T10:00:49Z</time></trkpt><trkpt lat="44.0929420092479" lon="10.607433327088065"><ele>1031.0</ele><time>2026-04-04T10:00:50Z</time></trkpt><trkpt lat="44.09301815461861" lon="10.607533350777313"><ele>1031.0</ele><time>2026-04-04T10:00:51Z</time></trkpt><trkpt lat="44.093110679077654" lon="10.607602379166421"><ele>1031.0</ele><time>2026-04-04T10:00:52Z</time></trkpt><trkpt lat="44.093213707840874" lon="10.607659594465506"><ele>1031.0</ele><time>2026-04-04T10:00:53Z</time></trkpt><trkpt lat="44.09331439018301" lon="10.60769818910438"><ele>1031.0</ele><time>2026-04-04T10:00:54Z</time></trkpt><trkpt lat="44.0934013314346" lon="10.607728788941412"><ele>1031.0</ele><time>2026-04-04T10:00:55Z</time></trkpt><trkpt lat="44.09348237492746" lon="10.6077458894915"><ele>1031.5</ele><time>2026-04-04T10:00:56Z</time></trkpt><trkpt lat="44.093555071267744" lon="10.607747638240951"><ele>1032.0</ele><time>2026-04-04T10:00:57Z</time></trkpt><trkpt lat="44.093646281163146" lon="10.607805754334441"><ele>1032.5</ele><time>2026-04-04T10:00:59Z</time></trkpt><trkpt lat="44.09358638355536" lon="10.607942549667573"><ele>1033.0</ele><time>2026-04-04T10:01:01Z</time></trkpt><trkpt lat="44.0935177596554" lon="10.60795459499207"><ele>1033.5</ele><time>2026-04-04T10:01:02Z</time></trkpt><trkpt lat="44.09344821145177" lon="10.607943131241129"><ele>1034.0</ele><time>2026-04-04T10:01:03Z</time></trkpt><trkpt lat="44.09335116771886" lon="10.60788537916957"><ele>1033.4</ele><time>2026-04-04T10:01:04Z</time></trkpt><trkpt lat="44.09325483659277" lon="10.607841050700882"><ele>1032.8000000000002</ele><time>2026-04-04T10:01:05Z</time></trkpt><trkpt lat="44.09314943326084" lon="10.607808651652721"><ele>1032.1999999999998</ele><time>2026-04-04T10:01:06Z</time></trkpt><trkpt lat="44.093037057531" lon="10.607777025499251"><ele>1031.6</ele><time>2026-04-04T10:01:07Z</time></trkpt><trkpt lat="44.09292324274323" lon="10.607736748149248"><ele>1031.0</ele><time>2026-04-04T10:01:08Z</time></trkpt><trkpt lat="44.09280287872837" lon="10.607697562366967"><ele>1031.0</ele><time>2026-04-04T10:01:09Z</time></trkpt><trkpt lat="44.09269774959384" lon="10.60763339639601"><ele>1031.0</ele><time>2026-04-04T10:01:10Z</time></trkpt><trkpt lat="44.092601739856704" lon="10.607584976799043"><ele>1031.0</ele><time>2026-04-04T10:01:11Z</time></trkpt><trkpt lat="44.0925047065762" lon="10.607527787144878"><ele>1031.0</ele><time>2026-04-04T10:01:12Z</time></trkpt><trkpt lat="44.09241426390725" lon="10.607476933259742"><ele>1031.0</ele><time>2026-04-04T10:01:13Z</time></trkpt><trkpt lat="44.09232149880535" lon="10.607420966248622"><ele>1032.75</ele><time>2026-04-04T10:01:14Z</time></trkpt><trkpt lat="44.09221719406666" lon="10.607391868258505"><ele>1034.5</ele><time>2026-04-04T10:01:15Z</time></trkpt><trkpt lat="44.09210642208772" lon="10.607388835522215"><ele>1036.25</ele><time>2026-04-04T10:01:16Z</time></trkpt><trkpt lat="44.091992136695936" lon="10.607400901334396"><ele>1038.0</ele><time>2026-04-04T10:01:17Z</time></trkpt><trkpt lat="44.09187313043079" lon="10.607409962073762"><ele>1038.0</ele><time>2026-04-04T10:01:18Z</time></trkpt><trkpt lat="44.09175463005969" lon="10.607426364532188"><ele>1038.0</ele><time>2026-04-04T10:01:19Z</time></trkpt><trkpt lat="44.09164389474968" lon="10.607461216865769"><ele>1038.0</ele><time>2026-04-04T10:01:20Z</time></trkpt><trkpt lat="44.09153399437611" lon="10.607531772307063"><ele>1038.0</ele><time>2026-04-04T10:01:21Z</time></trkpt><trkpt lat="44.09142264756938" lon="10.60759146737878"><ele>1036.25</ele><time>2026-04-04T10:01:22Z</time></trkpt><trkpt lat="44.09131283464616" lon="10.607631859680893"><ele>1034.5</ele><time>2026-04-04T10:01:23Z</time></trkpt><trkpt lat="44.09120369316355" lon="10.60767468626711"><ele>1032.75</ele><time>2026-04-04T10:01:24Z</time></trkpt><trkpt lat="44.09109097372393" lon="10.607703248742695"><ele>1031.0</ele><time>2026-04-04T10:01:25Z</time></trkpt><trkpt lat="44.09097092528265" lon="10.607708864693123"><ele>1031.0</ele><time>2026-04-04T10:01:26Z</time></trkpt><trkpt lat="44.09085495505914" lon="10.607712787459125"><ele>1031.0</ele><time>2026-04-04T10:01:27Z</time></trkpt><trkpt lat="44.09074351564017" lon="10.60771279775938"><ele>1031.0</ele><time>2026-04-04T10:01:28Z</time></trkpt><trkpt lat="44.090633595198376" lon="10.607709246824056"><ele>1031.0</ele><time>2026-04-04T10:01:29Z</time></trkpt><trkpt lat="44.090524215776846" lon="10.607698152881417"><ele>1031.0</ele><time>2026-04-04T10:01:30Z</time></trkpt><trkpt lat="44.0904146299604" lon="10.607689826006396"><ele>1031.25</ele><time>2026-04-04T10:01:31Z</time></trkpt><trkpt lat="44.09030315293999" lon="10.607686156184645"><ele>1031.5</ele><time>2026-04-04T10:01:32Z</time></trkpt><trkpt lat="44.09019393015545" lon="10.607709130894529"><ele>1031.75</ele><time>2026-04-04T10:01:33Z</time></trkpt><trkpt lat="44.090081148357086" lon="10.607755828646722"><ele>1032.0</ele><time>2026-04-04T10:01:34Z</time></trkpt><trkpt lat="44.08997668605086" lon="10.607826629413001"><ele>1034.5</ele><time>2026-04-04T10:01:35Z</time></trkpt><trkpt lat="44.08986723941976" lon="10.607912579516755"><ele>1037.0</ele><time>2026-04-04T10:01:36Z</time></trkpt><trkpt lat="44.08975883466048" lon="10.607994654161184"><ele>1039.5</ele><time>2026-04-04T10:01:37Z</time></trkpt><trkpt lat="44.0896599992579" lon="10.608071244170288"><ele>1042.0</ele><time>2026-04-04T10:01:38Z</time></trkpt><trkpt lat="44.08957402666224" lon="10.60813310554796"><ele>1042.0</ele><time>2026-04-04T10:01:39Z</time></trkpt><trkpt lat="44.08949927415663" lon="10.608185696063504"><ele>1042.0</ele><time>2026-04-04T10:01:40Z</time></trkpt><trkpt lat="44.08943030402192" lon="10.6082437253126"><ele>1042.0</ele><time>2026-04-04T10:01:41Z</time></trkpt><trkpt lat="44.08936644069765" lon="10.608326867135743"><ele>1042.0</ele><time>2026-04-04T10:01:42Z</time></trkpt><trkpt lat="44.08931407943306" lon="10.608436973151932"><ele>1042.0</ele><time>2026-04-04T10:01:43Z</time></trkpt><trkpt lat="44.0892730688114" lon="10.608571354642466"><ele>1044.6</ele><time>2026-04-04T10:01:44Z</time></trkpt><trkpt lat="44.089234557096496" lon="10.608697463116355"><ele>1047.2</ele><time>2026-04-04T10:01:45Z</time></trkpt><trkpt lat="44.08921231801352" lon="10.608832051567903"><ele>1049.8</ele><time>2026-04-04T10:01:46Z</time></trkpt><trkpt lat="44.08918215208555" lon="10.60894581568236"><ele>1052.4</ele><time>2026-04-04T10:01:47Z</time></trkpt><trkpt lat="44.08918362006849" lon="10.609067896227138"><ele>1055.0</ele><time>2026-04-04T10:01:48Z</time></trkpt><trkpt lat="44.08920366990249" lon="10.609214150656866"><ele>1055.0</ele><time>2026-04-04T10:01:49Z</time></trkpt><trkpt lat="44.08924389996306" lon="10.609355120910545"><ele>1055.0</ele><time>2026-04-04T10:01:50Z</time></trkpt><trkpt lat="44.089273027613515" lon="10.609489002547768"><ele>1055.0</ele><time>2026-04-04T10:01:51Z</time></trkpt><trkpt lat="44.08928313382887" lon="10.609597790076588"><ele>1055.0</ele><time>2026-04-04T10:01:52Z</time></trkpt><trkpt lat="44.08924239056324" lon="10.609702167133696"><ele>1055.0</ele><time>2026-04-04T10:01:53Z</time></trkpt><trkpt lat="44.08917612419212" lon="10.60980518198471"><ele>1055.4</ele><time>2026-04-04T10:01:54Z</time></trkpt><trkpt lat="44.0890987759836" lon="10.609906877961494"><ele>1055.8</ele><time>2026-04-04T10:01:55Z</time></trkpt><trkpt lat="44.089026564763046" lon="10.610023315162"><ele>1056.2</ele><time>2026-04-04T10:01:56Z</time></trkpt><trkpt lat="44.08897621306322" lon="10.610146107563848"><ele>1056.6</ele><time>2026-04-04T10:01:57Z</time></trkpt><trkpt lat="44.088933196388666" lon="10.610280867872834"><ele>1057.0</ele><time>2026-04-04T10:01:58Z</time></trkpt><trkpt lat="44.08890747245768" lon="10.610427463807516"><ele>1057.0</ele><time>2026-04-04T10:01:59Z</time></trkpt><trkpt lat="44.08888198750291" lon="10.610570019960306"><ele>1057.0</ele><time>2026-04-04T10:02:00Z</time></trkpt><trkpt lat="44.088856205054036" lon="10.610715250398329"><ele>1057.0</ele><time>2026-04-04T10:02:01Z</time></trkpt><trkpt lat="44.08882933101361" lon="10.610853543559328"><ele>1057.0</ele><time>2026-04-04T10:02:02Z</time></trkpt><trkpt lat="44.08879368793617" lon="10.610994903404903"><ele>1057.0</ele><time>2026-04-04T10:02:03Z</time></trkpt><trkpt lat="44.08874461332051" lon="10.611124710158142"><ele>1059.4</ele><time>2026-04-04T10:02:04Z</time></trkpt><trkpt lat="44.08868860977844" lon="10.611239587568972"><ele>1061.8000000000002</ele><time>2026-04-04T10:02:05Z</time></trkpt><trkpt lat="44.08863455581431" lon="10.611318208906475"><ele>1064.2</ele><time>2026-04-04T10:02:06Z</time></trkpt><trkpt lat="44.088583496591944" lon="10.611437311362225"><ele>1066.6000000000001</ele><time>2026-04-04T10:02:08Z</time></trkpt><trkpt lat="44.0886745557335" lon="10.611498742319492"><ele>1069.0</ele><time>2026-04-04T10:02:10Z</time></trkpt><trkpt lat="44.088772797579125" lon="10.611389677929433"><ele>1069.0</ele><time>2026-04-04T10:02:12Z</time></trkpt><trkpt lat="44.08883081823494" lon="10.61130557202608"><ele>1069.0</ele><time>2026-04-04T10:02:13Z</time></trkpt><trkpt lat="44.088896504656134" lon="10.611226832280295"><ele>1069.0</ele><time>2026-04-04T10:02:14Z</time></trkpt><trkpt lat="44.08897230946719" lon="10.611135606526746"><ele>1069.0</ele><time>2026-04-04T10:02:15Z</time></trkpt><trkpt lat="44.089030664562316" lon="10.611038916128134"><ele>1069.0</ele><time>2026-04-04T10:02:16Z</time></trkpt><trkpt lat="44.08909197507657" lon="10.610920743809658"><ele>1068.4</ele><time>2026-04-04T10:02:17Z</time></trkpt><trkpt lat="44.08914397653057" lon="10.61079754916053"><ele>1067.8000000000002</ele><time>2026-04-04T10:02:18Z</time></trkpt><trkpt lat="44.0891958885855" lon="10.610672777543707"><ele>1067.1999999999998</ele><time>2026-04-04T10:02:19Z</time></trkpt><trkpt lat="44.089246755094344" lon="10.610547672548863"><ele>1066.6</ele><time>2026-04-04T10:02:20Z</time></trkpt><trkpt lat="44.089299481254514" lon="10.610421951020308"><ele>1066.0</ele><time>2026-04-04T10:02:21Z</time></trkpt><trkpt lat="44.08936132801271" lon="10.610311522458487"><ele>1066.0</ele><time>2026-04-04T10:02:22Z</time></trkpt><trkpt lat="44.089439514720915" lon="10.610244435890547"><ele>1066.0</ele><time>2026-04-04T10:02:23Z</time></trkpt><trkpt lat="44.08953622947204" lon="10.610189270913622"><ele>1066.0</ele><time>2026-04-04T10:02:24Z</time></trkpt><trkpt lat="44.089641528258845" lon="10.610150644523106"><ele>1066.0</ele><time>2026-04-04T10:02:25Z</time></trkpt><trkpt lat="44.08974373117028" lon="10.610108883928916"><ele>1066.0</ele><time>2026-04-04T10:02:26Z</time></trkpt><trkpt lat="44.089824620004265" lon="10.610076534456757"><ele>1066.0</ele><time>2026-04-04T10:02:27Z</time></trkpt><trkpt lat="44.08989605953653" lon="10.610029798316713"><ele>1066.0</ele><time>2026-04-04T10:02:28Z</time></trkpt><trkpt lat="44.0899575245846" lon="10.609936964266613"><ele>1066.0</ele><time>2026-04-04T10:02:29Z</time></trkpt><trkpt lat="44.08998697840965" lon="10.609823432035665"><ele>1066.0</ele><time>2026-04-04T10:02:30Z</time></trkpt><trkpt lat="44.089992826953946" lon="10.609695390886356"><ele>1066.0</ele><time>2026-04-04T10:02:31Z</time></trkpt><trkpt lat="44.089968513391405" lon="10.609555638947313"><ele>1068.6666666666665</ele><time>2026-04-04T10:02:32Z</time></trkpt><trkpt lat="44.089959977183874" lon="10.609420760494384"><ele>1071.3333333333333</ele><time>2026-04-04T10:02:33Z</time></trkpt><trkpt lat="44.0899561723477" lon="10.60928709505012"><ele>1074.0</ele><time>2026-04-04T10:02:34Z</time></trkpt><trkpt lat="44.08994957867561" lon="10.609163508452838"><ele>1076.6666666666667</ele><time>2026-04-04T10:02:35Z</time></trkpt><trkpt lat="44.08995047366141" lon="10.609057928105758"><ele>1079.3333333333335</ele><time>2026-04-04T10:02:36Z</time></trkpt><trkpt lat="44.08997992733842" lon="10.608979979242541"><ele>1082.0</ele><time>2026-04-04T10:02:37Z</time></trkpt><trkpt lat="44.09003544216408" lon="10.608927845614593"><ele>1082.0</ele><time>2026-04-04T10:02:38Z</time></trkpt><trkpt lat="44.09011912276545" lon="10.6089117359048"><ele>1082.0</ele><time>2026-04-04T10:02:39Z</time></trkpt><trkpt lat="44.09021873648888" lon="10.608908151982776"><ele>1082.0</ele><time>2026-04-04T10:02:40Z</time></trkpt><trkpt lat="44.09032319381083" lon="10.60889220978677"><ele>1082.0</ele><time>2026-04-04T10:02:41Z</time></trkpt><trkpt lat="44.0904398178026" lon="10.60888811252257"><ele>1082.0</ele><time>2026-04-04T10:02:42Z</time></trkpt><trkpt lat="44.09055537876075" lon="10.608905039292495"><ele>1082.0</ele><time>2026-04-04T10:02:43Z</time></trkpt><trkpt lat="44.09067874858767" lon="10.608924737478008"><ele>1082.0</ele><time>2026-04-04T10:02:44Z</time></trkpt><trkpt lat="44.09079904304495" lon="10.608952601520269"><ele>1082.0</ele><time>2026-04-04T10:02:45Z</time></trkpt><trkpt lat="44.09091546998154" lon="10.608983928822195"><ele>1082.0</ele><time>2026-04-04T10:02:46Z</time></trkpt><trkpt lat="44.09102261459622" lon="10.60901035393524"><ele>1085.4</ele><time>2026-04-04T10:02:47Z</time></trkpt><trkpt lat="44.091122505557195" lon="10.609042651733759"><ele>1088.8000000000002</ele><time>2026-04-04T10:02:48Z</time></trkpt><trkpt lat="44.09121454820429" lon="10.60907361793726"><ele>1092.2</ele><time>2026-04-04T10:02:49Z</time></trkpt><trkpt lat="44.0913027498333" lon="10.60911803202416"><ele>1095.6000000000001</ele><time>2026-04-04T10:02:50Z</time></trkpt><trkpt lat="44.091372730008565" lon="10.609172530782635"><ele>1099.0</ele><time>2026-04-04T10:02:51Z</time></trkpt><trkpt lat="44.09142749691331" lon="10.609250894329978"><ele>1099.0</ele><time>2026-04-04T10:02:52Z</time></trkpt><trkpt lat="44.09144775936426" lon="10.609347408245505"><ele>1099.0</ele><time>2026-04-04T10:02:53Z</time></trkpt><trkpt lat="44.091426474825646" lon="10.609452832049167"><ele>1099.0</ele><time>2026-04-04T10:02:54Z</time></trkpt><trkpt lat="44.09137654771075" lon="10.60955249814295"><ele>1099.0</ele><time>2026-04-04T10:02:55Z</time></trkpt><trkpt lat="44.091314057783826" lon="10.609656680173154"><ele>1099.0</ele><time>2026-04-04T10:02:56Z</time></trkpt><trkpt lat="44.09125905842256" lon="10.609784895561488"><ele>1099.0</ele><time>2026-04-04T10:02:57Z</time></trkpt><trkpt lat="44.091215162073055" lon="10.609918470189097"><ele>1100.6000000000001</ele><time>2026-04-04T10:02:58Z</time></trkpt><trkpt lat="44.091175744859115" lon="10.610057306558621"><ele>1102.2</ele><time>2026-04-04T10:02:59Z</time></trkpt><trkpt lat="44.09113784098157" lon="10.61018960464687"><ele>1103.8000000000002</ele><time>2026-04-04T10:03:00Z</time></trkpt><trkpt lat="44.091108911369425" lon="10.610330719947031"><ele>1105.4</ele><time>2026-04-04T10:03:01Z</time></trkpt><trkpt lat="44.09110109643262" lon="10.610489887628843"><ele>1107.0</ele><time>2026-04-04T10:03:02Z</time></trkpt><trkpt lat="44.091113455483914" lon="10.610648561944577"><ele>1110.0</ele><time>2026-04-04T10:03:03Z</time></trkpt><trkpt lat="44.091143629881195" lon="10.610812958825871"><ele>1113.0</ele><time>2026-04-04T10:03:04Z</time></trkpt><trkpt lat="44.09117267351982" lon="10.610976396583583"><ele>1116.0</ele><time>2026-04-04T10:03:05Z</time></trkpt><trkpt lat="44.091203872738134" lon="10.61114081224648"><ele>1119.0</ele><time>2026-04-04T10:03:06Z</time></trkpt><trkpt lat="44.0912364203861" lon="10.611308208672526"><ele>1120.5</ele><time>2026-04-04T10:03:07Z</time></trkpt><trkpt lat="44.091263126069066" lon="10.611476966287825"><ele>1122.0</ele><time>2026-04-04T10:03:08Z</time></trkpt><trkpt lat="44.09129178771859" lon="10.611647580063442"><ele>1123.5</ele><time>2026-04-04T10:03:09Z</time></trkpt><trkpt lat="44.091320575536066" lon="10.61181640907467"><ele>1125.0</ele><time>2026-04-04T10:03:10Z</time></trkpt><trkpt lat="44.091350345708015" lon="10.611988379167533"><ele>1127.5</ele><time>2026-04-04T10:03:11Z</time></trkpt><trkpt lat="44.091380984607895" lon="10.61215557205023"><ele>1130.0</ele><time>2026-04-04T10:03:12Z</time></trkpt><trkpt lat="44.09141413781166" lon="10.612318817203246"><ele>1132.5</ele><time>2026-04-04T10:03:13Z</time></trkpt><trkpt lat="44.09145136589905" lon="10.612476945022108"><ele>1135.0</ele><time>2026-04-04T10:03:14Z</time></trkpt><trkpt lat="44.09149628192579" lon="10.612629057127165"><ele>1135.0</ele><time>2026-04-04T10:03:15Z</time></trkpt><trkpt lat="44.0915452795428" lon="10.612776637862302"><ele>1135.0</ele><time>2026-04-04T10:03:16Z</time></trkpt><trkpt lat="44.09159752896998" lon="10.612933163501616"><ele>1135.0</ele><time>2026-04-04T10:03:17Z</time></trkpt><trkpt lat="44.091640536645734" lon="10.613070789370365"><ele>1135.0</ele><time>2026-04-04T10:03:18Z</time></trkpt><trkpt lat="44.0916883491991" lon="10.613220031930227"><ele>1134.5</ele><time>2026-04-04T10:03:19Z</time></trkpt><trkpt lat="44.091736887986826" lon="10.613367310520571"><ele>1134.0</ele><time>2026-04-04T10:03:20Z</time></trkpt><trkpt lat="44.09175898929484" lon="10.613531479310504"><ele>1133.5</ele><time>2026-04-04T10:03:21Z</time></trkpt><trkpt lat="44.09180732951613" lon="10.613674754310154"><ele>1133.0</ele><time>2026-04-04T10:03:22Z</time></trkpt><trkpt lat="44.09185005575708" lon="10.613810714366943"><ele>1136.8</ele><time>2026-04-04T10:03:23Z</time></trkpt><trkpt lat="44.09189420426589" lon="10.613937498303539"><ele>1140.6</ele><time>2026-04-04T10:03:24Z</time></trkpt><trkpt lat="44.091941366376105" lon="10.61406819020285"><ele>1144.4</ele><time>2026-04-04T10:03:25Z</time></trkpt><trkpt lat="44.09198543017569" lon="10.614195334492226"><ele>1148.2</ele><time>2026-04-04T10:03:26Z</time></trkpt><trkpt lat="44.09205276545556" lon="10.614304479691613"><ele>1152.0</ele><time>2026-04-04T10:03:27Z</time></trkpt><trkpt lat="44.09213120974556" lon="10.61440762715695"><ele>1153.6</ele><time>2026-04-04T10:03:28Z</time></trkpt><trkpt lat="44.09222662091589" lon="10.614492707209774"><ele>1155.2</ele><time>2026-04-04T10:03:29Z</time></trkpt><trkpt lat="44.092314934596295" lon="10.614578537583839"><ele>1156.8</ele><time>2026-04-04T10:03:30Z</time></trkpt><trkpt lat="44.09240571573353" lon="10.614665610078049"><ele>1158.4</ele><time>2026-04-04T10:03:31Z</time></trkpt><trkpt lat="44.092496505498524" lon="10.614735822711992"><ele>1160.0</ele><time>2026-04-04T10:03:32Z</time></trkpt><trkpt lat="44.09259946384066" lon="10.614807615592396"><ele>1160.0</ele><time>2026-04-04T10:03:33Z</time></trkpt><trkpt lat="44.0926987876508" lon="10.614859650459772"><ele>1160.0</ele><time>2026-04-04T10:03:34Z</time></trkpt><trkpt lat="44.09279242729676" lon="10.614927650891572"><ele>1160.0</ele><time>2026-04-04T10:03:35Z</time></trkpt><trkpt lat="44.09287799230208" lon="10.614964186933483"><ele>1160.0</ele><time>2026-04-04T10:03:36Z</time></trkpt><trkpt lat="44.09295119245957" lon="10.614989543370923"><ele>1160.0</ele><time>2026-04-04T10:03:37Z</time></trkpt><trkpt lat="44.09303119432364" lon="10.614997397136143"><ele>1160.0</ele><time>2026-04-04T10:03:38Z</time></trkpt><trkpt lat="44.09311447489268" lon="10.614965655598644"><ele>1160.0</ele><time>2026-04-04T10:03:39Z</time></trkpt><trkpt lat="44.09319309521623" lon="10.614882108044721"><ele>1160.0</ele><time>2026-04-04T10:03:40Z</time></trkpt><trkpt lat="44.093267758700165" lon="10.614769974530276"><ele>1160.0</ele><time>2026-04-04T10:03:41Z</time></trkpt><trkpt lat="44.09333869140256" lon="10.614657891939382"><ele>1160.0</ele><time>2026-04-04T10:03:42Z</time></trkpt><trkpt lat="44.09340970470838" lon="10.614552273312302"><ele>1156.2</ele><time>2026-04-04T10:03:43Z</time></trkpt><trkpt lat="44.09348465054881" lon="10.61444537344055"><ele>1152.4</ele><time>2026-04-04T10:03:44Z</time></trkpt><trkpt lat="44.0935656285563" lon="10.614337795223767"><ele>1148.6</ele><time>2026-04-04T10:03:45Z</time></trkpt><trkpt lat="44.093643638714035" lon="10.614231764083494"><ele>1144.8</ele><time>2026-04-04T10:03:46Z</time></trkpt><trkpt lat="44.09371950198745" lon="10.614126868285204"><ele>1141.0</ele><time>2026-04-04T10:03:47Z</time></trkpt><trkpt lat="44.093792421158405" lon="10.614025030299265"><ele>1141.0</ele><time>2026-04-04T10:03:48Z</time></trkpt><trkpt lat="44.09386855992321" lon="10.613934050521392"><ele>1141.0</ele><time>2026-04-04T10:03:49Z</time></trkpt><trkpt lat="44.09395481882518" lon="10.613861936690132"><ele>1141.0</ele><time>2026-04-04T10:03:50Z</time></trkpt><trkpt lat="44.094047530501044" lon="10.61379302556768"><ele>1141.0</ele><time>2026-04-04T10:03:51Z</time></trkpt><trkpt lat="44.09414103620455" lon="10.613728363750317"><ele>1141.0</ele><time>2026-04-04T10:03:52Z</time></trkpt><trkpt lat="44.09423500121027" lon="10.61365175306824"><ele>1142.2</ele><time>2026-04-04T10:03:53Z</time></trkpt><trkpt lat="44.09431766143381" lon="10.61355287453738"><ele>1143.3999999999999</ele><time>2026-04-04T10:03:54Z</time></trkpt><trkpt lat="44.09438666453844" lon="10.613436029673561"><ele>1144.6</ele><time>2026-04-04T10:03:55Z</time></trkpt><trkpt lat="44.094453464455626" lon="10.613313030359416"><ele>1145.8</ele><time>2026-04-04T10:03:56Z</time></trkpt><trkpt lat="44.09453290848236" lon="10.613222689511671"><ele>1147.0</ele><time>2026-04-04T10:03:57Z</time></trkpt><trkpt lat="44.09459610397884" lon="10.613118427172903"><ele>1147.0</ele><time>2026-04-04T10:03:58Z</time></trkpt><trkpt lat="44.094652078923794" lon="10.61301247408924"><ele>1147.0</ele><time>2026-04-04T10:03:59Z</time></trkpt><trkpt lat="44.09471239147727" lon="10.612925595452934"><ele>1147.0</ele><time>2026-04-04T10:04:00Z</time></trkpt><trkpt lat="44.09478021311872" lon="10.612888388192497"><ele>1147.0</ele><time>2026-04-04T10:04:01Z</time></trkpt><trkpt lat="44.094852534899594" lon="10.612899582557366"><ele>1147.0</ele><time>2026-04-04T10:04:02Z</time></trkpt><trkpt lat="44.0949250342027" lon="10.61295721480122"><ele>1147.0</ele><time>2026-04-04T10:04:03Z</time></trkpt><trkpt lat="44.094985941436654" lon="10.613054601390555"><ele>1151.6</ele><time>2026-04-04T10:04:04Z</time></trkpt><trkpt lat="44.09503066620314" lon="10.613170505688318"><ele>1156.2</ele><time>2026-04-04T10:04:05Z</time></trkpt><trkpt lat="44.095078574360514" lon="10.613284560590516"><ele>1160.8</ele><time>2026-04-04T10:04:06Z</time></trkpt><trkpt lat="44.09512641223193" lon="10.613390915105677"><ele>1165.4</ele><time>2026-04-04T10:04:07Z</time></trkpt><trkpt lat="44.09518660245399" lon="10.61347161994125"><ele>1170.0</ele><time>2026-04-04T10:04:08Z</time></trkpt><trkpt lat="44.09527268995935" lon="10.613508848293417"><ele>1170.0</ele><time>2026-04-04T10:04:09Z</time></trkpt><trkpt lat="44.095384869360295" lon="10.61349673725959"><ele>1170.0</ele><time>2026-04-04T10:04:10Z</time></trkpt><trkpt lat="44.095494676737516" lon="10.613467511291411"><ele>1170.0</ele><time>2026-04-04T10:04:11Z</time></trkpt><trkpt lat="44.09559957615371" lon="10.613445841613311"><ele>1170.0</ele><time>2026-04-04T10:04:12Z</time></trkpt><trkpt lat="44.09568835501935" lon="10.6134506713822"><ele>1170.0</ele><time>2026-04-04T10:04:13Z</time></trkpt><trkpt lat="44.09577117248601" lon="10.613421049960028"><ele>1172.0</ele><time>2026-04-04T10:04:14Z</time></trkpt><trkpt lat="44.095841956979314" lon="10.613333315493403"><ele>1174.0</ele><time>2026-04-04T10:04:15Z</time></trkpt><trkpt lat="44.095905701340925" lon="10.613223167649041"><ele>1176.0</ele><time>2026-04-04T10:04:16Z</time></trkpt><trkpt lat="44.09598187824538" lon="10.613130216394827"><ele>1178.0</ele><time>2026-04-04T10:04:17Z</time></trkpt><trkpt lat="44.09606682442193" lon="10.61305710616565"><ele>1180.0</ele><time>2026-04-04T10:04:18Z</time></trkpt><trkpt lat="44.09616807593683" lon="10.613026781600551"><ele>1180.0</ele><time>2026-04-04T10:04:19Z</time></trkpt><trkpt lat="44.09627053400704" lon="10.613021465586032"><ele>1180.0</ele><time>2026-04-04T10:04:20Z</time></trkpt><trkpt lat="44.096357017597256" lon="10.613038838661994"><ele>1180.0</ele><time>2026-04-04T10:04:21Z</time></trkpt><trkpt lat="44.09643161864311" lon="10.61302053664291"><ele>1180.0</ele><time>2026-04-04T10:04:22Z</time></trkpt><trkpt lat="44.09649970880988" lon="10.61294029297173"><ele>1180.0</ele><time>2026-04-04T10:04:23Z</time></trkpt><trkpt lat="44.096544286514" lon="10.612813859207264"><ele>1181.0</ele><time>2026-04-04T10:04:24Z</time></trkpt><trkpt lat="44.09657627675074" lon="10.612671711053876"><ele>1182.0</ele><time>2026-04-04T10:04:25Z</time></trkpt><trkpt lat="44.09660111359144" lon="10.612526505399547"><ele>1183.0</ele><time>2026-04-04T10:04:26Z</time></trkpt><trkpt lat="44.096637182249566" lon="10.612382909808275"><ele>1184.0</ele><time>2026-04-04T10:04:27Z</time></trkpt><trkpt lat="44.09668580575354" lon="10.612261213149893"><ele>1185.0</ele><time>2026-04-04T10:04:28Z</time></trkpt><trkpt lat="44.09675002034865" lon="10.612142168543867"><ele>1185.0</ele><time>2026-04-04T10:04:29Z</time></trkpt><trkpt lat="44.09682302669516" lon="10.612020847915458"><ele>1185.0</ele><time>2026-04-04T10:04:30Z</time></trkpt><trkpt lat="44.0969052954971" lon="10.61191007389518"><ele>1185.0</ele><time>2026-04-04T10:04:31Z</time></trkpt><trkpt lat="44.0969685925795" lon="10.611810384647528"><ele>1185.0</ele><time>2026-04-04T10:04:32Z</time></trkpt><trkpt lat="44.09702678839321" lon="10.611719544427428"><ele>1185.0</ele><time>2026-04-04T10:04:33Z</time></trkpt><trkpt lat="44.097080908303134" lon="10.611631500811754"><ele>1186.0</ele><time>2026-04-04T10:04:34Z</time></trkpt><trkpt lat="44.097139892009714" lon="10.611556864982798"><ele>1187.0</ele><time>2026-04-04T10:04:35Z</time></trkpt><trkpt lat="44.09720286975242" lon="10.611490206840472"><ele>1188.0</ele><time>2026-04-04T10:04:36Z</time></trkpt><trkpt lat="44.097279228055214" lon="10.611438687545702"><ele>1189.0</ele><time>2026-04-04T10:04:37Z</time></trkpt><trkpt lat="44.097355053688" lon="10.611402266186357"><ele>1190.0</ele><time>2026-04-04T10:04:38Z</time></trkpt><trkpt lat="44.09744072111239" lon="10.611407961846405"><ele>1191.0</ele><time>2026-04-04T10:04:39Z</time></trkpt><trkpt lat="44.09752843937922" lon="10.611429431187279"><ele>1191.0</ele><time>2026-04-04T10:04:40Z</time></trkpt><trkpt lat="44.097607196151095" lon="10.611471651510568"><ele>1191.0</ele><time>2026-04-04T10:04:41Z</time></trkpt><trkpt lat="44.097676645942286" lon="10.611546620948081"><ele>1191.0</ele><time>2026-04-04T10:04:42Z</time></trkpt><trkpt lat="44.09772983945036" lon="10.611636156335223"><ele>1191.0</ele><time>2026-04-04T10:04:43Z</time></trkpt><trkpt lat="44.09775778108125" lon="10.611755017882647"><ele>1191.0</ele><time>2026-04-04T10:04:44Z</time></trkpt><trkpt lat="44.0977632271032" lon="10.611884888316663"><ele>1191.0</ele><time>2026-04-04T10:04:45Z</time></trkpt><trkpt lat="44.09775691959291" lon="10.612016077724773"><ele>1194.2</ele><time>2026-04-04T10:04:46Z</time></trkpt><trkpt lat="44.09773768308079" lon="10.61214944721056"><ele>1197.3999999999999</ele><time>2026-04-04T10:04:47Z</time></trkpt><trkpt lat="44.09770328585091" lon="10.612283400976"><ele>1200.6</ele><time>2026-04-04T10:04:48Z</time></trkpt><trkpt lat="44.097666200143365" lon="10.612424454681744"><ele>1203.8</ele><time>2026-04-04T10:04:49Z</time></trkpt><trkpt lat="44.097621931639075" lon="10.61255925094136"><ele>1207.0</ele><time>2026-04-04T10:04:50Z</time></trkpt><trkpt lat="44.09757783040184" lon="10.612698264189767"><ele>1208.0</ele><time>2026-04-04T10:04:51Z</time></trkpt><trkpt lat="44.097547520079615" lon="10.612833241505545"><ele>1209.0</ele><time>2026-04-04T10:04:52Z</time></trkpt><trkpt lat="44.09754172753667" lon="10.612959255706599"><ele>1210.0</ele><time>2026-04-04T10:04:53Z</time></trkpt><trkpt lat="44.097569551483254" lon="10.61306386021374"><ele>1211.0</ele><time>2026-04-04T10:04:54Z</time></trkpt><trkpt lat="44.097625722272845" lon="10.613156448403982"><ele>1212.0</ele><time>2026-04-04T10:04:55Z</time></trkpt><trkpt lat="44.09769426741201" lon="10.613246068675515"><ele>1212.0</ele><time>2026-04-04T10:04:56Z</time></trkpt><trkpt lat="44.097766465366696" lon="10.613339753304627"><ele>1212.0</ele><time>2026-04-04T10:04:57Z</time></trkpt><trkpt lat="44.09784157804831" lon="10.613428163915303"><ele>1212.0</ele><time>2026-04-04T10:04:58Z</time></trkpt><trkpt lat="44.097922571496056" lon="10.613519656380562"><ele>1212.0</ele><time>2026-04-04T10:04:59Z</time></trkpt><trkpt lat="44.09800287805157" lon="10.613612322362167"><ele>1212.0</ele><time>2026-04-04T10:05:00Z</time></trkpt><trkpt lat="44.09807864976385" lon="10.613694646828645"><ele>1216.2</ele><time>2026-04-04T10:05:01Z</time></trkpt><trkpt lat="44.098164868660994" lon="10.6137515528111"><ele>1220.4</ele><time>2026-04-04T10:05:02Z</time></trkpt><trkpt lat="44.09825872570741" lon="10.613781736357799"><ele>1224.6</ele><time>2026-04-04T10:05:03Z</time></trkpt><trkpt lat="44.09835447120215" lon="10.613780867390973"><ele>1228.8</ele><time>2026-04-04T10:05:04Z</time></trkpt><trkpt lat="44.09845096991362" lon="10.613765137125633"><ele>1233.0</ele><time>2026-04-04T10:05:05Z</time></trkpt><trkpt lat="44.098552462499725" lon="10.613723850332542"><ele>1233.6</ele><time>2026-04-04T10:05:06Z</time></trkpt><trkpt lat="44.098649811395376" lon="10.613676824442356"><ele>1234.1999999999998</ele><time>2026-04-04T10:05:07Z</time></trkpt><trkpt lat="44.0987584195328" lon="10.613657059996617"><ele>1234.8</ele><time>2026-04-04T10:05:08Z</time></trkpt><trkpt lat="44.09886730319823" lon="10.613657281864512"><ele>1235.3999999999999</ele><time>2026-04-04T10:05:09Z</time></trkpt><trkpt lat="44.098977941053015" lon="10.61366728295201"><ele>1236.0</ele><time>2026-04-04T10:05:10Z</time></trkpt><trkpt lat="44.09908332813628" lon="10.613673648119976"><ele>1236.3999999999999</ele><time>2026-04-04T10:05:11Z</time></trkpt><trkpt lat="44.09918015703993" lon="10.613660010260414"><ele>1236.8</ele><time>2026-04-04T10:05:12Z</time></trkpt><trkpt lat="44.09927039051272" lon="10.613683883760572"><ele>1237.1999999999998</ele><time>2026-04-04T10:05:13Z</time></trkpt><trkpt lat="44.09937200951401" lon="10.613693604569741"><ele>1237.6</ele><time>2026-04-04T10:05:14Z</time></trkpt><trkpt lat="44.09946475243915" lon="10.613693886188402"><ele>1238.0</ele><time>2026-04-04T10:05:15Z</time></trkpt><trkpt lat="44.09957337272944" lon="10.613703603424181"><ele>1238.0</ele><time>2026-04-04T10:05:16Z</time></trkpt><trkpt lat="44.099678422553914" lon="10.613708247316755"><ele>1238.0</ele><time>2026-04-04T10:05:17Z</time></trkpt><trkpt lat="44.099781629398436" lon="10.613706431530622"><ele>1238.0</ele><time>2026-04-04T10:05:18Z</time></trkpt><trkpt lat="44.09987988982061" lon="10.613725624848632"><ele>1238.0</ele><time>2026-04-04T10:05:19Z</time></trkpt><trkpt lat="44.09997756606328" lon="10.613767463535313"><ele>1238.0</ele><time>2026-04-04T10:05:20Z</time></trkpt><trkpt lat="44.10007003780321" lon="10.613816016316642"><ele>1237.4</ele><time>2026-04-04T10:05:21Z</time></trkpt><trkpt lat="44.10016750623263" lon="10.613862108984593"><ele>1236.8</ele><time>2026-04-04T10:05:22Z</time></trkpt><trkpt lat="44.10026517716922" lon="10.613894896539103"><ele>1236.2</ele><time>2026-04-04T10:05:23Z</time></trkpt><trkpt lat="44.10036416997324" lon="10.613919591209712"><ele>1235.6</ele><time>2026-04-04T10:05:24Z</time></trkpt><trkpt lat="44.10045809501099" lon="10.613935630670142"><ele>1235.0</ele><time>2026-04-04T10:05:25Z</time></trkpt><trkpt lat="44.100545852088324" lon="10.613952009926594"><ele>1235.0</ele><time>2026-04-04T10:05:26Z</time></trkpt><trkpt lat="44.100626614852715" lon="10.613966276678545"><ele>1235.0</ele><time>2026-04-04T10:05:27Z</time></trkpt><trkpt lat="44.100699770519185" lon="10.614001035932585"><ele>1235.0</ele><time>2026-04-04T10:05:28Z</time></trkpt><trkpt lat="44.10077290520487" lon="10.613998104993994"><ele>1235.0</ele><time>2026-04-04T10:05:29Z</time></trkpt><trkpt lat="44.10084414831347" lon="10.614014722976597"><ele>1235.0</ele><time>2026-04-04T10:05:30Z</time></trkpt><trkpt lat="44.100914055430195" lon="10.61402509519841"><ele>1235.0</ele><time>2026-04-04T10:05:31Z</time></trkpt><trkpt lat="44.10098988484874" lon="10.614015523388867"><ele>1235.5</ele><time>2026-04-04T10:05:32Z</time></trkpt><trkpt lat="44.10106751182383" lon="10.61400575308798"><ele>1236.0</ele><time>2026-04-04T10:05:33Z</time></trkpt><trkpt lat="44.10114637910005" lon="10.613983208853636"><ele>1236.5</ele><time>2026-04-04T10:05:34Z</time></trkpt><trkpt lat="44.101231015215525" lon="10.613943802527476"><ele>1237.0</ele><time>2026-04-04T10:05:35Z</time></trkpt><trkpt lat="44.10131442625735" lon="10.613911569649886"><ele>1237.5</ele><time>2026-04-04T10:05:36Z</time></trkpt><trkpt lat="44.10140596962872" lon="10.613877986483564"><ele>1238.0</ele><time>2026-04-04T10:05:37Z</time></trkpt><trkpt lat="44.10149179898926" lon="10.613842218755154"><ele>1238.0</ele><time>2026-04-04T10:05:38Z</time></trkpt><trkpt lat="44.10158765164982" lon="10.613807847129827"><ele>1238.0</ele><time>2026-04-04T10:05:39Z</time></trkpt><trkpt lat="44.101684072933644" lon="10.613764981567822"><ele>1238.0</ele><time>2026-04-04T10:05:40Z</time></trkpt><trkpt lat="44.101783314253446" lon="10.613711519601068"><ele>1238.0</ele><time>2026-04-04T10:05:41Z</time></trkpt><trkpt lat="44.10188384922956" lon="10.6136524536778"><ele>1238.0</ele><time>2026-04-04T10:05:42Z</time></trkpt><trkpt lat="44.101973511185044" lon="10.613597207073106"><ele>1234.6</ele><time>2026-04-04T10:05:43Z</time></trkpt><trkpt lat="44.1020601468109" lon="10.613541165463165"><ele>1231.1999999999998</ele><time>2026-04-04T10:05:44Z</time></trkpt><trkpt lat="44.1021424669023" lon="10.613497798921196"><ele>1227.8</ele><time>2026-04-04T10:05:45Z</time></trkpt><trkpt lat="44.102207323716755" lon="10.61344330092036"><ele>1224.3999999999999</ele><time>2026-04-04T10:05:46Z</time></trkpt><trkpt lat="44.102278669774456" lon="10.613401108886944"><ele>1221.0</ele><time>2026-04-04T10:05:47Z</time></trkpt><trkpt lat="44.10239461838344" lon="10.613326463055875"><ele>1226.2</ele><time>2026-04-04T10:05:49Z</time></trkpt><trkpt lat="44.10245624693516" lon="10.61329010725349"><ele>1231.3999999999999</ele><time>2026-04-04T10:05:50Z</time></trkpt><trkpt lat="44.10255962427235" lon="10.61322443107042"><ele>1236.6</ele><time>2026-04-04T10:05:52Z</time></trkpt><trkpt lat="44.10266160952964" lon="10.613153685103288"><ele>1241.8</ele><time>2026-04-04T10:05:54Z</time></trkpt><trkpt lat="44.10272147083323" lon="10.613107991316637"><ele>1247.0</ele><time>2026-04-04T10:05:55Z</time></trkpt><trkpt lat="44.1028165279849" lon="10.61298560298249"><ele>1247.0</ele><time>2026-04-04T10:05:57Z</time></trkpt><trkpt lat="44.10288192723555" lon="10.612860848802551"><ele>1247.0</ele><time>2026-04-04T10:05:59Z</time></trkpt><trkpt lat="44.10294724740154" lon="10.612719763347915"><ele>1247.0</ele><time>2026-04-04T10:06:01Z</time></trkpt><trkpt lat="44.103005081560326" lon="10.6125698123752"><ele>1247.0</ele><time>2026-04-04T10:06:03Z</time></trkpt><trkpt lat="44.103036295678315" lon="10.612493352463416"><ele>1247.0</ele><time>2026-04-04T10:06:04Z</time></trkpt><trkpt lat="44.10309458925699" lon="10.612364884293594"><ele>1243.6</ele><time>2026-04-04T10:06:06Z</time></trkpt><trkpt lat="44.103156890670434" lon="10.612275335476747"><ele>1240.2</ele><time>2026-04-04T10:06:08Z</time></trkpt><trkpt lat="44.103278408090446" lon="10.612227721507647"><ele>1236.8</ele><time>2026-04-04T10:06:10Z</time></trkpt><trkpt lat="44.10334730741919" lon="10.612214799118274"><ele>1233.4</ele><time>2026-04-04T10:06:11Z</time></trkpt><trkpt lat="44.10345133984166" lon="10.612153983853942"><ele>1230.0</ele><time>2026-04-04T10:06:13Z</time></trkpt><trkpt lat="44.10354565626319" lon="10.612094829617572"><ele>1234.6</ele><time>2026-04-04T10:06:15Z</time></trkpt><trkpt lat="44.10358757258921" lon="10.61194556542347"><ele>1239.2</ele><time>2026-04-04T10:06:17Z</time></trkpt><trkpt lat="44.103575011400366" lon="10.611777215503869"><ele>1243.8</ele><time>2026-04-04T10:06:19Z</time></trkpt><trkpt lat="44.103573638546074" lon="10.61168559318232"><ele>1248.4</ele><time>2026-04-04T10:06:20Z</time></trkpt><trkpt lat="44.10356366147541" lon="10.611519867605727"><ele>1253.0</ele><time>2026-04-04T10:06:22Z</time></trkpt><trkpt lat="44.103520472251056" lon="10.611374377978562"><ele>1253.0</ele><time>2026-04-04T10:06:24Z</time></trkpt><trkpt lat="44.103467618521925" lon="10.611265391827164"><ele>1253.0</ele><time>2026-04-04T10:08:15Z</time></trkpt><trkpt lat="44.10341910262661" lon="10.611156929441863"><ele>1253.0</ele><time>2026-04-04T10:08:17Z</time></trkpt><trkpt lat="44.10337416180281" lon="10.611010642299204"><ele>1253.0</ele><time>2026-04-04T10:08:19Z</time></trkpt><trkpt lat="44.10336104163047" lon="10.610905691355232"><ele>1253.0</ele><time>2026-04-04T10:08:20Z</time></trkpt><trkpt lat="44.10335778671635" lon="10.610794660067004"><ele>1253.0</ele><time>2026-04-04T10:08:21Z</time></trkpt><trkpt lat="44.10336190430245" lon="10.61069244191962"><ele>1253.0</ele><time>2026-04-04T10:08:22Z</time></trkpt><trkpt lat="44.10336964975533" lon="10.610599156057258"><ele>1253.0</ele><time>2026-04-04T10:08:23Z</time></trkpt><trkpt lat="44.10338114459623" lon="10.610499221101112"><ele>1253.0</ele><time>2026-04-04T10:08:24Z</time></trkpt><trkpt lat="44.10342942328145" lon="10.610368493001614"><ele>1253.0</ele><time>2026-04-04T10:08:26Z</time></trkpt><trkpt lat="44.10348410034426" lon="10.610321217382669"><ele>1253.0</ele><time>2026-04-04T10:08:27Z</time></trkpt><trkpt lat="44.10355478295106" lon="10.610293773370678"><ele>1253.0</ele><time>2026-04-04T10:08:28Z</time></trkpt><trkpt lat="44.10363336698606" lon="10.610289278974653"><ele>1253.0</ele><time>2026-04-04T10:08:29Z</time></trkpt><trkpt lat="44.10371569268197" lon="10.610278590499425"><ele>1253.0</ele><time>2026-04-04T10:08:30Z</time></trkpt><trkpt lat="44.10379685549494" lon="10.610263485390954"><ele>1253.0</ele><time>2026-04-04T10:08:31Z</time></trkpt><trkpt lat="44.10387021745625" lon="10.610243627152755"><ele>1253.0</ele><time>2026-04-04T10:08:32Z</time></trkpt><trkpt lat="44.10394810603561" lon="10.61023148676922"><ele>1253.0</ele><time>2026-04-04T10:08:33Z</time></trkpt><trkpt lat="44.10402884116887" lon="10.61021666699619"><ele>1255.1666666666667</ele><time>2026-04-04T10:08:34Z</time></trkpt><trkpt lat="44.104111043620286" lon="10.610208070272366"><ele>1257.3333333333335</ele><time>2026-04-04T10:08:35Z</time></trkpt><trkpt lat="44.10418935269223" lon="10.610201642991342"><ele>1259.5</ele><time>2026-04-04T10:08:36Z</time></trkpt><trkpt lat="44.104261795555324" lon="10.610204412682611"><ele>1261.6666666666667</ele><time>2026-04-04T10:08:37Z</time></trkpt><trkpt lat="44.104334381001244" lon="10.610183602820973"><ele>1263.8333333333333</ele><time>2026-04-04T10:08:38Z</time></trkpt><trkpt lat="44.10440343566244" lon="10.610180920088544"><ele>1266.0</ele><time>2026-04-04T10:08:39Z</time></trkpt><trkpt lat="44.104475709959154" lon="10.610157581878703"><ele>1266.0</ele><time>2026-04-04T10:08:40Z</time></trkpt><trkpt lat="44.10455443217979" lon="10.610145141064034"><ele>1266.0</ele><time>2026-04-04T10:08:41Z</time></trkpt><trkpt lat="44.10461716709038" lon="10.610116499777252"><ele>1266.0</ele><time>2026-04-04T10:08:42Z</time></trkpt><trkpt lat="44.104698455321994" lon="10.610072752156423"><ele>1266.0</ele><time>2026-04-04T10:08:44Z</time></trkpt><trkpt lat="44.104748558290396" lon="10.610205979030109"><ele>1266.0</ele><time>2026-04-04T10:08:46Z</time></trkpt><trkpt lat="44.1046836616298" lon="10.610338937577666"><ele>1269.1999999999998</ele><time>2026-04-04T10:08:48Z</time></trkpt><trkpt lat="44.10461157349179" lon="10.610411082351103"><ele>1272.3999999999999</ele><time>2026-04-04T10:08:49Z</time></trkpt><trkpt lat="44.104551503283375" lon="10.610492236912656"><ele>1275.6</ele><time>2026-04-04T10:08:50Z</time></trkpt><trkpt lat="44.104505921725696" lon="10.610593922248091"><ele>1278.8</ele><time>2026-04-04T10:08:51Z</time></trkpt><trkpt lat="44.10447730307859" lon="10.610692349720082"><ele>1282.0</ele><time>2026-04-04T10:08:52Z</time></trkpt><trkpt lat="44.10442507678356" lon="10.610850447006914"><ele>1282.0</ele><time>2026-04-04T10:08:54Z</time></trkpt><trkpt lat="44.10441543464509" lon="10.61094187780889"><ele>1282.0</ele><time>2026-04-04T10:08:55Z</time></trkpt><trkpt lat="44.104405417868776" lon="10.61103698601148"><ele>1282.0</ele><time>2026-04-04T10:08:56Z</time></trkpt><trkpt lat="44.10439157703477" lon="10.611126809124956"><ele>1282.0</ele><time>2026-04-04T10:08:57Z</time></trkpt><trkpt lat="44.10437251318344" lon="10.61126145292869"><ele>1282.0</ele><time>2026-04-04T10:08:59Z</time></trkpt><trkpt lat="44.10436366920005" lon="10.611351498125428"><ele>1282.0</ele><time>2026-04-04T10:09:00Z</time></trkpt><trkpt lat="44.10437175183995" lon="10.611438535492654"><ele>1282.0</ele><time>2026-04-04T10:09:01Z</time></trkpt><trkpt lat="44.104374673275316" lon="10.611584846736985"><ele>1282.1666666666665</ele><time>2026-04-04T10:09:03Z</time></trkpt><trkpt lat="44.10439786258587" lon="10.611680804333458"><ele>1282.3333333333333</ele><time>2026-04-04T10:09:04Z</time></trkpt><trkpt lat="44.10443528183999" lon="10.611770567329069"><ele>1282.5</ele><time>2026-04-04T10:09:05Z</time></trkpt><trkpt lat="44.104463134748705" lon="10.61184999032902"><ele>1282.6666666666667</ele><time>2026-04-04T10:09:06Z</time></trkpt><trkpt lat="44.10450230040561" lon="10.611947985347614"><ele>1282.8333333333335</ele><time>2026-04-04T10:09:07Z</time></trkpt><trkpt lat="44.10453755294674" lon="10.612034711519785"><ele>1283.0</ele><time>2026-04-04T10:09:08Z</time></trkpt><trkpt lat="44.10459830963629" lon="10.612168711126916"><ele>1284.4</ele><time>2026-04-04T10:09:10Z</time></trkpt><trkpt lat="44.104677790243386" lon="10.612293070144819"><ele>1285.8000000000002</ele><time>2026-04-04T10:09:12Z</time></trkpt><trkpt lat="44.10479286688719" lon="10.612369297593345"><ele>1287.2</ele><time>2026-04-04T10:09:14Z</time></trkpt><trkpt lat="44.10487189570963" lon="10.612397086846098"><ele>1288.6</ele><time>2026-04-04T10:09:15Z</time></trkpt><trkpt lat="44.10495650244666" lon="10.61242040751121"><ele>1290.0</ele><time>2026-04-04T10:09:16Z</time></trkpt><trkpt lat="44.105057947387266" lon="10.612436077456323"><ele>1291.4</ele><time>2026-04-04T10:09:18Z</time></trkpt><trkpt lat="44.10512480009711" lon="10.612367603723172"><ele>1292.8</ele><time>2026-04-04T10:09:20Z</time></trkpt><trkpt lat="44.1051313717146" lon="10.612226999828168"><ele>1294.1999999999998</ele><time>2026-04-04T10:09:22Z</time></trkpt><trkpt lat="44.105069260931415" lon="10.6120779367135"><ele>1295.6</ele><time>2026-04-04T10:09:24Z</time></trkpt><trkpt lat="44.105054885706735" lon="10.611988546105202"><ele>1297.0</ele><time>2026-04-04T10:09:25Z</time></trkpt><trkpt lat="44.10503501857673" lon="10.611866905108783"><ele>1297.0</ele><time>2026-04-04T10:09:26Z</time></trkpt><trkpt lat="44.10501978921416" lon="10.61175414278776"><ele>1297.0</ele><time>2026-04-04T10:09:27Z</time></trkpt><trkpt lat="44.10500088885653" lon="10.611636109128245"><ele>1297.0</ele><time>2026-04-04T10:09:28Z</time></trkpt><trkpt lat="44.10498574200793" lon="10.611538257895836"><ele>1297.0</ele><time>2026-04-04T10:09:29Z</time></trkpt><trkpt lat="44.10497112076612" lon="10.6114306114962"><ele>1297.0</ele><time>2026-04-04T10:09:30Z</time></trkpt><trkpt lat="44.10496325742714" lon="10.611343471192168"><ele>1297.0</ele><time>2026-04-04T10:09:31Z</time></trkpt><trkpt lat="44.10495380364251" lon="10.611254974171182"><ele>1297.0</ele><time>2026-04-04T10:09:32Z</time></trkpt><trkpt lat="44.10494259265945" lon="10.611086182403398"><ele>1297.0</ele><time>2026-04-04T10:09:34Z</time></trkpt><trkpt lat="44.1049737254929" lon="10.611000171066275"><ele>1297.0</ele><time>2026-04-04T10:09:35Z</time></trkpt><trkpt lat="44.105034276275966" lon="10.610908772957231"><ele>1297.0</ele><time>2026-04-04T10:09:36Z</time></trkpt><trkpt lat="44.10509171784866" lon="10.610854260641666"><ele>1297.0</ele><time>2026-04-04T10:09:37Z</time></trkpt><trkpt lat="44.10515376596523" lon="10.610803007588565"><ele>1297.0</ele><time>2026-04-04T10:09:38Z</time></trkpt><trkpt lat="44.10521845745626" lon="10.610761272293159"><ele>1297.0</ele><time>2026-04-04T10:09:39Z</time></trkpt><trkpt lat="44.10529851133088" lon="10.610723691118087"><ele>1297.0</ele><time>2026-04-04T10:09:40Z</time></trkpt><trkpt lat="44.105365802917994" lon="10.61068148531826"><ele>1297.0</ele><time>2026-04-04T10:09:41Z</time></trkpt><trkpt lat="44.105425703678065" lon="10.61062995286123"><ele>1297.0</ele><time>2026-04-04T10:09:42Z</time></trkpt><trkpt lat="44.10549322957812" lon="10.61057353851118"><ele>1297.0</ele><time>2026-04-04T10:09:43Z</time></trkpt><trkpt lat="44.10556759841502" lon="10.610529811112535"><ele>1297.0</ele><time>2026-04-04T10:09:44Z</time></trkpt><trkpt lat="44.105637547219814" lon="10.610475082352698"><ele>1297.0</ele><time>2026-04-04T10:09:45Z</time></trkpt><trkpt lat="44.10569357497681" lon="10.610412292759278"><ele>1301.5</ele><time>2026-04-04T10:09:46Z</time></trkpt><trkpt lat="44.10575343515869" lon="10.610339369808461"><ele>1306.0</ele><time>2026-04-04T10:09:47Z</time></trkpt><trkpt lat="44.10579253761678" lon="10.610251163007078"><ele>1310.5</ele><time>2026-04-04T10:09:48Z</time></trkpt><trkpt lat="44.105809700982576" lon="10.610094379686355"><ele>1315.0</ele><time>2026-04-04T10:09:50Z</time></trkpt><trkpt lat="44.10588840014452" lon="10.610037757690819"><ele>1319.5</ele><time>2026-04-04T10:09:52Z</time></trkpt><trkpt lat="44.1059495751098" lon="10.6101173530941"><ele>1324.0</ele><time>2026-04-04T10:09:54Z</time></trkpt><trkpt lat="44.10590227407874" lon="10.610246153622358"><ele>1325.6666666666665</ele><time>2026-04-04T10:09:56Z</time></trkpt><trkpt lat="44.10585915707061" lon="10.610361702541415"><ele>1327.3333333333333</ele><time>2026-04-04T10:09:57Z</time></trkpt><trkpt lat="44.10581310701258" lon="10.61045558372987"><ele>1329.0</ele><time>2026-04-04T10:09:58Z</time></trkpt><trkpt lat="44.10576608530938" lon="10.610538827926836"><ele>1330.6666666666667</ele><time>2026-04-04T10:09:59Z</time></trkpt><trkpt lat="44.10572669218735" lon="10.610612239358128"><ele>1332.3333333333335</ele><time>2026-04-04T10:10:00Z</time></trkpt><trkpt lat="44.10564747005172" lon="10.610725439463627"><ele>1334.0</ele><time>2026-04-04T10:10:02Z</time></trkpt><trkpt lat="44.105597471698175" lon="10.61078348807756"><ele>1329.4285714285716</ele><time>2026-04-04T10:10:03Z</time></trkpt><trkpt lat="44.10554556377267" lon="10.61084973851096"><ele>1324.857142857143</ele><time>2026-04-04T10:10:04Z</time></trkpt><trkpt lat="44.10550583628484" lon="10.610932615621227"><ele>1320.2857142857142</ele><time>2026-04-04T10:10:05Z</time></trkpt><trkpt lat="44.10546693716408" lon="10.611023947844622"><ele>1315.7142857142858</ele><time>2026-04-04T10:10:06Z</time></trkpt><trkpt lat="44.10543496008618" lon="10.611129323345672"><ele>1311.142857142857</ele><time>2026-04-04T10:10:07Z</time></trkpt><trkpt lat="44.10540589774464" lon="10.6112347418709"><ele>1306.5714285714287</ele><time>2026-04-04T10:10:08Z</time></trkpt><trkpt lat="44.10538472547267" lon="10.611319908057332"><ele>1302.0</ele><time>2026-04-04T10:10:09Z</time></trkpt><trkpt lat="44.10537212286352" lon="10.611413172470561"><ele>1302.0</ele><time>2026-04-04T10:10:10Z</time></trkpt><trkpt lat="44.105402293940244" lon="10.611576812685035"><ele>1302.0</ele><time>2026-04-04T10:10:12Z</time></trkpt><trkpt lat="44.10545061729375" lon="10.611650324026174"><ele>1302.0</ele><time>2026-04-04T10:10:13Z</time></trkpt><trkpt lat="44.10550505354785" lon="10.611735520569958"><ele>1302.0</ele><time>2026-04-04T10:10:14Z</time></trkpt><trkpt lat="44.10556761685433" lon="10.611822533055017"><ele>1302.0</ele><time>2026-04-04T10:10:15Z</time></trkpt><trkpt lat="44.105613024292126" lon="10.611890244296625"><ele>1302.0</ele><time>2026-04-04T10:10:16Z</time></trkpt><trkpt lat="44.10568948862856" lon="10.61200019204127"><ele>1301.2857142857142</ele><time>2026-04-04T10:10:18Z</time></trkpt><trkpt lat="44.10573751783854" lon="10.61206039860274"><ele>1300.5714285714284</ele><time>2026-04-04T10:10:19Z</time></trkpt><trkpt lat="44.10579517854962" lon="10.612112903990042"><ele>1299.857142857143</ele><time>2026-04-04T10:10:20Z</time></trkpt><trkpt lat="44.10585958587516" lon="10.612156532938906"><ele>1299.142857142857</ele><time>2026-04-04T10:10:21Z</time></trkpt><trkpt lat="44.105923880868595" lon="10.612205065167963"><ele>1298.4285714285713</ele><time>2026-04-04T10:10:22Z</time></trkpt><trkpt lat="44.10598272140379" lon="10.61224375720234"><ele>1297.7142857142858</ele><time>2026-04-04T10:10:23Z</time></trkpt><trkpt lat="44.10604535324565" lon="10.612289280271524"><ele>1297.0</ele><time>2026-04-04T10:10:24Z</time></trkpt><trkpt lat="44.10610728790028" lon="10.612316639295747"><ele>1300.6</ele><time>2026-04-04T10:10:25Z</time></trkpt><trkpt lat="44.106232706820435" lon="10.61235969624665"><ele>1304.1999999999998</ele><time>2026-04-04T10:10:27Z</time></trkpt><trkpt lat="44.10629828515382" lon="10.61238078765953"><ele>1307.8</ele><time>2026-04-04T10:10:28Z</time></trkpt><trkpt lat="44.10642702492191" lon="10.612434829145391"><ele>1311.4</ele><time>2026-04-04T10:10:30Z</time></trkpt><trkpt lat="44.10648876951244" lon="10.612462889728457"><ele>1315.0</ele><time>2026-04-04T10:10:31Z</time></trkpt><trkpt lat="44.106621716480326" lon="10.61251297471564"><ele>1319.0</ele><time>2026-04-04T10:10:33Z</time></trkpt><trkpt lat="44.106693830714505" lon="10.612537743178672"><ele>1323.0</ele><time>2026-04-04T10:10:34Z</time></trkpt><trkpt lat="44.10676018057354" lon="10.61255591922727"><ele>1327.0</ele><time>2026-04-04T10:10:35Z</time></trkpt><trkpt lat="44.10687225197805" lon="10.612591332885483"><ele>1331.0</ele><time>2026-04-04T10:10:37Z</time></trkpt><trkpt lat="44.1069785337252" lon="10.612619261344358"><ele>1335.0</ele><time>2026-04-04T10:10:39Z</time></trkpt><trkpt lat="44.10704100029742" lon="10.61263918074357"><ele>1339.0</ele><time>2026-04-04T10:10:40Z</time></trkpt><trkpt lat="44.10711380501137" lon="10.612667622820867"><ele>1339.0</ele><time>2026-04-04T10:10:41Z</time></trkpt><trkpt lat="44.10719298773875" lon="10.612730043161708"><ele>1339.0</ele><time>2026-04-04T10:10:43Z</time></trkpt><trkpt lat="44.10728872139294" lon="10.612789412082547"><ele>1339.0</ele><time>2026-04-04T10:10:45Z</time></trkpt><trkpt lat="44.10737242656246" lon="10.61282695051806"><ele>1339.0</ele><time>2026-04-04T10:10:46Z</time></trkpt><trkpt lat="44.10744874232495" lon="10.612870356416295"><ele>1339.0</ele><time>2026-04-04T10:10:47Z</time></trkpt><trkpt lat="44.107510562362584" lon="10.6129153338611"><ele>1339.0</ele><time>2026-04-04T10:10:48Z</time></trkpt><trkpt lat="44.10756799354347" lon="10.612971136483747"><ele>1338.3333333333333</ele><time>2026-04-04T10:10:49Z</time></trkpt><trkpt lat="44.107616605838835" lon="10.613043466267031"><ele>1337.6666666666665</ele><time>2026-04-04T10:10:50Z</time></trkpt><trkpt lat="44.10767550299041" lon="10.613127655159866"><ele>1337.0</ele><time>2026-04-04T10:10:51Z</time></trkpt><trkpt lat="44.107728781766525" lon="10.613199129020721"><ele>1336.3333333333333</ele><time>2026-04-04T10:10:52Z</time></trkpt><trkpt lat="44.107816456200155" lon="10.613321480702684"><ele>1335.6666666666667</ele><time>2026-04-04T10:10:54Z</time></trkpt><trkpt lat="44.107872823052524" lon="10.613364878774245"><ele>1335.0</ele><time>2026-04-04T10:10:55Z</time></trkpt><trkpt lat="44.107942368333" lon="10.613390415559387"><ele>1335.0</ele><time>2026-04-04T10:10:56Z</time></trkpt><trkpt lat="44.10801707205852" lon="10.613412748228253"><ele>1335.0</ele><time>2026-04-04T10:10:57Z</time></trkpt><trkpt lat="44.108092281369196" lon="10.613438751243326"><ele>1335.0</ele><time>2026-04-04T10:10:58Z</time></trkpt><trkpt lat="44.108161654136" lon="10.613454971787611"><ele>1335.0</ele><time>2026-04-04T10:10:59Z</time></trkpt><trkpt lat="44.10822851821822" lon="10.613468048818829"><ele>1335.0</ele><time>2026-04-04T10:11:00Z</time></trkpt><trkpt lat="44.10836532615221" lon="10.613474693517862"><ele>1335.0</ele><time>2026-04-04T10:11:02Z</time></trkpt><trkpt lat="44.10842822476999" lon="10.613468443955972"><ele>1338.6666666666667</ele><time>2026-04-04T10:11:03Z</time></trkpt><trkpt lat="44.10851602379827" lon="10.613474084730699"><ele>1342.3333333333333</ele><time>2026-04-04T10:11:04Z</time></trkpt><trkpt lat="44.1085958660087" lon="10.613477412500993"><ele>1346.0</ele><time>2026-04-04T10:11:05Z</time></trkpt><trkpt lat="44.10866763903518" lon="10.613461685996104"><ele>1349.6666666666665</ele><time>2026-04-04T10:11:06Z</time></trkpt><trkpt lat="44.108729832521654" lon="10.61344068396499"><ele>1353.3333333333333</ele><time>2026-04-04T10:11:07Z</time></trkpt><trkpt lat="44.108843502684316" lon="10.613391614219967"><ele>1357.0</ele><time>2026-04-04T10:11:09Z</time></trkpt><trkpt lat="44.108903363035125" lon="10.613359971504059"><ele>1357.0</ele><time>2026-04-04T10:11:10Z</time></trkpt><trkpt lat="44.108969033077585" lon="10.613321512964923"><ele>1357.0</ele><time>2026-04-04T10:11:11Z</time></trkpt><trkpt lat="44.109062488679314" lon="10.613253202299134"><ele>1357.0</ele><time>2026-04-04T10:11:13Z</time></trkpt><trkpt lat="44.109132900849666" lon="10.613231965562319"><ele>1357.0</ele><time>2026-04-04T10:11:14Z</time></trkpt><trkpt lat="44.109247636617546" lon="10.613224963159869"><ele>1357.0</ele><time>2026-04-04T10:11:16Z</time></trkpt><trkpt lat="44.10925277502339" lon="10.613084429350591"><ele>1357.0</ele><time>2026-04-04T10:11:19Z</time></trkpt><trkpt lat="44.10913509905906" lon="10.613047625916325"><ele>1357.0</ele><time>2026-04-04T10:11:21Z</time></trkpt><trkpt lat="44.109053916397436" lon="10.613091507611855"><ele>1357.0</ele><time>2026-04-04T10:11:22Z</time></trkpt><trkpt lat="44.10896609185588" lon="10.613122404780693"><ele>1357.0</ele><time>2026-04-04T10:11:23Z</time></trkpt><trkpt lat="44.10888441469898" lon="10.613152948639094"><ele>1357.0</ele><time>2026-04-04T10:11:24Z</time></trkpt><trkpt lat="44.10881825956178" lon="10.613173470219506"><ele>1357.0</ele><time>2026-04-04T10:11:25Z</time></trkpt><trkpt lat="44.108752857754006" lon="10.61318628785177"><ele>1357.0</ele><time>2026-04-04T10:11:26Z</time></trkpt><trkpt lat="44.10868722780505" lon="10.613221912029331"><ele>1357.0</ele><time>2026-04-04T10:11:27Z</time></trkpt><trkpt lat="44.10862421984065" lon="10.6132325967926"><ele>1357.0</ele><time>2026-04-04T10:11:28Z</time></trkpt><trkpt lat="44.10855629898956" lon="10.61321739125802"><ele>1357.0</ele><time>2026-04-04T10:11:29Z</time></trkpt><trkpt lat="44.10848747272678" lon="10.613210363563837"><ele>1357.0</ele><time>2026-04-04T10:11:30Z</time></trkpt><trkpt lat="44.108408230422064" lon="10.613191969580999"><ele>1357.0</ele><time>2026-04-04T10:11:31Z</time></trkpt><trkpt lat="44.108320231112224" lon="10.61318479729604"><ele>1352.6</ele><time>2026-04-04T10:11:32Z</time></trkpt><trkpt lat="44.108194270737656" lon="10.613132740111839"><ele>1348.1999999999998</ele><time>2026-04-04T10:11:34Z</time></trkpt><trkpt lat="44.10812649610119" lon="10.613084379576188"><ele>1343.8</ele><time>2026-04-04T10:11:35Z</time></trkpt><trkpt lat="44.108061717899176" lon="10.613012797969436"><ele>1339.4</ele><time>2026-04-04T10:11:36Z</time></trkpt><trkpt lat="44.108007125559816" lon="10.612940567355306"><ele>1335.0</ele><time>2026-04-04T10:11:37Z</time></trkpt><trkpt lat="44.10794879350674" lon="10.612851913141018"><ele>1341.6</ele><time>2026-04-04T10:11:38Z</time></trkpt><trkpt lat="44.10790012891894" lon="10.612768465494232"><ele>1348.2</ele><time>2026-04-04T10:11:39Z</time></trkpt><trkpt lat="44.10784930979719" lon="10.612682885160226"><ele>1354.8000000000002</ele><time>2026-04-04T10:11:40Z</time></trkpt><trkpt lat="44.10777253621976" lon="10.612532478954499"><ele>1361.4</ele><time>2026-04-04T10:11:42Z</time></trkpt><trkpt lat="44.10770970751297" lon="10.612397547010637"><ele>1368.0</ele><time>2026-04-04T10:11:44Z</time></trkpt><trkpt lat="44.107650104546" lon="10.612273605737998"><ele>1368.0</ele><time>2026-04-04T10:11:46Z</time></trkpt><trkpt lat="44.10759774844231" lon="10.612222496600454"><ele>1368.0</ele><time>2026-04-04T10:11:47Z</time></trkpt><trkpt lat="44.10750227065444" lon="10.612169000315356"><ele>1368.0</ele><time>2026-04-04T10:11:49Z</time></trkpt><trkpt lat="44.1074295563076" lon="10.612134280786334"><ele>1368.0</ele><time>2026-04-04T10:11:51Z</time></trkpt><trkpt lat="44.1073565309034" lon="10.612083786565707"><ele>1368.0</ele><time>2026-04-04T10:11:53Z</time></trkpt><trkpt lat="44.1073014670296" lon="10.612030738454273"><ele>1368.0</ele><time>2026-04-04T10:11:54Z</time></trkpt><trkpt lat="44.10722388712712" lon="10.611982717933982"><ele>1369.4</ele><time>2026-04-04T10:11:55Z</time></trkpt><trkpt lat="44.107135885368834" lon="10.611910353598734"><ele>1370.8000000000002</ele><time>2026-04-04T10:11:57Z</time></trkpt><trkpt lat="44.10706639588603" lon="10.611895546390235"><ele>1372.2</ele><time>2026-04-04T10:12:27Z</time></trkpt><trkpt lat="44.106935422457184" lon="10.611837003540327"><ele>1373.6</ele><time>2026-04-04T10:12:30Z</time></trkpt><trkpt lat="44.10685765730457" lon="10.61182605975372"><ele>1375.0</ele><time>2026-04-04T10:12:31Z</time></trkpt><trkpt lat="44.10678368570131" lon="10.611806651954511"><ele>1375.0</ele><time>2026-04-04T10:12:32Z</time></trkpt><trkpt lat="44.106714877584295" lon="10.611762665900423"><ele>1375.0</ele><time>2026-04-04T10:12:33Z</time></trkpt><trkpt lat="44.106652342138005" lon="10.611705612388905"><ele>1375.0</ele><time>2026-04-04T10:12:34Z</time></trkpt><trkpt lat="44.10658996275755" lon="10.611636674471548"><ele>1375.0</ele><time>2026-04-04T10:12:35Z</time></trkpt><trkpt lat="44.10653513032224" lon="10.611577157070517"><ele>1375.0</ele><time>2026-04-04T10:12:36Z</time></trkpt><trkpt lat="44.10649141955855" lon="10.611443453059321"><ele>1375.0</ele><time>2026-04-04T10:12:38Z</time></trkpt><trkpt lat="44.10650940586268" lon="10.611293159968477"><ele>1375.0</ele><time>2026-04-04T10:12:40Z</time></trkpt><trkpt lat="44.10657851171" lon="10.611166920443257"><ele>1375.0</ele><time>2026-04-04T10:12:42Z</time></trkpt><trkpt lat="44.106677479567125" lon="10.611041580661453"><ele>1375.0</ele><time>2026-04-04T10:12:44Z</time></trkpt><trkpt lat="44.10673509498153" lon="10.610974127489396"><ele>1375.0</ele><time>2026-04-04T10:12:45Z</time></trkpt><trkpt lat="44.10678731951001" lon="10.610914721107843"><ele>1375.0</ele><time>2026-04-04T10:12:46Z</time></trkpt><trkpt lat="44.10685147973109" lon="10.610805319640901"><ele>1374.4</ele><time>2026-04-04T10:12:48Z</time></trkpt><trkpt lat="44.106868660813234" lon="10.610673573742277"><ele>1373.8</ele><time>2026-04-04T10:12:50Z</time></trkpt><trkpt lat="44.106828442893864" lon="10.610505585639382"><ele>1373.1999999999998</ele><time>2026-04-04T10:12:52Z</time></trkpt><trkpt lat="44.106883127558675" lon="10.610316868431811"><ele>1372.6</ele><time>2026-04-04T10:12:54Z</time></trkpt><trkpt lat="44.10692737477712" lon="10.61024828546557"><ele>1372.0</ele><time>2026-04-04T10:12:55Z</time></trkpt><trkpt lat="44.10696325699958" lon="10.610173116150937"><ele>1372.0</ele><time>2026-04-04T10:12:56Z</time></trkpt><trkpt lat="44.10699754229042" lon="10.610082585054887"><ele>1372.0</ele><time>2026-04-04T10:12:57Z</time></trkpt><trkpt lat="44.10703105986974" lon="10.61000163592827"><ele>1372.0</ele><time>2026-04-04T10:12:58Z</time></trkpt><trkpt lat="44.10708644269305" lon="10.609859438883486"><ele>1372.0</ele><time>2026-04-04T10:13:00Z</time></trkpt><trkpt lat="44.10712407869233" lon="10.609784596189316"><ele>1372.0</ele><time>2026-04-04T10:13:01Z</time></trkpt><trkpt lat="44.107164019192865" lon="10.60963446323569"><ele>1372.0</ele><time>2026-04-04T10:13:03Z</time></trkpt><trkpt lat="44.10720616957527" lon="10.609558723657823"><ele>1368.0</ele><time>2026-04-04T10:13:04Z</time></trkpt><trkpt lat="44.107280958133046" lon="10.609424812027907"><ele>1364.0</ele><time>2026-04-04T10:13:06Z</time></trkpt><trkpt lat="44.107358905066256" lon="10.609293616680134"><ele>1360.0</ele><time>2026-04-04T10:13:08Z</time></trkpt><trkpt lat="44.10741734192816" lon="10.60919731379197"><ele>1356.0</ele><time>2026-04-04T10:13:10Z</time></trkpt><trkpt lat="44.107502888008035" lon="10.609097170904182"><ele>1352.0</ele><time>2026-04-04T10:13:12Z</time></trkpt><trkpt lat="44.10755653319777" lon="10.60904476588464"><ele>1360.0</ele><time>2026-04-04T10:13:13Z</time></trkpt><trkpt lat="44.107608421140235" lon="10.608986718028774"><ele>1368.0</ele><time>2026-04-04T10:13:14Z</time></trkpt><trkpt lat="44.10768261229721" lon="10.608849839896344"><ele>1376.0</ele><time>2026-04-04T10:13:16Z</time></trkpt><trkpt lat="44.10774337890884" lon="10.608692372222261"><ele>1384.0</ele><time>2026-04-04T10:13:18Z</time></trkpt><trkpt lat="44.10781686068545" lon="10.608563550793843"><ele>1392.0</ele><time>2026-04-04T10:13:20Z</time></trkpt><trkpt lat="44.10789817614069" lon="10.608434349977752"><ele>1392.0</ele><time>2026-04-04T10:13:22Z</time></trkpt><trkpt lat="44.10797433192051" lon="10.608287716818612"><ele>1392.0</ele><time>2026-04-04T10:13:24Z</time></trkpt><trkpt lat="44.1080118882552" lon="10.608212477324347"><ele>1392.0</ele><time>2026-04-04T10:13:25Z</time></trkpt><trkpt lat="44.10805708347289" lon="10.608076967408284"><ele>1392.0</ele><time>2026-04-04T10:13:27Z</time></trkpt><trkpt lat="44.1080351679241" lon="10.607947077057636"><ele>1392.0</ele><time>2026-04-04T10:13:29Z</time></trkpt><trkpt lat="44.10796712699506" lon="10.607842714638556"><ele>1392.0</ele><time>2026-04-04T10:13:31Z</time></trkpt><trkpt lat="44.10784212675503" lon="10.60780583048697"><ele>1392.0</ele><time>2026-04-04T10:13:33Z</time></trkpt><trkpt lat="44.10777675705171" lon="10.607813044955849"><ele>1392.0</ele><time>2026-04-04T10:13:34Z</time></trkpt><trkpt lat="44.10770363074813" lon="10.607857893678414"><ele>1392.0</ele><time>2026-04-04T10:13:35Z</time></trkpt><trkpt lat="44.10764977361677" lon="10.60793134760571"><ele>1392.0</ele><time>2026-04-04T10:13:36Z</time></trkpt><trkpt lat="44.10755193342862" lon="10.607934341455271"><ele>1392.0</ele><time>2026-04-04T10:13:38Z</time></trkpt><trkpt lat="44.1074576326947" lon="10.607816127207673"><ele>1395.6666666666667</ele><time>2026-04-04T10:13:40Z</time></trkpt><trkpt lat="44.10743466415073" lon="10.607715026598862"><ele>1399.3333333333333</ele><time>2026-04-04T10:13:41Z</time></trkpt><trkpt lat="44.10741985782568" lon="10.60759727509651"><ele>1403.0</ele><time>2026-04-04T10:13:42Z</time></trkpt><trkpt lat="44.107394714791205" lon="10.607490345467793"><ele>1406.6666666666665</ele><time>2026-04-04T10:13:43Z</time></trkpt><trkpt lat="44.10736878586083" lon="10.60739303844608"><ele>1410.3333333333333</ele><time>2026-04-04T10:13:44Z</time></trkpt><trkpt lat="44.10735130074948" lon="10.60728748681703"><ele>1414.0</ele><time>2026-04-04T10:13:45Z</time></trkpt><trkpt lat="44.10733671627608" lon="10.607195192130305"><ele>1408.2</ele><time>2026-04-04T10:13:46Z</time></trkpt><trkpt lat="44.1073091199434" lon="10.607088204489"><ele>1402.4</ele><time>2026-04-04T10:13:47Z</time></trkpt><trkpt lat="44.10727914521015" lon="10.60699653332083"><ele>1396.6</ele><time>2026-04-04T10:13:48Z</time></trkpt><trkpt lat="44.10725064073814" lon="10.60690121865154"><ele>1390.8</ele><time>2026-04-04T10:13:49Z</time></trkpt><trkpt lat="44.1072217176534" lon="10.606739816390991"><ele>1385.0</ele><time>2026-04-04T10:13:51Z</time></trkpt><trkpt lat="44.10721581986385" lon="10.60657392670766"><ele>1385.0</ele><time>2026-04-04T10:13:53Z</time></trkpt><trkpt lat="44.10721432289355" lon="10.606465401425144"><ele>1385.0</ele><time>2026-04-04T10:13:54Z</time></trkpt><trkpt lat="44.10722439639191" lon="10.606362196559102"><ele>1385.0</ele><time>2026-04-04T10:13:55Z</time></trkpt><trkpt lat="44.107253124600554" lon="10.60618580240225"><ele>1385.0</ele><time>2026-04-04T10:13:57Z</time></trkpt><trkpt lat="44.10727825721005" lon="10.606090503669206"><ele>1385.0</ele><time>2026-04-04T10:13:58Z</time></trkpt><trkpt lat="44.10729285324176" lon="10.606000916584428"><ele>1385.0</ele><time>2026-04-04T10:13:59Z</time></trkpt><trkpt lat="44.10730252585056" lon="10.605890047787836"><ele>1385.3333333333335</ele><time>2026-04-04T10:14:00Z</time></trkpt><trkpt lat="44.1073194704358" lon="10.60578879058645"><ele>1385.6666666666667</ele><time>2026-04-04T10:14:01Z</time></trkpt><trkpt lat="44.10732570754032" lon="10.605674830188956"><ele>1386.0</ele><time>2026-04-04T10:14:02Z</time></trkpt><trkpt lat="44.10733484592097" lon="10.605562070197948"><ele>1386.3333333333333</ele><time>2026-04-04T10:14:03Z</time></trkpt><trkpt lat="44.10735040304188" lon="10.605460081281631"><ele>1386.6666666666665</ele><time>2026-04-04T10:14:04Z</time></trkpt><trkpt lat="44.107374463057866" lon="10.605365628006979"><ele>1387.0</ele><time>2026-04-04T10:14:05Z</time></trkpt><trkpt lat="44.10740739130343" lon="10.605281618066707"><ele>1394.1999999999998</ele><time>2026-04-04T10:14:06Z</time></trkpt><trkpt lat="44.10748901141629" lon="10.60521016377322"><ele>1401.4</ele><time>2026-04-04T10:14:08Z</time></trkpt><trkpt lat="44.10754396385742" lon="10.605116654628823"><ele>1408.6</ele><time>2026-04-04T10:14:09Z</time></trkpt><trkpt lat="44.10760784863873" lon="10.605007646435247"><ele>1415.8000000000002</ele><time>2026-04-04T10:14:10Z</time></trkpt><trkpt lat="44.10765902747033" lon="10.60489514819485"><ele>1423.0</ele><time>2026-04-04T10:14:11Z</time></trkpt><trkpt lat="44.10770029962019" lon="10.604777324043974"><ele>1423.0</ele><time>2026-04-04T10:14:12Z</time></trkpt><trkpt lat="44.107733036217965" lon="10.604690454447484"><ele>1423.0</ele><time>2026-04-04T10:14:13Z</time></trkpt><trkpt lat="44.10777845681691" lon="10.604589496834175"><ele>1423.0</ele><time>2026-04-04T10:14:14Z</time></trkpt><trkpt lat="44.10782915827149" lon="10.604514778017206"><ele>1423.0</ele><time>2026-04-04T10:14:15Z</time></trkpt><trkpt lat="44.10786698821653" lon="10.60441580395301"><ele>1423.0</ele><time>2026-04-04T10:14:16Z</time></trkpt><trkpt lat="44.10789792103095" lon="10.604330040841035"><ele>1423.0</ele><time>2026-04-04T10:14:17Z</time></trkpt><trkpt lat="44.10793854499466" lon="10.604248981427144"><ele>1419.6000000000001</ele><time>2026-04-04T10:14:18Z</time></trkpt><trkpt lat="44.108027476055575" lon="10.604109606599911"><ele>1416.2</ele><time>2026-04-04T10:14:20Z</time></trkpt><trkpt lat="44.108109107615604" lon="10.60403445225689"><ele>1412.8</ele><time>2026-04-04T10:14:22Z</time></trkpt><trkpt lat="44.108224149512466" lon="10.603950196478776"><ele>1409.4</ele><time>2026-04-04T10:14:24Z</time></trkpt><trkpt lat="44.108289577762996" lon="10.603909373750085"><ele>1406.0</ele><time>2026-04-04T10:14:25Z</time></trkpt><trkpt lat="44.10834226917075" lon="10.60383946088233"><ele>1409.0</ele><time>2026-04-04T10:14:26Z</time></trkpt><trkpt lat="44.10838935587142" lon="10.603763301418518"><ele>1412.0</ele><time>2026-04-04T10:14:27Z</time></trkpt><trkpt lat="44.10849687835191" lon="10.603652742517044"><ele>1415.0</ele><time>2026-04-04T10:14:29Z</time></trkpt><trkpt lat="44.10851929363104" lon="10.603532585301634"><ele>1418.0</ele><time>2026-04-04T10:14:31Z</time></trkpt><trkpt lat="44.10860315494085" lon="10.603555051974897"><ele>1421.0</ele><time>2026-04-04T10:14:34Z</time></trkpt><trkpt lat="44.10861738196804" lon="10.603643048610259"><ele>1424.0</ele><time>2026-04-04T10:14:36Z</time></trkpt><trkpt lat="44.10859560913133" lon="10.603744486592364"><ele>1427.6</ele><time>2026-04-04T10:14:38Z</time></trkpt><trkpt lat="44.10849379874403" lon="10.603856570593836"><ele>1431.2</ele><time>2026-04-04T10:14:40Z</time></trkpt><trkpt lat="44.10844099536692" lon="10.60391586288912"><ele>1434.8</ele><time>2026-04-04T10:14:41Z</time></trkpt><trkpt lat="44.10838227246373" lon="10.604010687774977"><ele>1438.3999999999999</ele><time>2026-04-04T10:14:42Z</time></trkpt><trkpt lat="44.10833426254539" lon="10.60408682505547"><ele>1442.0</ele><time>2026-04-04T10:14:43Z</time></trkpt><trkpt lat="44.108276097642914" lon="10.604182733429827"><ele>1438.8333333333335</ele><time>2026-04-04T10:14:44Z</time></trkpt><trkpt lat="44.10821668834986" lon="10.604253529951416"><ele>1435.6666666666667</ele><time>2026-04-04T10:14:45Z</time></trkpt><trkpt lat="44.10816164619369" lon="10.604335067702783"><ele>1432.5</ele><time>2026-04-04T10:14:46Z</time></trkpt><trkpt lat="44.108129854624686" lon="10.604433402307688"><ele>1429.3333333333333</ele><time>2026-04-04T10:14:47Z</time></trkpt><trkpt lat="44.10809082218009" lon="10.604532623918656"><ele>1426.1666666666665</ele><time>2026-04-04T10:14:48Z</time></trkpt><trkpt lat="44.10807081364665" lon="10.604647879497778"><ele>1423.0</ele><time>2026-04-04T10:14:49Z</time></trkpt><trkpt lat="44.108039024185906" lon="10.604764917137985"><ele>1423.0</ele><time>2026-04-04T10:14:50Z</time></trkpt><trkpt lat="44.10800971814763" lon="10.604880787930211"><ele>1423.0</ele><time>2026-04-04T10:14:51Z</time></trkpt><trkpt lat="44.107986756187145" lon="10.605004272686452"><ele>1423.0</ele><time>2026-04-04T10:14:52Z</time></trkpt><trkpt lat="44.10797130775859" lon="10.605125832952291"><ele>1423.0</ele><time>2026-04-04T10:14:53Z</time></trkpt><trkpt lat="44.107954910880956" lon="10.605221885355075"><ele>1423.0</ele><time>2026-04-04T10:14:54Z</time></trkpt><trkpt lat="44.10793230379335" lon="10.605314646294843"><ele>1423.0</ele><time>2026-04-04T10:14:55Z</time></trkpt><trkpt lat="44.107910040347086" lon="10.60541248848359"><ele>1424.4</ele><time>2026-04-04T10:14:56Z</time></trkpt><trkpt lat="44.10791095849696" lon="10.605525796848726"><ele>1425.8000000000002</ele><time>2026-04-04T10:14:57Z</time></trkpt><trkpt lat="44.10789901951325" lon="10.605632427558374"><ele>1427.2</ele><time>2026-04-04T10:14:58Z</time></trkpt><trkpt lat="44.107861587956286" lon="10.605797842304042"><ele>1428.6</ele><time>2026-04-04T10:15:00Z</time></trkpt><trkpt lat="44.10788606249702" lon="10.605903311741534"><ele>1430.0</ele><time>2026-04-04T10:15:03Z</time></trkpt><trkpt lat="44.107973304879124" lon="10.605857676642222"><ele>1430.0</ele><time>2026-04-04T10:15:05Z</time></trkpt><trkpt lat="44.10798709461333" lon="10.605742896574123"><ele>1430.0</ele><time>2026-04-04T10:15:06Z</time></trkpt><trkpt lat="44.10800850979348" lon="10.605620432200357"><ele>1430.0</ele><time>2026-04-04T10:15:07Z</time></trkpt><trkpt lat="44.1080257503919" lon="10.605478123095356"><ele>1430.0</ele><time>2026-04-04T10:15:08Z</time></trkpt><trkpt lat="44.108060878119936" lon="10.605378450807152"><ele>1430.0</ele><time>2026-04-04T10:15:09Z</time></trkpt><trkpt lat="44.10809030351857" lon="10.605276757216279"><ele>1430.0</ele><time>2026-04-04T10:15:10Z</time></trkpt><trkpt lat="44.108113347016385" lon="10.60519008438126"><ele>1429.0</ele><time>2026-04-04T10:15:11Z</time></trkpt><trkpt lat="44.108141352114544" lon="10.605094450865543"><ele>1428.0</ele><time>2026-04-04T10:15:12Z</time></trkpt><trkpt lat="44.10816804061822" lon="10.605001979584024"><ele>1427.0</ele><time>2026-04-04T10:15:13Z</time></trkpt><trkpt lat="44.10821633660056" lon="10.604912228438417"><ele>1426.0</ele><time>2026-04-04T10:15:14Z</time></trkpt><trkpt lat="44.10824334226557" lon="10.604825928399803"><ele>1425.0</ele><time>2026-04-04T10:15:15Z</time></trkpt><trkpt lat="44.108273808809464" lon="10.604738714959597"><ele>1424.0</ele><time>2026-04-04T10:15:16Z</time></trkpt><trkpt lat="44.1083340454227" lon="10.604656975319061"><ele>1423.0</ele><time>2026-04-04T10:15:17Z</time></trkpt><trkpt lat="44.10841097147821" lon="10.604579340715615"><ele>1426.1666666666665</ele><time>2026-04-04T10:15:18Z</time></trkpt><trkpt lat="44.108493134349054" lon="10.604515541359866"><ele>1429.3333333333333</ele><time>2026-04-04T10:15:19Z</time></trkpt><trkpt lat="44.10856448004944" lon="10.60444733208593"><ele>1432.5</ele><time>2026-04-04T10:15:20Z</time></trkpt><trkpt lat="44.10861273472057" lon="10.604351012215451"><ele>1435.6666666666667</ele><time>2026-04-04T10:15:21Z</time></trkpt><trkpt lat="44.10866491666629" lon="10.604283806470315"><ele>1438.8333333333335</ele><time>2026-04-04T10:15:22Z</time></trkpt><trkpt lat="44.108716786689044" lon="10.604182803014412"><ele>1442.0</ele><time>2026-04-04T10:15:23Z</time></trkpt><trkpt lat="44.10877149142569" lon="10.604115740672688"><ele>1442.0</ele><time>2026-04-04T10:15:24Z</time></trkpt><trkpt lat="44.10881217383807" lon="10.604023263464269"><ele>1442.0</ele><time>2026-04-04T10:15:25Z</time></trkpt><trkpt lat="44.10886846339386" lon="10.603915433174366"><ele>1442.0</ele><time>2026-04-04T10:15:26Z</time></trkpt><trkpt lat="44.108896225530586" lon="10.603831200166807"><ele>1442.0</ele><time>2026-04-04T10:15:27Z</time></trkpt><trkpt lat="44.10892854568413" lon="10.603722203430298"><ele>1442.0</ele><time>2026-04-04T10:15:28Z</time></trkpt><trkpt lat="44.10896284414779" lon="10.603648323045974"><ele>1442.0</ele><time>2026-04-04T10:15:29Z</time></trkpt><trkpt lat="44.10901714153034" lon="10.603510612469842"><ele>1438.3999999999999</ele><time>2026-04-04T10:15:31Z</time></trkpt><trkpt lat="44.1090629603967" lon="10.603431555055877"><ele>1434.8</ele><time>2026-04-04T10:15:32Z</time></trkpt><trkpt lat="44.10911368500928" lon="10.603378955475765"><ele>1431.2</ele><time>2026-04-04T10:15:33Z</time></trkpt><trkpt lat="44.10922572510584" lon="10.60330693153965"><ele>1427.6</ele><time>2026-04-04T10:15:35Z</time></trkpt><trkpt lat="44.10934056160398" lon="10.603236465035186"><ele>1424.0</ele><time>2026-04-04T10:15:37Z</time></trkpt><trkpt lat="44.10940228706748" lon="10.603177785544512"><ele>1431.6</ele><time>2026-04-04T10:15:38Z</time></trkpt><trkpt lat="44.109459439200556" lon="10.603120062782647"><ele>1439.2</ele><time>2026-04-04T10:15:39Z</time></trkpt><trkpt lat="44.10955024112265" lon="10.602982247567933"><ele>1446.8</ele><time>2026-04-04T10:15:41Z</time></trkpt><trkpt lat="44.109610135569866" lon="10.602854208810907"><ele>1454.3999999999999</ele><time>2026-04-04T10:15:43Z</time></trkpt><trkpt lat="44.10968616089001" lon="10.602875037865337"><ele>1462.0</ele><time>2026-04-04T10:15:46Z</time></trkpt><trkpt lat="44.109699113434715" lon="10.602970079855636"><ele>1462.0</ele><time>2026-04-04T10:15:48Z</time></trkpt><trkpt lat="44.109657626558956" lon="10.60307430461058"><ele>1462.0</ele><time>2026-04-04T10:15:50Z</time></trkpt><trkpt lat="44.10958607408687" lon="10.603146310820012"><ele>1462.0</ele><time>2026-04-04T10:15:52Z</time></trkpt><trkpt lat="44.10952320401071" lon="10.603222376829983"><ele>1462.0</ele><time>2026-04-04T10:15:54Z</time></trkpt><trkpt lat="44.10948454368692" lon="10.60332724587186"><ele>1462.0</ele><time>2026-04-04T10:16:17Z</time></trkpt><trkpt lat="44.10943346188927" lon="10.603416058728794"><ele>1462.0</ele><time>2026-04-04T10:16:19Z</time></trkpt><trkpt lat="44.10937907771586" lon="10.603532037316322"><ele>1462.0</ele><time>2026-04-04T10:16:21Z</time></trkpt><trkpt lat="44.109294794517986" lon="10.603643474126773"><ele>1462.0</ele><time>2026-04-04T10:16:23Z</time></trkpt><trkpt lat="44.109220966103926" lon="10.603763856598526"><ele>1462.0</ele><time>2026-04-04T10:16:25Z</time></trkpt><trkpt lat="44.10919365299629" lon="10.603881139966218"><ele>1462.0</ele><time>2026-04-04T10:16:27Z</time></trkpt><trkpt lat="44.10919215793961" lon="10.604018396874574"><ele>1462.0</ele><time>2026-04-04T10:16:29Z</time></trkpt><trkpt lat="44.10922072577831" lon="10.60418145370322"><ele>1464.6666666666665</ele><time>2026-04-04T10:16:31Z</time></trkpt><trkpt lat="44.10924260259494" lon="10.604313713787537"><ele>1467.3333333333333</ele><time>2026-04-04T10:16:33Z</time></trkpt><trkpt lat="44.109234451783614" lon="10.604452606286337"><ele>1470.0</ele><time>2026-04-04T10:16:35Z</time></trkpt><trkpt lat="44.109207244874824" lon="10.604544902667245"><ele>1472.6666666666667</ele><time>2026-04-04T10:16:36Z</time></trkpt><trkpt lat="44.10917630276088" lon="10.604640570381811"><ele>1475.3333333333335</ele><time>2026-04-04T10:16:37Z</time></trkpt><trkpt lat="44.10914159593497" lon="10.60473458454204"><ele>1478.0</ele><time>2026-04-04T10:16:38Z</time></trkpt><trkpt lat="44.10910302737029" lon="10.604811402821856"><ele>1479.5</ele><time>2026-04-04T10:16:39Z</time></trkpt><trkpt lat="44.109078951304845" lon="10.60489283354757"><ele>1481.0</ele><time>2026-04-04T10:16:40Z</time></trkpt><trkpt lat="44.10904907903901" lon="10.604977637513112"><ele>1482.5</ele><time>2026-04-04T10:16:41Z</time></trkpt><trkpt lat="44.10899320719929" lon="10.605165136304043"><ele>1484.0</ele><time>2026-04-04T10:16:43Z</time></trkpt><trkpt lat="44.1089857539889" lon="10.605269191722698"><ele>1485.5</ele><time>2026-04-04T10:16:44Z</time></trkpt><trkpt lat="44.108972205297725" lon="10.60538648717865"><ele>1487.0</ele><time>2026-04-04T10:16:45Z</time></trkpt><trkpt lat="44.10895684485314" lon="10.605482876297378"><ele>1487.8333333333335</ele><time>2026-04-04T10:16:46Z</time></trkpt><trkpt lat="44.10897140794772" lon="10.605586618805981"><ele>1488.6666666666667</ele><time>2026-04-04T10:16:47Z</time></trkpt><trkpt lat="44.10900680695231" lon="10.605671528570507"><ele>1489.5</ele><time>2026-04-04T10:16:48Z</time></trkpt><trkpt lat="44.109052374761255" lon="10.605757024685595"><ele>1490.3333333333333</ele><time>2026-04-04T10:16:49Z</time></trkpt><trkpt lat="44.10909056566795" lon="10.605837658883036"><ele>1491.1666666666665</ele><time>2026-04-04T10:16:50Z</time></trkpt><trkpt lat="44.10915237460559" lon="10.605993731632797"><ele>1492.0</ele><time>2026-04-04T10:16:52Z</time></trkpt><trkpt lat="44.10918383204551" lon="10.606091100503354"><ele>1490.8333333333333</ele><time>2026-04-04T10:16:53Z</time></trkpt><trkpt lat="44.10921472143645" lon="10.606190866464386"><ele>1489.6666666666665</ele><time>2026-04-04T10:16:54Z</time></trkpt><trkpt lat="44.10924710000829" lon="10.606290108967327"><ele>1488.5</ele><time>2026-04-04T10:16:55Z</time></trkpt><trkpt lat="44.109274925951475" lon="10.60640803452479"><ele>1487.3333333333333</ele><time>2026-04-04T10:16:56Z</time></trkpt><trkpt lat="44.10929723457408" lon="10.606498153340363"><ele>1486.1666666666667</ele><time>2026-04-04T10:16:57Z</time></trkpt><trkpt lat="44.10928967349086" lon="10.606648524992961"><ele>1485.0</ele><time>2026-04-04T10:16:59Z</time></trkpt><trkpt lat="44.10937254421185" lon="10.606626470144159"><ele>1485.0</ele><time>2026-04-04T10:17:02Z</time></trkpt><trkpt lat="44.10937321716603" lon="10.606434445936731"><ele>1485.0</ele><time>2026-04-04T10:17:04Z</time></trkpt><trkpt lat="44.10935157984193" lon="10.606321004817659"><ele>1485.0</ele><time>2026-04-04T10:17:05Z</time></trkpt><trkpt lat="44.109321608512765" lon="10.606209347145638"><ele>1485.0</ele><time>2026-04-04T10:17:06Z</time></trkpt><trkpt lat="44.109314072630006" lon="10.606109095446364"><ele>1485.0</ele><time>2026-04-04T10:17:07Z</time></trkpt><trkpt lat="44.109306527009245" lon="10.605993793807908"><ele>1485.2857142857142</ele><time>2026-04-04T10:17:08Z</time></trkpt><trkpt lat="44.10930533283111" lon="10.60590002545893"><ele>1485.5714285714287</ele><time>2026-04-04T10:17:09Z</time></trkpt><trkpt lat="44.10929262594824" lon="10.605804471885232"><ele>1485.8571428571427</ele><time>2026-04-04T10:17:10Z</time></trkpt><trkpt lat="44.109280700842525" lon="10.605715048522562"><ele>1486.142857142857</ele><time>2026-04-04T10:17:11Z</time></trkpt><trkpt lat="44.109269770634526" lon="10.605606554491535"><ele>1486.4285714285713</ele><time>2026-04-04T10:17:12Z</time></trkpt><trkpt lat="44.109276243945644" lon="10.605494923026573"><ele>1486.7142857142856</ele><time>2026-04-04T10:17:13Z</time></trkpt><trkpt lat="44.10930761177058" lon="10.60539237783282"><ele>1487.0</ele><time>2026-04-04T10:17:14Z</time></trkpt><trkpt lat="44.10933656897217" lon="10.605281532017909"><ele>1486.9999999999998</ele><time>2026-04-04T10:17:15Z</time></trkpt><trkpt lat="44.109368388073996" lon="10.605172540028688"><ele>1487.0</ele><time>2026-04-04T10:17:16Z</time></trkpt><trkpt lat="44.109391574306485" lon="10.605075412271534"><ele>1487.0</ele><time>2026-04-04T10:17:17Z</time></trkpt><trkpt lat="44.10941622175935" lon="10.60498482231161"><ele>1487.0</ele><time>2026-04-04T10:17:18Z</time></trkpt><trkpt lat="44.10943859616597" lon="10.604882524965243"><ele>1487.0</ele><time>2026-04-04T10:17:19Z</time></trkpt><trkpt lat="44.10947564389942" lon="10.604797104433288"><ele>1486.9999999999998</ele><time>2026-04-04T10:17:20Z</time></trkpt><trkpt lat="44.10952069686751" lon="10.604723905559043"><ele>1487.0</ele><time>2026-04-04T10:17:21Z</time></trkpt><trkpt lat="44.109550469469866" lon="10.604635004485088"><ele>1487.0</ele><time>2026-04-04T10:17:22Z</time></trkpt><trkpt lat="44.10957837968294" lon="10.604555620480479"><ele>1487.0</ele><time>2026-04-04T10:17:23Z</time></trkpt><trkpt lat="44.10963314600752" lon="10.604502301731994"><ele>1487.0</ele><time>2026-04-04T10:17:24Z</time></trkpt><trkpt lat="44.10966863164272" lon="10.604422888925257"><ele>1487.0</ele><time>2026-04-04T10:17:25Z</time></trkpt><trkpt lat="44.109737684765314" lon="10.604302903169476"><ele>1487.0</ele><time>2026-04-04T10:17:27Z</time></trkpt><trkpt lat="44.10981330356458" lon="10.604221288734589"><ele>1487.0</ele><time>2026-04-04T10:17:28Z</time></trkpt><trkpt lat="44.10990854023415" lon="10.604151014266934"><ele>1488.8</ele><time>2026-04-04T10:17:29Z</time></trkpt><trkpt lat="44.10998521158841" lon="10.604068243919425"><ele>1490.6</ele><time>2026-04-04T10:17:30Z</time></trkpt><trkpt lat="44.110093239627744" lon="10.60396648802284"><ele>1492.3999999999999</ele><time>2026-04-04T10:17:32Z</time></trkpt><trkpt lat="44.110141308055475" lon="10.603899189341787"><ele>1494.1999999999998</ele><time>2026-04-04T10:17:33Z</time></trkpt><trkpt lat="44.11023594497216" lon="10.603742692724476"><ele>1496.0</ele><time>2026-04-04T10:17:35Z</time></trkpt><trkpt lat="44.11028414815473" lon="10.603649266773546"><ele>1496.0</ele><time>2026-04-04T10:17:36Z</time></trkpt><trkpt lat="44.11031934698541" lon="10.603569810949462"><ele>1496.0</ele><time>2026-04-04T10:17:37Z</time></trkpt><trkpt lat="44.11035028377264" lon="10.603471660881185"><ele>1496.0</ele><time>2026-04-04T10:17:38Z</time></trkpt><trkpt lat="44.110398905753236" lon="10.603300614642901"><ele>1496.0</ele><time>2026-04-04T10:17:40Z</time></trkpt><trkpt lat="44.11043476947893" lon="10.603178054577654"><ele>1496.0</ele><time>2026-04-04T10:17:42Z</time></trkpt><trkpt lat="44.110465579663625" lon="10.603085961335537"><ele>1496.0</ele><time>2026-04-04T10:17:45Z</time></trkpt><trkpt lat="44.110512533294866" lon="10.603000291766602"><ele>1496.0</ele><time>2026-04-04T10:17:47Z</time></trkpt><trkpt lat="44.11056155387888" lon="10.602856939673176"><ele>1496.0</ele><time>2026-04-04T10:17:49Z</time></trkpt><trkpt lat="44.11057588062804" lon="10.60276058268819"><ele>1496.0</ele><time>2026-04-04T10:17:50Z</time></trkpt><trkpt lat="44.110574066084574" lon="10.602668661948053"><ele>1496.0</ele><time>2026-04-04T10:17:51Z</time></trkpt><trkpt lat="44.110529432730104" lon="10.60252572753439"><ele>1496.0</ele><time>2026-04-04T10:17:53Z</time></trkpt><trkpt lat="44.1104935503096" lon="10.602385005449285"><ele>1493.4</ele><time>2026-04-04T10:17:55Z</time></trkpt><trkpt lat="44.11047038676133" lon="10.602254072890663"><ele>1490.8</ele><time>2026-04-04T10:17:57Z</time></trkpt><trkpt lat="44.110525012306816" lon="10.602160222638627"><ele>1488.2</ele><time>2026-04-04T10:18:00Z</time></trkpt><trkpt lat="44.11058887258862" lon="10.602221908961276"><ele>1485.6000000000001</ele><time>2026-04-04T10:18:02Z</time></trkpt><trkpt lat="44.110582999335186" lon="10.602338564091028"><ele>1483.0</ele><time>2026-04-04T10:18:04Z</time></trkpt><trkpt lat="44.11060788765108" lon="10.602508544493064"><ele>1483.0</ele><time>2026-04-04T10:18:06Z</time></trkpt><trkpt lat="44.11063970474892" lon="10.602589731391847"><ele>1483.0</ele><time>2026-04-04T10:18:07Z</time></trkpt><trkpt lat="44.11068512950653" lon="10.60271037854831"><ele>1483.0</ele><time>2026-04-04T10:18:09Z</time></trkpt><trkpt lat="44.11068947160428" lon="10.602863004097099"><ele>1483.0</ele><time>2026-04-04T10:18:11Z</time></trkpt><trkpt lat="44.11065589450723" lon="10.602954407594074"><ele>1483.0</ele><time>2026-04-04T10:18:12Z</time></trkpt><trkpt lat="44.110623576831685" lon="10.603052388391093"><ele>1483.0</ele><time>2026-04-04T10:18:13Z</time></trkpt><trkpt lat="44.110601267367635" lon="10.603151875238876"><ele>1485.6000000000001</ele><time>2026-04-04T10:18:14Z</time></trkpt><trkpt lat="44.110581492896806" lon="10.603239551803759"><ele>1488.2</ele><time>2026-04-04T10:18:15Z</time></trkpt><trkpt lat="44.11054909653363" lon="10.603333715471814"><ele>1490.8</ele><time>2026-04-04T10:18:16Z</time></trkpt><trkpt lat="44.110532904895216" lon="10.603443054189112"><ele>1493.4</ele><time>2026-04-04T10:18:17Z</time></trkpt><trkpt lat="44.110520228660846" lon="10.603629715437194"><ele>1496.0</ele><time>2026-04-04T10:18:19Z</time></trkpt><trkpt lat="44.1105017707634" lon="10.603813094729457"><ele>1500.0</ele><time>2026-04-04T10:18:21Z</time></trkpt><trkpt lat="44.110476526836806" lon="10.603900490535333"><ele>1504.0</ele><time>2026-04-04T10:18:22Z</time></trkpt><trkpt lat="44.11041444279265" lon="10.604072725106812"><ele>1508.0</ele><time>2026-04-04T10:18:24Z</time></trkpt><trkpt lat="44.110355831514326" lon="10.604236446831093"><ele>1512.0</ele><time>2026-04-04T10:18:26Z</time></trkpt><trkpt lat="44.11031763372708" lon="10.604316210453877"><ele>1516.0</ele><time>2026-04-04T10:18:27Z</time></trkpt><trkpt lat="44.11027267391226" lon="10.60439580929832"><ele>1516.0</ele><time>2026-04-04T10:18:28Z</time></trkpt><trkpt lat="44.11022810363766" lon="10.604468411358608"><ele>1516.0</ele><time>2026-04-04T10:18:29Z</time></trkpt><trkpt lat="44.11019330290396" lon="10.604548422756247"><ele>1516.0</ele><time>2026-04-04T10:18:30Z</time></trkpt><trkpt lat="44.11015942396353" lon="10.604640104836808"><ele>1516.0</ele><time>2026-04-04T10:18:31Z</time></trkpt><trkpt lat="44.110138167603004" lon="10.604728505235936"><ele>1516.0</ele><time>2026-04-04T10:18:32Z</time></trkpt><trkpt lat="44.11011038686259" lon="10.604871551764724"><ele>1516.0</ele><time>2026-04-04T10:18:34Z</time></trkpt><trkpt lat="44.11010183404778" lon="10.604977209124096"><ele>1519.1999999999998</ele><time>2026-04-04T10:18:35Z</time></trkpt><trkpt lat="44.11009076552205" lon="10.605080838632237"><ele>1522.3999999999999</ele><time>2026-04-04T10:18:36Z</time></trkpt><trkpt lat="44.11009889142599" lon="10.605185851809171"><ele>1525.6</ele><time>2026-04-04T10:18:37Z</time></trkpt><trkpt lat="44.11011531949789" lon="10.605291256556288"><ele>1528.8</ele><time>2026-04-04T10:18:38Z</time></trkpt><trkpt lat="44.11012835349826" lon="10.605456895262737"><ele>1532.0</ele><time>2026-04-04T10:18:40Z</time></trkpt><trkpt lat="44.11013328346291" lon="10.605608852650382"><ele>1532.0</ele><time>2026-04-04T10:18:42Z</time></trkpt><trkpt lat="44.110143014402155" lon="10.6057175350098"><ele>1532.0</ele><time>2026-04-04T10:18:44Z</time></trkpt><trkpt lat="44.110138026814866" lon="10.605805060691452"><ele>1532.0</ele><time>2026-04-04T10:18:46Z</time></trkpt><trkpt lat="44.110129135287465" lon="10.605909312775326"><ele>1532.0</ele><time>2026-04-04T10:18:50Z</time></trkpt><trkpt lat="44.11013489007509" lon="10.606000688061002"><ele>1532.0</ele><time>2026-04-04T10:18:53Z</time></trkpt><trkpt lat="44.110143674162984" lon="10.606160071921115"><ele>1532.0</ele><time>2026-04-04T10:18:55Z</time></trkpt><trkpt lat="44.11014785267473" lon="10.606303294095426"><ele>1532.0</ele><time>2026-04-04T10:18:57Z</time></trkpt><trkpt lat="44.11014654736185" lon="10.60639209600864"><ele>1532.0</ele><time>2026-04-04T10:19:23Z</time></trkpt><trkpt lat="44.110204589342736" lon="10.606481600003194"><ele>1532.0</ele><time>2026-04-04T10:19:25Z</time></trkpt><trkpt lat="44.11028166059882" lon="10.606603656494515"><ele>1532.0</ele><time>2026-04-04T10:19:27Z</time></trkpt><trkpt lat="44.110322824211345" lon="10.606759860702677"><ele>1532.0</ele><time>2026-04-04T10:19:29Z</time></trkpt><trkpt lat="44.11029706097737" lon="10.606907681765435"><ele>1534.0</ele><time>2026-04-04T10:19:31Z</time></trkpt><trkpt lat="44.110235990670446" lon="10.607014106648748"><ele>1536.0</ele><time>2026-04-04T10:19:33Z</time></trkpt><trkpt lat="44.11019422147096" lon="10.607101818323105"><ele>1538.0</ele><time>2026-04-04T10:19:35Z</time></trkpt><trkpt lat="44.11014352884353" lon="10.607230908224643"><ele>1540.0</ele><time>2026-04-04T10:19:37Z</time></trkpt><trkpt lat="44.110103430685946" lon="10.607394652124635"><ele>1542.0</ele><time>2026-04-04T10:19:39Z</time></trkpt><trkpt lat="44.11005777786825" lon="10.607523435780095"><ele>1542.0</ele><time>2026-04-04T10:19:41Z</time></trkpt><trkpt lat="44.109999511404325" lon="10.60763196257024"><ele>1542.0</ele><time>2026-04-04T10:19:43Z</time></trkpt><trkpt lat="44.10994288527797" lon="10.607764129350473"><ele>1542.0</ele><time>2026-04-04T10:19:45Z</time></trkpt><trkpt lat="44.109866802768636" lon="10.60786951707892"><ele>1542.0</ele><time>2026-04-04T10:19:47Z</time></trkpt><trkpt lat="44.109826486855624" lon="10.607985721220931"><ele>1542.0</ele><time>2026-04-04T10:19:49Z</time></trkpt><trkpt lat="44.10980446316116" lon="10.608128582923744"><ele>1533.6</ele><time>2026-04-04T10:19:51Z</time></trkpt><trkpt lat="44.10979279258899" lon="10.608251206672595"><ele>1525.1999999999998</ele><time>2026-04-04T10:19:53Z</time></trkpt><trkpt lat="44.10979411236399" lon="10.60839876465626"><ele>1516.8</ele><time>2026-04-04T10:19:55Z</time></trkpt><trkpt lat="44.10978344110878" lon="10.608507055237263"><ele>1508.4</ele><time>2026-04-04T10:19:57Z</time></trkpt><trkpt lat="44.109715241042984" lon="10.608597368462528"><ele>1500.0</ele><time>2026-04-04T10:19:59Z</time></trkpt><trkpt lat="44.109621414982925" lon="10.608638990739143"><ele>1502.8</ele><time>2026-04-04T10:20:01Z</time></trkpt><trkpt lat="44.10952599681306" lon="10.608693693419152"><ele>1505.6</ele><time>2026-04-04T10:20:03Z</time></trkpt><trkpt lat="44.10946541707266" lon="10.608791090742772"><ele>1508.4</ele><time>2026-04-04T10:20:05Z</time></trkpt><trkpt lat="44.109412769113604" lon="10.608939725029801"><ele>1511.2</ele><time>2026-04-04T10:20:07Z</time></trkpt><trkpt lat="44.10937313974668" lon="10.609081457291323"><ele>1514.0</ele><time>2026-04-04T10:20:09Z</time></trkpt><trkpt lat="44.10941394058599" lon="10.60917622529485"><ele>1514.0</ele><time>2026-04-04T10:20:11Z</time></trkpt><trkpt lat="44.10949848604224" lon="10.60921184954896"><ele>1514.0</ele><time>2026-04-04T10:20:13Z</time></trkpt><trkpt lat="44.109606020452" lon="10.609171410197927"><ele>1514.0</ele><time>2026-04-04T10:20:15Z</time></trkpt><trkpt lat="44.109663500527965" lon="10.609131824537466"><ele>1514.0</ele><time>2026-04-04T10:20:16Z</time></trkpt><trkpt lat="44.10973062141909" lon="10.609079170730057"><ele>1514.0</ele><time>2026-04-04T10:20:17Z</time></trkpt><trkpt lat="44.1098017386278" lon="10.609033673557166"><ele>1514.0</ele><time>2026-04-04T10:20:18Z</time></trkpt><trkpt lat="44.109884322564824" lon="10.60899684337813"><ele>1521.6</ele><time>2026-04-04T10:20:19Z</time></trkpt><trkpt lat="44.10996717618839" lon="10.608973189800208"><ele>1529.2</ele><time>2026-04-04T10:20:20Z</time></trkpt><trkpt lat="44.110039458543" lon="10.608951318641797"><ele>1536.8</ele><time>2026-04-04T10:20:21Z</time></trkpt><trkpt lat="44.11016116503404" lon="10.60889774730905"><ele>1544.3999999999999</ele><time>2026-04-04T10:20:23Z</time></trkpt><trkpt lat="44.110279567758205" lon="10.608861314345857"><ele>1552.0</ele><time>2026-04-04T10:20:25Z</time></trkpt><trkpt lat="44.11035085910305" lon="10.60885498808013"><ele>1552.0000000000002</ele><time>2026-04-04T10:20:26Z</time></trkpt><trkpt lat="44.11045308888784" lon="10.60884647079066"><ele>1552.0</ele><time>2026-04-04T10:20:28Z</time></trkpt><trkpt lat="44.110530463987004" lon="10.60884927174007"><ele>1552.0</ele><time>2026-04-04T10:20:30Z</time></trkpt><trkpt lat="44.11058607610747" lon="10.608894709605117"><ele>1552.0</ele><time>2026-04-04T10:20:45Z</time></trkpt><trkpt lat="44.11066795348263" lon="10.60892964477666"><ele>1552.0000000000002</ele><time>2026-04-04T10:20:56Z</time></trkpt><trkpt lat="44.11072296495852" lon="10.609023496284596"><ele>1552.0</ele><time>2026-04-04T10:20:59Z</time></trkpt><trkpt lat="44.11074997653603" lon="10.609110779756671"><ele>1555.1666666666667</ele><time>2026-04-04T10:21:01Z</time></trkpt><trkpt lat="44.110756465888" lon="10.609237403031061"><ele>1558.3333333333335</ele><time>2026-04-04T10:21:04Z</time></trkpt><trkpt lat="44.11078409863775" lon="10.609323200877007"><ele>1561.5</ele><time>2026-04-04T10:21:06Z</time></trkpt><trkpt lat="44.11084759992868" lon="10.609363534270118"><ele>1564.6666666666665</ele><time>2026-04-04T10:21:08Z</time></trkpt><trkpt lat="44.1109170733519" lon="10.609340720263"><ele>1567.8333333333333</ele><time>2026-04-04T10:21:10Z</time></trkpt><trkpt lat="44.11099556605058" lon="10.609310528992816"><ele>1571.0</ele><time>2026-04-04T10:21:12Z</time></trkpt><trkpt lat="44.111083253450204" lon="10.609273836164189"><ele>1571.0</ele><time>2026-04-04T10:21:14Z</time></trkpt><trkpt lat="44.11118459789867" lon="10.609214182251424"><ele>1571.0</ele><time>2026-04-04T10:21:16Z</time></trkpt><trkpt lat="44.11127630941026" lon="10.609173780293665"><ele>1571.0</ele><time>2026-04-04T10:21:18Z</time></trkpt><trkpt lat="44.111348004780254" lon="10.609125737374853"><ele>1571.0</ele><time>2026-04-04T10:21:20Z</time></trkpt><trkpt lat="44.11145426199936" lon="10.60908728324046"><ele>1571.0</ele><time>2026-04-04T10:21:22Z</time></trkpt><trkpt lat="44.11151378351198" lon="10.60905823492645"><ele>1570.9999999999998</ele><time>2026-04-04T10:21:25Z</time></trkpt><trkpt lat="44.11157165070249" lon="10.609007684582972"><ele>1571.0</ele><time>2026-04-04T10:21:42Z</time></trkpt><trkpt lat="44.11163550484331" lon="10.60896327703441"><ele>1571.0</ele><time>2026-04-04T10:21:45Z</time></trkpt><trkpt lat="44.11172723862314" lon="10.608977556308341"><ele>1571.0</ele><time>2026-04-04T10:23:59Z</time></trkpt><trkpt lat="44.11181034270151" lon="10.608967198729978"><ele>1570.9999999999998</ele><time>2026-04-04T10:24:03Z</time></trkpt><trkpt lat="44.11188707822788" lon="10.608928197133356"><ele>1571.0</ele><time>2026-04-04T10:24:05Z</time></trkpt><trkpt lat="44.1119689166558" lon="10.608874567797399"><ele>1573.9999999999998</ele><time>2026-04-04T10:24:08Z</time></trkpt><trkpt lat="44.11205284288077" lon="10.608811658037627"><ele>1577.0</ele><time>2026-04-04T10:24:11Z</time></trkpt><trkpt lat="44.11214537137023" lon="10.608778278929076"><ele>1580.0</ele><time>2026-04-04T10:24:14Z</time></trkpt><trkpt lat="44.11220792661073" lon="10.608740155847762"><ele>1583.0</ele><time>2026-04-04T10:24:16Z</time></trkpt><trkpt lat="44.112293175071045" lon="10.608718484851138"><ele>1585.9999999999998</ele><time>2026-04-04T10:24:19Z</time></trkpt><trkpt lat="44.11234777294155" lon="10.608781172481587"><ele>1589.0</ele><time>2026-04-04T10:24:21Z</time></trkpt><trkpt lat="44.11237021964185" lon="10.608863392709203"><ele>1588.9999999999998</ele><time>2026-04-04T10:24:23Z</time></trkpt><trkpt lat="44.11235409326707" lon="10.608969902727594"><ele>1589.0</ele><time>2026-04-04T10:24:25Z</time></trkpt><trkpt lat="44.11233626926413" lon="10.609091029265217"><ele>1589.0</ele><time>2026-04-04T10:24:27Z</time></trkpt><trkpt lat="44.112342663120664" lon="10.60921901946341"><ele>1589.0</ele><time>2026-04-04T10:24:29Z</time></trkpt><trkpt lat="44.11234651033767" lon="10.609337581629394"><ele>1588.9999999999998</ele><time>2026-04-04T10:24:32Z</time></trkpt><trkpt lat="44.11235941829538" lon="10.609430475881352"><ele>1589.0</ele><time>2026-04-04T10:24:35Z</time></trkpt><trkpt lat="44.11238842966673" lon="10.609517629186032"><ele>1588.9999999999998</ele><time>2026-04-04T10:24:38Z</time></trkpt><trkpt lat="44.1123439705467" lon="10.60944847983413"><ele>1589.0</ele><time>2026-04-04T10:25:53Z</time></trkpt><trkpt lat="44.112326354437364" lon="10.609333939792153"><ele>1589.0</ele><time>2026-04-04T10:28:26Z</time></trkpt><trkpt lat="44.112326097203244" lon="10.609236615546918"><ele>1589.0</ele><time>2026-04-04T10:29:26Z</time></trkpt><trkpt lat="44.11233804853786" lon="10.609128179112624"><ele>1588.9999999999998</ele><time>2026-04-04T10:30:19Z</time></trkpt><trkpt lat="44.11231552772622" lon="10.609039226444244"><ele>1589.0</ele><time>2026-04-04T10:32:12Z</time></trkpt><trkpt lat="44.11234412561455" lon="10.608906437999877"><ele>1589.0</ele><time>2026-04-04T10:40:51Z</time></trkpt><trkpt lat="44.1123528904823" lon="10.608791537972063"><ele>1589.0</ele><time>2026-04-04T10:40:54Z</time></trkpt><trkpt lat="44.1123014359529" lon="10.608729852349036"><ele>1589.0</ele><time>2026-04-04T10:40:56Z</time></trkpt><trkpt lat="44.11223652871459" lon="10.608715381247686"><ele>1589.0</ele><time>2026-04-04T10:40:58Z</time></trkpt><trkpt lat="44.11216815086419" lon="10.60874578018714"><ele>1589.0</ele><time>2026-04-04T10:41:00Z</time></trkpt><trkpt lat="44.11209648144543" lon="10.608794468972185"><ele>1589.0</ele><time>2026-04-04T10:41:02Z</time></trkpt><trkpt lat="44.112034761570825" lon="10.608817110077503"><ele>1589.0</ele><time>2026-04-04T10:41:04Z</time></trkpt><trkpt lat="44.11197038645451" lon="10.608854230677295"><ele>1588.9999999999998</ele><time>2026-04-04T10:41:06Z</time></trkpt><trkpt lat="44.11189956771501" lon="10.608922394317727"><ele>1589.0</ele><time>2026-04-04T10:41:09Z</time></trkpt><trkpt lat="44.1118248787263" lon="10.608961599117043"><ele>1589.0</ele><time>2026-04-04T10:41:12Z</time></trkpt><trkpt lat="44.11175194449498" lon="10.608983025948913"><ele>1589.0</ele><time>2026-04-04T10:41:17Z</time></trkpt><trkpt lat="44.1116758825885" lon="10.608974367406914"><ele>1588.9999999999998</ele><time>2026-04-04T10:41:29Z</time></trkpt><trkpt lat="44.11159294838609" lon="10.609006604523632"><ele>1589.0</ele><time>2026-04-04T10:41:33Z</time></trkpt><trkpt lat="44.11152531911875" lon="10.609061225767471"><ele>1585.9999999999998</ele><time>2026-04-04T10:41:36Z</time></trkpt><trkpt lat="44.111444107234206" lon="10.609110253740422"><ele>1583.0</ele><time>2026-04-04T10:41:39Z</time></trkpt><trkpt lat="44.111375792780386" lon="10.609136692002721"><ele>1580.0</ele><time>2026-04-04T10:41:41Z</time></trkpt><trkpt lat="44.11130694163875" lon="10.60916394490126"><ele>1577.0</ele><time>2026-04-04T10:41:43Z</time></trkpt><trkpt lat="44.111222238383284" lon="10.609215897252675"><ele>1573.9999999999998</ele><time>2026-04-04T10:41:46Z</time></trkpt><trkpt lat="44.111154333014035" lon="10.609259667243837"><ele>1571.0</ele><time>2026-04-04T10:41:48Z</time></trkpt><trkpt lat="44.111069462230425" lon="10.609290312955839"><ele>1570.9999999999998</ele><time>2026-04-04T10:41:51Z</time></trkpt><trkpt lat="44.11097677029595" lon="10.609327219277759"><ele>1571.0</ele><time>2026-04-04T10:41:54Z</time></trkpt><trkpt lat="44.110897511988874" lon="10.609365392770423"><ele>1571.0</ele><time>2026-04-04T10:41:57Z</time></trkpt><trkpt lat="44.11082148024006" lon="10.609374907847327"><ele>1571.0</ele><time>2026-04-04T10:42:00Z</time></trkpt><trkpt lat="44.11077690985402" lon="10.609294471023922"><ele>1570.9999999999998</ele><time>2026-04-04T10:42:03Z</time></trkpt><trkpt lat="44.11076571159514" lon="10.609151290151992"><ele>1571.0</ele><time>2026-04-04T10:42:06Z</time></trkpt><trkpt lat="44.11075675296521" lon="10.609054816598823"><ele>1567.8333333333333</ele><time>2026-04-04T10:42:08Z</time></trkpt><trkpt lat="44.11072335195742" lon="10.608971261119748"><ele>1564.6666666666665</ele><time>2026-04-04T10:42:10Z</time></trkpt><trkpt lat="44.1106715904994" lon="10.608886054715413"><ele>1561.5</ele><time>2026-04-04T10:42:13Z</time></trkpt><trkpt lat="44.110604946919686" lon="10.608813503099386"><ele>1558.3333333333335</ele><time>2026-04-04T10:42:16Z</time></trkpt><trkpt lat="44.11052983255249" lon="10.608810828865106"><ele>1555.1666666666667</ele><time>2026-04-04T10:42:19Z</time></trkpt><trkpt lat="44.11044524050791" lon="10.60883860870006"><ele>1552.0</ele><time>2026-04-04T10:42:22Z</time></trkpt><trkpt lat="44.110371863453864" lon="10.608830089887666"><ele>1552.0000000000002</ele><time>2026-04-04T10:42:24Z</time></trkpt><trkpt lat="44.110282399431085" lon="10.608822930723411"><ele>1552.0</ele><time>2026-04-04T10:42:26Z</time></trkpt><trkpt lat="44.110220250295704" lon="10.608857700071269"><ele>1552.0</ele><time>2026-04-04T10:42:28Z</time></trkpt><trkpt lat="44.11014744218534" lon="10.608862076728608"><ele>1552.0</ele><time>2026-04-04T10:42:30Z</time></trkpt><trkpt lat="44.11007146700523" lon="10.608894387733066"><ele>1552.0000000000002</ele><time>2026-04-04T10:42:32Z</time></trkpt><trkpt lat="44.110000346970814" lon="10.60893121329006"><ele>1552.0</ele><time>2026-04-04T10:42:34Z</time></trkpt><trkpt lat="44.10991252131869" lon="10.608971408207722"><ele>1545.6666666666667</ele><time>2026-04-04T10:42:36Z</time></trkpt><trkpt lat="44.10982094544539" lon="10.60900569873829"><ele>1539.3333333333335</ele><time>2026-04-04T10:42:38Z</time></trkpt><trkpt lat="44.1097422024105" lon="10.609051233742134"><ele>1533.0</ele><time>2026-04-04T10:42:40Z</time></trkpt><trkpt lat="44.10968207431642" lon="10.609098499286283"><ele>1526.6666666666667</ele><time>2026-04-04T10:42:42Z</time></trkpt><trkpt lat="44.10961437017478" lon="10.609136325100122"><ele>1520.3333333333335</ele><time>2026-04-04T10:42:44Z</time></trkpt><trkpt lat="44.10954839807362" lon="10.609182629431878"><ele>1514.0</ele><time>2026-04-04T10:42:46Z</time></trkpt><trkpt lat="44.10948501561447" lon="10.609189811172243"><ele>1514.0</ele><time>2026-04-04T10:42:48Z</time></trkpt><trkpt lat="44.10940718475217" lon="10.60910384663226"><ele>1514.0</ele><time>2026-04-04T10:42:51Z</time></trkpt><trkpt lat="44.10941486273038" lon="10.609012864047614"><ele>1514.0</ele><time>2026-04-04T10:42:53Z</time></trkpt><trkpt lat="44.109435189574945" lon="10.608909043164454"><ele>1514.0</ele><time>2026-04-04T10:42:55Z</time></trkpt><trkpt lat="44.10949220545075" lon="10.608794643418094"><ele>1514.0</ele><time>2026-04-04T10:42:57Z</time></trkpt><trkpt lat="44.1095613653867" lon="10.608668123137397"><ele>1511.6666666666667</ele><time>2026-04-04T10:42:59Z</time></trkpt><trkpt lat="44.109607825334926" lon="10.608603895099716"><ele>1509.3333333333335</ele><time>2026-04-04T10:43:00Z</time></trkpt><trkpt lat="44.10972192114022" lon="10.608580189802133"><ele>1507.0</ele><time>2026-04-04T10:43:02Z</time></trkpt><trkpt lat="44.10979367890143" lon="10.608510538479534"><ele>1504.6666666666667</ele><time>2026-04-04T10:43:04Z</time></trkpt><trkpt lat="44.1098175504916" lon="10.608397810337987"><ele>1502.3333333333333</ele><time>2026-04-04T10:43:06Z</time></trkpt><trkpt lat="44.10980584697546" lon="10.608274803939798"><ele>1500.0</ele><time>2026-04-04T10:43:08Z</time></trkpt><trkpt lat="44.10981426125068" lon="10.608135830752655"><ele>1500.0</ele><time>2026-04-04T10:43:10Z</time></trkpt><trkpt lat="44.10983299258244" lon="10.608021236117684"><ele>1500.0</ele><time>2026-04-04T10:43:12Z</time></trkpt><trkpt lat="44.10986289167277" lon="10.607926689093027"><ele>1500.0</ele><time>2026-04-04T10:43:14Z</time></trkpt><trkpt lat="44.10988538524486" lon="10.60780139077332"><ele>1500.0</ele><time>2026-04-04T10:43:16Z</time></trkpt><trkpt lat="44.109980786385094" lon="10.607700291544695"><ele>1500.0</ele><time>2026-04-04T10:43:18Z</time></trkpt><trkpt lat="44.11003730522532" lon="10.607577567445084"><ele>1506.4</ele><time>2026-04-04T10:43:20Z</time></trkpt><trkpt lat="44.11008156620603" lon="10.607443577724819"><ele>1512.8</ele><time>2026-04-04T10:43:22Z</time></trkpt><trkpt lat="44.11011183884426" lon="10.607320971955208"><ele>1519.1999999999998</ele><time>2026-04-04T10:43:24Z</time></trkpt><trkpt lat="44.110175801599816" lon="10.60719756164838"><ele>1525.6</ele><time>2026-04-04T10:43:26Z</time></trkpt><trkpt lat="44.11023981721039" lon="10.607093035041093"><ele>1532.0</ele><time>2026-04-04T10:43:28Z</time></trkpt><trkpt lat="44.11028915521075" lon="10.606969680135961"><ele>1532.0</ele><time>2026-04-04T10:43:30Z</time></trkpt><trkpt lat="44.110329147327896" lon="10.606778395909325"><ele>1532.0</ele><time>2026-04-04T10:43:32Z</time></trkpt><trkpt lat="44.11031310440004" lon="10.606640383410745"><ele>1532.0</ele><time>2026-04-04T10:43:34Z</time></trkpt><trkpt lat="44.11025256996041" lon="10.606583997701238"><ele>1532.0</ele><time>2026-04-04T10:43:35Z</time></trkpt><trkpt lat="44.110184609949584" lon="10.606463520153666"><ele>1532.0</ele><time>2026-04-04T10:43:37Z</time></trkpt><trkpt lat="44.11012559228635" lon="10.606346401575147"><ele>1532.0</ele><time>2026-04-04T10:43:39Z</time></trkpt><trkpt lat="44.1101057121347" lon="10.606211310512284"><ele>1532.0</ele><time>2026-04-04T10:43:41Z</time></trkpt><trkpt lat="44.11010518783423" lon="10.606082321569563"><ele>1532.0</ele><time>2026-04-04T10:43:44Z</time></trkpt><trkpt lat="44.11011076037428" lon="10.605945122702199"><ele>1532.0</ele><time>2026-04-04T10:43:48Z</time></trkpt><trkpt lat="44.11010760742541" lon="10.605850030615846"><ele>1532.0</ele><time>2026-04-04T10:43:51Z</time></trkpt><trkpt lat="44.1101132351551" lon="10.605742040115606"><ele>1532.0</ele><time>2026-04-04T10:43:54Z</time></trkpt><trkpt lat="44.11012086406289" lon="10.605637707222034"><ele>1532.0</ele><time>2026-04-04T10:43:57Z</time></trkpt><trkpt lat="44.110131971396456" lon="10.605530221236556"><ele>1532.0</ele><time>2026-04-04T10:43:59Z</time></trkpt><trkpt lat="44.110122551714916" lon="10.60537580678243"><ele>1532.0</ele><time>2026-04-04T10:44:01Z</time></trkpt><trkpt lat="44.11011385085965" lon="10.605271044131438"><ele>1532.0</ele><time>2026-04-04T10:44:02Z</time></trkpt><trkpt lat="44.11010521302522" lon="10.605133079555905"><ele>1532.0</ele><time>2026-04-04T10:44:04Z</time></trkpt><trkpt lat="44.11010166727245" lon="10.604992368038483"><ele>1532.0</ele><time>2026-04-04T10:44:06Z</time></trkpt><trkpt lat="44.11013050304598" lon="10.60487878359855"><ele>1532.0</ele><time>2026-04-04T10:44:08Z</time></trkpt><trkpt lat="44.11014946661849" lon="10.60475007119385"><ele>1532.0</ele><time>2026-04-04T10:44:10Z</time></trkpt><trkpt lat="44.11017545620429" lon="10.604620477832722"><ele>1532.0</ele><time>2026-04-04T10:44:12Z</time></trkpt><trkpt lat="44.11022997507109" lon="10.604512304064198"><ele>1532.0</ele><time>2026-04-04T10:44:14Z</time></trkpt><trkpt lat="44.1102991637609" lon="10.60439113699124"><ele>1528.8</ele><time>2026-04-04T10:44:16Z</time></trkpt><trkpt lat="44.11035528117768" lon="10.604262798632416"><ele>1525.6</ele><time>2026-04-04T10:44:18Z</time></trkpt><trkpt lat="44.11038856559694" lon="10.604186285267176"><ele>1522.3999999999999</ele><time>2026-04-04T10:44:19Z</time></trkpt><trkpt lat="44.11043141584878" lon="10.60405929539744"><ele>1519.1999999999998</ele><time>2026-04-04T10:44:21Z</time></trkpt><trkpt lat="44.110475681390106" lon="10.603924169332299"><ele>1516.0</ele><time>2026-04-04T10:44:23Z</time></trkpt><trkpt lat="44.11049577288455" lon="10.6037683901412"><ele>1516.0</ele><time>2026-04-04T10:44:25Z</time></trkpt><trkpt lat="44.11050984197061" lon="10.603679624038222"><ele>1516.0</ele><time>2026-04-04T10:44:26Z</time></trkpt><trkpt lat="44.11051836937931" lon="10.603586999358162"><ele>1516.0</ele><time>2026-04-04T10:44:27Z</time></trkpt><trkpt lat="44.11053013695491" lon="10.603498921431"><ele>1516.0</ele><time>2026-04-04T10:44:28Z</time></trkpt><trkpt lat="44.110533797144626" lon="10.603342437130264"><ele>1516.0</ele><time>2026-04-04T10:44:30Z</time></trkpt><trkpt lat="44.11056001630308" lon="10.603200748952652"><ele>1516.0</ele><time>2026-04-04T10:44:32Z</time></trkpt><trkpt lat="44.110609709916375" lon="10.603068239858661"><ele>1512.0</ele><time>2026-04-04T10:44:34Z</time></trkpt><trkpt lat="44.110637500146254" lon="10.60291963856478"><ele>1508.0</ele><time>2026-04-04T10:44:36Z</time></trkpt><trkpt lat="44.110673439285264" lon="10.602787299270284"><ele>1504.0</ele><time>2026-04-04T10:44:38Z</time></trkpt><trkpt lat="44.11064779409157" lon="10.602626736665453"><ele>1500.0</ele><time>2026-04-04T10:44:40Z</time></trkpt><trkpt lat="44.1105974179201" lon="10.602489776476936"><ele>1496.0</ele><time>2026-04-04T10:44:42Z</time></trkpt><trkpt lat="44.11056078584745" lon="10.602387264793641"><ele>1493.8333333333335</ele><time>2026-04-04T10:44:44Z</time></trkpt><trkpt lat="44.11055444711446" lon="10.602254407767159"><ele>1491.6666666666667</ele><time>2026-04-04T10:44:46Z</time></trkpt><trkpt lat="44.11053788300664" lon="10.602156142471456"><ele>1489.5</ele><time>2026-04-04T10:44:48Z</time></trkpt><trkpt lat="44.11047600602209" lon="10.602176090057725"><ele>1487.3333333333333</ele><time>2026-04-04T10:44:50Z</time></trkpt><trkpt lat="44.110453926108526" lon="10.602279270629518"><ele>1485.1666666666665</ele><time>2026-04-04T10:44:52Z</time></trkpt><trkpt lat="44.11047749158987" lon="10.602365209287367"><ele>1483.0</ele><time>2026-04-04T10:44:53Z</time></trkpt><trkpt lat="44.110507849653956" lon="10.602480063364368"><ele>1483.0</ele><time>2026-04-04T10:44:54Z</time></trkpt><trkpt lat="44.11053572320672" lon="10.602578662296622"><ele>1483.0</ele><time>2026-04-04T10:44:55Z</time></trkpt><trkpt lat="44.1105544048101" lon="10.602665180697265"><ele>1483.0</ele><time>2026-04-04T10:44:56Z</time></trkpt><trkpt lat="44.11056813908042" lon="10.602758239593824"><ele>1483.0</ele><time>2026-04-04T10:44:57Z</time></trkpt><trkpt lat="44.110567201467234" lon="10.602855567077906"><ele>1483.0</ele><time>2026-04-04T10:44:58Z</time></trkpt><trkpt lat="44.11050907706111" lon="10.602994655805327"><ele>1483.0</ele><time>2026-04-04T10:45:00Z</time></trkpt><trkpt lat="44.11047249882394" lon="10.603115162784249"><ele>1485.1666666666665</ele><time>2026-04-04T10:45:02Z</time></trkpt><trkpt lat="44.110434165281035" lon="10.603196856007319"><ele>1487.3333333333333</ele><time>2026-04-04T10:45:04Z</time></trkpt><trkpt lat="44.110387052292694" lon="10.603276536579845"><ele>1489.5</ele><time>2026-04-04T10:45:06Z</time></trkpt><trkpt lat="44.110334301794815" lon="10.603412343186914"><ele>1491.6666666666667</ele><time>2026-04-04T10:45:08Z</time></trkpt><trkpt lat="44.11030718874429" lon="10.603495769040872"><ele>1493.8333333333335</ele><time>2026-04-04T10:45:09Z</time></trkpt><trkpt lat="44.11029810534789" lon="10.603594060614528"><ele>1496.0</ele><time>2026-04-04T10:45:10Z</time></trkpt><trkpt lat="44.11026458935526" lon="10.603699700781231"><ele>1493.0</ele><time>2026-04-04T10:45:11Z</time></trkpt><trkpt lat="44.110207433843335" lon="10.603786636527051"><ele>1490.0</ele><time>2026-04-04T10:45:12Z</time></trkpt><trkpt lat="44.11014621882811" lon="10.603855567586464"><ele>1487.0</ele><time>2026-04-04T10:45:13Z</time></trkpt><trkpt lat="44.11007833388339" lon="10.603919826729598"><ele>1484.0</ele><time>2026-04-04T10:45:14Z</time></trkpt><trkpt lat="44.1100181983383" lon="10.603973198805944"><ele>1481.0</ele><time>2026-04-04T10:45:15Z</time></trkpt><trkpt lat="44.10995932756576" lon="10.6040375919082"><ele>1478.0</ele><time>2026-04-04T10:45:16Z</time></trkpt><trkpt lat="44.10990494434705" lon="10.60411559329238"><ele>1478.0</ele><time>2026-04-04T10:45:17Z</time></trkpt><trkpt lat="44.109847448836874" lon="10.60417658795462"><ele>1478.0</ele><time>2026-04-04T10:45:18Z</time></trkpt><trkpt lat="44.10979975109517" lon="10.604242480902323"><ele>1478.0</ele><time>2026-04-04T10:45:19Z</time></trkpt><trkpt lat="44.10973297562717" lon="10.604306640495466"><ele>1478.0</ele><time>2026-04-04T10:45:20Z</time></trkpt><trkpt lat="44.10964681468166" lon="10.6044152422742"><ele>1478.0</ele><time>2026-04-04T10:45:22Z</time></trkpt><trkpt lat="44.10957685166247" lon="10.60456284844831"><ele>1479.5</ele><time>2026-04-04T10:45:24Z</time></trkpt><trkpt lat="44.10955133471049" lon="10.604653410795095"><ele>1481.0</ele><time>2026-04-04T10:45:25Z</time></trkpt><trkpt lat="44.10950281982494" lon="10.604778148478514"><ele>1482.5</ele><time>2026-04-04T10:45:26Z</time></trkpt><trkpt lat="44.10946526533577" lon="10.604885299184444"><ele>1484.0</ele><time>2026-04-04T10:45:27Z</time></trkpt><trkpt lat="44.10942776032544" lon="10.604975889435542"><ele>1485.5</ele><time>2026-04-04T10:45:28Z</time></trkpt><trkpt lat="44.10938705223214" lon="10.60507223894216"><ele>1487.0</ele><time>2026-04-04T10:45:29Z</time></trkpt><trkpt lat="44.109364259014235" lon="10.605166887652386"><ele>1487.0</ele><time>2026-04-04T10:45:30Z</time></trkpt><trkpt lat="44.10934082512989" lon="10.605278908617738"><ele>1487.0</ele><time>2026-04-04T10:45:31Z</time></trkpt><trkpt lat="44.10931838707781" lon="10.605384912163409"><ele>1487.0</ele><time>2026-04-04T10:45:32Z</time></trkpt><trkpt lat="44.10930707572111" lon="10.605480697745865"><ele>1487.0</ele><time>2026-04-04T10:45:33Z</time></trkpt><trkpt lat="44.109296529592605" lon="10.605657394851965"><ele>1487.0</ele><time>2026-04-04T10:45:35Z</time></trkpt><trkpt lat="44.109302639215954" lon="10.605787067028986"><ele>1486.6</ele><time>2026-04-04T10:45:36Z</time></trkpt><trkpt lat="44.10931553828215" lon="10.605889733138602"><ele>1486.1999999999998</ele><time>2026-04-04T10:45:37Z</time></trkpt><trkpt lat="44.10933509064419" lon="10.605991035253304"><ele>1485.8</ele><time>2026-04-04T10:45:38Z</time></trkpt><trkpt lat="44.1093326435729" lon="10.606104785959348"><ele>1485.4</ele><time>2026-04-04T10:45:39Z</time></trkpt><trkpt lat="44.10934301551483" lon="10.606309201834888"><ele>1485.0</ele><time>2026-04-04T10:45:41Z</time></trkpt><trkpt lat="44.109363303345205" lon="10.606411899979614"><ele>1485.0</ele><time>2026-04-04T10:45:42Z</time></trkpt><trkpt lat="44.10938139244813" lon="10.606554081709913"><ele>1485.0</ele><time>2026-04-04T10:45:44Z</time></trkpt><trkpt lat="44.10936067395395" lon="10.606660228833494"><ele>1485.0</ele><time>2026-04-04T10:45:47Z</time></trkpt><trkpt lat="44.109274330387045" lon="10.60663575750482"><ele>1485.0</ele><time>2026-04-04T10:45:49Z</time></trkpt><trkpt lat="44.10924703777841" lon="10.606480061216052"><ele>1485.0</ele><time>2026-04-04T10:45:51Z</time></trkpt><trkpt lat="44.10922543206273" lon="10.606388899591266"><ele>1485.0</ele><time>2026-04-04T10:45:52Z</time></trkpt><trkpt lat="44.10921098281179" lon="10.606279028094617"><ele>1485.0</ele><time>2026-04-04T10:45:53Z</time></trkpt><trkpt lat="44.10918514484571" lon="10.606154397865847"><ele>1485.0</ele><time>2026-04-04T10:45:54Z</time></trkpt><trkpt lat="44.109161030473345" lon="10.606050795515461"><ele>1485.0</ele><time>2026-04-04T10:45:55Z</time></trkpt><trkpt lat="44.10909801673701" lon="10.605917280691825"><ele>1485.0</ele><time>2026-04-04T10:45:57Z</time></trkpt><trkpt lat="44.10905288361958" lon="10.605851122702154"><ele>1485.0</ele><time>2026-04-04T10:45:58Z</time></trkpt><trkpt lat="44.10896707300535" lon="10.605775001137248"><ele>1481.5</ele><time>2026-04-04T10:46:00Z</time></trkpt><trkpt lat="44.10894550238388" lon="10.605689284698991"><ele>1478.0</ele><time>2026-04-04T10:46:01Z</time></trkpt><trkpt lat="44.108932849731936" lon="10.605531437834916"><ele>1474.5</ele><time>2026-04-04T10:46:03Z</time></trkpt><trkpt lat="44.10894323002528" lon="10.605382269800756"><ele>1471.0</ele><time>2026-04-04T10:46:05Z</time></trkpt><trkpt lat="44.108970187141956" lon="10.605293212424492"><ele>1467.5</ele><time>2026-04-04T10:46:06Z</time></trkpt><trkpt lat="44.10899745142226" lon="10.60519689607509"><ele>1464.0</ele><time>2026-04-04T10:46:07Z</time></trkpt><trkpt lat="44.109028142278305" lon="10.605079614678385"><ele>1466.8000000000002</ele><time>2026-04-04T10:46:08Z</time></trkpt><trkpt lat="44.109079204213046" lon="10.60497287764716"><ele>1469.6000000000001</ele><time>2026-04-04T10:46:09Z</time></trkpt><trkpt lat="44.1091302856444" lon="10.604826247342936"><ele>1472.4</ele><time>2026-04-04T10:46:11Z</time></trkpt><trkpt lat="44.10916462502797" lon="10.604670540079917"><ele>1475.2</ele><time>2026-04-04T10:46:13Z</time></trkpt><trkpt lat="44.10918791253234" lon="10.604548347457609"><ele>1478.0</ele><time>2026-04-04T10:46:15Z</time></trkpt><trkpt lat="44.10921231948132" lon="10.60442876459891"><ele>1478.0</ele><time>2026-04-04T10:46:17Z</time></trkpt><trkpt lat="44.10920874042036" lon="10.604294755948347"><ele>1478.0</ele><time>2026-04-04T10:46:19Z</time></trkpt><trkpt lat="44.10921081495532" lon="10.604176388314524"><ele>1478.0</ele><time>2026-04-04T10:46:21Z</time></trkpt><trkpt lat="44.10921229118113" lon="10.604044898067517"><ele>1478.0</ele><time>2026-04-04T10:46:23Z</time></trkpt><trkpt lat="44.10925024796631" lon="10.603874620282776"><ele>1478.0</ele><time>2026-04-04T10:46:25Z</time></trkpt><trkpt lat="44.109299075510215" lon="10.603738178542537"><ele>1474.8000000000002</ele><time>2026-04-04T10:46:27Z</time></trkpt><trkpt lat="44.1093615762159" lon="10.603617720244575"><ele>1471.6</ele><time>2026-04-04T10:46:29Z</time></trkpt><trkpt lat="44.10942487525499" lon="10.603507458966124"><ele>1468.4</ele><time>2026-04-04T10:46:31Z</time></trkpt><trkpt lat="44.109466599491476" lon="10.603432360685693"><ele>1465.1999999999998</ele><time>2026-04-04T10:46:32Z</time></trkpt><trkpt lat="44.10954179644376" lon="10.603296533904258"><ele>1462.0</ele><time>2026-04-04T10:46:34Z</time></trkpt><trkpt lat="44.10960632514244" lon="10.603165939443697"><ele>1462.0</ele><time>2026-04-04T10:46:36Z</time></trkpt><trkpt lat="44.10967860287486" lon="10.603073244890362"><ele>1462.0</ele><time>2026-04-04T10:46:38Z</time></trkpt><trkpt lat="44.1096947841595" lon="10.602933377627823"><ele>1462.0</ele><time>2026-04-04T10:46:41Z</time></trkpt><trkpt lat="44.10964106029716" lon="10.602881796845818"><ele>1462.0</ele><time>2026-04-04T10:46:43Z</time></trkpt><trkpt lat="44.10957003504224" lon="10.602935773465545"><ele>1462.0</ele><time>2026-04-04T10:46:45Z</time></trkpt><trkpt lat="44.10951039793557" lon="10.603003595189909"><ele>1462.0</ele><time>2026-04-04T10:46:46Z</time></trkpt><trkpt lat="44.10947618885989" lon="10.60307895501689"><ele>1462.0</ele><time>2026-04-04T10:46:47Z</time></trkpt><trkpt lat="44.10940811757014" lon="10.603194951269723"><ele>1462.0</ele><time>2026-04-04T10:46:49Z</time></trkpt><trkpt lat="44.1093583961061" lon="10.603252581933111"><ele>1462.0</ele><time>2026-04-04T10:46:50Z</time></trkpt><trkpt lat="44.10929830493606" lon="10.603299360252551"><ele>1462.0</ele><time>2026-04-04T10:46:51Z</time></trkpt><trkpt lat="44.10919959490036" lon="10.603367166105313"><ele>1462.0</ele><time>2026-04-04T10:46:53Z</time></trkpt><trkpt lat="44.109104822545454" lon="10.60345873202618"><ele>1458.6666666666665</ele><time>2026-04-04T10:46:55Z</time></trkpt><trkpt lat="44.109014320727304" lon="10.603581341826297"><ele>1455.3333333333333</ele><time>2026-04-04T10:46:57Z</time></trkpt><trkpt lat="44.108982558375516" lon="10.603670786932769"><ele>1452.0</ele><time>2026-04-04T10:46:58Z</time></trkpt><trkpt lat="44.1089431902217" lon="10.60375872732241"><ele>1448.6666666666667</ele><time>2026-04-04T10:46:59Z</time></trkpt><trkpt lat="44.108897203849146" lon="10.60383586982444"><ele>1445.3333333333335</ele><time>2026-04-04T10:47:00Z</time></trkpt><trkpt lat="44.10884404306264" lon="10.60393233068631"><ele>1442.0</ele><time>2026-04-04T10:47:01Z</time></trkpt><trkpt lat="44.10880710952292" lon="10.60400843014284"><ele>1442.0</ele><time>2026-04-04T10:47:02Z</time></trkpt><trkpt lat="44.108774457322056" lon="10.604083802092907"><ele>1442.0</ele><time>2026-04-04T10:47:03Z</time></trkpt><trkpt lat="44.10873063469564" lon="10.6041683301822"><ele>1442.0</ele><time>2026-04-04T10:47:04Z</time></trkpt><trkpt lat="44.10868436240922" lon="10.604253536208226"><ele>1442.0</ele><time>2026-04-04T10:47:05Z</time></trkpt><trkpt lat="44.108647214562204" lon="10.604336822757165"><ele>1442.0</ele><time>2026-04-04T10:47:06Z</time></trkpt><trkpt lat="44.10858672345872" lon="10.604413785172051"><ele>1442.0</ele><time>2026-04-04T10:47:07Z</time></trkpt><trkpt lat="44.10852426571401" lon="10.60447939375961"><ele>1442.0</ele><time>2026-04-04T10:47:08Z</time></trkpt><trkpt lat="44.10845733797159" lon="10.604535191647244"><ele>1444.1666666666667</ele><time>2026-04-04T10:47:09Z</time></trkpt><trkpt lat="44.108398098009914" lon="10.60461122243032"><ele>1446.3333333333335</ele><time>2026-04-04T10:47:10Z</time></trkpt><trkpt lat="44.10834886878501" lon="10.60467437862298"><ele>1448.5</ele><time>2026-04-04T10:47:11Z</time></trkpt><trkpt lat="44.10827561067534" lon="10.604786262859776"><ele>1450.6666666666667</ele><time>2026-04-04T10:47:13Z</time></trkpt><trkpt lat="44.108236595663826" lon="10.604855212701455"><ele>1452.8333333333333</ele><time>2026-04-04T10:47:14Z</time></trkpt><trkpt lat="44.10818705913336" lon="10.604976267173864"><ele>1455.0</ele><time>2026-04-04T10:47:15Z</time></trkpt><trkpt lat="44.108126471801846" lon="10.60511968799826"><ele>1450.8333333333333</ele><time>2026-04-04T10:47:16Z</time></trkpt><trkpt lat="44.10810448335064" lon="10.605266456573608"><ele>1446.6666666666667</ele><time>2026-04-04T10:47:17Z</time></trkpt><trkpt lat="44.10808823851952" lon="10.605395647830258"><ele>1442.5</ele><time>2026-04-04T10:47:18Z</time></trkpt><trkpt lat="44.10806692709056" lon="10.605500880535873"><ele>1438.3333333333335</ele><time>2026-04-04T10:47:19Z</time></trkpt><trkpt lat="44.108046909025546" lon="10.605608175305731"><ele>1434.1666666666667</ele><time>2026-04-04T10:47:20Z</time></trkpt><trkpt lat="44.10802308959585" lon="10.605695790917459"><ele>1430.0</ele><time>2026-04-04T10:47:21Z</time></trkpt><trkpt lat="44.10798444393012" lon="10.605853306549774"><ele>1430.0</ele><time>2026-04-04T10:47:23Z</time></trkpt><trkpt lat="44.107924769474515" lon="10.605892644613077"><ele>1430.0</ele><time>2026-04-04T10:47:26Z</time></trkpt><trkpt lat="44.10789305712598" lon="10.605800710172481"><ele>1430.0</ele><time>2026-04-04T10:47:28Z</time></trkpt><trkpt lat="44.10791640414784" lon="10.605643858961178"><ele>1430.0</ele><time>2026-04-04T10:47:30Z</time></trkpt><trkpt lat="44.107937497734994" lon="10.605527033486393"><ele>1430.0</ele><time>2026-04-04T10:47:31Z</time></trkpt><trkpt lat="44.1079668790618" lon="10.60540652292609"><ele>1430.0</ele><time>2026-04-04T10:47:32Z</time></trkpt><trkpt lat="44.10797547248011" lon="10.605317614083408"><ele>1429.0</ele><time>2026-04-04T10:47:33Z</time></trkpt><trkpt lat="44.107977152299725" lon="10.605220052475577"><ele>1428.0</ele><time>2026-04-04T10:47:34Z</time></trkpt><trkpt lat="44.107994751850974" lon="10.605134601070732"><ele>1427.0</ele><time>2026-04-04T10:47:35Z</time></trkpt><trkpt lat="44.10801049431502" lon="10.605034948117932"><ele>1426.0</ele><time>2026-04-04T10:47:36Z</time></trkpt><trkpt lat="44.108033704242146" lon="10.604948733795512"><ele>1425.0</ele><time>2026-04-04T10:47:37Z</time></trkpt><trkpt lat="44.108050737767016" lon="10.604860909131387"><ele>1424.0</ele><time>2026-04-04T10:47:38Z</time></trkpt><trkpt lat="44.10807123535934" lon="10.604773417056627"><ele>1423.0</ele><time>2026-04-04T10:47:39Z</time></trkpt><trkpt lat="44.10809184891413" lon="10.604661854583226"><ele>1423.0</ele><time>2026-04-04T10:47:40Z</time></trkpt><trkpt lat="44.10811398430299" lon="10.604578222131012"><ele>1423.0</ele><time>2026-04-04T10:47:41Z</time></trkpt><trkpt lat="44.10815368663132" lon="10.604445747641842"><ele>1423.0</ele><time>2026-04-04T10:47:43Z</time></trkpt><trkpt lat="44.108170344153" lon="10.604348068239878"><ele>1423.0</ele><time>2026-04-04T10:47:44Z</time></trkpt><trkpt lat="44.108216087252494" lon="10.604261188976176"><ele>1423.0</ele><time>2026-04-04T10:47:45Z</time></trkpt><trkpt lat="44.10827321319994" lon="10.604184641700762"><ele>1423.0</ele><time>2026-04-04T10:47:46Z</time></trkpt><trkpt lat="44.10832416907299" lon="10.604110988733801"><ele>1423.2</ele><time>2026-04-04T10:47:47Z</time></trkpt><trkpt lat="44.108371127629454" lon="10.604041607304891"><ele>1423.4</ele><time>2026-04-04T10:47:48Z</time></trkpt><trkpt lat="44.10847757003364" lon="10.60387899776065"><ele>1423.6000000000001</ele><time>2026-04-04T10:47:50Z</time></trkpt><trkpt lat="44.10851692948455" lon="10.60379528434737"><ele>1423.8000000000002</ele><time>2026-04-04T10:47:51Z</time></trkpt><trkpt lat="44.108576924366155" lon="10.603682805754168"><ele>1424.0</ele><time>2026-04-04T10:47:53Z</time></trkpt><trkpt lat="44.10857051809442" lon="10.603572122946339"><ele>1424.0</ele><time>2026-04-04T10:47:56Z</time></trkpt><trkpt lat="44.10849596022381" lon="10.60356012308572"><ele>1424.0</ele><time>2026-04-04T10:47:59Z</time></trkpt><trkpt lat="44.10845817647724" lon="10.60364117893687"><ele>1424.0</ele><time>2026-04-04T10:48:04Z</time></trkpt><trkpt lat="44.108412004726524" lon="10.603714602941292"><ele>1424.0</ele><time>2026-04-04T10:48:06Z</time></trkpt><trkpt lat="44.10835531467459" lon="10.603856576007182"><ele>1424.0</ele><time>2026-04-04T10:48:08Z</time></trkpt><trkpt lat="44.10830308631369" lon="10.603931082640008"><ele>1424.0</ele><time>2026-04-04T10:48:09Z</time></trkpt><trkpt lat="44.108247290120204" lon="10.603997053343287"><ele>1421.4285714285713</ele><time>2026-04-04T10:48:10Z</time></trkpt><trkpt lat="44.10819412859208" lon="10.604054484110202"><ele>1418.857142857143</ele><time>2026-04-04T10:48:11Z</time></trkpt><trkpt lat="44.10812348813945" lon="10.604091379089674"><ele>1416.2857142857142</ele><time>2026-04-04T10:48:12Z</time></trkpt><trkpt lat="44.10805593732106" lon="10.604132703590805"><ele>1413.7142857142858</ele><time>2026-04-04T10:48:13Z</time></trkpt><trkpt lat="44.10799805133947" lon="10.604192495426217"><ele>1411.142857142857</ele><time>2026-04-04T10:48:14Z</time></trkpt><trkpt lat="44.10795007472144" lon="10.604255113435952"><ele>1408.5714285714284</ele><time>2026-04-04T10:48:15Z</time></trkpt><trkpt lat="44.107909184195364" lon="10.604329794382227"><ele>1406.0</ele><time>2026-04-04T10:48:16Z</time></trkpt><trkpt lat="44.107873359525634" lon="10.604417022758744"><ele>1409.4</ele><time>2026-04-04T10:48:17Z</time></trkpt><trkpt lat="44.10783715957619" lon="10.604511892475958"><ele>1412.8</ele><time>2026-04-04T10:48:18Z</time></trkpt><trkpt lat="44.10776983698547" lon="10.604677429265156"><ele>1416.2</ele><time>2026-04-04T10:48:20Z</time></trkpt><trkpt lat="44.107706936251944" lon="10.604785106063446"><ele>1419.6000000000001</ele><time>2026-04-04T10:48:21Z</time></trkpt><trkpt lat="44.10763814740199" lon="10.604887466341188"><ele>1423.0</ele><time>2026-04-04T10:48:22Z</time></trkpt><trkpt lat="44.10758684987847" lon="10.604985282302167"><ele>1423.0</ele><time>2026-04-04T10:48:23Z</time></trkpt><trkpt lat="44.107548696950715" lon="10.605059960013437"><ele>1423.0</ele><time>2026-04-04T10:48:24Z</time></trkpt><trkpt lat="44.10749240783024" lon="10.605137425916112"><ele>1423.0</ele><time>2026-04-04T10:48:25Z</time></trkpt><trkpt lat="44.10744668303393" lon="10.60521189976771"><ele>1423.0</ele><time>2026-04-04T10:48:26Z</time></trkpt><trkpt lat="44.10740530380532" lon="10.605280833575703"><ele>1423.0</ele><time>2026-04-04T10:48:27Z</time></trkpt><trkpt lat="44.10737620005422" lon="10.605366717530405"><ele>1423.0</ele><time>2026-04-04T10:48:28Z</time></trkpt><trkpt lat="44.10735336304363" lon="10.605469854828884"><ele>1423.0</ele><time>2026-04-04T10:48:29Z</time></trkpt><trkpt lat="44.10732722201242" lon="10.605595204548097"><ele>1417.0</ele><time>2026-04-04T10:48:30Z</time></trkpt><trkpt lat="44.10730911953756" lon="10.605727674180846"><ele>1411.0</ele><time>2026-04-04T10:48:31Z</time></trkpt><trkpt lat="44.10730527402941" lon="10.605847544989004"><ele>1405.0</ele><time>2026-04-04T10:48:32Z</time></trkpt><trkpt lat="44.10730048051009" lon="10.605961783865082"><ele>1399.0</ele><time>2026-04-04T10:48:33Z</time></trkpt><trkpt lat="44.107285367025135" lon="10.606081620432176"><ele>1393.0</ele><time>2026-04-04T10:48:34Z</time></trkpt><trkpt lat="44.107261168871474" lon="10.6061983390702"><ele>1387.0</ele><time>2026-04-04T10:48:35Z</time></trkpt><trkpt lat="44.10723772957558" lon="10.606323224232044"><ele>1386.7142857142858</ele><time>2026-04-04T10:48:36Z</time></trkpt><trkpt lat="44.107217391583724" lon="10.606429651328515"><ele>1386.4285714285713</ele><time>2026-04-04T10:48:37Z</time></trkpt><trkpt lat="44.10720843437159" lon="10.606521500104522"><ele>1386.142857142857</ele><time>2026-04-04T10:48:38Z</time></trkpt><trkpt lat="44.107217550432466" lon="10.606615136666697"><ele>1385.857142857143</ele><time>2026-04-04T10:48:39Z</time></trkpt><trkpt lat="44.1072349336208" lon="10.606704343376684"><ele>1385.5714285714287</ele><time>2026-04-04T10:48:40Z</time></trkpt><trkpt lat="44.10726476645494" lon="10.606812084799497"><ele>1385.2857142857142</ele><time>2026-04-04T10:48:41Z</time></trkpt><trkpt lat="44.10730536457611" lon="10.606912634096485"><ele>1385.0</ele><time>2026-04-04T10:48:42Z</time></trkpt><trkpt lat="44.10735760404277" lon="10.607091841858475"><ele>1382.5</ele><time>2026-04-04T10:48:44Z</time></trkpt><trkpt lat="44.10736863897783" lon="10.607198209977604"><ele>1380.0</ele><time>2026-04-04T10:48:45Z</time></trkpt><trkpt lat="44.10739554121242" lon="10.607299471853976"><ele>1377.5</ele><time>2026-04-04T10:48:46Z</time></trkpt><trkpt lat="44.10741283979197" lon="10.607428365635558"><ele>1375.0</ele><time>2026-04-04T10:48:47Z</time></trkpt><trkpt lat="44.10743626638447" lon="10.607558150615459"><ele>1372.5</ele><time>2026-04-04T10:48:48Z</time></trkpt><trkpt lat="44.10744917687107" lon="10.607670811442192"><ele>1370.0</ele><time>2026-04-04T10:48:49Z</time></trkpt><trkpt lat="44.107468245970445" lon="10.60776042226117"><ele>1373.6666666666667</ele><time>2026-04-04T10:48:50Z</time></trkpt><trkpt lat="44.10750117865002" lon="10.607837741104115"><ele>1377.3333333333335</ele><time>2026-04-04T10:48:51Z</time></trkpt><trkpt lat="44.10755085502554" lon="10.60789473099229"><ele>1381.0</ele><time>2026-04-04T10:48:52Z</time></trkpt><trkpt lat="44.10766800170021" lon="10.60789458557753"><ele>1384.6666666666667</ele><time>2026-04-04T10:48:54Z</time></trkpt><trkpt lat="44.10774220665623" lon="10.607865526564208"><ele>1388.3333333333333</ele><time>2026-04-04T10:48:55Z</time></trkpt><trkpt lat="44.107817517679585" lon="10.607830418913174"><ele>1392.0</ele><time>2026-04-04T10:48:56Z</time></trkpt><trkpt lat="44.107920940291216" lon="10.607814469843559"><ele>1392.0</ele><time>2026-04-04T10:48:58Z</time></trkpt><trkpt lat="44.107991085770415" lon="10.607840529774116"><ele>1392.0</ele><time>2026-04-04T10:49:00Z</time></trkpt><trkpt lat="44.10804656925633" lon="10.607919961299388"><ele>1392.0</ele><time>2026-04-04T10:49:02Z</time></trkpt><trkpt lat="44.1080573730353" lon="10.608032184545415"><ele>1392.0</ele><time>2026-04-04T10:49:04Z</time></trkpt><trkpt lat="44.10803771898179" lon="10.608120147331036"><ele>1392.0</ele><time>2026-04-04T10:49:05Z</time></trkpt><trkpt lat="44.10799972981507" lon="10.608229880997817"><ele>1392.0</ele><time>2026-04-04T10:49:06Z</time></trkpt><trkpt lat="44.107952112229015" lon="10.608344184456243"><ele>1392.0</ele><time>2026-04-04T10:49:07Z</time></trkpt><trkpt lat="44.10790206538136" lon="10.608419206762255"><ele>1392.0</ele><time>2026-04-04T10:49:08Z</time></trkpt><trkpt lat="44.10784076533095" lon="10.608524064063324"><ele>1392.0</ele><time>2026-04-04T10:49:09Z</time></trkpt><trkpt lat="44.10777942725547" lon="10.608621003561781"><ele>1392.0</ele><time>2026-04-04T10:49:10Z</time></trkpt><trkpt lat="44.107736165968156" lon="10.608710540981553"><ele>1392.0</ele><time>2026-04-04T10:49:11Z</time></trkpt><trkpt lat="44.107690233638905" lon="10.608809891891493"><ele>1392.0</ele><time>2026-04-04T10:49:12Z</time></trkpt><trkpt lat="44.10765435086994" lon="10.608924452088328"><ele>1394.1666666666667</ele><time>2026-04-04T10:49:13Z</time></trkpt><trkpt lat="44.10760222138393" lon="10.608997753018746"><ele>1396.3333333333333</ele><time>2026-04-04T10:49:14Z</time></trkpt><trkpt lat="44.10753808669303" lon="10.609067605626727"><ele>1398.5</ele><time>2026-04-04T10:49:15Z</time></trkpt><trkpt lat="44.1074654641433" lon="10.609142152743972"><ele>1400.6666666666665</ele><time>2026-04-04T10:49:16Z</time></trkpt><trkpt lat="44.10741319171115" lon="10.609202149470612"><ele>1402.8333333333333</ele><time>2026-04-04T10:49:17Z</time></trkpt><trkpt lat="44.107347312716016" lon="10.609279295639421"><ele>1405.0</ele><time>2026-04-04T10:49:18Z</time></trkpt><trkpt lat="44.10728684816303" lon="10.609372449009253"><ele>1398.4</ele><time>2026-04-04T10:49:19Z</time></trkpt><trkpt lat="44.10722345657161" lon="10.609491706810607"><ele>1391.8</ele><time>2026-04-04T10:49:20Z</time></trkpt><trkpt lat="44.107183668443554" lon="10.609596920390405"><ele>1385.1999999999998</ele><time>2026-04-04T10:49:21Z</time></trkpt><trkpt lat="44.107138195468565" lon="10.609697456123099"><ele>1378.6</ele><time>2026-04-04T10:49:22Z</time></trkpt><trkpt lat="44.10708322816225" lon="10.609809215378766"><ele>1372.0</ele><time>2026-04-04T10:49:23Z</time></trkpt><trkpt lat="44.10704126833438" lon="10.609928178734094"><ele>1372.0</ele><time>2026-04-04T10:49:24Z</time></trkpt><trkpt lat="44.10702375355116" lon="10.610027544759113"><ele>1372.0</ele><time>2026-04-04T10:49:25Z</time></trkpt><trkpt lat="44.10697714975236" lon="10.610133154532322"><ele>1372.0</ele><time>2026-04-04T10:49:26Z</time></trkpt><trkpt lat="44.10693031561892" lon="10.61022769726609"><ele>1372.0</ele><time>2026-04-04T10:49:27Z</time></trkpt><trkpt lat="44.10689003932778" lon="10.610315016854056"><ele>1372.0</ele><time>2026-04-04T10:49:28Z</time></trkpt><trkpt lat="44.10686787459514" lon="10.610399504649498"><ele>1372.0</ele><time>2026-04-04T10:49:29Z</time></trkpt><trkpt lat="44.10684864043763" lon="10.610496523573998"><ele>1374.0</ele><time>2026-04-04T10:49:30Z</time></trkpt><trkpt lat="44.10685005294315" lon="10.610660869486424"><ele>1376.0</ele><time>2026-04-04T10:49:32Z</time></trkpt><trkpt lat="44.10685261136504" lon="10.610799530444043"><ele>1378.0</ele><time>2026-04-04T10:49:34Z</time></trkpt><trkpt lat="44.10679307165555" lon="10.610921825548841"><ele>1380.0</ele><time>2026-04-04T10:49:36Z</time></trkpt><trkpt lat="44.1067317256343" lon="10.611005868919234"><ele>1382.0</ele><time>2026-04-04T10:49:37Z</time></trkpt><trkpt lat="44.10667140320866" lon="10.611080485487932"><ele>1380.6</ele><time>2026-04-04T10:49:38Z</time></trkpt><trkpt lat="44.10660563359603" lon="10.611168135449198"><ele>1379.1999999999998</ele><time>2026-04-04T10:49:39Z</time></trkpt><trkpt lat="44.10655113290566" lon="10.611262910334206"><ele>1377.8</ele><time>2026-04-04T10:49:40Z</time></trkpt><trkpt lat="44.10651926264837" lon="10.611347163077532"><ele>1376.4</ele><time>2026-04-04T10:49:41Z</time></trkpt><trkpt lat="44.10651988172289" lon="10.611480200058379"><ele>1375.0</ele><time>2026-04-04T10:49:43Z</time></trkpt><trkpt lat="44.106600297049205" lon="10.611636432072716"><ele>1375.0</ele><time>2026-04-04T10:49:45Z</time></trkpt><trkpt lat="44.10665119516439" lon="10.611698747721928"><ele>1375.0</ele><time>2026-04-04T10:49:46Z</time></trkpt><trkpt lat="44.10672949199293" lon="10.61175696924896"><ele>1375.0</ele><time>2026-04-04T10:49:47Z</time></trkpt><trkpt lat="44.10681327183092" lon="10.611805502971777"><ele>1375.0</ele><time>2026-04-04T10:49:48Z</time></trkpt><trkpt lat="44.1069077352639" lon="10.611832897175494"><ele>1375.0</ele><time>2026-04-04T10:49:49Z</time></trkpt><trkpt lat="44.10699884537167" lon="10.611849786616316"><ele>1375.0</ele><time>2026-04-04T10:49:50Z</time></trkpt><trkpt lat="44.107089581211056" lon="10.611886672867577"><ele>1375.0</ele><time>2026-04-04T10:49:51Z</time></trkpt><trkpt lat="44.107179322976314" lon="10.611919148698497"><ele>1375.0</ele><time>2026-04-04T10:49:52Z</time></trkpt><trkpt lat="44.107254020674766" lon="10.611965721026452"><ele>1375.0</ele><time>2026-04-04T10:49:53Z</time></trkpt><trkpt lat="44.1073371341433" lon="10.612024540206152"><ele>1375.0</ele><time>2026-04-04T10:49:54Z</time></trkpt><trkpt lat="44.10740397745373" lon="10.612068804356191"><ele>1375.0</ele><time>2026-04-04T10:49:55Z</time></trkpt><trkpt lat="44.10746113399498" lon="10.612123024715975"><ele>1375.0</ele><time>2026-04-04T10:49:56Z</time></trkpt><trkpt lat="44.10754701863792" lon="10.612131491041449"><ele>1373.6</ele><time>2026-04-04T10:49:58Z</time></trkpt><trkpt lat="44.10761865692151" lon="10.612197472325605"><ele>1372.2</ele><time>2026-04-04T10:50:01Z</time></trkpt><trkpt lat="44.1076999652679" lon="10.612304255838225"><ele>1370.8000000000002</ele><time>2026-04-04T10:50:03Z</time></trkpt><trkpt lat="44.10776630270522" lon="10.612400420443214"><ele>1369.4</ele><time>2026-04-04T10:50:05Z</time></trkpt><trkpt lat="44.107817899238206" lon="10.61251159094441"><ele>1368.0</ele><time>2026-04-04T10:50:07Z</time></trkpt><trkpt lat="44.107889477668465" lon="10.612647792732304"><ele>1368.0</ele><time>2026-04-04T10:50:09Z</time></trkpt><trkpt lat="44.10792614474973" lon="10.612719940280838"><ele>1368.0</ele><time>2026-04-04T10:50:10Z</time></trkpt><trkpt lat="44.108016604877044" lon="10.612857606746124"><ele>1368.0</ele><time>2026-04-04T10:50:12Z</time></trkpt><trkpt lat="44.10806870560903" lon="10.612943872848032"><ele>1368.0</ele><time>2026-04-04T10:50:13Z</time></trkpt><trkpt lat="44.10812542912911" lon="10.613018707003642"><ele>1368.0</ele><time>2026-04-04T10:50:14Z</time></trkpt><trkpt lat="44.10818844400102" lon="10.613083059625874"><ele>1368.0</ele><time>2026-04-04T10:50:15Z</time></trkpt><trkpt lat="44.1082474289758" lon="10.61312259144"><ele>1366.4285714285713</ele><time>2026-04-04T10:50:16Z</time></trkpt><trkpt lat="44.10831189099445" lon="10.61315802514279"><ele>1364.857142857143</ele><time>2026-04-04T10:50:17Z</time></trkpt><trkpt lat="44.10837654993064" lon="10.613185377104752"><ele>1363.2857142857142</ele><time>2026-04-04T10:50:18Z</time></trkpt><trkpt lat="44.10845838596302" lon="10.613198180293537"><ele>1361.7142857142858</ele><time>2026-04-04T10:50:19Z</time></trkpt><trkpt lat="44.10852984099536" lon="10.613207007360803"><ele>1360.142857142857</ele><time>2026-04-04T10:50:20Z</time></trkpt><trkpt lat="44.10859804081361" lon="10.613212262014468"><ele>1358.5714285714284</ele><time>2026-04-04T10:50:21Z</time></trkpt><trkpt lat="44.10866249551244" lon="10.613219354344439"><ele>1357.0</ele><time>2026-04-04T10:50:22Z</time></trkpt><trkpt lat="44.10874019265629" lon="10.613217133545843"><ele>1357.0</ele><time>2026-04-04T10:50:23Z</time></trkpt><trkpt lat="44.10882031036728" lon="10.613208934458507"><ele>1357.0</ele><time>2026-04-04T10:50:24Z</time></trkpt><trkpt lat="44.10890781669171" lon="10.613198008666162"><ele>1357.0</ele><time>2026-04-04T10:50:25Z</time></trkpt><trkpt lat="44.10897448792451" lon="10.613173120133537"><ele>1357.0</ele><time>2026-04-04T10:50:26Z</time></trkpt><trkpt lat="44.109049725738636" lon="10.613151557982018"><ele>1357.0</ele><time>2026-04-04T10:50:27Z</time></trkpt><trkpt lat="44.109117005250624" lon="10.613144102191532"><ele>1357.0</ele><time>2026-04-04T10:50:28Z</time></trkpt><trkpt lat="44.1091769327374" lon="10.613107140747447"><ele>1357.0</ele><time>2026-04-04T10:50:29Z</time></trkpt><trkpt lat="44.10926513323854" lon="10.613083798913351"><ele>1357.0</ele><time>2026-04-04T10:50:31Z</time></trkpt><trkpt lat="44.1092653130567" lon="10.613198389885355"><ele>1357.0</ele><time>2026-04-04T10:50:34Z</time></trkpt><trkpt lat="44.109126568626564" lon="10.6132615377885"><ele>1357.0</ele><time>2026-04-04T10:50:36Z</time></trkpt><trkpt lat="44.109020415212306" lon="10.61328518307941"><ele>1357.0</ele><time>2026-04-04T10:50:37Z</time></trkpt><trkpt lat="44.108923595791794" lon="10.613311692111447"><ele>1357.0</ele><time>2026-04-04T10:50:38Z</time></trkpt><trkpt lat="44.10885023486985" lon="10.613322838409424"><ele>1357.0</ele><time>2026-04-04T10:50:39Z</time></trkpt><trkpt lat="44.108777351319205" lon="10.613362456799656"><ele>1357.0</ele><time>2026-04-04T10:50:40Z</time></trkpt><trkpt lat="44.10870018381481" lon="10.61339093461814"><ele>1357.0</ele><time>2026-04-04T10:50:41Z</time></trkpt><trkpt lat="44.108612918992485" lon="10.613428098261798"><ele>1357.0</ele><time>2026-04-04T10:50:42Z</time></trkpt><trkpt lat="44.108538969626544" lon="10.613448064079641"><ele>1357.0</ele><time>2026-04-04T10:50:43Z</time></trkpt><trkpt lat="44.10846309663382" lon="10.613452707963484"><ele>1357.0</ele><time>2026-04-04T10:50:44Z</time></trkpt><trkpt lat="44.10839873211288" lon="10.61345605591553"><ele>1357.0</ele><time>2026-04-04T10:50:45Z</time></trkpt><trkpt lat="44.108249001529956" lon="10.613453501152843"><ele>1357.0</ele><time>2026-04-04T10:50:47Z</time></trkpt><trkpt lat="44.108171500753755" lon="10.613432711353525"><ele>1357.0</ele><time>2026-04-04T10:50:48Z</time></trkpt><trkpt lat="44.10807367598774" lon="10.613405321732818"><ele>1357.0</ele><time>2026-04-04T10:50:49Z</time></trkpt><trkpt lat="44.10799055269094" lon="10.613377582125304"><ele>1357.0</ele><time>2026-04-04T10:50:50Z</time></trkpt><trkpt lat="44.10792982539609" lon="10.613346738773556"><ele>1353.3333333333333</ele><time>2026-04-04T10:50:51Z</time></trkpt><trkpt lat="44.10786523146366" lon="10.613304902797422"><ele>1349.6666666666665</ele><time>2026-04-04T10:50:52Z</time></trkpt><trkpt lat="44.10779494600055" lon="10.613242759545859"><ele>1346.0</ele><time>2026-04-04T10:50:53Z</time></trkpt><trkpt lat="44.10773945059385" lon="10.613167240571855"><ele>1342.3333333333333</ele><time>2026-04-04T10:50:54Z</time></trkpt><trkpt lat="44.10768656395061" lon="10.613072203237255"><ele>1338.6666666666667</ele><time>2026-04-04T10:50:55Z</time></trkpt><trkpt lat="44.10763193068676" lon="10.612975326074379"><ele>1335.0</ele><time>2026-04-04T10:50:56Z</time></trkpt><trkpt lat="44.107575329083055" lon="10.6129178400873"><ele>1335.0</ele><time>2026-04-04T10:50:57Z</time></trkpt><trkpt lat="44.10750185562649" lon="10.612859883237704"><ele>1335.0</ele><time>2026-04-04T10:50:58Z</time></trkpt><trkpt lat="44.10742111464572" lon="10.612806578170945"><ele>1335.0</ele><time>2026-04-04T10:50:59Z</time></trkpt><trkpt lat="44.10733827392659" lon="10.612755200518563"><ele>1335.0</ele><time>2026-04-04T10:51:00Z</time></trkpt><trkpt lat="44.107253469088846" lon="10.612707544668963"><ele>1335.0</ele><time>2026-04-04T10:51:01Z</time></trkpt><trkpt lat="44.10719400831148" lon="10.612672213052234"><ele>1335.0</ele><time>2026-04-04T10:51:02Z</time></trkpt><trkpt lat="44.10706698934617" lon="10.612624814794474"><ele>1335.8</ele><time>2026-04-04T10:51:04Z</time></trkpt><trkpt lat="44.10694465321404" lon="10.612571739546992"><ele>1336.6</ele><time>2026-04-04T10:51:05Z</time></trkpt><trkpt lat="44.106859692977714" lon="10.612543201382891"><ele>1337.4</ele><time>2026-04-04T10:51:06Z</time></trkpt><trkpt lat="44.10678151089155" lon="10.612524702118819"><ele>1338.2</ele><time>2026-04-04T10:51:07Z</time></trkpt><trkpt lat="44.10668545467136" lon="10.612502998715184"><ele>1339.0</ele><time>2026-04-04T10:51:08Z</time></trkpt><trkpt lat="44.106597224608194" lon="10.612463501594874"><ele>1335.0</ele><time>2026-04-04T10:51:09Z</time></trkpt><trkpt lat="44.1065020827789" lon="10.61242595653745"><ele>1331.0</ele><time>2026-04-04T10:51:10Z</time></trkpt><trkpt lat="44.106414407923" lon="10.612390987522348"><ele>1327.0</ele><time>2026-04-04T10:51:11Z</time></trkpt><trkpt lat="44.10633268523198" lon="10.612365084706092"><ele>1323.0</ele><time>2026-04-04T10:51:12Z</time></trkpt><trkpt lat="44.10625430559931" lon="10.612348446772769"><ele>1319.0</ele><time>2026-04-04T10:51:13Z</time></trkpt><trkpt lat="44.106182848439836" lon="10.61232801526497"><ele>1315.0</ele><time>2026-04-04T10:51:14Z</time></trkpt><trkpt lat="44.106108576783065" lon="10.612297725967998"><ele>1315.0</ele><time>2026-04-04T10:51:15Z</time></trkpt><trkpt lat="44.106034516915074" lon="10.61224820173641"><ele>1315.0</ele><time>2026-04-04T10:51:16Z</time></trkpt><trkpt lat="44.10596745534749" lon="10.612206752023207"><ele>1315.0</ele><time>2026-04-04T10:51:17Z</time></trkpt><trkpt lat="44.105895212559304" lon="10.612145437702402"><ele>1315.0</ele><time>2026-04-04T10:51:18Z</time></trkpt><trkpt lat="44.10582374922591" lon="10.612085318975533"><ele>1315.0</ele><time>2026-04-04T10:51:19Z</time></trkpt><trkpt lat="44.105758044228836" lon="10.61202869353875"><ele>1315.0</ele><time>2026-04-04T10:51:20Z</time></trkpt><trkpt lat="44.10565876372956" lon="10.611917894349418"><ele>1312.8333333333333</ele><time>2026-04-04T10:51:22Z</time></trkpt><trkpt lat="44.10561791028084" lon="10.611845947259054"><ele>1310.6666666666665</ele><time>2026-04-04T10:51:23Z</time></trkpt><trkpt lat="44.105576876315176" lon="10.611775144194118"><ele>1308.5</ele><time>2026-04-04T10:51:24Z</time></trkpt><trkpt lat="44.10551820022479" lon="10.611683459563604"><ele>1306.3333333333333</ele><time>2026-04-04T10:51:25Z</time></trkpt><trkpt lat="44.105473878777744" lon="10.611610348040475"><ele>1304.1666666666667</ele><time>2026-04-04T10:51:26Z</time></trkpt><trkpt lat="44.10541655582535" lon="10.611461147705752"><ele>1302.0</ele><time>2026-04-04T10:51:28Z</time></trkpt><trkpt lat="44.10540831658906" lon="10.611361634871992"><ele>1302.0</ele><time>2026-04-04T10:51:29Z</time></trkpt><trkpt lat="44.10542601413052" lon="10.611255954711242"><ele>1302.0</ele><time>2026-04-04T10:51:30Z</time></trkpt><trkpt lat="44.10545765990528" lon="10.611150867743296"><ele>1302.0</ele><time>2026-04-04T10:51:31Z</time></trkpt><trkpt lat="44.10550208186221" lon="10.611022261247262"><ele>1302.0</ele><time>2026-04-04T10:51:32Z</time></trkpt><trkpt lat="44.1055433349721" lon="10.610927581064015"><ele>1302.0</ele><time>2026-04-04T10:51:33Z</time></trkpt><trkpt lat="44.10558745115707" lon="10.610842629016169"><ele>1302.0</ele><time>2026-04-04T10:51:34Z</time></trkpt><trkpt lat="44.10565004734943" lon="10.610767275536277"><ele>1301.1666666666667</ele><time>2026-04-04T10:51:35Z</time></trkpt><trkpt lat="44.10571131567674" lon="10.61069912507204"><ele>1300.3333333333333</ele><time>2026-04-04T10:51:36Z</time></trkpt><trkpt lat="44.10576778210397" lon="10.610630216343486"><ele>1299.5</ele><time>2026-04-04T10:51:37Z</time></trkpt><trkpt lat="44.105798732599474" lon="10.610548639383289"><ele>1298.6666666666665</ele><time>2026-04-04T10:51:38Z</time></trkpt><trkpt lat="44.10584336373013" lon="10.610474986338629"><ele>1297.8333333333333</ele><time>2026-04-04T10:51:39Z</time></trkpt><trkpt lat="44.10587669401734" lon="10.610388297254865"><ele>1297.0</ele><time>2026-04-04T10:51:40Z</time></trkpt><trkpt lat="44.105925240630825" lon="10.610239008677699"><ele>1297.0</ele><time>2026-04-04T10:51:42Z</time></trkpt><trkpt lat="44.10595626574582" lon="10.610146417422428"><ele>1297.0</ele><time>2026-04-04T10:51:44Z</time></trkpt><trkpt lat="44.10588291175619" lon="10.610075361346903"><ele>1297.0</ele><time>2026-04-04T10:51:47Z</time></trkpt><trkpt lat="44.10578942664677" lon="10.61017533767843"><ele>1297.0</ele><time>2026-04-04T10:51:49Z</time></trkpt><trkpt lat="44.10572814056548" lon="10.610350563862209"><ele>1297.0</ele><time>2026-04-04T10:51:51Z</time></trkpt><trkpt lat="44.105643457549434" lon="10.610455313970668"><ele>1297.0</ele><time>2026-04-04T10:51:53Z</time></trkpt><trkpt lat="44.10557609918572" lon="10.610535335318602"><ele>1297.0</ele><time>2026-04-04T10:51:55Z</time></trkpt><trkpt lat="44.105481729385495" lon="10.610603580594232"><ele>1297.0</ele><time>2026-04-04T10:51:57Z</time></trkpt><trkpt lat="44.10541947316966" lon="10.610635604252696"><ele>1297.0</ele><time>2026-04-04T10:51:58Z</time></trkpt><trkpt lat="44.10534171107947" lon="10.610662436483096"><ele>1297.0</ele><time>2026-04-04T10:51:59Z</time></trkpt><trkpt lat="44.105279906517" lon="10.610713220462301"><ele>1297.0</ele><time>2026-04-04T10:52:00Z</time></trkpt><trkpt lat="44.10521240645695" lon="10.610769271243216"><ele>1297.0</ele><time>2026-04-04T10:52:01Z</time></trkpt><trkpt lat="44.10514993466503" lon="10.610813904568124"><ele>1297.0</ele><time>2026-04-04T10:52:02Z</time></trkpt><trkpt lat="44.10509349894454" lon="10.6108625239571"><ele>1297.0</ele><time>2026-04-04T10:52:03Z</time></trkpt><trkpt lat="44.10503250331862" lon="10.610939085324452"><ele>1297.0</ele><time>2026-04-04T10:52:04Z</time></trkpt><trkpt lat="44.10499381936209" lon="10.611010544261362"><ele>1297.0</ele><time>2026-04-04T10:52:05Z</time></trkpt><trkpt lat="44.10494802820695" lon="10.611169969968422"><ele>1297.0</ele><time>2026-04-04T10:52:07Z</time></trkpt><trkpt lat="44.10495511202687" lon="10.611264188307803"><ele>1297.8333333333333</ele><time>2026-04-04T10:52:08Z</time></trkpt><trkpt lat="44.10497447803202" lon="10.61139729641415"><ele>1298.6666666666665</ele><time>2026-04-04T10:52:09Z</time></trkpt><trkpt lat="44.104989002517904" lon="10.611504049028113"><ele>1299.5</ele><time>2026-04-04T10:52:10Z</time></trkpt><trkpt lat="44.10500061100194" lon="10.61159715946038"><ele>1300.3333333333333</ele><time>2026-04-04T10:52:11Z</time></trkpt><trkpt lat="44.10501910908416" lon="10.611724424031966"><ele>1301.1666666666667</ele><time>2026-04-04T10:52:12Z</time></trkpt><trkpt lat="44.10503316116078" lon="10.611836845751677"><ele>1302.0</ele><time>2026-04-04T10:52:13Z</time></trkpt><trkpt lat="44.105045933141064" lon="10.611955365506814"><ele>1301.0</ele><time>2026-04-04T10:52:14Z</time></trkpt><trkpt lat="44.10505151416525" lon="10.61205109156975"><ele>1300.0</ele><time>2026-04-04T10:52:15Z</time></trkpt><trkpt lat="44.105086034079044" lon="10.61220847275122"><ele>1299.0</ele><time>2026-04-04T10:52:17Z</time></trkpt><trkpt lat="44.10512008945125" lon="10.612299042858982"><ele>1298.0</ele><time>2026-04-04T10:52:19Z</time></trkpt><trkpt lat="44.105081931857555" lon="10.612384803448544"><ele>1297.0</ele><time>2026-04-04T10:52:22Z</time></trkpt><trkpt lat="44.104948318874285" lon="10.61242075009136"><ele>1295.8333333333333</ele><time>2026-04-04T10:52:24Z</time></trkpt><trkpt lat="44.10486415938803" lon="10.61238453946079"><ele>1294.6666666666665</ele><time>2026-04-04T10:52:25Z</time></trkpt><trkpt lat="44.104786581379074" lon="10.612341604800998"><ele>1293.5</ele><time>2026-04-04T10:52:26Z</time></trkpt><trkpt lat="44.10473031914112" lon="10.612276395354728"><ele>1292.3333333333333</ele><time>2026-04-04T10:52:27Z</time></trkpt><trkpt lat="44.10465971075348" lon="10.612194994233551"><ele>1291.1666666666667</ele><time>2026-04-04T10:52:28Z</time></trkpt><trkpt lat="44.104601188028205" lon="10.61209984628159"><ele>1290.0</ele><time>2026-04-04T10:52:29Z</time></trkpt><trkpt lat="44.104553307226944" lon="10.611995844264708"><ele>1288.6</ele><time>2026-04-04T10:52:30Z</time></trkpt><trkpt lat="44.10450873254524" lon="10.611880240324508"><ele>1287.2</ele><time>2026-04-04T10:52:31Z</time></trkpt><trkpt lat="44.10447496842198" lon="10.611773843824668"><ele>1285.8000000000002</ele><time>2026-04-04T10:52:32Z</time></trkpt><trkpt lat="44.10443311605382" lon="10.611665467730857"><ele>1284.4</ele><time>2026-04-04T10:52:33Z</time></trkpt><trkpt lat="44.104411187388315" lon="10.611571476304487"><ele>1283.0</ele><time>2026-04-04T10:52:34Z</time></trkpt><trkpt lat="44.10439624418398" lon="10.611390085669543"><ele>1283.0</ele><time>2026-04-04T10:52:36Z</time></trkpt><trkpt lat="44.10440795127345" lon="10.61128352467009"><ele>1283.0</ele><time>2026-04-04T10:52:37Z</time></trkpt><trkpt lat="44.10442046046296" lon="10.611180676735975"><ele>1283.0</ele><time>2026-04-04T10:52:38Z</time></trkpt><trkpt lat="44.10443676475136" lon="10.611010423962338"><ele>1283.0</ele><time>2026-04-04T10:52:40Z</time></trkpt><trkpt lat="44.104478653617235" lon="10.61082663019433"><ele>1283.0</ele><time>2026-04-04T10:52:42Z</time></trkpt><trkpt lat="44.10451543581964" lon="10.610745247255748"><ele>1282.8333333333335</ele><time>2026-04-04T10:52:43Z</time></trkpt><trkpt lat="44.10453846109272" lon="10.610659920273903"><ele>1282.6666666666667</ele><time>2026-04-04T10:52:44Z</time></trkpt><trkpt lat="44.1045681081185" lon="10.610557725952948"><ele>1282.5</ele><time>2026-04-04T10:52:45Z</time></trkpt><trkpt lat="44.104605686680614" lon="10.61046632284049"><ele>1282.3333333333333</ele><time>2026-04-04T10:52:46Z</time></trkpt><trkpt lat="44.10466099898748" lon="10.610383065295142"><ele>1282.1666666666665</ele><time>2026-04-04T10:52:47Z</time></trkpt><trkpt lat="44.104720859894925" lon="10.610326275422608"><ele>1282.0</ele><time>2026-04-04T10:52:48Z</time></trkpt><trkpt lat="44.104784498656606" lon="10.610213256989816"><ele>1278.0</ele><time>2026-04-04T10:52:50Z</time></trkpt><trkpt lat="44.10471315459449" lon="10.61011226626274"><ele>1274.0</ele><time>2026-04-04T10:52:52Z</time></trkpt><trkpt lat="44.10457770181379" lon="10.610137120704072"><ele>1270.0</ele><time>2026-04-04T10:52:54Z</time></trkpt><trkpt lat="44.10448438751642" lon="10.610166774011748"><ele>1266.0</ele><time>2026-04-04T10:52:55Z</time></trkpt><trkpt lat="44.10436995528543" lon="10.610201410139519"><ele>1266.0</ele><time>2026-04-04T10:52:56Z</time></trkpt><trkpt lat="44.10427833059577" lon="10.610228746371792"><ele>1266.0</ele><time>2026-04-04T10:52:57Z</time></trkpt><trkpt lat="44.10419449212182" lon="10.610231705108953"><ele>1266.0</ele><time>2026-04-04T10:52:58Z</time></trkpt><trkpt lat="44.10410409739709" lon="10.610257028750814"><ele>1266.0</ele><time>2026-04-04T10:52:59Z</time></trkpt><trkpt lat="44.10399022038468" lon="10.610270943041465"><ele>1266.0</ele><time>2026-04-04T10:53:00Z</time></trkpt><trkpt lat="44.10389000390661" lon="10.610277137366733"><ele>1264.8</ele><time>2026-04-04T10:53:01Z</time></trkpt><trkpt lat="44.103784728115905" lon="10.61029816499567"><ele>1263.6</ele><time>2026-04-04T10:53:02Z</time></trkpt><trkpt lat="44.10368469646577" lon="10.61030688864958"><ele>1262.4</ele><time>2026-04-04T10:53:03Z</time></trkpt><trkpt lat="44.10359445173218" lon="10.610328121244052"><ele>1261.2</ele><time>2026-04-04T10:53:04Z</time></trkpt><trkpt lat="44.10352959355027" lon="10.610344077917965"><ele>1260.0</ele><time>2026-04-04T10:53:05Z</time></trkpt><trkpt lat="44.10342516332577" lon="10.610400448163947"><ele>1260.0</ele><time>2026-04-04T10:53:07Z</time></trkpt><trkpt lat="44.103388464414586" lon="10.61058486908763"><ele>1260.0</ele><time>2026-04-04T10:53:09Z</time></trkpt><trkpt lat="44.10339273034622" lon="10.610736920016464"><ele>1260.0</ele><time>2026-04-04T10:53:10Z</time></trkpt><trkpt lat="44.10339179594231" lon="10.610868077179875"><ele>1260.0</ele><time>2026-04-04T10:53:11Z</time></trkpt><trkpt lat="44.103393457679374" lon="10.610987620434202"><ele>1260.0</ele><time>2026-04-04T10:53:12Z</time></trkpt><trkpt lat="44.103407381819" lon="10.611103116115439"><ele>1258.6</ele><time>2026-04-04T10:53:13Z</time></trkpt><trkpt lat="44.10345392603345" lon="10.611215334408168"><ele>1257.2</ele><time>2026-04-04T10:53:14Z</time></trkpt><trkpt lat="44.10350210329791" lon="10.611327066228528"><ele>1255.8</ele><time>2026-04-04T10:53:15Z</time></trkpt><trkpt lat="44.103546450718035" lon="10.611424893060201"><ele>1254.4</ele><time>2026-04-04T10:53:16Z</time></trkpt><trkpt lat="44.10356240647468" lon="10.611515357002851"><ele>1253.0</ele><time>2026-04-04T10:53:17Z</time></trkpt><trkpt lat="44.1035568320612" lon="10.611706831436964"><ele>1253.0</ele><time>2026-04-04T10:53:19Z</time></trkpt><trkpt lat="44.10356890725479" lon="10.611818168815699"><ele>1253.0</ele><time>2026-04-04T10:53:20Z</time></trkpt><trkpt lat="44.10356922805905" lon="10.611906114075007"><ele>1253.0</ele><time>2026-04-04T10:53:21Z</time></trkpt><trkpt lat="44.10355869258712" lon="10.611994263316577"><ele>1253.0</ele><time>2026-04-04T10:53:22Z</time></trkpt><trkpt lat="44.103466716710685" lon="10.612122728750395"><ele>1253.0</ele><time>2026-04-04T10:53:24Z</time></trkpt><trkpt lat="44.10338082556083" lon="10.612155616722628"><ele>1253.0</ele><time>2026-04-04T10:53:25Z</time></trkpt><trkpt lat="44.103289120470635" lon="10.612178909304264"><ele>1248.4</ele><time>2026-04-04T10:53:26Z</time></trkpt><trkpt lat="44.10320021594665" lon="10.61222624608957"><ele>1243.8</ele><time>2026-04-04T10:53:27Z</time></trkpt><trkpt lat="44.10313532535307" lon="10.61226127747372"><ele>1239.2</ele><time>2026-04-04T10:53:28Z</time></trkpt><trkpt lat="44.10304786728561" lon="10.612398939097378"><ele>1234.6</ele><time>2026-04-04T10:53:30Z</time></trkpt><trkpt lat="44.10300205219154" lon="10.612520631234128"><ele>1230.0</ele><time>2026-04-04T10:53:31Z</time></trkpt><trkpt lat="44.102955077595674" lon="10.612641240101851"><ele>1230.0</ele><time>2026-04-04T10:53:32Z</time></trkpt><trkpt lat="44.10289792119507" lon="10.612765430856042"><ele>1230.0</ele><time>2026-04-04T10:53:33Z</time></trkpt><trkpt lat="44.102846268854876" lon="10.61288323585531"><ele>1230.0</ele><time>2026-04-04T10:53:34Z</time></trkpt><trkpt lat="44.10279705737654" lon="10.612974375368387"><ele>1230.0</ele><time>2026-04-04T10:53:35Z</time></trkpt><trkpt lat="44.1027550471671" lon="10.613053670218067"><ele>1230.0</ele><time>2026-04-04T10:53:36Z</time></trkpt><trkpt lat="44.10270156580829" lon="10.613119655593582"><ele>1230.0</ele><time>2026-04-04T10:53:37Z</time></trkpt><trkpt lat="44.102629636006284" lon="10.613178784176473"><ele>1228.2</ele><time>2026-04-04T10:53:38Z</time></trkpt><trkpt lat="44.102537141690874" lon="10.613234929416688"><ele>1226.4</ele><time>2026-04-04T10:53:39Z</time></trkpt><trkpt lat="44.10243686982188" lon="10.613311978135807"><ele>1224.6</ele><time>2026-04-04T10:53:40Z</time></trkpt><trkpt lat="44.10234643112845" lon="10.61338867447138"><ele>1222.8</ele><time>2026-04-04T10:53:41Z</time></trkpt><trkpt lat="44.102266633250494" lon="10.613428745314506"><ele>1221.0</ele><time>2026-04-04T10:53:42Z</time></trkpt><trkpt lat="44.10218999447522" lon="10.613463679657915"><ele>1221.0</ele><time>2026-04-04T10:53:43Z</time></trkpt><trkpt lat="44.102078655314656" lon="10.613537928222954"><ele>1221.0</ele><time>2026-04-04T10:53:45Z</time></trkpt><trkpt lat="44.10199690855707" lon="10.613604936000554"><ele>1221.0</ele><time>2026-04-04T10:53:47Z</time></trkpt><trkpt lat="44.1019010287141" lon="10.613671949522029"><ele>1221.0</ele><time>2026-04-04T10:53:50Z</time></trkpt><trkpt lat="44.10184383547261" lon="10.6137216009303"><ele>1221.0</ele><time>2026-04-04T10:53:52Z</time></trkpt><trkpt lat="44.101770648735716" lon="10.61377238466733"><ele>1224.3999999999999</ele><time>2026-04-04T10:53:54Z</time></trkpt><trkpt lat="44.10167717184057" lon="10.613803019115563"><ele>1227.8</ele><time>2026-04-04T10:53:56Z</time></trkpt><trkpt lat="44.10156693888372" lon="10.613824985942735"><ele>1231.1999999999998</ele><time>2026-04-04T10:53:58Z</time></trkpt><trkpt lat="44.101505009046384" lon="10.613851116972219"><ele>1234.6</ele><time>2026-04-04T10:53:59Z</time></trkpt><trkpt lat="44.1013884938793" lon="10.613899398221186"><ele>1238.0</ele><time>2026-04-04T10:54:01Z</time></trkpt><trkpt lat="44.101259980914136" lon="10.6139465028831"><ele>1238.0</ele><time>2026-04-04T10:54:03Z</time></trkpt><trkpt lat="44.10119834566296" lon="10.613969237278312"><ele>1238.0</ele><time>2026-04-04T10:54:04Z</time></trkpt><trkpt lat="44.10109969447905" lon="10.613995079016874"><ele>1238.0</ele><time>2026-04-04T10:54:06Z</time></trkpt><trkpt lat="44.10100236680827" lon="10.614022080407814"><ele>1238.0</ele><time>2026-04-04T10:54:08Z</time></trkpt><trkpt lat="44.10090316417592" lon="10.614023839894545"><ele>1238.0</ele><time>2026-04-04T10:54:10Z</time></trkpt><trkpt lat="44.10079619168445" lon="10.614007618811685"><ele>1237.5</ele><time>2026-04-04T10:54:12Z</time></trkpt><trkpt lat="44.10068857654095" lon="10.61398414672574"><ele>1237.0</ele><time>2026-04-04T10:54:14Z</time></trkpt><trkpt lat="44.10057961303493" lon="10.613957549310008"><ele>1236.5</ele><time>2026-04-04T10:54:16Z</time></trkpt><trkpt lat="44.10051647344165" lon="10.613945504016632"><ele>1236.0</ele><time>2026-04-04T10:54:17Z</time></trkpt><trkpt lat="44.100446347909404" lon="10.613928998893002"><ele>1235.5</ele><time>2026-04-04T10:54:18Z</time></trkpt><trkpt lat="44.1003762643979" lon="10.613911936211297"><ele>1235.0</ele><time>2026-04-04T10:54:19Z</time></trkpt><trkpt lat="44.10030695482521" lon="10.613893689697687"><ele>1235.0</ele><time>2026-04-04T10:54:20Z</time></trkpt><trkpt lat="44.1002329499632" lon="10.613879527030797"><ele>1235.0</ele><time>2026-04-04T10:54:21Z</time></trkpt><trkpt lat="44.10015972643364" lon="10.613860869604208"><ele>1235.0</ele><time>2026-04-04T10:54:22Z</time></trkpt><trkpt lat="44.100091485617725" lon="10.613834822007078"><ele>1235.0</ele><time>2026-04-04T10:54:23Z</time></trkpt><trkpt lat="44.100028666335064" lon="10.613804297612148"><ele>1235.0</ele><time>2026-04-04T10:54:24Z</time></trkpt><trkpt lat="44.09991979781789" lon="10.613745536192784"><ele>1235.0</ele><time>2026-04-04T10:54:26Z</time></trkpt><trkpt lat="44.0998428480347" lon="10.613707691999716"><ele>1235.5</ele><time>2026-04-04T10:54:28Z</time></trkpt><trkpt lat="44.09977501350748" lon="10.613698525731742"><ele>1236.0</ele><time>2026-04-04T10:55:35Z</time></trkpt><trkpt lat="44.099682272719626" lon="10.613698050047974"><ele>1236.5</ele><time>2026-04-04T10:55:37Z</time></trkpt><trkpt lat="44.09961712933557" lon="10.613697580299453"><ele>1237.0</ele><time>2026-04-04T10:55:38Z</time></trkpt><trkpt lat="44.09953814594843" lon="10.613699719526617"><ele>1237.5</ele><time>2026-04-04T10:55:39Z</time></trkpt><trkpt lat="44.099464640685255" lon="10.613696250856888"><ele>1238.0</ele><time>2026-04-04T10:55:40Z</time></trkpt><trkpt lat="44.09939041595733" lon="10.613690625370646"><ele>1238.0</ele><time>2026-04-04T10:55:41Z</time></trkpt><trkpt lat="44.09931707305871" lon="10.61368586827713"><ele>1238.0</ele><time>2026-04-04T10:55:42Z</time></trkpt><trkpt lat="44.09923502422602" lon="10.61368175605242"><ele>1238.0</ele><time>2026-04-04T10:55:43Z</time></trkpt><trkpt lat="44.099152351742184" lon="10.613676872303918"><ele>1238.0</ele><time>2026-04-04T10:55:44Z</time></trkpt><trkpt lat="44.09906975494534" lon="10.61367115319331"><ele>1238.0</ele><time>2026-04-04T10:55:45Z</time></trkpt><trkpt lat="44.09898057622579" lon="10.613665328034148"><ele>1238.0</ele><time>2026-04-04T10:55:46Z</time></trkpt><trkpt lat="44.09889554177789" lon="10.613677469379803"><ele>1237.6666666666667</ele><time>2026-04-04T10:55:47Z</time></trkpt><trkpt lat="44.0988109154468" lon="10.613673573024876"><ele>1237.3333333333335</ele><time>2026-04-04T10:55:48Z</time></trkpt><trkpt lat="44.098734633795495" lon="10.613678549006815"><ele>1237.0</ele><time>2026-04-04T10:55:49Z</time></trkpt><trkpt lat="44.0986581876738" lon="10.613687812031815"><ele>1236.6666666666667</ele><time>2026-04-04T10:55:50Z</time></trkpt><trkpt lat="44.09858155570016" lon="10.613698748143214"><ele>1236.3333333333333</ele><time>2026-04-04T10:55:51Z</time></trkpt><trkpt lat="44.098507543795606" lon="10.613707992515394"><ele>1236.0</ele><time>2026-04-04T10:55:52Z</time></trkpt><trkpt lat="44.0984375694683" lon="10.613724111016353"><ele>1236.0000000000002</ele><time>2026-04-04T10:55:53Z</time></trkpt><trkpt lat="44.09837772930481" lon="10.613755647860529"><ele>1236.0</ele><time>2026-04-04T10:55:54Z</time></trkpt><trkpt lat="44.098306969544836" lon="10.613769430186212"><ele>1236.0</ele><time>2026-04-04T10:55:55Z</time></trkpt><trkpt lat="44.09823627105801" lon="10.613769448528048"><ele>1236.0</ele><time>2026-04-04T10:55:56Z</time></trkpt><trkpt lat="44.09816744340291" lon="10.613746792132233"><ele>1236.0</ele><time>2026-04-04T10:55:57Z</time></trkpt><trkpt lat="44.09809398922382" lon="10.613715438624572"><ele>1236.0000000000002</ele><time>2026-04-04T10:55:58Z</time></trkpt><trkpt lat="44.09802218527616" lon="10.613663628240898"><ele>1236.0</ele><time>2026-04-04T10:55:59Z</time></trkpt><trkpt lat="44.09795169352375" lon="10.613581678248998"><ele>1232.0</ele><time>2026-04-04T10:56:00Z</time></trkpt><trkpt lat="44.09788309906452" lon="10.61349545757225"><ele>1228.0</ele><time>2026-04-04T10:56:01Z</time></trkpt><trkpt lat="44.09782744146886" lon="10.613408416741695"><ele>1224.0</ele><time>2026-04-04T10:56:02Z</time></trkpt><trkpt lat="44.09777187921509" lon="10.61332834776853"><ele>1220.0</ele><time>2026-04-04T10:56:03Z</time></trkpt><trkpt lat="44.09771416545807" lon="10.613253047697544"><ele>1216.0</ele><time>2026-04-04T10:56:04Z</time></trkpt><trkpt lat="44.09766300471296" lon="10.613189113404337"><ele>1212.0</ele><time>2026-04-04T10:56:05Z</time></trkpt><trkpt lat="44.09761382347726" lon="10.613130538715016"><ele>1212.0</ele><time>2026-04-04T10:56:06Z</time></trkpt><trkpt lat="44.09754756889469" lon="10.612984519744689"><ele>1212.0</ele><time>2026-04-04T10:56:08Z</time></trkpt><trkpt lat="44.09754234955598" lon="10.612887933685359"><ele>1212.0</ele><time>2026-04-04T10:56:09Z</time></trkpt><trkpt lat="44.09757798863023" lon="10.612767338301326"><ele>1212.0</ele><time>2026-04-04T10:56:10Z</time></trkpt><trkpt lat="44.097607790813605" lon="10.61266147943534"><ele>1212.0</ele><time>2026-04-04T10:56:11Z</time></trkpt><trkpt lat="44.097640489113374" lon="10.612561640835976"><ele>1212.0</ele><time>2026-04-04T10:56:12Z</time></trkpt><trkpt lat="44.0976766127868" lon="10.61244547713858"><ele>1211.1666666666667</ele><time>2026-04-04T10:56:13Z</time></trkpt><trkpt lat="44.097708163003226" lon="10.612329473073602"><ele>1210.3333333333333</ele><time>2026-04-04T10:56:14Z</time></trkpt><trkpt lat="44.09773863952064" lon="10.612208576384399"><ele>1209.5</ele><time>2026-04-04T10:56:15Z</time></trkpt><trkpt lat="44.09775972457062" lon="10.61210492388913"><ele>1208.6666666666665</ele><time>2026-04-04T10:56:16Z</time></trkpt><trkpt lat="44.097770702558236" lon="10.611991004362286"><ele>1207.8333333333333</ele><time>2026-04-04T10:56:17Z</time></trkpt><trkpt lat="44.09778169803545" lon="10.611877867390403"><ele>1207.0</ele><time>2026-04-04T10:56:18Z</time></trkpt><trkpt lat="44.09776133082288" lon="10.611781349152048"><ele>1204.3333333333333</ele><time>2026-04-04T10:56:19Z</time></trkpt><trkpt lat="44.09774327485639" lon="10.611667134498544"><ele>1201.6666666666665</ele><time>2026-04-04T10:56:20Z</time></trkpt><trkpt lat="44.09770658133001" lon="10.61157944820625"><ele>1199.0</ele><time>2026-04-04T10:56:21Z</time></trkpt><trkpt lat="44.09764786682873" lon="10.611499795101011"><ele>1196.3333333333333</ele><time>2026-04-04T10:56:22Z</time></trkpt><trkpt lat="44.09757556176032" lon="10.611429710796104"><ele>1193.6666666666667</ele><time>2026-04-04T10:56:23Z</time></trkpt><trkpt lat="44.097507534759515" lon="10.611407602124713"><ele>1191.0</ele><time>2026-04-04T10:56:24Z</time></trkpt><trkpt lat="44.09743354693019" lon="10.611402939147826"><ele>1186.0</ele><time>2026-04-04T10:56:25Z</time></trkpt><trkpt lat="44.09735008091202" lon="10.611408967162927"><ele>1181.0</ele><time>2026-04-04T10:56:26Z</time></trkpt><trkpt lat="44.09728259942839" lon="10.61143597518702"><ele>1176.0</ele><time>2026-04-04T10:56:27Z</time></trkpt><trkpt lat="44.097223462953494" lon="10.611493254848673"><ele>1171.0</ele><time>2026-04-04T10:56:28Z</time></trkpt><trkpt lat="44.097162315631024" lon="10.611556796259626"><ele>1166.0</ele><time>2026-04-04T10:56:29Z</time></trkpt><trkpt lat="44.097104363271704" lon="10.611631786083237"><ele>1161.0</ele><time>2026-04-04T10:56:30Z</time></trkpt><trkpt lat="44.09705173482311" lon="10.611706096476276"><ele>1161.0</ele><time>2026-04-04T10:56:31Z</time></trkpt><trkpt lat="44.09699565688529" lon="10.611799530654679"><ele>1161.0</ele><time>2026-04-04T10:56:32Z</time></trkpt><trkpt lat="44.09692118719597" lon="10.611884814805382"><ele>1161.0</ele><time>2026-04-04T10:56:33Z</time></trkpt><trkpt lat="44.096886104710734" lon="10.611980613345203"><ele>1161.0</ele><time>2026-04-04T10:56:34Z</time></trkpt><trkpt lat="44.096832521968096" lon="10.612062339010572"><ele>1161.0</ele><time>2026-04-04T10:56:35Z</time></trkpt><trkpt lat="44.09677533701121" lon="10.612141749673771"><ele>1161.0</ele><time>2026-04-04T10:56:36Z</time></trkpt><trkpt lat="44.096698869351265" lon="10.612218916919604"><ele>1159.6666666666667</ele><time>2026-04-04T10:56:37Z</time></trkpt><trkpt lat="44.09664115799204" lon="10.61231422885264"><ele>1158.3333333333333</ele><time>2026-04-04T10:56:38Z</time></trkpt><trkpt lat="44.09661492284053" lon="10.612422963548669"><ele>1157.0</ele><time>2026-04-04T10:56:39Z</time></trkpt><trkpt lat="44.09659153865716" lon="10.612534649540132"><ele>1155.6666666666665</ele><time>2026-04-04T10:56:40Z</time></trkpt><trkpt lat="44.09656790139202" lon="10.612643026068408"><ele>1154.3333333333333</ele><time>2026-04-04T10:56:41Z</time></trkpt><trkpt lat="44.096550865893775" lon="10.612744304811315"><ele>1153.0</ele><time>2026-04-04T10:56:42Z</time></trkpt><trkpt lat="44.0965332863148" lon="10.612841887915739"><ele>1157.5</ele><time>2026-04-04T10:56:43Z</time></trkpt><trkpt lat="44.09649446839883" lon="10.612924671969038"><ele>1162.0</ele><time>2026-04-04T10:56:44Z</time></trkpt><trkpt lat="44.096446993146735" lon="10.61299397186325"><ele>1166.5</ele><time>2026-04-04T10:56:45Z</time></trkpt><trkpt lat="44.096385266514666" lon="10.61304271283412"><ele>1171.0</ele><time>2026-04-04T10:56:46Z</time></trkpt><trkpt lat="44.09631580041228" lon="10.61305338620814"><ele>1175.5</ele><time>2026-04-04T10:56:47Z</time></trkpt><trkpt lat="44.09622709493907" lon="10.61304714863482"><ele>1180.0</ele><time>2026-04-04T10:56:48Z</time></trkpt><trkpt lat="44.09613474458966" lon="10.613049873055797"><ele>1180.0</ele><time>2026-04-04T10:56:49Z</time></trkpt><trkpt lat="44.09605781627977" lon="10.613053496101662"><ele>1180.0</ele><time>2026-04-04T10:56:50Z</time></trkpt><trkpt lat="44.09596523070814" lon="10.613094291509825"><ele>1180.0</ele><time>2026-04-04T10:56:51Z</time></trkpt><trkpt lat="44.095885239305105" lon="10.613189533161203"><ele>1180.0</ele><time>2026-04-04T10:56:52Z</time></trkpt><trkpt lat="44.09580597032108" lon="10.613273649031775"><ele>1180.0</ele><time>2026-04-04T10:56:53Z</time></trkpt><trkpt lat="44.09576241187703" lon="10.613381358698538"><ele>1178.0</ele><time>2026-04-04T10:56:54Z</time></trkpt><trkpt lat="44.095676926957665" lon="10.613459173898365"><ele>1176.0</ele><time>2026-04-04T10:56:55Z</time></trkpt><trkpt lat="44.09558348078264" lon="10.61347471551684"><ele>1174.0</ele><time>2026-04-04T10:56:56Z</time></trkpt><trkpt lat="44.095486762904926" lon="10.613452385168921"><ele>1172.0</ele><time>2026-04-04T10:56:57Z</time></trkpt><trkpt lat="44.09539783977286" lon="10.613451848758388"><ele>1170.0</ele><time>2026-04-04T10:56:58Z</time></trkpt><trkpt lat="44.09531994588116" lon="10.61347323609537"><ele>1170.0</ele><time>2026-04-04T10:56:59Z</time></trkpt><trkpt lat="44.0952423822176" lon="10.613487773588915"><ele>1170.0</ele><time>2026-04-04T10:57:00Z</time></trkpt><trkpt lat="44.09516025252473" lon="10.613453798603139"><ele>1170.0</ele><time>2026-04-04T10:57:01Z</time></trkpt><trkpt lat="44.09510544417946" lon="10.613374696211544"><ele>1170.0</ele><time>2026-04-04T10:57:02Z</time></trkpt><trkpt lat="44.095057349266995" lon="10.613274571573431"><ele>1170.0</ele><time>2026-04-04T10:57:03Z</time></trkpt><trkpt lat="44.09500227767376" lon="10.613164895968373"><ele>1170.0</ele><time>2026-04-04T10:57:04Z</time></trkpt><trkpt lat="44.09496338542481" lon="10.613062667974221"><ele>1170.0</ele><time>2026-04-04T10:57:05Z</time></trkpt><trkpt lat="44.09492171133865" lon="10.612971023670724"><ele>1170.0</ele><time>2026-04-04T10:57:06Z</time></trkpt><trkpt lat="44.09486259189105" lon="10.612894076723173"><ele>1170.0</ele><time>2026-04-04T10:57:07Z</time></trkpt><trkpt lat="44.09478538377883" lon="10.612881581696008"><ele>1170.0</ele><time>2026-04-04T10:57:08Z</time></trkpt><trkpt lat="44.09470124881961" lon="10.61291222251501"><ele>1170.0</ele><time>2026-04-04T10:57:09Z</time></trkpt><trkpt lat="44.09462384906265" lon="10.61299026688723"><ele>1170.0</ele><time>2026-04-04T10:57:10Z</time></trkpt><trkpt lat="44.09456708533363" lon="10.613093969003206"><ele>1165.4</ele><time>2026-04-04T10:57:11Z</time></trkpt><trkpt lat="44.0945045702576" lon="10.613199385626825"><ele>1160.8</ele><time>2026-04-04T10:57:12Z</time></trkpt><trkpt lat="44.094446010453495" lon="10.613297763942274"><ele>1156.2</ele><time>2026-04-04T10:57:13Z</time></trkpt><trkpt lat="44.09438863730252" lon="10.613399274717404"><ele>1151.6</ele><time>2026-04-04T10:57:14Z</time></trkpt><trkpt lat="44.0943299254169" lon="10.613502745634898"><ele>1147.0</ele><time>2026-04-04T10:57:15Z</time></trkpt><trkpt lat="44.094262886110926" lon="10.613603046834362"><ele>1145.8</ele><time>2026-04-04T10:57:16Z</time></trkpt><trkpt lat="44.094178692861696" lon="10.613694247395928"><ele>1144.6</ele><time>2026-04-04T10:57:17Z</time></trkpt><trkpt lat="44.094083509407284" lon="10.613759650855716"><ele>1143.3999999999999</ele><time>2026-04-04T10:57:18Z</time></trkpt><trkpt lat="44.09398202208731" lon="10.613811460306339"><ele>1142.2</ele><time>2026-04-04T10:57:19Z</time></trkpt><trkpt lat="44.09388647865309" lon="10.613873750170702"><ele>1141.0</ele><time>2026-04-04T10:57:20Z</time></trkpt><trkpt lat="44.093800959294995" lon="10.613962829370594"><ele>1141.0</ele><time>2026-04-04T10:57:21Z</time></trkpt><trkpt lat="44.09371993165892" lon="10.614073368348961"><ele>1141.0</ele><time>2026-04-04T10:57:22Z</time></trkpt><trkpt lat="44.09364428772302" lon="10.61419109613301"><ele>1141.0</ele><time>2026-04-04T10:57:23Z</time></trkpt><trkpt lat="44.09355538416788" lon="10.614299355785928"><ele>1141.0</ele><time>2026-04-04T10:57:24Z</time></trkpt><trkpt lat="44.0934757191432" lon="10.614423194394128"><ele>1144.8</ele><time>2026-04-04T10:57:25Z</time></trkpt><trkpt lat="44.093395240488206" lon="10.614533562233502"><ele>1148.6</ele><time>2026-04-04T10:57:26Z</time></trkpt><trkpt lat="44.09331953217609" lon="10.614639209913172"><ele>1152.4</ele><time>2026-04-04T10:57:27Z</time></trkpt><trkpt lat="44.09325062380514" lon="10.614736848641284"><ele>1156.2</ele><time>2026-04-04T10:57:28Z</time></trkpt><trkpt lat="44.093187970098015" lon="10.614827147381371"><ele>1160.0</ele><time>2026-04-04T10:57:29Z</time></trkpt><trkpt lat="44.093133384738394" lon="10.614910896087316"><ele>1160.0</ele><time>2026-04-04T10:57:30Z</time></trkpt><trkpt lat="44.093067354393526" lon="10.614968911541125"><ele>1160.0</ele><time>2026-04-04T10:57:31Z</time></trkpt><trkpt lat="44.092986707502" lon="10.61499731686591"><ele>1160.0</ele><time>2026-04-04T10:57:32Z</time></trkpt><trkpt lat="44.09289505227853" lon="10.614968046313528"><ele>1160.0</ele><time>2026-04-04T10:57:33Z</time></trkpt><trkpt lat="44.09279595757191" lon="10.614907202836841"><ele>1160.0</ele><time>2026-04-04T10:57:34Z</time></trkpt><trkpt lat="44.092696275088926" lon="10.614846212678561"><ele>1160.0</ele><time>2026-04-04T10:57:35Z</time></trkpt><trkpt lat="44.09259090595453" lon="10.614781162727658"><ele>1160.0</ele><time>2026-04-04T10:57:36Z</time></trkpt><trkpt lat="44.09246938490224" lon="10.614689364450829"><ele>1160.0</ele><time>2026-04-04T10:57:37Z</time></trkpt><trkpt lat="44.0923676066512" lon="10.614608542834628"><ele>1160.0</ele><time>2026-04-04T10:57:38Z</time></trkpt><trkpt lat="44.09225765995887" lon="10.61450732816915"><ele>1158.4</ele><time>2026-04-04T10:57:39Z</time></trkpt><trkpt lat="44.09218265805488" lon="10.614422539704542"><ele>1156.8</ele><time>2026-04-04T10:57:40Z</time></trkpt><trkpt lat="44.09211451771548" lon="10.614338765219268"><ele>1155.2</ele><time>2026-04-04T10:57:41Z</time></trkpt><trkpt lat="44.09203867386575" lon="10.614256301310355"><ele>1153.6</ele><time>2026-04-04T10:57:42Z</time></trkpt><trkpt lat="44.0919684477381" lon="10.614164317463748"><ele>1152.0</ele><time>2026-04-04T10:57:43Z</time></trkpt><trkpt lat="44.091923778642965" lon="10.614038805194307"><ele>1152.0</ele><time>2026-04-04T10:57:44Z</time></trkpt><trkpt lat="44.09187770833892" lon="10.613897723927677"><ele>1152.0</ele><time>2026-04-04T10:57:45Z</time></trkpt><trkpt lat="44.0918478188905" lon="10.613751825650187"><ele>1152.0</ele><time>2026-04-04T10:57:46Z</time></trkpt><trkpt lat="44.09181011918" lon="10.613591231629659"><ele>1152.0</ele><time>2026-04-04T10:57:47Z</time></trkpt><trkpt lat="44.09175017861487" lon="10.613454084145712"><ele>1152.0</ele><time>2026-04-04T10:57:48Z</time></trkpt><trkpt lat="44.091702889398796" lon="10.613296278245008"><ele>1152.0</ele><time>2026-04-04T10:57:49Z</time></trkpt><trkpt lat="44.091658088572544" lon="10.613143097479146"><ele>1152.0</ele><time>2026-04-04T10:57:50Z</time></trkpt><trkpt lat="44.09161086942482" lon="10.612994083402256"><ele>1152.0</ele><time>2026-04-04T10:57:51Z</time></trkpt><trkpt lat="44.091565602488664" lon="10.61285304374797"><ele>1148.6</ele><time>2026-04-04T10:57:52Z</time></trkpt><trkpt lat="44.09152180673855" lon="10.612710398302772"><ele>1145.2</ele><time>2026-04-04T10:57:53Z</time></trkpt><trkpt lat="44.09148484471477" lon="10.612574317052468"><ele>1141.8</ele><time>2026-04-04T10:57:54Z</time></trkpt><trkpt lat="44.091443160420674" lon="10.612435681257432"><ele>1138.4</ele><time>2026-04-04T10:57:55Z</time></trkpt><trkpt lat="44.09141182785285" lon="10.61230493839516"><ele>1135.0</ele><time>2026-04-04T10:57:56Z</time></trkpt><trkpt lat="44.091380588371656" lon="10.612166951709627"><ele>1135.0</ele><time>2026-04-04T10:57:57Z</time></trkpt><trkpt lat="44.091358780679336" lon="10.612036344664379"><ele>1135.0</ele><time>2026-04-04T10:57:58Z</time></trkpt><trkpt lat="44.091339087814724" lon="10.611906179756158"><ele>1135.0</ele><time>2026-04-04T10:57:59Z</time></trkpt><trkpt lat="44.091322806061385" lon="10.611775284486836"><ele>1135.0</ele><time>2026-04-04T10:58:00Z</time></trkpt><trkpt lat="44.09130307328023" lon="10.611649706564164"><ele>1135.0</ele><time>2026-04-04T10:58:01Z</time></trkpt><trkpt lat="44.091282825532865" lon="10.611515618397416"><ele>1133.0</ele><time>2026-04-04T10:58:02Z</time></trkpt><trkpt lat="44.0912549395106" lon="10.611388539567008"><ele>1131.0</ele><time>2026-04-04T10:58:03Z</time></trkpt><trkpt lat="44.091233063539775" lon="10.611250294450373"><ele>1129.0</ele><time>2026-04-04T10:58:04Z</time></trkpt><trkpt lat="44.091211731889516" lon="10.611117061810758"><ele>1127.0</ele><time>2026-04-04T10:58:05Z</time></trkpt><trkpt lat="44.0911914706132" lon="10.610977048915347"><ele>1125.0</ele><time>2026-04-04T10:58:06Z</time></trkpt><trkpt lat="44.09116353927567" lon="10.610835731752902"><ele>1123.8</ele><time>2026-04-04T10:58:07Z</time></trkpt><trkpt lat="44.09114195258291" lon="10.610694740401692"><ele>1122.6</ele><time>2026-04-04T10:58:08Z</time></trkpt><trkpt lat="44.091125830567606" lon="10.610550320379366"><ele>1121.4</ele><time>2026-04-04T10:58:09Z</time></trkpt><trkpt lat="44.09112175658864" lon="10.610402805293022"><ele>1120.2</ele><time>2026-04-04T10:58:10Z</time></trkpt><trkpt lat="44.09113592273756" lon="10.610249878765057"><ele>1119.0</ele><time>2026-04-04T10:58:11Z</time></trkpt><trkpt lat="44.09116819004638" lon="10.610111159612504"><ele>1116.6000000000001</ele><time>2026-04-04T10:58:12Z</time></trkpt><trkpt lat="44.09120117934958" lon="10.609968909511986"><ele>1114.2</ele><time>2026-04-04T10:58:13Z</time></trkpt><trkpt lat="44.09125262357541" lon="10.60985773788758"><ele>1111.8000000000002</ele><time>2026-04-04T10:58:14Z</time></trkpt><trkpt lat="44.09132696150688" lon="10.60972467759416"><ele>1109.4</ele><time>2026-04-04T10:58:15Z</time></trkpt><trkpt lat="44.09138568651309" lon="10.609595003041303"><ele>1107.0</ele><time>2026-04-04T10:58:16Z</time></trkpt><trkpt lat="44.09140598785874" lon="10.609501363462527"><ele>1105.4</ele><time>2026-04-04T10:58:17Z</time></trkpt><trkpt lat="44.0914427610171" lon="10.609414296651462"><ele>1103.8000000000002</ele><time>2026-04-04T10:58:18Z</time></trkpt><trkpt lat="44.091433138906574" lon="10.609244336258017"><ele>1102.2</ele><time>2026-04-04T10:58:20Z</time></trkpt><trkpt lat="44.09138089574758" lon="10.609162195202826"><ele>1100.6000000000001</ele><time>2026-04-04T10:58:21Z</time></trkpt><trkpt lat="44.09130091879106" lon="10.609096522934598"><ele>1099.0</ele><time>2026-04-04T10:58:22Z</time></trkpt><trkpt lat="44.09120338887249" lon="10.609062695066305"><ele>1099.0</ele><time>2026-04-04T10:58:23Z</time></trkpt><trkpt lat="44.09109687117665" lon="10.60902991513015"><ele>1099.0</ele><time>2026-04-04T10:58:24Z</time></trkpt><trkpt lat="44.09098236110031" lon="10.608998398767456"><ele>1099.0</ele><time>2026-04-04T10:58:25Z</time></trkpt><trkpt lat="44.09086305017137" lon="10.608962086149424"><ele>1099.0</ele><time>2026-04-04T10:58:26Z</time></trkpt><trkpt lat="44.090753283878286" lon="10.608935120382034"><ele>1095.6000000000001</ele><time>2026-04-04T10:58:27Z</time></trkpt><trkpt lat="44.09063629236661" lon="10.608917105376312"><ele>1092.2</ele><time>2026-04-04T10:58:28Z</time></trkpt><trkpt lat="44.09052205895679" lon="10.608902089602223"><ele>1088.8000000000002</ele><time>2026-04-04T10:58:29Z</time></trkpt><trkpt lat="44.09041249587479" lon="10.608892012194818"><ele>1085.4</ele><time>2026-04-04T10:58:30Z</time></trkpt><trkpt lat="44.09030911773128" lon="10.608895151586463"><ele>1082.0</ele><time>2026-04-04T10:58:31Z</time></trkpt><trkpt lat="44.090206189106695" lon="10.608908688502591"><ele>1082.0</ele><time>2026-04-04T10:58:32Z</time></trkpt><trkpt lat="44.090116116348256" lon="10.608924047679624"><ele>1082.0</ele><time>2026-04-04T10:58:33Z</time></trkpt><trkpt lat="44.09005057332086" lon="10.608934097632133"><ele>1082.0</ele><time>2026-04-04T10:58:34Z</time></trkpt><trkpt lat="44.08998796352792" lon="10.608969729804278"><ele>1082.0</ele><time>2026-04-04T10:58:35Z</time></trkpt><trkpt lat="44.08993785609691" lon="10.609152226151012"><ele>1082.0</ele><time>2026-04-04T10:58:37Z</time></trkpt><trkpt lat="44.08994361818195" lon="10.609293393040453"><ele>1082.0</ele><time>2026-04-04T10:58:38Z</time></trkpt><trkpt lat="44.0899563755725" lon="10.609447132128878"><ele>1082.0</ele><time>2026-04-04T10:58:39Z</time></trkpt><trkpt lat="44.089959733747506" lon="10.60959559315597"><ele>1082.0</ele><time>2026-04-04T10:58:40Z</time></trkpt><trkpt lat="44.08996744033222" lon="10.609723065919589"><ele>1082.0</ele><time>2026-04-04T10:58:41Z</time></trkpt><trkpt lat="44.08997759762838" lon="10.609836400312949"><ele>1082.0</ele><time>2026-04-04T10:58:42Z</time></trkpt><trkpt lat="44.08995971724164" lon="10.609947299290079"><ele>1078.8</ele><time>2026-04-04T10:58:43Z</time></trkpt><trkpt lat="44.0899027035992" lon="10.61003109913389"><ele>1075.6</ele><time>2026-04-04T10:58:44Z</time></trkpt><trkpt lat="44.089823063818734" lon="10.610081996260602"><ele>1072.3999999999999</ele><time>2026-04-04T10:58:45Z</time></trkpt><trkpt lat="44.08973962188035" lon="10.610122545900985"><ele>1069.2</ele><time>2026-04-04T10:58:46Z</time></trkpt><trkpt lat="44.08964141339545" lon="10.610151624177611"><ele>1066.0</ele><time>2026-04-04T10:58:47Z</time></trkpt><trkpt lat="44.089540683566916" lon="10.61019393364746"><ele>1066.0</ele><time>2026-04-04T10:58:48Z</time></trkpt><trkpt lat="44.08944245689515" lon="10.610248486914555"><ele>1066.0</ele><time>2026-04-04T10:58:49Z</time></trkpt><trkpt lat="44.08935091331839" lon="10.610330780994305"><ele>1066.0</ele><time>2026-04-04T10:58:50Z</time></trkpt><trkpt lat="44.08927921593556" lon="10.610446456058545"><ele>1066.0</ele><time>2026-04-04T10:58:51Z</time></trkpt><trkpt lat="44.08922175089292" lon="10.610588297655895"><ele>1066.0</ele><time>2026-04-04T10:58:52Z</time></trkpt><trkpt lat="44.08916893627013" lon="10.61073465906924"><ele>1066.75</ele><time>2026-04-04T10:58:53Z</time></trkpt><trkpt lat="44.089111434832" lon="10.610871695496256"><ele>1067.5</ele><time>2026-04-04T10:58:54Z</time></trkpt><trkpt lat="44.089049807925825" lon="10.611010954524934"><ele>1068.25</ele><time>2026-04-04T10:58:55Z</time></trkpt><trkpt lat="44.088970954954746" lon="10.611138041747978"><ele>1069.0</ele><time>2026-04-04T10:58:56Z</time></trkpt><trkpt lat="44.088884726851475" lon="10.611240106048498"><ele>1069.0</ele><time>2026-04-04T10:58:57Z</time></trkpt><trkpt lat="44.08880186282613" lon="10.611324005709456"><ele>1069.0</ele><time>2026-04-04T10:58:58Z</time></trkpt><trkpt lat="44.08875142712597" lon="10.611386673716375"><ele>1069.0</ele><time>2026-04-04T10:58:59Z</time></trkpt><trkpt lat="44.08869454407225" lon="10.611483746624861"><ele>1069.0</ele><time>2026-04-04T10:59:01Z</time></trkpt><trkpt lat="44.08863363885216" lon="10.611459719055892"><ele>1069.0</ele><time>2026-04-04T10:59:03Z</time></trkpt><trkpt lat="44.088622810522295" lon="10.611356378232637"><ele>1069.0</ele><time>2026-04-04T10:59:05Z</time></trkpt><trkpt lat="44.088665956951154" lon="10.611267656114066"><ele>1069.0</ele><time>2026-04-04T10:59:06Z</time></trkpt><trkpt lat="44.088731101277986" lon="10.611158977561976"><ele>1069.0</ele><time>2026-04-04T10:59:07Z</time></trkpt><trkpt lat="44.088804918371295" lon="10.611016193110178"><ele>1069.0</ele><time>2026-04-04T10:59:08Z</time></trkpt><trkpt lat="44.08885310236009" lon="10.61088792134018"><ele>1069.0</ele><time>2026-04-04T10:59:09Z</time></trkpt><trkpt lat="44.08887222129609" lon="10.610743909679178"><ele>1069.0</ele><time>2026-04-04T10:59:10Z</time></trkpt><trkpt lat="44.088890848748605" lon="10.610594713586194"><ele>1067.0</ele><time>2026-04-04T10:59:11Z</time></trkpt><trkpt lat="44.08891466904204" lon="10.610469272115719"><ele>1065.0</ele><time>2026-04-04T10:59:12Z</time></trkpt><trkpt lat="44.08894249467385" lon="10.610354548335929"><ele>1063.0</ele><time>2026-04-04T10:59:13Z</time></trkpt><trkpt lat="44.08896071802745" lon="10.610251369989115"><ele>1061.0</ele><time>2026-04-04T10:59:14Z</time></trkpt><trkpt lat="44.08898004887724" lon="10.610143981876247"><ele>1059.0</ele><time>2026-04-04T10:59:15Z</time></trkpt><trkpt lat="44.08902183666139" lon="10.61004501346556"><ele>1057.0</ele><time>2026-04-04T10:59:16Z</time></trkpt><trkpt lat="44.08905363335559" lon="10.609947102090057"><ele>1056.6666666666665</ele><time>2026-04-04T10:59:17Z</time></trkpt><trkpt lat="44.08912401807976" lon="10.609852271243781"><ele>1056.3333333333333</ele><time>2026-04-04T10:59:18Z</time></trkpt><trkpt lat="44.089191713156914" lon="10.609752086262516"><ele>1056.0</ele><time>2026-04-04T10:59:19Z</time></trkpt><trkpt lat="44.089251982446285" lon="10.609662003692213"><ele>1055.6666666666667</ele><time>2026-04-04T10:59:20Z</time></trkpt><trkpt lat="44.089284987863316" lon="10.609574276453971"><ele>1055.3333333333335</ele><time>2026-04-04T10:59:21Z</time></trkpt><trkpt lat="44.089300079627435" lon="10.609449350919062"><ele>1055.0</ele><time>2026-04-04T10:59:22Z</time></trkpt><trkpt lat="44.089276550978916" lon="10.60929046134498"><ele>1055.0</ele><time>2026-04-04T10:59:23Z</time></trkpt><trkpt lat="44.08923590326729" lon="10.609145126149748"><ele>1055.0</ele><time>2026-04-04T10:59:24Z</time></trkpt><trkpt lat="44.08919795744074" lon="10.609024513848711"><ele>1055.0</ele><time>2026-04-04T10:59:25Z</time></trkpt><trkpt lat="44.089195216387594" lon="10.608904570663624"><ele>1055.0</ele><time>2026-04-04T10:59:26Z</time></trkpt><trkpt lat="44.08922228222732" lon="10.6087814253072"><ele>1055.0</ele><time>2026-04-04T10:59:27Z</time></trkpt><trkpt lat="44.08925822595935" lon="10.608654362439987"><ele>1052.4</ele><time>2026-04-04T10:59:28Z</time></trkpt><trkpt lat="44.089301240826906" lon="10.608520565375635"><ele>1049.8</ele><time>2026-04-04T10:59:29Z</time></trkpt><trkpt lat="44.08933772024015" lon="10.608398617717956"><ele>1047.2</ele><time>2026-04-04T10:59:30Z</time></trkpt><trkpt lat="44.08938540511192" lon="10.608301257944037"><ele>1044.6</ele><time>2026-04-04T10:59:31Z</time></trkpt><trkpt lat="44.08945595736921" lon="10.608217617611444"><ele>1042.0</ele><time>2026-04-04T10:59:32Z</time></trkpt><trkpt lat="44.08954491551069" lon="10.608149669633603"><ele>1042.0</ele><time>2026-04-04T10:59:33Z</time></trkpt><trkpt lat="44.08963856812981" lon="10.60808736204998"><ele>1042.0</ele><time>2026-04-04T10:59:34Z</time></trkpt><trkpt lat="44.089733123712534" lon="10.60801826020786"><ele>1042.0</ele><time>2026-04-04T10:59:35Z</time></trkpt><trkpt lat="44.08982350961274" lon="10.607946353794116"><ele>1042.0</ele><time>2026-04-04T10:59:36Z</time></trkpt><trkpt lat="44.0899151796347" lon="10.607879398224053"><ele>1042.0</ele><time>2026-04-04T10:59:37Z</time></trkpt><trkpt lat="44.090005227802514" lon="10.60781158145892"><ele>1040.0</ele><time>2026-04-04T10:59:38Z</time></trkpt><trkpt lat="44.09009845097748" lon="10.607752943949492"><ele>1038.0</ele><time>2026-04-04T10:59:39Z</time></trkpt><trkpt lat="44.090177317394144" lon="10.607702599118465"><ele>1036.0</ele><time>2026-04-04T10:59:40Z</time></trkpt><trkpt lat="44.09027191282257" lon="10.607667361906877"><ele>1034.0</ele><time>2026-04-04T10:59:41Z</time></trkpt><trkpt lat="44.09037437223601" lon="10.60765854234893"><ele>1032.0</ele><time>2026-04-04T10:59:42Z</time></trkpt><trkpt lat="44.090486717180084" lon="10.607660874270223"><ele>1032.0</ele><time>2026-04-04T10:59:43Z</time></trkpt><trkpt lat="44.090588257621334" lon="10.60767120046487"><ele>1032.0</ele><time>2026-04-04T10:59:44Z</time></trkpt><trkpt lat="44.09069695216786" lon="10.607687122946292"><ele>1032.0</ele><time>2026-04-04T10:59:45Z</time></trkpt><trkpt lat="44.09079972028707" lon="10.607690864041777"><ele>1032.0</ele><time>2026-04-04T10:59:46Z</time></trkpt><trkpt lat="44.090906836499" lon="10.607673594724494"><ele>1032.0</ele><time>2026-04-04T10:59:47Z</time></trkpt><trkpt lat="44.09100968479813" lon="10.607668145339037"><ele>1031.75</ele><time>2026-04-04T10:59:48Z</time></trkpt><trkpt lat="44.091123135382425" lon="10.607661580308509"><ele>1031.5</ele><time>2026-04-04T10:59:49Z</time></trkpt><trkpt lat="44.091222952736544" lon="10.607644898163272"><ele>1031.25</ele><time>2026-04-04T10:59:50Z</time></trkpt><trkpt lat="44.0913501814167" lon="10.607589937634412"><ele>1031.0</ele><time>2026-04-04T10:59:51Z</time></trkpt><trkpt lat="44.09146527612234" lon="10.607533181190236"><ele>1031.0</ele><time>2026-04-04T10:59:52Z</time></trkpt><trkpt lat="44.09157101874589" lon="10.60748823025022"><ele>1031.0</ele><time>2026-04-04T10:59:53Z</time></trkpt><trkpt lat="44.0916661698363" lon="10.607452217925625"><ele>1031.0</ele><time>2026-04-04T10:59:54Z</time></trkpt><trkpt lat="44.0917716786474" lon="10.607413421571358"><ele>1031.0</ele><time>2026-04-04T10:59:55Z</time></trkpt><trkpt lat="44.09187373934022" lon="10.60739533689238"><ele>1031.0</ele><time>2026-04-04T10:59:56Z</time></trkpt><trkpt lat="44.09199086815387" lon="10.607390127681487"><ele>1031.0</ele><time>2026-04-04T10:59:57Z</time></trkpt><trkpt lat="44.092096918417205" lon="10.607393370812668"><ele>1031.0</ele><time>2026-04-04T10:59:58Z</time></trkpt><trkpt lat="44.092193867736924" lon="10.607386924488655"><ele>1031.0</ele><time>2026-04-04T10:59:59Z</time></trkpt><trkpt lat="44.09228308566059" lon="10.607395269268022"><ele>1031.0</ele><time>2026-04-04T11:00:00Z</time></trkpt><trkpt lat="44.092379899262085" lon="10.607437410338424"><ele>1031.0</ele><time>2026-04-04T11:00:01Z</time></trkpt><trkpt lat="44.09248657980516" lon="10.607498435040297"><ele>1031.0</ele><time>2026-04-04T11:00:02Z</time></trkpt><trkpt lat="44.092594386501766" lon="10.607590513985995"><ele>1031.0</ele><time>2026-04-04T11:00:03Z</time></trkpt><trkpt lat="44.092713902075694" lon="10.607683810575528"><ele>1031.0</ele><time>2026-04-04T11:00:04Z</time></trkpt><trkpt lat="44.09283525352477" lon="10.607735506707638"><ele>1031.0</ele><time>2026-04-04T11:00:05Z</time></trkpt><trkpt lat="44.09295169098705" lon="10.607781782726311"><ele>1031.0</ele><time>2026-04-04T11:00:06Z</time></trkpt><trkpt lat="44.093063251850225" lon="10.607818924601865"><ele>1031.0</ele><time>2026-04-04T11:00:07Z</time></trkpt><trkpt lat="44.09317946641067" lon="10.607844664382164"><ele>1031.0</ele><time>2026-04-04T11:00:08Z</time></trkpt><trkpt lat="44.093275528834305" lon="10.607885612326463"><ele>1031.0</ele><time>2026-04-04T11:00:09Z</time></trkpt><trkpt lat="44.0933504092331" lon="10.60792004985974"><ele>1031.0</ele><time>2026-04-04T11:00:10Z</time></trkpt><trkpt lat="44.09343953745287" lon="10.607938906031642"><ele>1031.6</ele><time>2026-04-04T11:00:11Z</time></trkpt><trkpt lat="44.093555130970074" lon="10.607955716406922"><ele>1032.1999999999998</ele><time>2026-04-04T11:00:13Z</time></trkpt><trkpt lat="44.093639067932074" lon="10.607871333596357"><ele>1032.8000000000002</ele><time>2026-04-04T11:00:15Z</time></trkpt><trkpt lat="44.09362021273894" lon="10.60778532682744"><ele>1033.4</ele><time>2026-04-04T11:00:16Z</time></trkpt><trkpt lat="44.093555748264755" lon="10.607718846577038"><ele>1034.0</ele><time>2026-04-04T11:00:17Z</time></trkpt><trkpt lat="44.09346433826032" lon="10.607684673486103"><ele>1033.4</ele><time>2026-04-04T11:00:18Z</time></trkpt><trkpt lat="44.09335750974055" lon="10.607661258620292"><ele>1032.8000000000002</ele><time>2026-04-04T11:00:19Z</time></trkpt><trkpt lat="44.09324730765926" lon="10.60762605440917"><ele>1032.1999999999998</ele><time>2026-04-04T11:00:20Z</time></trkpt><trkpt lat="44.093139147030634" lon="10.607584444455346"><ele>1031.6</ele><time>2026-04-04T11:00:21Z</time></trkpt><trkpt lat="44.09303651832167" lon="10.607529589869905"><ele>1031.0</ele><time>2026-04-04T11:00:22Z</time></trkpt><trkpt lat="44.092945628125676" lon="10.607443126288127"><ele>1031.0</ele><time>2026-04-04T11:00:23Z</time></trkpt><trkpt lat="44.092872472452186" lon="10.607337097164748"><ele>1031.0</ele><time>2026-04-04T11:00:24Z</time></trkpt><trkpt lat="44.09281450096117" lon="10.6072208617025"><ele>1031.0</ele><time>2026-04-04T11:00:25Z</time></trkpt><trkpt lat="44.092761200276904" lon="10.607118584964715"><ele>1031.0</ele><time>2026-04-04T11:00:26Z</time></trkpt><trkpt lat="44.092691889374514" lon="10.607041425938004"><ele>1031.0</ele><time>2026-04-04T11:00:27Z</time></trkpt><trkpt lat="44.092593303594626" lon="10.6070010728213"><ele>1022.0</ele><time>2026-04-04T11:00:28Z</time></trkpt><trkpt lat="44.09248368977814" lon="10.606974605285822"><ele>1013.0</ele><time>2026-04-04T11:00:29Z</time></trkpt><trkpt lat="44.09236197378177" lon="10.606946131623594"><ele>1004.0</ele><time>2026-04-04T11:00:30Z</time></trkpt><trkpt lat="44.09223801596162" lon="10.606915571358911"><ele>995.0</ele><time>2026-04-04T11:00:31Z</time></trkpt><trkpt lat="44.09212108782099" lon="10.606883688169585"><ele>995.0</ele><time>2026-04-04T11:00:32Z</time></trkpt><trkpt lat="44.09200440280442" lon="10.606857298123026"><ele>995.0</ele><time>2026-04-04T11:00:33Z</time></trkpt><trkpt lat="44.091882415672735" lon="10.606844130005646"><ele>995.0</ele><time>2026-04-04T11:00:34Z</time></trkpt><trkpt lat="44.09175284565957" lon="10.60685474849649"><ele>995.0</ele><time>2026-04-04T11:00:35Z</time></trkpt><trkpt lat="44.09161801487337" lon="10.60686448661279"><ele>995.0</ele><time>2026-04-04T11:00:36Z</time></trkpt><trkpt lat="44.091481612672276" lon="10.606889447337634"><ele>995.0</ele><time>2026-04-04T11:00:37Z</time></trkpt><trkpt lat="44.09135464635588" lon="10.606893867506525"><ele>995.0</ele><time>2026-04-04T11:00:38Z</time></trkpt><trkpt lat="44.09123089056328" lon="10.606896311299712"><ele>995.0</ele><time>2026-04-04T11:00:39Z</time></trkpt><trkpt lat="44.09110712734722" lon="10.606897249773244"><ele>995.0</ele><time>2026-04-04T11:00:40Z</time></trkpt><trkpt lat="44.09098934766276" lon="10.606888789481332"><ele>995.0</ele><time>2026-04-04T11:00:41Z</time></trkpt><trkpt lat="44.090878231457836" lon="10.60684981208035"><ele>995.0</ele><time>2026-04-04T11:00:42Z</time></trkpt><trkpt lat="44.09077162222292" lon="10.60677772032362"><ele>995.0</ele><time>2026-04-04T11:00:43Z</time></trkpt><trkpt lat="44.09066459412417" lon="10.606683710274966"><ele>995.5</ele><time>2026-04-04T11:00:44Z</time></trkpt><trkpt lat="44.090559724635256" lon="10.606584292528492"><ele>996.0</ele><time>2026-04-04T11:00:45Z</time></trkpt><trkpt lat="44.090448714601216" lon="10.606505472640258"><ele>996.5</ele><time>2026-04-04T11:00:46Z</time></trkpt><trkpt lat="44.09033652896937" lon="10.6064472955322"><ele>997.0</ele><time>2026-04-04T11:00:47Z</time></trkpt><trkpt lat="44.09022776631257" lon="10.606390811513336"><ele>997.0</ele><time>2026-04-04T11:00:48Z</time></trkpt><trkpt lat="44.09012936578151" lon="10.606337831518083"><ele>997.0</ele><time>2026-04-04T11:00:49Z</time></trkpt><trkpt lat="44.09004771446319" lon="10.606305420233115"><ele>997.0</ele><time>2026-04-04T11:00:50Z</time></trkpt><trkpt lat="44.08996330385613" lon="10.606289478362495"><ele>997.0</ele><time>2026-04-04T11:00:51Z</time></trkpt><trkpt lat="44.08986794675547" lon="10.606318096863147"><ele>997.0</ele><time>2026-04-04T11:00:52Z</time></trkpt><trkpt lat="44.089759069947455" lon="10.606379841336247"><ele>994.75</ele><time>2026-04-04T11:00:53Z</time></trkpt><trkpt lat="44.08964221190734" lon="10.606445459075205"><ele>992.5</ele><time>2026-04-04T11:00:54Z</time></trkpt><trkpt lat="44.08950913766897" lon="10.606470990415394"><ele>990.25</ele><time>2026-04-04T11:00:55Z</time></trkpt><trkpt lat="44.08937120258002" lon="10.60646003970682"><ele>988.0</ele><time>2026-04-04T11:00:56Z</time></trkpt><trkpt lat="44.08925093964343" lon="10.606436496087863"><ele>988.0</ele><time>2026-04-04T11:00:57Z</time></trkpt><trkpt lat="44.08914489394686" lon="10.606420507096887"><ele>988.0</ele><time>2026-04-04T11:00:58Z</time></trkpt><trkpt lat="44.08903190103362" lon="10.606416333557055"><ele>988.0</ele><time>2026-04-04T11:00:59Z</time></trkpt><trkpt lat="44.08893210017828" lon="10.606446126419064"><ele>988.0</ele><time>2026-04-04T11:01:00Z</time></trkpt><trkpt lat="44.08885936853083" lon="10.606506673828468"><ele>988.0</ele><time>2026-04-04T11:01:01Z</time></trkpt><trkpt lat="44.088808158299265" lon="10.606580894432268"><ele>986.3333333333333</ele><time>2026-04-04T11:01:02Z</time></trkpt><trkpt lat="44.08873284175119" lon="10.606621434319868"><ele>984.6666666666666</ele><time>2026-04-04T11:01:04Z</time></trkpt><trkpt lat="44.088726078498624" lon="10.606477820647239"><ele>983.0</ele><time>2026-04-04T11:01:06Z</time></trkpt><trkpt lat="44.0887882468074" lon="10.606396545242362"><ele>981.3333333333333</ele><time>2026-04-04T11:01:07Z</time></trkpt><trkpt lat="44.08885326820628" lon="10.606313074082493"><ele>979.6666666666666</ele><time>2026-04-04T11:01:08Z</time></trkpt><trkpt lat="44.08891293251259" lon="10.606222714760431"><ele>978.0</ele><time>2026-04-04T11:01:09Z</time></trkpt><trkpt lat="44.088969572298645" lon="10.606137711352915"><ele>976.6666666666666</ele><time>2026-04-04T11:01:10Z</time></trkpt><trkpt lat="44.0890280333616" lon="10.606045743862156"><ele>975.3333333333333</ele><time>2026-04-04T11:01:11Z</time></trkpt><trkpt lat="44.08908332584487" lon="10.605952084938446"><ele>974.0</ele><time>2026-04-04T11:01:12Z</time></trkpt><trkpt lat="44.089132286985304" lon="10.605864542438766"><ele>972.6666666666666</ele><time>2026-04-04T11:01:13Z</time></trkpt><trkpt lat="44.08917729948252" lon="10.605781666145399"><ele>971.3333333333333</ele><time>2026-04-04T11:01:14Z</time></trkpt><trkpt lat="44.08923127364398" lon="10.60570124051071"><ele>970.0</ele><time>2026-04-04T11:01:15Z</time></trkpt><trkpt lat="44.08930252215897" lon="10.60563891984728"><ele>970.0</ele><time>2026-04-04T11:01:16Z</time></trkpt><trkpt lat="44.089380257939126" lon="10.605601604262267"><ele>970.0</ele><time>2026-04-04T11:01:17Z</time></trkpt><trkpt lat="44.08947977396809" lon="10.60558497026582"><ele>970.0</ele><time>2026-04-04T11:01:18Z</time></trkpt><trkpt lat="44.08959708398098" lon="10.605601300445283"><ele>970.0</ele><time>2026-04-04T11:01:19Z</time></trkpt><trkpt lat="44.08971916375548" lon="10.605627351543376"><ele>970.0</ele><time>2026-04-04T11:01:20Z</time></trkpt><trkpt lat="44.089843631378855" lon="10.605647840383316"><ele>970.0</ele><time>2026-04-04T11:01:21Z</time></trkpt><trkpt lat="44.08996678767387" lon="10.60565847472029"><ele>970.0</ele><time>2026-04-04T11:01:22Z</time></trkpt><trkpt lat="44.090082297354186" lon="10.605667022071934"><ele>970.0</ele><time>2026-04-04T11:01:23Z</time></trkpt><trkpt lat="44.09019342441844" lon="10.605673794931194"><ele>970.0</ele><time>2026-04-04T11:01:24Z</time></trkpt><trkpt lat="44.09028822988046" lon="10.605679226487824"><ele>970.0</ele><time>2026-04-04T11:01:25Z</time></trkpt><trkpt lat="44.090365643908235" lon="10.605686238588044"><ele>970.0</ele><time>2026-04-04T11:01:26Z</time></trkpt><trkpt lat="44.090470049946084" lon="10.605706195727782"><ele>970.0</ele><time>2026-04-04T11:01:28Z</time></trkpt><trkpt lat="44.09053163090442" lon="10.605630184499548"><ele>970.0</ele><time>2026-04-04T11:01:30Z</time></trkpt><trkpt lat="44.09045053791869" lon="10.60551175307351"><ele>970.0</ele><time>2026-04-04T11:01:32Z</time></trkpt><trkpt lat="44.09036612883449" lon="10.605495959732618"><ele>970.0</ele><time>2026-04-04T11:01:33Z</time></trkpt><trkpt lat="44.09026545919473" lon="10.605484476581363"><ele>969.9999999999999</ele><time>2026-04-04T11:01:34Z</time></trkpt><trkpt lat="44.09016372566284" lon="10.605464374809797"><ele>970.0</ele><time>2026-04-04T11:01:35Z</time></trkpt><trkpt lat="44.09007178871406" lon="10.605438831854194"><ele>970.0</ele><time>2026-04-04T11:01:36Z</time></trkpt><trkpt lat="44.08999248014083" lon="10.605416468165279"><ele>970.0</ele><time>2026-04-04T11:01:37Z</time></trkpt><trkpt lat="44.08992142634344" lon="10.605366026542155"><ele>969.9999999999999</ele><time>2026-04-04T11:01:38Z</time></trkpt><trkpt lat="44.08986427577099" lon="10.605296801504435"><ele>970.0</ele><time>2026-04-04T11:01:39Z</time></trkpt><trkpt lat="44.089823050371876" lon="10.605185594918952"><ele>968.0</ele><time>2026-04-04T11:01:40Z</time></trkpt><trkpt lat="44.089793938132296" lon="10.605059342063326"><ele>966.0</ele><time>2026-04-04T11:01:41Z</time></trkpt><trkpt lat="44.089776024760255" lon="10.60494288310817"><ele>964.0</ele><time>2026-04-04T11:01:42Z</time></trkpt><trkpt lat="44.08973672460187" lon="10.60485383115813"><ele>962.0</ele><time>2026-04-04T11:01:43Z</time></trkpt><trkpt lat="44.08965978679459" lon="10.604800384740537"><ele>960.0</ele><time>2026-04-04T11:01:44Z</time></trkpt><trkpt lat="44.089548995504806" lon="10.604779623960308"><ele>960.0</ele><time>2026-04-04T11:01:45Z</time></trkpt><trkpt lat="44.08942075758016" lon="10.604778401174102"><ele>960.0</ele><time>2026-04-04T11:01:46Z</time></trkpt><trkpt lat="44.08928972875647" lon="10.604762873345376"><ele>960.0</ele><time>2026-04-04T11:01:47Z</time></trkpt><trkpt lat="44.08915378258669" lon="10.604738158399428"><ele>960.0</ele><time>2026-04-04T11:01:48Z</time></trkpt><trkpt lat="44.08902744384258" lon="10.604713938960723"><ele>956.4</ele><time>2026-04-04T11:01:49Z</time></trkpt><trkpt lat="44.08890943445858" lon="10.604699481726463"><ele>952.8</ele><time>2026-04-04T11:01:50Z</time></trkpt><trkpt lat="44.088797097236935" lon="10.60470223995305"><ele>949.2</ele><time>2026-04-04T11:01:51Z</time></trkpt><trkpt lat="44.08869703187374" lon="10.60472868085365"><ele>945.6</ele><time>2026-04-04T11:01:52Z</time></trkpt><trkpt lat="44.08860749491722" lon="10.604777138026956"><ele>942.0</ele><time>2026-04-04T11:01:53Z</time></trkpt><trkpt lat="44.08853095848842" lon="10.604864293066699"><ele>942.0</ele><time>2026-04-04T11:01:54Z</time></trkpt><trkpt lat="44.08848757966009" lon="10.604979792148626"><ele>942.0</ele><time>2026-04-04T11:01:55Z</time></trkpt><trkpt lat="44.08848000613324" lon="10.605079811275642"><ele>942.0</ele><time>2026-04-04T11:01:56Z</time></trkpt><trkpt lat="44.088414522583854" lon="10.605122638012126"><ele>942.0</ele><time>2026-04-04T11:01:58Z</time></trkpt><trkpt lat="44.088400250598184" lon="10.604952460832303"><ele>942.0</ele><time>2026-04-04T11:02:00Z</time></trkpt><trkpt lat="44.08843809843218" lon="10.604842313642616"><ele>942.0</ele><time>2026-04-04T11:02:01Z</time></trkpt><trkpt lat="44.08848726878512" lon="10.604711664873362"><ele>942.0</ele><time>2026-04-04T11:02:02Z</time></trkpt><trkpt lat="44.088526426166126" lon="10.60456492242612"><ele>942.0</ele><time>2026-04-04T11:02:03Z</time></trkpt><trkpt lat="44.08856791652057" lon="10.604412300058444"><ele>942.0</ele><time>2026-04-04T11:02:04Z</time></trkpt><trkpt lat="44.0886154641311" lon="10.604283295867747"><ele>942.0</ele><time>2026-04-04T11:02:05Z</time></trkpt><trkpt lat="44.08868629403971" lon="10.604186096230848"><ele>942.0</ele><time>2026-04-04T11:02:06Z</time></trkpt><trkpt lat="44.08876712958231" lon="10.604106248566389"><ele>940.6</ele><time>2026-04-04T11:02:07Z</time></trkpt><trkpt lat="44.08884334623881" lon="10.604042241036515"><ele>939.2</ele><time>2026-04-04T11:02:08Z</time></trkpt><trkpt lat="44.08892877371364" lon="10.603995774850643"><ele>937.8</ele><time>2026-04-04T11:02:09Z</time></trkpt><trkpt lat="44.08901936622184" lon="10.603971592609284"><ele>936.4</ele><time>2026-04-04T11:02:10Z</time></trkpt><trkpt lat="44.08911630662626" lon="10.60397353028598"><ele>935.0</ele><time>2026-04-04T11:02:11Z</time></trkpt><trkpt lat="44.0892170725073" lon="10.603991330462716"><ele>935.0</ele><time>2026-04-04T11:02:12Z</time></trkpt><trkpt lat="44.08932495471803" lon="10.604010099696968"><ele>935.0</ele><time>2026-04-04T11:02:13Z</time></trkpt><trkpt lat="44.08943201613402" lon="10.604012567081353"><ele>935.0</ele><time>2026-04-04T11:02:14Z</time></trkpt><trkpt lat="44.089536305243755" lon="10.60399920965284"><ele>935.0</ele><time>2026-04-04T11:02:15Z</time></trkpt><trkpt lat="44.08963158098604" lon="10.603962750275784"><ele>935.0</ele><time>2026-04-04T11:02:16Z</time></trkpt><trkpt lat="44.089723217112294" lon="10.603913102305649"><ele>935.0</ele><time>2026-04-04T11:02:17Z</time></trkpt><trkpt lat="44.08980746246589" lon="10.603868067041637"><ele>935.0</ele><time>2026-04-04T11:02:18Z</time></trkpt><trkpt lat="44.08987732503837" lon="10.60383606432963"><ele>935.0</ele><time>2026-04-04T11:02:19Z</time></trkpt><trkpt lat="44.089951878955716" lon="10.60375524305878"><ele>935.0</ele><time>2026-04-04T11:02:21Z</time></trkpt><trkpt lat="44.089869152424335" lon="10.603627882170082"><ele>935.0</ele><time>2026-04-04T11:02:23Z</time></trkpt><trkpt lat="44.089794321841545" lon="10.603652149827047"><ele>935.0000000000001</ele><time>2026-04-04T11:02:24Z</time></trkpt><trkpt lat="44.0897149253822" lon="10.60368896788037"><ele>935.0</ele><time>2026-04-04T11:02:25Z</time></trkpt><trkpt lat="44.08963251658471" lon="10.603700020545704"><ele>935.0</ele><time>2026-04-04T11:02:26Z</time></trkpt><trkpt lat="44.089547944223476" lon="10.603692040642404"><ele>935.0</ele><time>2026-04-04T11:02:27Z</time></trkpt><trkpt lat="44.089462588416296" lon="10.603657541950035"><ele>935.0000000000001</ele><time>2026-04-04T11:02:28Z</time></trkpt><trkpt lat="44.089401231921016" lon="10.603581390692332"><ele>935.0</ele><time>2026-04-04T11:02:29Z</time></trkpt><trkpt lat="44.08934986817363" lon="10.603495745888875"><ele>932.3333333333334</ele><time>2026-04-04T11:02:30Z</time></trkpt><trkpt lat="44.089309482429265" lon="10.603367208696355"><ele>929.6666666666667</ele><time>2026-04-04T11:02:31Z</time></trkpt><trkpt lat="44.08928235954409" lon="10.60325742301267"><ele>927.0</ele><time>2026-04-04T11:02:32Z</time></trkpt><trkpt lat="44.089254512579835" lon="10.603170273688828"><ele>924.3333333333333</ele><time>2026-04-04T11:02:33Z</time></trkpt><trkpt lat="44.08919682024829" lon="10.603117782698902"><ele>921.6666666666666</ele><time>2026-04-04T11:02:34Z</time></trkpt><trkpt lat="44.089112423665824" lon="10.603100707755521"><ele>919.0</ele><time>2026-04-04T11:02:35Z</time></trkpt><trkpt lat="44.0890101032665" lon="10.60312228564642"><ele>917.5</ele><time>2026-04-04T11:02:36Z</time></trkpt><trkpt lat="44.0888987646472" lon="10.603171853860813"><ele>916.0</ele><time>2026-04-04T11:02:37Z</time></trkpt><trkpt lat="44.088784938555214" lon="10.603241134735189"><ele>914.5</ele><time>2026-04-04T11:02:38Z</time></trkpt><trkpt lat="44.08867387932707" lon="10.603316571393385"><ele>913.0</ele><time>2026-04-04T11:02:39Z</time></trkpt><trkpt lat="44.0885615802827" lon="10.603367192915337"><ele>913.0</ele><time>2026-04-04T11:02:40Z</time></trkpt><trkpt lat="44.08844366753866" lon="10.603381372074333"><ele>913.0</ele><time>2026-04-04T11:02:41Z</time></trkpt><trkpt lat="44.08831556005255" lon="10.603362670386488"><ele>913.0</ele><time>2026-04-04T11:02:42Z</time></trkpt><trkpt lat="44.08819280081238" lon="10.603346212869484"><ele>913.0</ele><time>2026-04-04T11:02:43Z</time></trkpt><trkpt lat="44.08807456154496" lon="10.603338566199884"><ele>907.9999999999999</ele><time>2026-04-04T11:02:44Z</time></trkpt><trkpt lat="44.08797148058366" lon="10.603338934616412"><ele>903.0</ele><time>2026-04-04T11:02:45Z</time></trkpt><trkpt lat="44.08788632955268" lon="10.603369597633394"><ele>898.0</ele><time>2026-04-04T11:02:46Z</time></trkpt><trkpt lat="44.08782476945399" lon="10.603408347071419"><ele>893.0</ele><time>2026-04-04T11:02:47Z</time></trkpt><trkpt lat="44.087744066569265" lon="10.603392292127129"><ele>887.9999999999999</ele><time>2026-04-04T11:02:49Z</time></trkpt><trkpt lat="44.087755654481256" lon="10.603283119056192"><ele>883.0</ele><time>2026-04-04T11:02:51Z</time></trkpt><trkpt lat="44.08780825967388" lon="10.603224271125951"><ele>883.0</ele><time>2026-04-04T11:02:52Z</time></trkpt><trkpt lat="44.08789810074277" lon="10.603188468243165"><ele>883.0</ele><time>2026-04-04T11:02:53Z</time></trkpt><trkpt lat="44.08801020796063" lon="10.603135368058592"><ele>883.0</ele><time>2026-04-04T11:02:54Z</time></trkpt><trkpt lat="44.08810393364461" lon="10.603089359047749"><ele>883.0</ele><time>2026-04-04T11:02:55Z</time></trkpt><trkpt lat="44.08820234702041" lon="10.603062308504901"><ele>883.0</ele><time>2026-04-04T11:02:56Z</time></trkpt><trkpt lat="44.088295490935685" lon="10.60304361380456"><ele>882.0</ele><time>2026-04-04T11:02:57Z</time></trkpt><trkpt lat="44.0883857482005" lon="10.603026166946842"><ele>881.0</ele><time>2026-04-04T11:02:58Z</time></trkpt><trkpt lat="44.08846343987252" lon="10.602994387419349"><ele>880.0</ele><time>2026-04-04T11:02:59Z</time></trkpt><trkpt lat="44.08856905101936" lon="10.60293797634907"><ele>879.0</ele><time>2026-04-04T11:03:01Z</time></trkpt><trkpt lat="44.08857066932421" lon="10.602817536409667"><ele>878.0</ele><time>2026-04-04T11:03:03Z</time></trkpt><trkpt lat="44.08843284126967" lon="10.602809343215343"><ele>878.8333333333334</ele><time>2026-04-04T11:03:05Z</time></trkpt><trkpt lat="44.08835828021012" lon="10.602850830786569"><ele>879.6666666666667</ele><time>2026-04-04T11:03:06Z</time></trkpt><trkpt lat="44.088278562233086" lon="10.602879930422326"><ele>880.5</ele><time>2026-04-04T11:03:07Z</time></trkpt><trkpt lat="44.08821204112063" lon="10.602897381220592"><ele>881.3333333333333</ele><time>2026-04-04T11:03:08Z</time></trkpt><trkpt lat="44.08814213187231" lon="10.602916296744358"><ele>882.1666666666666</ele><time>2026-04-04T11:03:09Z</time></trkpt><trkpt lat="44.08805593341731" lon="10.602935387333167"><ele>883.0</ele><time>2026-04-04T11:03:10Z</time></trkpt><trkpt lat="44.087975772921844" lon="10.602953949703199"><ele>882.9999999999999</ele><time>2026-04-04T11:03:11Z</time></trkpt><trkpt lat="44.08789868853745" lon="10.60296885255707"><ele>883.0</ele><time>2026-04-04T11:03:12Z</time></trkpt><trkpt lat="44.08781443824255" lon="10.602995045158284"><ele>883.0</ele><time>2026-04-04T11:03:13Z</time></trkpt><trkpt lat="44.08772421879179" lon="10.603016372708375"><ele>883.0</ele><time>2026-04-04T11:03:14Z</time></trkpt><trkpt lat="44.08764085961213" lon="10.603058890993402"><ele>882.9999999999999</ele><time>2026-04-04T11:03:15Z</time></trkpt><trkpt lat="44.08756340656397" lon="10.603104139985616"><ele>883.0</ele><time>2026-04-04T11:03:16Z</time></trkpt><trkpt lat="44.087497676457076" lon="10.603164363185568"><ele>883.0</ele><time>2026-04-04T11:03:17Z</time></trkpt><trkpt lat="44.08745082382012" lon="10.603241909955685"><ele>883.0</ele><time>2026-04-04T11:03:18Z</time></trkpt><trkpt lat="44.087417811815286" lon="10.603343295008871"><ele>883.0</ele><time>2026-04-04T11:03:19Z</time></trkpt><trkpt lat="44.08741451218274" lon="10.60347479551343"><ele>883.0</ele><time>2026-04-04T11:03:20Z</time></trkpt><trkpt lat="44.08741369392578" lon="10.603625556217281"><ele>883.0</ele><time>2026-04-04T11:03:21Z</time></trkpt><trkpt lat="44.08741270682645" lon="10.603768802188599"><ele>884.0</ele><time>2026-04-04T11:03:22Z</time></trkpt><trkpt lat="44.087409255632345" lon="10.603895049820503"><ele>885.0</ele><time>2026-04-04T11:03:23Z</time></trkpt><trkpt lat="44.08742937434959" lon="10.604004373493913"><ele>886.0</ele><time>2026-04-04T11:03:24Z</time></trkpt><trkpt lat="44.08736488099911" lon="10.604077356451405"><ele>887.0</ele><time>2026-04-04T11:03:27Z</time></trkpt><trkpt lat="44.08732333524266" lon="10.603917677964967"><ele>888.0</ele><time>2026-04-04T11:03:29Z</time></trkpt><trkpt lat="44.087337872047506" lon="10.6037832167001"><ele>877.2</ele><time>2026-04-04T11:03:30Z</time></trkpt><trkpt lat="44.087347177525714" lon="10.603626059495406"><ele>866.4</ele><time>2026-04-04T11:03:31Z</time></trkpt><trkpt lat="44.087335527625726" lon="10.603444726977694"><ele>855.6</ele><time>2026-04-04T11:03:32Z</time></trkpt><trkpt lat="44.08732651747685" lon="10.60329371887572"><ele>844.8000000000001</ele><time>2026-04-04T11:03:33Z</time></trkpt><trkpt lat="44.08734365466297" lon="10.603168449599718"><ele>834.0</ele><time>2026-04-04T11:03:34Z</time></trkpt><trkpt lat="44.087367907178695" lon="10.603031200582459"><ele>834.0</ele><time>2026-04-04T11:03:35Z</time></trkpt><trkpt lat="44.0874217023611" lon="10.602895501923873"><ele>834.0</ele><time>2026-04-04T11:03:36Z</time></trkpt><trkpt lat="44.08748585437136" lon="10.602810405267947"><ele>834.0</ele><time>2026-04-04T11:03:37Z</time></trkpt><trkpt lat="44.087563541927246" lon="10.602742141960851"><ele>834.0</ele><time>2026-04-04T11:03:38Z</time></trkpt><trkpt lat="44.08767287734519" lon="10.602696207517951"><ele>834.0</ele><time>2026-04-04T11:03:39Z</time></trkpt><trkpt lat="44.087794154416635" lon="10.60264508546174"><ele>841.75</ele><time>2026-04-04T11:03:40Z</time></trkpt><trkpt lat="44.08792312636466" lon="10.602576802132056"><ele>849.5</ele><time>2026-04-04T11:03:41Z</time></trkpt><trkpt lat="44.08804945449595" lon="10.602500025382902"><ele>857.25</ele><time>2026-04-04T11:03:42Z</time></trkpt><trkpt lat="44.088168734115825" lon="10.602427873653706"><ele>865.0</ele><time>2026-04-04T11:03:43Z</time></trkpt><trkpt lat="44.08828624144565" lon="10.602360202651814"><ele>867.6</ele><time>2026-04-04T11:03:44Z</time></trkpt><trkpt lat="44.088397423340595" lon="10.602296762924345"><ele>870.2</ele><time>2026-04-04T11:03:45Z</time></trkpt><trkpt lat="44.08849283605945" lon="10.602233240768443"><ele>872.8</ele><time>2026-04-04T11:03:46Z</time></trkpt><trkpt lat="44.088584451724806" lon="10.602166660984325"><ele>875.4</ele><time>2026-04-04T11:03:47Z</time></trkpt><trkpt lat="44.088674944439006" lon="10.602120758816659"><ele>878.0</ele><time>2026-04-04T11:03:48Z</time></trkpt><trkpt lat="44.08877205669181" lon="10.602081794015058"><ele>878.0</ele><time>2026-04-04T11:03:49Z</time></trkpt><trkpt lat="44.08885728991738" lon="10.602036983777298"><ele>878.0</ele><time>2026-04-04T11:03:50Z</time></trkpt><trkpt lat="44.088941491941064" lon="10.602005341439156"><ele>878.0</ele><time>2026-04-04T11:03:51Z</time></trkpt><trkpt lat="44.0890380146926" lon="10.602004607932662"><ele>878.0</ele><time>2026-04-04T11:03:52Z</time></trkpt><trkpt lat="44.08913606884569" lon="10.60200801826966"><ele>878.0</ele><time>2026-04-04T11:03:53Z</time></trkpt><trkpt lat="44.08925736223261" lon="10.602051401046799"><ele>880.0</ele><time>2026-04-04T11:03:54Z</time></trkpt><trkpt lat="44.08933170518107" lon="10.602082199509049"><ele>882.0</ele><time>2026-04-04T11:03:55Z</time></trkpt><trkpt lat="44.08943394512887" lon="10.602123349345817"><ele>884.0</ele><time>2026-04-04T11:03:56Z</time></trkpt><trkpt lat="44.089535032832515" lon="10.602155996260763"><ele>886.0</ele><time>2026-04-04T11:03:57Z</time></trkpt><trkpt lat="44.089638726202274" lon="10.602184076975394"><ele>888.0</ele><time>2026-04-04T11:03:58Z</time></trkpt><trkpt lat="44.08974549603745" lon="10.6021993031188"><ele>888.0</ele><time>2026-04-04T11:03:59Z</time></trkpt><trkpt lat="44.08985174026985" lon="10.602214236545972"><ele>888.0</ele><time>2026-04-04T11:04:00Z</time></trkpt><trkpt lat="44.08996378443451" lon="10.602248591231273"><ele>888.0</ele><time>2026-04-04T11:04:01Z</time></trkpt><trkpt lat="44.09007330967134" lon="10.602276722296068"><ele>888.0</ele><time>2026-04-04T11:04:02Z</time></trkpt><trkpt lat="44.090182330335" lon="10.602303125463196"><ele>888.0</ele><time>2026-04-04T11:04:03Z</time></trkpt><trkpt lat="44.09029033369817" lon="10.602339760052244"><ele>885.8</ele><time>2026-04-04T11:04:04Z</time></trkpt><trkpt lat="44.09039524054961" lon="10.602371747517358"><ele>883.5999999999999</ele><time>2026-04-04T11:04:05Z</time></trkpt><trkpt lat="44.09050071210844" lon="10.602374360244724"><ele>881.4000000000001</ele><time>2026-04-04T11:04:06Z</time></trkpt><trkpt lat="44.090601769796805" lon="10.60234866327434"><ele>879.2</ele><time>2026-04-04T11:04:07Z</time></trkpt><trkpt lat="44.09070301290401" lon="10.602332392949286"><ele>877.0</ele><time>2026-04-04T11:04:08Z</time></trkpt><trkpt lat="44.0908006554021" lon="10.602317429116583"><ele>873.2</ele><time>2026-04-04T11:04:09Z</time></trkpt><trkpt lat="44.09090127029945" lon="10.60233186252995"><ele>869.4000000000001</ele><time>2026-04-04T11:04:10Z</time></trkpt><trkpt lat="44.091011083716396" lon="10.602397018248364"><ele>865.5999999999999</ele><time>2026-04-04T11:04:11Z</time></trkpt><trkpt lat="44.09110259409972" lon="10.602486330943872"><ele>861.8</ele><time>2026-04-04T11:04:12Z</time></trkpt><trkpt lat="44.09117100462023" lon="10.602596785125439"><ele>858.0</ele><time>2026-04-04T11:04:13Z</time></trkpt><trkpt lat="44.09123600452586" lon="10.602721841790268"><ele>859.8</ele><time>2026-04-04T11:04:14Z</time></trkpt><trkpt lat="44.09128368186641" lon="10.602848372780173"><ele>861.5999999999999</ele><time>2026-04-04T11:04:15Z</time></trkpt><trkpt lat="44.09133846790487" lon="10.602936598816038"><ele>863.4000000000001</ele><time>2026-04-04T11:04:16Z</time></trkpt><trkpt lat="44.091424157699926" lon="10.602968166313113"><ele>865.2</ele><time>2026-04-04T11:04:17Z</time></trkpt><trkpt lat="44.09151437402706" lon="10.602955948346889"><ele>867.0</ele><time>2026-04-04T11:04:18Z</time></trkpt><trkpt lat="44.091627990149945" lon="10.602948113813287"><ele>867.0</ele><time>2026-04-04T11:04:19Z</time></trkpt><trkpt lat="44.09174659157647" lon="10.602945141039301"><ele>867.0</ele><time>2026-04-04T11:04:20Z</time></trkpt><trkpt lat="44.09187177358035" lon="10.602929643094791"><ele>867.0</ele><time>2026-04-04T11:04:21Z</time></trkpt><trkpt lat="44.091988489741546" lon="10.602893847991671"><ele>867.0</ele><time>2026-04-04T11:04:22Z</time></trkpt><trkpt lat="44.09209958535356" lon="10.602845887810789"><ele>860.6</ele><time>2026-04-04T11:04:23Z</time></trkpt><trkpt lat="44.09220319600904" lon="10.602805964629514"><ele>854.2</ele><time>2026-04-04T11:04:24Z</time></trkpt><trkpt lat="44.09231401203531" lon="10.6027425481314"><ele>847.8</ele><time>2026-04-04T11:04:25Z</time></trkpt><trkpt lat="44.09240924876283" lon="10.602705287533691"><ele>841.4</ele><time>2026-04-04T11:04:26Z</time></trkpt><trkpt lat="44.0925006720018" lon="10.602674643655671"><ele>835.0</ele><time>2026-04-04T11:04:27Z</time></trkpt><trkpt lat="44.092585348499604" lon="10.602665043092166"><ele>833.8</ele><time>2026-04-04T11:04:28Z</time></trkpt><trkpt lat="44.09267153646482" lon="10.60268741364354"><ele>832.6</ele><time>2026-04-04T11:04:29Z</time></trkpt><trkpt lat="44.092767381572834" lon="10.602748465968128"><ele>831.4000000000001</ele><time>2026-04-04T11:04:30Z</time></trkpt><trkpt lat="44.09286878833801" lon="10.602763384268444"><ele>830.2</ele><time>2026-04-04T11:04:31Z</time></trkpt><trkpt lat="44.092944025821005" lon="10.602797819621914"><ele>829.0</ele><time>2026-04-04T11:04:32Z</time></trkpt><trkpt lat="44.09301436102376" lon="10.602867236360597"><ele>833.4000000000001</ele><time>2026-04-04T11:04:33Z</time></trkpt><trkpt lat="44.09308104802884" lon="10.602968746790125"><ele>837.8</ele><time>2026-04-04T11:04:34Z</time></trkpt><trkpt lat="44.0931463626466" lon="10.603072725285378"><ele>842.2</ele><time>2026-04-04T11:04:35Z</time></trkpt><trkpt lat="44.09321427905096" lon="10.603151872009231"><ele>846.5999999999999</ele><time>2026-04-04T11:04:36Z</time></trkpt><trkpt lat="44.093298689979484" lon="10.603227759425414"><ele>851.0</ele><time>2026-04-04T11:04:38Z</time></trkpt><trkpt lat="44.09336769667578" lon="10.603145916953766"><ele>851.0</ele><time>2026-04-04T11:04:40Z</time></trkpt><trkpt lat="44.093278603845775" lon="10.602984529328992"><ele>851.0</ele><time>2026-04-04T11:04:42Z</time></trkpt><trkpt lat="44.093184435001554" lon="10.60291717989679"><ele>851.0</ele><time>2026-04-04T11:04:43Z</time></trkpt><trkpt lat="44.093116903530124" lon="10.602809633943528"><ele>851.0</ele><time>2026-04-04T11:04:44Z</time></trkpt><trkpt lat="44.093074402090714" lon="10.602717601035822"><ele>851.0</ele><time>2026-04-04T11:04:45Z</time></trkpt><trkpt lat="44.09308135328834" lon="10.602582974679487"><ele>846.5999999999999</ele><time>2026-04-04T11:04:47Z</time></trkpt><trkpt lat="44.09319570314437" lon="10.602473355672705"><ele>842.2</ele><time>2026-04-04T11:04:49Z</time></trkpt><trkpt lat="44.0932403056201" lon="10.602406610152938"><ele>837.8</ele><time>2026-04-04T11:04:50Z</time></trkpt><trkpt lat="44.09324105946269" lon="10.602290165965202"><ele>833.4000000000001</ele><time>2026-04-04T11:04:51Z</time></trkpt><trkpt lat="44.09319982197966" lon="10.602143438163198"><ele>829.0</ele><time>2026-04-04T11:04:52Z</time></trkpt><trkpt lat="44.09315014699553" lon="10.601991895802797"><ele>828.75</ele><time>2026-04-04T11:04:53Z</time></trkpt><trkpt lat="44.09307867400605" lon="10.601863267197691"><ele>828.5</ele><time>2026-04-04T11:04:54Z</time></trkpt><trkpt lat="44.09297908668861" lon="10.601749007555714"><ele>828.25</ele><time>2026-04-04T11:04:55Z</time></trkpt><trkpt lat="44.09286061937598" lon="10.601645178196273"><ele>828.0</ele><time>2026-04-04T11:04:56Z</time></trkpt><trkpt lat="44.09274295048565" lon="10.601560558612377"><ele>828.0</ele><time>2026-04-04T11:04:57Z</time></trkpt><trkpt lat="44.09263254700187" lon="10.601474109439158"><ele>828.0</ele><time>2026-04-04T11:04:58Z</time></trkpt><trkpt lat="44.092552394821645" lon="10.601395074068087"><ele>828.0</ele><time>2026-04-04T11:04:59Z</time></trkpt><trkpt lat="44.09249517835495" lon="10.601312654437283"><ele>828.0</ele><time>2026-04-04T11:05:00Z</time></trkpt><trkpt lat="44.092437939650054" lon="10.601218462404022"><ele>828.0</ele><time>2026-04-04T11:05:01Z</time></trkpt><trkpt lat="44.09238005773397" lon="10.601094839680394"><ele>824.5</ele><time>2026-04-04T11:05:02Z</time></trkpt><trkpt lat="44.0923312031122" lon="10.600939568247105"><ele>821.0</ele><time>2026-04-04T11:05:03Z</time></trkpt><trkpt lat="44.0922572543156" lon="10.600787321664122"><ele>817.5</ele><time>2026-04-04T11:05:04Z</time></trkpt><trkpt lat="44.09213638371836" lon="10.600699547224284"><ele>814.0</ele><time>2026-04-04T11:05:05Z</time></trkpt><trkpt lat="44.09203210931862" lon="10.600578249552772"><ele>814.0</ele><time>2026-04-04T11:05:06Z</time></trkpt><trkpt lat="44.09193997208449" lon="10.600466778572812"><ele>814.0</ele><time>2026-04-04T11:05:07Z</time></trkpt><trkpt lat="44.091856768706485" lon="10.600355174323475"><ele>814.0</ele><time>2026-04-04T11:05:08Z</time></trkpt><trkpt lat="44.09178102919579" lon="10.600251583265575"><ele>814.0</ele><time>2026-04-04T11:05:09Z</time></trkpt><trkpt lat="44.09171146320302" lon="10.600150715581055"><ele>814.0</ele><time>2026-04-04T11:05:10Z</time></trkpt><trkpt lat="44.091656981996564" lon="10.600078042826075"><ele>811.8000000000001</ele><time>2026-04-04T11:05:11Z</time></trkpt><trkpt lat="44.09156374579633" lon="10.599974867504919"><ele>809.6</ele><time>2026-04-04T11:05:13Z</time></trkpt><trkpt lat="44.09144374822277" lon="10.599927653663213"><ele>807.4</ele><time>2026-04-04T11:05:15Z</time></trkpt><trkpt lat="44.09137470202312" lon="10.599934629014102"><ele>805.2</ele><time>2026-04-04T11:05:16Z</time></trkpt><trkpt lat="44.09130702607038" lon="10.599962503228209"><ele>803.0</ele><time>2026-04-04T11:05:17Z</time></trkpt><trkpt lat="44.091180738821045" lon="10.599969236274749"><ele>803.0</ele><time>2026-04-04T11:05:19Z</time></trkpt><trkpt lat="44.091106884347965" lon="10.59991464446145"><ele>803.0</ele><time>2026-04-04T11:05:20Z</time></trkpt><trkpt lat="44.09104648705031" lon="10.599802882526141"><ele>803.0</ele><time>2026-04-04T11:05:21Z</time></trkpt><trkpt lat="44.090983882824574" lon="10.59966723737366"><ele>803.0</ele><time>2026-04-04T11:05:22Z</time></trkpt><trkpt lat="44.09090908242542" lon="10.599507876058247"><ele>803.0</ele><time>2026-04-04T11:05:23Z</time></trkpt><trkpt lat="44.090830600568516" lon="10.599342485375209"><ele>797.0</ele><time>2026-04-04T11:05:24Z</time></trkpt><trkpt lat="44.09075732116523" lon="10.599183478344903"><ele>791.0</ele><time>2026-04-04T11:05:25Z</time></trkpt><trkpt lat="44.09068452840826" lon="10.599041111980753"><ele>785.0</ele><time>2026-04-04T11:05:26Z</time></trkpt><trkpt lat="44.09060224377045" lon="10.598909440157327"><ele>779.0</ele><time>2026-04-04T11:05:27Z</time></trkpt><trkpt lat="44.09054168156082" lon="10.598763951056739"><ele>784.0</ele><time>2026-04-04T11:05:28Z</time></trkpt><trkpt lat="44.09047747038149" lon="10.598617000547215"><ele>789.0</ele><time>2026-04-04T11:05:29Z</time></trkpt><trkpt lat="44.09040923655111" lon="10.598485905715943"><ele>794.0</ele><time>2026-04-04T11:05:30Z</time></trkpt><trkpt lat="44.09033770060833" lon="10.598373468539595"><ele>799.0</ele><time>2026-04-04T11:05:31Z</time></trkpt><trkpt lat="44.09024082787662" lon="10.598289872930527"><ele>799.0</ele><time>2026-04-04T11:05:32Z</time></trkpt><trkpt lat="44.090135750295616" lon="10.598241298786178"><ele>799.0</ele><time>2026-04-04T11:05:33Z</time></trkpt><trkpt lat="44.09004474501165" lon="10.59819432104168"><ele>799.0</ele><time>2026-04-04T11:05:34Z</time></trkpt><trkpt lat="44.0899661962543" lon="10.59813146424049"><ele>799.0</ele><time>2026-04-04T11:05:35Z</time></trkpt><trkpt lat="44.08994155923933" lon="10.598027691539786"><ele>799.0</ele><time>2026-04-04T11:05:36Z</time></trkpt><trkpt lat="44.08995917336718" lon="10.597893706362997"><ele>800.2</ele><time>2026-04-04T11:05:37Z</time></trkpt><trkpt lat="44.09000088754369" lon="10.597738368875804"><ele>801.4000000000001</ele><time>2026-04-04T11:05:38Z</time></trkpt><trkpt lat="44.0900259727229" lon="10.59762563970377"><ele>802.6</ele><time>2026-04-04T11:05:39Z</time></trkpt><trkpt lat="44.09000874828813" lon="10.59750211666044"><ele>803.8</ele><time>2026-04-04T11:05:40Z</time></trkpt><trkpt lat="44.08994413853834" lon="10.5973647599901"><ele>805.0</ele><time>2026-04-04T11:05:41Z</time></trkpt><trkpt lat="44.08985109709092" lon="10.597250028902947"><ele>799.8</ele><time>2026-04-04T11:05:42Z</time></trkpt><trkpt lat="44.08977302618477" lon="10.59716863768248"><ele>794.6</ele><time>2026-04-04T11:05:43Z</time></trkpt><trkpt lat="44.089712453726996" lon="10.597077784958591"><ele>789.4000000000001</ele><time>2026-04-04T11:05:44Z</time></trkpt><trkpt lat="44.08967986708645" lon="10.596952239099561"><ele>784.2</ele><time>2026-04-04T11:05:45Z</time></trkpt><trkpt lat="44.089681545965036" lon="10.59677475339353"><ele>779.0</ele><time>2026-04-04T11:05:46Z</time></trkpt><trkpt lat="44.089716118240574" lon="10.596564489114474"><ele>779.0</ele><time>2026-04-04T11:05:47Z</time></trkpt><trkpt lat="44.0897435765438" lon="10.596344678021019"><ele>779.0</ele><time>2026-04-04T11:05:48Z</time></trkpt><trkpt lat="44.08976173914581" lon="10.596149655662785"><ele>779.0</ele><time>2026-04-04T11:05:49Z</time></trkpt><trkpt lat="44.08975520349275" lon="10.595960713363509"><ele>779.0</ele><time>2026-04-04T11:05:50Z</time></trkpt><trkpt lat="44.08973046722194" lon="10.595778745840969"><ele>778.6</ele><time>2026-04-04T11:05:51Z</time></trkpt><trkpt lat="44.08970361220592" lon="10.595607359176382"><ele>778.2</ele><time>2026-04-04T11:05:52Z</time></trkpt><trkpt lat="44.08968629593583" lon="10.595456759034173"><ele>777.8000000000001</ele><time>2026-04-04T11:05:53Z</time></trkpt><trkpt lat="44.08967409920137" lon="10.595335964878036"><ele>777.4000000000001</ele><time>2026-04-04T11:05:54Z</time></trkpt><trkpt lat="44.08965070790079" lon="10.595245144618614"><ele>777.0</ele><time>2026-04-04T11:05:55Z</time></trkpt><trkpt lat="44.089591077915216" lon="10.595176881397933"><ele>777.0</ele><time>2026-04-04T11:05:56Z</time></trkpt><trkpt lat="44.08950748339229" lon="10.595159446172863"><ele>777.0</ele><time>2026-04-04T11:05:57Z</time></trkpt><trkpt lat="44.089422202018845" lon="10.59518896935118"><ele>777.0</ele><time>2026-04-04T11:05:58Z</time></trkpt><trkpt lat="44.089362418559396" lon="10.595260287226129"><ele>777.0</ele><time>2026-04-04T11:05:59Z</time></trkpt><trkpt lat="44.08933719640648" lon="10.595378347297437"><ele>777.0</ele><time>2026-04-04T11:06:00Z</time></trkpt><trkpt lat="44.08935929787693" lon="10.595512047024732"><ele>777.0</ele><time>2026-04-04T11:06:01Z</time></trkpt><trkpt lat="44.08940716228101" lon="10.595645449113054"><ele>777.0</ele><time>2026-04-04T11:06:02Z</time></trkpt><trkpt lat="44.08943317227019" lon="10.595775360255736"><ele>777.0</ele><time>2026-04-04T11:06:03Z</time></trkpt><trkpt lat="44.089428030945435" lon="10.595926696846645"><ele>777.0</ele><time>2026-04-04T11:06:04Z</time></trkpt><trkpt lat="44.08938007746782" lon="10.596108617659992"><ele>777.0</ele><time>2026-04-04T11:06:05Z</time></trkpt><trkpt lat="44.089310547814655" lon="10.59630319432817"><ele>777.4000000000001</ele><time>2026-04-04T11:06:06Z</time></trkpt><trkpt lat="44.089234680311776" lon="10.5964662210315"><ele>777.8000000000001</ele><time>2026-04-04T11:06:07Z</time></trkpt><trkpt lat="44.08918091891366" lon="10.596604919743081"><ele>778.2</ele><time>2026-04-04T11:06:08Z</time></trkpt><trkpt lat="44.089135682748044" lon="10.59672753266051"><ele>778.6</ele><time>2026-04-04T11:06:09Z</time></trkpt><trkpt lat="44.08911604372662" lon="10.59684109566136"><ele>779.0</ele><time>2026-04-04T11:06:10Z</time></trkpt><trkpt lat="44.089115801145766" lon="10.596980226434141"><ele>777.2</ele><time>2026-04-04T11:06:11Z</time></trkpt><trkpt lat="44.08916440560267" lon="10.597112197978975"><ele>775.4000000000001</ele><time>2026-04-04T11:06:12Z</time></trkpt><trkpt lat="44.089222969034275" lon="10.597214198966173"><ele>773.6</ele><time>2026-04-04T11:06:13Z</time></trkpt><trkpt lat="44.08928061882478" lon="10.59727582626238"><ele>771.8</ele><time>2026-04-04T11:06:14Z</time></trkpt><trkpt lat="44.08929287674087" lon="10.597387712556547"><ele>770.0</ele><time>2026-04-04T11:06:16Z</time></trkpt><trkpt lat="44.089180912749" lon="10.59737811677646"><ele>770.0</ele><time>2026-04-04T11:06:18Z</time></trkpt><trkpt lat="44.08914011377616" lon="10.597260706549358"><ele>770.0</ele><time>2026-04-04T11:06:19Z</time></trkpt><trkpt lat="44.089085604603866" lon="10.597122589364167"><ele>770.0</ele><time>2026-04-04T11:06:20Z</time></trkpt><trkpt lat="44.08900685114312" lon="10.596970970089904"><ele>770.0</ele><time>2026-04-04T11:06:21Z</time></trkpt><trkpt lat="44.08894850057753" lon="10.596816795489234"><ele>765.75</ele><time>2026-04-04T11:06:22Z</time></trkpt><trkpt lat="44.08890097496014" lon="10.59662163461885"><ele>761.5</ele><time>2026-04-04T11:06:23Z</time></trkpt><trkpt lat="44.08887621807295" lon="10.596396560762814"><ele>757.25</ele><time>2026-04-04T11:06:24Z</time></trkpt><trkpt lat="44.088848890869585" lon="10.59621775996847"><ele>753.0</ele><time>2026-04-04T11:06:25Z</time></trkpt><trkpt lat="44.08881366300502" lon="10.596072773588421"><ele>753.0</ele><time>2026-04-04T11:06:26Z</time></trkpt><trkpt lat="44.08875354889462" lon="10.595939606654332"><ele>753.0</ele><time>2026-04-04T11:06:27Z</time></trkpt><trkpt lat="44.08865595990829" lon="10.595822150260414"><ele>753.0</ele><time>2026-04-04T11:06:28Z</time></trkpt><trkpt lat="44.088553619133805" lon="10.59573590616765"><ele>753.0</ele><time>2026-04-04T11:06:29Z</time></trkpt><trkpt lat="44.08847486031925" lon="10.5956697833624"><ele>753.0</ele><time>2026-04-04T11:06:30Z</time></trkpt><trkpt lat="44.08842152055591" lon="10.595599370662816"><ele>753.0</ele><time>2026-04-04T11:06:31Z</time></trkpt><trkpt lat="44.088298811626096" lon="10.595628376571245"><ele>753.0</ele><time>2026-04-04T11:06:33Z</time></trkpt><trkpt lat="44.08826344618402" lon="10.595742484837503"><ele>753.0</ele><time>2026-04-04T11:06:34Z</time></trkpt><trkpt lat="44.08828294373066" lon="10.595848488143274"><ele>753.0</ele><time>2026-04-04T11:06:35Z</time></trkpt><trkpt lat="44.08836758978722" lon="10.595945948578143"><ele>753.0</ele><time>2026-04-04T11:06:36Z</time></trkpt><trkpt lat="44.08846590280936" lon="10.59601837694093"><ele>753.0</ele><time>2026-04-04T11:06:37Z</time></trkpt><trkpt lat="44.0885407155931" lon="10.596141444624973"><ele>753.0</ele><time>2026-04-04T11:06:38Z</time></trkpt><trkpt lat="44.08857342253424" lon="10.596308845058067"><ele>753.0</ele><time>2026-04-04T11:06:39Z</time></trkpt><trkpt lat="44.08855037967736" lon="10.596485459997073"><ele>751.75</ele><time>2026-04-04T11:06:40Z</time></trkpt><trkpt lat="44.088477159156625" lon="10.596627800959839"><ele>750.5</ele><time>2026-04-04T11:06:41Z</time></trkpt><trkpt lat="44.088408678084484" lon="10.596755321049336"><ele>749.25</ele><time>2026-04-04T11:06:42Z</time></trkpt><trkpt lat="44.08837157426498" lon="10.596894468461272"><ele>748.0</ele><time>2026-04-04T11:06:43Z</time></trkpt><trkpt lat="44.088373666512936" lon="10.597039676125396"><ele>745.4</ele><time>2026-04-04T11:06:44Z</time></trkpt><trkpt lat="44.08840408483725" lon="10.597161914061383"><ele>742.8</ele><time>2026-04-04T11:06:45Z</time></trkpt><trkpt lat="44.088465226454446" lon="10.597286632564119"><ele>740.2</ele><time>2026-04-04T11:06:46Z</time></trkpt><trkpt lat="44.08854417770263" lon="10.59739958323043"><ele>737.6</ele><time>2026-04-04T11:06:47Z</time></trkpt><trkpt lat="44.08864788743288" lon="10.597497898638544"><ele>735.0</ele><time>2026-04-04T11:06:48Z</time></trkpt><trkpt lat="44.08878607303938" lon="10.597571288384485"><ele>735.0</ele><time>2026-04-04T11:06:49Z</time></trkpt><trkpt lat="44.0889030721659" lon="10.597631662050183"><ele>735.0</ele><time>2026-04-04T11:06:50Z</time></trkpt><trkpt lat="44.08899208154406" lon="10.59773270343155"><ele>735.0</ele><time>2026-04-04T11:06:51Z</time></trkpt><trkpt lat="44.089070933055154" lon="10.59788949303509"><ele>735.0</ele><time>2026-04-04T11:06:52Z</time></trkpt><trkpt lat="44.08912703099012" lon="10.598074829897811"><ele>738.0</ele><time>2026-04-04T11:06:53Z</time></trkpt><trkpt lat="44.08919169492131" lon="10.598215164601408"><ele>741.0</ele><time>2026-04-04T11:06:54Z</time></trkpt><trkpt lat="44.08925756653874" lon="10.59831743892999"><ele>744.0</ele><time>2026-04-04T11:06:55Z</time></trkpt><trkpt lat="44.08932645778813" lon="10.598377946736571"><ele>747.0</ele><time>2026-04-04T11:06:56Z</time></trkpt><trkpt lat="44.089387930822575" lon="10.598484541868874"><ele>750.0</ele><time>2026-04-04T11:06:58Z</time></trkpt><trkpt lat="44.089336747812794" lon="10.598542418167922"><ele>750.0</ele><time>2026-04-04T11:06:59Z</time></trkpt><trkpt lat="44.08927074849469" lon="10.598526435065057"><ele>750.0</ele><time>2026-04-04T11:07:00Z</time></trkpt><trkpt lat="44.089211596897755" lon="10.598443802228902"><ele>750.0</ele><time>2026-04-04T11:07:01Z</time></trkpt><trkpt lat="44.08914303755292" lon="10.598300315263064"><ele>750.0</ele><time>2026-04-04T11:07:02Z</time></trkpt><trkpt lat="44.08904632346686" lon="10.598128425211312"><ele>750.0</ele><time>2026-04-04T11:07:03Z</time></trkpt><trkpt lat="44.088940414380644" lon="10.5979923935119"><ele>745.0</ele><time>2026-04-04T11:07:04Z</time></trkpt><trkpt lat="44.088779756303666" lon="10.597883130890882"><ele>740.0</ele><time>2026-04-04T11:07:05Z</time></trkpt><trkpt lat="44.088628011988455" lon="10.597796263696566"><ele>735.0</ele><time>2026-04-04T11:07:06Z</time></trkpt><trkpt lat="44.08849429882275" lon="10.597703925939676"><ele>735.0</ele><time>2026-04-04T11:07:07Z</time></trkpt><trkpt lat="44.08837269016929" lon="10.597618539801566"><ele>735.0</ele><time>2026-04-04T11:07:08Z</time></trkpt><trkpt lat="44.08826105719821" lon="10.597539924784572"><ele>735.0</ele><time>2026-04-04T11:07:09Z</time></trkpt><trkpt lat="44.08816391538324" lon="10.597469363684208"><ele>735.0</ele><time>2026-04-04T11:07:10Z</time></trkpt><trkpt lat="44.08809356595364" lon="10.597385005185997"><ele>730.3333333333334</ele><time>2026-04-04T11:07:11Z</time></trkpt><trkpt lat="44.08802788682447" lon="10.597244756866012"><ele>725.6666666666667</ele><time>2026-04-04T11:07:12Z</time></trkpt><trkpt lat="44.08796940554672" lon="10.5970183085132"><ele>721.0</ele><time>2026-04-04T11:07:13Z</time></trkpt><trkpt lat="44.08788519559265" lon="10.596747850869702"><ele>721.0</ele><time>2026-04-04T11:07:14Z</time></trkpt><trkpt lat="44.08782916965943" lon="10.5965466034926"><ele>721.0</ele><time>2026-04-04T11:07:15Z</time></trkpt><trkpt lat="44.087777738222826" lon="10.59639165178203"><ele>721.0</ele><time>2026-04-04T11:07:16Z</time></trkpt><trkpt lat="44.08773839378491" lon="10.596255807164086"><ele>721.0</ele><time>2026-04-04T11:07:17Z</time></trkpt><trkpt lat="44.08770850474111" lon="10.596146354178146"><ele>724.1999999999999</ele><time>2026-04-04T11:07:18Z</time></trkpt><trkpt lat="44.08766028872828" lon="10.59606307781707"><ele>727.4</ele><time>2026-04-04T11:07:19Z</time></trkpt><trkpt lat="44.08756677666266" lon="10.596034848627712"><ele>730.6</ele><time>2026-04-04T11:07:20Z</time></trkpt><trkpt lat="44.087461242741554" lon="10.596034184681601"><ele>733.8</ele><time>2026-04-04T11:07:21Z</time></trkpt><trkpt lat="44.087357029574065" lon="10.596059476039166"><ele>737.0</ele><time>2026-04-04T11:07:22Z</time></trkpt><trkpt lat="44.08725740834134" lon="10.596140379675862"><ele>734.5</ele><time>2026-04-04T11:07:23Z</time></trkpt><trkpt lat="44.087156056997365" lon="10.596255377946164"><ele>732.0</ele><time>2026-04-04T11:07:24Z</time></trkpt><trkpt lat="44.08713057113705" lon="10.59641189860762"><ele>729.5</ele><time>2026-04-04T11:07:25Z</time></trkpt><trkpt lat="44.08704332289103" lon="10.59651400286415"><ele>727.0</ele><time>2026-04-04T11:07:26Z</time></trkpt><trkpt lat="44.086907592252004" lon="10.596590724903896"><ele>727.0</ele><time>2026-04-04T11:07:27Z</time></trkpt><trkpt lat="44.0867564540368" lon="10.596657270167148"><ele>727.0</ele><time>2026-04-04T11:07:28Z</time></trkpt><trkpt lat="44.086636076179325" lon="10.596706137045883"><ele>727.0</ele><time>2026-04-04T11:07:29Z</time></trkpt><trkpt lat="44.08653278232358" lon="10.596740359573095"><ele>727.0</ele><time>2026-04-04T11:07:30Z</time></trkpt><trkpt lat="44.08643917461166" lon="10.596752911443435"><ele>727.5</ele><time>2026-04-04T11:07:31Z</time></trkpt><trkpt lat="44.086327365896864" lon="10.596712696537026"><ele>728.0</ele><time>2026-04-04T11:07:32Z</time></trkpt><trkpt lat="44.08620653825146" lon="10.596666602011393"><ele>728.5</ele><time>2026-04-04T11:07:33Z</time></trkpt><trkpt lat="44.08606811618503" lon="10.59667061373547"><ele>729.0</ele><time>2026-04-04T11:07:34Z</time></trkpt><trkpt lat="44.08589605944339" lon="10.596731782434475"><ele>737.0</ele><time>2026-04-04T11:07:35Z</time></trkpt><trkpt lat="44.08573063180477" lon="10.596806251816849"><ele>745.0</ele><time>2026-04-04T11:07:36Z</time></trkpt><trkpt lat="44.08559269886993" lon="10.59688273568916"><ele>753.0</ele><time>2026-04-04T11:07:37Z</time></trkpt><trkpt lat="44.08546348383834" lon="10.59693899670099"><ele>753.0</ele><time>2026-04-04T11:07:38Z</time></trkpt><trkpt lat="44.08533688242041" lon="10.596963503698175"><ele>753.0</ele><time>2026-04-04T11:07:39Z</time></trkpt><trkpt lat="44.085211530770316" lon="10.59696781252556"><ele>753.0</ele><time>2026-04-04T11:07:40Z</time></trkpt><trkpt lat="44.085074276508315" lon="10.597043389829674"><ele>753.0</ele><time>2026-04-04T11:07:41Z</time></trkpt><trkpt lat="44.08490663093773" lon="10.597174599767612"><ele>750.3333333333334</ele><time>2026-04-04T11:07:42Z</time></trkpt><trkpt lat="44.084759390583464" lon="10.597301080965753"><ele>747.6666666666667</ele><time>2026-04-04T11:07:43Z</time></trkpt><trkpt lat="44.0846333903482" lon="10.597431127918865"><ele>745.0</ele><time>2026-04-04T11:07:44Z</time></trkpt><trkpt lat="44.08451272282721" lon="10.597556532103695"><ele>745.0</ele><time>2026-04-04T11:07:45Z</time></trkpt><trkpt lat="44.08440656996521" lon="10.597673639346565"><ele>745.0</ele><time>2026-04-04T11:07:46Z</time></trkpt><trkpt lat="44.08431296002629" lon="10.597835645438357"><ele>745.0</ele><time>2026-04-04T11:07:47Z</time></trkpt><trkpt lat="44.084225752762904" lon="10.598049772641374"><ele>744.6666666666667</ele><time>2026-04-04T11:07:48Z</time></trkpt><trkpt lat="44.08414015822178" lon="10.598291790647103"><ele>744.3333333333334</ele><time>2026-04-04T11:07:49Z</time></trkpt><trkpt lat="44.084062735444526" lon="10.59848458364135"><ele>744.0</ele><time>2026-04-04T11:07:50Z</time></trkpt><trkpt lat="44.08399113267046" lon="10.598634729226456"><ele>734.25</ele><time>2026-04-04T11:07:51Z</time></trkpt><trkpt lat="44.08390885282445" lon="10.598772060382394"><ele>724.5</ele><time>2026-04-04T11:07:52Z</time></trkpt><trkpt lat="44.08381547875793" lon="10.59890680065392"><ele>714.75</ele><time>2026-04-04T11:07:53Z</time></trkpt><trkpt lat="44.08371613061267" lon="10.599020357535483"><ele>705.0</ele><time>2026-04-04T11:07:54Z</time></trkpt><trkpt lat="44.083618066938875" lon="10.599107843157302"><ele>705.0</ele><time>2026-04-04T11:07:55Z</time></trkpt><trkpt lat="44.083487781231035" lon="10.599177807856542"><ele>705.0</ele><time>2026-04-04T11:07:56Z</time></trkpt><trkpt lat="44.083327526463044" lon="10.599245308002315"><ele>705.0</ele><time>2026-04-04T11:07:57Z</time></trkpt><trkpt lat="44.08315050169133" lon="10.59932693028482"><ele>704.6666666666666</ele><time>2026-04-04T11:07:58Z</time></trkpt><trkpt lat="44.08298134223031" lon="10.599402509811664"><ele>704.3333333333333</ele><time>2026-04-04T11:07:59Z</time></trkpt><trkpt lat="44.08284079224105" lon="10.599469916640448"><ele>704.0</ele><time>2026-04-04T11:08:00Z</time></trkpt><trkpt lat="44.0827235522044" lon="10.599522880063423"><ele>703.2</ele><time>2026-04-04T11:08:01Z</time></trkpt><trkpt lat="44.082618893468826" lon="10.599565097630803"><ele>702.4000000000001</ele><time>2026-04-04T11:08:02Z</time></trkpt><trkpt lat="44.082529009544956" lon="10.599597005466252"><ele>701.6</ele><time>2026-04-04T11:08:03Z</time></trkpt><trkpt lat="44.08243592551232" lon="10.599631682160096"><ele>700.8</ele><time>2026-04-04T11:08:04Z</time></trkpt><trkpt lat="44.08235510996635" lon="10.599594809634366"><ele>700.0</ele><time>2026-04-04T11:08:05Z</time></trkpt><trkpt lat="44.08227061589231" lon="10.599497430291104"><ele>700.0</ele><time>2026-04-04T11:08:06Z</time></trkpt><trkpt lat="44.08219643085347" lon="10.599323575392276"><ele>700.0</ele><time>2026-04-04T11:08:07Z</time></trkpt><trkpt lat="44.082135478771676" lon="10.59914965369879"><ele>700.0</ele><time>2026-04-04T11:08:08Z</time></trkpt><trkpt lat="44.082090139950246" lon="10.599023428868"><ele>700.0</ele><time>2026-04-04T11:08:09Z</time></trkpt><trkpt lat="44.082057818097695" lon="10.598925091937316"><ele>700.0</ele><time>2026-04-04T11:08:10Z</time></trkpt><trkpt lat="44.08200634228835" lon="10.598840814666453"><ele>700.0</ele><time>2026-04-04T11:08:11Z</time></trkpt><trkpt lat="44.08192039748061" lon="10.598834043775755"><ele>700.0</ele><time>2026-04-04T11:08:12Z</time></trkpt><trkpt lat="44.081820048865524" lon="10.598899979373064"><ele>700.0</ele><time>2026-04-04T11:08:13Z</time></trkpt><trkpt lat="44.081752229233295" lon="10.599021661723583"><ele>700.0</ele><time>2026-04-04T11:08:14Z</time></trkpt><trkpt lat="44.08168865363266" lon="10.599203703764541"><ele>700.0</ele><time>2026-04-04T11:08:15Z</time></trkpt><trkpt lat="44.08161398284024" lon="10.599425741788536"><ele>700.0</ele><time>2026-04-04T11:08:16Z</time></trkpt><trkpt lat="44.081542781965474" lon="10.599609958346663"><ele>700.0</ele><time>2026-04-04T11:08:17Z</time></trkpt><trkpt lat="44.08148361456974" lon="10.599735007064805"><ele>700.0</ele><time>2026-04-04T11:08:18Z</time></trkpt><trkpt lat="44.0814106077249" lon="10.599859411088083"><ele>699.0</ele><time>2026-04-04T11:08:19Z</time></trkpt><trkpt lat="44.081317064532456" lon="10.599957232126691"><ele>698.0</ele><time>2026-04-04T11:08:20Z</time></trkpt><trkpt lat="44.08124434439" lon="10.600031741968296"><ele>697.0</ele><time>2026-04-04T11:08:21Z</time></trkpt><trkpt lat="44.08116597605794" lon="10.600078607653032"><ele>696.0</ele><time>2026-04-04T11:08:22Z</time></trkpt><trkpt lat="44.081053467190216" lon="10.600122768936938"><ele>695.0</ele><time>2026-04-04T11:08:23Z</time></trkpt><trkpt lat="44.08095776325595" lon="10.60018704668175"><ele>695.0</ele><time>2026-04-04T11:08:24Z</time></trkpt><trkpt lat="44.0808839613344" lon="10.600296586891638"><ele>695.0</ele><time>2026-04-04T11:08:25Z</time></trkpt><trkpt lat="44.080817813039296" lon="10.600426303553885"><ele>695.0</ele><time>2026-04-04T11:08:26Z</time></trkpt><trkpt lat="44.08076463919164" lon="10.600566913625302"><ele>695.0</ele><time>2026-04-04T11:08:27Z</time></trkpt><trkpt lat="44.08067979374392" lon="10.600684738431525"><ele>686.0</ele><time>2026-04-04T11:08:28Z</time></trkpt><trkpt lat="44.080563210027464" lon="10.600786688083248"><ele>677.0</ele><time>2026-04-04T11:08:29Z</time></trkpt><trkpt lat="44.08045597825054" lon="10.600849504708519"><ele>668.0</ele><time>2026-04-04T11:08:30Z</time></trkpt><trkpt lat="44.08036262438034" lon="10.600910909803504"><ele>659.0</ele><time>2026-04-04T11:08:31Z</time></trkpt><trkpt lat="44.08025534136685" lon="10.600966268106461"><ele>659.0</ele><time>2026-04-04T11:08:32Z</time></trkpt><trkpt lat="44.08011129641048" lon="10.600985038299504"><ele>659.0</ele><time>2026-04-04T11:08:33Z</time></trkpt><trkpt lat="44.07997319462675" lon="10.600963682550054"><ele>659.0</ele><time>2026-04-04T11:08:34Z</time></trkpt><trkpt lat="44.07986413702068" lon="10.60091728205154"><ele>659.0</ele><time>2026-04-04T11:08:35Z</time></trkpt><trkpt lat="44.07972971726524" lon="10.600820709382626"><ele>650.3333333333333</ele><time>2026-04-04T11:08:36Z</time></trkpt><trkpt lat="44.07954768819677" lon="10.600664603324969"><ele>641.6666666666666</ele><time>2026-04-04T11:08:37Z</time></trkpt><trkpt lat="44.07936979694493" lon="10.600542177145199"><ele>633.0</ele><time>2026-04-04T11:08:38Z</time></trkpt><trkpt lat="44.07922829732787" lon="10.600448878864324"><ele>633.0</ele><time>2026-04-04T11:08:39Z</time></trkpt><trkpt lat="44.0791180555305" lon="10.600373465749923"><ele>633.0</ele><time>2026-04-04T11:08:40Z</time></trkpt><trkpt lat="44.07901073822318" lon="10.600305336133127"><ele>633.0</ele><time>2026-04-04T11:08:41Z</time></trkpt><trkpt lat="44.07893208784562" lon="10.600209942737314"><ele>633.0</ele><time>2026-04-04T11:08:42Z</time></trkpt><trkpt lat="44.078850799962154" lon="10.600075545121229"><ele>628.3333333333334</ele><time>2026-04-04T11:08:43Z</time></trkpt><trkpt lat="44.07875755100456" lon="10.599904369730844"><ele>623.6666666666667</ele><time>2026-04-04T11:08:44Z</time></trkpt><trkpt lat="44.078651702596964" lon="10.599710940773678"><ele>619.0</ele><time>2026-04-04T11:08:45Z</time></trkpt><trkpt lat="44.07852155757488" lon="10.59947546701483"><ele>609.6666666666667</ele><time>2026-04-04T11:08:46Z</time></trkpt><trkpt lat="44.07840107284211" lon="10.599260332717082"><ele>600.3333333333334</ele><time>2026-04-04T11:08:47Z</time></trkpt><trkpt lat="44.07829312769198" lon="10.599062870917834"><ele>591.0</ele><time>2026-04-04T11:08:48Z</time></trkpt><trkpt lat="44.078188519243106" lon="10.598877292231872"><ele>591.0</ele><time>2026-04-04T11:08:49Z</time></trkpt><trkpt lat="44.07809070892202" lon="10.598697572653236"><ele>591.0</ele><time>2026-04-04T11:08:50Z</time></trkpt><trkpt lat="44.07800261789326" lon="10.598533238726388"><ele>591.0</ele><time>2026-04-04T11:08:51Z</time></trkpt><trkpt lat="44.077923559406784" lon="10.598368250280227"><ele>594.8</ele><time>2026-04-04T11:08:52Z</time></trkpt><trkpt lat="44.07782361975015" lon="10.598266328688785"><ele>598.6</ele><time>2026-04-04T11:08:53Z</time></trkpt><trkpt lat="44.077732720025566" lon="10.598183272693447"><ele>602.4</ele><time>2026-04-04T11:08:54Z</time></trkpt><trkpt lat="44.07764935580222" lon="10.59812857011627"><ele>606.2</ele><time>2026-04-04T11:08:55Z</time></trkpt><trkpt lat="44.07758602965367" lon="10.59806164367828"><ele>610.0</ele><time>2026-04-04T11:08:56Z</time></trkpt><trkpt lat="44.07756829276488" lon="10.597923791474106"><ele>618.0</ele><time>2026-04-04T11:08:57Z</time></trkpt><trkpt lat="44.077555937676806" lon="10.597705995155092"><ele>626.0</ele><time>2026-04-04T11:08:58Z</time></trkpt><trkpt lat="44.07754057356155" lon="10.597424119955415"><ele>634.0</ele><time>2026-04-04T11:08:59Z</time></trkpt><trkpt lat="44.07753521105264" lon="10.597224293982519"><ele>634.0</ele><time>2026-04-04T11:09:00Z</time></trkpt><trkpt lat="44.077531555913076" lon="10.59703307700518"><ele>634.0</ele><time>2026-04-04T11:09:01Z</time></trkpt><trkpt lat="44.0775045044132" lon="10.596842992916457"><ele>634.0</ele><time>2026-04-04T11:09:02Z</time></trkpt><trkpt lat="44.07745349487498" lon="10.596696813229626"><ele>634.0</ele><time>2026-04-04T11:09:03Z</time></trkpt><trkpt lat="44.077399680652135" lon="10.596553742688089"><ele>627.2</ele><time>2026-04-04T11:09:04Z</time></trkpt><trkpt lat="44.07734699758171" lon="10.596426213697509"><ele>620.4</ele><time>2026-04-04T11:09:05Z</time></trkpt><trkpt lat="44.07729102593988" lon="10.596288598951595"><ele>613.6</ele><time>2026-04-04T11:09:06Z</time></trkpt><trkpt lat="44.07724347162436" lon="10.596152774491083"><ele>606.8</ele><time>2026-04-04T11:09:07Z</time></trkpt><trkpt lat="44.07719424989424" lon="10.596025224270448"><ele>600.0</ele><time>2026-04-04T11:09:08Z</time></trkpt><trkpt lat="44.077156452333014" lon="10.595891338017692"><ele>600.0</ele><time>2026-04-04T11:09:09Z</time></trkpt><trkpt lat="44.07713150207987" lon="10.59577006023213"><ele>600.0</ele><time>2026-04-04T11:09:10Z</time></trkpt><trkpt lat="44.07711327673768" lon="10.595648968421758"><ele>600.0</ele><time>2026-04-04T11:09:11Z</time></trkpt><trkpt lat="44.07710268239503" lon="10.595522900531604"><ele>600.0</ele><time>2026-04-04T11:09:12Z</time></trkpt><trkpt lat="44.07710761867408" lon="10.595405341176015"><ele>600.0</ele><time>2026-04-04T11:09:13Z</time></trkpt><trkpt lat="44.0771061236365" lon="10.59529328978469"><ele>600.0</ele><time>2026-04-04T11:09:14Z</time></trkpt><trkpt lat="44.07704731007395" lon="10.595190865156685"><ele>603.1666666666666</ele><time>2026-04-04T11:09:15Z</time></trkpt><trkpt lat="44.07695467162349" lon="10.595097530518386"><ele>606.3333333333334</ele><time>2026-04-04T11:09:16Z</time></trkpt><trkpt lat="44.0768809022613" lon="10.595005239473169"><ele>609.5</ele><time>2026-04-04T11:09:17Z</time></trkpt><trkpt lat="44.07683126034902" lon="10.594919143652561"><ele>612.6666666666667</ele><time>2026-04-04T11:09:18Z</time></trkpt><trkpt lat="44.07679282732839" lon="10.59483879240258"><ele>615.8333333333334</ele><time>2026-04-04T11:09:19Z</time></trkpt><trkpt lat="44.076759744415355" lon="10.594756847538592"><ele>619.0</ele><time>2026-04-04T11:09:20Z</time></trkpt><trkpt lat="44.07672307391307" lon="10.594662955278563"><ele>619.0</ele><time>2026-04-04T11:09:21Z</time></trkpt><trkpt lat="44.0767116841994" lon="10.594559157635427"><ele>619.0</ele><time>2026-04-04T11:09:22Z</time></trkpt><trkpt lat="44.076736212778336" lon="10.594388582131486"><ele>619.0</ele><time>2026-04-04T11:09:24Z</time></trkpt><trkpt lat="44.076790162698" lon="10.594218221713717"><ele>619.0</ele><time>2026-04-04T11:09:26Z</time></trkpt><trkpt lat="44.07680803736057" lon="10.59412175960586"><ele>619.0</ele><time>2026-04-04T11:09:27Z</time></trkpt><trkpt lat="44.07682210140544" lon="10.594034204876019"><ele>621.6666666666667</ele><time>2026-04-04T11:09:28Z</time></trkpt><trkpt lat="44.07681037881005" lon="10.593942586612194"><ele>624.3333333333334</ele><time>2026-04-04T11:09:29Z</time></trkpt><trkpt lat="44.07676202254209" lon="10.593842552490344"><ele>627.0</ele><time>2026-04-04T11:09:30Z</time></trkpt><trkpt lat="44.07669886791982" lon="10.593779191769205"><ele>629.6666666666666</ele><time>2026-04-04T11:09:31Z</time></trkpt><trkpt lat="44.07660110305903" lon="10.593761672716616"><ele>632.3333333333333</ele><time>2026-04-04T11:09:32Z</time></trkpt><trkpt lat="44.076499543173355" lon="10.593744530323205"><ele>635.0</ele><time>2026-04-04T11:09:33Z</time></trkpt><trkpt lat="44.07640893699104" lon="10.593705971830316"><ele>631.8</ele><time>2026-04-04T11:09:34Z</time></trkpt><trkpt lat="44.076346930863984" lon="10.593687976539712"><ele>628.6</ele><time>2026-04-04T11:09:35Z</time></trkpt><trkpt lat="44.07625746916838" lon="10.593637983275084"><ele>625.4</ele><time>2026-04-04T11:09:37Z</time></trkpt><trkpt lat="44.076235361279466" lon="10.593458169690008"><ele>622.2</ele><time>2026-04-04T11:09:39Z</time></trkpt><trkpt lat="44.076241724228176" lon="10.593315069808883"><ele>619.0</ele><time>2026-04-04T11:09:40Z</time></trkpt><trkpt lat="44.07618633121403" lon="10.59320280762858"><ele>619.0</ele><time>2026-04-04T11:09:41Z</time></trkpt><trkpt lat="44.076107684535295" lon="10.593128658564318"><ele>619.0</ele><time>2026-04-04T11:09:42Z</time></trkpt><trkpt lat="44.07598437873305" lon="10.593101401115808"><ele>619.0</ele><time>2026-04-04T11:09:43Z</time></trkpt><trkpt lat="44.07584542786901" lon="10.593077403195908"><ele>619.0</ele><time>2026-04-04T11:09:44Z</time></trkpt><trkpt lat="44.075750829574154" lon="10.593067693944196"><ele>617.0</ele><time>2026-04-04T11:09:45Z</time></trkpt><trkpt lat="44.0756618571072" lon="10.59301620272825"><ele>615.0</ele><time>2026-04-04T11:09:46Z</time></trkpt><trkpt lat="44.075559103085745" lon="10.592924075696095"><ele>613.0</ele><time>2026-04-04T11:09:47Z</time></trkpt><trkpt lat="44.07543330793138" lon="10.592765041034324"><ele>611.0</ele><time>2026-04-04T11:09:48Z</time></trkpt><trkpt lat="44.075303559941574" lon="10.592577779136041"><ele>611.0</ele><time>2026-04-04T11:09:49Z</time></trkpt><trkpt lat="44.075228715353404" lon="10.592432493300176"><ele>611.0</ele><time>2026-04-04T11:09:50Z</time></trkpt><trkpt lat="44.07512069133862" lon="10.592259262323747"><ele>611.0</ele><time>2026-04-04T11:09:51Z</time></trkpt><trkpt lat="44.07503390218507" lon="10.592068993102485"><ele>610.75</ele><time>2026-04-04T11:09:52Z</time></trkpt><trkpt lat="44.074957733423666" lon="10.591932239410134"><ele>610.5</ele><time>2026-04-04T11:09:53Z</time></trkpt><trkpt lat="44.074863838196556" lon="10.59178863922458"><ele>610.25</ele><time>2026-04-04T11:09:54Z</time></trkpt><trkpt lat="44.07477222075238" lon="10.591674006115882"><ele>610.0</ele><time>2026-04-04T11:09:55Z</time></trkpt><trkpt lat="44.07464018758711" lon="10.59155939196795"><ele>610.0</ele><time>2026-04-04T11:09:56Z</time></trkpt><trkpt lat="44.07449788946575" lon="10.59146809496467"><ele>610.0</ele><time>2026-04-04T11:09:57Z</time></trkpt><trkpt lat="44.07437136511431" lon="10.591392513348524"><ele>610.0</ele><time>2026-04-04T11:09:58Z</time></trkpt><trkpt lat="44.07426268982553" lon="10.591303528347707"><ele>610.0</ele><time>2026-04-04T11:09:59Z</time></trkpt><trkpt lat="44.07416114094571" lon="10.591221282879923"><ele>605.75</ele><time>2026-04-04T11:10:00Z</time></trkpt><trkpt lat="44.07406220815545" lon="10.59113373789828"><ele>601.5</ele><time>2026-04-04T11:10:01Z</time></trkpt><trkpt lat="44.07396363829124" lon="10.591039161698324"><ele>597.25</ele><time>2026-04-04T11:10:02Z</time></trkpt><trkpt lat="44.07387742397517" lon="10.590910211573565"><ele>593.0</ele><time>2026-04-04T11:10:03Z</time></trkpt><trkpt lat="44.07379521936088" lon="10.590758497720492"><ele>593.0</ele><time>2026-04-04T11:10:04Z</time></trkpt><trkpt lat="44.073711037031984" lon="10.590597736262199"><ele>593.0</ele><time>2026-04-04T11:10:05Z</time></trkpt><trkpt lat="44.07363512081596" lon="10.590452798018768"><ele>593.0</ele><time>2026-04-04T11:10:06Z</time></trkpt><trkpt lat="44.07356331640522" lon="10.590327973962665"><ele>593.0</ele><time>2026-04-04T11:10:07Z</time></trkpt><trkpt lat="44.07350028697581" lon="10.590233984999646"><ele>593.8</ele><time>2026-04-04T11:10:08Z</time></trkpt><trkpt lat="44.073447446048185" lon="10.59013706949668"><ele>594.5999999999999</ele><time>2026-04-04T11:10:09Z</time></trkpt><trkpt lat="44.07342732181245" lon="10.59003462555906"><ele>595.4000000000001</ele><time>2026-04-04T11:10:10Z</time></trkpt><trkpt lat="44.07345784594679" lon="10.58992455810032"><ele>596.2</ele><time>2026-04-04T11:10:11Z</time></trkpt><trkpt lat="44.07353195477274" lon="10.589827302247373"><ele>597.0</ele><time>2026-04-04T11:10:12Z</time></trkpt><trkpt lat="44.073670127597225" lon="10.5897687523844"><ele>597.0</ele><time>2026-04-04T11:10:13Z</time></trkpt><trkpt lat="44.073852410295466" lon="10.589704599284076"><ele>597.0</ele><time>2026-04-04T11:10:14Z</time></trkpt><trkpt lat="44.07398243338287" lon="10.589592507157763"><ele>597.0</ele><time>2026-04-04T11:10:15Z</time></trkpt><trkpt lat="44.07410027594514" lon="10.589435575818927"><ele>602.0</ele><time>2026-04-04T11:10:16Z</time></trkpt><trkpt lat="44.07422027155891" lon="10.589239703725076"><ele>607.0</ele><time>2026-04-04T11:10:17Z</time></trkpt><trkpt lat="44.07432100018265" lon="10.589052106561313"><ele>612.0</ele><time>2026-04-04T11:10:18Z</time></trkpt><trkpt lat="44.07441802571528" lon="10.588878478047098"><ele>612.0</ele><time>2026-04-04T11:10:19Z</time></trkpt><trkpt lat="44.07450890349845" lon="10.588714303591638"><ele>612.0</ele><time>2026-04-04T11:10:20Z</time></trkpt><trkpt lat="44.07459553861567" lon="10.588550894820806"><ele>612.0</ele><time>2026-04-04T11:10:21Z</time></trkpt><trkpt lat="44.07468222479789" lon="10.588389797750233"><ele>612.0</ele><time>2026-04-04T11:10:22Z</time></trkpt><trkpt lat="44.074766398999124" lon="10.58822825901806"><ele>607.75</ele><time>2026-04-04T11:10:23Z</time></trkpt><trkpt lat="44.074845698443305" lon="10.588062386675631"><ele>603.5</ele><time>2026-04-04T11:10:24Z</time></trkpt><trkpt lat="44.07491301523203" lon="10.587893118670276"><ele>599.25</ele><time>2026-04-04T11:10:25Z</time></trkpt><trkpt lat="44.07497326640298" lon="10.587733858265056"><ele>595.0</ele><time>2026-04-04T11:10:26Z</time></trkpt><trkpt lat="44.07502672883172" lon="10.587590819600496"><ele>595.0</ele><time>2026-04-04T11:10:27Z</time></trkpt><trkpt lat="44.07508818277499" lon="10.58749615299979"><ele>595.0</ele><time>2026-04-04T11:10:28Z</time></trkpt><trkpt lat="44.075176750065836" lon="10.587408169503338"><ele>595.0</ele><time>2026-04-04T11:10:29Z</time></trkpt><trkpt lat="44.07529988434387" lon="10.587349559584844"><ele>595.0</ele><time>2026-04-04T11:10:30Z</time></trkpt><trkpt lat="44.07544355274565" lon="10.587297424136255"><ele>595.0</ele><time>2026-04-04T11:10:31Z</time></trkpt><trkpt lat="44.075556037846866" lon="10.58725721556737"><ele>595.0</ele><time>2026-04-04T11:10:32Z</time></trkpt><trkpt lat="44.07564308676494" lon="10.587201054215036"><ele>595.0</ele><time>2026-04-04T11:10:33Z</time></trkpt><trkpt lat="44.07569723164276" lon="10.587095307125715"><ele>595.0</ele><time>2026-04-04T11:10:34Z</time></trkpt><trkpt lat="44.075705411029695" lon="10.586970116142465"><ele>595.0</ele><time>2026-04-04T11:10:35Z</time></trkpt><trkpt lat="44.075662720101825" lon="10.586830777867565"><ele>595.75</ele><time>2026-04-04T11:10:36Z</time></trkpt><trkpt lat="44.075581083485424" lon="10.586726365913332"><ele>596.5</ele><time>2026-04-04T11:10:37Z</time></trkpt><trkpt lat="44.07545423435145" lon="10.586669041732401"><ele>597.25</ele><time>2026-04-04T11:10:38Z</time></trkpt><trkpt lat="44.07527031001419" lon="10.586619533017892"><ele>598.0</ele><time>2026-04-04T11:10:39Z</time></trkpt><trkpt lat="44.0750627883673" lon="10.586538348217337"><ele>591.6666666666667</ele><time>2026-04-04T11:10:40Z</time></trkpt><trkpt lat="44.0748827192007" lon="10.586468413946525"><ele>585.3333333333334</ele><time>2026-04-04T11:10:41Z</time></trkpt><trkpt lat="44.074754464641856" lon="10.586343175532457"><ele>579.0</ele><time>2026-04-04T11:10:42Z</time></trkpt><trkpt lat="44.074643503185584" lon="10.586260019024389"><ele>579.0</ele><time>2026-04-04T11:10:43Z</time></trkpt><trkpt lat="44.07453494531837" lon="10.586209530696335"><ele>579.0</ele><time>2026-04-04T11:10:44Z</time></trkpt><trkpt lat="44.074413339063625" lon="10.586238374331247"><ele>579.0</ele><time>2026-04-04T11:10:45Z</time></trkpt><trkpt lat="44.074268558468816" lon="10.586334594326914"><ele>579.0</ele><time>2026-04-04T11:10:46Z</time></trkpt><trkpt lat="44.07414265607426" lon="10.586377141295207"><ele>574.6666666666666</ele><time>2026-04-04T11:10:47Z</time></trkpt><trkpt lat="44.07398440654642" lon="10.586361091593886"><ele>570.3333333333333</ele><time>2026-04-04T11:10:48Z</time></trkpt><trkpt lat="44.07379369091737" lon="10.586303692816857"><ele>566.0</ele><time>2026-04-04T11:10:49Z</time></trkpt><trkpt lat="44.0736432042495" lon="10.586272083416112"><ele>566.0</ele><time>2026-04-04T11:10:50Z</time></trkpt><trkpt lat="44.073511905898485" lon="10.586269072321553"><ele>566.0</ele><time>2026-04-04T11:10:51Z</time></trkpt><trkpt lat="44.073392524987575" lon="10.58630227303091"><ele>566.0</ele><time>2026-04-04T11:10:52Z</time></trkpt><trkpt lat="44.07329695511324" lon="10.586335367057123"><ele>566.0</ele><time>2026-04-04T11:10:53Z</time></trkpt><trkpt lat="44.07320488420871" lon="10.586331335443093"><ele>566.0</ele><time>2026-04-04T11:10:54Z</time></trkpt><trkpt lat="44.07306794197214" lon="10.58625769588035"><ele>569.0</ele><time>2026-04-04T11:10:55Z</time></trkpt><trkpt lat="44.072892976986026" lon="10.586143549989822"><ele>572.0</ele><time>2026-04-04T11:10:56Z</time></trkpt><trkpt lat="44.07272705865955" lon="10.586093219482773"><ele>575.0</ele><time>2026-04-04T11:10:57Z</time></trkpt><trkpt lat="44.07259323664156" lon="10.586082596549861"><ele>575.0</ele><time>2026-04-04T11:10:58Z</time></trkpt><trkpt lat="44.07250877634073" lon="10.58608728937144"><ele>575.0</ele><time>2026-04-04T11:10:59Z</time></trkpt><trkpt lat="44.07244644089765" lon="10.58605337184299"><ele>575.0</ele><time>2026-04-04T11:11:00Z</time></trkpt><trkpt lat="44.07236017624568" lon="10.585943318585576"><ele>575.0</ele><time>2026-04-04T11:11:01Z</time></trkpt><trkpt lat="44.07228364750187" lon="10.585779146057062"><ele>575.0</ele><time>2026-04-04T11:11:02Z</time></trkpt><trkpt lat="44.07222222386514" lon="10.585668207665432"><ele>566.75</ele><time>2026-04-04T11:11:03Z</time></trkpt><trkpt lat="44.07218978166713" lon="10.585498007497746"><ele>558.5</ele><time>2026-04-04T11:11:04Z</time></trkpt><trkpt lat="44.072189558177975" lon="10.585321313639943"><ele>550.25</ele><time>2026-04-04T11:11:05Z</time></trkpt><trkpt lat="44.072217927444214" lon="10.585209063297345"><ele>542.0</ele><time>2026-04-04T11:11:06Z</time></trkpt><trkpt lat="44.07230736444074" lon="10.585106460921658"><ele>542.0</ele><time>2026-04-04T11:11:07Z</time></trkpt><trkpt lat="44.072380031197326" lon="10.585008181817367"><ele>542.0</ele><time>2026-04-04T11:11:08Z</time></trkpt><trkpt lat="44.07240287087325" lon="10.584903112744783"><ele>542.0</ele><time>2026-04-04T11:11:09Z</time></trkpt><trkpt lat="44.07233797550713" lon="10.584745362899602"><ele>542.0</ele><time>2026-04-04T11:11:10Z</time></trkpt><trkpt lat="44.07218673833265" lon="10.584566000441901"><ele>552.25</ele><time>2026-04-04T11:11:11Z</time></trkpt><trkpt lat="44.07202732903973" lon="10.58437267971201"><ele>562.5</ele><time>2026-04-04T11:11:12Z</time></trkpt><trkpt lat="44.07192553245919" lon="10.584249913988405"><ele>572.75</ele><time>2026-04-04T11:11:13Z</time></trkpt><trkpt lat="44.07184283099195" lon="10.58416881356383"><ele>583.0</ele><time>2026-04-04T11:11:14Z</time></trkpt><trkpt lat="44.07178070937836" lon="10.584106035917298"><ele>583.0</ele><time>2026-04-04T11:11:15Z</time></trkpt><trkpt lat="44.07175702444463" lon="10.584018350680948"><ele>583.0</ele><time>2026-04-04T11:11:16Z</time></trkpt><trkpt lat="44.071765228957325" lon="10.583878543605861"><ele>583.0</ele><time>2026-04-04T11:11:17Z</time></trkpt><trkpt lat="44.07179466631683" lon="10.583650821660543"><ele>583.0</ele><time>2026-04-04T11:11:18Z</time></trkpt><trkpt lat="44.0717945432235" lon="10.583382620313841"><ele>582.75</ele><time>2026-04-04T11:11:19Z</time></trkpt><trkpt lat="44.07177272858684" lon="10.583184380679038"><ele>582.5</ele><time>2026-04-04T11:11:20Z</time></trkpt><trkpt lat="44.07178098137884" lon="10.583026063183736"><ele>582.25</ele><time>2026-04-04T11:11:21Z</time></trkpt><trkpt lat="44.071841086895525" lon="10.582878012535275"><ele>582.0</ele><time>2026-04-04T11:11:22Z</time></trkpt><trkpt lat="44.0719465763868" lon="10.582712075536643"><ele>580.75</ele><time>2026-04-04T11:11:23Z</time></trkpt><trkpt lat="44.07202386118603" lon="10.58255713370285"><ele>579.5</ele><time>2026-04-04T11:11:24Z</time></trkpt><trkpt lat="44.07206131873764" lon="10.582374396202834"><ele>578.25</ele><time>2026-04-04T11:11:25Z</time></trkpt><trkpt lat="44.07204364047761" lon="10.582147463588129"><ele>577.0</ele><time>2026-04-04T11:11:26Z</time></trkpt><trkpt lat="44.07201288739552" lon="10.58196404580746"><ele>580.4</ele><time>2026-04-04T11:11:27Z</time></trkpt><trkpt lat="44.0720221584269" lon="10.581806725620009"><ele>583.8000000000001</ele><time>2026-04-04T11:11:28Z</time></trkpt><trkpt lat="44.07205844875486" lon="10.581678809240824"><ele>587.2</ele><time>2026-04-04T11:11:29Z</time></trkpt><trkpt lat="44.07206838706598" lon="10.581565052303416"><ele>590.6</ele><time>2026-04-04T11:11:30Z</time></trkpt><trkpt lat="44.07203487036199" lon="10.581463900887785"><ele>594.0</ele><time>2026-04-04T11:11:31Z</time></trkpt><trkpt lat="44.07193262538704" lon="10.581388317354579"><ele>594.0</ele><time>2026-04-04T11:11:32Z</time></trkpt><trkpt lat="44.07178437582898" lon="10.581331972727092"><ele>594.0</ele><time>2026-04-04T11:11:33Z</time></trkpt><trkpt lat="44.07159323648842" lon="10.58124027877588"><ele>594.0</ele><time>2026-04-04T11:11:34Z</time></trkpt><trkpt lat="44.07144155774012" lon="10.581152818638195"><ele>590.8</ele><time>2026-04-04T11:11:35Z</time></trkpt><trkpt lat="44.07133057837988" lon="10.581101164877253"><ele>587.5999999999999</ele><time>2026-04-04T11:11:36Z</time></trkpt><trkpt lat="44.071239691193725" lon="10.581082397882028"><ele>584.4</ele><time>2026-04-04T11:11:37Z</time></trkpt><trkpt lat="44.071168971587745" lon="10.581035800388293"><ele>581.1999999999999</ele><time>2026-04-04T11:11:38Z</time></trkpt><trkpt lat="44.07108499963993" lon="10.580923360963368"><ele>578.0</ele><time>2026-04-04T11:11:39Z</time></trkpt><trkpt lat="44.07101858391497" lon="10.580770333817634"><ele>578.0</ele><time>2026-04-04T11:11:40Z</time></trkpt><trkpt lat="44.07091654401218" lon="10.58062757974647"><ele>578.0</ele><time>2026-04-04T11:11:41Z</time></trkpt><trkpt lat="44.07081002822861" lon="10.580554745740749"><ele>578.0</ele><time>2026-04-04T11:11:42Z</time></trkpt><trkpt lat="44.07072469843987" lon="10.58045569741832"><ele>578.0</ele><time>2026-04-04T11:11:43Z</time></trkpt><trkpt lat="44.07064660343771" lon="10.580300958930714"><ele>573.0</ele><time>2026-04-04T11:11:44Z</time></trkpt><trkpt lat="44.070595006689786" lon="10.580170843003419"><ele>568.0</ele><time>2026-04-04T11:11:45Z</time></trkpt><trkpt lat="44.07056503988728" lon="10.58007793331183"><ele>563.0</ele><time>2026-04-04T11:11:46Z</time></trkpt><trkpt lat="44.070580692217575" lon="10.579945600301475"><ele>558.0</ele><time>2026-04-04T11:11:47Z</time></trkpt><trkpt lat="44.07064657964195" lon="10.5797538905008"><ele>553.0</ele><time>2026-04-04T11:11:48Z</time></trkpt><trkpt lat="44.07072696091259" lon="10.579505393432175"><ele>568.0</ele><time>2026-04-04T11:11:49Z</time></trkpt><trkpt lat="44.07079378557473" lon="10.579259852980172"><ele>583.0</ele><time>2026-04-04T11:11:50Z</time></trkpt><trkpt lat="44.07087564056216" lon="10.579048863593432"><ele>598.0</ele><time>2026-04-04T11:11:51Z</time></trkpt><trkpt lat="44.07097090992773" lon="10.578834724101544"><ele>595.25</ele><time>2026-04-04T11:11:52Z</time></trkpt><trkpt lat="44.07105737345482" lon="10.578655129864151"><ele>592.5</ele><time>2026-04-04T11:11:53Z</time></trkpt><trkpt lat="44.071115232598025" lon="10.57851894053443"><ele>589.75</ele><time>2026-04-04T11:11:54Z</time></trkpt><trkpt lat="44.07116247211541" lon="10.578395236968491"><ele>587.0</ele><time>2026-04-04T11:11:55Z</time></trkpt><trkpt lat="44.07116564656213" lon="10.578261251033673"><ele>587.0</ele><time>2026-04-04T11:11:56Z</time></trkpt><trkpt lat="44.07112788498542" lon="10.578116432324691"><ele>587.0</ele><time>2026-04-04T11:11:57Z</time></trkpt><trkpt lat="44.071008586325696" lon="10.57796453577831"><ele>587.0</ele><time>2026-04-04T11:11:58Z</time></trkpt><trkpt lat="44.07085904594721" lon="10.577788080621577"><ele>590.3333333333333</ele><time>2026-04-04T11:11:59Z</time></trkpt><trkpt lat="44.07070872410876" lon="10.577624024934961"><ele>593.6666666666666</ele><time>2026-04-04T11:12:00Z</time></trkpt><trkpt lat="44.07053346098115" lon="10.577484829971791"><ele>597.0</ele><time>2026-04-04T11:12:01Z</time></trkpt><trkpt lat="44.070387687893586" lon="10.577371836910018"><ele>597.0</ele><time>2026-04-04T11:12:02Z</time></trkpt><trkpt lat="44.070281832446945" lon="10.577268264865523"><ele>597.0</ele><time>2026-04-04T11:12:03Z</time></trkpt><trkpt lat="44.07019879652567" lon="10.57718914441662"><ele>597.0</ele><time>2026-04-04T11:12:04Z</time></trkpt><trkpt lat="44.070099651737905" lon="10.57716965490753"><ele>597.0</ele><time>2026-04-04T11:12:05Z</time></trkpt><trkpt lat="44.07002004632853" lon="10.577200583457643"><ele>597.0</ele><time>2026-04-04T11:12:06Z</time></trkpt><trkpt lat="44.06993876408318" lon="10.577280933454798"><ele>598.75</ele><time>2026-04-04T11:12:07Z</time></trkpt><trkpt lat="44.0698396937333" lon="10.577393471853817"><ele>600.5</ele><time>2026-04-04T11:12:08Z</time></trkpt><trkpt lat="44.06975225425935" lon="10.57751666111881"><ele>602.25</ele><time>2026-04-04T11:12:09Z</time></trkpt><trkpt lat="44.06967677127332" lon="10.577584855850002"><ele>604.0</ele><time>2026-04-04T11:12:10Z</time></trkpt><trkpt lat="44.06956903483626" lon="10.577568287184791"><ele>604.0</ele><time>2026-04-04T11:12:11Z</time></trkpt><trkpt lat="44.069407033416155" lon="10.577557425595579"><ele>604.0</ele><time>2026-04-04T11:12:12Z</time></trkpt><trkpt lat="44.0692168418935" lon="10.57753182252047"><ele>604.0</ele><time>2026-04-04T11:12:13Z</time></trkpt><trkpt lat="44.06904126260218" lon="10.577538914432303"><ele>602.25</ele><time>2026-04-04T11:12:14Z</time></trkpt><trkpt lat="44.068901515846434" lon="10.577580052605798"><ele>600.5</ele><time>2026-04-04T11:12:15Z</time></trkpt><trkpt lat="44.06879392033259" lon="10.57765851353093"><ele>598.75</ele><time>2026-04-04T11:12:16Z</time></trkpt><trkpt lat="44.06870926813574" lon="10.577705148602366"><ele>597.0</ele><time>2026-04-04T11:12:17Z</time></trkpt><trkpt lat="44.06859373224851" lon="10.577700272732217"><ele>597.0</ele><time>2026-04-04T11:12:18Z</time></trkpt><trkpt lat="44.068428331261174" lon="10.577610531679898"><ele>597.0</ele><time>2026-04-04T11:12:19Z</time></trkpt><trkpt lat="44.06824235268845" lon="10.577515159232135"><ele>597.0</ele><time>2026-04-04T11:12:20Z</time></trkpt><trkpt lat="44.068115787287276" lon="10.577466982445214"><ele>600.25</ele><time>2026-04-04T11:12:21Z</time></trkpt><trkpt lat="44.068020037476785" lon="10.57742028299865"><ele>603.5</ele><time>2026-04-04T11:12:22Z</time></trkpt><trkpt lat="44.06792292216289" lon="10.577295271175517"><ele>606.75</ele><time>2026-04-04T11:12:23Z</time></trkpt><trkpt lat="44.06782601396022" lon="10.577087796606595"><ele>610.0</ele><time>2026-04-04T11:12:24Z</time></trkpt><trkpt lat="44.06776836447303" lon="10.576909617498794"><ele>610.0</ele><time>2026-04-04T11:12:25Z</time></trkpt><trkpt lat="44.067717182968096" lon="10.576775454726604"><ele>610.0</ele><time>2026-04-04T11:12:26Z</time></trkpt><trkpt lat="44.067610974891615" lon="10.576673836696584"><ele>610.0</ele><time>2026-04-04T11:12:27Z</time></trkpt><trkpt lat="44.06742723805767" lon="10.576584088916828"><ele>610.0</ele><time>2026-04-04T11:12:28Z</time></trkpt><trkpt lat="44.067235271689036" lon="10.576496771944283"><ele>600.0</ele><time>2026-04-04T11:12:29Z</time></trkpt><trkpt lat="44.067075274471094" lon="10.576426256541666"><ele>590.0</ele><time>2026-04-04T11:12:30Z</time></trkpt><trkpt lat="44.066945135309304" lon="10.576361916041897"><ele>580.0</ele><time>2026-04-04T11:12:31Z</time></trkpt><trkpt lat="44.06681352380023" lon="10.576241762776519"><ele>594.0</ele><time>2026-04-04T11:12:32Z</time></trkpt><trkpt lat="44.066683379049806" lon="10.576131654662014"><ele>608.0</ele><time>2026-04-04T11:12:33Z</time></trkpt><trkpt lat="44.066597466406094" lon="10.576023596164617"><ele>622.0</ele><time>2026-04-04T11:12:34Z</time></trkpt><trkpt lat="44.06651565108089" lon="10.57595353007259"><ele>636.0</ele><time>2026-04-04T11:12:35Z</time></trkpt><trkpt lat="44.06640066202492" lon="10.575954582849027"><ele>637.75</ele><time>2026-04-04T11:12:36Z</time></trkpt><trkpt lat="44.06625884767574" lon="10.576014921513712"><ele>639.5</ele><time>2026-04-04T11:12:37Z</time></trkpt><trkpt lat="44.066123231235004" lon="10.576111382157409"><ele>641.25</ele><time>2026-04-04T11:12:38Z</time></trkpt><trkpt lat="44.06603964256666" lon="10.576213329414598"><ele>643.0</ele><time>2026-04-04T11:12:39Z</time></trkpt><trkpt lat="44.06596924808389" lon="10.576274681646098"><ele>634.6</ele><time>2026-04-04T11:12:40Z</time></trkpt><trkpt lat="44.06586987474921" lon="10.576281024210209"><ele>626.1999999999999</ele><time>2026-04-04T11:12:41Z</time></trkpt><trkpt lat="44.06575777595693" lon="10.576234146511478"><ele>617.8</ele><time>2026-04-04T11:12:42Z</time></trkpt><trkpt lat="44.06565752547174" lon="10.57626468098113"><ele>609.4</ele><time>2026-04-04T11:12:43Z</time></trkpt><trkpt lat="44.065584306361735" lon="10.576382191684871"><ele>601.0</ele><time>2026-04-04T11:12:44Z</time></trkpt><trkpt lat="44.06554494398712" lon="10.576528240465812"><ele>601.0</ele><time>2026-04-04T11:12:45Z</time></trkpt><trkpt lat="44.06546469204659" lon="10.576673744706694"><ele>601.0</ele><time>2026-04-04T11:12:47Z</time></trkpt><trkpt lat="44.06530601735183" lon="10.576694150615655"><ele>601.0</ele><time>2026-04-04T11:12:48Z</time></trkpt><trkpt lat="44.06504548243612" lon="10.576747493836965"><ele>598.0</ele><time>2026-04-04T11:12:49Z</time></trkpt><trkpt lat="44.06480342471353" lon="10.576769635462854"><ele>595.0</ele><time>2026-04-04T11:12:50Z</time></trkpt><trkpt lat="44.064633565849206" lon="10.576771616227248"><ele>592.0</ele><time>2026-04-04T11:12:51Z</time></trkpt><trkpt lat="44.064491827457935" lon="10.576805527199964"><ele>592.0</ele><time>2026-04-04T11:12:52Z</time></trkpt><trkpt lat="44.064366294482504" lon="10.57682881572805"><ele>592.0</ele><time>2026-04-04T11:12:53Z</time></trkpt><trkpt lat="44.064264865661904" lon="10.576845287696461"><ele>592.0</ele><time>2026-04-04T11:12:54Z</time></trkpt><trkpt lat="44.06416617180825" lon="10.57682628002345"><ele>592.0</ele><time>2026-04-04T11:12:55Z</time></trkpt><trkpt lat="44.064049677058364" lon="10.576715977849824"><ele>582.25</ele><time>2026-04-04T11:12:56Z</time></trkpt><trkpt lat="44.06393431949335" lon="10.576554915092556"><ele>572.5</ele><time>2026-04-04T11:12:57Z</time></trkpt><trkpt lat="44.06383936783503" lon="10.57643079667017"><ele>562.75</ele><time>2026-04-04T11:12:58Z</time></trkpt><trkpt lat="44.06376027619542" lon="10.576324780267436"><ele>553.0</ele><time>2026-04-04T11:12:59Z</time></trkpt><trkpt lat="44.06370296129772" lon="10.576205914507447"><ele>559.5</ele><time>2026-04-04T11:13:00Z</time></trkpt><trkpt lat="44.06366365070374" lon="10.576081772229681"><ele>566.0</ele><time>2026-04-04T11:13:01Z</time></trkpt><trkpt lat="44.06364334846833" lon="10.575948807583647"><ele>572.5</ele><time>2026-04-04T11:13:02Z</time></trkpt><trkpt lat="44.06361496568953" lon="10.575858355603382"><ele>579.0</ele><time>2026-04-04T11:13:03Z</time></trkpt><trkpt lat="44.063572840554066" lon="10.575756274120723"><ele>585.5</ele><time>2026-04-04T11:13:05Z</time></trkpt><trkpt lat="44.06351924147198" lon="10.575697517621016"><ele>592.0</ele><time>2026-04-04T11:14:00Z</time></trkpt><trkpt lat="44.063367909933554" lon="10.575654582667244"><ele>585.8000000000001</ele><time>2026-04-04T11:14:02Z</time></trkpt><trkpt lat="44.06323173907235" lon="10.575660280701625"><ele>579.6</ele><time>2026-04-04T11:14:03Z</time></trkpt><trkpt lat="44.06311469278338" lon="10.5756703455775"><ele>573.4000000000001</ele><time>2026-04-04T11:14:04Z</time></trkpt><trkpt lat="44.06303002215562" lon="10.57568632187902"><ele>567.2</ele><time>2026-04-04T11:14:05Z</time></trkpt><trkpt lat="44.06293441944441" lon="10.575646178933006"><ele>561.0</ele><time>2026-04-04T11:14:06Z</time></trkpt><trkpt lat="44.0628118561662" lon="10.575506344848726"><ele>561.0</ele><time>2026-04-04T11:14:07Z</time></trkpt><trkpt lat="44.062663170070536" lon="10.57534362772919"><ele>561.0</ele><time>2026-04-04T11:14:08Z</time></trkpt><trkpt lat="44.06249966483704" lon="10.575174853083352"><ele>561.0</ele><time>2026-04-04T11:14:09Z</time></trkpt><trkpt lat="44.06237163769253" lon="10.575036702569891"><ele>561.0</ele><time>2026-04-04T11:14:10Z</time></trkpt><trkpt lat="44.06227605719876" lon="10.574925200578427"><ele>561.0</ele><time>2026-04-04T11:14:11Z</time></trkpt><trkpt lat="44.06220658057644" lon="10.574790528844385"><ele>561.0</ele><time>2026-04-04T11:14:12Z</time></trkpt><trkpt lat="44.06210294966074" lon="10.574636001711177"><ele>561.0</ele><time>2026-04-04T11:14:13Z</time></trkpt><trkpt lat="44.06203189110682" lon="10.574456771812727"><ele>569.75</ele><time>2026-04-04T11:14:14Z</time></trkpt><trkpt lat="44.06198748420985" lon="10.57426027638229"><ele>578.5</ele><time>2026-04-04T11:14:15Z</time></trkpt><trkpt lat="44.06194921736943" lon="10.574109141082113"><ele>587.25</ele><time>2026-04-04T11:14:16Z</time></trkpt><trkpt lat="44.06190558473157" lon="10.573985633519348"><ele>596.0</ele><time>2026-04-04T11:14:17Z</time></trkpt><trkpt lat="44.061813796508666" lon="10.573962249965161"><ele>596.0</ele><time>2026-04-04T11:14:18Z</time></trkpt><trkpt lat="44.06171725944102" lon="10.573949184730205"><ele>596.0</ele><time>2026-04-04T11:14:19Z</time></trkpt><trkpt lat="44.061585965842774" lon="10.573979041132674"><ele>596.0</ele><time>2026-04-04T11:14:20Z</time></trkpt><trkpt lat="44.06140795138781" lon="10.573945896898731"><ele>596.0</ele><time>2026-04-04T11:14:21Z</time></trkpt><trkpt lat="44.06122508490957" lon="10.573930864787924"><ele>592.6666666666666</ele><time>2026-04-04T11:14:22Z</time></trkpt><trkpt lat="44.06100261939227" lon="10.57406312795129"><ele>589.3333333333334</ele><time>2026-04-04T11:14:23Z</time></trkpt><trkpt lat="44.06082275102203" lon="10.574203622614897"><ele>586.0</ele><time>2026-04-04T11:14:24Z</time></trkpt><trkpt lat="44.06068439422259" lon="10.574269357906763"><ele>576.3333333333334</ele><time>2026-04-04T11:14:25Z</time></trkpt><trkpt lat="44.06054459654419" lon="10.574252582615403"><ele>566.6666666666666</ele><time>2026-04-04T11:14:26Z</time></trkpt><trkpt lat="44.06039978493576" lon="10.574119248203083"><ele>557.0</ele><time>2026-04-04T11:14:27Z</time></trkpt><trkpt lat="44.06029179958762" lon="10.573983622490005"><ele>557.0</ele><time>2026-04-04T11:14:28Z</time></trkpt><trkpt lat="44.06021386711885" lon="10.573849875920931"><ele>557.0</ele><time>2026-04-04T11:14:29Z</time></trkpt><trkpt lat="44.060178872612006" lon="10.57368792570588"><ele>557.0</ele><time>2026-04-04T11:14:30Z</time></trkpt><trkpt lat="44.06020279277798" lon="10.573521412616758"><ele>557.0</ele><time>2026-04-04T11:14:31Z</time></trkpt><trkpt lat="44.06025715925782" lon="10.573373767628697"><ele>556.0</ele><time>2026-04-04T11:14:32Z</time></trkpt><trkpt lat="44.06036060582049" lon="10.573238309780868"><ele>555.0</ele><time>2026-04-04T11:14:33Z</time></trkpt><trkpt lat="44.06043526280081" lon="10.573130391526384"><ele>554.0</ele><time>2026-04-04T11:14:34Z</time></trkpt><trkpt lat="44.06050142934386" lon="10.573051630123913"><ele>553.0</ele><time>2026-04-04T11:14:35Z</time></trkpt><trkpt lat="44.06060287234105" lon="10.573010944929528"><ele>552.0</ele><time>2026-04-04T11:14:36Z</time></trkpt><trkpt lat="44.0607383673386" lon="10.572983324130078"><ele>551.6666666666666</ele><time>2026-04-04T11:14:37Z</time></trkpt><trkpt lat="44.06092473267516" lon="10.572931120699204"><ele>551.3333333333333</ele><time>2026-04-04T11:14:38Z</time></trkpt><trkpt lat="44.061099660503736" lon="10.57287651953907"><ele>551.0</ele><time>2026-04-04T11:14:39Z</time></trkpt><trkpt lat="44.061237508689395" lon="10.572805477028782"><ele>551.0</ele><time>2026-04-04T11:14:40Z</time></trkpt><trkpt lat="44.06136519642996" lon="10.572699514991546"><ele>551.0</ele><time>2026-04-04T11:14:41Z</time></trkpt><trkpt lat="44.0614718075233" lon="10.572565109126739"><ele>551.0</ele><time>2026-04-04T11:14:42Z</time></trkpt><trkpt lat="44.06155601371951" lon="10.572427708988311"><ele>551.0</ele><time>2026-04-04T11:14:43Z</time></trkpt><trkpt lat="44.06161347818406" lon="10.572287164619448"><ele>551.6</ele><time>2026-04-04T11:14:44Z</time></trkpt><trkpt lat="44.061628599767516" lon="10.572138888988848"><ele>552.2</ele><time>2026-04-04T11:14:45Z</time></trkpt><trkpt lat="44.06160293901756" lon="10.572002912601027"><ele>552.8</ele><time>2026-04-04T11:14:46Z</time></trkpt><trkpt lat="44.06154167381591" lon="10.57190617469381"><ele>553.4</ele><time>2026-04-04T11:14:47Z</time></trkpt><trkpt lat="44.06141930058676" lon="10.571874477594989"><ele>554.0</ele><time>2026-04-04T11:14:48Z</time></trkpt><trkpt lat="44.06127179272927" lon="10.571855163514266"><ele>554.0</ele><time>2026-04-04T11:14:49Z</time></trkpt><trkpt lat="44.06114201114555" lon="10.571836722407436"><ele>554.0</ele><time>2026-04-04T11:14:50Z</time></trkpt><trkpt lat="44.06105398778871" lon="10.571794124710053"><ele>554.0</ele><time>2026-04-04T11:14:51Z</time></trkpt><trkpt lat="44.06098954770171" lon="10.571713173001072"><ele>554.0</ele><time>2026-04-04T11:14:52Z</time></trkpt><trkpt lat="44.06099205052318" lon="10.571495493395501"><ele>554.0</ele><time>2026-04-04T11:14:53Z</time></trkpt><trkpt lat="44.06098578579285" lon="10.571305857656213"><ele>554.0</ele><time>2026-04-04T11:14:54Z</time></trkpt><trkpt lat="44.06095044695327" lon="10.571187582258586"><ele>554.0</ele><time>2026-04-04T11:14:55Z</time></trkpt><trkpt lat="44.06086431964498" lon="10.571129131334883"><ele>554.0</ele><time>2026-04-04T11:14:56Z</time></trkpt><trkpt lat="44.06075904595503" lon="10.571132319009214"><ele>554.0</ele><time>2026-04-04T11:14:57Z</time></trkpt><trkpt lat="44.06061220163355" lon="10.571202566905386"><ele>546.3333333333333</ele><time>2026-04-04T11:14:58Z</time></trkpt><trkpt lat="44.06041220630969" lon="10.571248619000777"><ele>538.6666666666666</ele><time>2026-04-04T11:14:59Z</time></trkpt><trkpt lat="44.06024532016334" lon="10.571266859361542"><ele>531.0</ele><time>2026-04-04T11:15:00Z</time></trkpt><trkpt lat="44.06013392473755" lon="10.57127871353904"><ele>531.0</ele><time>2026-04-04T11:15:01Z</time></trkpt><trkpt lat="44.06002402757491" lon="10.571246017210388"><ele>531.0</ele><time>2026-04-04T11:15:02Z</time></trkpt><trkpt lat="44.05988589907102" lon="10.571141727033204"><ele>531.0</ele><time>2026-04-04T11:15:03Z</time></trkpt><trkpt lat="44.05978791513521" lon="10.571041953714337"><ele>531.0</ele><time>2026-04-04T11:15:04Z</time></trkpt><trkpt lat="44.0596837571508" lon="10.571042594051123"><ele>527.75</ele><time>2026-04-04T11:15:05Z</time></trkpt><trkpt lat="44.05955924219144" lon="10.571159995841708"><ele>524.5</ele><time>2026-04-04T11:15:06Z</time></trkpt><trkpt lat="44.05947162347557" lon="10.571284465245192"><ele>521.25</ele><time>2026-04-04T11:15:07Z</time></trkpt><trkpt lat="44.059391693533726" lon="10.571350355347837"><ele>518.0</ele><time>2026-04-04T11:15:08Z</time></trkpt><trkpt lat="44.059274709047976" lon="10.571308933787584"><ele>521.75</ele><time>2026-04-04T11:15:09Z</time></trkpt><trkpt lat="44.059157256778406" lon="10.571156541422978"><ele>525.5</ele><time>2026-04-04T11:15:10Z</time></trkpt><trkpt lat="44.059047890862395" lon="10.570988814036987"><ele>529.25</ele><time>2026-04-04T11:15:11Z</time></trkpt><trkpt lat="44.05895269503404" lon="10.570882310759153"><ele>533.0</ele><time>2026-04-04T11:15:12Z</time></trkpt><trkpt lat="44.05883515936078" lon="10.570856628010965"><ele>533.0</ele><time>2026-04-04T11:15:13Z</time></trkpt><trkpt lat="44.05866730725644" lon="10.570880432662259"><ele>533.0</ele><time>2026-04-04T11:15:14Z</time></trkpt><trkpt lat="44.05852144600892" lon="10.570929667097941"><ele>533.0</ele><time>2026-04-04T11:15:15Z</time></trkpt><trkpt lat="44.05841388404235" lon="10.570945565395341"><ele>533.0</ele><time>2026-04-04T11:15:16Z</time></trkpt><trkpt lat="44.05833690259447" lon="10.570903814532478"><ele>533.0</ele><time>2026-04-04T11:15:17Z</time></trkpt><trkpt lat="44.058310208913426" lon="10.570803503950973"><ele>533.0</ele><time>2026-04-04T11:15:18Z</time></trkpt><trkpt lat="44.05832948738925" lon="10.570679696245435"><ele>533.0</ele><time>2026-04-04T11:15:19Z</time></trkpt><trkpt lat="44.05839188016486" lon="10.5705249546062"><ele>533.0</ele><time>2026-04-04T11:15:20Z</time></trkpt><trkpt lat="44.058472279081194" lon="10.57032735513117"><ele>530.6666666666666</ele><time>2026-04-04T11:15:21Z</time></trkpt><trkpt lat="44.05850089916997" lon="10.570102198476123"><ele>528.3333333333334</ele><time>2026-04-04T11:15:22Z</time></trkpt><trkpt lat="44.05847248415781" lon="10.569863371230396"><ele>526.0</ele><time>2026-04-04T11:15:23Z</time></trkpt><trkpt lat="44.05846048454871" lon="10.569664966923758"><ele>525.3333333333334</ele><time>2026-04-04T11:15:24Z</time></trkpt><trkpt lat="44.058494222219174" lon="10.56946868875751"><ele>524.6666666666666</ele><time>2026-04-04T11:15:25Z</time></trkpt><trkpt lat="44.05856495344034" lon="10.569230516202566"><ele>524.0</ele><time>2026-04-04T11:15:26Z</time></trkpt><trkpt lat="44.0585960488132" lon="10.569007297428554"><ele>524.0</ele><time>2026-04-04T11:15:27Z</time></trkpt><trkpt lat="44.058589810648385" lon="10.568803426346578"><ele>524.0</ele><time>2026-04-04T11:15:28Z</time></trkpt><trkpt lat="44.058535249960485" lon="10.568575296625367"><ele>524.0</ele><time>2026-04-04T11:15:29Z</time></trkpt><trkpt lat="44.05846645117364" lon="10.56838999921226"><ele>521.0</ele><time>2026-04-04T11:15:30Z</time></trkpt><trkpt lat="44.05843447367724" lon="10.568255053339845"><ele>518.0</ele><time>2026-04-04T11:15:31Z</time></trkpt><trkpt lat="44.05839608029409" lon="10.568158546439895"><ele>515.0</ele><time>2026-04-04T11:15:32Z</time></trkpt><trkpt lat="44.05828472905482" lon="10.568129721097577"><ele>512.0</ele><time>2026-04-04T11:15:33Z</time></trkpt><trkpt lat="44.05812347616421" lon="10.568146061255586"><ele>512.0</ele><time>2026-04-04T11:15:34Z</time></trkpt><trkpt lat="44.05789589793875" lon="10.568163496638903"><ele>512.0</ele><time>2026-04-04T11:15:35Z</time></trkpt><trkpt lat="44.057669213849486" lon="10.568157893881326"><ele>512.0</ele><time>2026-04-04T11:15:36Z</time></trkpt><trkpt lat="44.057505858573975" lon="10.56817150304964"><ele>512.0</ele><time>2026-04-04T11:15:37Z</time></trkpt><trkpt lat="44.05739468083016" lon="10.56817665543403"><ele>512.0</ele><time>2026-04-04T11:15:38Z</time></trkpt><trkpt lat="44.05731666531321" lon="10.568163945690126"><ele>512.0</ele><time>2026-04-04T11:15:39Z</time></trkpt><trkpt lat="44.05723968669571" lon="10.568043976941725"><ele>502.3333333333333</ele><time>2026-04-04T11:15:41Z</time></trkpt><trkpt lat="44.05726794534517" lon="10.567847143438701"><ele>492.66666666666663</ele><time>2026-04-04T11:15:42Z</time></trkpt><trkpt lat="44.05732012365802" lon="10.567582030389088"><ele>483.0</ele><time>2026-04-04T11:15:43Z</time></trkpt><trkpt lat="44.057367129043385" lon="10.5673717382667"><ele>483.0</ele><time>2026-04-04T11:15:44Z</time></trkpt><trkpt lat="44.05740529609272" lon="10.567242469643674"><ele>483.0</ele><time>2026-04-04T11:15:45Z</time></trkpt><trkpt lat="44.05741399057595" lon="10.567092028791322"><ele>483.0</ele><time>2026-04-04T11:15:46Z</time></trkpt><trkpt lat="44.05735577740294" lon="10.566903033102676"><ele>483.0</ele><time>2026-04-04T11:15:47Z</time></trkpt><trkpt lat="44.05729478131942" lon="10.566748679340758"><ele>491.5</ele><time>2026-04-04T11:15:48Z</time></trkpt><trkpt lat="44.05720325152948" lon="10.566657143450826"><ele>500.0</ele><time>2026-04-04T11:15:49Z</time></trkpt><trkpt lat="44.057090443462876" lon="10.56660996723283"><ele>508.5</ele><time>2026-04-04T11:15:50Z</time></trkpt><trkpt lat="44.056927524513924" lon="10.56660623426625"><ele>517.0</ele><time>2026-04-04T11:15:51Z</time></trkpt><trkpt lat="44.056703439979046" lon="10.566601883757519"><ele>509.33333333333337</ele><time>2026-04-04T11:15:52Z</time></trkpt><trkpt lat="44.05645350653844" lon="10.566584397818515"><ele>501.66666666666663</ele><time>2026-04-04T11:15:53Z</time></trkpt><trkpt lat="44.056256469270174" lon="10.56656672172768"><ele>494.0</ele><time>2026-04-04T11:15:54Z</time></trkpt><trkpt lat="44.05609257343102" lon="10.566568556225905"><ele>494.0</ele><time>2026-04-04T11:15:55Z</time></trkpt><trkpt lat="44.05593925646835" lon="10.566549122695527"><ele>494.0</ele><time>2026-04-04T11:15:56Z</time></trkpt><trkpt lat="44.055817209416254" lon="10.566542714755595"><ele>494.0</ele><time>2026-04-04T11:15:57Z</time></trkpt><trkpt lat="44.0557088251892" lon="10.566544048924959"><ele>494.0</ele><time>2026-04-04T11:15:58Z</time></trkpt><trkpt lat="44.05561127848498" lon="10.56647915059208"><ele>485.25</ele><time>2026-04-04T11:15:59Z</time></trkpt><trkpt lat="44.05552183888177" lon="10.566346007339638"><ele>476.5</ele><time>2026-04-04T11:16:00Z</time></trkpt><trkpt lat="44.05547780161854" lon="10.566186934280237"><ele>467.75</ele><time>2026-04-04T11:16:01Z</time></trkpt><trkpt lat="44.05547814043566" lon="10.566037501903564"><ele>459.0</ele><time>2026-04-04T11:16:02Z</time></trkpt><trkpt lat="44.055522353314096" lon="10.565863959646052"><ele>458.66666666666663</ele><time>2026-04-04T11:16:03Z</time></trkpt><trkpt lat="44.05559098870379" lon="10.56562411836375"><ele>458.3333333333333</ele><time>2026-04-04T11:16:04Z</time></trkpt><trkpt lat="44.05568722323644" lon="10.565341747988443"><ele>458.0</ele><time>2026-04-04T11:16:05Z</time></trkpt><trkpt lat="44.05573360442981" lon="10.565105055186246"><ele>461.4</ele><time>2026-04-04T11:16:06Z</time></trkpt><trkpt lat="44.05577928072189" lon="10.564945301442142"><ele>464.79999999999995</ele><time>2026-04-04T11:16:07Z</time></trkpt><trkpt lat="44.05580841443173" lon="10.564806282540838"><ele>468.2</ele><time>2026-04-04T11:16:08Z</time></trkpt><trkpt lat="44.05581139958434" lon="10.564667397277029"><ele>471.6</ele><time>2026-04-04T11:16:09Z</time></trkpt><trkpt lat="44.055745074036416" lon="10.564554094846011"><ele>475.0</ele><time>2026-04-04T11:16:10Z</time></trkpt><trkpt lat="44.05561506467842" lon="10.564453290401628"><ele>479.5</ele><time>2026-04-04T11:16:11Z</time></trkpt><trkpt lat="44.05547588039809" lon="10.564376243739172"><ele>484.0</ele><time>2026-04-04T11:16:12Z</time></trkpt><trkpt lat="44.0553580019131" lon="10.564319694952985"><ele>488.5</ele><time>2026-04-04T11:16:13Z</time></trkpt><trkpt lat="44.0552187238977" lon="10.564300297367552"><ele>493.0</ele><time>2026-04-04T11:16:14Z</time></trkpt><trkpt lat="44.05508566585446" lon="10.564267304141328"><ele>493.0</ele><time>2026-04-04T11:16:15Z</time></trkpt><trkpt lat="44.05497252844684" lon="10.564253882377065"><ele>493.0</ele><time>2026-04-04T11:16:16Z</time></trkpt><trkpt lat="44.05484230060444" lon="10.564275757472583"><ele>493.0</ele><time>2026-04-04T11:16:17Z</time></trkpt><trkpt lat="44.05471360956534" lon="10.564319213631281"><ele>493.0</ele><time>2026-04-04T11:16:18Z</time></trkpt><trkpt lat="44.05463132709462" lon="10.564381226465363"><ele>487.59999999999997</ele><time>2026-04-04T11:16:19Z</time></trkpt><trkpt lat="44.05456275766364" lon="10.564389022216796"><ele>482.19999999999993</ele><time>2026-04-04T11:16:20Z</time></trkpt><trkpt lat="44.05448857186105" lon="10.564330475377027"><ele>476.8</ele><time>2026-04-04T11:16:21Z</time></trkpt><trkpt lat="44.054463158662806" lon="10.564227286011695"><ele>471.4</ele><time>2026-04-04T11:16:22Z</time></trkpt><trkpt lat="44.05447156344454" lon="10.564072735393832"><ele>466.0</ele><time>2026-04-04T11:16:23Z</time></trkpt><trkpt lat="44.05451272054504" lon="10.56389726442112"><ele>466.0</ele><time>2026-04-04T11:16:24Z</time></trkpt><trkpt lat="44.054504236749395" lon="10.563779307717118"><ele>466.0</ele><time>2026-04-04T11:16:25Z</time></trkpt><trkpt lat="44.05442583726061" lon="10.56369668583739"><ele>466.0</ele><time>2026-04-04T11:16:26Z</time></trkpt><trkpt lat="44.05430614180239" lon="10.563662435433617"><ele>466.0</ele><time>2026-04-04T11:16:27Z</time></trkpt><trkpt lat="44.05414270571552" lon="10.56366861297437"><ele>465.0</ele><time>2026-04-04T11:16:28Z</time></trkpt><trkpt lat="44.053996638891775" lon="10.56362667196208"><ele>464.0</ele><time>2026-04-04T11:16:29Z</time></trkpt><trkpt lat="44.053881266198516" lon="10.563579205201165"><ele>463.0</ele><time>2026-04-04T11:16:30Z</time></trkpt><trkpt lat="44.053776165132376" lon="10.563525672415688"><ele>462.0</ele><time>2026-04-04T11:16:31Z</time></trkpt><trkpt lat="44.05369649106818" lon="10.563472025170292"><ele>462.0</ele><time>2026-04-04T11:16:32Z</time></trkpt><trkpt lat="44.05364736954167" lon="10.563377411309473"><ele>462.0</ele><time>2026-04-04T11:16:33Z</time></trkpt><trkpt lat="44.053600652343924" lon="10.563189011004704"><ele>462.0</ele><time>2026-04-04T11:16:34Z</time></trkpt><trkpt lat="44.05356837835854" lon="10.562964400746983"><ele>462.0</ele><time>2026-04-04T11:16:35Z</time></trkpt><trkpt lat="44.053534473846824" lon="10.56282883003196"><ele>461.40000000000003</ele><time>2026-04-04T11:16:36Z</time></trkpt><trkpt lat="44.053511229911855" lon="10.562736421266045"><ele>460.80000000000007</ele><time>2026-04-04T11:16:37Z</time></trkpt><trkpt lat="44.053449753102676" lon="10.56267059382823"><ele>460.2</ele><time>2026-04-04T11:16:38Z</time></trkpt><trkpt lat="44.05334426267957" lon="10.562669090694365"><ele>459.6</ele><time>2026-04-04T11:16:39Z</time></trkpt><trkpt lat="44.05321269295421" lon="10.562754212130065"><ele>459.0</ele><time>2026-04-04T11:16:40Z</time></trkpt><trkpt lat="44.05311158333977" lon="10.56283427549966"><ele>459.0</ele><time>2026-04-04T11:16:41Z</time></trkpt><trkpt lat="44.05303815340475" lon="10.562910194367886"><ele>459.0</ele><time>2026-04-04T11:16:42Z</time></trkpt><trkpt lat="44.052965058420334" lon="10.562886286390315"><ele>459.0</ele><time>2026-04-04T11:16:43Z</time></trkpt><trkpt lat="44.0528766410412" lon="10.562794711445607"><ele>459.0</ele><time>2026-04-04T11:16:44Z</time></trkpt><trkpt lat="44.052755004164645" lon="10.562607338469261"><ele>459.0</ele><time>2026-04-04T11:16:45Z</time></trkpt><trkpt lat="44.05265249398495" lon="10.562473014943352"><ele>459.0</ele><time>2026-04-04T11:16:46Z</time></trkpt><trkpt lat="44.05257550595979" lon="10.562362339419119"><ele>459.0</ele><time>2026-04-04T11:16:47Z</time></trkpt><trkpt lat="44.052541953783454" lon="10.562237936109996"><ele>459.0</ele><time>2026-04-04T11:16:48Z</time></trkpt><trkpt lat="44.052513423567476" lon="10.562136041398848"><ele>459.0</ele><time>2026-04-04T11:16:49Z</time></trkpt><trkpt lat="44.05244278340838" lon="10.562067988923674"><ele>451.0</ele><time>2026-04-04T11:16:50Z</time></trkpt><trkpt lat="44.0523049113459" lon="10.562125787552526"><ele>443.0</ele><time>2026-04-04T11:16:51Z</time></trkpt><trkpt lat="44.0521783858636" lon="10.562215126134644"><ele>435.0</ele><time>2026-04-04T11:16:52Z</time></trkpt><trkpt lat="44.05207560363192" lon="10.562261130986638"><ele>427.0</ele><time>2026-04-04T11:16:53Z</time></trkpt><trkpt lat="44.05196502444296" lon="10.562220440138653"><ele>427.0</ele><time>2026-04-04T11:16:54Z</time></trkpt><trkpt lat="44.05181239074723" lon="10.562128506647964"><ele>427.0</ele><time>2026-04-04T11:16:55Z</time></trkpt><trkpt lat="44.05165207999942" lon="10.562034093438973"><ele>427.0</ele><time>2026-04-04T11:16:56Z</time></trkpt><trkpt lat="44.051526076916595" lon="10.561961975761367"><ele>425.6</ele><time>2026-04-04T11:16:57Z</time></trkpt><trkpt lat="44.051424716299984" lon="10.561909659669695"><ele>424.20000000000005</ele><time>2026-04-04T11:16:58Z</time></trkpt><trkpt lat="44.05134229459695" lon="10.561880408595027"><ele>422.8</ele><time>2026-04-04T11:16:59Z</time></trkpt><trkpt lat="44.051281170951526" lon="10.561830654815605"><ele>421.4</ele><time>2026-04-04T11:17:00Z</time></trkpt><trkpt lat="44.05125149217714" lon="10.561741023931027"><ele>420.0</ele><time>2026-04-04T11:17:01Z</time></trkpt><trkpt lat="44.05125307517991" lon="10.561549617593112"><ele>420.0</ele><time>2026-04-04T11:17:02Z</time></trkpt><trkpt lat="44.05127804013722" lon="10.561258502520072"><ele>420.0</ele><time>2026-04-04T11:17:03Z</time></trkpt><trkpt lat="44.05128388958962" lon="10.561054684177975"><ele>420.0</ele><time>2026-04-04T11:17:04Z</time></trkpt><trkpt lat="44.05129221823276" lon="10.560878276777212"><ele>424.25</ele><time>2026-04-04T11:17:05Z</time></trkpt><trkpt lat="44.051299936217355" lon="10.560735128225616"><ele>428.5</ele><time>2026-04-04T11:17:06Z</time></trkpt><trkpt lat="44.05127283046087" lon="10.56060871236257"><ele>432.75</ele><time>2026-04-04T11:17:07Z</time></trkpt><trkpt lat="44.05119024302875" lon="10.560516937133281"><ele>437.0</ele><time>2026-04-04T11:17:08Z</time></trkpt><trkpt lat="44.05104169926835" lon="10.5605062124753"><ele>437.0</ele><time>2026-04-04T11:17:09Z</time></trkpt><trkpt lat="44.050832366443" lon="10.560493144749204"><ele>437.0</ele><time>2026-04-04T11:17:10Z</time></trkpt><trkpt lat="44.050615926045474" lon="10.560439560620976"><ele>437.0</ele><time>2026-04-04T11:17:11Z</time></trkpt><trkpt lat="44.05043007408586" lon="10.56039820545652"><ele>431.3333333333333</ele><time>2026-04-04T11:17:12Z</time></trkpt><trkpt lat="44.05028590769654" lon="10.560378832973447"><ele>425.66666666666663</ele><time>2026-04-04T11:17:13Z</time></trkpt><trkpt lat="44.050125578872894" lon="10.560393136741453"><ele>420.0</ele><time>2026-04-04T11:17:14Z</time></trkpt><trkpt lat="44.049965357716275" lon="10.560450077847134"><ele>417.33333333333337</ele><time>2026-04-04T11:17:15Z</time></trkpt><trkpt lat="44.04985000030285" lon="10.560515384001338"><ele>414.6666666666667</ele><time>2026-04-04T11:17:16Z</time></trkpt><trkpt lat="44.04971768297715" lon="10.56066017413227"><ele>412.0</ele><time>2026-04-04T11:17:17Z</time></trkpt><trkpt lat="44.049624024664475" lon="10.560848593532642"><ele>412.0</ele><time>2026-04-04T11:17:18Z</time></trkpt><trkpt lat="44.0495438038849" lon="10.560988403675193"><ele>412.0</ele><time>2026-04-04T11:17:19Z</time></trkpt><trkpt lat="44.04946394244178" lon="10.561075906747005"><ele>412.0</ele><time>2026-04-04T11:17:20Z</time></trkpt><trkpt lat="44.04938989947067" lon="10.561108596048062"><ele>412.0</ele><time>2026-04-04T11:17:21Z</time></trkpt><trkpt lat="44.0493479858866" lon="10.561182585149725"><ele>412.0</ele><time>2026-04-04T11:17:22Z</time></trkpt><trkpt lat="44.049433911527096" lon="10.561288217117394"><ele>412.0</ele><time>2026-04-04T11:17:24Z</time></trkpt><trkpt lat="44.04955524373433" lon="10.561209910220471"><ele>412.0</ele><time>2026-04-04T11:17:25Z</time></trkpt><trkpt lat="44.04966413075957" lon="10.561054227162701"><ele>412.0</ele><time>2026-04-04T11:17:26Z</time></trkpt><trkpt lat="44.049775079809855" lon="10.560922681557916"><ele>412.0</ele><time>2026-04-04T11:17:27Z</time></trkpt><trkpt lat="44.04988733154479" lon="10.56084864413686"><ele>414.6666666666667</ele><time>2026-04-04T11:17:28Z</time></trkpt><trkpt lat="44.050036094534114" lon="10.560829453920684"><ele>417.33333333333337</ele><time>2026-04-04T11:17:29Z</time></trkpt><trkpt lat="44.050210433307335" lon="10.56086257625559"><ele>420.0</ele><time>2026-04-04T11:17:30Z</time></trkpt><trkpt lat="44.05034872509178" lon="10.560896181402313"><ele>420.0</ele><time>2026-04-04T11:17:31Z</time></trkpt><trkpt lat="44.05045553476718" lon="10.560906081235316"><ele>420.0</ele><time>2026-04-04T11:17:32Z</time></trkpt><trkpt lat="44.05053332720111" lon="10.560880902463083"><ele>420.0</ele><time>2026-04-04T11:17:33Z</time></trkpt><trkpt lat="44.050603952949814" lon="10.560964926094712"><ele>420.0</ele><time>2026-04-04T11:17:35Z</time></trkpt><trkpt lat="44.0505720263638" lon="10.561048024853918"><ele>420.0</ele><time>2026-04-04T11:17:36Z</time></trkpt><trkpt lat="44.05049995848375" lon="10.561084234729108"><ele>420.0</ele><time>2026-04-04T11:17:37Z</time></trkpt><trkpt lat="44.050345551207585" lon="10.561034236914734"><ele>420.0</ele><time>2026-04-04T11:17:38Z</time></trkpt><trkpt lat="44.05016892548594" lon="10.561064393681363"><ele>420.0</ele><time>2026-04-04T11:17:39Z</time></trkpt><trkpt lat="44.05001067470522" lon="10.561122156640034"><ele>420.0</ele><time>2026-04-04T11:17:40Z</time></trkpt><trkpt lat="44.04988547449315" lon="10.56117713723919"><ele>413.5</ele><time>2026-04-04T11:17:41Z</time></trkpt><trkpt lat="44.049775469778474" lon="10.56123216046018"><ele>407.0</ele><time>2026-04-04T11:17:42Z</time></trkpt><trkpt lat="44.04966171597855" lon="10.56136600450818"><ele>400.5</ele><time>2026-04-04T11:17:43Z</time></trkpt><trkpt lat="44.04957478902933" lon="10.56155471510288"><ele>394.0</ele><time>2026-04-04T11:17:44Z</time></trkpt><trkpt lat="44.049497829485176" lon="10.561683255410038"><ele>394.0</ele><time>2026-04-04T11:17:45Z</time></trkpt><trkpt lat="44.04940915125382" lon="10.561748007311435"><ele>394.0</ele><time>2026-04-04T11:17:46Z</time></trkpt><trkpt lat="44.04933329552847" lon="10.561767612936375"><ele>394.0</ele><time>2026-04-04T11:17:47Z</time></trkpt><trkpt lat="44.04934302947163" lon="10.561888467677429"><ele>394.0</ele><time>2026-04-04T11:17:49Z</time></trkpt><trkpt lat="44.04942636858652" lon="10.561916688813124"><ele>394.0</ele><time>2026-04-04T11:17:50Z</time></trkpt><trkpt lat="44.049550942063455" lon="10.561816770454826"><ele>394.0</ele><time>2026-04-04T11:17:51Z</time></trkpt><trkpt lat="44.04965368939652" lon="10.561684397001507"><ele>394.0</ele><time>2026-04-04T11:17:52Z</time></trkpt><trkpt lat="44.049744333946656" lon="10.561586213187326"><ele>394.0</ele><time>2026-04-04T11:17:53Z</time></trkpt><trkpt lat="44.049843401621814" lon="10.561527643243974"><ele>394.0</ele><time>2026-04-04T11:17:54Z</time></trkpt><trkpt lat="44.04997326033346" lon="10.561510579679682"><ele>395.6</ele><time>2026-04-04T11:17:55Z</time></trkpt><trkpt lat="44.05006880119924" lon="10.56152320640474"><ele>397.2</ele><time>2026-04-04T11:17:56Z</time></trkpt><trkpt lat="44.05019349095666" lon="10.561519829925375"><ele>398.8</ele><time>2026-04-04T11:17:58Z</time></trkpt><trkpt lat="44.05019366374751" lon="10.561647637267127"><ele>400.40000000000003</ele><time>2026-04-04T11:18:00Z</time></trkpt><trkpt lat="44.05010904026021" lon="10.561678174205843"><ele>402.0</ele><time>2026-04-04T11:18:01Z</time></trkpt><trkpt lat="44.04998736637693" lon="10.561663931063132"><ele>399.33333333333337</ele><time>2026-04-04T11:18:02Z</time></trkpt><trkpt lat="44.049840389740986" lon="10.561745000296094"><ele>396.6666666666667</ele><time>2026-04-04T11:18:03Z</time></trkpt><trkpt lat="44.04970021557176" lon="10.561879953634223"><ele>394.0</ele><time>2026-04-04T11:18:04Z</time></trkpt><trkpt lat="44.049606529069365" lon="10.561998842311485"><ele>385.5</ele><time>2026-04-04T11:18:05Z</time></trkpt><trkpt lat="44.049528767703244" lon="10.562082704950805"><ele>377.0</ele><time>2026-04-04T11:18:06Z</time></trkpt><trkpt lat="44.04944388798318" lon="10.562126211073727"><ele>368.5</ele><time>2026-04-04T11:18:07Z</time></trkpt><trkpt lat="44.049319739084204" lon="10.562119676357167"><ele>360.0</ele><time>2026-04-04T11:18:08Z</time></trkpt><trkpt lat="44.049184131177405" lon="10.562076439098865"><ele>360.0</ele><time>2026-04-04T11:18:09Z</time></trkpt><trkpt lat="44.049070707141496" lon="10.562033369786429"><ele>360.0</ele><time>2026-04-04T11:18:10Z</time></trkpt><trkpt lat="44.048977819396654" lon="10.56198710100983"><ele>360.0</ele><time>2026-04-04T11:18:11Z</time></trkpt><trkpt lat="44.04890008747902" lon="10.561913607946833"><ele>360.0</ele><time>2026-04-04T11:18:12Z</time></trkpt><trkpt lat="44.04885693108217" lon="10.56179119094497"><ele>360.0</ele><time>2026-04-04T11:18:13Z</time></trkpt><trkpt lat="44.048848316843234" lon="10.56157544348159"><ele>360.0</ele><time>2026-04-04T11:18:14Z</time></trkpt><trkpt lat="44.04885380376676" lon="10.561345037647623"><ele>360.0</ele><time>2026-04-04T11:18:15Z</time></trkpt><trkpt lat="44.04885711690382" lon="10.5611814017963"><ele>360.0</ele><time>2026-04-04T11:18:16Z</time></trkpt><trkpt lat="44.04885363418643" lon="10.561063914293563"><ele>360.0</ele><time>2026-04-04T11:18:17Z</time></trkpt><trkpt lat="44.04880808918939" lon="10.560970576572407"><ele>360.0</ele><time>2026-04-04T11:18:18Z</time></trkpt><trkpt lat="44.04870715844394" lon="10.560941518824599"><ele>360.0</ele><time>2026-04-04T11:18:19Z</time></trkpt><trkpt lat="44.04860707518078" lon="10.561007645343635"><ele>360.0</ele><time>2026-04-04T11:18:20Z</time></trkpt><trkpt lat="44.048481481928725" lon="10.561138387833124"><ele>360.0</ele><time>2026-04-04T11:18:21Z</time></trkpt><trkpt lat="44.048395728069394" lon="10.561264047232727"><ele>360.0</ele><time>2026-04-04T11:18:22Z</time></trkpt><trkpt lat="44.048344449622036" lon="10.56134396313173"><ele>361.5</ele><time>2026-04-04T11:18:23Z</time></trkpt><trkpt lat="44.04826875357154" lon="10.561364301100513"><ele>363.0</ele><time>2026-04-04T11:18:24Z</time></trkpt><trkpt lat="44.048162367211326" lon="10.56130515925348"><ele>364.5</ele><time>2026-04-04T11:18:25Z</time></trkpt><trkpt lat="44.048026584380345" lon="10.561181641650743"><ele>366.0</ele><time>2026-04-04T11:18:26Z</time></trkpt><trkpt lat="44.047877952117375" lon="10.561023513048974"><ele>366.0</ele><time>2026-04-04T11:18:27Z</time></trkpt><trkpt lat="44.04772246695249" lon="10.56092782729528"><ele>366.0</ele><time>2026-04-04T11:18:28Z</time></trkpt><trkpt lat="44.04752046227513" lon="10.5608549216113"><ele>366.0</ele><time>2026-04-04T11:18:29Z</time></trkpt><trkpt lat="44.04735973225445" lon="10.560787913135693"><ele>356.25</ele><time>2026-04-04T11:18:30Z</time></trkpt><trkpt lat="44.047212035498895" lon="10.560721865351637"><ele>346.5</ele><time>2026-04-04T11:18:31Z</time></trkpt><trkpt lat="44.04708543080783" lon="10.560646130420915"><ele>336.75</ele><time>2026-04-04T11:18:32Z</time></trkpt><trkpt lat="44.04697146597048" lon="10.560531881177386"><ele>327.0</ele><time>2026-04-04T11:18:33Z</time></trkpt><trkpt lat="44.0468845667233" lon="10.5604086727206"><ele>322.5</ele><time>2026-04-04T11:18:34Z</time></trkpt><trkpt lat="44.04679876096796" lon="10.560282160398032"><ele>318.0</ele><time>2026-04-04T11:18:35Z</time></trkpt><trkpt lat="44.04673872242751" lon="10.56013040729746"><ele>313.5</ele><time>2026-04-04T11:18:36Z</time></trkpt><trkpt lat="44.04668144491742" lon="10.559910048092679"><ele>309.0</ele><time>2026-04-04T11:18:37Z</time></trkpt><trkpt lat="44.04657410133584" lon="10.559702107924624"><ele>313.75</ele><time>2026-04-04T11:18:38Z</time></trkpt><trkpt lat="44.0464739308992" lon="10.559525025185446"><ele>318.5</ele><time>2026-04-04T11:18:39Z</time></trkpt><trkpt lat="44.04638488206344" lon="10.559386497544585"><ele>323.25</ele><time>2026-04-04T11:18:40Z</time></trkpt><trkpt lat="44.046308386129866" lon="10.559281348952256"><ele>328.0</ele><time>2026-04-04T11:18:41Z</time></trkpt><trkpt lat="44.04625465797701" lon="10.559180854122374"><ele>328.0</ele><time>2026-04-04T11:18:42Z</time></trkpt><trkpt lat="44.04622415171094" lon="10.559082028748144"><ele>328.0</ele><time>2026-04-04T11:18:43Z</time></trkpt><trkpt lat="44.046143886266755" lon="10.559047250307355"><ele>328.0</ele><time>2026-04-04T11:18:45Z</time></trkpt><trkpt lat="44.04615226479611" lon="10.559270509472725"><ele>328.0</ele><time>2026-04-04T11:18:47Z</time></trkpt><trkpt lat="44.046240776257534" lon="10.559397893968374"><ele>328.0</ele><time>2026-04-04T11:18:48Z</time></trkpt><trkpt lat="44.04636129416323" lon="10.559612539673722"><ele>321.66666666666663</ele><time>2026-04-04T11:18:49Z</time></trkpt><trkpt lat="44.04646448807649" lon="10.559861834568785"><ele>315.3333333333333</ele><time>2026-04-04T11:18:50Z</time></trkpt><trkpt lat="44.04655589736367" lon="10.560040063556938"><ele>309.0</ele><time>2026-04-04T11:18:51Z</time></trkpt><trkpt lat="44.04660071366428" lon="10.560245112617338"><ele>315.0</ele><time>2026-04-04T11:18:52Z</time></trkpt><trkpt lat="44.04663824676396" lon="10.560444989080356"><ele>321.0</ele><time>2026-04-04T11:18:53Z</time></trkpt><trkpt lat="44.046706199476866" lon="10.560632991592989"><ele>327.0</ele><time>2026-04-04T11:18:54Z</time></trkpt><trkpt lat="44.04680973865346" lon="10.560820218453843"><ele>327.0</ele><time>2026-04-04T11:18:55Z</time></trkpt><trkpt lat="44.04694662038644" lon="10.560985720801755"><ele>327.0</ele><time>2026-04-04T11:18:56Z</time></trkpt><trkpt lat="44.047080419878505" lon="10.561131731204961"><ele>327.0</ele><time>2026-04-04T11:18:57Z</time></trkpt><trkpt lat="44.0472600772518" lon="10.56127368887651"><ele>326.0</ele><time>2026-04-04T11:18:58Z</time></trkpt><trkpt lat="44.047426547409366" lon="10.561375303896249"><ele>325.0</ele><time>2026-04-04T11:18:59Z</time></trkpt><trkpt lat="44.04754853964575" lon="10.561481384084075"><ele>324.0</ele><time>2026-04-04T11:19:00Z</time></trkpt><trkpt lat="44.047641990427046" lon="10.561591583795284"><ele>323.0</ele><time>2026-04-04T11:19:01Z</time></trkpt><trkpt lat="44.047708956416955" lon="10.561665860184243"><ele>323.0</ele><time>2026-04-04T11:19:02Z</time></trkpt><trkpt lat="44.047760457539894" lon="10.56172246072242"><ele>323.0</ele><time>2026-04-04T11:19:03Z</time></trkpt><trkpt lat="44.047737452643084" lon="10.561830463514758"><ele>323.0</ele><time>2026-04-04T11:19:05Z</time></trkpt><trkpt lat="44.04759772236485" lon="10.561748626123665"><ele>323.0</ele><time>2026-04-04T11:19:07Z</time></trkpt><trkpt lat="44.04747384044318" lon="10.561624726835028"><ele>314.33333333333337</ele><time>2026-04-04T11:19:08Z</time></trkpt><trkpt lat="44.04729889398688" lon="10.561473275286938"><ele>305.6666666666667</ele><time>2026-04-04T11:19:09Z</time></trkpt><trkpt lat="44.04714445162398" lon="10.561361326350776"><ele>297.0</ele><time>2026-04-04T11:19:10Z</time></trkpt><trkpt lat="44.04696773853321" lon="10.561242940063913"><ele>296.0</ele><time>2026-04-04T11:19:11Z</time></trkpt><trkpt lat="44.04680253347875" lon="10.561113062082786"><ele>295.0</ele><time>2026-04-04T11:19:12Z</time></trkpt><trkpt lat="44.04662878764714" lon="10.56094604688299"><ele>294.0</ele><time>2026-04-04T11:19:13Z</time></trkpt><trkpt lat="44.04647398373083" lon="10.560731767545532"><ele>294.0</ele><time>2026-04-04T11:19:14Z</time></trkpt><trkpt lat="44.04631798224753" lon="10.560497011895354"><ele>294.0</ele><time>2026-04-04T11:19:15Z</time></trkpt><trkpt lat="44.04617844208772" lon="10.560303114317264"><ele>294.0</ele><time>2026-04-04T11:19:16Z</time></trkpt><trkpt lat="44.046049018792644" lon="10.560156659407097"><ele>292.25</ele><time>2026-04-04T11:19:17Z</time></trkpt><trkpt lat="44.04591365314503" lon="10.56002714413227"><ele>290.5</ele><time>2026-04-04T11:19:18Z</time></trkpt><trkpt lat="44.04578875337805" lon="10.559916626095031"><ele>288.75</ele><time>2026-04-04T11:19:19Z</time></trkpt><trkpt lat="44.04568783716534" lon="10.559826046890063"><ele>287.0</ele><time>2026-04-04T11:19:20Z</time></trkpt><trkpt lat="44.04561431071309" lon="10.559746215367264"><ele>287.0</ele><time>2026-04-04T11:19:21Z</time></trkpt><trkpt lat="44.04556104923907" lon="10.559674039389263"><ele>287.0</ele><time>2026-04-04T11:19:22Z</time></trkpt><trkpt lat="44.04546636760311" lon="10.559736344155432"><ele>287.0</ele><time>2026-04-04T11:19:24Z</time></trkpt><trkpt lat="44.0454749692448" lon="10.559856035505774"><ele>287.0</ele><time>2026-04-04T11:19:25Z</time></trkpt><trkpt lat="44.045572920616955" lon="10.559999518058623"><ele>287.0</ele><time>2026-04-04T11:19:26Z</time></trkpt><trkpt lat="44.04572060116271" lon="10.560183506157394"><ele>290.5</ele><time>2026-04-04T11:19:27Z</time></trkpt><trkpt lat="44.04589912483273" lon="10.560445704755328"><ele>294.0</ele><time>2026-04-04T11:19:28Z</time></trkpt><trkpt lat="44.04604723924592" lon="10.560679792934343"><ele>294.0</ele><time>2026-04-04T11:19:29Z</time></trkpt><trkpt lat="44.04617509177315" lon="10.560894938837702"><ele>294.0</ele><time>2026-04-04T11:19:30Z</time></trkpt><trkpt lat="44.04629192046092" lon="10.561088338549022"><ele>294.0</ele><time>2026-04-04T11:19:31Z</time></trkpt><trkpt lat="44.046398411973534" lon="10.561257897879425"><ele>291.2</ele><time>2026-04-04T11:19:32Z</time></trkpt><trkpt lat="44.046490995369155" lon="10.561409024998717"><ele>288.4</ele><time>2026-04-04T11:19:33Z</time></trkpt><trkpt lat="44.04656684529078" lon="10.561523273034847"><ele>285.6</ele><time>2026-04-04T11:19:34Z</time></trkpt><trkpt lat="44.046621063127404" lon="10.561605246118434"><ele>282.8</ele><time>2026-04-04T11:19:35Z</time></trkpt><trkpt lat="44.0466215908341" lon="10.56171956157422"><ele>280.0</ele><time>2026-04-04T11:19:36Z</time></trkpt><trkpt lat="44.04656477002458" lon="10.561807686362377"><ele>280.0</ele><time>2026-04-04T11:19:37Z</time></trkpt><trkpt lat="44.04648196502418" lon="10.56183806410077"><ele>280.0</ele><time>2026-04-04T11:19:38Z</time></trkpt><trkpt lat="44.04637940659905" lon="10.561790178444008"><ele>280.0</ele><time>2026-04-04T11:19:39Z</time></trkpt><trkpt lat="44.046251089006496" lon="10.561709089017357"><ele>280.0</ele><time>2026-04-04T11:19:40Z</time></trkpt><trkpt lat="44.04604732278151" lon="10.561596277053848"><ele>280.0</ele><time>2026-04-04T11:19:41Z</time></trkpt><trkpt lat="44.045838966531065" lon="10.561461617433451"><ele>280.0</ele><time>2026-04-04T11:19:42Z</time></trkpt><trkpt lat="44.04565462464872" lon="10.561324092162765"><ele>280.0</ele><time>2026-04-04T11:19:43Z</time></trkpt><trkpt lat="44.04545855017959" lon="10.56117918356766"><ele>276.66666666666663</ele><time>2026-04-04T11:19:44Z</time></trkpt><trkpt lat="44.04533338428319" lon="10.56107074095637"><ele>273.3333333333333</ele><time>2026-04-04T11:19:45Z</time></trkpt><trkpt lat="44.045203717993715" lon="10.560942234328271"><ele>270.0</ele><time>2026-04-04T11:19:46Z</time></trkpt><trkpt lat="44.04507699025635" lon="10.560825544793868"><ele>270.0</ele><time>2026-04-04T11:19:47Z</time></trkpt><trkpt lat="44.044965051801704" lon="10.560711965875972"><ele>270.0</ele><time>2026-04-04T11:19:48Z</time></trkpt><trkpt lat="44.04486258891206" lon="10.560534147578217"><ele>270.0</ele><time>2026-04-04T11:19:49Z</time></trkpt><trkpt lat="44.044784273599454" lon="10.560303175972852"><ele>267.6</ele><time>2026-04-04T11:19:50Z</time></trkpt><trkpt lat="44.04472422540309" lon="10.56012272029949"><ele>265.2</ele><time>2026-04-04T11:19:51Z</time></trkpt><trkpt lat="44.044684946573916" lon="10.55999544320284"><ele>262.8</ele><time>2026-04-04T11:19:52Z</time></trkpt><trkpt lat="44.04465736574368" lon="10.55989813147991"><ele>260.4</ele><time>2026-04-04T11:19:53Z</time></trkpt><trkpt lat="44.044577583280905" lon="10.55991720326282"><ele>258.0</ele><time>2026-04-04T11:19:55Z</time></trkpt><trkpt lat="44.04456047305191" lon="10.560016023859363"><ele>258.0</ele><time>2026-04-04T11:19:56Z</time></trkpt><trkpt lat="44.04459667244923" lon="10.560143070979857"><ele>258.0</ele><time>2026-04-04T11:19:57Z</time></trkpt><trkpt lat="44.04467146558496" lon="10.560352975153355"><ele>258.0</ele><time>2026-04-04T11:19:58Z</time></trkpt><trkpt lat="44.04474210070352" lon="10.560610162226835"><ele>261.0</ele><time>2026-04-04T11:19:59Z</time></trkpt><trkpt lat="44.044796762878484" lon="10.56081913625355"><ele>264.0</ele><time>2026-04-04T11:20:00Z</time></trkpt><trkpt lat="44.04485433605739" lon="10.560963500118197"><ele>267.0</ele><time>2026-04-04T11:20:01Z</time></trkpt><trkpt lat="44.04494130020101" lon="10.561058314262056"><ele>270.0</ele><time>2026-04-04T11:20:02Z</time></trkpt><trkpt lat="44.045074170811205" lon="10.561122449194844"><ele>266.5</ele><time>2026-04-04T11:20:03Z</time></trkpt><trkpt lat="44.04519419498262" lon="10.561208901211234"><ele>263.0</ele><time>2026-04-04T11:20:04Z</time></trkpt><trkpt lat="44.04528662870674" lon="10.561401010240504"><ele>259.5</ele><time>2026-04-04T11:20:05Z</time></trkpt><trkpt lat="44.04535026201303" lon="10.561576087717205"><ele>256.0</ele><time>2026-04-04T11:20:06Z</time></trkpt><trkpt lat="44.04540069306285" lon="10.561689065924524"><ele>256.0</ele><time>2026-04-04T11:20:07Z</time></trkpt><trkpt lat="44.04543260872024" lon="10.561796339183775"><ele>256.0</ele><time>2026-04-04T11:20:08Z</time></trkpt><trkpt lat="44.04540978716944" lon="10.561921015983042"><ele>256.0</ele><time>2026-04-04T11:20:09Z</time></trkpt><trkpt lat="44.045329968041685" lon="10.562030927868713"><ele>256.0</ele><time>2026-04-04T11:20:10Z</time></trkpt><trkpt lat="44.045208332992814" lon="10.56211485177786"><ele>256.0</ele><time>2026-04-04T11:20:11Z</time></trkpt><trkpt lat="44.04508771880475" lon="10.562191919329901"><ele>260.0</ele><time>2026-04-04T11:20:12Z</time></trkpt><trkpt lat="44.044995724604654" lon="10.562254413853582"><ele>264.0</ele><time>2026-04-04T11:20:13Z</time></trkpt><trkpt lat="44.04488968425564" lon="10.562270396504125"><ele>268.0</ele><time>2026-04-04T11:20:14Z</time></trkpt><trkpt lat="44.04477819143749" lon="10.562236473654423"><ele>272.0</ele><time>2026-04-04T11:20:15Z</time></trkpt><trkpt lat="44.04467561358583" lon="10.56212731863461"><ele>271.0</ele><time>2026-04-04T11:20:16Z</time></trkpt><trkpt lat="44.04455480595902" lon="10.561946867852116"><ele>270.0</ele><time>2026-04-04T11:20:17Z</time></trkpt><trkpt lat="44.04440680550652" lon="10.561748910490149"><ele>269.0</ele><time>2026-04-04T11:20:18Z</time></trkpt><trkpt lat="44.044241869102045" lon="10.56158615320609"><ele>268.6666666666667</ele><time>2026-04-04T11:20:19Z</time></trkpt><trkpt lat="44.04406681832705" lon="10.561446325421034"><ele>268.3333333333333</ele><time>2026-04-04T11:20:20Z</time></trkpt><trkpt lat="44.0439152903719" lon="10.561342671823837"><ele>268.0</ele><time>2026-04-04T11:20:21Z</time></trkpt><trkpt lat="44.043793005621865" lon="10.561239311070231"><ele>259.0</ele><time>2026-04-04T11:20:22Z</time></trkpt><trkpt lat="44.04367829821875" lon="10.56114994993406"><ele>250.0</ele><time>2026-04-04T11:20:23Z</time></trkpt><trkpt lat="44.04354021787714" lon="10.561079810931066"><ele>241.0</ele><time>2026-04-04T11:20:24Z</time></trkpt><trkpt lat="44.04336713984028" lon="10.561038221146347"><ele>242.33333333333331</ele><time>2026-04-04T11:20:25Z</time></trkpt><trkpt lat="44.0431417002465" lon="10.561052247121227"><ele>243.66666666666669</ele><time>2026-04-04T11:20:26Z</time></trkpt><trkpt lat="44.042923727549" lon="10.561085907508765"><ele>245.0</ele><time>2026-04-04T11:20:27Z</time></trkpt><trkpt lat="44.042751194731096" lon="10.561087324383529"><ele>245.0</ele><time>2026-04-04T11:20:28Z</time></trkpt><trkpt lat="44.04260091722578" lon="10.561080055190244"><ele>245.0</ele><time>2026-04-04T11:20:29Z</time></trkpt><trkpt lat="44.04243570037498" lon="10.561054263003484"><ele>245.0</ele><time>2026-04-04T11:20:30Z</time></trkpt><trkpt lat="44.04226116295606" lon="10.560972721011957"><ele>247.33333333333334</ele><time>2026-04-04T11:20:31Z</time></trkpt><trkpt lat="44.04211130496131" lon="10.560842640059498"><ele>249.66666666666669</ele><time>2026-04-04T11:20:32Z</time></trkpt><trkpt lat="44.04192440001086" lon="10.560749959842544"><ele>252.0</ele><time>2026-04-04T11:20:33Z</time></trkpt><trkpt lat="44.041688281802415" lon="10.56067526471672"><ele>255.33333333333331</ele><time>2026-04-04T11:20:34Z</time></trkpt><trkpt lat="44.04146701397271" lon="10.560631093336125"><ele>258.66666666666663</ele><time>2026-04-04T11:20:35Z</time></trkpt><trkpt lat="44.04129943028131" lon="10.560555308673885"><ele>262.0</ele><time>2026-04-04T11:20:36Z</time></trkpt><trkpt lat="44.04115569782159" lon="10.560474007131203"><ele>262.0</ele><time>2026-04-04T11:20:37Z</time></trkpt><trkpt lat="44.04102690855997" lon="10.56039122499676"><ele>262.0</ele><time>2026-04-04T11:20:38Z</time></trkpt><trkpt lat="44.04091484439222" lon="10.560306509400547"><ele>262.0</ele><time>2026-04-04T11:20:39Z</time></trkpt><trkpt lat="44.04082852227131" lon="10.56021995656012"><ele>262.0</ele><time>2026-04-04T11:20:40Z</time></trkpt><trkpt lat="44.040738038476455" lon="10.560147819346005"><ele>258.2</ele><time>2026-04-04T11:20:41Z</time></trkpt><trkpt lat="44.040625913226854" lon="10.560100739246758"><ele>254.39999999999998</ele><time>2026-04-04T11:20:42Z</time></trkpt><trkpt lat="44.040513224896536" lon="10.560091227495532"><ele>250.60000000000002</ele><time>2026-04-04T11:20:43Z</time></trkpt><trkpt lat="44.04041409957846" lon="10.56010125431652"><ele>246.8</ele><time>2026-04-04T11:20:44Z</time></trkpt><trkpt lat="44.04031315251041" lon="10.560144657675853"><ele>243.0</ele><time>2026-04-04T11:20:45Z</time></trkpt><trkpt lat="44.04022019078176" lon="10.560248067423487"><ele>243.0</ele><time>2026-04-04T11:20:46Z</time></trkpt><trkpt lat="44.04011480161311" lon="10.56033373004103"><ele>243.0</ele><time>2026-04-04T11:20:47Z</time></trkpt><trkpt lat="44.03997901398273" lon="10.560322699025726"><ele>243.0</ele><time>2026-04-04T11:20:48Z</time></trkpt><trkpt lat="44.0398701066472" lon="10.560306261613668"><ele>243.0</ele><time>2026-04-04T11:20:49Z</time></trkpt><trkpt lat="44.039753594260866" lon="10.560288197722473"><ele>244.2</ele><time>2026-04-04T11:20:50Z</time></trkpt><trkpt lat="44.03963723498506" lon="10.560279657986364"><ele>245.4</ele><time>2026-04-04T11:20:51Z</time></trkpt><trkpt lat="44.03952816985872" lon="10.560275658078035"><ele>246.59999999999997</ele><time>2026-04-04T11:20:52Z</time></trkpt><trkpt lat="44.03943300109147" lon="10.560302956528735"><ele>247.79999999999998</ele><time>2026-04-04T11:20:53Z</time></trkpt><trkpt lat="44.039350661752735" lon="10.560362120058187"><ele>249.0</ele><time>2026-04-04T11:20:54Z</time></trkpt><trkpt lat="44.03928253509428" lon="10.560453923425646"><ele>249.0</ele><time>2026-04-04T11:20:55Z</time></trkpt><trkpt lat="44.039226095257284" lon="10.56054630280712"><ele>248.99999999999997</ele><time>2026-04-04T11:20:56Z</time></trkpt><trkpt lat="44.039171242323775" lon="10.560644583467147"><ele>248.99999999999997</ele><time>2026-04-04T11:20:57Z</time></trkpt><trkpt lat="44.03912049618237" lon="10.560747367994631"><ele>249.0</ele><time>2026-04-04T11:20:58Z</time></trkpt><trkpt lat="44.03907132460942" lon="10.56085594745601"><ele>249.0</ele><time>2026-04-04T11:20:59Z</time></trkpt><trkpt lat="44.0390267154786" lon="10.560969185491448"><ele>246.0</ele><time>2026-04-04T11:21:00Z</time></trkpt><trkpt lat="44.03896795071828" lon="10.56108104798977"><ele>242.99999999999997</ele><time>2026-04-04T11:21:01Z</time></trkpt><trkpt lat="44.03890008546949" lon="10.561189004406737"><ele>239.99999999999997</ele><time>2026-04-04T11:21:02Z</time></trkpt><trkpt lat="44.03879864083543" lon="10.561135707020336"><ele>237.0</ele><time>2026-04-04T11:21:03Z</time></trkpt><trkpt lat="44.0387035155278" lon="10.561144522902884"><ele>234.0</ele><time>2026-04-04T11:21:04Z</time></trkpt><trkpt lat="44.03862905640471" lon="10.561178938243188"><ele>234.0</ele><time>2026-04-04T11:21:05Z</time></trkpt><trkpt lat="44.03867938589293" lon="10.5610340192143"><ele>233.99999999999997</ele><time>2026-04-04T11:21:06Z</time></trkpt><trkpt lat="44.03859689235729" lon="10.56105601476211"><ele>233.99999999999997</ele><time>2026-04-04T11:21:36Z</time></trkpt><trkpt lat="44.03852938110991" lon="10.561116424182826"><ele>234.0</ele><time>2026-04-04T11:21:37Z</time></trkpt><trkpt lat="44.03843977880843" lon="10.561186981558432"><ele>234.0</ele><time>2026-04-04T11:21:38Z</time></trkpt><trkpt lat="44.03832688380032" lon="10.561254408475685"><ele>235.75</ele><time>2026-04-04T11:21:39Z</time></trkpt><trkpt lat="44.03820890422126" lon="10.561271631652337"><ele>237.5</ele><time>2026-04-04T11:21:40Z</time></trkpt><trkpt lat="44.038087443721786" lon="10.561241909954372"><ele>239.25</ele><time>2026-04-04T11:21:41Z</time></trkpt><trkpt lat="44.03795186592961" lon="10.56117342262864"><ele>241.0</ele><time>2026-04-04T11:21:42Z</time></trkpt><trkpt lat="44.03782431385572" lon="10.561081579707945"><ele>241.0</ele><time>2026-04-04T11:21:43Z</time></trkpt><trkpt lat="44.03770958089136" lon="10.560993726998388"><ele>241.0</ele><time>2026-04-04T11:21:44Z</time></trkpt><trkpt lat="44.03760414236759" lon="10.560903192097966"><ele>241.0</ele><time>2026-04-04T11:21:45Z</time></trkpt><trkpt lat="44.03750799246091" lon="10.560826137493551"><ele>241.0</ele><time>2026-04-04T11:21:46Z</time></trkpt><trkpt lat="44.037425264371365" lon="10.560729699388874"><ele>240.25</ele><time>2026-04-04T11:21:47Z</time></trkpt><trkpt lat="44.03736537514754" lon="10.5606032395015"><ele>239.5</ele><time>2026-04-04T11:21:48Z</time></trkpt><trkpt lat="44.037303254097516" lon="10.560461100854386"><ele>238.75</ele><time>2026-04-04T11:21:49Z</time></trkpt><trkpt lat="44.0372155523244" lon="10.560343779987331"><ele>238.0</ele><time>2026-04-04T11:21:50Z</time></trkpt><trkpt lat="44.037104616977004" lon="10.5602535329194"><ele>238.0</ele><time>2026-04-04T11:21:51Z</time></trkpt><trkpt lat="44.03699693175269" lon="10.560185826736898"><ele>238.0</ele><time>2026-04-04T11:21:52Z</time></trkpt><trkpt lat="44.036917258295034" lon="10.56008993677334"><ele>238.0</ele><time>2026-04-04T11:21:53Z</time></trkpt><trkpt lat="44.03686535700898" lon="10.559968204315386"><ele>238.0</ele><time>2026-04-04T11:21:54Z</time></trkpt><trkpt lat="44.036832126615316" lon="10.55980802270242"><ele>238.0</ele><time>2026-04-04T11:21:55Z</time></trkpt><trkpt lat="44.036820657268294" lon="10.559630096161058"><ele>236.25</ele><time>2026-04-04T11:21:56Z</time></trkpt><trkpt lat="44.03677897784164" lon="10.5594611973862"><ele>234.5</ele><time>2026-04-04T11:21:57Z</time></trkpt><trkpt lat="44.03671382115613" lon="10.559319927387797"><ele>232.75</ele><time>2026-04-04T11:21:58Z</time></trkpt><trkpt lat="44.03664887681118" lon="10.559194048161054"><ele>231.0</ele><time>2026-04-04T11:21:59Z</time></trkpt><trkpt lat="44.03657715779253" lon="10.559078763765669"><ele>231.0</ele><time>2026-04-04T11:22:00Z</time></trkpt><trkpt lat="44.036484393068115" lon="10.558976311482327"><ele>231.0</ele><time>2026-04-04T11:22:01Z</time></trkpt><trkpt lat="44.036380652724674" lon="10.558892336772825"><ele>231.0</ele><time>2026-04-04T11:22:02Z</time></trkpt><trkpt lat="44.03625954735542" lon="10.558844299153845"><ele>231.0</ele><time>2026-04-04T11:22:03Z</time></trkpt><trkpt lat="44.03615016989598" lon="10.558808939381942"><ele>231.0</ele><time>2026-04-04T11:22:04Z</time></trkpt><trkpt lat="44.0360480791604" lon="10.55877532215511"><ele>231.00000000000003</ele><time>2026-04-04T11:22:05Z</time></trkpt><trkpt lat="44.03595911897641" lon="10.558755755619226"><ele>231.00000000000003</ele><time>2026-04-04T11:22:06Z</time></trkpt><trkpt lat="44.035873008908794" lon="10.558818320578723"><ele>231.0</ele><time>2026-04-04T11:22:07Z</time></trkpt><trkpt lat="44.03580071929498" lon="10.55892373674195"><ele>231.0</ele><time>2026-04-04T11:22:08Z</time></trkpt><trkpt lat="44.03574786516585" lon="10.559084321890692"><ele>232.4</ele><time>2026-04-04T11:22:09Z</time></trkpt><trkpt lat="44.03570970963268" lon="10.559240251344587"><ele>233.8</ele><time>2026-04-04T11:22:10Z</time></trkpt><trkpt lat="44.03566439434424" lon="10.55935367662214"><ele>235.20000000000002</ele><time>2026-04-04T11:22:11Z</time></trkpt><trkpt lat="44.03559220823558" lon="10.559403485377054"><ele>236.60000000000002</ele><time>2026-04-04T11:22:12Z</time></trkpt><trkpt lat="44.035513043126016" lon="10.55938064187489"><ele>238.0</ele><time>2026-04-04T11:22:13Z</time></trkpt><trkpt lat="44.03544721238439" lon="10.559302097099469"><ele>238.0</ele><time>2026-04-04T11:22:14Z</time></trkpt><trkpt lat="44.035395991339" lon="10.559155342030458"><ele>238.0</ele><time>2026-04-04T11:22:15Z</time></trkpt><trkpt lat="44.035335098517656" lon="10.558993333335415"><ele>238.0</ele><time>2026-04-04T11:22:16Z</time></trkpt><trkpt lat="44.035269852027746" lon="10.558845043010333"><ele>238.0</ele><time>2026-04-04T11:22:17Z</time></trkpt><trkpt lat="44.03521328724735" lon="10.55871633427705"><ele>235.4</ele><time>2026-04-04T11:22:18Z</time></trkpt><trkpt lat="44.035154479994965" lon="10.558596137238615"><ele>232.8</ele><time>2026-04-04T11:22:19Z</time></trkpt><trkpt lat="44.035078477598184" lon="10.558494994914989"><ele>230.2</ele><time>2026-04-04T11:22:20Z</time></trkpt><trkpt lat="44.034987071737305" lon="10.558410130525852"><ele>227.6</ele><time>2026-04-04T11:22:21Z</time></trkpt><trkpt lat="44.0348780273662" lon="10.558348868219214"><ele>225.0</ele><time>2026-04-04T11:22:22Z</time></trkpt><trkpt lat="44.034756035392284" lon="10.55830230757155"><ele>225.0</ele><time>2026-04-04T11:22:23Z</time></trkpt><trkpt lat="44.034632090881" lon="10.558255348681485"><ele>225.0</ele><time>2026-04-04T11:22:24Z</time></trkpt><trkpt lat="44.034506678300524" lon="10.558203699110765"><ele>225.0</ele><time>2026-04-04T11:22:25Z</time></trkpt><trkpt lat="44.03437613209579" lon="10.558154471048356"><ele>225.0</ele><time>2026-04-04T11:22:26Z</time></trkpt><trkpt lat="44.03424372274093" lon="10.558110417431283"><ele>226.0</ele><time>2026-04-04T11:22:27Z</time></trkpt><trkpt lat="44.03410829095154" lon="10.55805999506245"><ele>227.0</ele><time>2026-04-04T11:22:28Z</time></trkpt><trkpt lat="44.033971096947134" lon="10.558001499592432"><ele>228.0</ele><time>2026-04-04T11:22:29Z</time></trkpt><trkpt lat="44.033831911031676" lon="10.557942905522781"><ele>229.0</ele><time>2026-04-04T11:22:30Z</time></trkpt><trkpt lat="44.03369055593059" lon="10.557882424449371"><ele>223.25</ele><time>2026-04-04T11:22:31Z</time></trkpt><trkpt lat="44.03355624352928" lon="10.55782299683827"><ele>217.5</ele><time>2026-04-04T11:22:32Z</time></trkpt><trkpt lat="44.03343373185394" lon="10.557767691252261"><ele>211.75</ele><time>2026-04-04T11:22:33Z</time></trkpt><trkpt lat="44.03331849384794" lon="10.557734223086571"><ele>206.0</ele><time>2026-04-04T11:22:34Z</time></trkpt><trkpt lat="44.033205400698776" lon="10.557750705405539"><ele>206.0</ele><time>2026-04-04T11:22:35Z</time></trkpt><trkpt lat="44.03310638336084" lon="10.557813355050124"><ele>206.0</ele><time>2026-04-04T11:22:36Z</time></trkpt><trkpt lat="44.033021629456755" lon="10.557914574299005"><ele>206.0</ele><time>2026-04-04T11:22:37Z</time></trkpt><trkpt lat="44.032952141307945" lon="10.558047510617067"><ele>206.0</ele><time>2026-04-04T11:22:38Z</time></trkpt><trkpt lat="44.03289512548728" lon="10.558183341330922"><ele>210.4</ele><time>2026-04-04T11:22:39Z</time></trkpt><trkpt lat="44.03281865050644" lon="10.558261374617976"><ele>214.8</ele><time>2026-04-04T11:22:40Z</time></trkpt><trkpt lat="44.03272781572068" lon="10.558288829781928"><ele>219.20000000000002</ele><time>2026-04-04T11:22:41Z</time></trkpt><trkpt lat="44.03262899773905" lon="10.558246768434541"><ele>223.60000000000002</ele><time>2026-04-04T11:22:42Z</time></trkpt><trkpt lat="44.03253945639178" lon="10.558155637871659"><ele>228.0</ele><time>2026-04-04T11:22:43Z</time></trkpt><trkpt lat="44.03247590794527" lon="10.558045910173506"><ele>230.60000000000002</ele><time>2026-04-04T11:22:44Z</time></trkpt><trkpt lat="44.03244635104198" lon="10.557914229506993"><ele>233.20000000000002</ele><time>2026-04-04T11:22:45Z</time></trkpt><trkpt lat="44.032467580030556" lon="10.557755206853471"><ele>235.8</ele><time>2026-04-04T11:22:46Z</time></trkpt><trkpt lat="44.03247170608851" lon="10.557602898532963"><ele>238.4</ele><time>2026-04-04T11:22:47Z</time></trkpt><trkpt lat="44.03241936266475" lon="10.557465380261563"><ele>241.0</ele><time>2026-04-04T11:22:48Z</time></trkpt><trkpt lat="44.032318270201074" lon="10.557366237076147"><ele>234.25</ele><time>2026-04-04T11:22:49Z</time></trkpt><trkpt lat="44.03220433692302" lon="10.557318619123969"><ele>227.5</ele><time>2026-04-04T11:22:50Z</time></trkpt><trkpt lat="44.03207387520399" lon="10.557326422183548"><ele>220.75</ele><time>2026-04-04T11:22:51Z</time></trkpt><trkpt lat="44.031935191473195" lon="10.557382083196629"><ele>214.0</ele><time>2026-04-04T11:22:52Z</time></trkpt><trkpt lat="44.031801411722725" lon="10.557429620646412"><ele>214.0</ele><time>2026-04-04T11:22:53Z</time></trkpt><trkpt lat="44.0316709673203" lon="10.55742267960588"><ele>214.0</ele><time>2026-04-04T11:22:54Z</time></trkpt><trkpt lat="44.0315346990115" lon="10.557343559141053"><ele>214.0</ele><time>2026-04-04T11:22:55Z</time></trkpt><trkpt lat="44.031387622399045" lon="10.557246764820789"><ele>214.0</ele><time>2026-04-04T11:22:56Z</time></trkpt><trkpt lat="44.03125513843789" lon="10.557148313111412"><ele>215.75</ele><time>2026-04-04T11:22:57Z</time></trkpt><trkpt lat="44.03113589341327" lon="10.557064119458904"><ele>217.5</ele><time>2026-04-04T11:22:58Z</time></trkpt><trkpt lat="44.03101552486928" lon="10.55700719799435"><ele>219.25</ele><time>2026-04-04T11:22:59Z</time></trkpt><trkpt lat="44.03089090459925" lon="10.55696693491116"><ele>221.0</ele><time>2026-04-04T11:23:00Z</time></trkpt><trkpt lat="44.03075933667168" lon="10.556927565349957"><ele>217.0</ele><time>2026-04-04T11:23:01Z</time></trkpt><trkpt lat="44.030635352163785" lon="10.55688863997565"><ele>213.00000000000003</ele><time>2026-04-04T11:23:02Z</time></trkpt><trkpt lat="44.03053373475556" lon="10.556852829706472"><ele>209.0</ele><time>2026-04-04T11:23:03Z</time></trkpt><trkpt lat="44.03044519817846" lon="10.556819246397025"><ele>205.0</ele><time>2026-04-04T11:23:04Z</time></trkpt><trkpt lat="44.03036701899045" lon="10.556831900468005"><ele>201.0</ele><time>2026-04-04T11:23:05Z</time></trkpt><trkpt lat="44.0302942840505" lon="10.556903696271043"><ele>201.0</ele><time>2026-04-04T11:23:06Z</time></trkpt><trkpt lat="44.03024332137055" lon="10.557035884572052"><ele>201.0</ele><time>2026-04-04T11:23:07Z</time></trkpt><trkpt lat="44.030232435822185" lon="10.55720310447907"><ele>201.0</ele><time>2026-04-04T11:23:08Z</time></trkpt><trkpt lat="44.03022802121999" lon="10.557357226433217"><ele>201.0</ele><time>2026-04-04T11:23:09Z</time></trkpt><trkpt lat="44.0301729122457" lon="10.557462157236523"><ele>201.0</ele><time>2026-04-04T11:23:10Z</time></trkpt><trkpt lat="44.03007425100442" lon="10.557496920141894"><ele>207.4</ele><time>2026-04-04T11:23:11Z</time></trkpt><trkpt lat="44.0299677530459" lon="10.557484336338197"><ele>213.8</ele><time>2026-04-04T11:23:12Z</time></trkpt><trkpt lat="44.02989054290038" lon="10.557442797607582"><ele>220.20000000000002</ele><time>2026-04-04T11:23:13Z</time></trkpt><trkpt lat="44.029854141908004" lon="10.55736886087221"><ele>226.60000000000002</ele><time>2026-04-04T11:23:14Z</time></trkpt><trkpt lat="44.02984713217219" lon="10.557231036088865"><ele>233.0</ele><time>2026-04-04T11:23:15Z</time></trkpt><trkpt lat="44.02984759004335" lon="10.557050219995725"><ele>228.0</ele><time>2026-04-04T11:23:16Z</time></trkpt><trkpt lat="44.02983487375996" lon="10.556867932949999"><ele>223.0</ele><time>2026-04-04T11:23:17Z</time></trkpt><trkpt lat="44.029812697564424" lon="10.556682896428986"><ele>218.0</ele><time>2026-04-04T11:23:18Z</time></trkpt><trkpt lat="44.0297747942141" lon="10.55650292374383"><ele>213.0</ele><time>2026-04-04T11:23:19Z</time></trkpt><trkpt lat="44.02970260400625" lon="10.556329873734887"><ele>209.33333333333331</ele><time>2026-04-04T11:23:20Z</time></trkpt><trkpt lat="44.02960403721312" lon="10.556156345880373"><ele>205.66666666666666</ele><time>2026-04-04T11:23:21Z</time></trkpt><trkpt lat="44.0295048442211" lon="10.555984070429588"><ele>202.0</ele><time>2026-04-04T11:23:22Z</time></trkpt><trkpt lat="44.02939105470128" lon="10.555814542698773"><ele>202.0</ele><time>2026-04-04T11:23:23Z</time></trkpt><trkpt lat="44.02926289653702" lon="10.555672293960214"><ele>202.0</ele><time>2026-04-04T11:23:24Z</time></trkpt><trkpt lat="44.02913346764937" lon="10.555546833046767"><ele>202.0</ele><time>2026-04-04T11:23:25Z</time></trkpt><trkpt lat="44.02901772420504" lon="10.555426285527844"><ele>201.0</ele><time>2026-04-04T11:23:26Z</time></trkpt><trkpt lat="44.02890643358702" lon="10.555303912194049"><ele>200.0</ele><time>2026-04-04T11:23:27Z</time></trkpt><trkpt lat="44.02878520829811" lon="10.555175137713931"><ele>199.0</ele><time>2026-04-04T11:23:28Z</time></trkpt><trkpt lat="44.02866253500148" lon="10.555047464875429"><ele>198.0</ele><time>2026-04-04T11:23:29Z</time></trkpt><trkpt lat="44.02853684297247" lon="10.554913589219147"><ele>198.0</ele><time>2026-04-04T11:23:30Z</time></trkpt><trkpt lat="44.02841792800326" lon="10.55478413637903"><ele>198.0</ele><time>2026-04-04T11:23:31Z</time></trkpt><trkpt lat="44.02829649150632" lon="10.554652856454288"><ele>198.0</ele><time>2026-04-04T11:23:32Z</time></trkpt><trkpt lat="44.02817965485184" lon="10.554525113780846"><ele>195.66666666666666</ele><time>2026-04-04T11:23:33Z</time></trkpt><trkpt lat="44.02805967659011" lon="10.554395220471653"><ele>193.33333333333331</ele><time>2026-04-04T11:23:34Z</time></trkpt><trkpt lat="44.02793966455038" lon="10.554263987333334"><ele>191.0</ele><time>2026-04-04T11:23:35Z</time></trkpt><trkpt lat="44.027817844869745" lon="10.554132701149124"><ele>191.0</ele><time>2026-04-04T11:23:36Z</time></trkpt><trkpt lat="44.027700222570346" lon="10.554006314797244"><ele>191.0</ele><time>2026-04-04T11:23:37Z</time></trkpt><trkpt lat="44.027580936062066" lon="10.55387792153114"><ele>191.0</ele><time>2026-04-04T11:23:38Z</time></trkpt><trkpt lat="44.02746214053058" lon="10.553747794278927"><ele>190.0</ele><time>2026-04-04T11:23:39Z</time></trkpt><trkpt lat="44.02734198254678" lon="10.553618512293758"><ele>189.0</ele><time>2026-04-04T11:23:40Z</time></trkpt><trkpt lat="44.027223944958806" lon="10.553491919586346"><ele>188.0</ele><time>2026-04-04T11:23:41Z</time></trkpt><trkpt lat="44.02710474069426" lon="10.553363617519192"><ele>188.0</ele><time>2026-04-04T11:23:42Z</time></trkpt><trkpt lat="44.02698864740117" lon="10.553233710097633"><ele>188.0</ele><time>2026-04-04T11:23:43Z</time></trkpt><trkpt lat="44.02687240920846" lon="10.553106735159716"><ele>188.0</ele><time>2026-04-04T11:23:44Z</time></trkpt><trkpt lat="44.02675430038507" lon="10.552981714325728"><ele>188.0</ele><time>2026-04-04T11:23:45Z</time></trkpt><trkpt lat="44.02663573846412" lon="10.552854500900175"><ele>186.66666666666666</ele><time>2026-04-04T11:23:46Z</time></trkpt><trkpt lat="44.02651587673078" lon="10.552726385287741"><ele>185.33333333333334</ele><time>2026-04-04T11:23:47Z</time></trkpt><trkpt lat="44.02639869734401" lon="10.55259694789913"><ele>184.0</ele><time>2026-04-04T11:23:48Z</time></trkpt><trkpt lat="44.026279823860435" lon="10.552465692689434"><ele>184.0</ele><time>2026-04-04T11:23:49Z</time></trkpt><trkpt lat="44.026159100975796" lon="10.55233574634495"><ele>184.0</ele><time>2026-04-04T11:23:50Z</time></trkpt><trkpt lat="44.02603893940923" lon="10.55220839595817"><ele>184.0</ele><time>2026-04-04T11:23:51Z</time></trkpt><trkpt lat="44.025919085560766" lon="10.552084233609932"><ele>185.33333333333334</ele><time>2026-04-04T11:23:52Z</time></trkpt><trkpt lat="44.025799128780776" lon="10.551957726098447"><ele>186.66666666666666</ele><time>2026-04-04T11:23:53Z</time></trkpt><trkpt lat="44.02567957039239" lon="10.551826565883845"><ele>188.0</ele><time>2026-04-04T11:23:54Z</time></trkpt><trkpt lat="44.02556156377821" lon="10.55169532784151"><ele>188.0</ele><time>2026-04-04T11:23:55Z</time></trkpt><trkpt lat="44.02544500788794" lon="10.551568694634774"><ele>188.0</ele><time>2026-04-04T11:23:56Z</time></trkpt><trkpt lat="44.02532499286036" lon="10.55143564680128"><ele>188.0</ele><time>2026-04-04T11:23:57Z</time></trkpt><trkpt lat="44.02520395566042" lon="10.551303674900126"><ele>186.25</ele><time>2026-04-04T11:23:58Z</time></trkpt><trkpt lat="44.02508512659686" lon="10.551174738127646"><ele>184.5</ele><time>2026-04-04T11:23:59Z</time></trkpt><trkpt lat="44.02496586352613" lon="10.551043996410696"><ele>182.75</ele><time>2026-04-04T11:24:00Z</time></trkpt><trkpt lat="44.0248548047705" lon="10.550920956672135"><ele>181.0</ele><time>2026-04-04T11:24:01Z</time></trkpt><trkpt lat="44.02475340272369" lon="10.550798558486175"><ele>181.0</ele><time>2026-04-04T11:24:02Z</time></trkpt><trkpt lat="44.024656175081596" lon="10.55068803265629"><ele>181.0</ele><time>2026-04-04T11:24:03Z</time></trkpt><trkpt lat="44.02455324451766" lon="10.550601404469392"><ele>181.0</ele><time>2026-04-04T11:24:04Z</time></trkpt><trkpt lat="44.0244280886449" lon="10.550553928554764"><ele>181.0</ele><time>2026-04-04T11:24:05Z</time></trkpt><trkpt lat="44.02430486507015" lon="10.550533597862449"><ele>181.0</ele><time>2026-04-04T11:24:06Z</time></trkpt><trkpt lat="44.024196534983155" lon="10.550524120640487"><ele>181.0</ele><time>2026-04-04T11:24:07Z</time></trkpt><trkpt lat="44.02409909444192" lon="10.55053785581075"><ele>181.0</ele><time>2026-04-04T11:24:08Z</time></trkpt><trkpt lat="44.02401397822789" lon="10.550614520010143"><ele>181.0</ele><time>2026-04-04T11:24:09Z</time></trkpt><trkpt lat="44.0239384588257" lon="10.550717942200652"><ele>181.0</ele><time>2026-04-04T11:24:10Z</time></trkpt><trkpt lat="44.023845995395746" lon="10.550766099367332"><ele>182.5</ele><time>2026-04-04T11:24:11Z</time></trkpt><trkpt lat="44.02373356681798" lon="10.550770696702724"><ele>184.0</ele><time>2026-04-04T11:24:12Z</time></trkpt><trkpt lat="44.02364206570068" lon="10.550655585484598"><ele>185.5</ele><time>2026-04-04T11:24:13Z</time></trkpt><trkpt lat="44.02359765585571" lon="10.55049103927409"><ele>187.0</ele><time>2026-04-04T11:24:14Z</time></trkpt><trkpt lat="44.02353860827619" lon="10.550319608808973"><ele>183.25</ele><time>2026-04-04T11:24:15Z</time></trkpt><trkpt lat="44.02350555804322" lon="10.55013107118197"><ele>179.5</ele><time>2026-04-04T11:24:16Z</time></trkpt><trkpt lat="44.02346282432602" lon="10.549985243294632"><ele>175.75</ele><time>2026-04-04T11:24:17Z</time></trkpt><trkpt lat="44.02341876218514" lon="10.549833145390382"><ele>172.0</ele><time>2026-04-04T11:24:18Z</time></trkpt><trkpt lat="44.023378984837194" lon="10.549681663495381"><ele>171.5</ele><time>2026-04-04T11:24:19Z</time></trkpt><trkpt lat="44.02333954504461" lon="10.549529797835847"><ele>171.0</ele><time>2026-04-04T11:24:20Z</time></trkpt><trkpt lat="44.02329920189577" lon="10.549359612993337"><ele>170.5</ele><time>2026-04-04T11:24:21Z</time></trkpt><trkpt lat="44.02326057136725" lon="10.549202088007558"><ele>170.0</ele><time>2026-04-04T11:24:22Z</time></trkpt><trkpt lat="44.02322768424742" lon="10.549047434666207"><ele>170.0</ele><time>2026-04-04T11:24:23Z</time></trkpt><trkpt lat="44.023188668211525" lon="10.54890516863994"><ele>170.0</ele><time>2026-04-04T11:24:24Z</time></trkpt><trkpt lat="44.023147410466756" lon="10.548767500734286"><ele>170.0</ele><time>2026-04-04T11:24:25Z</time></trkpt><trkpt lat="44.023094822848485" lon="10.548638548143133"><ele>170.0</ele><time>2026-04-04T11:24:26Z</time></trkpt><trkpt lat="44.023020270135106" lon="10.548520026860164"><ele>170.0</ele><time>2026-04-04T11:24:27Z</time></trkpt><trkpt lat="44.02292037150251" lon="10.548411918158505"><ele>166.5</ele><time>2026-04-04T11:24:28Z</time></trkpt><trkpt lat="44.02281879207737" lon="10.548321299459285"><ele>163.0</ele><time>2026-04-04T11:24:29Z</time></trkpt><trkpt lat="44.02271525306223" lon="10.548247917660781"><ele>159.5</ele><time>2026-04-04T11:24:30Z</time></trkpt><trkpt lat="44.02260921895821" lon="10.548165733230432"><ele>156.0</ele><time>2026-04-04T11:24:31Z</time></trkpt><trkpt lat="44.02250985011252" lon="10.548082816745481"><ele>155.8</ele><time>2026-04-04T11:24:32Z</time></trkpt><trkpt lat="44.02241583017242" lon="10.548005051957755"><ele>155.6</ele><time>2026-04-04T11:24:33Z</time></trkpt><trkpt lat="44.0223230549873" lon="10.547925234648933"><ele>155.4</ele><time>2026-04-04T11:24:34Z</time></trkpt><trkpt lat="44.02223523926973" lon="10.547842382180416"><ele>155.2</ele><time>2026-04-04T11:24:35Z</time></trkpt><trkpt lat="44.02219002859192" lon="10.547712585772363"><ele>155.0</ele><time>2026-04-04T11:24:36Z</time></trkpt><trkpt lat="44.022142189323425" lon="10.547580471773799"><ele>155.0</ele><time>2026-04-04T11:24:37Z</time></trkpt><trkpt lat="44.02208684973578" lon="10.547428455774703"><ele>155.0</ele><time>2026-04-04T11:24:38Z</time></trkpt><trkpt lat="44.0220181421068" lon="10.547266982986354"><ele>155.0</ele><time>2026-04-04T11:24:39Z</time></trkpt><trkpt lat="44.02196741755877" lon="10.54711713369124"><ele>155.0</ele><time>2026-04-04T11:24:40Z</time></trkpt><trkpt lat="44.021920648245725" lon="10.546973316704653"><ele>154.75</ele><time>2026-04-04T11:24:41Z</time></trkpt><trkpt lat="44.021864357126404" lon="10.546823541693062"><ele>154.5</ele><time>2026-04-04T11:24:42Z</time></trkpt><trkpt lat="44.02179022934569" lon="10.546673185472294"><ele>154.25</ele><time>2026-04-04T11:24:43Z</time></trkpt><trkpt lat="44.021690361582756" lon="10.546535865504232"><ele>154.0</ele><time>2026-04-04T11:24:44Z</time></trkpt><trkpt lat="44.02156899045697" lon="10.546425055338867"><ele>154.0</ele><time>2026-04-04T11:24:45Z</time></trkpt><trkpt lat="44.02142946184475" lon="10.54632298981825"><ele>154.0</ele><time>2026-04-04T11:24:46Z</time></trkpt><trkpt lat="44.02126416678225" lon="10.546178864695944"><ele>154.0</ele><time>2026-04-04T11:24:47Z</time></trkpt><trkpt lat="44.021082435632174" lon="10.54602343867973"><ele>151.66666666666669</ele><time>2026-04-04T11:24:48Z</time></trkpt><trkpt lat="44.020883187835956" lon="10.54585303147003"><ele>149.33333333333334</ele><time>2026-04-04T11:24:49Z</time></trkpt><trkpt lat="44.020701706202075" lon="10.545721116451613"><ele>147.0</ele><time>2026-04-04T11:24:50Z</time></trkpt><trkpt lat="44.02054601861735" lon="10.54557408838202"><ele>147.0</ele><time>2026-04-04T11:24:51Z</time></trkpt><trkpt lat="44.02039358561174" lon="10.545448929421031"><ele>147.0</ele><time>2026-04-04T11:24:52Z</time></trkpt><trkpt lat="44.02025121295376" lon="10.545327470103405"><ele>147.0</ele><time>2026-04-04T11:24:53Z</time></trkpt><trkpt lat="44.02010716369134" lon="10.545203164067784"><ele>145.33333333333334</ele><time>2026-04-04T11:24:54Z</time></trkpt><trkpt lat="44.01995866835793" lon="10.545081829762404"><ele>143.66666666666669</ele><time>2026-04-04T11:24:55Z</time></trkpt><trkpt lat="44.01981084622865" lon="10.544956479762027"><ele>142.0</ele><time>2026-04-04T11:24:56Z</time></trkpt><trkpt lat="44.019654058432046" lon="10.544821824249434"><ele>142.0</ele><time>2026-04-04T11:24:57Z</time></trkpt><trkpt lat="44.01949590267295" lon="10.544686629647039"><ele>142.0</ele><time>2026-04-04T11:24:58Z</time></trkpt><trkpt lat="44.019341686359816" lon="10.544553035413626"><ele>142.0</ele><time>2026-04-04T11:24:59Z</time></trkpt><trkpt lat="44.019186148848625" lon="10.544414372125983"><ele>142.0</ele><time>2026-04-04T11:25:00Z</time></trkpt><trkpt lat="44.0190252862962" lon="10.544274768136619"><ele>142.0</ele><time>2026-04-04T11:25:01Z</time></trkpt><trkpt lat="44.01886796518883" lon="10.544142631684444"><ele>142.0</ele><time>2026-04-04T11:25:02Z</time></trkpt><trkpt lat="44.01873174461768" lon="10.54396393900834"><ele>142.0</ele><time>2026-04-04T11:25:03Z</time></trkpt><trkpt lat="44.018603496869616" lon="10.543793220975282"><ele>142.0</ele><time>2026-04-04T11:25:04Z</time></trkpt><trkpt lat="44.01848515581057" lon="10.543628635291702"><ele>142.0</ele><time>2026-04-04T11:25:05Z</time></trkpt><trkpt lat="44.01837302018888" lon="10.543473615050484"><ele>141.5</ele><time>2026-04-04T11:25:06Z</time></trkpt><trkpt lat="44.01826162306715" lon="10.543323298388348"><ele>141.0</ele><time>2026-04-04T11:25:07Z</time></trkpt><trkpt lat="44.01815589787083" lon="10.543180635413199"><ele>140.5</ele><time>2026-04-04T11:25:08Z</time></trkpt><trkpt lat="44.01805299873252" lon="10.543053002791675"><ele>140.0</ele><time>2026-04-04T11:25:09Z</time></trkpt><trkpt lat="44.017950054919844" lon="10.54291457711717"><ele>137.75</ele><time>2026-04-04T11:25:10Z</time></trkpt><trkpt lat="44.01784038939715" lon="10.542769390674055"><ele>135.5</ele><time>2026-04-04T11:25:11Z</time></trkpt><trkpt lat="44.01773461015703" lon="10.542624596079783"><ele>133.25</ele><time>2026-04-04T11:25:12Z</time></trkpt><trkpt lat="44.01763463737646" lon="10.54248185392132"><ele>131.0</ele><time>2026-04-04T11:25:13Z</time></trkpt><trkpt lat="44.017530169832945" lon="10.542345659022315"><ele>132.33333333333331</ele><time>2026-04-04T11:25:14Z</time></trkpt><trkpt lat="44.01740796180743" lon="10.542231542151326"><ele>133.66666666666666</ele><time>2026-04-04T11:25:15Z</time></trkpt><trkpt lat="44.0172574496762" lon="10.542146292933658"><ele>135.0</ele><time>2026-04-04T11:25:16Z</time></trkpt><trkpt lat="44.017104595532544" lon="10.542068452864562"><ele>132.5</ele><time>2026-04-04T11:25:17Z</time></trkpt><trkpt lat="44.01696654886366" lon="10.542003058196302"><ele>130.0</ele><time>2026-04-04T11:25:18Z</time></trkpt><trkpt lat="44.01683432521706" lon="10.541941432975776"><ele>127.5</ele><time>2026-04-04T11:25:19Z</time></trkpt><trkpt lat="44.016712782994595" lon="10.541875661673677"><ele>125.0</ele><time>2026-04-04T11:25:20Z</time></trkpt><trkpt lat="44.016602238537345" lon="10.54180673307718"><ele>124.5</ele><time>2026-04-04T11:25:21Z</time></trkpt><trkpt lat="44.01648461650208" lon="10.541766016841807"><ele>124.0</ele><time>2026-04-04T11:25:22Z</time></trkpt><trkpt lat="44.01633793754994" lon="10.54177384533807"><ele>123.5</ele><time>2026-04-04T11:25:23Z</time></trkpt><trkpt lat="44.01617545812278" lon="10.541805907999779"><ele>123.0</ele><time>2026-04-04T11:25:24Z</time></trkpt><trkpt lat="44.015995627370394" lon="10.541857690853014"><ele>120.66666666666666</ele><time>2026-04-04T11:25:25Z</time></trkpt><trkpt lat="44.01581315018866" lon="10.541905668364098"><ele>118.33333333333333</ele><time>2026-04-04T11:25:26Z</time></trkpt><trkpt lat="44.015647993178966" lon="10.541940275638733"><ele>116.0</ele><time>2026-04-04T11:25:27Z</time></trkpt><trkpt lat="44.015495688750846" lon="10.541978353829473"><ele>116.0</ele><time>2026-04-04T11:25:28Z</time></trkpt><trkpt lat="44.01535305442786" lon="10.542013058970872"><ele>116.0</ele><time>2026-04-04T11:25:29Z</time></trkpt><trkpt lat="44.01522271790638" lon="10.542037461367753"><ele>116.0</ele><time>2026-04-04T11:25:30Z</time></trkpt><trkpt lat="44.01509288614986" lon="10.542061000269916"><ele>116.0</ele><time>2026-04-04T11:25:31Z</time></trkpt><trkpt lat="44.014952006319994" lon="10.542116246270297"><ele>117.66666666666666</ele><time>2026-04-04T11:25:32Z</time></trkpt><trkpt lat="44.0148037057489" lon="10.542223087459648"><ele>119.33333333333334</ele><time>2026-04-04T11:25:33Z</time></trkpt><trkpt lat="44.01466012530364" lon="10.542353821155373"><ele>121.0</ele><time>2026-04-04T11:25:34Z</time></trkpt><trkpt lat="44.01451929458718" lon="10.542488292288441"><ele>121.0</ele><time>2026-04-04T11:25:35Z</time></trkpt><trkpt lat="44.01438816555725" lon="10.542621186542611"><ele>121.0</ele><time>2026-04-04T11:25:36Z</time></trkpt><trkpt lat="44.01425777234196" lon="10.54274590218396"><ele>121.0</ele><time>2026-04-04T11:25:37Z</time></trkpt><trkpt lat="44.01412333895821" lon="10.54285728789248"><ele>121.0</ele><time>2026-04-04T11:25:38Z</time></trkpt><trkpt lat="44.01398614854294" lon="10.542966488940964"><ele>121.0</ele><time>2026-04-04T11:25:39Z</time></trkpt><trkpt lat="44.01384393383574" lon="10.54308512741755"><ele>121.0</ele><time>2026-04-04T11:25:40Z</time></trkpt><trkpt lat="44.013705004416174" lon="10.543217118334685"><ele>121.0</ele><time>2026-04-04T11:25:41Z</time></trkpt><trkpt lat="44.013564409756114" lon="10.5433352330579"><ele>121.0</ele><time>2026-04-04T11:25:42Z</time></trkpt><trkpt lat="44.01343564381328" lon="10.543442524548544"><ele>121.0</ele><time>2026-04-04T11:25:43Z</time></trkpt><trkpt lat="44.013318834673115" lon="10.543538647139249"><ele>121.25</ele><time>2026-04-04T11:25:44Z</time></trkpt><trkpt lat="44.013214183990726" lon="10.543638829778999"><ele>121.5</ele><time>2026-04-04T11:25:45Z</time></trkpt><trkpt lat="44.01311211723675" lon="10.543734210393756"><ele>121.75</ele><time>2026-04-04T11:25:46Z</time></trkpt><trkpt lat="44.01301678572005" lon="10.54382465215338"><ele>122.0</ele><time>2026-04-04T11:25:47Z</time></trkpt><trkpt lat="44.012904594554655" lon="10.543899154713385"><ele>122.0</ele><time>2026-04-04T11:25:48Z</time></trkpt><trkpt lat="44.01279588850374" lon="10.543986183031194"><ele>121.99999999999999</ele><time>2026-04-04T11:25:49Z</time></trkpt><trkpt lat="44.0127023511665" lon="10.54405833733229"><ele>121.99999999999999</ele><time>2026-04-04T11:25:50Z</time></trkpt><trkpt lat="44.01261089481742" lon="10.544128886359003"><ele>122.0</ele><time>2026-04-04T11:25:51Z</time></trkpt><trkpt lat="44.01257626623194" lon="10.54421318649262"><ele>122.0</ele><time>2026-04-04T11:25:52Z</time></trkpt><trkpt lat="44.012602257952835" lon="10.544074341951612"><ele>121.99999999999999</ele><time>2026-04-04T11:25:55Z</time></trkpt><trkpt lat="44.01254536688674" lon="10.544026481357452"><ele>122.0</ele><time>2026-04-04T11:25:57Z</time></trkpt><trkpt lat="44.012522532111525" lon="10.543919412301266"><ele>122.0</ele><time>2026-04-04T11:25:58Z</time></trkpt><trkpt lat="44.012460241259696" lon="10.543856290473187"><ele>122.0</ele><time>2026-04-04T11:25:59Z</time></trkpt><trkpt lat="44.01238810407177" lon="10.543837043912005"><ele>121.99999999999999</ele><time>2026-04-04T11:26:00Z</time></trkpt><trkpt lat="44.012297361075454" lon="10.543851363623181"><ele>122.0</ele><time>2026-04-04T11:26:01Z</time></trkpt><trkpt lat="44.01221464042422" lon="10.543915796578712"><ele>121.5</ele><time>2026-04-04T11:26:02Z</time></trkpt><trkpt lat="44.012155856455706" lon="10.54402691286743"><ele>121.0</ele><time>2026-04-04T11:26:03Z</time></trkpt><trkpt lat="44.012122571140495" lon="10.544192810935934"><ele>120.5</ele><time>2026-04-04T11:26:04Z</time></trkpt><trkpt lat="44.01209739084226" lon="10.544387897075472"><ele>120.0</ele><time>2026-04-04T11:26:05Z</time></trkpt><trkpt lat="44.01206560255262" lon="10.54462309040391"><ele>120.0</ele><time>2026-04-04T11:26:06Z</time></trkpt><trkpt lat="44.01204888134455" lon="10.544878182095578"><ele>120.0</ele><time>2026-04-04T11:26:07Z</time></trkpt><trkpt lat="44.01186580166028" lon="10.545095835897987"><ele>120.0</ele><time>2026-04-04T11:26:08Z</time></trkpt><trkpt lat="44.01177263444256" lon="10.545306094531021"><ele>118.33333333333334</ele><time>2026-04-04T11:26:09Z</time></trkpt><trkpt lat="44.01167720159342" lon="10.54548771550898"><ele>116.66666666666667</ele><time>2026-04-04T11:26:10Z</time></trkpt><trkpt lat="44.011584157842734" lon="10.545672849498713"><ele>115.0</ele><time>2026-04-04T11:26:11Z</time></trkpt><trkpt lat="44.01150133984385" lon="10.545834152178081"><ele>115.0</ele><time>2026-04-04T11:26:12Z</time></trkpt><trkpt lat="44.01141933687372" lon="10.545990740848431"><ele>115.0</ele><time>2026-04-04T11:26:13Z</time></trkpt><trkpt lat="44.01133489145212" lon="10.54615097365352"><ele>115.0</ele><time>2026-04-04T11:26:14Z</time></trkpt><trkpt lat="44.01125151360809" lon="10.546295472641264"><ele>115.0</ele><time>2026-04-04T11:26:15Z</time></trkpt><trkpt lat="44.01117589673213" lon="10.546424652985245"><ele>115.5</ele><time>2026-04-04T11:26:16Z</time></trkpt><trkpt lat="44.01110318129145" lon="10.54655270684749"><ele>116.0</ele><time>2026-04-04T11:26:17Z</time></trkpt><trkpt lat="44.01101765080534" lon="10.546681016866788"><ele>116.5</ele><time>2026-04-04T11:26:18Z</time></trkpt><trkpt lat="44.010917628102696" lon="10.546797389315268"><ele>117.0</ele><time>2026-04-04T11:26:19Z</time></trkpt><trkpt lat="44.01080202318551" lon="10.546892478547386"><ele>117.0</ele><time>2026-04-04T11:26:20Z</time></trkpt><trkpt lat="44.01068037628102" lon="10.546979931894267"><ele>117.0</ele><time>2026-04-04T11:26:21Z</time></trkpt><trkpt lat="44.01054978188497" lon="10.547049487160818"><ele>117.0</ele><time>2026-04-04T11:26:22Z</time></trkpt><trkpt lat="44.0104139139358" lon="10.547102375110184"><ele>117.0</ele><time>2026-04-04T11:26:23Z</time></trkpt><trkpt lat="44.01027392639646" lon="10.547142885173487"><ele>121.0</ele><time>2026-04-04T11:26:24Z</time></trkpt><trkpt lat="44.01012923464778" lon="10.547161860086478"><ele>125.0</ele><time>2026-04-04T11:26:25Z</time></trkpt><trkpt lat="44.009983800811796" lon="10.547163366029734"><ele>129.0</ele><time>2026-04-04T11:26:26Z</time></trkpt><trkpt lat="44.0098431005266" lon="10.547148081206783"><ele>133.0</ele><time>2026-04-04T11:26:27Z</time></trkpt><trkpt lat="44.00969980000049" lon="10.547135070242813"><ele>133.0</ele><time>2026-04-04T11:26:28Z</time></trkpt><trkpt lat="44.009550444348115" lon="10.547123741487493"><ele>133.0</ele><time>2026-04-04T11:26:29Z</time></trkpt><trkpt lat="44.00941499481595" lon="10.547122325105834"><ele>133.0</ele><time>2026-04-04T11:26:30Z</time></trkpt><trkpt lat="44.00928070231988" lon="10.547148554502542"><ele>133.0</ele><time>2026-04-04T11:26:31Z</time></trkpt><trkpt lat="44.009140204593045" lon="10.547214752588607"><ele>130.0</ele><time>2026-04-04T11:26:32Z</time></trkpt><trkpt lat="44.008998478173645" lon="10.547278510973973"><ele>127.0</ele><time>2026-04-04T11:26:33Z</time></trkpt><trkpt lat="44.00884962365277" lon="10.547339987195018"><ele>124.0</ele><time>2026-04-04T11:26:34Z</time></trkpt><trkpt lat="44.00870430997325" lon="10.547398660222274"><ele>124.0</ele><time>2026-04-04T11:26:35Z</time></trkpt><trkpt lat="44.00857642147059" lon="10.547450362949323"><ele>124.0</ele><time>2026-04-04T11:26:36Z</time></trkpt><trkpt lat="44.00846359746898" lon="10.547499212952925"><ele>124.0</ele><time>2026-04-04T11:26:37Z</time></trkpt><trkpt lat="44.008377468463195" lon="10.547576318300296"><ele>124.0</ele><time>2026-04-04T11:26:38Z</time></trkpt><trkpt lat="44.00832205816356" lon="10.547713184212416"><ele>122.0</ele><time>2026-04-04T11:26:39Z</time></trkpt><trkpt lat="44.00829444698957" lon="10.547881783221083"><ele>120.0</ele><time>2026-04-04T11:26:40Z</time></trkpt><trkpt lat="44.00830963252644" lon="10.548081046596103"><ele>118.0</ele><time>2026-04-04T11:26:41Z</time></trkpt><trkpt lat="44.00833374064061" lon="10.548278123434512"><ele>116.0</ele><time>2026-04-04T11:26:42Z</time></trkpt><trkpt lat="44.008337092515" lon="10.548462717520634"><ele>116.0</ele><time>2026-04-04T11:26:43Z</time></trkpt><trkpt lat="44.00830426403028" lon="10.548653437686133"><ele>116.0</ele><time>2026-04-04T11:26:44Z</time></trkpt><trkpt lat="44.00824265609068" lon="10.548852120614217"><ele>116.0</ele><time>2026-04-04T11:26:45Z</time></trkpt><trkpt lat="44.00813536907246" lon="10.549017760536932"><ele>120.33333333333333</ele><time>2026-04-04T11:26:46Z</time></trkpt><trkpt lat="44.0080064968455" lon="10.549157609215044"><ele>124.66666666666666</ele><time>2026-04-04T11:26:47Z</time></trkpt><trkpt lat="44.007854735706665" lon="10.54928919574998"><ele>129.0</ele><time>2026-04-04T11:26:48Z</time></trkpt><trkpt lat="44.00771388802883" lon="10.549426760802104"><ele>129.0</ele><time>2026-04-04T11:26:49Z</time></trkpt><trkpt lat="44.007577290145576" lon="10.549530943780374"><ele>129.0</ele><time>2026-04-04T11:26:50Z</time></trkpt><trkpt lat="44.007452766362896" lon="10.549626967444505"><ele>129.0</ele><time>2026-04-04T11:26:51Z</time></trkpt><trkpt lat="44.00733732571312" lon="10.54971506022708"><ele>129.0</ele><time>2026-04-04T11:26:52Z</time></trkpt><trkpt lat="44.0072152524608" lon="10.549775309956908"><ele>129.5</ele><time>2026-04-04T11:26:53Z</time></trkpt><trkpt lat="44.00710348728857" lon="10.5498611119434"><ele>130.0</ele><time>2026-04-04T11:26:54Z</time></trkpt><trkpt lat="44.006975721572594" lon="10.549919226905963"><ele>130.5</ele><time>2026-04-04T11:26:55Z</time></trkpt><trkpt lat="44.00683973072363" lon="10.549960402518634"><ele>131.0</ele><time>2026-04-04T11:26:56Z</time></trkpt><trkpt lat="44.00669795324379" lon="10.549998247537978"><ele>126.66666666666666</ele><time>2026-04-04T11:26:57Z</time></trkpt><trkpt lat="44.006546187954996" lon="10.550043380265164"><ele>122.33333333333334</ele><time>2026-04-04T11:26:58Z</time></trkpt><trkpt lat="44.00638302959021" lon="10.550094400157581"><ele>118.0</ele><time>2026-04-04T11:26:59Z</time></trkpt><trkpt lat="44.0062166590036" lon="10.550154470464774"><ele>118.0</ele><time>2026-04-04T11:27:00Z</time></trkpt><trkpt lat="44.0060620127009" lon="10.55022560343283"><ele>118.0</ele><time>2026-04-04T11:27:01Z</time></trkpt><trkpt lat="44.00590927022659" lon="10.55032253223025"><ele>118.0</ele><time>2026-04-04T11:27:02Z</time></trkpt><trkpt lat="44.005762143860125" lon="10.550437596937462"><ele>116.66666666666667</ele><time>2026-04-04T11:27:03Z</time></trkpt><trkpt lat="44.005619453361426" lon="10.550553383027227"><ele>115.33333333333334</ele><time>2026-04-04T11:27:04Z</time></trkpt><trkpt lat="44.00547550951945" lon="10.550677127940352"><ele>114.0</ele><time>2026-04-04T11:27:05Z</time></trkpt><trkpt lat="44.00534244977311" lon="10.550814162491825"><ele>114.0</ele><time>2026-04-04T11:27:06Z</time></trkpt><trkpt lat="44.005218320601514" lon="10.550954618955778"><ele>114.0</ele><time>2026-04-04T11:27:07Z</time></trkpt><trkpt lat="44.00509232517325" lon="10.551093855755168"><ele>114.0</ele><time>2026-04-04T11:27:08Z</time></trkpt><trkpt lat="44.00498007679905" lon="10.551215488642452"><ele>114.0</ele><time>2026-04-04T11:27:09Z</time></trkpt><trkpt lat="44.00486812356706" lon="10.551329723613287"><ele>114.0</ele><time>2026-04-04T11:27:10Z</time></trkpt><trkpt lat="44.00473836102212" lon="10.551389922295135"><ele>114.0</ele><time>2026-04-04T11:27:11Z</time></trkpt><trkpt lat="44.0046125567289" lon="10.55146257744941"><ele>114.0</ele><time>2026-04-04T11:27:12Z</time></trkpt><trkpt lat="44.00448869654345" lon="10.551503011799298"><ele>114.0</ele><time>2026-04-04T11:27:13Z</time></trkpt><trkpt lat="44.00438317604499" lon="10.551589586898539"><ele>114.0</ele><time>2026-04-04T11:27:14Z</time></trkpt><trkpt lat="44.00429232081556" lon="10.551732749420513"><ele>114.0</ele><time>2026-04-04T11:27:15Z</time></trkpt><trkpt lat="44.00422909807566" lon="10.551910491118965"><ele>114.0</ele><time>2026-04-04T11:27:16Z</time></trkpt><trkpt lat="44.00420307091912" lon="10.552114623995969"><ele>114.75</ele><time>2026-04-04T11:27:17Z</time></trkpt><trkpt lat="44.00420954609792" lon="10.55230704738144"><ele>115.5</ele><time>2026-04-04T11:27:18Z</time></trkpt><trkpt lat="44.00424260335537" lon="10.55249126020526"><ele>116.25</ele><time>2026-04-04T11:27:19Z</time></trkpt><trkpt lat="44.00430729673443" lon="10.552673980114408"><ele>117.0</ele><time>2026-04-04T11:27:20Z</time></trkpt><trkpt lat="44.00440801831511" lon="10.552855438862805"><ele>115.33333333333334</ele><time>2026-04-04T11:27:21Z</time></trkpt><trkpt lat="44.004516128044315" lon="10.553052667603952"><ele>113.66666666666667</ele><time>2026-04-04T11:27:22Z</time></trkpt><trkpt lat="44.00460934646014" lon="10.553261113201104"><ele>112.0</ele><time>2026-04-04T11:27:23Z</time></trkpt><trkpt lat="44.00468449572072" lon="10.553471038936673"><ele>112.0</ele><time>2026-04-04T11:27:24Z</time></trkpt><trkpt lat="44.00475689206924" lon="10.553660720014156"><ele>112.0</ele><time>2026-04-04T11:27:25Z</time></trkpt><trkpt lat="44.00482203361029" lon="10.55384927037972"><ele>112.0</ele><time>2026-04-04T11:27:26Z</time></trkpt><trkpt lat="44.00487746191839" lon="10.554031757544355"><ele>112.0</ele><time>2026-04-04T11:27:27Z</time></trkpt><trkpt lat="44.00492194612348" lon="10.554210341180768"><ele>112.0</ele><time>2026-04-04T11:27:28Z</time></trkpt><trkpt lat="44.00496790631764" lon="10.554380784601214"><ele>112.0</ele><time>2026-04-04T11:27:29Z</time></trkpt><trkpt lat="44.00501197978588" lon="10.554549444627112"><ele>112.0</ele><time>2026-04-04T11:27:30Z</time></trkpt><trkpt lat="44.0050561505914" lon="10.554725072969044"><ele>112.0</ele><time>2026-04-04T11:27:31Z</time></trkpt><trkpt lat="44.005096523742516" lon="10.55488982335267"><ele>112.39999999999999</ele><time>2026-04-04T11:27:32Z</time></trkpt><trkpt lat="44.00512887264915" lon="10.555028846053657"><ele>112.79999999999998</ele><time>2026-04-04T11:27:33Z</time></trkpt><trkpt lat="44.00512529924237" lon="10.555158016855415"><ele>113.2</ele><time>2026-04-04T11:27:34Z</time></trkpt><trkpt lat="44.00509805356494" lon="10.55527668454475"><ele>113.6</ele><time>2026-04-04T11:27:35Z</time></trkpt><trkpt lat="44.005065526677576" lon="10.555403899160455"><ele>114.0</ele><time>2026-04-04T11:27:36Z</time></trkpt><trkpt lat="44.00495360912972" lon="10.555508799231301"><ele>113.0</ele><time>2026-04-04T11:27:37Z</time></trkpt><trkpt lat="44.00483691491852" lon="10.55560076845078"><ele>112.0</ele><time>2026-04-04T11:27:38Z</time></trkpt><trkpt lat="44.004707836099705" lon="10.555687745324585"><ele>111.0</ele><time>2026-04-04T11:27:39Z</time></trkpt><trkpt lat="44.00457042299747" lon="10.555785581341546"><ele>110.0</ele><time>2026-04-04T11:27:40Z</time></trkpt><trkpt lat="44.004401829518436" lon="10.555874847480002"><ele>110.0</ele><time>2026-04-04T11:27:41Z</time></trkpt><trkpt lat="44.0042296007872" lon="10.555989335052663"><ele>110.0</ele><time>2026-04-04T11:27:42Z</time></trkpt><trkpt lat="44.00406075959652" lon="10.556125523877665"><ele>110.0</ele><time>2026-04-04T11:27:43Z</time></trkpt><trkpt lat="44.00387136250498" lon="10.556250234705832"><ele>109.66666666666666</ele><time>2026-04-04T11:27:44Z</time></trkpt><trkpt lat="44.00367780297937" lon="10.556357003910463"><ele>109.33333333333334</ele><time>2026-04-04T11:27:45Z</time></trkpt><trkpt lat="44.0035109698916" lon="10.556469863357389"><ele>109.0</ele><time>2026-04-04T11:27:46Z</time></trkpt><trkpt lat="44.003355314837535" lon="10.55657653407276"><ele>107.66666666666667</ele><time>2026-04-04T11:27:47Z</time></trkpt><trkpt lat="44.003213074889864" lon="10.556687794853723"><ele>106.33333333333334</ele><time>2026-04-04T11:27:48Z</time></trkpt><trkpt lat="44.00306746583528" lon="10.556786867606439"><ele>105.0</ele><time>2026-04-04T11:27:49Z</time></trkpt><trkpt lat="44.002915554414464" lon="10.55688542715896"><ele>105.0</ele><time>2026-04-04T11:27:50Z</time></trkpt><trkpt lat="44.00276912962641" lon="10.556985731076297"><ele>105.0</ele><time>2026-04-04T11:27:51Z</time></trkpt><trkpt lat="44.002618077421815" lon="10.55708960990216"><ele>105.0</ele><time>2026-04-04T11:27:52Z</time></trkpt><trkpt lat="44.00245789564154" lon="10.557195697768684"><ele>103.33333333333334</ele><time>2026-04-04T11:27:53Z</time></trkpt><trkpt lat="44.00229783795253" lon="10.55730421536785"><ele>101.66666666666667</ele><time>2026-04-04T11:27:54Z</time></trkpt><trkpt lat="44.00213316545432" lon="10.557418434123464"><ele>100.0</ele><time>2026-04-04T11:27:55Z</time></trkpt><trkpt lat="44.00195834403835" lon="10.557533685225135"><ele>100.0</ele><time>2026-04-04T11:27:56Z</time></trkpt><trkpt lat="44.001790944571404" lon="10.557649677207804"><ele>100.0</ele><time>2026-04-04T11:27:57Z</time></trkpt><trkpt lat="44.00162605088579" lon="10.55776198164088"><ele>100.0</ele><time>2026-04-04T11:27:58Z</time></trkpt><trkpt lat="44.00146959064094" lon="10.557860483511758"><ele>102.33333333333334</ele><time>2026-04-04T11:27:59Z</time></trkpt><trkpt lat="44.00132649873799" lon="10.557957355706703"><ele>104.66666666666666</ele><time>2026-04-04T11:28:00Z</time></trkpt><trkpt lat="44.00118425177086" lon="10.558057069832948"><ele>107.0</ele><time>2026-04-04T11:28:01Z</time></trkpt><trkpt lat="44.00103634233164" lon="10.55815527369644"><ele>107.0</ele><time>2026-04-04T11:28:02Z</time></trkpt><trkpt lat="44.00088733620286" lon="10.55825349714168"><ele>107.0</ele><time>2026-04-04T11:28:03Z</time></trkpt><trkpt lat="44.00074462575636" lon="10.558341887843635"><ele>107.0</ele><time>2026-04-04T11:28:04Z</time></trkpt><trkpt lat="44.00061594868027" lon="10.55842462137952"><ele>107.0</ele><time>2026-04-04T11:28:05Z</time></trkpt><trkpt lat="44.000499403256356" lon="10.558498919435014"><ele>107.0</ele><time>2026-04-04T11:28:06Z</time></trkpt><trkpt lat="44.00038149394225" lon="10.558575080094977"><ele>107.0</ele><time>2026-04-04T11:28:07Z</time></trkpt><trkpt lat="44.00026424960561" lon="10.55865221225721"><ele>107.0</ele><time>2026-04-04T11:28:08Z</time></trkpt><trkpt lat="44.00015907598607" lon="10.558709740400767"><ele>106.99999999999999</ele><time>2026-04-04T11:28:09Z</time></trkpt><trkpt lat="44.00006189794486" lon="10.558753176183114"><ele>107.0</ele><time>2026-04-04T11:28:10Z</time></trkpt><trkpt lat="43.99997200641508" lon="10.558782469328644"><ele>107.0</ele><time>2026-04-04T11:28:11Z</time></trkpt><trkpt lat="43.999892001133695" lon="10.558792735769158"><ele>107.0</ele><time>2026-04-04T11:28:12Z</time></trkpt><trkpt lat="43.99982971516278" lon="10.558776202648374"><ele>106.99999999999999</ele><time>2026-04-04T11:28:13Z</time></trkpt><trkpt lat="43.9997419859155" lon="10.558729575282047"><ele>107.0</ele><time>2026-04-04T11:28:14Z</time></trkpt><trkpt lat="43.99964439574177" lon="10.55866130958787"><ele>107.0</ele><time>2026-04-04T11:28:15Z</time></trkpt><trkpt lat="43.99952068811725" lon="10.558573564649844"><ele>107.0</ele><time>2026-04-04T11:28:16Z</time></trkpt><trkpt lat="43.999377989214494" lon="10.55847979153479"><ele>107.0</ele><time>2026-04-04T11:28:17Z</time></trkpt><trkpt lat="43.99922022480282" lon="10.55837594925043"><ele>108.0</ele><time>2026-04-04T11:28:18Z</time></trkpt><trkpt lat="43.99905244749272" lon="10.558262502677747"><ele>109.0</ele><time>2026-04-04T11:28:19Z</time></trkpt><trkpt lat="43.99892369364965" lon="10.558152203960425"><ele>110.0</ele><time>2026-04-04T11:28:20Z</time></trkpt><trkpt lat="43.99878762747814" lon="10.558050647202922"><ele>110.0</ele><time>2026-04-04T11:28:21Z</time></trkpt><trkpt lat="43.99862414030207" lon="10.557951859066339"><ele>110.0</ele><time>2026-04-04T11:28:22Z</time></trkpt><trkpt lat="43.998480003880275" lon="10.557855118982504"><ele>110.0</ele><time>2026-04-04T11:28:23Z</time></trkpt><trkpt lat="43.99832826101275" lon="10.557758186315342"><ele>108.66666666666666</ele><time>2026-04-04T11:28:24Z</time></trkpt><trkpt lat="43.99819552749838" lon="10.557641592889397"><ele>107.33333333333334</ele><time>2026-04-04T11:28:25Z</time></trkpt><trkpt lat="43.9980583005925" lon="10.557545539654255"><ele>106.0</ele><time>2026-04-04T11:28:26Z</time></trkpt><trkpt lat="43.99791120811976" lon="10.557463871844021"><ele>106.0</ele><time>2026-04-04T11:28:27Z</time></trkpt><trkpt lat="43.997771058357536" lon="10.557353386432542"><ele>106.0</ele><time>2026-04-04T11:28:28Z</time></trkpt><trkpt lat="43.997628814643704" lon="10.557236864413046"><ele>106.0</ele><time>2026-04-04T11:28:29Z</time></trkpt><trkpt lat="43.99748145946917" lon="10.557122384417225"><ele>106.0</ele><time>2026-04-04T11:28:30Z</time></trkpt><trkpt lat="43.99733126142337" lon="10.557012910044362"><ele>106.0</ele><time>2026-04-04T11:28:31Z</time></trkpt><trkpt lat="43.997176533230046" lon="10.556917224684312"><ele>106.0</ele><time>2026-04-04T11:28:32Z</time></trkpt><trkpt lat="43.99701534545838" lon="10.55683602675559"><ele>106.0</ele><time>2026-04-04T11:28:33Z</time></trkpt><trkpt lat="43.99684752165277" lon="10.556760658082904"><ele>106.0</ele><time>2026-04-04T11:28:34Z</time></trkpt><trkpt lat="43.99667676511763" lon="10.556686745497004"><ele>106.0</ele><time>2026-04-04T11:28:35Z</time></trkpt><trkpt lat="43.9965070985241" lon="10.556609497843146"><ele>106.0</ele><time>2026-04-04T11:28:36Z</time></trkpt><trkpt lat="43.99633514499265" lon="10.556533872617596"><ele>106.0</ele><time>2026-04-04T11:28:37Z</time></trkpt><trkpt lat="43.99615483377125" lon="10.556452477633611"><ele>106.0</ele><time>2026-04-04T11:28:38Z</time></trkpt><trkpt lat="43.99598206402536" lon="10.556386972941336"><ele>109.0</ele><time>2026-04-04T11:28:39Z</time></trkpt><trkpt lat="43.99581400530646" lon="10.556331621286494"><ele>112.0</ele><time>2026-04-04T11:28:40Z</time></trkpt><trkpt lat="43.995648946971336" lon="10.556269958471823"><ele>115.0</ele><time>2026-04-04T11:28:41Z</time></trkpt><trkpt lat="43.99548110031863" lon="10.556206188822642"><ele>110.33333333333334</ele><time>2026-04-04T11:28:42Z</time></trkpt><trkpt lat="43.9953230212283" lon="10.556123852391654"><ele>105.66666666666666</ele><time>2026-04-04T11:28:43Z</time></trkpt><trkpt lat="43.99517724022313" lon="10.556005914065723"><ele>101.0</ele><time>2026-04-04T11:28:44Z</time></trkpt><trkpt lat="43.99503926756513" lon="10.55585945419012"><ele>99.66666666666666</ele><time>2026-04-04T11:28:45Z</time></trkpt><trkpt lat="43.99490121360595" lon="10.555685538032268"><ele>98.33333333333334</ele><time>2026-04-04T11:28:46Z</time></trkpt><trkpt lat="43.994767316694535" lon="10.555512621314238"><ele>97.0</ele><time>2026-04-04T11:28:47Z</time></trkpt><trkpt lat="43.99461787176065" lon="10.555362320143555"><ele>97.0</ele><time>2026-04-04T11:28:48Z</time></trkpt><trkpt lat="43.9944526094481" lon="10.555235269015927"><ele>97.0</ele><time>2026-04-04T11:28:49Z</time></trkpt><trkpt lat="43.99427785151182" lon="10.555113291762979"><ele>97.0</ele><time>2026-04-04T11:28:50Z</time></trkpt><trkpt lat="43.99410609485568" lon="10.555000744642731"><ele>100.33333333333334</ele><time>2026-04-04T11:28:51Z</time></trkpt><trkpt lat="43.99395494113159" lon="10.554892071495198"><ele>103.66666666666666</ele><time>2026-04-04T11:28:52Z</time></trkpt><trkpt lat="43.99381707354125" lon="10.554773311967951"><ele>107.0</ele><time>2026-04-04T11:28:53Z</time></trkpt><trkpt lat="43.99367860622981" lon="10.554646643211484"><ele>106.0</ele><time>2026-04-04T11:28:54Z</time></trkpt><trkpt lat="43.99355147831218" lon="10.554492308798093"><ele>105.0</ele><time>2026-04-04T11:28:55Z</time></trkpt><trkpt lat="43.99340360335378" lon="10.554359706901012"><ele>104.0</ele><time>2026-04-04T11:28:56Z</time></trkpt><trkpt lat="43.99327088922665" lon="10.554201644983628"><ele>104.0</ele><time>2026-04-04T11:28:57Z</time></trkpt><trkpt lat="43.99313566287001" lon="10.554052565469755"><ele>104.0</ele><time>2026-04-04T11:28:58Z</time></trkpt><trkpt lat="43.99298773989155" lon="10.553917032289258"><ele>104.0</ele><time>2026-04-04T11:28:59Z</time></trkpt><trkpt lat="43.99283138814993" lon="10.55379836292609"><ele>104.0</ele><time>2026-04-04T11:29:00Z</time></trkpt><trkpt lat="43.99267697899697" lon="10.55370771444127"><ele>104.0</ele><time>2026-04-04T11:29:01Z</time></trkpt><trkpt lat="43.99252206112568" lon="10.553638271143498"><ele>104.0</ele><time>2026-04-04T11:29:02Z</time></trkpt><trkpt lat="43.992352013219886" lon="10.553571525531822"><ele>103.33333333333333</ele><time>2026-04-04T11:29:03Z</time></trkpt><trkpt lat="43.992175879506114" lon="10.553511349476597"><ele>102.66666666666666</ele><time>2026-04-04T11:29:04Z</time></trkpt><trkpt lat="43.99198880455509" lon="10.55346618866643"><ele>102.0</ele><time>2026-04-04T11:29:05Z</time></trkpt><trkpt lat="43.99179172658643" lon="10.55341788045222"><ele>104.66666666666666</ele><time>2026-04-04T11:29:06Z</time></trkpt><trkpt lat="43.99159815263142" lon="10.553373094752132"><ele>107.33333333333333</ele><time>2026-04-04T11:29:07Z</time></trkpt><trkpt lat="43.99141106694287" lon="10.553327217032505"><ele>110.0</ele><time>2026-04-04T11:29:08Z</time></trkpt><trkpt lat="43.991231512763235" lon="10.553287745519592"><ele>110.0</ele><time>2026-04-04T11:29:09Z</time></trkpt><trkpt lat="43.99106593879247" lon="10.553249362904408"><ele>110.0</ele><time>2026-04-04T11:29:10Z</time></trkpt><trkpt lat="43.99089306244583" lon="10.553211947455614"><ele>110.0</ele><time>2026-04-04T11:29:11Z</time></trkpt><trkpt lat="43.99071993103698" lon="10.55317136637556"><ele>115.66666666666666</ele><time>2026-04-04T11:29:12Z</time></trkpt><trkpt lat="43.99055387279933" lon="10.55313241733076"><ele>121.33333333333334</ele><time>2026-04-04T11:29:13Z</time></trkpt><trkpt lat="43.99038788681791" lon="10.553099825808697"><ele>127.0</ele><time>2026-04-04T11:29:14Z</time></trkpt><trkpt lat="43.99021525874915" lon="10.553069683267736"><ele>127.0</ele><time>2026-04-04T11:29:15Z</time></trkpt><trkpt lat="43.99004254454468" lon="10.553043687401718"><ele>127.0</ele><time>2026-04-04T11:29:16Z</time></trkpt><trkpt lat="43.989859567530516" lon="10.553018138501923"><ele>127.0</ele><time>2026-04-04T11:29:17Z</time></trkpt><trkpt lat="43.9896772791086" lon="10.55300864510826"><ele>129.33333333333334</ele><time>2026-04-04T11:29:18Z</time></trkpt><trkpt lat="43.989501308746696" lon="10.55300042264653"><ele>131.66666666666666</ele><time>2026-04-04T11:29:19Z</time></trkpt><trkpt lat="43.989319408677325" lon="10.553000804244352"><ele>134.0</ele><time>2026-04-04T11:29:20Z</time></trkpt><trkpt lat="43.98913233351704" lon="10.552989113939761"><ele>140.0</ele><time>2026-04-04T11:29:21Z</time></trkpt><trkpt lat="43.98896119122172" lon="10.552986058863759"><ele>146.0</ele><time>2026-04-04T11:29:22Z</time></trkpt><trkpt lat="43.98879036126647" lon="10.552980883349717"><ele>152.0</ele><time>2026-04-04T11:29:23Z</time></trkpt><trkpt lat="43.988603135724226" lon="10.55297279669365"><ele>152.0</ele><time>2026-04-04T11:29:24Z</time></trkpt><trkpt lat="43.988413369016854" lon="10.552973695970318"><ele>152.0</ele><time>2026-04-04T11:29:25Z</time></trkpt><trkpt lat="43.988216625550656" lon="10.55296745572703"><ele>152.0</ele><time>2026-04-04T11:29:26Z</time></trkpt><trkpt lat="43.988017918914316" lon="10.55297096614126"><ele>151.0</ele><time>2026-04-04T11:29:27Z</time></trkpt><trkpt lat="43.98781988263167" lon="10.552967512194433"><ele>150.0</ele><time>2026-04-04T11:29:28Z</time></trkpt><trkpt lat="43.98763240931404" lon="10.552970882000066"><ele>149.0</ele><time>2026-04-04T11:29:29Z</time></trkpt><trkpt lat="43.9874557769519" lon="10.552979579469351"><ele>149.0</ele><time>2026-04-04T11:29:30Z</time></trkpt><trkpt lat="43.987281090173006" lon="10.552993758170961"><ele>149.0</ele><time>2026-04-04T11:29:31Z</time></trkpt><trkpt lat="43.98709888413978" lon="10.553001885540986"><ele>149.0</ele><time>2026-04-04T11:29:32Z</time></trkpt><trkpt lat="43.986916910767036" lon="10.55296426133362"><ele>149.0</ele><time>2026-04-04T11:29:33Z</time></trkpt><trkpt lat="43.98673766510921" lon="10.552922189782148"><ele>149.0</ele><time>2026-04-04T11:29:34Z</time></trkpt><trkpt lat="43.986565588186465" lon="10.552893110363813"><ele>149.0</ele><time>2026-04-04T11:29:35Z</time></trkpt><trkpt lat="43.98640830721472" lon="10.552838490234857"><ele>139.0</ele><time>2026-04-04T11:29:36Z</time></trkpt><trkpt lat="43.986270765032906" lon="10.552799200080596"><ele>129.0</ele><time>2026-04-04T11:29:37Z</time></trkpt><trkpt lat="43.98613637769405" lon="10.552761784560571"><ele>119.0</ele><time>2026-04-04T11:29:38Z</time></trkpt><trkpt lat="43.9860051449983" lon="10.552724775457808"><ele>109.0</ele><time>2026-04-04T11:29:39Z</time></trkpt><trkpt lat="43.98586925660103" lon="10.552697778793085"><ele>108.0</ele><time>2026-04-04T11:29:40Z</time></trkpt><trkpt lat="43.98573640556299" lon="10.552692286472302"><ele>107.0</ele><time>2026-04-04T11:29:41Z</time></trkpt><trkpt lat="43.98559809663056" lon="10.552706072814756"><ele>106.0</ele><time>2026-04-04T11:29:42Z</time></trkpt><trkpt lat="43.985455252744224" lon="10.55272779826744"><ele>105.0</ele><time>2026-04-04T11:29:43Z</time></trkpt><trkpt lat="43.98530831140786" lon="10.552753232078006"><ele>105.0</ele><time>2026-04-04T11:29:44Z</time></trkpt><trkpt lat="43.985158353145636" lon="10.552773616728611"><ele>105.0</ele><time>2026-04-04T11:29:45Z</time></trkpt><trkpt lat="43.98500053722382" lon="10.55279551741402"><ele>105.0</ele><time>2026-04-04T11:29:46Z</time></trkpt><trkpt lat="43.98484212588479" lon="10.552818278774577"><ele>103.0</ele><time>2026-04-04T11:29:47Z</time></trkpt><trkpt lat="43.984681518066715" lon="10.552840703180769"><ele>101.0</ele><time>2026-04-04T11:29:48Z</time></trkpt><trkpt lat="43.98451457257187" lon="10.552863864098427"><ele>99.0</ele><time>2026-04-04T11:29:49Z</time></trkpt><trkpt lat="43.984340449749546" lon="10.552895727684422"><ele>103.66666666666666</ele><time>2026-04-04T11:29:50Z</time></trkpt><trkpt lat="43.984158141121476" lon="10.552902234573724"><ele>108.33333333333333</ele><time>2026-04-04T11:29:51Z</time></trkpt><trkpt lat="43.98397001146119" lon="10.552944357672537"><ele>113.0</ele><time>2026-04-04T11:29:52Z</time></trkpt><trkpt lat="43.98378289214042" lon="10.552966510837065"><ele>113.0</ele><time>2026-04-04T11:29:53Z</time></trkpt><trkpt lat="43.9835821067953" lon="10.552995611057105"><ele>113.0</ele><time>2026-04-04T11:29:54Z</time></trkpt><trkpt lat="43.983379776876696" lon="10.553024192376283"><ele>113.0</ele><time>2026-04-04T11:29:55Z</time></trkpt><trkpt lat="43.98319151563626" lon="10.553053729176211"><ele>112.0</ele><time>2026-04-04T11:29:56Z</time></trkpt><trkpt lat="43.98302422215998" lon="10.553080293986921"><ele>111.0</ele><time>2026-04-04T11:29:57Z</time></trkpt><trkpt lat="43.982868008613885" lon="10.553101525188259"><ele>110.0</ele><time>2026-04-04T11:29:58Z</time></trkpt><trkpt lat="43.9827193124636" lon="10.553115770371123"><ele>110.0</ele><time>2026-04-04T11:29:59Z</time></trkpt><trkpt lat="43.982566343501134" lon="10.553132257945892"><ele>110.0</ele><time>2026-04-04T11:30:00Z</time></trkpt><trkpt lat="43.98240815935408" lon="10.553150749548795"><ele>110.0</ele><time>2026-04-04T11:30:01Z</time></trkpt><trkpt lat="43.98224338431521" lon="10.5531645263038"><ele>111.0</ele><time>2026-04-04T11:30:02Z</time></trkpt><trkpt lat="43.98207200023355" lon="10.553170796838709"><ele>112.0</ele><time>2026-04-04T11:30:03Z</time></trkpt><trkpt lat="43.981896526584976" lon="10.553156034525824"><ele>113.0</ele><time>2026-04-04T11:30:04Z</time></trkpt><trkpt lat="43.981724593264666" lon="10.553125589803187"><ele>113.0</ele><time>2026-04-04T11:30:05Z</time></trkpt><trkpt lat="43.9815683671297" lon="10.553096075158345"><ele>113.0</ele><time>2026-04-04T11:30:06Z</time></trkpt><trkpt lat="43.9814078835433" lon="10.553067627868469"><ele>113.0</ele><time>2026-04-04T11:30:07Z</time></trkpt><trkpt lat="43.981254527181775" lon="10.553018268924264"><ele>109.0</ele><time>2026-04-04T11:30:08Z</time></trkpt><trkpt lat="43.98111300790482" lon="10.552871968375689"><ele>105.0</ele><time>2026-04-04T11:30:09Z</time></trkpt><trkpt lat="43.98095042459734" lon="10.552749911147078"><ele>101.0</ele><time>2026-04-04T11:30:10Z</time></trkpt><trkpt lat="43.980802133426614" lon="10.55259852600257"><ele>101.0</ele><time>2026-04-04T11:30:11Z</time></trkpt><trkpt lat="43.980662608198934" lon="10.552472887284381"><ele>101.0</ele><time>2026-04-04T11:30:12Z</time></trkpt><trkpt lat="43.980521312887205" lon="10.552345095319753"><ele>101.0</ele><time>2026-04-04T11:30:13Z</time></trkpt><trkpt lat="43.9803845100088" lon="10.552219421459453"><ele>101.0</ele><time>2026-04-04T11:30:14Z</time></trkpt><trkpt lat="43.980253774705474" lon="10.552103304613583"><ele>101.0</ele><time>2026-04-04T11:30:15Z</time></trkpt><trkpt lat="43.98013740750704" lon="10.551996040836665"><ele>101.0</ele><time>2026-04-04T11:30:16Z</time></trkpt><trkpt lat="43.980020409164744" lon="10.551930973329108"><ele>101.0</ele><time>2026-04-04T11:30:17Z</time></trkpt><trkpt lat="43.97992257850763" lon="10.551884435394532"><ele>98.4</ele><time>2026-04-04T11:30:18Z</time></trkpt><trkpt lat="43.97983202175964" lon="10.55184417072911"><ele>95.8</ele><time>2026-04-04T11:30:19Z</time></trkpt><trkpt lat="43.97976116563106" lon="10.551818658409028"><ele>93.2</ele><time>2026-04-04T11:30:20Z</time></trkpt><trkpt lat="43.979706686654836" lon="10.551695828000698"><ele>90.60000000000001</ele><time>2026-04-04T11:30:22Z</time></trkpt><trkpt lat="43.97977293631092" lon="10.551613532313027"><ele>88.0</ele><time>2026-04-04T11:30:23Z</time></trkpt><trkpt lat="43.979812369846265" lon="10.55146884226855"><ele>88.0</ele><time>2026-04-04T11:30:24Z</time></trkpt><trkpt lat="43.97989746406979" lon="10.55130487644428"><ele>88.0</ele><time>2026-04-04T11:30:25Z</time></trkpt><trkpt lat="43.979977906463446" lon="10.551108806884855"><ele>88.0</ele><time>2026-04-04T11:30:26Z</time></trkpt><trkpt lat="43.98003964307251" lon="10.550940041396627"><ele>88.0</ele><time>2026-04-04T11:30:27Z</time></trkpt><trkpt lat="43.980097324467124" lon="10.550801499581235"><ele>88.5</ele><time>2026-04-04T11:30:28Z</time></trkpt><trkpt lat="43.98013869483129" lon="10.550699439098869"><ele>89.0</ele><time>2026-04-04T11:30:29Z</time></trkpt><trkpt lat="43.9801723016719" lon="10.550620509915797"><ele>89.5</ele><time>2026-04-04T11:30:30Z</time></trkpt><trkpt lat="43.98026337164151" lon="10.550510222191868"><ele>90.0</ele><time>2026-04-04T11:30:32Z</time></trkpt><trkpt lat="43.980333533370015" lon="10.550474246578409"><ele>90.5</ele><time>2026-04-04T11:30:33Z</time></trkpt><trkpt lat="43.98039700841202" lon="10.550409730970754"><ele>91.0</ele><time>2026-04-04T11:30:34Z</time></trkpt><trkpt lat="43.98040616047501" lon="10.550313962779098"><ele>91.6</ele><time>2026-04-04T11:30:35Z</time></trkpt><trkpt lat="43.98037602555736" lon="10.550221320457792"><ele>92.19999999999999</ele><time>2026-04-04T11:30:36Z</time></trkpt><trkpt lat="43.98030352447894" lon="10.550153991287996"><ele>92.80000000000001</ele><time>2026-04-04T11:30:37Z</time></trkpt><trkpt lat="43.98020075790312" lon="10.550147248355842"><ele>93.4</ele><time>2026-04-04T11:30:38Z</time></trkpt><trkpt lat="43.98009331451576" lon="10.550115893917098"><ele>94.0</ele><time>2026-04-04T11:30:39Z</time></trkpt><trkpt lat="43.979998142445524" lon="10.5500422668233"><ele>94.0</ele><time>2026-04-04T11:30:40Z</time></trkpt><trkpt lat="43.97993164573403" lon="10.54996570789043"><ele>94.0</ele><time>2026-04-04T11:30:41Z</time></trkpt><trkpt lat="43.97986824794637" lon="10.549895052734975"><ele>94.0</ele><time>2026-04-04T11:30:42Z</time></trkpt><trkpt lat="43.97978951192828" lon="10.549808593462286"><ele>94.0</ele><time>2026-04-04T11:30:43Z</time></trkpt><trkpt lat="43.97969672172002" lon="10.549710514181998"><ele>94.0</ele><time>2026-04-04T11:30:44Z</time></trkpt><trkpt lat="43.979598660069335" lon="10.549604614094198"><ele>94.5</ele><time>2026-04-04T11:30:45Z</time></trkpt><trkpt lat="43.979499144676495" lon="10.549498897458916"><ele>95.0</ele><time>2026-04-04T11:30:46Z</time></trkpt><trkpt lat="43.97940200700013" lon="10.549392053533815"><ele>95.5</ele><time>2026-04-04T11:30:47Z</time></trkpt><trkpt lat="43.979303882667246" lon="10.549285677700329"><ele>96.0</ele><time>2026-04-04T11:30:48Z</time></trkpt><trkpt lat="43.97920058715483" lon="10.549176308500634"><ele>95.5</ele><time>2026-04-04T11:30:49Z</time></trkpt><trkpt lat="43.97909805733396" lon="10.549071628672426"><ele>95.0</ele><time>2026-04-04T11:30:50Z</time></trkpt><trkpt lat="43.97899369137321" lon="10.54896076613231"><ele>94.5</ele><time>2026-04-04T11:30:51Z</time></trkpt><trkpt lat="43.978884571701734" lon="10.548841805102596"><ele>94.0</ele><time>2026-04-04T11:30:52Z</time></trkpt><trkpt lat="43.97876669790132" lon="10.548710625513403"><ele>94.0</ele><time>2026-04-04T11:30:53Z</time></trkpt><trkpt lat="43.97863876746917" lon="10.548573148324905"><ele>94.0</ele><time>2026-04-04T11:30:54Z</time></trkpt><trkpt lat="43.978511513458294" lon="10.54843142447434"><ele>94.0</ele><time>2026-04-04T11:30:55Z</time></trkpt><trkpt lat="43.97837860164205" lon="10.548289612751331"><ele>93.0</ele><time>2026-04-04T11:30:56Z</time></trkpt><trkpt lat="43.97825673958527" lon="10.548149662402617"><ele>92.0</ele><time>2026-04-04T11:30:57Z</time></trkpt><trkpt lat="43.978144914654685" lon="10.548007964799991"><ele>91.0</ele><time>2026-04-04T11:30:58Z</time></trkpt><trkpt lat="43.97804720661985" lon="10.547865573486876"><ele>91.0</ele><time>2026-04-04T11:30:59Z</time></trkpt><trkpt lat="43.977901821246235" lon="10.54769695779805"><ele>91.0</ele><time>2026-04-04T11:31:00Z</time></trkpt><trkpt lat="43.97779886134238" lon="10.54752520126016"><ele>91.0</ele><time>2026-04-04T11:31:01Z</time></trkpt><trkpt lat="43.977699477630864" lon="10.547352441043396"><ele>91.0</ele><time>2026-04-04T11:31:02Z</time></trkpt><trkpt lat="43.977602838955086" lon="10.547177856017328"><ele>91.0</ele><time>2026-04-04T11:31:03Z</time></trkpt><trkpt lat="43.97750764144348" lon="10.546996347089005"><ele>91.0</ele><time>2026-04-04T11:31:04Z</time></trkpt><trkpt lat="43.977418815945" lon="10.546806874054694"><ele>90.0</ele><time>2026-04-04T11:31:05Z</time></trkpt><trkpt lat="43.97733625772263" lon="10.546611677123993"><ele>89.0</ele><time>2026-04-04T11:31:06Z</time></trkpt><trkpt lat="43.97726627019652" lon="10.54641516386379"><ele>88.0</ele><time>2026-04-04T11:31:07Z</time></trkpt><trkpt lat="43.97720085572364" lon="10.54620741479676"><ele>87.75</ele><time>2026-04-04T11:31:08Z</time></trkpt><trkpt lat="43.97714776546348" lon="10.5460199297739"><ele>87.5</ele><time>2026-04-04T11:31:09Z</time></trkpt><trkpt lat="43.977099196876594" lon="10.545830589679662"><ele>87.25</ele><time>2026-04-04T11:31:10Z</time></trkpt><trkpt lat="43.977056190331346" lon="10.545646756662398"><ele>87.0</ele><time>2026-04-04T11:31:11Z</time></trkpt><trkpt lat="43.97701758194854" lon="10.545454000812445"><ele>87.0</ele><time>2026-04-04T11:31:12Z</time></trkpt><trkpt lat="43.976985421819194" lon="10.545269701133458"><ele>87.0</ele><time>2026-04-04T11:31:13Z</time></trkpt><trkpt lat="43.976956893550884" lon="10.545094880388692"><ele>87.0</ele><time>2026-04-04T11:31:14Z</time></trkpt><trkpt lat="43.97693277787725" lon="10.5449156531014"><ele>87.0</ele><time>2026-04-04T11:31:15Z</time></trkpt><trkpt lat="43.976910202112336" lon="10.54472865151544"><ele>87.0</ele><time>2026-04-04T11:31:16Z</time></trkpt><trkpt lat="43.97688235444577" lon="10.544535796330742"><ele>87.0</ele><time>2026-04-04T11:31:17Z</time></trkpt><trkpt lat="43.97685156060458" lon="10.544336936203692"><ele>87.0</ele><time>2026-04-04T11:31:18Z</time></trkpt><trkpt lat="43.9768212142791" lon="10.544132440897235"><ele>87.0</ele><time>2026-04-04T11:31:19Z</time></trkpt><trkpt lat="43.976790642324474" lon="10.543921691356372"><ele>87.0</ele><time>2026-04-04T11:31:20Z</time></trkpt><trkpt lat="43.976761847114" lon="10.543721796989514"><ele>87.0</ele><time>2026-04-04T11:31:21Z</time></trkpt><trkpt lat="43.976732315421714" lon="10.54351823172908"><ele>87.0</ele><time>2026-04-04T11:31:22Z</time></trkpt><trkpt lat="43.97670234786164" lon="10.543313179488898"><ele>87.0</ele><time>2026-04-04T11:31:23Z</time></trkpt><trkpt lat="43.97667413123791" lon="10.543111437897597"><ele>87.0</ele><time>2026-04-04T11:31:24Z</time></trkpt><trkpt lat="43.976648006734834" lon="10.542917635794279"><ele>87.0</ele><time>2026-04-04T11:31:25Z</time></trkpt><trkpt lat="43.97662156049056" lon="10.54273029276873"><ele>87.0</ele><time>2026-04-04T11:31:26Z</time></trkpt><trkpt lat="43.97659458173854" lon="10.542541650899693"><ele>87.0</ele><time>2026-04-04T11:31:27Z</time></trkpt><trkpt lat="43.976566710174716" lon="10.542345097314907"><ele>87.0</ele><time>2026-04-04T11:31:28Z</time></trkpt><trkpt lat="43.97653740458132" lon="10.542143177228109"><ele>87.0</ele><time>2026-04-04T11:31:29Z</time></trkpt><trkpt lat="43.976509134333746" lon="10.541941766055587"><ele>87.0</ele><time>2026-04-04T11:31:30Z</time></trkpt><trkpt lat="43.976480663530864" lon="10.541738664267708"><ele>87.0</ele><time>2026-04-04T11:31:31Z</time></trkpt><trkpt lat="43.976451492863006" lon="10.541525796979558"><ele>86.75</ele><time>2026-04-04T11:31:32Z</time></trkpt><trkpt lat="43.976419650242086" lon="10.541323813926933"><ele>86.5</ele><time>2026-04-04T11:31:33Z</time></trkpt><trkpt lat="43.9763909954288" lon="10.541121952814745"><ele>86.25</ele><time>2026-04-04T11:31:34Z</time></trkpt><trkpt lat="43.976362248699054" lon="10.540914636965798"><ele>86.0</ele><time>2026-04-04T11:31:35Z</time></trkpt><trkpt lat="43.9763352533799" lon="10.540713653518916"><ele>86.66666666666667</ele><time>2026-04-04T11:31:36Z</time></trkpt><trkpt lat="43.97630931591039" lon="10.540502934335318"><ele>87.33333333333333</ele><time>2026-04-04T11:31:37Z</time></trkpt><trkpt lat="43.97628802155659" lon="10.540300670680566"><ele>88.0</ele><time>2026-04-04T11:31:38Z</time></trkpt><trkpt lat="43.97626986217969" lon="10.54009416915026"><ele>88.5</ele><time>2026-04-04T11:31:39Z</time></trkpt><trkpt lat="43.976262892312356" lon="10.539892521885596"><ele>89.0</ele><time>2026-04-04T11:31:40Z</time></trkpt><trkpt lat="43.97625905161723" lon="10.53968075561993"><ele>89.5</ele><time>2026-04-04T11:31:41Z</time></trkpt><trkpt lat="43.9762596296205" lon="10.539475284308018"><ele>90.0</ele><time>2026-04-04T11:31:42Z</time></trkpt><trkpt lat="43.97625875553696" lon="10.539266324754506"><ele>90.0</ele><time>2026-04-04T11:31:43Z</time></trkpt><trkpt lat="43.97625914699163" lon="10.539052937762609"><ele>90.0</ele><time>2026-04-04T11:31:44Z</time></trkpt><trkpt lat="43.976261970169446" lon="10.53883286808521"><ele>90.0</ele><time>2026-04-04T11:31:45Z</time></trkpt><trkpt lat="43.97626173428052" lon="10.538603749653642"><ele>90.0</ele><time>2026-04-04T11:31:46Z</time></trkpt><trkpt lat="43.97625579768802" lon="10.538375080306555"><ele>90.0</ele><time>2026-04-04T11:31:47Z</time></trkpt><trkpt lat="43.97624469567975" lon="10.538133434962665"><ele>90.0</ele><time>2026-04-04T11:31:48Z</time></trkpt><trkpt lat="43.976227561958595" lon="10.537894126477331"><ele>90.0</ele><time>2026-04-04T11:31:49Z</time></trkpt><trkpt lat="43.97620410986887" lon="10.537665810582045"><ele>90.0</ele><time>2026-04-04T11:31:50Z</time></trkpt><trkpt lat="43.97616776000073" lon="10.53742781035388"><ele>90.0</ele><time>2026-04-04T11:31:51Z</time></trkpt><trkpt lat="43.97610095191438" lon="10.537142725289534"><ele>90.66666666666667</ele><time>2026-04-04T11:31:52Z</time></trkpt><trkpt lat="43.9760229776923" lon="10.536883167691856"><ele>91.33333333333334</ele><time>2026-04-04T11:31:53Z</time></trkpt><trkpt lat="43.975941483697724" lon="10.53667665818241"><ele>92.0</ele><time>2026-04-04T11:31:54Z</time></trkpt><trkpt lat="43.9758435169546" lon="10.536478606218816"><ele>89.66666666666667</ele><time>2026-04-04T11:31:55Z</time></trkpt><trkpt lat="43.97573349311197" lon="10.536287622857511"><ele>87.33333333333333</ele><time>2026-04-04T11:31:56Z</time></trkpt><trkpt lat="43.97561981107822" lon="10.536119400554854"><ele>85.0</ele><time>2026-04-04T11:31:57Z</time></trkpt><trkpt lat="43.975498681201685" lon="10.53597216827925"><ele>85.0</ele><time>2026-04-04T11:31:58Z</time></trkpt><trkpt lat="43.975380255888126" lon="10.535827300330864"><ele>85.0</ele><time>2026-04-04T11:31:59Z</time></trkpt><trkpt lat="43.975256886260546" lon="10.535680869303636"><ele>85.0</ele><time>2026-04-04T11:32:00Z</time></trkpt><trkpt lat="43.975127469358824" lon="10.53553067373082"><ele>86.66666666666666</ele><time>2026-04-04T11:32:01Z</time></trkpt><trkpt lat="43.97499550413018" lon="10.535380850312775"><ele>88.33333333333333</ele><time>2026-04-04T11:32:02Z</time></trkpt><trkpt lat="43.97486721958794" lon="10.535231555724895"><ele>90.0</ele><time>2026-04-04T11:32:03Z</time></trkpt><trkpt lat="43.97474126516437" lon="10.535082137642537"><ele>90.0</ele><time>2026-04-04T11:32:04Z</time></trkpt><trkpt lat="43.97461478219278" lon="10.534926410126186"><ele>90.0</ele><time>2026-04-04T11:32:05Z</time></trkpt><trkpt lat="43.97449246624921" lon="10.534761728670583"><ele>90.0</ele><time>2026-04-04T11:32:06Z</time></trkpt><trkpt lat="43.97438134770153" lon="10.534585353220798"><ele>90.0</ele><time>2026-04-04T11:32:07Z</time></trkpt><trkpt lat="43.97427853500058" lon="10.534405146145577"><ele>90.0</ele><time>2026-04-04T11:32:08Z</time></trkpt><trkpt lat="43.97418139909166" lon="10.53421343113501"><ele>90.0</ele><time>2026-04-04T11:32:09Z</time></trkpt><trkpt lat="43.97409222462763" lon="10.534009702469149"><ele>90.0</ele><time>2026-04-04T11:32:10Z</time></trkpt><trkpt lat="43.9740076107078" lon="10.533793132771999"><ele>90.0</ele><time>2026-04-04T11:32:11Z</time></trkpt><trkpt lat="43.97393119998296" lon="10.533565724287486"><ele>90.0</ele><time>2026-04-04T11:32:12Z</time></trkpt><trkpt lat="43.973871832689944" lon="10.533347292246455"><ele>94.33333333333334</ele><time>2026-04-04T11:32:13Z</time></trkpt><trkpt lat="43.97382608415357" lon="10.533138431011626"><ele>98.66666666666667</ele><time>2026-04-04T11:32:14Z</time></trkpt><trkpt lat="43.97378732459916" lon="10.532924242193667"><ele>103.0</ele><time>2026-04-04T11:32:15Z</time></trkpt><trkpt lat="43.97375898770493" lon="10.532695053684415"><ele>107.66666666666667</ele><time>2026-04-04T11:32:16Z</time></trkpt><trkpt lat="43.97372494489426" lon="10.532467593161531"><ele>112.33333333333334</ele><time>2026-04-04T11:32:17Z</time></trkpt><trkpt lat="43.97368914537451" lon="10.532213670131272"><ele>117.0</ele><time>2026-04-04T11:32:18Z</time></trkpt><trkpt lat="43.973653152062646" lon="10.531955327209149"><ele>120.0</ele><time>2026-04-04T11:32:19Z</time></trkpt><trkpt lat="43.973619852333975" lon="10.531675973886175"><ele>123.0</ele><time>2026-04-04T11:32:20Z</time></trkpt><trkpt lat="43.97359307405255" lon="10.531394100941453"><ele>126.0</ele><time>2026-04-04T11:32:21Z</time></trkpt><trkpt lat="43.97356485955626" lon="10.53109632585071"><ele>130.5</ele><time>2026-04-04T11:32:22Z</time></trkpt><trkpt lat="43.97354248718798" lon="10.530787670622518"><ele>135.0</ele><time>2026-04-04T11:32:23Z</time></trkpt><trkpt lat="43.973515896749745" lon="10.53046163782051"><ele>137.0</ele><time>2026-04-04T11:32:24Z</time></trkpt><trkpt lat="43.973467627262764" lon="10.530057678945544"><ele>139.0</ele><time>2026-04-04T11:32:25Z</time></trkpt><trkpt lat="43.9734161806901" lon="10.52957973080043"><ele>132.5</ele><time>2026-04-04T11:32:26Z</time></trkpt><trkpt lat="43.97337212563778" lon="10.52907701779705"><ele>126.0</ele><time>2026-04-04T11:32:27Z</time></trkpt><trkpt lat="43.97334042295085" lon="10.528610887394658"><ele>112.0</ele><time>2026-04-04T11:32:28Z</time></trkpt><trkpt lat="43.97330857879481" lon="10.528211887376537"><ele>98.0</ele><time>2026-04-04T11:32:29Z</time></trkpt><trkpt lat="43.973274735277045" lon="10.527845597749797"><ele>98.0</ele><time>2026-04-04T11:32:30Z</time></trkpt><trkpt lat="43.97324019217456" lon="10.527498557302632"><ele>98.0</ele><time>2026-04-04T11:32:31Z</time></trkpt><trkpt lat="43.97320929055408" lon="10.527174173958937"><ele>101.33333333333333</ele><time>2026-04-04T11:32:32Z</time></trkpt><trkpt lat="43.973179898711116" lon="10.526867805193925"><ele>104.66666666666666</ele><time>2026-04-04T11:32:33Z</time></trkpt><trkpt lat="43.973153944126956" lon="10.526566150183458"><ele>108.0</ele><time>2026-04-04T11:32:34Z</time></trkpt><trkpt lat="43.973128353628766" lon="10.526256331995853"><ele>112.5</ele><time>2026-04-04T11:32:35Z</time></trkpt><trkpt lat="43.973101771005844" lon="10.525938733089832"><ele>117.0</ele><time>2026-04-04T11:32:36Z</time></trkpt><trkpt lat="43.973075760214584" lon="10.525626397602997"><ele>121.5</ele><time>2026-04-04T11:32:37Z</time></trkpt><trkpt lat="43.97304420398862" lon="10.5253183961597"><ele>126.0</ele><time>2026-04-04T11:32:38Z</time></trkpt><trkpt lat="43.97298819387607" lon="10.525007260023166"><ele>126.0</ele><time>2026-04-04T11:32:39Z</time></trkpt><trkpt lat="43.97290920597606" lon="10.524706102336125"><ele>126.0</ele><time>2026-04-04T11:32:40Z</time></trkpt><trkpt lat="43.972813608384655" lon="10.52440539130909"><ele>122.0</ele><time>2026-04-04T11:32:41Z</time></trkpt><trkpt lat="43.97271682556933" lon="10.524110908397141"><ele>118.0</ele><time>2026-04-04T11:32:42Z</time></trkpt><trkpt lat="43.97261951824406" lon="10.52379946816232"><ele>105.5</ele><time>2026-04-04T11:32:43Z</time></trkpt><trkpt lat="43.97251839159353" lon="10.523483260945998"><ele>93.0</ele><time>2026-04-04T11:32:44Z</time></trkpt><trkpt lat="43.97240047658563" lon="10.523168703033871"><ele>108.0</ele><time>2026-04-04T11:32:45Z</time></trkpt><trkpt lat="43.972237369618725" lon="10.522864412108003"><ele>123.0</ele><time>2026-04-04T11:32:46Z</time></trkpt><trkpt lat="43.97203310206336" lon="10.52255796990687"><ele>123.0</ele><time>2026-04-04T11:32:47Z</time></trkpt><trkpt lat="43.97184462047956" lon="10.522285394212869"><ele>123.0</ele><time>2026-04-04T11:32:48Z</time></trkpt><trkpt lat="43.97167499621753" lon="10.522024325511351"><ele>113.0</ele><time>2026-04-04T11:32:49Z</time></trkpt><trkpt lat="43.971503454599535" lon="10.521758821621109"><ele>103.0</ele><time>2026-04-04T11:32:50Z</time></trkpt><trkpt lat="43.97133413716403" lon="10.521498105840049"><ele>103.0</ele><time>2026-04-04T11:32:51Z</time></trkpt><trkpt lat="43.97116526385857" lon="10.52123529241069"><ele>103.0</ele><time>2026-04-04T11:32:52Z</time></trkpt><trkpt lat="43.970996289968255" lon="10.520981523356767"><ele>97.5</ele><time>2026-04-04T11:32:53Z</time></trkpt><trkpt lat="43.97082383466307" lon="10.520735319758007"><ele>92.0</ele><time>2026-04-04T11:32:54Z</time></trkpt><trkpt lat="43.97065055635744" lon="10.520509590460343"><ele>111.5</ele><time>2026-04-04T11:32:55Z</time></trkpt><trkpt lat="43.97047219059646" lon="10.520294115154504"><ele>131.0</ele><time>2026-04-04T11:32:56Z</time></trkpt><trkpt lat="43.97027761183286" lon="10.520113625169213"><ele>131.0</ele><time>2026-04-04T11:32:57Z</time></trkpt><trkpt lat="43.97006549589708" lon="10.519955386154376"><ele>131.0</ele><time>2026-04-04T11:32:58Z</time></trkpt><trkpt lat="43.969835109020465" lon="10.51981384615313"><ele>133.0</ele><time>2026-04-04T11:32:59Z</time></trkpt><trkpt lat="43.969607759491375" lon="10.519669989353307"><ele>135.0</ele><time>2026-04-04T11:33:00Z</time></trkpt><trkpt lat="43.96938124942218" lon="10.519527462599044"><ele>115.0</ele><time>2026-04-04T11:33:01Z</time></trkpt><trkpt lat="43.969153364059736" lon="10.519378710043243"><ele>95.0</ele><time>2026-04-04T11:33:02Z</time></trkpt><trkpt lat="43.968927719428684" lon="10.519229368367695"><ele>95.0</ele><time>2026-04-04T11:33:03Z</time></trkpt><trkpt lat="43.968716250794586" lon="10.51908764526487"><ele>95.0</ele><time>2026-04-04T11:33:04Z</time></trkpt><trkpt lat="43.96852671461333" lon="10.518962289512693"><ele>95.0</ele><time>2026-04-04T11:33:05Z</time></trkpt><trkpt lat="43.968337805162164" lon="10.518829081246372"><ele>94.66666666666667</ele><time>2026-04-04T11:33:06Z</time></trkpt><trkpt lat="43.968160175312335" lon="10.518653299298187"><ele>94.33333333333333</ele><time>2026-04-04T11:33:07Z</time></trkpt><trkpt lat="43.96798694535826" lon="10.518452224707758"><ele>94.0</ele><time>2026-04-04T11:33:08Z</time></trkpt><trkpt lat="43.96782983230542" lon="10.518232792101635"><ele>94.0</ele><time>2026-04-04T11:33:09Z</time></trkpt><trkpt lat="43.967673217138966" lon="10.517986577264335"><ele>94.0</ele><time>2026-04-04T11:33:10Z</time></trkpt><trkpt lat="43.967526032726596" lon="10.51772390349828"><ele>89.0</ele><time>2026-04-04T11:33:11Z</time></trkpt><trkpt lat="43.96738203775273" lon="10.517461383439805"><ele>84.0</ele><time>2026-04-04T11:33:12Z</time></trkpt><trkpt lat="43.967233736492865" lon="10.517188170242378"><ele>89.0</ele><time>2026-04-04T11:33:13Z</time></trkpt><trkpt lat="43.96708214339074" lon="10.51690847228162"><ele>94.0</ele><time>2026-04-04T11:33:14Z</time></trkpt><trkpt lat="43.96692973835663" lon="10.516635757188103"><ele>94.0</ele><time>2026-04-04T11:33:15Z</time></trkpt><trkpt lat="43.96677935109959" lon="10.51633782259959"><ele>94.0</ele><time>2026-04-04T11:33:16Z</time></trkpt><trkpt lat="43.96663030519117" lon="10.516036862497232"><ele>85.5</ele><time>2026-04-04T11:33:17Z</time></trkpt><trkpt lat="43.96647971251735" lon="10.515731624023333"><ele>77.0</ele><time>2026-04-04T11:33:18Z</time></trkpt><trkpt lat="43.9663293755889" lon="10.51540476531449"><ele>81.66666666666667</ele><time>2026-04-04T11:33:19Z</time></trkpt><trkpt lat="43.96620652519423" lon="10.51513285813595"><ele>86.33333333333333</ele><time>2026-04-04T11:33:20Z</time></trkpt><trkpt lat="43.96609268134193" lon="10.514876650505123"><ele>91.0</ele><time>2026-04-04T11:33:21Z</time></trkpt><trkpt lat="43.96598570543611" lon="10.514660353225581"><ele>94.0</ele><time>2026-04-04T11:33:22Z</time></trkpt><trkpt lat="43.96587046253051" lon="10.51445338867431"><ele>97.0</ele><time>2026-04-04T11:33:23Z</time></trkpt><trkpt lat="43.96574989079364" lon="10.514241939797971"><ele>100.0</ele><time>2026-04-04T11:33:24Z</time></trkpt><trkpt lat="43.9656175322688" lon="10.51403630086345"><ele>92.33333333333334</ele><time>2026-04-04T11:33:25Z</time></trkpt><trkpt lat="43.96548477962518" lon="10.513829864554062"><ele>84.66666666666667</ele><time>2026-04-04T11:33:26Z</time></trkpt><trkpt lat="43.96534737713127" lon="10.513625348444497"><ele>77.0</ele><time>2026-04-04T11:33:27Z</time></trkpt><trkpt lat="43.9652000939195" lon="10.51342321754737"><ele>77.0</ele><time>2026-04-04T11:33:28Z</time></trkpt><trkpt lat="43.96504265024268" lon="10.513221655044019"><ele>77.0</ele><time>2026-04-04T11:33:29Z</time></trkpt><trkpt lat="43.96488195465295" lon="10.513020657878325"><ele>77.0</ele><time>2026-04-04T11:33:30Z</time></trkpt><trkpt lat="43.9647159150889" lon="10.512809371547604"><ele>75.66666666666667</ele><time>2026-04-04T11:33:31Z</time></trkpt><trkpt lat="43.96455876611571" lon="10.512608399438868"><ele>74.33333333333333</ele><time>2026-04-04T11:33:32Z</time></trkpt><trkpt lat="43.96440918892731" lon="10.512415758530532"><ele>73.0</ele><time>2026-04-04T11:33:33Z</time></trkpt><trkpt lat="43.964261558075414" lon="10.512223187704171"><ele>73.33333333333333</ele><time>2026-04-04T11:33:34Z</time></trkpt><trkpt lat="43.96411796596415" lon="10.51203295381442"><ele>73.66666666666667</ele><time>2026-04-04T11:33:35Z</time></trkpt><trkpt lat="43.9639726497287" lon="10.511842374804841"><ele>74.0</ele><time>2026-04-04T11:33:36Z</time></trkpt><trkpt lat="43.96382746820834" lon="10.511652140082031"><ele>74.0</ele><time>2026-04-04T11:33:37Z</time></trkpt><trkpt lat="43.96367662594893" lon="10.511454207570635"><ele>74.0</ele><time>2026-04-04T11:33:38Z</time></trkpt><trkpt lat="43.963524158754524" lon="10.511257330718971"><ele>74.0</ele><time>2026-04-04T11:33:39Z</time></trkpt><trkpt lat="43.963371876887265" lon="10.51106520419611"><ele>73.0</ele><time>2026-04-04T11:33:40Z</time></trkpt><trkpt lat="43.96322349869769" lon="10.510876277807236"><ele>72.0</ele><time>2026-04-04T11:33:41Z</time></trkpt><trkpt lat="43.96307843736659" lon="10.510685350247053"><ele>71.0</ele><time>2026-04-04T11:33:42Z</time></trkpt><trkpt lat="43.96293044219264" lon="10.51048943312007"><ele>71.0</ele><time>2026-04-04T11:33:43Z</time></trkpt><trkpt lat="43.96277929155379" lon="10.510285775138682"><ele>71.0</ele><time>2026-04-04T11:33:44Z</time></trkpt><trkpt lat="43.962624166222305" lon="10.510085210369036"><ele>71.0</ele><time>2026-04-04T11:33:45Z</time></trkpt><trkpt lat="43.96246396323387" lon="10.509878194678834"><ele>71.0</ele><time>2026-04-04T11:33:46Z</time></trkpt><trkpt lat="43.96230022152445" lon="10.50966646369323"><ele>71.0</ele><time>2026-04-04T11:33:47Z</time></trkpt><trkpt lat="43.962141739659096" lon="10.50945688045225"><ele>71.0</ele><time>2026-04-04T11:33:48Z</time></trkpt><trkpt lat="43.961974864388274" lon="10.5092489629571"><ele>71.5</ele><time>2026-04-04T11:33:49Z</time></trkpt><trkpt lat="43.96180844705378" lon="10.509032623926023"><ele>72.0</ele><time>2026-04-04T11:33:50Z</time></trkpt><trkpt lat="43.96164392249153" lon="10.508815797008795"><ele>72.0</ele><time>2026-04-04T11:33:51Z</time></trkpt><trkpt lat="43.96147436273789" lon="10.508595127229913"><ele>72.0</ele><time>2026-04-04T11:33:52Z</time></trkpt><trkpt lat="43.961301037063755" lon="10.508371836301926"><ele>72.0</ele><time>2026-04-04T11:33:53Z</time></trkpt><trkpt lat="43.961127783689015" lon="10.508146464460895"><ele>72.0</ele><time>2026-04-04T11:33:54Z</time></trkpt><trkpt lat="43.960955582299874" lon="10.50791898375383"><ele>72.0</ele><time>2026-04-04T11:33:55Z</time></trkpt><trkpt lat="43.96078149920789" lon="10.507688937741475"><ele>72.0</ele><time>2026-04-04T11:33:56Z</time></trkpt><trkpt lat="43.96061083023277" lon="10.507459958532328"><ele>72.0</ele><time>2026-04-04T11:33:57Z</time></trkpt><trkpt lat="43.96043779057841" lon="10.507233963781474"><ele>72.0</ele><time>2026-04-04T11:33:58Z</time></trkpt><trkpt lat="43.96026527961933" lon="10.507009891757619"><ele>73.0</ele><time>2026-04-04T11:33:59Z</time></trkpt><trkpt lat="43.960094322042664" lon="10.506785672840733"><ele>74.0</ele><time>2026-04-04T11:34:00Z</time></trkpt><trkpt lat="43.959926459607374" lon="10.506563928636474"><ele>74.0</ele><time>2026-04-04T11:34:01Z</time></trkpt><trkpt lat="43.95976309135081" lon="10.506345027077282"><ele>74.0</ele><time>2026-04-04T11:34:02Z</time></trkpt><trkpt lat="43.95959332477681" lon="10.506121090573108"><ele>74.0</ele><time>2026-04-04T11:34:03Z</time></trkpt><trkpt lat="43.95942238106217" lon="10.505897065087535"><ele>74.0</ele><time>2026-04-04T11:34:04Z</time></trkpt><trkpt lat="43.95925237759533" lon="10.505672522082497"><ele>73.33333333333334</ele><time>2026-04-04T11:34:05Z</time></trkpt><trkpt lat="43.95909663554971" lon="10.505469233344849"><ele>72.66666666666667</ele><time>2026-04-04T11:34:06Z</time></trkpt><trkpt lat="43.958960170351375" lon="10.505290913614811"><ele>72.0</ele><time>2026-04-04T11:34:07Z</time></trkpt><trkpt lat="43.958836189241836" lon="10.505138219853176"><ele>71.75</ele><time>2026-04-04T11:34:08Z</time></trkpt><trkpt lat="43.958730297167534" lon="10.504998219310579"><ele>71.5</ele><time>2026-04-04T11:34:09Z</time></trkpt><trkpt lat="43.958658175987786" lon="10.504888316843108"><ele>71.25</ele><time>2026-04-04T11:34:10Z</time></trkpt><trkpt lat="43.95860386413091" lon="10.504753139523187"><ele>71.0</ele><time>2026-04-04T11:34:12Z</time></trkpt><trkpt lat="43.95855173980308" lon="10.504600744073722"><ele>71.0</ele><time>2026-04-04T11:34:14Z</time></trkpt><trkpt lat="43.958509107842474" lon="10.504527500888143"><ele>71.0</ele><time>2026-04-04T11:34:15Z</time></trkpt><trkpt lat="43.95845624675507" lon="10.504476171389006"><ele>71.0</ele><time>2026-04-04T11:34:16Z</time></trkpt><trkpt lat="43.95837990352031" lon="10.504448744276598"><ele>71.0</ele><time>2026-04-04T11:34:17Z</time></trkpt><trkpt lat="43.95827174221452" lon="10.504438812968502"><ele>71.0</ele><time>2026-04-04T11:34:18Z</time></trkpt><trkpt lat="43.95812196269406" lon="10.50441202001294"><ele>70.66666666666667</ele><time>2026-04-04T11:34:19Z</time></trkpt><trkpt lat="43.95795265893441" lon="10.504317808088242"><ele>70.33333333333333</ele><time>2026-04-04T11:34:20Z</time></trkpt><trkpt lat="43.95776447460122" lon="10.504182060099962"><ele>70.0</ele><time>2026-04-04T11:34:21Z</time></trkpt><trkpt lat="43.95757357184908" lon="10.504039635086686"><ele>69.66666666666666</ele><time>2026-04-04T11:34:22Z</time></trkpt><trkpt lat="43.9574000595854" lon="10.503921139718232"><ele>69.33333333333333</ele><time>2026-04-04T11:34:23Z</time></trkpt><trkpt lat="43.95723684940792" lon="10.503799502845993"><ele>69.0</ele><time>2026-04-04T11:34:24Z</time></trkpt><trkpt lat="43.95707844228423" lon="10.50368195820483"><ele>68.66666666666667</ele><time>2026-04-04T11:34:25Z</time></trkpt><trkpt lat="43.95691331589559" lon="10.503563459774757"><ele>68.33333333333334</ele><time>2026-04-04T11:34:26Z</time></trkpt><trkpt lat="43.956739656148464" lon="10.503435656750005"><ele>68.0</ele><time>2026-04-04T11:34:27Z</time></trkpt><trkpt lat="43.95656554976038" lon="10.503306511283203"><ele>67.33333333333334</ele><time>2026-04-04T11:34:28Z</time></trkpt><trkpt lat="43.95637803694455" lon="10.503168497466602"><ele>66.66666666666667</ele><time>2026-04-04T11:34:29Z</time></trkpt><trkpt lat="43.95617989316981" lon="10.503020006246404"><ele>66.0</ele><time>2026-04-04T11:34:30Z</time></trkpt><trkpt lat="43.95597809809592" lon="10.502869636083458"><ele>65.0</ele><time>2026-04-04T11:34:31Z</time></trkpt><trkpt lat="43.95577155419498" lon="10.502713541157942"><ele>64.0</ele><time>2026-04-04T11:34:32Z</time></trkpt><trkpt lat="43.95556461912394" lon="10.502559300041979"><ele>64.0</ele><time>2026-04-04T11:34:33Z</time></trkpt><trkpt lat="43.95535087989053" lon="10.502407994363384"><ele>64.0</ele><time>2026-04-04T11:34:34Z</time></trkpt><trkpt lat="43.95514320038968" lon="10.502259805210324"><ele>64.0</ele><time>2026-04-04T11:34:35Z</time></trkpt><trkpt lat="43.954932459980434" lon="10.502113618178099"><ele>64.0</ele><time>2026-04-04T11:34:36Z</time></trkpt><trkpt lat="43.954722234031635" lon="10.501968553633676"><ele>64.5</ele><time>2026-04-04T11:34:37Z</time></trkpt><trkpt lat="43.95451361756524" lon="10.501824352602759"><ele>65.0</ele><time>2026-04-04T11:34:38Z</time></trkpt><trkpt lat="43.954303494655" lon="10.50167577288149"><ele>64.5</ele><time>2026-04-04T11:34:39Z</time></trkpt><trkpt lat="43.95409495301764" lon="10.501531603121762"><ele>64.0</ele><time>2026-04-04T11:34:40Z</time></trkpt><trkpt lat="43.95388285297842" lon="10.50138947252851"><ele>65.0</ele><time>2026-04-04T11:34:41Z</time></trkpt><trkpt lat="43.95367528728037" lon="10.501248321921318"><ele>66.0</ele><time>2026-04-04T11:34:42Z</time></trkpt><trkpt lat="43.95346560496445" lon="10.501106302756225"><ele>65.5</ele><time>2026-04-04T11:34:43Z</time></trkpt><trkpt lat="43.95325801592528" lon="10.500963929566929"><ele>65.0</ele><time>2026-04-04T11:34:44Z</time></trkpt><trkpt lat="43.9530519921821" lon="10.500821519920425"><ele>65.0</ele><time>2026-04-04T11:34:45Z</time></trkpt><trkpt lat="43.952846174098376" lon="10.500683245201213"><ele>65.0</ele><time>2026-04-04T11:34:46Z</time></trkpt><trkpt lat="43.95263854167401" lon="10.500548971833384"><ele>64.5</ele><time>2026-04-04T11:34:47Z</time></trkpt><trkpt lat="43.952425263220455" lon="10.500420154065912"><ele>64.0</ele><time>2026-04-04T11:34:48Z</time></trkpt><trkpt lat="43.95221118929231" lon="10.50030161982187"><ele>64.0</ele><time>2026-04-04T11:34:49Z</time></trkpt><trkpt lat="43.9519902618802" lon="10.500186961004927"><ele>64.0</ele><time>2026-04-04T11:34:50Z</time></trkpt><trkpt lat="43.95177491621103" lon="10.500080174826325"><ele>63.5</ele><time>2026-04-04T11:34:51Z</time></trkpt><trkpt lat="43.95155130573098" lon="10.499984861313854"><ele>63.0</ele><time>2026-04-04T11:34:52Z</time></trkpt><trkpt lat="43.95132730524188" lon="10.499895192526353"><ele>63.0</ele><time>2026-04-04T11:34:53Z</time></trkpt><trkpt lat="43.951102542580195" lon="10.499809125078986"><ele>63.0</ele><time>2026-04-04T11:34:54Z</time></trkpt><trkpt lat="43.95087756810421" lon="10.499715924338725"><ele>63.5</ele><time>2026-04-04T11:34:55Z</time></trkpt><trkpt lat="43.95065586214278" lon="10.499619255755993"><ele>64.0</ele><time>2026-04-04T11:34:56Z</time></trkpt><trkpt lat="43.95042769370087" lon="10.49953084849625"><ele>64.5</ele><time>2026-04-04T11:34:57Z</time></trkpt><trkpt lat="43.95020093542643" lon="10.499439628655592"><ele>65.0</ele><time>2026-04-04T11:34:58Z</time></trkpt><trkpt lat="43.94997562614879" lon="10.499350402876903"><ele>65.0</ele><time>2026-04-04T11:34:59Z</time></trkpt><trkpt lat="43.94975158269429" lon="10.499263917388664"><ele>65.0</ele><time>2026-04-04T11:35:00Z</time></trkpt><trkpt lat="43.94952501637331" lon="10.499173854253941"><ele>65.0</ele><time>2026-04-04T11:35:01Z</time></trkpt><trkpt lat="43.949303142118445" lon="10.499076340466834"><ele>65.0</ele><time>2026-04-04T11:35:02Z</time></trkpt><trkpt lat="43.9490840856762" lon="10.498982906429857"><ele>65.0</ele><time>2026-04-04T11:35:03Z</time></trkpt><trkpt lat="43.948863527598576" lon="10.498898024085022"><ele>65.0</ele><time>2026-04-04T11:35:04Z</time></trkpt><trkpt lat="43.948641139718255" lon="10.498815781731752"><ele>70.5</ele><time>2026-04-04T11:35:05Z</time></trkpt><trkpt lat="43.948418695832856" lon="10.498731593585523"><ele>76.0</ele><time>2026-04-04T11:35:06Z</time></trkpt><trkpt lat="43.948196197586675" lon="10.498647896239953"><ele>76.0</ele><time>2026-04-04T11:35:07Z</time></trkpt><trkpt lat="43.94796933079195" lon="10.498560252014377"><ele>76.0</ele><time>2026-04-04T11:35:08Z</time></trkpt><trkpt lat="43.94774956706812" lon="10.4984748739274"><ele>72.0</ele><time>2026-04-04T11:35:09Z</time></trkpt><trkpt lat="43.94752200030448" lon="10.498388060448693"><ele>68.0</ele><time>2026-04-04T11:35:10Z</time></trkpt><trkpt lat="43.94729975336228" lon="10.498298479843749"><ele>68.0</ele><time>2026-04-04T11:35:11Z</time></trkpt><trkpt lat="43.94707327807415" lon="10.498209885584064"><ele>68.0</ele><time>2026-04-04T11:35:12Z</time></trkpt><trkpt lat="43.94684605477498" lon="10.498120410616789"><ele>66.5</ele><time>2026-04-04T11:35:13Z</time></trkpt><trkpt lat="43.9466195137256" lon="10.498032217472868"><ele>65.0</ele><time>2026-04-04T11:35:14Z</time></trkpt><trkpt lat="43.94639385939316" lon="10.497944421947604"><ele>77.0</ele><time>2026-04-04T11:35:15Z</time></trkpt><trkpt lat="43.946168149672246" lon="10.497855561976076"><ele>89.0</ele><time>2026-04-04T11:35:16Z</time></trkpt><trkpt lat="43.945947526174905" lon="10.497767325299606"><ele>83.0</ele><time>2026-04-04T11:35:17Z</time></trkpt><trkpt lat="43.94571895981937" lon="10.497678396323478"><ele>77.0</ele><time>2026-04-04T11:35:18Z</time></trkpt><trkpt lat="43.94549500807789" lon="10.497590004628751"><ele>77.0</ele><time>2026-04-04T11:35:19Z</time></trkpt><trkpt lat="43.94526523964611" lon="10.49749866349357"><ele>77.0</ele><time>2026-04-04T11:35:20Z</time></trkpt><trkpt lat="43.9450424760206" lon="10.497405398307993"><ele>70.5</ele><time>2026-04-04T11:35:21Z</time></trkpt><trkpt lat="43.94482104637751" lon="10.497303719185803"><ele>64.0</ele><time>2026-04-04T11:35:22Z</time></trkpt><trkpt lat="43.94460006426759" lon="10.497196967472185"><ele>63.666666666666664</ele><time>2026-04-04T11:35:23Z</time></trkpt><trkpt lat="43.94438317053157" lon="10.497083725651466"><ele>63.33333333333333</ele><time>2026-04-04T11:35:24Z</time></trkpt><trkpt lat="43.94418577535027" lon="10.496978612288615"><ele>63.0</ele><time>2026-04-04T11:35:25Z</time></trkpt><trkpt lat="43.94400431700387" lon="10.496882960766747"><ele>63.0</ele><time>2026-04-04T11:35:26Z</time></trkpt><trkpt lat="43.94384448343871" lon="10.496797979979561"><ele>63.0</ele><time>2026-04-04T11:35:27Z</time></trkpt><trkpt lat="43.943690046257984" lon="10.496714652233441"><ele>63.0</ele><time>2026-04-04T11:35:28Z</time></trkpt><trkpt lat="43.943548688578026" lon="10.496636943987847"><ele>63.0</ele><time>2026-04-04T11:35:29Z</time></trkpt><trkpt lat="43.94342341940892" lon="10.496567638379796"><ele>63.0</ele><time>2026-04-04T11:35:30Z</time></trkpt><trkpt lat="43.943304603536866" lon="10.496483452518147"><ele>63.0</ele><time>2026-04-04T11:35:31Z</time></trkpt><trkpt lat="43.94320210616895" lon="10.496354263574622"><ele>63.0</ele><time>2026-04-04T11:35:32Z</time></trkpt><trkpt lat="43.94311642889328" lon="10.496217648780664"><ele>63.33333333333333</ele><time>2026-04-04T11:35:33Z</time></trkpt><trkpt lat="43.94298809248129" lon="10.496156169708254"><ele>63.666666666666664</ele><time>2026-04-04T11:35:34Z</time></trkpt><trkpt lat="43.94281517078599" lon="10.496140796122967"><ele>64.0</ele><time>2026-04-04T11:35:35Z</time></trkpt><trkpt lat="43.942642925617264" lon="10.496164213740146"><ele>63.5</ele><time>2026-04-04T11:35:36Z</time></trkpt><trkpt lat="43.94245736039512" lon="10.496109438743792"><ele>63.0</ele><time>2026-04-04T11:35:37Z</time></trkpt><trkpt lat="43.942210227658" lon="10.49597783574732"><ele>63.0</ele><time>2026-04-04T11:35:38Z</time></trkpt><trkpt lat="43.94192107620936" lon="10.495817822491322"><ele>63.0</ele><time>2026-04-04T11:35:39Z</time></trkpt><trkpt lat="43.941638783742434" lon="10.495651927404012"><ele>63.0</ele><time>2026-04-04T11:35:40Z</time></trkpt><trkpt lat="43.94140334249409" lon="10.495533943452982"><ele>63.0</ele><time>2026-04-04T11:35:41Z</time></trkpt><trkpt lat="43.94118730010369" lon="10.49541814405327"><ele>63.0</ele><time>2026-04-04T11:35:42Z</time></trkpt><trkpt lat="43.940992928770434" lon="10.495313938621257"><ele>63.0</ele><time>2026-04-04T11:35:43Z</time></trkpt><trkpt lat="43.94080804534069" lon="10.495216616475547"><ele>63.0</ele><time>2026-04-04T11:35:44Z</time></trkpt><trkpt lat="43.940632010298394" lon="10.495128622164874"><ele>63.0</ele><time>2026-04-04T11:35:45Z</time></trkpt><trkpt lat="43.94046636230553" lon="10.495032307436716"><ele>63.0</ele><time>2026-04-04T11:35:46Z</time></trkpt><trkpt lat="43.94028637090654" lon="10.494943932947482"><ele>63.0</ele><time>2026-04-04T11:35:47Z</time></trkpt><trkpt lat="43.94012114149578" lon="10.49485771064711"><ele>63.66666666666667</ele><time>2026-04-04T11:35:48Z</time></trkpt><trkpt lat="43.93995212928685" lon="10.494779946262165"><ele>64.33333333333334</ele><time>2026-04-04T11:35:49Z</time></trkpt><trkpt lat="43.93980077087" lon="10.494706568452713"><ele>65.0</ele><time>2026-04-04T11:35:50Z</time></trkpt><trkpt lat="43.93964914744811" lon="10.494665727043103"><ele>65.0</ele><time>2026-04-04T11:35:51Z</time></trkpt><trkpt lat="43.93949298664773" lon="10.494640152794283"><ele>65.0</ele><time>2026-04-04T11:35:52Z</time></trkpt><trkpt lat="43.939332297066855" lon="10.494636683093995"><ele>65.0</ele><time>2026-04-04T11:35:53Z</time></trkpt><trkpt lat="43.939160555688844" lon="10.494663417127787"><ele>66.0</ele><time>2026-04-04T11:35:54Z</time></trkpt><trkpt lat="43.93898659783798" lon="10.494724481034979"><ele>67.0</ele><time>2026-04-04T11:35:55Z</time></trkpt><trkpt lat="43.938835623955924" lon="10.494818566897266"><ele>68.0</ele><time>2026-04-04T11:35:56Z</time></trkpt><trkpt lat="43.93870431470443" lon="10.49492126717815"><ele>68.0</ele><time>2026-04-04T11:35:57Z</time></trkpt><trkpt lat="43.93857469644525" lon="10.495059664090972"><ele>68.0</ele><time>2026-04-04T11:35:58Z</time></trkpt><trkpt lat="43.93844192939014" lon="10.495266980011875"><ele>68.0</ele><time>2026-04-04T11:35:59Z</time></trkpt><trkpt lat="43.93827694738084" lon="10.495562108533633"><ele>70.5</ele><time>2026-04-04T11:36:00Z</time></trkpt><trkpt lat="43.938090856905866" lon="10.495875572900296"><ele>73.0</ele><time>2026-04-04T11:36:01Z</time></trkpt><trkpt lat="43.937929453762024" lon="10.496138477623626"><ele>72.33333333333333</ele><time>2026-04-04T11:36:02Z</time></trkpt><trkpt lat="43.93778817742195" lon="10.496371372732762"><ele>71.66666666666667</ele><time>2026-04-04T11:36:03Z</time></trkpt><trkpt lat="43.937655775455625" lon="10.496591291341533"><ele>71.0</ele><time>2026-04-04T11:36:04Z</time></trkpt><trkpt lat="43.937519384999035" lon="10.496805144364854"><ele>70.33333333333334</ele><time>2026-04-04T11:36:05Z</time></trkpt><trkpt lat="43.93737906334701" lon="10.4970212878658"><ele>69.66666666666667</ele><time>2026-04-04T11:36:06Z</time></trkpt><trkpt lat="43.93723251375262" lon="10.497225178719875"><ele>69.0</ele><time>2026-04-04T11:36:07Z</time></trkpt><trkpt lat="43.9370811043078" lon="10.497432179747339"><ele>69.0</ele><time>2026-04-04T11:36:08Z</time></trkpt><trkpt lat="43.93692778098965" lon="10.497629127514356"><ele>69.0</ele><time>2026-04-04T11:36:09Z</time></trkpt><trkpt lat="43.9367939659558" lon="10.49780819125922"><ele>69.0</ele><time>2026-04-04T11:36:10Z</time></trkpt><trkpt lat="43.93665517980962" lon="10.497990487317724"><ele>68.66666666666667</ele><time>2026-04-04T11:36:11Z</time></trkpt><trkpt lat="43.93651952429791" lon="10.49816801868857"><ele>68.33333333333334</ele><time>2026-04-04T11:36:12Z</time></trkpt><trkpt lat="43.936384467725134" lon="10.49835006190577"><ele>68.0</ele><time>2026-04-04T11:36:13Z</time></trkpt><trkpt lat="43.93625187887467" lon="10.498532958859009"><ele>68.0</ele><time>2026-04-04T11:36:14Z</time></trkpt><trkpt lat="43.93612913264745" lon="10.498708244297424"><ele>68.0</ele><time>2026-04-04T11:36:15Z</time></trkpt><trkpt lat="43.93597799426056" lon="10.498836540222973"><ele>68.0</ele><time>2026-04-04T11:36:16Z</time></trkpt><trkpt lat="43.93584722193828" lon="10.499002367837733"><ele>69.66666666666667</ele><time>2026-04-04T11:36:17Z</time></trkpt><trkpt lat="43.93571590260875" lon="10.499171092270737"><ele>71.33333333333333</ele><time>2026-04-04T11:36:18Z</time></trkpt><trkpt lat="43.93562381917309" lon="10.49929330083551"><ele>73.0</ele><time>2026-04-04T11:36:19Z</time></trkpt><trkpt lat="43.935518041247136" lon="10.499450632993558"><ele>69.5</ele><time>2026-04-04T11:36:20Z</time></trkpt><trkpt lat="43.935423701119234" lon="10.499608634222655"><ele>66.0</ele><time>2026-04-04T11:36:21Z</time></trkpt><trkpt lat="43.93533331771844" lon="10.49976836545999"><ele>62.5</ele><time>2026-04-04T11:36:22Z</time></trkpt><trkpt lat="43.93524813597563" lon="10.499920138069887"><ele>59.0</ele><time>2026-04-04T11:36:23Z</time></trkpt><trkpt lat="43.93516829078178" lon="10.500063317735922"><ele>59.0</ele><time>2026-04-04T11:36:24Z</time></trkpt><trkpt lat="43.9350904540939" lon="10.50020430677847"><ele>59.0</ele><time>2026-04-04T11:36:25Z</time></trkpt><trkpt lat="43.935011628095424" lon="10.500351359347041"><ele>59.0</ele><time>2026-04-04T11:36:26Z</time></trkpt><trkpt lat="43.93492904527767" lon="10.500505420413155"><ele>59.0</ele><time>2026-04-04T11:36:27Z</time></trkpt><trkpt lat="43.934846180252734" lon="10.500680946690172"><ele>59.25</ele><time>2026-04-04T11:36:28Z</time></trkpt><trkpt lat="43.93478848097884" lon="10.50087540339699"><ele>59.5</ele><time>2026-04-04T11:36:29Z</time></trkpt><trkpt lat="43.934741303549295" lon="10.501068451430383"><ele>59.75</ele><time>2026-04-04T11:36:30Z</time></trkpt><trkpt lat="43.93472269538863" lon="10.501265170893559"><ele>60.0</ele><time>2026-04-04T11:36:31Z</time></trkpt><trkpt lat="43.93469791421131" lon="10.50147312511589"><ele>60.0</ele><time>2026-04-04T11:36:32Z</time></trkpt><trkpt lat="43.93467300301596" lon="10.501677880013194"><ele>60.0</ele><time>2026-04-04T11:36:33Z</time></trkpt><trkpt lat="43.934646172956526" lon="10.5018789558758"><ele>60.0</ele><time>2026-04-04T11:36:34Z</time></trkpt><trkpt lat="43.93461766503008" lon="10.502086074550933"><ele>60.0</ele><time>2026-04-04T11:36:35Z</time></trkpt><trkpt lat="43.93458458600843" lon="10.502296693594236"><ele>59.0</ele><time>2026-04-04T11:36:36Z</time></trkpt><trkpt lat="43.93454453947404" lon="10.502533217025402"><ele>58.0</ele><time>2026-04-04T11:36:37Z</time></trkpt><trkpt lat="43.93451463313175" lon="10.502821586313543"><ele>57.0</ele><time>2026-04-04T11:36:38Z</time></trkpt><trkpt lat="43.9344879440822" lon="10.50312773536863"><ele>56.5</ele><time>2026-04-04T11:36:39Z</time></trkpt><trkpt lat="43.934438378666954" lon="10.503499089185782"><ele>56.0</ele><time>2026-04-04T11:36:40Z</time></trkpt><trkpt lat="43.934400754325466" lon="10.503841941352448"><ele>55.66666666666667</ele><time>2026-04-04T11:36:41Z</time></trkpt><trkpt lat="43.934362217912756" lon="10.504158159863568"><ele>55.33333333333333</ele><time>2026-04-04T11:36:42Z</time></trkpt><trkpt lat="43.93441390773283" lon="10.504379675146978"><ele>55.0</ele><time>2026-04-04T11:36:43Z</time></trkpt><trkpt lat="43.934414485678346" lon="10.50463444682496"><ele>55.0</ele><time>2026-04-04T11:36:44Z</time></trkpt><trkpt lat="43.934400500329104" lon="10.504860525850912"><ele>55.0</ele><time>2026-04-04T11:36:45Z</time></trkpt><trkpt lat="43.93438959882919" lon="10.505071361404726"><ele>55.0</ele><time>2026-04-04T11:36:46Z</time></trkpt><trkpt lat="43.934377795598884" lon="10.505278102818185"><ele>55.0</ele><time>2026-04-04T11:36:47Z</time></trkpt><trkpt lat="43.934364131920724" lon="10.505473375839252"><ele>55.0</ele><time>2026-04-04T11:36:48Z</time></trkpt><trkpt lat="43.93435076500492" lon="10.505683176056646"><ele>55.0</ele><time>2026-04-04T11:36:49Z</time></trkpt><trkpt lat="43.93433720313067" lon="10.505892111949438"><ele>55.0</ele><time>2026-04-04T11:36:50Z</time></trkpt><trkpt lat="43.934325640562385" lon="10.506099435668437"><ele>55.25</ele><time>2026-04-04T11:36:51Z</time></trkpt><trkpt lat="43.93431249381292" lon="10.506302942844565"><ele>55.5</ele><time>2026-04-04T11:36:52Z</time></trkpt><trkpt lat="43.93429496258781" lon="10.506499905646793"><ele>55.75</ele><time>2026-04-04T11:36:53Z</time></trkpt><trkpt lat="43.93426294533193" lon="10.506692899817471"><ele>56.0</ele><time>2026-04-04T11:36:54Z</time></trkpt><trkpt lat="43.93421089667623" lon="10.506887703151286"><ele>58.66666666666667</ele><time>2026-04-04T11:36:55Z</time></trkpt><trkpt lat="43.9341386490903" lon="10.507089315489573"><ele>61.33333333333333</ele><time>2026-04-04T11:36:56Z</time></trkpt><trkpt lat="43.93403152890616" lon="10.50725921070092"><ele>64.0</ele><time>2026-04-04T11:36:57Z</time></trkpt><trkpt lat="43.93392233412885" lon="10.507409799381454"><ele>64.0</ele><time>2026-04-04T11:36:58Z</time></trkpt><trkpt lat="43.9337986799698" lon="10.507536341740854"><ele>64.0</ele><time>2026-04-04T11:36:59Z</time></trkpt><trkpt lat="43.933660523651206" lon="10.507614339715758"><ele>64.0</ele><time>2026-04-04T11:37:00Z</time></trkpt><trkpt lat="43.933518278910014" lon="10.507674193329121"><ele>68.66666666666666</ele><time>2026-04-04T11:37:01Z</time></trkpt><trkpt lat="43.93336826419882" lon="10.507708698616295"><ele>73.33333333333333</ele><time>2026-04-04T11:37:02Z</time></trkpt><trkpt lat="43.93321868112234" lon="10.507719565862995"><ele>78.0</ele><time>2026-04-04T11:37:03Z</time></trkpt><trkpt lat="43.93306252333978" lon="10.507731895512698"><ele>78.0</ele><time>2026-04-04T11:37:04Z</time></trkpt><trkpt lat="43.932907169253134" lon="10.507686657686666"><ele>78.0</ele><time>2026-04-04T11:37:05Z</time></trkpt><trkpt lat="43.932751527919145" lon="10.507633885599855"><ele>78.0</ele><time>2026-04-04T11:37:06Z</time></trkpt><trkpt lat="43.93259419615086" lon="10.50757959205631"><ele>72.0</ele><time>2026-04-04T11:37:07Z</time></trkpt><trkpt lat="43.93243168412627" lon="10.507521120441197"><ele>66.0</ele><time>2026-04-04T11:37:08Z</time></trkpt><trkpt lat="43.93226973459446" lon="10.507464864227643"><ele>60.0</ele><time>2026-04-04T11:37:09Z</time></trkpt><trkpt lat="43.932101857371606" lon="10.50740498877863"><ele>60.0</ele><time>2026-04-04T11:37:10Z</time></trkpt><trkpt lat="43.93193562218033" lon="10.507348856896792"><ele>60.0</ele><time>2026-04-04T11:37:11Z</time></trkpt><trkpt lat="43.93177518543964" lon="10.507298113959656"><ele>60.0</ele><time>2026-04-04T11:37:12Z</time></trkpt><trkpt lat="43.93162458411742" lon="10.507252650337378"><ele>58.5</ele><time>2026-04-04T11:37:13Z</time></trkpt><trkpt lat="43.93148226192455" lon="10.507205225629269"><ele>57.0</ele><time>2026-04-04T11:37:14Z</time></trkpt><trkpt lat="43.93134145233469" lon="10.507163725062941"><ele>55.5</ele><time>2026-04-04T11:37:15Z</time></trkpt><trkpt lat="43.93120516593153" lon="10.507117256568087"><ele>54.0</ele><time>2026-04-04T11:37:16Z</time></trkpt><trkpt lat="43.93106869641845" lon="10.507067395878027"><ele>54.0</ele><time>2026-04-04T11:37:17Z</time></trkpt><trkpt lat="43.93092187511752" lon="10.507015809604129"><ele>54.0</ele><time>2026-04-04T11:37:18Z</time></trkpt><trkpt lat="43.930766401744826" lon="10.506959095754382"><ele>54.0</ele><time>2026-04-04T11:37:19Z</time></trkpt><trkpt lat="43.93060378322336" lon="10.506915511992394"><ele>55.66666666666667</ele><time>2026-04-04T11:37:20Z</time></trkpt><trkpt lat="43.930456844855165" lon="10.506893142262228"><ele>57.333333333333336</ele><time>2026-04-04T11:37:21Z</time></trkpt><trkpt lat="43.930302160548905" lon="10.506918895688518"><ele>59.0</ele><time>2026-04-04T11:37:22Z</time></trkpt><trkpt lat="43.93014473124686" lon="10.506983869750618"><ele>62.0</ele><time>2026-04-04T11:37:23Z</time></trkpt><trkpt lat="43.92998900025433" lon="10.507105668855537"><ele>65.0</ele><time>2026-04-04T11:37:24Z</time></trkpt><trkpt lat="43.929851053272046" lon="10.507247148210201"><ele>68.0</ele><time>2026-04-04T11:37:25Z</time></trkpt><trkpt lat="43.92973704535603" lon="10.507390351018854"><ele>68.0</ele><time>2026-04-04T11:37:26Z</time></trkpt><trkpt lat="43.92962250782037" lon="10.507522261841244"><ele>68.0</ele><time>2026-04-04T11:37:27Z</time></trkpt><trkpt lat="43.92951244383711" lon="10.507653236232047"><ele>68.0</ele><time>2026-04-04T11:37:28Z</time></trkpt><trkpt lat="43.92940057379896" lon="10.507808157317934"><ele>65.0</ele><time>2026-04-04T11:37:29Z</time></trkpt><trkpt lat="43.9292983599743" lon="10.50799372914981"><ele>62.0</ele><time>2026-04-04T11:37:30Z</time></trkpt><trkpt lat="43.92921133625029" lon="10.50820296790527"><ele>59.0</ele><time>2026-04-04T11:37:31Z</time></trkpt><trkpt lat="43.92914930070447" lon="10.50840249357578"><ele>59.0</ele><time>2026-04-04T11:37:32Z</time></trkpt><trkpt lat="43.929103578783625" lon="10.508605026517198"><ele>59.0</ele><time>2026-04-04T11:37:33Z</time></trkpt><trkpt lat="43.92907252983561" lon="10.508818967124345"><ele>59.0</ele><time>2026-04-04T11:37:34Z</time></trkpt><trkpt lat="43.92908022625832" lon="10.509037005699442"><ele>59.75</ele><time>2026-04-04T11:37:35Z</time></trkpt><trkpt lat="43.92906645530185" lon="10.509248916217105"><ele>60.5</ele><time>2026-04-04T11:37:36Z</time></trkpt><trkpt lat="43.92908155699891" lon="10.509442831927705"><ele>61.25</ele><time>2026-04-04T11:37:37Z</time></trkpt><trkpt lat="43.92911076296739" lon="10.50962592840648"><ele>62.0</ele><time>2026-04-04T11:37:38Z</time></trkpt><trkpt lat="43.92915930828387" lon="10.509816101699272"><ele>62.0</ele><time>2026-04-04T11:37:39Z</time></trkpt><trkpt lat="43.92922123440741" lon="10.510017016845884"><ele>62.0</ele><time>2026-04-04T11:37:40Z</time></trkpt><trkpt lat="43.9292835028877" lon="10.510220372448309"><ele>62.0</ele><time>2026-04-04T11:37:41Z</time></trkpt><trkpt lat="43.92934773554363" lon="10.510417583950375"><ele>69.0</ele><time>2026-04-04T11:37:42Z</time></trkpt><trkpt lat="43.929405390910304" lon="10.510620935609689"><ele>76.0</ele><time>2026-04-04T11:37:43Z</time></trkpt><trkpt lat="43.92946826649045" lon="10.510827214269936"><ele>83.0</ele><time>2026-04-04T11:37:44Z</time></trkpt><trkpt lat="43.92953138487231" lon="10.511040947824716"><ele>81.33333333333334</ele><time>2026-04-04T11:37:45Z</time></trkpt><trkpt lat="43.92959645733842" lon="10.511251505174135"><ele>79.66666666666667</ele><time>2026-04-04T11:37:46Z</time></trkpt><trkpt lat="43.92966129511029" lon="10.511459277261174"><ele>78.0</ele><time>2026-04-04T11:37:47Z</time></trkpt><trkpt lat="43.92972797608921" lon="10.511672414140085"><ele>78.0</ele><time>2026-04-04T11:37:48Z</time></trkpt><trkpt lat="43.929788223137734" lon="10.511897995435808"><ele>78.0</ele><time>2026-04-04T11:37:49Z</time></trkpt><trkpt lat="43.92983805575471" lon="10.512145708850678"><ele>78.0</ele><time>2026-04-04T11:37:50Z</time></trkpt><trkpt lat="43.929864909741944" lon="10.512397805847499"><ele>76.66666666666667</ele><time>2026-04-04T11:37:51Z</time></trkpt><trkpt lat="43.92987024849768" lon="10.512620982533923"><ele>75.33333333333334</ele><time>2026-04-04T11:37:52Z</time></trkpt><trkpt lat="43.92986350426793" lon="10.512831812189754"><ele>74.0</ele><time>2026-04-04T11:37:53Z</time></trkpt><trkpt lat="43.92984377996924" lon="10.513067657718588"><ele>74.0</ele><time>2026-04-04T11:37:54Z</time></trkpt><trkpt lat="43.929807760383895" lon="10.513303216759313"><ele>74.0</ele><time>2026-04-04T11:37:55Z</time></trkpt><trkpt lat="43.92975272725176" lon="10.513530497203561"><ele>74.0</ele><time>2026-04-04T11:37:56Z</time></trkpt><trkpt lat="43.929683572068456" lon="10.513744835187502"><ele>79.0</ele><time>2026-04-04T11:37:57Z</time></trkpt><trkpt lat="43.92959484195518" lon="10.51395434624187"><ele>84.0</ele><time>2026-04-04T11:37:58Z</time></trkpt><trkpt lat="43.92948645811828" lon="10.514167895228596"><ele>89.0</ele><time>2026-04-04T11:37:59Z</time></trkpt><trkpt lat="43.92937470701808" lon="10.514366698637835"><ele>89.0</ele><time>2026-04-04T11:38:00Z</time></trkpt><trkpt lat="43.92927182697263" lon="10.514548399305792"><ele>89.0</ele><time>2026-04-04T11:38:01Z</time></trkpt><trkpt lat="43.92916450552584" lon="10.514738758167933"><ele>89.0</ele><time>2026-04-04T11:38:02Z</time></trkpt><trkpt lat="43.9290596509304" lon="10.514923000486691"><ele>91.66666666666667</ele><time>2026-04-04T11:38:03Z</time></trkpt><trkpt lat="43.92894706853721" lon="10.515107800740733"><ele>94.33333333333334</ele><time>2026-04-04T11:38:04Z</time></trkpt><trkpt lat="43.928837302808724" lon="10.515300722093203"><ele>97.0</ele><time>2026-04-04T11:38:05Z</time></trkpt><trkpt lat="43.928714317064326" lon="10.515492723430713"><ele>97.0</ele><time>2026-04-04T11:38:06Z</time></trkpt><trkpt lat="43.92858525365597" lon="10.51566410499668"><ele>97.0</ele><time>2026-04-04T11:38:07Z</time></trkpt><trkpt lat="43.92844787556144" lon="10.5158165285301"><ele>97.0</ele><time>2026-04-04T11:38:08Z</time></trkpt><trkpt lat="43.92830722553691" lon="10.51595857493513"><ele>94.33333333333334</ele><time>2026-04-04T11:38:09Z</time></trkpt><trkpt lat="43.92817031182321" lon="10.516091843812061"><ele>91.66666666666667</ele><time>2026-04-04T11:38:10Z</time></trkpt><trkpt lat="43.92802690339717" lon="10.516227658555236"><ele>89.0</ele><time>2026-04-04T11:38:11Z</time></trkpt><trkpt lat="43.92788401085048" lon="10.516369163294677"><ele>89.0</ele><time>2026-04-04T11:38:12Z</time></trkpt><trkpt lat="43.92774002878062" lon="10.516508415936858"><ele>89.0</ele><time>2026-04-04T11:38:13Z</time></trkpt><trkpt lat="43.92759263651224" lon="10.51665611929586"><ele>89.0</ele><time>2026-04-04T11:38:14Z</time></trkpt><trkpt lat="43.92743983545112" lon="10.516795111496924"><ele>86.0</ele><time>2026-04-04T11:38:15Z</time></trkpt><trkpt lat="43.92729721887274" lon="10.516926699895073"><ele>83.0</ele><time>2026-04-04T11:38:16Z</time></trkpt><trkpt lat="43.92715173162575" lon="10.517065064226262"><ele>80.0</ele><time>2026-04-04T11:38:17Z</time></trkpt><trkpt lat="43.92700697183193" lon="10.517201771076145"><ele>80.0</ele><time>2026-04-04T11:38:18Z</time></trkpt><trkpt lat="43.92686601017627" lon="10.517349821599733"><ele>80.0</ele><time>2026-04-04T11:38:19Z</time></trkpt><trkpt lat="43.92672554917061" lon="10.517519719068057"><ele>80.0</ele><time>2026-04-04T11:38:20Z</time></trkpt><trkpt lat="43.92659267813115" lon="10.517683520282244"><ele>75.33333333333334</ele><time>2026-04-04T11:38:21Z</time></trkpt><trkpt lat="43.92646921932271" lon="10.517860333222172"><ele>70.66666666666667</ele><time>2026-04-04T11:38:22Z</time></trkpt><trkpt lat="43.926363772202976" lon="10.518033115918348"><ele>66.0</ele><time>2026-04-04T11:38:23Z</time></trkpt><trkpt lat="43.92625647227657" lon="10.51822422864966"><ele>66.0</ele><time>2026-04-04T11:38:24Z</time></trkpt><trkpt lat="43.92615333690745" lon="10.518435130948129"><ele>66.0</ele><time>2026-04-04T11:38:25Z</time></trkpt><trkpt lat="43.92605568111395" lon="10.518663011148638"><ele>66.0</ele><time>2026-04-04T11:38:26Z</time></trkpt><trkpt lat="43.92596945395589" lon="10.518900849550944"><ele>61.33333333333333</ele><time>2026-04-04T11:38:27Z</time></trkpt><trkpt lat="43.9258900050346" lon="10.519145355084627"><ele>56.666666666666664</ele><time>2026-04-04T11:38:28Z</time></trkpt><trkpt lat="43.92580960009907" lon="10.51939307630914"><ele>52.0</ele><time>2026-04-04T11:38:29Z</time></trkpt><trkpt lat="43.92573025383169" lon="10.519639304804242"><ele>52.0</ele><time>2026-04-04T11:38:30Z</time></trkpt><trkpt lat="43.92565555435598" lon="10.519875892854149"><ele>52.0</ele><time>2026-04-04T11:38:31Z</time></trkpt><trkpt lat="43.9255825078833" lon="10.520110727369618"><ele>52.0</ele><time>2026-04-04T11:38:32Z</time></trkpt><trkpt lat="43.92550821110221" lon="10.520347984941983"><ele>51.666666666666664</ele><time>2026-04-04T11:38:33Z</time></trkpt><trkpt lat="43.92543248546058" lon="10.520583568175622"><ele>51.33333333333333</ele><time>2026-04-04T11:38:34Z</time></trkpt><trkpt lat="43.9253602415099" lon="10.520814619052278"><ele>51.0</ele><time>2026-04-04T11:38:35Z</time></trkpt><trkpt lat="43.92528893002591" lon="10.52103807639609"><ele>50.0</ele><time>2026-04-04T11:38:36Z</time></trkpt><trkpt lat="43.925220170630574" lon="10.52124875735753"><ele>49.0</ele><time>2026-04-04T11:38:37Z</time></trkpt><trkpt lat="43.925151163272616" lon="10.521475314300258"><ele>48.0</ele><time>2026-04-04T11:38:38Z</time></trkpt><trkpt lat="43.925077991682016" lon="10.521713585635545"><ele>56.66666666666667</ele><time>2026-04-04T11:38:39Z</time></trkpt><trkpt lat="43.92500957305717" lon="10.521941725552203"><ele>65.33333333333334</ele><time>2026-04-04T11:38:40Z</time></trkpt><trkpt lat="43.924941835446546" lon="10.522160542108388"><ele>74.0</ele><time>2026-04-04T11:38:41Z</time></trkpt><trkpt lat="43.92486979329482" lon="10.52238460831938"><ele>74.0</ele><time>2026-04-04T11:38:42Z</time></trkpt><trkpt lat="43.924790323569894" lon="10.52261385851067"><ele>74.0</ele><time>2026-04-04T11:38:43Z</time></trkpt><trkpt lat="43.92470984686878" lon="10.52284275880772"><ele>74.0</ele><time>2026-04-04T11:38:44Z</time></trkpt><trkpt lat="43.92462931083208" lon="10.523073247594326"><ele>74.0</ele><time>2026-04-04T11:38:45Z</time></trkpt><trkpt lat="43.92452355419141" lon="10.523277555617092"><ele>74.0</ele><time>2026-04-04T11:38:46Z</time></trkpt><trkpt lat="43.92441383147018" lon="10.523479920465881"><ele>74.0</ele><time>2026-04-04T11:38:47.027Z</time></trkpt><trkpt lat="43.92430604358755" lon="10.523678465530635"><ele>77.5</ele><time>2026-04-04T11:38:48.027Z</time></trkpt><trkpt lat="43.92406578254326" lon="10.524057787044226"><ele>81.0</ele><time>2026-04-04T11:38:50Z</time></trkpt><trkpt lat="43.923942502019806" lon="10.524240507834039"><ele>81.0</ele><time>2026-04-04T11:38:51Z</time></trkpt><trkpt lat="43.92382099248275" lon="10.52442719301715"><ele>81.0</ele><time>2026-04-04T11:38:52Z</time></trkpt><trkpt lat="43.923678378495666" lon="10.524581110350818"><ele>81.0</ele><time>2026-04-04T11:38:53Z</time></trkpt><trkpt lat="43.923539310415194" lon="10.524721684540827"><ele>85.66666666666667</ele><time>2026-04-04T11:38:54Z</time></trkpt><trkpt lat="43.923392617076864" lon="10.524855960874365"><ele>90.33333333333334</ele><time>2026-04-04T11:38:55Z</time></trkpt><trkpt lat="43.923230568398" lon="10.524992566283762"><ele>95.0</ele><time>2026-04-04T11:38:56.026Z</time></trkpt><trkpt lat="43.92306708505495" lon="10.525122546157991"><ele>95.0</ele><time>2026-04-04T11:38:57.027Z</time></trkpt><trkpt lat="43.92291876000143" lon="10.525235559017535"><ele>95.0</ele><time>2026-04-04T11:38:58.027Z</time></trkpt><trkpt lat="43.92278904942744" lon="10.525320593121279"><ele>95.0</ele><time>2026-04-04T11:38:58.977Z</time></trkpt><trkpt lat="43.92242848464626" lon="10.525529869455836"><ele>83.33333333333334</ele><time>2026-04-04T11:39:00.8Z</time></trkpt><trkpt lat="43.922275675939815" lon="10.52561782529172"><ele>71.66666666666667</ele><time>2026-04-04T11:39:01.75Z</time></trkpt><trkpt lat="43.92212150376634" lon="10.525713338724564"><ele>60.0</ele><time>2026-04-04T11:39:02.7Z</time></trkpt><trkpt lat="43.92194746113568" lon="10.525772228192677"><ele>60.0</ele><time>2026-04-04T11:39:03.65Z</time></trkpt><trkpt lat="43.92177575712177" lon="10.525852630698978"><ele>60.0</ele><time>2026-04-04T11:39:04.6Z</time></trkpt><trkpt lat="43.92160768342402" lon="10.525901156812644"><ele>60.0</ele><time>2026-04-04T11:39:05.55Z</time></trkpt><trkpt lat="43.921463471921534" lon="10.525927068773901"><ele>58.0</ele><time>2026-04-04T11:39:06.5Z</time></trkpt><trkpt lat="43.921306680301626" lon="10.525945042634445"><ele>56.0</ele><time>2026-04-04T11:39:07.45Z</time></trkpt><trkpt lat="43.92114839817344" lon="10.52595920823761"><ele>54.0</ele><time>2026-04-04T11:39:08.4Z</time></trkpt><trkpt lat="43.9209834126684" lon="10.525967241896524"><ele>53.66666666666667</ele><time>2026-04-04T11:39:09.35Z</time></trkpt><trkpt lat="43.92082279116635" lon="10.525956863714637"><ele>53.333333333333336</ele><time>2026-04-04T11:39:10.3Z</time></trkpt><trkpt lat="43.92066383052121" lon="10.52592956172054"><ele>53.0</ele><time>2026-04-04T11:39:11.25Z</time></trkpt><trkpt lat="43.920504719090786" lon="10.525887326535697"><ele>53.0</ele><time>2026-04-04T11:39:12.2Z</time></trkpt><trkpt lat="43.92033954449038" lon="10.525831452505077"><ele>53.0</ele><time>2026-04-04T11:39:13.15Z</time></trkpt><trkpt lat="43.920185207940904" lon="10.525762768674756"><ele>53.0</ele><time>2026-04-04T11:39:14.1Z</time></trkpt><trkpt lat="43.92002398060196" lon="10.525677405089704"><ele>53.66666666666667</ele><time>2026-04-04T11:39:15.05Z</time></trkpt><trkpt lat="43.919859720846006" lon="10.52558093241062"><ele>54.33333333333333</ele><time>2026-04-04T11:39:16Z</time></trkpt><trkpt lat="43.919689588884935" lon="10.525478949978703"><ele>55.0</ele><time>2026-04-04T11:39:17Z</time></trkpt><trkpt lat="43.9195123739338" lon="10.525364050588719"><ele>61.666666666666664</ele><time>2026-04-04T11:39:18Z</time></trkpt><trkpt lat="43.91933872167805" lon="10.52524279939725"><ele>68.33333333333333</ele><time>2026-04-04T11:39:19Z</time></trkpt><trkpt lat="43.91916376812156" lon="10.525114622137828"><ele>75.0</ele><time>2026-04-04T11:39:20Z</time></trkpt><trkpt lat="43.918992761936266" lon="10.524985462773765"><ele>76.0</ele><time>2026-04-04T11:39:21Z</time></trkpt><trkpt lat="43.91883124151415" lon="10.524847509375633"><ele>77.0</ele><time>2026-04-04T11:39:22Z</time></trkpt><trkpt lat="43.918642160198104" lon="10.524687688363121"><ele>78.0</ele><time>2026-04-04T11:39:23Z</time></trkpt><trkpt lat="43.91846446566618" lon="10.524543292208131"><ele>81.33333333333333</ele><time>2026-04-04T11:39:24Z</time></trkpt><trkpt lat="43.91828873221118" lon="10.524399791852131"><ele>84.66666666666666</ele><time>2026-04-04T11:39:25Z</time></trkpt><trkpt lat="43.918108660113695" lon="10.52426011556026"><ele>88.0</ele><time>2026-04-04T11:39:26.026Z</time></trkpt><trkpt lat="43.91792972725667" lon="10.524116825744912"><ele>88.0</ele><time>2026-04-04T11:39:27.026Z</time></trkpt><trkpt lat="43.917747315258076" lon="10.523974359536181"><ele>88.0</ele><time>2026-04-04T11:39:28.026Z</time></trkpt><trkpt lat="43.91757388067162" lon="10.523836828961283"><ele>88.0</ele><time>2026-04-04T11:39:28.976Z</time></trkpt><trkpt lat="43.91741265434025" lon="10.52373704646335"><ele>102.0</ele><time>2026-04-04T11:39:29.875Z</time></trkpt><trkpt lat="43.91661947735578" lon="10.523522443122152"><ele>102.0</ele><time>2026-04-04T11:39:33.719Z</time></trkpt><trkpt lat="43.91641229897929" lon="10.523501906822153"><ele>102.0</ele><time>2026-04-04T11:39:34.719Z</time></trkpt><trkpt lat="43.916207655237464" lon="10.523467813217865"><ele>102.0</ele><time>2026-04-04T11:39:35.719Z</time></trkpt><trkpt lat="43.916004437672974" lon="10.523419028102465"><ele>102.33333333333334</ele><time>2026-04-04T11:39:36.715Z</time></trkpt><trkpt lat="43.91579671011117" lon="10.523423471048963"><ele>102.66666666666667</ele><time>2026-04-04T11:39:37.719Z</time></trkpt><trkpt lat="43.91559111757832" lon="10.523393116616898"><ele>103.0</ele><time>2026-04-04T11:39:38.719Z</time></trkpt><trkpt lat="43.91538452643488" lon="10.523415621113871"><ele>103.0</ele><time>2026-04-04T11:39:39.719Z</time></trkpt><trkpt lat="43.91517848955565" lon="10.52340255907584"><ele>103.0</ele><time>2026-04-04T11:39:40.714Z</time></trkpt><trkpt lat="43.91497390054397" lon="10.52344667883731"><ele>103.0</ele><time>2026-04-04T11:39:41.715Z</time></trkpt><trkpt lat="43.91476608683567" lon="10.523451648918611"><ele>98.33333333333334</ele><time>2026-04-04T11:39:42.719Z</time></trkpt><trkpt lat="43.914561860514105" lon="10.523485409271965"><ele>93.66666666666667</ele><time>2026-04-04T11:39:43.716Z</time></trkpt><trkpt lat="43.91435836397898" lon="10.523540302707026"><ele>89.0</ele><time>2026-04-04T11:39:44.719Z</time></trkpt><trkpt lat="43.914152227527175" lon="10.523547096744291"><ele>76.5</ele><time>2026-04-04T11:39:45.716Z</time></trkpt><trkpt lat="43.913789761315236" lon="10.523600858034266"><ele>64.0</ele><time>2026-04-04T11:39:48.05Z</time></trkpt><trkpt lat="43.913593742129336" lon="10.52363846588187"><ele>64.0</ele><time>2026-04-04T11:39:49Z</time></trkpt><trkpt lat="43.913386562555424" lon="10.523683559424214"><ele>64.0</ele><time>2026-04-04T11:39:50Z</time></trkpt><trkpt lat="43.91318334294084" lon="10.52372193225466"><ele>64.0</ele><time>2026-04-04T11:39:51Z</time></trkpt><trkpt lat="43.91298242529188" lon="10.523769000083334"><ele>60.0</ele><time>2026-04-04T11:39:52Z</time></trkpt><trkpt lat="43.9127801958192" lon="10.523827468290046"><ele>56.0</ele><time>2026-04-04T11:39:53Z</time></trkpt><trkpt lat="43.91257582912327" lon="10.523883956459272"><ele>52.0</ele><time>2026-04-04T11:39:54Z</time></trkpt><trkpt lat="43.9123623667246" lon="10.523963530435452"><ele>50.0</ele><time>2026-04-04T11:39:55Z</time></trkpt><trkpt lat="43.91214929132107" lon="10.524059715241659"><ele>48.0</ele><time>2026-04-04T11:39:56Z</time></trkpt><trkpt lat="43.911934312212296" lon="10.524155842149778"><ele>48.0</ele><time>2026-04-04T11:39:57Z</time></trkpt><trkpt lat="43.91172466097261" lon="10.524254691501424"><ele>48.0</ele><time>2026-04-04T11:39:58Z</time></trkpt><trkpt lat="43.911516312254584" lon="10.52435907248235"><ele>48.0</ele><time>2026-04-04T11:39:59Z</time></trkpt><trkpt lat="43.91130725589657" lon="10.52447187571954"><ele>48.0</ele><time>2026-04-04T11:40:00Z</time></trkpt><trkpt lat="43.91110279649325" lon="10.524589775931139"><ele>48.0</ele><time>2026-04-04T11:40:01Z</time></trkpt><trkpt lat="43.91090167623022" lon="10.524716896312574"><ele>48.0</ele><time>2026-04-04T11:40:02Z</time></trkpt><trkpt lat="43.910702608114526" lon="10.524854542437888"><ele>56.66666666666667</ele><time>2026-04-04T11:40:03Z</time></trkpt><trkpt lat="43.91050530295247" lon="10.524996105604233"><ele>65.33333333333334</ele><time>2026-04-04T11:40:04Z</time></trkpt><trkpt lat="43.91030684031727" lon="10.525135522190249"><ele>74.0</ele><time>2026-04-04T11:40:05Z</time></trkpt><trkpt lat="43.910109395933155" lon="10.52527350063854"><ele>76.5</ele><time>2026-04-04T11:40:06Z</time></trkpt><trkpt lat="43.909907353914" lon="10.525418438164728"><ele>79.0</ele><time>2026-04-04T11:40:07Z</time></trkpt><trkpt lat="43.90970448690666" lon="10.525570721179415"><ele>79.0</ele><time>2026-04-04T11:40:08.026Z</time></trkpt><trkpt lat="43.90951088030985" lon="10.525712432368975"><ele>79.0</ele><time>2026-04-04T11:40:09.027Z</time></trkpt><trkpt lat="43.908877885829746" lon="10.526437909576735"><ele>42.0</ele><time>2026-04-04T11:40:12.716Z</time></trkpt><trkpt lat="43.90820423891368" lon="10.527065121790942"><ele>42.0</ele><time>2026-04-04T11:40:13.718Z</time></trkpt><trkpt lat="43.90796622089201" lon="10.527280500457566"><ele>42.0</ele><time>2026-04-04T11:40:19.15Z</time></trkpt><trkpt lat="43.9078043533745" lon="10.527414153886603"><ele>42.0</ele><time>2026-04-04T11:40:20.1Z</time></trkpt><trkpt lat="43.907642005837694" lon="10.527530618478815"><ele>42.0</ele><time>2026-04-04T11:40:21.05Z</time></trkpt><trkpt lat="43.90747342144146" lon="10.527635172988253"><ele>42.0</ele><time>2026-04-04T11:40:22Z</time></trkpt><trkpt lat="43.90729058465153" lon="10.527741840847858"><ele>41.0</ele><time>2026-04-04T11:40:23Z</time></trkpt><trkpt lat="43.90710525956933" lon="10.527843106754126"><ele>40.0</ele><time>2026-04-04T11:40:24Z</time></trkpt><trkpt lat="43.90691369765108" lon="10.527934395478415"><ele>39.0</ele><time>2026-04-04T11:40:25Z</time></trkpt><trkpt lat="43.90671782560918" lon="10.528023295235238"><ele>39.0</ele><time>2026-04-04T11:40:26Z</time></trkpt><trkpt lat="43.906526623104234" lon="10.528106146276544"><ele>39.0</ele><time>2026-04-04T11:40:27Z</time></trkpt><trkpt lat="43.906343145995045" lon="10.52818019995828"><ele>39.0</ele><time>2026-04-04T11:40:28Z</time></trkpt><trkpt lat="43.90615331265453" lon="10.528259338432067"><ele>39.0</ele><time>2026-04-04T11:40:29Z</time></trkpt><trkpt lat="43.905965292022266" lon="10.528342750392076"><ele>39.0</ele><time>2026-04-04T11:40:30Z</time></trkpt><trkpt lat="43.90577780456681" lon="10.528425818237968"><ele>39.0</ele><time>2026-04-04T11:40:31Z</time></trkpt><trkpt lat="43.90559298540426" lon="10.528521876196505"><ele>38.666666666666664</ele><time>2026-04-04T11:40:32Z</time></trkpt><trkpt lat="43.90541078847699" lon="10.528633154160802"><ele>38.33333333333333</ele><time>2026-04-04T11:40:33Z</time></trkpt><trkpt lat="43.905239895832004" lon="10.528748155867328"><ele>38.0</ele><time>2026-04-04T11:40:34Z</time></trkpt><trkpt lat="43.90506589469913" lon="10.528872498438389"><ele>38.0</ele><time>2026-04-04T11:40:35Z</time></trkpt><trkpt lat="43.904897014294335" lon="10.529012103886787"><ele>38.0</ele><time>2026-04-04T11:40:36Z</time></trkpt><trkpt lat="43.90472530689597" lon="10.529151052266224"><ele>38.0</ele><time>2026-04-04T11:40:37Z</time></trkpt><trkpt lat="43.90455912610867" lon="10.52930784518158"><ele>38.0</ele><time>2026-04-04T11:40:38Z</time></trkpt><trkpt lat="43.90439534050067" lon="10.529456119563966"><ele>38.0</ele><time>2026-04-04T11:40:39Z</time></trkpt><trkpt lat="43.90423122264855" lon="10.529603509882152"><ele>38.0</ele><time>2026-04-04T11:40:40Z</time></trkpt><trkpt lat="43.904067194318756" lon="10.52975389712943"><ele>39.33333333333333</ele><time>2026-04-04T11:40:41Z</time></trkpt><trkpt lat="43.90390184632451" lon="10.52990870853583"><ele>40.666666666666664</ele><time>2026-04-04T11:40:42Z</time></trkpt><trkpt lat="43.90373924968564" lon="10.530060333906304"><ele>42.0</ele><time>2026-04-04T11:40:43Z</time></trkpt><trkpt lat="43.903573879998554" lon="10.530211121506216"><ele>41.0</ele><time>2026-04-04T11:40:44Z</time></trkpt><trkpt lat="43.9034104096673" lon="10.530359565237221"><ele>40.0</ele><time>2026-04-04T11:40:45Z</time></trkpt><trkpt lat="43.90324580382258" lon="10.53050648907415"><ele>39.0</ele><time>2026-04-04T11:40:46Z</time></trkpt><trkpt lat="43.903080631511806" lon="10.530658830061402"><ele>39.0</ele><time>2026-04-04T11:40:47Z</time></trkpt><trkpt lat="43.902915959201685" lon="10.530805278840363"><ele>39.0</ele><time>2026-04-04T11:40:48Z</time></trkpt><trkpt lat="43.90275220469823" lon="10.530956859177037"><ele>39.0</ele><time>2026-04-04T11:40:49Z</time></trkpt><trkpt lat="43.90258367085286" lon="10.531105347895068"><ele>37.666666666666664</ele><time>2026-04-04T11:40:50Z</time></trkpt><trkpt lat="43.90241686171568" lon="10.531250114067221"><ele>36.33333333333333</ele><time>2026-04-04T11:40:51Z</time></trkpt><trkpt lat="43.90225427155047" lon="10.531380290265593"><ele>35.0</ele><time>2026-04-04T11:40:52Z</time></trkpt><trkpt lat="43.902096002370605" lon="10.531478636076288"><ele>35.0</ele><time>2026-04-04T11:40:53Z</time></trkpt><trkpt lat="43.901946592978696" lon="10.531591884845936"><ele>35.0</ele><time>2026-04-04T11:40:54Z</time></trkpt><trkpt lat="43.90178970391149" lon="10.531678920358026"><ele>35.0</ele><time>2026-04-04T11:40:55Z</time></trkpt><trkpt lat="43.901637920467614" lon="10.531758942689402"><ele>38.0</ele><time>2026-04-04T11:40:56Z</time></trkpt><trkpt lat="43.90147557608033" lon="10.531837270618535"><ele>41.0</ele><time>2026-04-04T11:40:57Z</time></trkpt><trkpt lat="43.90133125238827" lon="10.531897863659086"><ele>44.0</ele><time>2026-04-04T11:40:58Z</time></trkpt><trkpt lat="43.90118160512244" lon="10.531957589961046"><ele>44.0</ele><time>2026-04-04T11:40:59Z</time></trkpt><trkpt lat="43.90103268769112" lon="10.532009895898923"><ele>44.0</ele><time>2026-04-04T11:41:00Z</time></trkpt><trkpt lat="43.90088176990889" lon="10.532058250244436"><ele>44.0</ele><time>2026-04-04T11:41:01Z</time></trkpt><trkpt lat="43.900721190882074" lon="10.532102510358351"><ele>41.33333333333333</ele><time>2026-04-04T11:41:02Z</time></trkpt><trkpt lat="43.90055881247754" lon="10.532150677812151"><ele>38.666666666666664</ele><time>2026-04-04T11:41:03Z</time></trkpt><trkpt lat="43.90038964725138" lon="10.532191282354379"><ele>36.0</ele><time>2026-04-04T11:41:04Z</time></trkpt><trkpt lat="43.90022583976772" lon="10.532238852282001"><ele>36.333333333333336</ele><time>2026-04-04T11:41:05Z</time></trkpt><trkpt lat="43.90005767065792" lon="10.532291807709221"><ele>36.66666666666667</ele><time>2026-04-04T11:41:06Z</time></trkpt><trkpt lat="43.899885963579" lon="10.532353472574298"><ele>37.0</ele><time>2026-04-04T11:41:07Z</time></trkpt><trkpt lat="43.89971084203631" lon="10.532439369241237"><ele>37.0</ele><time>2026-04-04T11:41:08Z</time></trkpt><trkpt lat="43.89954776820104" lon="10.532543379625713"><ele>37.0</ele><time>2026-04-04T11:41:09Z</time></trkpt><trkpt lat="43.89941324737368" lon="10.532655587453608"><ele>37.0</ele><time>2026-04-04T11:41:10Z</time></trkpt><trkpt lat="43.899288369549055" lon="10.532792219555741"><ele>36.333333333333336</ele><time>2026-04-04T11:41:11Z</time></trkpt><trkpt lat="43.899168735699504" lon="10.53294597535063"><ele>35.666666666666664</ele><time>2026-04-04T11:41:12Z</time></trkpt><trkpt lat="43.89906243146363" lon="10.533110362441391"><ele>35.0</ele><time>2026-04-04T11:41:13Z</time></trkpt><trkpt lat="43.89896179471517" lon="10.533257210922713"><ele>35.0</ele><time>2026-04-04T11:41:14Z</time></trkpt><trkpt lat="43.898860621778404" lon="10.533401036051476"><ele>35.0</ele><time>2026-04-04T11:41:15Z</time></trkpt><trkpt lat="43.898756114416585" lon="10.533552857869614"><ele>35.0</ele><time>2026-04-04T11:41:16Z</time></trkpt><trkpt lat="43.89865023815103" lon="10.533710717685157"><ele>34.25</ele><time>2026-04-04T11:41:17Z</time></trkpt><trkpt lat="43.89855041015867" lon="10.533861839618341"><ele>33.5</ele><time>2026-04-04T11:41:18Z</time></trkpt><trkpt lat="43.898451239596156" lon="10.53400772204307"><ele>32.75</ele><time>2026-04-04T11:41:19Z</time></trkpt><trkpt lat="43.89834203331462" lon="10.534158695597792"><ele>32.0</ele><time>2026-04-04T11:41:20Z</time></trkpt><trkpt lat="43.89822382582735" lon="10.534314718296748"><ele>32.0</ele><time>2026-04-04T11:41:21Z</time></trkpt><trkpt lat="43.89810997197264" lon="10.534472061411382"><ele>32.0</ele><time>2026-04-04T11:41:22Z</time></trkpt><trkpt lat="43.897999132283566" lon="10.534630979695091"><ele>32.0</ele><time>2026-04-04T11:41:23Z</time></trkpt><trkpt lat="43.897887185841405" lon="10.534792617141209"><ele>32.33333333333333</ele><time>2026-04-04T11:41:24Z</time></trkpt><trkpt lat="43.89777578468864" lon="10.534955896545592"><ele>32.666666666666664</ele><time>2026-04-04T11:41:25Z</time></trkpt><trkpt lat="43.89766397048291" lon="10.535124384464279"><ele>33.0</ele><time>2026-04-04T11:41:26Z</time></trkpt><trkpt lat="43.89755722333696" lon="10.53528682513114"><ele>33.333333333333336</ele><time>2026-04-04T11:41:27Z</time></trkpt><trkpt lat="43.897441350538465" lon="10.535452760213149"><ele>33.66666666666667</ele><time>2026-04-04T11:41:28Z</time></trkpt><trkpt lat="43.89732713796348" lon="10.535612399526684"><ele>34.0</ele><time>2026-04-04T11:41:29Z</time></trkpt><trkpt lat="43.8972214367769" lon="10.535759463497667"><ele>34.0</ele><time>2026-04-04T11:41:30Z</time></trkpt><trkpt lat="43.89710979405769" lon="10.535903465008357"><ele>34.0</ele><time>2026-04-04T11:41:31Z</time></trkpt><trkpt lat="43.89701635501944" lon="10.536038134987509"><ele>34.0</ele><time>2026-04-04T11:41:32Z</time></trkpt><trkpt lat="43.896918012236185" lon="10.536177977916646"><ele>34.0</ele><time>2026-04-04T11:41:33Z</time></trkpt><trkpt lat="43.89681720524934" lon="10.536309578888064"><ele>33.75</ele><time>2026-04-04T11:41:34Z</time></trkpt><trkpt lat="43.89671082106427" lon="10.536412532117623"><ele>33.5</ele><time>2026-04-04T11:41:35Z</time></trkpt><trkpt lat="43.8966082327452" lon="10.536496719928026"><ele>33.25</ele><time>2026-04-04T11:41:36Z</time></trkpt><trkpt lat="43.896507395625726" lon="10.536556608319643"><ele>33.0</ele><time>2026-04-04T11:41:37Z</time></trkpt><trkpt lat="43.89639600778986" lon="10.53658450651251"><ele>33.0</ele><time>2026-04-04T11:41:38Z</time></trkpt><trkpt lat="43.89626912340781" lon="10.536584779583437"><ele>33.0</ele><time>2026-04-04T11:41:39Z</time></trkpt><trkpt lat="43.89615378159131" lon="10.536552399336252"><ele>33.0</ele><time>2026-04-04T11:41:40Z</time></trkpt><trkpt lat="43.89604379887795" lon="10.536574620163229"><ele>33.0</ele><time>2026-04-04T11:41:41Z</time></trkpt><trkpt lat="43.895943366054084" lon="10.536669940408288"><ele>33.0</ele><time>2026-04-04T11:41:42Z</time></trkpt><trkpt lat="43.8958621098821" lon="10.536801267960106"><ele>33.0</ele><time>2026-04-04T11:41:43Z</time></trkpt><trkpt lat="43.89577773607167" lon="10.536993559825188"><ele>33.0</ele><time>2026-04-04T11:41:44Z</time></trkpt><trkpt lat="43.89566448440115" lon="10.537156288543539"><ele>33.0</ele><time>2026-04-04T11:41:45Z</time></trkpt><trkpt lat="43.8955466119044" lon="10.537272015278624"><ele>33.0</ele><time>2026-04-04T11:41:46Z</time></trkpt><trkpt lat="43.89542133730588" lon="10.537346797243687"><ele>33.0</ele><time>2026-04-04T11:41:47Z</time></trkpt><trkpt lat="43.89527155964902" lon="10.53734420505936"><ele>33.0</ele><time>2026-04-04T11:41:48Z</time></trkpt><trkpt lat="43.895129711136086" lon="10.537345486459929"><ele>33.666666666666664</ele><time>2026-04-04T11:41:49Z</time></trkpt><trkpt lat="43.894948149455445" lon="10.537341901248789"><ele>34.33333333333333</ele><time>2026-04-04T11:41:50Z</time></trkpt><trkpt lat="43.89477768062573" lon="10.537359733570169"><ele>35.0</ele><time>2026-04-04T11:41:51Z</time></trkpt><trkpt lat="43.89462878871947" lon="10.53734876102523"><ele>35.0</ele><time>2026-04-04T11:41:52Z</time></trkpt><trkpt lat="43.89449174228089" lon="10.537343413036467"><ele>35.0</ele><time>2026-04-04T11:41:53Z</time></trkpt><trkpt lat="43.89435127977959" lon="10.537340113734045"><ele>35.0</ele><time>2026-04-04T11:41:54Z</time></trkpt><trkpt lat="43.89420386769924" lon="10.537338552333596"><ele>35.0</ele><time>2026-04-04T11:41:55Z</time></trkpt><trkpt lat="43.89405050011914" lon="10.537336515327958"><ele>34.666666666666664</ele><time>2026-04-04T11:41:56Z</time></trkpt><trkpt lat="43.89389296212105" lon="10.537335288875301"><ele>34.333333333333336</ele><time>2026-04-04T11:41:57Z</time></trkpt><trkpt lat="43.89373012271006" lon="10.53733766352742"><ele>34.0</ele><time>2026-04-04T11:41:58Z</time></trkpt><trkpt lat="43.89356280648172" lon="10.537332245588964"><ele>33.66666666666667</ele><time>2026-04-04T11:41:59Z</time></trkpt><trkpt lat="43.89339346169334" lon="10.537319012374539"><ele>33.333333333333336</ele><time>2026-04-04T11:42:00Z</time></trkpt><trkpt lat="43.893216710908625" lon="10.537309844367801"><ele>33.0</ele><time>2026-04-04T11:42:01Z</time></trkpt><trkpt lat="43.89303519170903" lon="10.53729956288329"><ele>33.0</ele><time>2026-04-04T11:42:02Z</time></trkpt><trkpt lat="43.892854077716144" lon="10.537240710337645"><ele>33.0</ele><time>2026-04-04T11:42:03Z</time></trkpt><trkpt lat="43.89266519851788" lon="10.537191909278397"><ele>33.0</ele><time>2026-04-04T11:42:04Z</time></trkpt><trkpt lat="43.892480178346176" lon="10.537119452199384"><ele>33.0</ele><time>2026-04-04T11:42:05Z</time></trkpt><trkpt lat="43.892302158517076" lon="10.537034072575906"><ele>33.0</ele><time>2026-04-04T11:42:06Z</time></trkpt><trkpt lat="43.89214088595951" lon="10.53694412030677"><ele>33.0</ele><time>2026-04-04T11:42:07Z</time></trkpt><trkpt lat="43.89199309773061" lon="10.536853745528518"><ele>33.0</ele><time>2026-04-04T11:42:08Z</time></trkpt><trkpt lat="43.891844239142564" lon="10.536765604109153"><ele>33.0</ele><time>2026-04-04T11:42:09Z</time></trkpt><trkpt lat="43.891685877213334" lon="10.536682482717236"><ele>33.0</ele><time>2026-04-04T11:42:10Z</time></trkpt><trkpt lat="43.89151231548384" lon="10.536598732749342"><ele>32.666666666666664</ele><time>2026-04-04T11:42:11Z</time></trkpt><trkpt lat="43.89133616461481" lon="10.536514047718606"><ele>32.33333333333333</ele><time>2026-04-04T11:42:12Z</time></trkpt><trkpt lat="43.89115764193454" lon="10.536429387569282"><ele>32.0</ele><time>2026-04-04T11:42:13Z</time></trkpt><trkpt lat="43.89098142881449" lon="10.536344772584808"><ele>31.666666666666664</ele><time>2026-04-04T11:42:14Z</time></trkpt><trkpt lat="43.89079873513906" lon="10.536261520771154"><ele>31.333333333333336</ele><time>2026-04-04T11:42:15Z</time></trkpt><trkpt lat="43.89061018260918" lon="10.536176632383395"><ele>31.0</ele><time>2026-04-04T11:42:16Z</time></trkpt><trkpt lat="43.89042972919" lon="10.536086399509605"><ele>30.666666666666668</ele><time>2026-04-04T11:42:17Z</time></trkpt><trkpt lat="43.890248150566585" lon="10.535993285942451"><ele>30.333333333333336</ele><time>2026-04-04T11:42:18Z</time></trkpt><trkpt lat="43.89007130859317" lon="10.535900651622502"><ele>30.0</ele><time>2026-04-04T11:42:19Z</time></trkpt><trkpt lat="43.8898999208133" lon="10.535805797737325"><ele>30.0</ele><time>2026-04-04T11:42:20Z</time></trkpt><trkpt lat="43.88972885426554" lon="10.53571519974522"><ele>30.0</ele><time>2026-04-04T11:42:21Z</time></trkpt><trkpt lat="43.88955507983262" lon="10.535628005020905"><ele>30.0</ele><time>2026-04-04T11:42:22Z</time></trkpt><trkpt lat="43.889382345960385" lon="10.53553797282766"><ele>30.0</ele><time>2026-04-04T11:42:23Z</time></trkpt><trkpt lat="43.88920775047654" lon="10.535446713232863"><ele>30.0</ele><time>2026-04-04T11:42:24Z</time></trkpt><trkpt lat="43.88908853277069" lon="10.53537348883675"><ele>30.0</ele><time>2026-04-04T11:42:25Z</time></trkpt><trkpt lat="43.888967378528605" lon="10.535306600575282"><ele>30.0</ele><time>2026-04-04T11:42:26Z</time></trkpt><trkpt lat="43.88887561405669" lon="10.53526473341475"><ele>30.0</ele><time>2026-04-04T11:42:27Z</time></trkpt><trkpt lat="43.88880631690817" lon="10.535232772564406"><ele>30.0</ele><time>2026-04-04T11:42:28Z</time></trkpt><trkpt lat="43.8887286076811" lon="10.535193092769342"><ele>30.0</ele><time>2026-04-04T11:42:30Z</time></trkpt><trkpt lat="43.88863854873451" lon="10.535146504616524"><ele>30.0</ele><time>2026-04-04T11:42:32Z</time></trkpt><trkpt lat="43.88853803785985" lon="10.535090755447317"><ele>30.0</ele><time>2026-04-04T11:42:33Z</time></trkpt><trkpt lat="43.888440331922865" lon="10.53504544525941"><ele>30.2</ele><time>2026-04-04T11:42:34Z</time></trkpt><trkpt lat="43.88836116109406" lon="10.534979686213468"><ele>30.4</ele><time>2026-04-04T11:42:35Z</time></trkpt><trkpt lat="43.888298467972206" lon="10.534946647892829"><ele>30.6</ele><time>2026-04-04T11:42:36Z</time></trkpt><trkpt lat="43.888260107171945" lon="10.535175556463555"><ele>30.8</ele><time>2026-04-04T11:42:39Z</time></trkpt><trkpt lat="43.88832109357382" lon="10.535263647963793"><ele>31.0</ele><time>2026-04-04T11:42:40Z</time></trkpt><trkpt lat="43.888396031305966" lon="10.535275588784376"><ele>30.833333333333336</ele><time>2026-04-04T11:42:41Z</time></trkpt><trkpt lat="43.888464880490744" lon="10.535297358139081"><ele>30.666666666666668</ele><time>2026-04-04T11:42:42Z</time></trkpt><trkpt lat="43.88854131066391" lon="10.535317452415878"><ele>30.5</ele><time>2026-04-04T11:42:43Z</time></trkpt><trkpt lat="43.8886107855394" lon="10.535297648074057"><ele>30.333333333333336</ele><time>2026-04-04T11:42:44Z</time></trkpt><trkpt lat="43.88867127055947" lon="10.535250038124694"><ele>30.166666666666668</ele><time>2026-04-04T11:42:46Z</time></trkpt><trkpt lat="43.88881610668048" lon="10.535276807352362"><ele>30.0</ele><time>2026-04-04T11:42:51Z</time></trkpt><trkpt lat="43.88894053821222" lon="10.535348361463791"><ele>30.0</ele><time>2026-04-04T11:42:52Z</time></trkpt><trkpt lat="43.88909549584049" lon="10.535436459803588"><ele>30.0</ele><time>2026-04-04T11:42:53Z</time></trkpt><trkpt lat="43.8892057094628" lon="10.535496108757055"><ele>30.0</ele><time>2026-04-04T11:42:54Z</time></trkpt><trkpt lat="43.88929755096961" lon="10.535542335050383"><ele>30.0</ele><time>2026-04-04T11:42:55Z</time></trkpt><trkpt lat="43.88937854223839" lon="10.535589568653176"><ele>30.0</ele><time>2026-04-04T11:42:56Z</time></trkpt><trkpt lat="43.88944391740479" lon="10.53562475700792"><ele>30.0</ele><time>2026-04-04T11:42:57Z</time></trkpt><trkpt lat="43.889503343163476" lon="10.535659594384741"><ele>30.0</ele><time>2026-04-04T11:42:58Z</time></trkpt><trkpt lat="43.88953702419806" lon="10.535763703028547"><ele>30.0</ele><time>2026-04-04T11:43:00Z</time></trkpt><trkpt lat="43.88948501388098" lon="10.535891704362417"><ele>30.0</ele><time>2026-04-04T11:43:02Z</time></trkpt><trkpt lat="43.88937897430426" lon="10.535909650386456"><ele>30.0</ele><time>2026-04-04T11:43:04Z</time></trkpt><trkpt lat="43.88931391868693" lon="10.53585160735889"><ele>30.0</ele><time>2026-04-04T11:43:05Z</time></trkpt><trkpt lat="43.889233994424224" lon="10.535767257304272"><ele>30.0</ele><time>2026-04-04T11:43:06Z</time></trkpt><trkpt lat="43.88913181998018" lon="10.535684527565198"><ele>30.0</ele><time>2026-04-04T11:43:07Z</time></trkpt><trkpt lat="43.88903328611474" lon="10.535604975288127"><ele>30.0</ele><time>2026-04-04T11:43:08Z</time></trkpt><trkpt lat="43.888949524585094" lon="10.535557572525395"><ele>30.0</ele><time>2026-04-04T11:43:09Z</time></trkpt><trkpt lat="43.88887825064922" lon="10.535516892686319"><ele>30.0</ele><time>2026-04-04T11:43:10Z</time></trkpt><trkpt lat="43.888796740927305" lon="10.535470489731198"><ele>30.0</ele><time>2026-04-04T11:43:12Z</time></trkpt><trkpt lat="43.88892205467564" lon="10.535591779913986"><ele>30.0</ele><time>2026-04-04T11:43:23Z</time></trkpt><trkpt lat="43.888983098366324" lon="10.535626325698464"><ele>30.0</ele><time>2026-04-04T11:43:24Z</time></trkpt><trkpt lat="43.88889531691281" lon="10.53566948117182"><ele>30.0</ele><time>2026-04-04T11:43:29Z</time></trkpt><trkpt lat="43.888901308875276" lon="10.535530019571455"><ele>30.0</ele><time>2026-04-04T11:43:32Z</time></trkpt><trkpt lat="43.88895687412809" lon="10.535680873711652"><ele>30.0</ele><time>2026-04-04T11:43:37Z</time></trkpt><trkpt lat="43.88885685569199" lon="10.535547817908936"><ele>30.0</ele><time>2026-04-04T11:46:16Z</time></trkpt><trkpt lat="43.888806455026575" lon="10.535480552710395"><ele>30.0</ele><time>2026-04-04T11:46:19Z</time></trkpt><trkpt lat="43.88886245996791" lon="10.535420742366442"><ele>30.0</ele><time>2026-04-04T11:46:23Z</time></trkpt><trkpt lat="43.88893186251836" lon="10.535482526992833"><ele>30.0</ele><time>2026-04-04T11:46:25Z</time></trkpt><trkpt lat="43.88897390022689" lon="10.535583767634781"><ele>30.0</ele><time>2026-04-04T11:46:28Z</time></trkpt><trkpt lat="43.88899386323181" lon="10.535689261824391"><ele>30.0</ele><time>2026-04-04T11:46:31Z</time></trkpt><trkpt lat="43.889005015061684" lon="10.535775361487191"><ele>30.0</ele><time>2026-04-04T11:49:01Z</time></trkpt><trkpt lat="43.88895660542597" lon="10.53583946936776"><ele>30.0</ele><time>2026-04-04T11:57:33Z</time></trkpt><trkpt lat="43.888985308802276" lon="10.535939738729251"><ele>30.0</ele><time>2026-04-04T12:00:08Z</time></trkpt><trkpt lat="43.88903192835887" lon="10.536001696513953"><ele>30.0</ele><time>2026-04-04T12:00:09Z</time></trkpt><trkpt lat="43.889114441384635" lon="10.53605677341287"><ele>30.0</ele><time>2026-04-04T12:00:10Z</time></trkpt><trkpt lat="43.889209973450406" lon="10.536089215038144"><ele>30.0</ele><time>2026-04-04T12:00:11Z</time></trkpt><trkpt lat="43.88928566908975" lon="10.536089116025472"><ele>30.0</ele><time>2026-04-04T12:00:12Z</time></trkpt><trkpt lat="43.88935275061044" lon="10.536065218981365"><ele>30.0</ele><time>2026-04-04T12:00:13Z</time></trkpt><trkpt lat="43.889454779281905" lon="10.536014662780673"><ele>30.0</ele><time>2026-04-04T12:00:15Z</time></trkpt><trkpt lat="43.889548782300004" lon="10.535914207310768"><ele>30.0</ele><time>2026-04-04T12:00:17Z</time></trkpt><trkpt lat="43.88958428910347" lon="10.535819174130793"><ele>30.0</ele><time>2026-04-04T12:00:18Z</time></trkpt><trkpt lat="43.88960860725422" lon="10.535731189931758"><ele>30.0</ele><time>2026-04-04T12:00:20Z</time></trkpt><trkpt lat="43.88951778819563" lon="10.535587865249472"><ele>30.0</ele><time>2026-04-04T12:00:27Z</time></trkpt><trkpt lat="43.88943374290225" lon="10.535530363181525"><ele>30.0</ele><time>2026-04-04T12:00:28Z</time></trkpt><trkpt lat="43.889292600160054" lon="10.535458654605188"><ele>30.0</ele><time>2026-04-04T12:00:29Z</time></trkpt><trkpt lat="43.88912148140622" lon="10.535378928720139"><ele>30.0</ele><time>2026-04-04T12:00:30Z</time></trkpt><trkpt lat="43.88897282946806" lon="10.535305108851025"><ele>30.0</ele><time>2026-04-04T12:00:31Z</time></trkpt><trkpt lat="43.88882086841419" lon="10.535216792377708"><ele>30.0</ele><time>2026-04-04T12:00:32Z</time></trkpt><trkpt lat="43.888631409847456" lon="10.535122346128786"><ele>30.0</ele><time>2026-04-04T12:00:33Z</time></trkpt><trkpt lat="43.88843440336248" lon="10.5350212903756"><ele>30.0</ele><time>2026-04-04T12:00:34Z</time></trkpt><trkpt lat="43.88824802396726" lon="10.534926522613919"><ele>30.333333333333336</ele><time>2026-04-04T12:00:35Z</time></trkpt><trkpt lat="43.888070403311346" lon="10.534835138952866"><ele>30.666666666666668</ele><time>2026-04-04T12:00:36Z</time></trkpt><trkpt lat="43.88790186255463" lon="10.534747226849218"><ele>31.0</ele><time>2026-04-04T12:00:37Z</time></trkpt><trkpt lat="43.88773819011616" lon="10.534660599708706"><ele>31.333333333333336</ele><time>2026-04-04T12:00:38Z</time></trkpt><trkpt lat="43.88757072960774" lon="10.534571843554824"><ele>31.666666666666664</ele><time>2026-04-04T12:00:39Z</time></trkpt><trkpt lat="43.88739851534655" lon="10.534483426517289"><ele>32.0</ele><time>2026-04-04T12:00:40Z</time></trkpt><trkpt lat="43.88722209838678" lon="10.5343910355025"><ele>32.0</ele><time>2026-04-04T12:00:41Z</time></trkpt><trkpt lat="43.88704062039936" lon="10.534297246850972"><ele>32.0</ele><time>2026-04-04T12:00:42Z</time></trkpt><trkpt lat="43.88685806128011" lon="10.534199734909405"><ele>32.0</ele><time>2026-04-04T12:00:43Z</time></trkpt><trkpt lat="43.8866735853646" lon="10.534100777119894"><ele>32.0</ele><time>2026-04-04T12:00:44Z</time></trkpt><trkpt lat="43.88648529455474" lon="10.534001339689866"><ele>32.0</ele><time>2026-04-04T12:00:45Z</time></trkpt><trkpt lat="43.886296573259685" lon="10.533900565060755"><ele>32.0</ele><time>2026-04-04T12:00:46Z</time></trkpt><trkpt lat="43.88610106618408" lon="10.533798755250839"><ele>31.333333333333332</ele><time>2026-04-04T12:00:47Z</time></trkpt><trkpt lat="43.88591318424857" lon="10.533704816228331"><ele>30.666666666666664</ele><time>2026-04-04T12:00:48Z</time></trkpt><trkpt lat="43.885716088646475" lon="10.533601488744617"><ele>30.0</ele><time>2026-04-04T12:00:49Z</time></trkpt><trkpt lat="43.885522932480285" lon="10.533506394238408"><ele>30.0</ele><time>2026-04-04T12:00:50Z</time></trkpt><trkpt lat="43.88532936778028" lon="10.533408198751935"><ele>30.0</ele><time>2026-04-04T12:00:51Z</time></trkpt><trkpt lat="43.88513146167538" lon="10.533308441222418"><ele>30.0</ele><time>2026-04-04T12:00:52Z</time></trkpt><trkpt lat="43.88493614130406" lon="10.533206232550556"><ele>30.333333333333336</ele><time>2026-04-04T12:00:53Z</time></trkpt><trkpt lat="43.88473901594383" lon="10.53310491693983"><ele>30.666666666666668</ele><time>2026-04-04T12:00:54Z</time></trkpt><trkpt lat="43.88453693614369" lon="10.532994966957537"><ele>31.0</ele><time>2026-04-04T12:00:55Z</time></trkpt><trkpt lat="43.8843367630746" lon="10.53289191893528"><ele>30.0</ele><time>2026-04-04T12:00:56Z</time></trkpt><trkpt lat="43.88413306051306" lon="10.532784764729545"><ele>29.0</ele><time>2026-04-04T12:00:57Z</time></trkpt><trkpt lat="43.883930891450234" lon="10.53268159691716"><ele>28.0</ele><time>2026-04-04T12:00:58Z</time></trkpt><trkpt lat="43.88373160365562" lon="10.532579527951354"><ele>28.0</ele><time>2026-04-04T12:00:59Z</time></trkpt><trkpt lat="43.88353106349007" lon="10.53247743963895"><ele>28.0</ele><time>2026-04-04T12:01:00Z</time></trkpt><trkpt lat="43.88333109190557" lon="10.532374389084692"><ele>28.0</ele><time>2026-04-04T12:01:01Z</time></trkpt><trkpt lat="43.88313016198294" lon="10.532250000556179"><ele>28.0</ele><time>2026-04-04T12:01:02Z</time></trkpt><trkpt lat="43.882922085842104" lon="10.532166760879262"><ele>28.0</ele><time>2026-04-04T12:01:03Z</time></trkpt><trkpt lat="43.882718993819616" lon="10.532060938992078"><ele>28.0</ele><time>2026-04-04T12:01:04Z</time></trkpt><trkpt lat="43.88251357044668" lon="10.53195384676991"><ele>28.0</ele><time>2026-04-04T12:01:05Z</time></trkpt><trkpt lat="43.88230436156962" lon="10.53184671863589"><ele>28.0</ele><time>2026-04-04T12:01:06Z</time></trkpt><trkpt lat="43.88209823840948" lon="10.53173242743633"><ele>28.0</ele><time>2026-04-04T12:01:07Z</time></trkpt><trkpt lat="43.88189302021487" lon="10.531611173634943"><ele>28.0</ele><time>2026-04-04T12:01:08Z</time></trkpt><trkpt lat="43.8816908220742" lon="10.531477842800108"><ele>28.0</ele><time>2026-04-04T12:01:09Z</time></trkpt><trkpt lat="43.88148684661355" lon="10.531333574154411"><ele>28.5</ele><time>2026-04-04T12:01:10Z</time></trkpt><trkpt lat="43.881286552695215" lon="10.53119367010559"><ele>29.0</ele><time>2026-04-04T12:01:11Z</time></trkpt><trkpt lat="43.88107759045267" lon="10.53106089822065"><ele>28.5</ele><time>2026-04-04T12:01:12Z</time></trkpt><trkpt lat="43.88085936638648" lon="10.530932504817265"><ele>28.0</ele><time>2026-04-04T12:01:13Z</time></trkpt><trkpt lat="43.88064018488182" lon="10.530814242057438"><ele>28.0</ele><time>2026-04-04T12:01:14Z</time></trkpt><trkpt lat="43.880411518901624" lon="10.530701614047693"><ele>28.0</ele><time>2026-04-04T12:01:15Z</time></trkpt><trkpt lat="43.880189766211664" lon="10.530587034075767"><ele>27.666666666666668</ele><time>2026-04-04T12:01:16Z</time></trkpt><trkpt lat="43.87998327943261" lon="10.530477035670751"><ele>27.333333333333336</ele><time>2026-04-04T12:01:17Z</time></trkpt><trkpt lat="43.87978364959319" lon="10.530373224464073"><ele>27.0</ele><time>2026-04-04T12:01:18Z</time></trkpt><trkpt lat="43.87959033336921" lon="10.530276933473958"><ele>27.333333333333336</ele><time>2026-04-04T12:01:19Z</time></trkpt><trkpt lat="43.87940387065199" lon="10.53018238827835"><ele>27.666666666666668</ele><time>2026-04-04T12:01:20Z</time></trkpt><trkpt lat="43.87921486484381" lon="10.53008790180013"><ele>28.0</ele><time>2026-04-04T12:01:21Z</time></trkpt><trkpt lat="43.879028874782676" lon="10.529989097267196"><ele>28.0</ele><time>2026-04-04T12:01:22Z</time></trkpt><trkpt lat="43.878844400111284" lon="10.529889772586108"><ele>28.0</ele><time>2026-04-04T12:01:23Z</time></trkpt><trkpt lat="43.878655847578734" lon="10.52978918321905"><ele>28.0</ele><time>2026-04-04T12:01:24Z</time></trkpt><trkpt lat="43.87846536454127" lon="10.52968946086268"><ele>27.333333333333336</ele><time>2026-04-04T12:01:25Z</time></trkpt><trkpt lat="43.878270763153246" lon="10.52958865073978"><ele>26.666666666666664</ele><time>2026-04-04T12:01:26Z</time></trkpt><trkpt lat="43.87807412644005" lon="10.529485407145568"><ele>26.0</ele><time>2026-04-04T12:01:27Z</time></trkpt><trkpt lat="43.87787350479462" lon="10.529379001008365"><ele>26.0</ele><time>2026-04-04T12:01:28Z</time></trkpt><trkpt lat="43.87767057637571" lon="10.529269742994288"><ele>26.0</ele><time>2026-04-04T12:01:29Z</time></trkpt><trkpt lat="43.87746455055427" lon="10.529159737423571"><ele>26.0</ele><time>2026-04-04T12:01:30Z</time></trkpt><trkpt lat="43.87725756805154" lon="10.52905469630337"><ele>26.0</ele><time>2026-04-04T12:01:31Z</time></trkpt><trkpt lat="43.87704902795134" lon="10.528944160961487"><ele>26.0</ele><time>2026-04-04T12:01:32Z</time></trkpt><trkpt lat="43.876840364778346" lon="10.52883374591254"><ele>26.0</ele><time>2026-04-04T12:01:33Z</time></trkpt><trkpt lat="43.87663058991835" lon="10.528722499795439"><ele>28.0</ele><time>2026-04-04T12:01:34Z</time></trkpt><trkpt lat="43.87641943911054" lon="10.528609936549007"><ele>30.0</ele><time>2026-04-04T12:01:35Z</time></trkpt><trkpt lat="43.876206051449664" lon="10.528500158550367"><ele>30.0</ele><time>2026-04-04T12:01:36Z</time></trkpt><trkpt lat="43.87599406070308" lon="10.52837146549665"><ele>30.0</ele><time>2026-04-04T12:01:37Z</time></trkpt><trkpt lat="43.87577532179763" lon="10.528257789556388"><ele>29.0</ele><time>2026-04-04T12:01:38Z</time></trkpt><trkpt lat="43.87555177220246" lon="10.528147683862803"><ele>28.0</ele><time>2026-04-04T12:01:39Z</time></trkpt><trkpt lat="43.87532015240571" lon="10.528056944215294"><ele>27.5</ele><time>2026-04-04T12:01:40Z</time></trkpt><trkpt lat="43.87509113501853" lon="10.52794183125956"><ele>27.0</ele><time>2026-04-04T12:01:41Z</time></trkpt><trkpt lat="43.874866005346284" lon="10.527832063474062"><ele>27.0</ele><time>2026-04-04T12:01:42Z</time></trkpt><trkpt lat="43.87464572412018" lon="10.527719438832365"><ele>27.0</ele><time>2026-04-04T12:01:43Z</time></trkpt><trkpt lat="43.87444155705246" lon="10.52762410282008"><ele>26.666666666666664</ele><time>2026-04-04T12:01:44Z</time></trkpt><trkpt lat="43.87424180515723" lon="10.527526749336346"><ele>26.333333333333332</ele><time>2026-04-04T12:01:45Z</time></trkpt><trkpt lat="43.87404830761714" lon="10.527432494473478"><ele>26.0</ele><time>2026-04-04T12:01:46Z</time></trkpt><trkpt lat="43.87385721218272" lon="10.527338153920859"><ele>26.0</ele><time>2026-04-04T12:01:47Z</time></trkpt><trkpt lat="43.87367569056513" lon="10.527219074052645"><ele>26.0</ele><time>2026-04-04T12:01:48Z</time></trkpt><trkpt lat="43.87348319529246" lon="10.527139821801017"><ele>26.0</ele><time>2026-04-04T12:01:49Z</time></trkpt><trkpt lat="43.87329482056837" lon="10.527035119015029"><ele>26.666666666666664</ele><time>2026-04-04T12:01:50Z</time></trkpt><trkpt lat="43.87309941612352" lon="10.526927380718732"><ele>27.333333333333336</ele><time>2026-04-04T12:01:51Z</time></trkpt><trkpt lat="43.872903387696304" lon="10.526817298360369"><ele>28.0</ele><time>2026-04-04T12:01:52Z</time></trkpt><trkpt lat="43.87270272049188" lon="10.526703489692249"><ele>28.0</ele><time>2026-04-04T12:01:53Z</time></trkpt><trkpt lat="43.872498497348786" lon="10.526588626852497"><ele>28.0</ele><time>2026-04-04T12:01:54Z</time></trkpt><trkpt lat="43.87229197119634" lon="10.526471757701806"><ele>28.0</ele><time>2026-04-04T12:01:55Z</time></trkpt><trkpt lat="43.87208587928665" lon="10.526350246038147"><ele>28.0</ele><time>2026-04-04T12:01:56Z</time></trkpt><trkpt lat="43.87187705619274" lon="10.526230096933528"><ele>28.0</ele><time>2026-04-04T12:01:57Z</time></trkpt><trkpt lat="43.87166756936499" lon="10.526112885759817"><ele>27.333333333333336</ele><time>2026-04-04T12:01:58Z</time></trkpt><trkpt lat="43.87146425694682" lon="10.525999248386057"><ele>26.666666666666664</ele><time>2026-04-04T12:01:59Z</time></trkpt><trkpt lat="43.871263762204414" lon="10.525884638612073"><ele>26.0</ele><time>2026-04-04T12:02:00Z</time></trkpt><trkpt lat="43.8710845036188" lon="10.525732437660878"><ele>25.666666666666664</ele><time>2026-04-04T12:02:01Z</time></trkpt><trkpt lat="43.870904190300195" lon="10.525583393258653"><ele>25.333333333333336</ele><time>2026-04-04T12:02:02Z</time></trkpt><trkpt lat="43.87072027425455" lon="10.525434747141176"><ele>25.0</ele><time>2026-04-04T12:02:03Z</time></trkpt><trkpt lat="43.87054719332935" lon="10.525257038748041"><ele>25.0</ele><time>2026-04-04T12:02:04Z</time></trkpt><trkpt lat="43.8703748848025" lon="10.525071335761828"><ele>25.0</ele><time>2026-04-04T12:02:05Z</time></trkpt><trkpt lat="43.87020010171551" lon="10.52488063444392"><ele>25.0</ele><time>2026-04-04T12:02:06Z</time></trkpt><trkpt lat="43.8700201655406" lon="10.524687699076841"><ele>26.0</ele><time>2026-04-04T12:02:07Z</time></trkpt><trkpt lat="43.86984253567275" lon="10.524485948708577"><ele>27.0</ele><time>2026-04-04T12:02:08Z</time></trkpt><trkpt lat="43.869662397412505" lon="10.524285301024413"><ele>27.0</ele><time>2026-04-04T12:02:09Z</time></trkpt><trkpt lat="43.86947652999212" lon="10.524085220911923"><ele>27.0</ele><time>2026-04-04T12:02:10Z</time></trkpt><trkpt lat="43.8692912832771" lon="10.523880632544008"><ele>26.0</ele><time>2026-04-04T12:02:11Z</time></trkpt><trkpt lat="43.86910833525574" lon="10.523674346055099"><ele>25.0</ele><time>2026-04-04T12:02:12Z</time></trkpt><trkpt lat="43.86892315909693" lon="10.523467483649368"><ele>25.0</ele><time>2026-04-04T12:02:13Z</time></trkpt><trkpt lat="43.86874399432669" lon="10.523265054898928"><ele>25.0</ele><time>2026-04-04T12:02:14Z</time></trkpt><trkpt lat="43.86857004773327" lon="10.523071495353223"><ele>25.333333333333336</ele><time>2026-04-04T12:02:15Z</time></trkpt><trkpt lat="43.86839988774919" lon="10.522883001323924"><ele>25.666666666666664</ele><time>2026-04-04T12:02:16Z</time></trkpt><trkpt lat="43.86823152229278" lon="10.52269751551245"><ele>26.0</ele><time>2026-04-04T12:02:17Z</time></trkpt><trkpt lat="43.86806488872181" lon="10.52251404068871"><ele>26.0</ele><time>2026-04-04T12:02:18Z</time></trkpt><trkpt lat="43.86790159502087" lon="10.522332785255436"><ele>26.0</ele><time>2026-04-04T12:02:19Z</time></trkpt><trkpt lat="43.86774638002972" lon="10.522160680565102"><ele>26.0</ele><time>2026-04-04T12:02:20Z</time></trkpt><trkpt lat="43.86759174738141" lon="10.521987669035635"><ele>25.666666666666664</ele><time>2026-04-04T12:02:21Z</time></trkpt><trkpt lat="43.867432974278636" lon="10.521815726401043"><ele>25.333333333333336</ele><time>2026-04-04T12:02:22Z</time></trkpt><trkpt lat="43.86727618046015" lon="10.521634175458281"><ele>25.0</ele><time>2026-04-04T12:02:23Z</time></trkpt><trkpt lat="43.86711425739767" lon="10.521459024055723"><ele>25.0</ele><time>2026-04-04T12:02:24Z</time></trkpt><trkpt lat="43.86696077336316" lon="10.521294205373783"><ele>25.0</ele><time>2026-04-04T12:02:25Z</time></trkpt><trkpt lat="43.8668168286233" lon="10.521136253687912"><ele>25.0</ele><time>2026-04-04T12:02:26Z</time></trkpt><trkpt lat="43.8666722449465" lon="10.520977950488447"><ele>25.0</ele><time>2026-04-04T12:02:27Z</time></trkpt><trkpt lat="43.86652835004164" lon="10.520820101149482"><ele>25.0</ele><time>2026-04-04T12:02:28Z</time></trkpt><trkpt lat="43.866387829572794" lon="10.520666286268646"><ele>25.0</ele><time>2026-04-04T12:02:29Z</time></trkpt><trkpt lat="43.86625497670621" lon="10.520524486747082"><ele>25.25</ele><time>2026-04-04T12:02:30Z</time></trkpt><trkpt lat="43.866137918235594" lon="10.520392362147545"><ele>25.5</ele><time>2026-04-04T12:02:31Z</time></trkpt><trkpt lat="43.86602467069788" lon="10.520269538264301"><ele>25.75</ele><time>2026-04-04T12:02:32Z</time></trkpt><trkpt lat="43.86591724341577" lon="10.520154628714282"><ele>26.0</ele><time>2026-04-04T12:02:33Z</time></trkpt><trkpt lat="43.86580683155493" lon="10.520036295565529"><ele>25.5</ele><time>2026-04-04T12:02:34Z</time></trkpt><trkpt lat="43.865693244178914" lon="10.51991179500623"><ele>25.0</ele><time>2026-04-04T12:02:35Z</time></trkpt><trkpt lat="43.865581469168575" lon="10.519788666848328"><ele>24.5</ele><time>2026-04-04T12:02:36Z</time></trkpt><trkpt lat="43.86548082689979" lon="10.519674780506426"><ele>24.0</ele><time>2026-04-04T12:02:37Z</time></trkpt><trkpt lat="43.865388527956725" lon="10.519568280275838"><ele>24.2</ele><time>2026-04-04T12:02:38Z</time></trkpt><trkpt lat="43.86529925534979" lon="10.519470522862326"><ele>24.4</ele><time>2026-04-04T12:02:39Z</time></trkpt><trkpt lat="43.86520881645211" lon="10.519371816273802"><ele>24.6</ele><time>2026-04-04T12:02:40Z</time></trkpt><trkpt lat="43.8651205989721" lon="10.519267268019613"><ele>24.8</ele><time>2026-04-04T12:02:41Z</time></trkpt><trkpt lat="43.86504850718874" lon="10.519163778706078"><ele>25.0</ele><time>2026-04-04T12:02:42Z</time></trkpt><trkpt lat="43.86498344907646" lon="10.519064752130168"><ele>25.333333333333336</ele><time>2026-04-04T12:02:43Z</time></trkpt><trkpt lat="43.864934241729934" lon="10.518970051886448"><ele>25.666666666666668</ele><time>2026-04-04T12:02:44Z</time></trkpt><trkpt lat="43.864893157533345" lon="10.518851433261483"><ele>26.0</ele><time>2026-04-04T12:02:45Z</time></trkpt><trkpt lat="43.86486122813701" lon="10.51874577115454"><ele>26.333333333333336</ele><time>2026-04-04T12:02:46Z</time></trkpt><trkpt lat="43.86481568890266" lon="10.518666727293246"><ele>26.666666666666668</ele><time>2026-04-04T12:02:47Z</time></trkpt><trkpt lat="43.864746126688836" lon="10.518614727587137"><ele>27.0</ele><time>2026-04-04T12:02:48Z</time></trkpt><trkpt lat="43.864656787348004" lon="10.518581662074133"><ele>27.200000000000003</ele><time>2026-04-04T12:02:49Z</time></trkpt><trkpt lat="43.86455795486236" lon="10.518570381491818"><ele>27.400000000000002</ele><time>2026-04-04T12:02:50Z</time></trkpt><trkpt lat="43.86445946908723" lon="10.518525124555158"><ele>27.599999999999998</ele><time>2026-04-04T12:02:51Z</time></trkpt><trkpt lat="43.86437306462328" lon="10.518448093358288"><ele>27.799999999999997</ele><time>2026-04-04T12:02:52Z</time></trkpt><trkpt lat="43.864277744924195" lon="10.51832654295599"><ele>28.0</ele><time>2026-04-04T12:02:53Z</time></trkpt><trkpt lat="43.86417847264396" lon="10.518214282742765"><ele>28.0</ele><time>2026-04-04T12:02:54Z</time></trkpt><trkpt lat="43.86407922285335" lon="10.518106111389645"><ele>28.0</ele><time>2026-04-04T12:02:55Z</time></trkpt><trkpt lat="43.863976797595434" lon="10.518004568957716"><ele>28.0</ele><time>2026-04-04T12:02:56Z</time></trkpt><trkpt lat="43.86388370698072" lon="10.517900583747258"><ele>28.0</ele><time>2026-04-04T12:02:57Z</time></trkpt><trkpt lat="43.86379045258038" lon="10.517795555121326"><ele>27.5</ele><time>2026-04-04T12:02:58Z</time></trkpt><trkpt lat="43.86370519315356" lon="10.517691233572776"><ele>27.0</ele><time>2026-04-04T12:02:59Z</time></trkpt><trkpt lat="43.863599394552146" lon="10.517580515691723"><ele>26.5</ele><time>2026-04-04T12:03:00Z</time></trkpt><trkpt lat="43.863495384713595" lon="10.517464363757002"><ele>26.0</ele><time>2026-04-04T12:03:01Z</time></trkpt><trkpt lat="43.863390193866636" lon="10.517340705944966"><ele>26.0</ele><time>2026-04-04T12:03:02Z</time></trkpt><trkpt lat="43.86328296278961" lon="10.517220738507518"><ele>26.0</ele><time>2026-04-04T12:03:03Z</time></trkpt><trkpt lat="43.86317183592705" lon="10.517096657330972"><ele>26.0</ele><time>2026-04-04T12:03:04Z</time></trkpt><trkpt lat="43.8630669302578" lon="10.516965070411505"><ele>26.0</ele><time>2026-04-04T12:03:05Z</time></trkpt><trkpt lat="43.862952687354166" lon="10.516835864760367"><ele>25.666666666666664</ele><time>2026-04-04T12:03:06Z</time></trkpt><trkpt lat="43.862830425751454" lon="10.516704625067897"><ele>25.333333333333336</ele><time>2026-04-04T12:03:07Z</time></trkpt><trkpt lat="43.86270706491165" lon="10.516569689327552"><ele>25.0</ele><time>2026-04-04T12:03:08Z</time></trkpt><trkpt lat="43.862583446207566" lon="10.516430084513827"><ele>24.333333333333336</ele><time>2026-04-04T12:03:09Z</time></trkpt><trkpt lat="43.8624576568278" lon="10.516290220228235"><ele>23.666666666666668</ele><time>2026-04-04T12:03:10Z</time></trkpt><trkpt lat="43.862332095793995" lon="10.516147626594261"><ele>23.0</ele><time>2026-04-04T12:03:11Z</time></trkpt><trkpt lat="43.862208298175055" lon="10.516005650245702"><ele>23.0</ele><time>2026-04-04T12:03:12Z</time></trkpt><trkpt lat="43.862071210235" lon="10.515874958726512"><ele>23.0</ele><time>2026-04-04T12:03:13Z</time></trkpt><trkpt lat="43.861927334846506" lon="10.515747289417815"><ele>23.0</ele><time>2026-04-04T12:03:14Z</time></trkpt><trkpt lat="43.861774742076406" lon="10.515629029787688"><ele>23.0</ele><time>2026-04-04T12:03:15Z</time></trkpt><trkpt lat="43.86160976158165" lon="10.515527287338006"><ele>23.0</ele><time>2026-04-04T12:03:16Z</time></trkpt><trkpt lat="43.861427884840055" lon="10.51544775220188"><ele>23.0</ele><time>2026-04-04T12:03:17Z</time></trkpt><trkpt lat="43.86125058335017" lon="10.51535674613898"><ele>23.0</ele><time>2026-04-04T12:03:18Z</time></trkpt><trkpt lat="43.86106137022027" lon="10.515307423714091"><ele>23.0</ele><time>2026-04-04T12:03:19Z</time></trkpt><trkpt lat="43.860879804521446" lon="10.51528508843899"><ele>23.0</ele><time>2026-04-04T12:03:20Z</time></trkpt><trkpt lat="43.860700264523246" lon="10.515291522484217"><ele>23.0</ele><time>2026-04-04T12:03:21Z</time></trkpt><trkpt lat="43.860524373632714" lon="10.51525998296351"><ele>23.0</ele><time>2026-04-04T12:03:22Z</time></trkpt><trkpt lat="43.86034181322792" lon="10.51524783334754"><ele>23.0</ele><time>2026-04-04T12:03:23Z</time></trkpt><trkpt lat="43.86016491250116" lon="10.515236060396099"><ele>22.666666666666668</ele><time>2026-04-04T12:03:24Z</time></trkpt><trkpt lat="43.85998777449074" lon="10.515225764657986"><ele>22.333333333333332</ele><time>2026-04-04T12:03:25Z</time></trkpt><trkpt lat="43.859819546331465" lon="10.515226850515536"><ele>22.0</ele><time>2026-04-04T12:03:26Z</time></trkpt><trkpt lat="43.85965247020448" lon="10.515191205180495"><ele>22.0</ele><time>2026-04-04T12:03:27Z</time></trkpt><trkpt lat="43.859498327707065" lon="10.515111656772648"><ele>22.0</ele><time>2026-04-04T12:03:28Z</time></trkpt><trkpt lat="43.85932785955233" lon="10.51504917666573"><ele>22.0</ele><time>2026-04-04T12:03:29Z</time></trkpt><trkpt lat="43.8591720377939" lon="10.514950603568096"><ele>22.0</ele><time>2026-04-04T12:03:30Z</time></trkpt><trkpt lat="43.85902625537692" lon="10.514841914904459"><ele>22.0</ele><time>2026-04-04T12:03:31Z</time></trkpt><trkpt lat="43.85888979290514" lon="10.514710736142197"><ele>22.0</ele><time>2026-04-04T12:03:32Z</time></trkpt><trkpt lat="43.85875672158916" lon="10.514570636774003"><ele>22.0</ele><time>2026-04-04T12:03:33Z</time></trkpt><trkpt lat="43.858637495978" lon="10.514428699530066"><ele>22.0</ele><time>2026-04-04T12:03:34Z</time></trkpt><trkpt lat="43.85852896226168" lon="10.514288884541104"><ele>22.0</ele><time>2026-04-04T12:03:35Z</time></trkpt><trkpt lat="43.85842656044798" lon="10.514159543565272"><ele>22.0</ele><time>2026-04-04T12:03:36Z</time></trkpt><trkpt lat="43.85832994995187" lon="10.514036384985117"><ele>21.75</ele><time>2026-04-04T12:03:37Z</time></trkpt><trkpt lat="43.858235706713785" lon="10.513922897357984"><ele>21.5</ele><time>2026-04-04T12:03:38Z</time></trkpt><trkpt lat="43.85813951108022" lon="10.513811624696036"><ele>21.25</ele><time>2026-04-04T12:03:39Z</time></trkpt><trkpt lat="43.85804378293483" lon="10.513698762935094"><ele>21.0</ele><time>2026-04-04T12:03:40Z</time></trkpt><trkpt lat="43.857946546343236" lon="10.513584444894502"><ele>21.0</ele><time>2026-04-04T12:03:41Z</time></trkpt><trkpt lat="43.8578512583438" lon="10.513465459121413"><ele>21.0</ele><time>2026-04-04T12:03:42Z</time></trkpt><trkpt lat="43.857756874438195" lon="10.513345039505957"><ele>21.0</ele><time>2026-04-04T12:03:43Z</time></trkpt><trkpt lat="43.857660226237265" lon="10.513223079275674"><ele>21.0</ele><time>2026-04-04T12:03:44Z</time></trkpt><trkpt lat="43.85756274097329" lon="10.513100348912229"><ele>21.0</ele><time>2026-04-04T12:03:45Z</time></trkpt><trkpt lat="43.85746195298144" lon="10.512976056814773"><ele>21.0</ele><time>2026-04-04T12:03:46Z</time></trkpt><trkpt lat="43.857358293115" lon="10.512850904837391"><ele>21.0</ele><time>2026-04-04T12:03:47Z</time></trkpt><trkpt lat="43.85725158326528" lon="10.512724569426348"><ele>21.0</ele><time>2026-04-04T12:03:48Z</time></trkpt><trkpt lat="43.857147240404274" lon="10.51259957521477"><ele>21.0</ele><time>2026-04-04T12:03:49Z</time></trkpt><trkpt lat="43.857049400261026" lon="10.512479390849032"><ele>21.0</ele><time>2026-04-04T12:03:50Z</time></trkpt><trkpt lat="43.856955874797656" lon="10.512364534939339"><ele>21.0</ele><time>2026-04-04T12:03:51Z</time></trkpt><trkpt lat="43.85686560646582" lon="10.512251447793156"><ele>21.0</ele><time>2026-04-04T12:03:52Z</time></trkpt><trkpt lat="43.85677547633859" lon="10.512136622200734"><ele>20.75</ele><time>2026-04-04T12:03:53Z</time></trkpt><trkpt lat="43.85668371630016" lon="10.512021735081866"><ele>20.5</ele><time>2026-04-04T12:03:54Z</time></trkpt><trkpt lat="43.85659199330892" lon="10.511903643805638"><ele>20.25</ele><time>2026-04-04T12:03:55Z</time></trkpt><trkpt lat="43.85650152329254" lon="10.511789774762352"><ele>20.0</ele><time>2026-04-04T12:03:56Z</time></trkpt><trkpt lat="43.85641553709796" lon="10.511693072423842"><ele>20.0</ele><time>2026-04-04T12:03:57Z</time></trkpt><trkpt lat="43.85634166095115" lon="10.5116005184224"><ele>20.0</ele><time>2026-04-04T12:03:58Z</time></trkpt><trkpt lat="43.85627101080399" lon="10.511513580423983"><ele>20.0</ele><time>2026-04-04T12:03:59Z</time></trkpt><trkpt lat="43.85620419152533" lon="10.511429235847304"><ele>20.0</ele><time>2026-04-04T12:04:00Z</time></trkpt><trkpt lat="43.856134670190194" lon="10.51133807654905"><ele>20.0</ele><time>2026-04-04T12:04:01Z</time></trkpt><trkpt lat="43.8560570467745" lon="10.511237333395952"><ele>20.0</ele><time>2026-04-04T12:04:02Z</time></trkpt><trkpt lat="43.855967098160505" lon="10.511130229368336"><ele>20.0</ele><time>2026-04-04T12:04:03Z</time></trkpt><trkpt lat="43.855873173564476" lon="10.511016154564844"><ele>20.0</ele><time>2026-04-04T12:04:04Z</time></trkpt><trkpt lat="43.85577410892692" lon="10.510897561571094"><ele>20.0</ele><time>2026-04-04T12:04:05Z</time></trkpt><trkpt lat="43.85567392723322" lon="10.510773080842501"><ele>20.0</ele><time>2026-04-04T12:04:06Z</time></trkpt><trkpt lat="43.85557525172896" lon="10.510651995706352"><ele>20.0</ele><time>2026-04-04T12:04:07Z</time></trkpt><trkpt lat="43.85548173898579" lon="10.510541308748971"><ele>20.0</ele><time>2026-04-04T12:04:08Z</time></trkpt><trkpt lat="43.85539569437188" lon="10.510437674567815"><ele>20.0</ele><time>2026-04-04T12:04:09Z</time></trkpt><trkpt lat="43.85531314777267" lon="10.51033071656677"><ele>20.0</ele><time>2026-04-04T12:04:10Z</time></trkpt><trkpt lat="43.85522872576591" lon="10.510223591471778"><ele>20.0</ele><time>2026-04-04T12:04:11Z</time></trkpt><trkpt lat="43.855141887190904" lon="10.510119226661542"><ele>20.0</ele><time>2026-04-04T12:04:12Z</time></trkpt><trkpt lat="43.85505582906124" lon="10.510016211347248"><ele>20.0</ele><time>2026-04-04T12:04:13Z</time></trkpt><trkpt lat="43.8549699241129" lon="10.509910764645873"><ele>20.0</ele><time>2026-04-04T12:04:14Z</time></trkpt><trkpt lat="43.85488726008333" lon="10.509809951969268"><ele>20.0</ele><time>2026-04-04T12:04:15Z</time></trkpt><trkpt lat="43.85480476532489" lon="10.50971483368193"><ele>20.0</ele><time>2026-04-04T12:04:16Z</time></trkpt><trkpt lat="43.854725248972265" lon="10.509619271394985"><ele>20.0</ele><time>2026-04-04T12:04:17Z</time></trkpt><trkpt lat="43.85465143379264" lon="10.509524499644789"><ele>20.0</ele><time>2026-04-04T12:04:18Z</time></trkpt><trkpt lat="43.85457879134268" lon="10.509428722781003"><ele>20.0</ele><time>2026-04-04T12:04:19Z</time></trkpt><trkpt lat="43.85450868200445" lon="10.509328843387074"><ele>20.0</ele><time>2026-04-04T12:04:20Z</time></trkpt><trkpt lat="43.85443587579914" lon="10.509232366540479"><ele>20.0</ele><time>2026-04-04T12:04:21Z</time></trkpt><trkpt lat="43.85435206408826" lon="10.509137507318336"><ele>20.0</ele><time>2026-04-04T12:04:22Z</time></trkpt><trkpt lat="43.85426350892908" lon="10.509037089894955"><ele>20.0</ele><time>2026-04-04T12:04:23Z</time></trkpt><trkpt lat="43.854175270496086" lon="10.508924769668782"><ele>20.0</ele><time>2026-04-04T12:04:24Z</time></trkpt><trkpt lat="43.85408350767201" lon="10.508804456578718"><ele>20.0</ele><time>2026-04-04T12:04:25Z</time></trkpt><trkpt lat="43.85397832174614" lon="10.50868408262972"><ele>20.0</ele><time>2026-04-04T12:04:26Z</time></trkpt><trkpt lat="43.85388836543075" lon="10.508574763114478"><ele>20.0</ele><time>2026-04-04T12:04:27Z</time></trkpt><trkpt lat="43.85380063545059" lon="10.508467792899971"><ele>19.75</ele><time>2026-04-04T12:04:28Z</time></trkpt><trkpt lat="43.85371737185088" lon="10.508361566605439"><ele>19.5</ele><time>2026-04-04T12:04:29Z</time></trkpt><trkpt lat="43.85363299495353" lon="10.508256536434136"><ele>19.25</ele><time>2026-04-04T12:04:30Z</time></trkpt><trkpt lat="43.85354889471923" lon="10.508150676869466"><ele>19.0</ele><time>2026-04-04T12:04:31Z</time></trkpt><trkpt lat="43.85346145025399" lon="10.508049567153204"><ele>19.333333333333332</ele><time>2026-04-04T12:04:32Z</time></trkpt><trkpt lat="43.853381820213855" lon="10.507948959212795"><ele>19.666666666666664</ele><time>2026-04-04T12:04:33Z</time></trkpt><trkpt lat="43.85330744452847" lon="10.507865218136306"><ele>20.0</ele><time>2026-04-04T12:04:34Z</time></trkpt><trkpt lat="43.853243652021604" lon="10.507784415874607"><ele>20.333333333333332</ele><time>2026-04-04T12:04:35Z</time></trkpt><trkpt lat="43.85318383807014" lon="10.507714607833979"><ele>20.666666666666668</ele><time>2026-04-04T12:04:36Z</time></trkpt><trkpt lat="43.853131033513804" lon="10.507644076623093"><ele>21.0</ele><time>2026-04-04T12:04:37Z</time></trkpt><trkpt lat="43.853077997577365" lon="10.507569540171138"><ele>21.0</ele><time>2026-04-04T12:04:38Z</time></trkpt><trkpt lat="43.85301970079399" lon="10.507507353973233"><ele>21.0</ele><time>2026-04-04T12:04:39Z</time></trkpt><trkpt lat="43.852957948379945" lon="10.507450522669739"><ele>21.0</ele><time>2026-04-04T12:04:40Z</time></trkpt><trkpt lat="43.85292074315964" lon="10.507363898034878"><ele>21.0</ele><time>2026-04-04T12:04:41Z</time></trkpt><trkpt lat="43.85280397675285" lon="10.507387962060772"><ele>21.0</ele><time>2026-04-04T12:04:42Z</time></trkpt><trkpt lat="43.85272295058942" lon="10.50737483449562"><ele>21.0</ele><time>2026-04-04T12:04:43Z</time></trkpt><trkpt lat="43.85264295727026" lon="10.50736755354514"><ele>20.833333333333332</ele><time>2026-04-04T12:04:44Z</time></trkpt><trkpt lat="43.852565233503306" lon="10.507362138043709"><ele>20.666666666666668</ele><time>2026-04-04T12:04:45Z</time></trkpt><trkpt lat="43.852487174434835" lon="10.507353272633189"><ele>20.5</ele><time>2026-04-04T12:04:46Z</time></trkpt><trkpt lat="43.85241750006517" lon="10.507334199053851"><ele>20.333333333333336</ele><time>2026-04-04T12:04:47Z</time></trkpt><trkpt lat="43.85234082102417" lon="10.507321734712498"><ele>20.166666666666668</ele><time>2026-04-04T12:04:48Z</time></trkpt><trkpt lat="43.852267015639" lon="10.507300878521727"><ele>20.0</ele><time>2026-04-04T12:04:49Z</time></trkpt><trkpt lat="43.85219084128692" lon="10.507283632224377"><ele>20.0</ele><time>2026-04-04T12:04:50Z</time></trkpt><trkpt lat="43.85211519263365" lon="10.50728067574745"><ele>20.0</ele><time>2026-04-04T12:04:51Z</time></trkpt><trkpt lat="43.85204411152848" lon="10.50727004062928"><ele>20.0</ele><time>2026-04-04T12:04:52Z</time></trkpt><trkpt lat="43.85197293364375" lon="10.507261526499816"><ele>20.0</ele><time>2026-04-04T12:04:53Z</time></trkpt><trkpt lat="43.85190347452626" lon="10.50724223503461"><ele>20.0</ele><time>2026-04-04T12:04:54Z</time></trkpt><trkpt lat="43.851839137989025" lon="10.507222286830416"><ele>20.0</ele><time>2026-04-04T12:04:55Z</time></trkpt><trkpt lat="43.851767848159646" lon="10.50714241520026"><ele>20.0</ele><time>2026-04-04T12:04:57Z</time></trkpt><trkpt lat="43.85170252733667" lon="10.507054951835967"><ele>20.2</ele><time>2026-04-04T12:04:59Z</time></trkpt><trkpt lat="43.85164082900364" lon="10.506960384034917"><ele>20.4</ele><time>2026-04-04T12:05:01Z</time></trkpt><trkpt lat="43.851555041986664" lon="10.506894290181886"><ele>20.6</ele><time>2026-04-04T12:05:03Z</time></trkpt><trkpt lat="43.851484989572654" lon="10.506874806718324"><ele>20.8</ele><time>2026-04-04T12:05:05Z</time></trkpt><trkpt lat="43.85150314747782" lon="10.506718686345504"><ele>21.0</ele><time>2026-04-04T12:05:07Z</time></trkpt><trkpt lat="43.85149330322161" lon="10.506587853815052"><ele>21.0</ele><time>2026-04-04T12:05:09Z</time></trkpt><trkpt lat="43.85150136610843" lon="10.506433102930048"><ele>21.0</ele><time>2026-04-04T12:05:11Z</time></trkpt><trkpt lat="43.85150517393226" lon="10.506341564138648"><ele>21.0</ele><time>2026-04-04T12:05:12Z</time></trkpt><trkpt lat="43.8515100586926" lon="10.506186924022453"><ele>21.0</ele><time>2026-04-04T12:05:14Z</time></trkpt><trkpt lat="43.85151223532486" lon="10.506034348867106"><ele>21.0</ele><time>2026-04-04T12:05:16Z</time></trkpt><trkpt lat="43.85151358449457" lon="10.505875146787053"><ele>20.8</ele><time>2026-04-04T12:05:18Z</time></trkpt><trkpt lat="43.85151206519962" lon="10.505718909902216"><ele>20.6</ele><time>2026-04-04T12:05:20Z</time></trkpt><trkpt lat="43.85150777888444" lon="10.50556329488442"><ele>20.4</ele><time>2026-04-04T12:05:22Z</time></trkpt><trkpt lat="43.851493600346686" lon="10.505389407332721"><ele>20.2</ele><time>2026-04-04T12:05:24Z</time></trkpt><trkpt lat="43.85148075948463" lon="10.50529358975079"><ele>20.0</ele><time>2026-04-04T12:05:25Z</time></trkpt><trkpt lat="43.851463508108345" lon="10.505186967550094"><ele>19.833333333333336</ele><time>2026-04-04T12:05:26Z</time></trkpt><trkpt lat="43.85144463113431" lon="10.505099480199442"><ele>19.666666666666668</ele><time>2026-04-04T12:05:27Z</time></trkpt><trkpt lat="43.8514114669953" lon="10.504975837754952"><ele>19.5</ele><time>2026-04-04T12:05:29Z</time></trkpt><trkpt lat="43.851393070594746" lon="10.504892091845527"><ele>19.333333333333332</ele><time>2026-04-04T12:05:32Z</time></trkpt><trkpt lat="43.85149415674935" lon="10.504867193439617"><ele>19.166666666666664</ele><time>2026-04-04T12:06:06Z</time></trkpt><trkpt lat="43.8515906189472" lon="10.504893411490468"><ele>19.0</ele><time>2026-04-04T12:06:08Z</time></trkpt><trkpt lat="43.85165588486731" lon="10.504966161673554"><ele>19.0</ele><time>2026-04-04T12:06:10Z</time></trkpt><trkpt lat="43.85172580165129" lon="10.504974505254728"><ele>19.0</ele><time>2026-04-04T12:06:12Z</time></trkpt><trkpt lat="43.85172702115833" lon="10.50507774279505"><ele>19.0</ele><time>2026-04-04T12:06:13Z</time></trkpt><trkpt lat="43.85171891599193" lon="10.504973374619095"><ele>19.0</ele><time>2026-04-04T12:06:17Z</time></trkpt><trkpt lat="43.85166875843815" lon="10.504898614499519"><ele>19.0</ele><time>2026-04-04T12:06:18Z</time></trkpt><trkpt lat="43.85156159705182" lon="10.504872550257785"><ele>19.0</ele><time>2026-04-04T12:06:19Z</time></trkpt><trkpt lat="43.851500865537176" lon="10.50482914737486"><ele>19.0</ele><time>2026-04-04T12:06:20Z</time></trkpt><trkpt lat="43.85140050816423" lon="10.50479621882569"><ele>19.0</ele><time>2026-04-04T12:06:22Z</time></trkpt><trkpt lat="43.851330199109135" lon="10.50468389825656"><ele>19.0</ele><time>2026-04-04T12:06:24Z</time></trkpt><trkpt lat="43.85127586341268" lon="10.504524613473343"><ele>19.0</ele><time>2026-04-04T12:06:25Z</time></trkpt><trkpt lat="43.85122093324822" lon="10.50440621202315"><ele>19.0</ele><time>2026-04-04T12:06:26Z</time></trkpt><trkpt lat="43.85118009960748" lon="10.504326485699435"><ele>19.0</ele><time>2026-04-04T12:06:27Z</time></trkpt><trkpt lat="43.851078739294834" lon="10.504272280689971"><ele>19.0</ele><time>2026-04-04T12:06:28Z</time></trkpt><trkpt lat="43.850962069943584" lon="10.504224141326075"><ele>19.0</ele><time>2026-04-04T12:06:29Z</time></trkpt><trkpt lat="43.85083695637339" lon="10.504175446011372"><ele>19.0</ele><time>2026-04-04T12:06:30Z</time></trkpt><trkpt lat="43.85069819561769" lon="10.504102176091427"><ele>19.0</ele><time>2026-04-04T12:06:31Z</time></trkpt><trkpt lat="43.85056994356295" lon="10.504073652256533"><ele>19.0</ele><time>2026-04-04T12:06:32Z</time></trkpt><trkpt lat="43.85046240545894" lon="10.50402597917268"><ele>19.0</ele><time>2026-04-04T12:06:33Z</time></trkpt><trkpt lat="43.850371368610205" lon="10.503964911904378"><ele>19.0</ele><time>2026-04-04T12:06:34Z</time></trkpt><trkpt lat="43.85028048104994" lon="10.503929018255928"><ele>19.0</ele><time>2026-04-04T12:06:35Z</time></trkpt><trkpt lat="43.8501755098875" lon="10.503888272991011"><ele>19.0</ele><time>2026-04-04T12:06:36Z</time></trkpt><trkpt lat="43.85007551835097" lon="10.503846810432917"><ele>19.0</ele><time>2026-04-04T12:06:37Z</time></trkpt><trkpt lat="43.84998232863184" lon="10.503820540052384"><ele>19.0</ele><time>2026-04-04T12:06:38Z</time></trkpt><trkpt lat="43.849905797506636" lon="10.50378379579554"><ele>19.0</ele><time>2026-04-04T12:06:39Z</time></trkpt><trkpt lat="43.84984475156329" lon="10.503746200376968"><ele>19.0</ele><time>2026-04-04T12:06:40Z</time></trkpt><trkpt lat="43.849761536297976" lon="10.503682476224759"><ele>19.0</ele><time>2026-04-04T12:06:42Z</time></trkpt><trkpt lat="43.8498259769887" lon="10.503609013989193"><ele>19.0</ele><time>2026-04-04T12:06:43Z</time></trkpt><trkpt lat="43.849861733540386" lon="10.50353394937053"><ele>19.0</ele><time>2026-04-04T12:06:44Z</time></trkpt><trkpt lat="43.84990070112087" lon="10.503440038372712"><ele>19.0</ele><time>2026-04-04T12:06:45Z</time></trkpt><trkpt lat="43.84995107972445" lon="10.50329647629648"><ele>19.0</ele><time>2026-04-04T12:06:46Z</time></trkpt><trkpt lat="43.85002527666649" lon="10.503117616933414"><ele>19.0</ele><time>2026-04-04T12:06:47Z</time></trkpt><trkpt lat="43.85013020386957" lon="10.502891623122538"><ele>18.333333333333332</ele><time>2026-04-04T12:06:48Z</time></trkpt><trkpt lat="43.85022162692484" lon="10.502654525309955"><ele>17.666666666666668</ele><time>2026-04-04T12:06:49Z</time></trkpt><trkpt lat="43.85031386258395" lon="10.502457784800175"><ele>17.0</ele><time>2026-04-04T12:06:50Z</time></trkpt><trkpt lat="43.85036528913553" lon="10.502295642231182"><ele>17.0</ele><time>2026-04-04T12:06:51Z</time></trkpt><trkpt lat="43.850363638562484" lon="10.502144990175196"><ele>17.0</ele><time>2026-04-04T12:06:52Z</time></trkpt><trkpt lat="43.85032558204413" lon="10.501991450756629"><ele>17.0</ele><time>2026-04-04T12:06:53Z</time></trkpt><trkpt lat="43.85025409428573" lon="10.501826451877871"><ele>17.0</ele><time>2026-04-04T12:06:54Z</time></trkpt><trkpt lat="43.8501966932703" lon="10.501651813958745"><ele>17.0</ele><time>2026-04-04T12:06:55Z</time></trkpt><trkpt lat="43.85014067988601" lon="10.501490701791955"><ele>17.0</ele><time>2026-04-04T12:06:56Z</time></trkpt><trkpt lat="43.85008359198984" lon="10.501333184657762"><ele>17.0</ele><time>2026-04-04T12:06:57Z</time></trkpt><trkpt lat="43.85001886855939" lon="10.501157522711718"><ele>17.0</ele><time>2026-04-04T12:06:58Z</time></trkpt><trkpt lat="43.84996550470573" lon="10.500979391981534"><ele>17.0</ele><time>2026-04-04T12:06:59Z</time></trkpt><trkpt lat="43.8499054386121" lon="10.50080119772823"><ele>17.0</ele><time>2026-04-04T12:07:00Z</time></trkpt><trkpt lat="43.849844388220156" lon="10.50063536567759"><ele>17.0</ele><time>2026-04-04T12:07:01Z</time></trkpt><trkpt lat="43.849793831647695" lon="10.500483325593974"><ele>17.0</ele><time>2026-04-04T12:07:02Z</time></trkpt><trkpt lat="43.849738464165874" lon="10.50033471678507"><ele>16.5</ele><time>2026-04-04T12:07:03Z</time></trkpt><trkpt lat="43.84968179490666" lon="10.500181678685983"><ele>16.0</ele><time>2026-04-04T12:07:04Z</time></trkpt><trkpt lat="43.849629341836064" lon="10.500027559719166"><ele>15.5</ele><time>2026-04-04T12:07:05Z</time></trkpt><trkpt lat="43.84957606014808" lon="10.499868959562129"><ele>15.0</ele><time>2026-04-04T12:07:06Z</time></trkpt><trkpt lat="43.84952528885656" lon="10.499710820588632"><ele>15.25</ele><time>2026-04-04T12:07:07Z</time></trkpt><trkpt lat="43.84946555180532" lon="10.499548240452453"><ele>15.5</ele><time>2026-04-04T12:07:08Z</time></trkpt><trkpt lat="43.84940875789284" lon="10.499381662170446"><ele>15.75</ele><time>2026-04-04T12:07:09Z</time></trkpt><trkpt lat="43.84934942115433" lon="10.499200476506896"><ele>16.0</ele><time>2026-04-04T12:07:10Z</time></trkpt><trkpt lat="43.84930347952075" lon="10.499016251164054"><ele>16.25</ele><time>2026-04-04T12:07:11Z</time></trkpt><trkpt lat="43.849257510564875" lon="10.498823295074736"><ele>16.5</ele><time>2026-04-04T12:07:12Z</time></trkpt><trkpt lat="43.84921718683412" lon="10.49862833751252"><ele>16.75</ele><time>2026-04-04T12:07:13Z</time></trkpt><trkpt lat="43.84918628412521" lon="10.498450794293195"><ele>17.0</ele><time>2026-04-04T12:07:14Z</time></trkpt><trkpt lat="43.84915567795379" lon="10.498271114564902"><ele>17.5</ele><time>2026-04-04T12:07:15Z</time></trkpt><trkpt lat="43.849125970534615" lon="10.498087402799287"><ele>18.0</ele><time>2026-04-04T12:07:16Z</time></trkpt><trkpt lat="43.84909891534897" lon="10.497899543205628"><ele>18.5</ele><time>2026-04-04T12:07:17Z</time></trkpt><trkpt lat="43.84906850709206" lon="10.49770800845424"><ele>19.0</ele><time>2026-04-04T12:07:18Z</time></trkpt><trkpt lat="43.8490398586221" lon="10.497514720006796"><ele>19.0</ele><time>2026-04-04T12:07:19Z</time></trkpt><trkpt lat="43.84901346458609" lon="10.497324664868314"><ele>19.0</ele><time>2026-04-04T12:07:20Z</time></trkpt><trkpt lat="43.848983485309084" lon="10.497154973018553"><ele>19.0</ele><time>2026-04-04T12:07:21Z</time></trkpt><trkpt lat="43.848965069932504" lon="10.496991149647434"><ele>19.0</ele><time>2026-04-04T12:07:22Z</time></trkpt><trkpt lat="43.8489405611343" lon="10.49682528456299"><ele>19.0</ele><time>2026-04-04T12:07:23Z</time></trkpt><trkpt lat="43.848916409463726" lon="10.496648433363685"><ele>19.0</ele><time>2026-04-04T12:07:24Z</time></trkpt><trkpt lat="43.848891556307755" lon="10.496469393686395"><ele>19.0</ele><time>2026-04-04T12:07:25Z</time></trkpt><trkpt lat="43.84886213533107" lon="10.49628255242723"><ele>19.0</ele><time>2026-04-04T12:07:26Z</time></trkpt><trkpt lat="43.84883098627661" lon="10.496100745384686"><ele>19.666666666666664</ele><time>2026-04-04T12:07:27Z</time></trkpt><trkpt lat="43.84878950405992" lon="10.495885797934418"><ele>20.333333333333332</ele><time>2026-04-04T12:07:28Z</time></trkpt><trkpt lat="43.84873027086151" lon="10.495699978578408"><ele>21.0</ele><time>2026-04-04T12:07:29Z</time></trkpt><trkpt lat="43.84863779353825" lon="10.49552062164363"><ele>20.5</ele><time>2026-04-04T12:07:30Z</time></trkpt><trkpt lat="43.84853118946803" lon="10.495368179246174"><ele>20.0</ele><time>2026-04-04T12:07:31Z</time></trkpt><trkpt lat="43.84841576792725" lon="10.49525294238154"><ele>19.5</ele><time>2026-04-04T12:07:32Z</time></trkpt><trkpt lat="43.84830444492402" lon="10.495156997795961"><ele>19.0</ele><time>2026-04-04T12:07:33Z</time></trkpt><trkpt lat="43.84819599801775" lon="10.495097722462424"><ele>18.8</ele><time>2026-04-04T12:07:34Z</time></trkpt><trkpt lat="43.84809945434549" lon="10.495049471113187"><ele>18.599999999999998</ele><time>2026-04-04T12:07:35Z</time></trkpt><trkpt lat="43.848007283577" lon="10.495019314838002"><ele>18.4</ele><time>2026-04-04T12:07:36Z</time></trkpt><trkpt lat="43.8479116001297" lon="10.494992944981055"><ele>18.2</ele><time>2026-04-04T12:07:37Z</time></trkpt><trkpt lat="43.847810917312486" lon="10.494966492942751"><ele>18.0</ele><time>2026-04-04T12:07:38Z</time></trkpt><trkpt lat="43.84770286295338" lon="10.494938368440073"><ele>17.75</ele><time>2026-04-04T12:07:39Z</time></trkpt><trkpt lat="43.84759280291186" lon="10.494899377745403"><ele>17.5</ele><time>2026-04-04T12:07:40Z</time></trkpt><trkpt lat="43.84747430430089" lon="10.49485002146274"><ele>17.25</ele><time>2026-04-04T12:07:41Z</time></trkpt><trkpt lat="43.84736620781629" lon="10.49480686825968"><ele>17.0</ele><time>2026-04-04T12:07:42Z</time></trkpt><trkpt lat="43.84725420628559" lon="10.494770034427956"><ele>17.0</ele><time>2026-04-04T12:07:43Z</time></trkpt><trkpt lat="43.84714672507094" lon="10.494727603889839"><ele>17.0</ele><time>2026-04-04T12:07:44Z</time></trkpt><trkpt lat="43.84704864352696" lon="10.494682274202006"><ele>17.0</ele><time>2026-04-04T12:07:45Z</time></trkpt><trkpt lat="43.84695711089191" lon="10.494637648898223"><ele>17.0</ele><time>2026-04-04T12:07:46Z</time></trkpt><trkpt lat="43.84686703751801" lon="10.494594868621977"><ele>17.0</ele><time>2026-04-04T12:07:47Z</time></trkpt><trkpt lat="43.846778031727936" lon="10.494558382949647"><ele>16.25</ele><time>2026-04-04T12:07:48Z</time></trkpt><trkpt lat="43.846680513297024" lon="10.494516094302634"><ele>15.5</ele><time>2026-04-04T12:07:49Z</time></trkpt><trkpt lat="43.84657371109742" lon="10.494473777031018"><ele>14.75</ele><time>2026-04-04T12:07:50Z</time></trkpt><trkpt lat="43.8464560461822" lon="10.494423430865066"><ele>14.0</ele><time>2026-04-04T12:07:51Z</time></trkpt><trkpt lat="43.84632605667785" lon="10.494375385494132"><ele>14.0</ele><time>2026-04-04T12:07:52Z</time></trkpt><trkpt lat="43.84618532682049" lon="10.494322507317701"><ele>14.0</ele><time>2026-04-04T12:07:53Z</time></trkpt><trkpt lat="43.84605189663623" lon="10.494274912202753"><ele>14.0</ele><time>2026-04-04T12:07:54Z</time></trkpt><trkpt lat="43.84592862950765" lon="10.494224979236641"><ele>14.0</ele><time>2026-04-04T12:07:55Z</time></trkpt><trkpt lat="43.845816744799045" lon="10.494183889950937"><ele>14.333333333333334</ele><time>2026-04-04T12:07:56Z</time></trkpt><trkpt lat="43.845720211573756" lon="10.494144176414448"><ele>14.666666666666668</ele><time>2026-04-04T12:07:57Z</time></trkpt><trkpt lat="43.84563691870044" lon="10.494113770450362"><ele>15.0</ele><time>2026-04-04T12:07:58Z</time></trkpt><trkpt lat="43.84555272036704" lon="10.494099144047004"><ele>15.333333333333332</ele><time>2026-04-04T12:07:59Z</time></trkpt><trkpt lat="43.845479143058085" lon="10.494123509281884"><ele>15.666666666666666</ele><time>2026-04-04T12:08:00Z</time></trkpt><trkpt lat="43.84541276809638" lon="10.494142618265359"><ele>16.0</ele><time>2026-04-04T12:08:01Z</time></trkpt><trkpt lat="43.84536988726681" lon="10.494228731138914"><ele>16.0</ele><time>2026-04-04T12:08:02Z</time></trkpt><trkpt lat="43.845300033092464" lon="10.494377326024551"><ele>16.0</ele><time>2026-04-04T12:08:04Z</time></trkpt><trkpt lat="43.84525686980504" lon="10.494481284217644"><ele>16.0</ele><time>2026-04-04T12:08:05Z</time></trkpt><trkpt lat="43.8451918621154" lon="10.494627024398435"><ele>16.0</ele><time>2026-04-04T12:08:06Z</time></trkpt><trkpt lat="43.84512304265666" lon="10.49474067778309"><ele>16.0</ele><time>2026-04-04T12:08:07Z</time></trkpt><trkpt lat="43.845067205225945" lon="10.494846049141241"><ele>16.166666666666664</ele><time>2026-04-04T12:08:08Z</time></trkpt><trkpt lat="43.84500846162259" lon="10.494935004310777"><ele>16.333333333333332</ele><time>2026-04-04T12:08:09Z</time></trkpt><trkpt lat="43.844970933132714" lon="10.495022774268497"><ele>16.5</ele><time>2026-04-04T12:08:10Z</time></trkpt><trkpt lat="43.84493564782674" lon="10.495159566582416"><ele>16.666666666666668</ele><time>2026-04-04T12:08:12Z</time></trkpt><trkpt lat="43.844837767972635" lon="10.495170341128276"><ele>16.833333333333336</ele><time>2026-04-04T12:08:13Z</time></trkpt><trkpt lat="43.844770413208224" lon="10.495151572145135"><ele>17.0</ele><time>2026-04-04T12:08:14Z</time></trkpt><trkpt lat="43.84471461312631" lon="10.49510471298269"><ele>17.0</ele><time>2026-04-04T12:08:15Z</time></trkpt><trkpt lat="43.84466097293134" lon="10.495042537020659"><ele>17.0</ele><time>2026-04-04T12:08:16Z</time></trkpt><trkpt lat="43.844580778310004" lon="10.494943459985207"><ele>17.0</ele><time>2026-04-04T12:08:17Z</time></trkpt><trkpt lat="43.844465986739586" lon="10.49480441024914"><ele>17.0</ele><time>2026-04-04T12:08:18Z</time></trkpt><trkpt lat="43.84432581159154" lon="10.494632500249251"><ele>17.0</ele><time>2026-04-04T12:08:19Z</time></trkpt><trkpt lat="43.84417122323992" lon="10.494465621965704"><ele>17.0</ele><time>2026-04-04T12:08:20Z</time></trkpt><trkpt lat="43.844017997500224" lon="10.494295114664672"><ele>17.0</ele><time>2026-04-04T12:08:21Z</time></trkpt><trkpt lat="43.84388562801237" lon="10.49417181675544"><ele>17.0</ele><time>2026-04-04T12:08:22Z</time></trkpt><trkpt lat="43.843765868347084" lon="10.494043486513906"><ele>17.0</ele><time>2026-04-04T12:08:23Z</time></trkpt><trkpt lat="43.84365110149414" lon="10.493924667441016"><ele>17.0</ele><time>2026-04-04T12:08:24Z</time></trkpt><trkpt lat="43.84353640090439" lon="10.49383360037276"><ele>17.0</ele><time>2026-04-04T12:08:25Z</time></trkpt><trkpt lat="43.843419489158855" lon="10.493776652653176"><ele>16.5</ele><time>2026-04-04T12:08:26Z</time></trkpt><trkpt lat="43.84329716031979" lon="10.493748743325764"><ele>16.0</ele><time>2026-04-04T12:08:27Z</time></trkpt><trkpt lat="43.843169660195464" lon="10.493760009802026"><ele>15.5</ele><time>2026-04-04T12:08:28Z</time></trkpt><trkpt lat="43.843051413757394" lon="10.493789774385158"><ele>15.0</ele><time>2026-04-04T12:08:29Z</time></trkpt><trkpt lat="43.84292320244838" lon="10.493845492098188"><ele>15.0</ele><time>2026-04-04T12:08:30Z</time></trkpt><trkpt lat="43.84275267124034" lon="10.49392621816311"><ele>15.0</ele><time>2026-04-04T12:08:31Z</time></trkpt><trkpt lat="43.84261098625894" lon="10.494025464966718"><ele>15.0</ele><time>2026-04-04T12:08:32Z</time></trkpt><trkpt lat="43.84248170021967" lon="10.49410317209558"><ele>15.2</ele><time>2026-04-04T12:08:33Z</time></trkpt><trkpt lat="43.84236752856288" lon="10.494183300221907"><ele>15.4</ele><time>2026-04-04T12:08:34Z</time></trkpt><trkpt lat="43.84227504300793" lon="10.494232861533252"><ele>15.600000000000001</ele><time>2026-04-04T12:08:35Z</time></trkpt><trkpt lat="43.842210428979406" lon="10.494294648996991"><ele>15.8</ele><time>2026-04-04T12:08:36Z</time></trkpt><trkpt lat="43.8421388161788" lon="10.494317230538787"><ele>16.0</ele><time>2026-04-04T12:08:37Z</time></trkpt><trkpt lat="43.842067809713306" lon="10.494329627877613"><ele>16.0</ele><time>2026-04-04T12:08:38Z</time></trkpt><trkpt lat="43.84195067602892" lon="10.494360905799367"><ele>16.0</ele><time>2026-04-04T12:08:40Z</time></trkpt><trkpt lat="43.841877816719375" lon="10.494406575331492"><ele>16.0</ele><time>2026-04-04T12:08:42Z</time></trkpt><trkpt lat="43.841801214880334" lon="10.494455036636234"><ele>16.0</ele><time>2026-04-04T12:08:45Z</time></trkpt><trkpt lat="43.84174257772162" lon="10.49458261339766"><ele>16.0</ele><time>2026-04-04T12:08:47Z</time></trkpt><trkpt lat="43.8416371643525" lon="10.49457657534223"><ele>16.25</ele><time>2026-04-04T12:08:48Z</time></trkpt><trkpt lat="43.84154874811241" lon="10.494579367936787"><ele>16.5</ele><time>2026-04-04T12:08:49Z</time></trkpt><trkpt lat="43.841439489741674" lon="10.494593068186239"><ele>16.75</ele><time>2026-04-04T12:08:50Z</time></trkpt><trkpt lat="43.84127980690925" lon="10.494676726077419"><ele>17.0</ele><time>2026-04-04T12:08:51Z</time></trkpt><trkpt lat="43.84105789355385" lon="10.494789656548823"><ele>16.666666666666668</ele><time>2026-04-04T12:08:52Z</time></trkpt><trkpt lat="43.84083025954173" lon="10.494904663286587"><ele>16.333333333333332</ele><time>2026-04-04T12:08:53Z</time></trkpt><trkpt lat="43.84065480064988" lon="10.49499331148642"><ele>16.0</ele><time>2026-04-04T12:08:54Z</time></trkpt><trkpt lat="43.84052725168445" lon="10.49507900524669"><ele>16.0</ele><time>2026-04-04T12:08:55Z</time></trkpt><trkpt lat="43.84041098537082" lon="10.495138306467652"><ele>16.0</ele><time>2026-04-04T12:08:56Z</time></trkpt><trkpt lat="43.84030853541641" lon="10.495167118194102"><ele>16.0</ele><time>2026-04-04T12:08:57Z</time></trkpt><trkpt lat="43.840222063747255" lon="10.495210448601568"><ele>16.0</ele><time>2026-04-04T12:08:58Z</time></trkpt><trkpt lat="43.84015439268858" lon="10.495243959023073"><ele>16.0</ele><time>2026-04-04T12:08:59Z</time></trkpt><trkpt lat="43.840080297352856" lon="10.495277577113692"><ele>16.166666666666664</ele><time>2026-04-04T12:09:00Z</time></trkpt><trkpt lat="43.84000398143693" lon="10.495257332928473"><ele>16.333333333333332</ele><time>2026-04-04T12:09:01Z</time></trkpt><trkpt lat="43.83994510304869" lon="10.495188123646942"><ele>16.5</ele><time>2026-04-04T12:09:02Z</time></trkpt><trkpt lat="43.83985155640332" lon="10.495101344140197"><ele>16.666666666666668</ele><time>2026-04-04T12:09:04Z</time></trkpt><trkpt lat="43.839781067741555" lon="10.495108155635029"><ele>16.833333333333336</ele><time>2026-04-04T12:09:05Z</time></trkpt><trkpt lat="43.8397266527326" lon="10.49515728171724"><ele>17.0</ele><time>2026-04-04T12:09:06Z</time></trkpt><trkpt lat="43.839669181347666" lon="10.495217926732243"><ele>17.0</ele><time>2026-04-04T12:09:07Z</time></trkpt><trkpt lat="43.83960231473202" lon="10.49526660834686"><ele>17.0</ele><time>2026-04-04T12:09:08Z</time></trkpt><trkpt lat="43.839519193969615" lon="10.495290991816326"><ele>17.0</ele><time>2026-04-04T12:09:09Z</time></trkpt><trkpt lat="43.839424260212105" lon="10.495291592089451"><ele>17.0</ele><time>2026-04-04T12:09:10Z</time></trkpt><trkpt lat="43.83929542426504" lon="10.495267262628076"><ele>17.0</ele><time>2026-04-04T12:09:11Z</time></trkpt><trkpt lat="43.839127285331934" lon="10.495227492137362"><ele>16.5</ele><time>2026-04-04T12:09:12Z</time></trkpt><trkpt lat="43.83891516179227" lon="10.495201605052328"><ele>16.0</ele><time>2026-04-04T12:09:13Z</time></trkpt><trkpt lat="43.83867746148696" lon="10.495158441460132"><ele>15.5</ele><time>2026-04-04T12:09:14Z</time></trkpt><trkpt lat="43.83840741447622" lon="10.495134040332875"><ele>15.0</ele><time>2026-04-04T12:09:15Z</time></trkpt><trkpt lat="43.838135957728646" lon="10.495094546126465"><ele>15.0</ele><time>2026-04-04T12:09:16Z</time></trkpt><trkpt lat="43.83790750688396" lon="10.49503394745229"><ele>15.0</ele><time>2026-04-04T12:09:17Z</time></trkpt><trkpt lat="43.83772840407294" lon="10.495008442580591"><ele>15.0</ele><time>2026-04-04T12:09:18Z</time></trkpt><trkpt lat="43.83759219933548" lon="10.494991292313456"><ele>15.25</ele><time>2026-04-04T12:09:19Z</time></trkpt><trkpt lat="43.83745907345613" lon="10.494976989798866"><ele>15.5</ele><time>2026-04-04T12:09:20Z</time></trkpt><trkpt lat="43.83733296749227" lon="10.494963730983846"><ele>15.75</ele><time>2026-04-04T12:09:21Z</time></trkpt><trkpt lat="43.837216075806424" lon="10.494947169772566"><ele>16.0</ele><time>2026-04-04T12:09:22Z</time></trkpt><trkpt lat="43.83710313631868" lon="10.494933973085349"><ele>16.0</ele><time>2026-04-04T12:09:23Z</time></trkpt><trkpt lat="43.836993773224826" lon="10.494922854699237"><ele>16.0</ele><time>2026-04-04T12:09:24Z</time></trkpt><trkpt lat="43.836896720243416" lon="10.494921644148992"><ele>16.0</ele><time>2026-04-04T12:09:25Z</time></trkpt><trkpt lat="43.83681231248613" lon="10.494904069957457"><ele>16.0</ele><time>2026-04-04T12:09:26Z</time></trkpt><trkpt lat="43.83673057970928" lon="10.494889901120278"><ele>16.0</ele><time>2026-04-04T12:09:27Z</time></trkpt><trkpt lat="43.83661002209091" lon="10.494869160385159"><ele>15.999999999999998</ele><time>2026-04-04T12:09:29Z</time></trkpt><trkpt lat="43.83649166848679" lon="10.494850321478307"><ele>16.0</ele><time>2026-04-04T12:09:31Z</time></trkpt><trkpt lat="43.8364249959428" lon="10.494841794216363"><ele>16.0</ele><time>2026-04-04T12:09:32Z</time></trkpt><trkpt lat="43.836358506091614" lon="10.494828684783027"><ele>16.0</ele><time>2026-04-04T12:09:33Z</time></trkpt><trkpt lat="43.836285129953815" lon="10.494824365829754"><ele>15.999999999999998</ele><time>2026-04-04T12:09:34Z</time></trkpt><trkpt lat="43.83620323063086" lon="10.494811452675107"><ele>16.0</ele><time>2026-04-04T12:09:35Z</time></trkpt><trkpt lat="43.83611404925078" lon="10.49479860510386"><ele>16.0</ele><time>2026-04-04T12:09:36Z</time></trkpt><trkpt lat="43.83601412925074" lon="10.494783152313156"><ele>16.0</ele><time>2026-04-04T12:09:37Z</time></trkpt><trkpt lat="43.835909235883435" lon="10.49477176724611"><ele>16.0</ele><time>2026-04-04T12:09:38Z</time></trkpt><trkpt lat="43.83580617412483" lon="10.494757444585543"><ele>16.0</ele><time>2026-04-04T12:09:39Z</time></trkpt><trkpt lat="43.83569677843641" lon="10.494749272793344"><ele>16.0</ele><time>2026-04-04T12:09:40Z</time></trkpt><trkpt lat="43.8355668017691" lon="10.49474780016235"><ele>15.333333333333332</ele><time>2026-04-04T12:09:41Z</time></trkpt><trkpt lat="43.83540712275686" lon="10.494681742807433"><ele>14.666666666666668</ele><time>2026-04-04T12:09:42Z</time></trkpt><trkpt lat="43.8352146611318" lon="10.494654093420836"><ele>14.0</ele><time>2026-04-04T12:09:43Z</time></trkpt><trkpt lat="43.8350473280576" lon="10.494630803041984"><ele>14.0</ele><time>2026-04-04T12:09:44Z</time></trkpt><trkpt lat="43.834881806081356" lon="10.494627798107928"><ele>14.0</ele><time>2026-04-04T12:09:45Z</time></trkpt><trkpt lat="43.83472718028601" lon="10.494586197028072"><ele>14.0</ele><time>2026-04-04T12:09:46Z</time></trkpt><trkpt lat="43.83458018214537" lon="10.494573947527524"><ele>14.333333333333334</ele><time>2026-04-04T12:09:47Z</time></trkpt><trkpt lat="43.834434082233294" lon="10.494566035381506"><ele>14.666666666666668</ele><time>2026-04-04T12:09:48Z</time></trkpt><trkpt lat="43.83427998353852" lon="10.494544500195099"><ele>15.0</ele><time>2026-04-04T12:09:49Z</time></trkpt><trkpt lat="43.8341324454388" lon="10.494519674821293"><ele>14.333333333333332</ele><time>2026-04-04T12:09:50Z</time></trkpt><trkpt lat="43.83398156142217" lon="10.494495019360734"><ele>13.666666666666666</ele><time>2026-04-04T12:09:51Z</time></trkpt><trkpt lat="43.8338293881105" lon="10.494472189407894"><ele>13.0</ele><time>2026-04-04T12:09:52Z</time></trkpt><trkpt lat="43.83367682232523" lon="10.494449567662254"><ele>13.0</ele><time>2026-04-04T12:09:53Z</time></trkpt><trkpt lat="43.83351899455136" lon="10.494432678019798"><ele>13.0</ele><time>2026-04-04T12:09:54Z</time></trkpt><trkpt lat="43.833374820186144" lon="10.494404590466084"><ele>13.0</ele><time>2026-04-04T12:09:55Z</time></trkpt><trkpt lat="43.83324109208175" lon="10.49438368231867"><ele>13.0</ele><time>2026-04-04T12:09:56Z</time></trkpt><trkpt lat="43.83311254406236" lon="10.494358833028459"><ele>13.0</ele><time>2026-04-04T12:09:57Z</time></trkpt><trkpt lat="43.83299411733522" lon="10.494338740914502"><ele>13.0</ele><time>2026-04-04T12:09:58Z</time></trkpt><trkpt lat="43.83288200688676" lon="10.494312802895285"><ele>13.0</ele><time>2026-04-04T12:09:59Z</time></trkpt><trkpt lat="43.83276963597781" lon="10.494291311781284"><ele>13.0</ele><time>2026-04-04T12:10:00Z</time></trkpt><trkpt lat="43.832670835192694" lon="10.494274286923282"><ele>13.0</ele><time>2026-04-04T12:10:01Z</time></trkpt><trkpt lat="43.83257774038403" lon="10.494252828434673"><ele>13.0</ele><time>2026-04-04T12:10:02Z</time></trkpt><trkpt lat="43.832489187190426" lon="10.49420347660354"><ele>13.0</ele><time>2026-04-04T12:10:03Z</time></trkpt><trkpt lat="43.83242201065737" lon="10.494107624870857"><ele>13.0</ele><time>2026-04-04T12:10:04Z</time></trkpt><trkpt lat="43.83235857075824" lon="10.49400149762426"><ele>13.0</ele><time>2026-04-04T12:10:05Z</time></trkpt><trkpt lat="43.8322969398265" lon="10.493872161223232"><ele>13.0</ele><time>2026-04-04T12:10:06Z</time></trkpt><trkpt lat="43.832228397069414" lon="10.493714784656017"><ele>13.25</ele><time>2026-04-04T12:10:07Z</time></trkpt><trkpt lat="43.83216142720691" lon="10.49356605079049"><ele>13.5</ele><time>2026-04-04T12:10:08Z</time></trkpt><trkpt lat="43.832095952170114" lon="10.493433995032175"><ele>13.75</ele><time>2026-04-04T12:10:09Z</time></trkpt><trkpt lat="43.83203835669632" lon="10.493306433321747"><ele>14.0</ele><time>2026-04-04T12:10:10Z</time></trkpt><trkpt lat="43.831983427510465" lon="10.493175016098025"><ele>14.0</ele><time>2026-04-04T12:10:11Z</time></trkpt><trkpt lat="43.83192375140488" lon="10.493042957769202"><ele>14.0</ele><time>2026-04-04T12:10:12Z</time></trkpt><trkpt lat="43.83186446979668" lon="10.492902560422309"><ele>14.0</ele><time>2026-04-04T12:10:13Z</time></trkpt><trkpt lat="43.8318024812686" lon="10.492758278809541"><ele>14.0</ele><time>2026-04-04T12:10:14Z</time></trkpt><trkpt lat="43.83174012835615" lon="10.492607552322168"><ele>13.799999999999999</ele><time>2026-04-04T12:10:15Z</time></trkpt><trkpt lat="43.83167872447565" lon="10.49247019479753"><ele>13.599999999999998</ele><time>2026-04-04T12:10:16Z</time></trkpt><trkpt lat="43.8316225839296" lon="10.492336143248314"><ele>13.4</ele><time>2026-04-04T12:10:17Z</time></trkpt><trkpt lat="43.83157312941171" lon="10.492211037934512"><ele>13.2</ele><time>2026-04-04T12:10:18Z</time></trkpt><trkpt lat="43.831531374690286" lon="10.492097543234964"><ele>13.0</ele><time>2026-04-04T12:10:19Z</time></trkpt><trkpt lat="43.8314711827382" lon="10.49200750990454"><ele>12.999999999999998</ele><time>2026-04-04T12:10:20Z</time></trkpt><trkpt lat="43.83140103666713" lon="10.491944741695155"><ele>13.0</ele><time>2026-04-04T12:10:21Z</time></trkpt><trkpt lat="43.83133136408796" lon="10.491906524301218"><ele>13.0</ele><time>2026-04-04T12:10:22Z</time></trkpt><trkpt lat="43.831262812632154" lon="10.49189552123432"><ele>13.0</ele><time>2026-04-04T12:10:23Z</time></trkpt><trkpt lat="43.83118258427876" lon="10.491921748677305"><ele>12.999999999999998</ele><time>2026-04-04T12:10:24Z</time></trkpt><trkpt lat="43.83109732147337" lon="10.491981857881582"><ele>13.0</ele><time>2026-04-04T12:10:25Z</time></trkpt><trkpt lat="43.831025797713124" lon="10.492069719209223"><ele>12.75</ele><time>2026-04-04T12:10:26Z</time></trkpt><trkpt lat="43.83096603380221" lon="10.492186454377244"><ele>12.5</ele><time>2026-04-04T12:10:27Z</time></trkpt><trkpt lat="43.83090366178692" lon="10.492315940571254"><ele>12.25</ele><time>2026-04-04T12:10:28Z</time></trkpt><trkpt lat="43.83083934917691" lon="10.492463782801265"><ele>12.0</ele><time>2026-04-04T12:10:29Z</time></trkpt><trkpt lat="43.83077501475804" lon="10.492617008065887"><ele>12.0</ele><time>2026-04-04T12:10:30Z</time></trkpt><trkpt lat="43.83071980123921" lon="10.492760897770573"><ele>12.0</ele><time>2026-04-04T12:10:31Z</time></trkpt><trkpt lat="43.830672988585086" lon="10.492886614224409"><ele>12.0</ele><time>2026-04-04T12:10:32Z</time></trkpt><trkpt lat="43.83061009379136" lon="10.492998674324156"><ele>12.0</ele><time>2026-04-04T12:10:33Z</time></trkpt><trkpt lat="43.830576623074535" lon="10.493092662707667"><ele>12.0</ele><time>2026-04-04T12:10:34Z</time></trkpt><trkpt lat="43.830410271954875" lon="10.4929355772063"><ele>12.0</ele><time>2026-04-04T12:10:35Z</time></trkpt><trkpt lat="43.83026037956828" lon="10.49286748661149"><ele>12.0</ele><time>2026-04-04T12:10:36Z</time></trkpt><trkpt lat="43.83012993513901" lon="10.492811113579407"><ele>12.0</ele><time>2026-04-04T12:10:37Z</time></trkpt><trkpt lat="43.830002498627486" lon="10.492751052672482"><ele>12.0</ele><time>2026-04-04T12:10:38Z</time></trkpt><trkpt lat="43.82986640130155" lon="10.492656543958786"><ele>11.75</ele><time>2026-04-04T12:10:39Z</time></trkpt><trkpt lat="43.829811635017485" lon="10.49252048924346"><ele>11.5</ele><time>2026-04-04T12:10:40Z</time></trkpt><trkpt lat="43.829788670010885" lon="10.492353228211876"><ele>11.25</ele><time>2026-04-04T12:10:41Z</time></trkpt><trkpt lat="43.82981726621961" lon="10.492185526462565"><ele>11.0</ele><time>2026-04-04T12:10:42Z</time></trkpt><trkpt lat="43.82988482841149" lon="10.492028227786516"><ele>11.0</ele><time>2026-04-04T12:10:43Z</time></trkpt><trkpt lat="43.829981509563936" lon="10.491843041444552"><ele>11.0</ele><time>2026-04-04T12:10:44Z</time></trkpt><trkpt lat="43.83010894366275" lon="10.4916111861045"><ele>11.0</ele><time>2026-04-04T12:10:45Z</time></trkpt><trkpt lat="43.83020559807007" lon="10.491351335192537"><ele>11.5</ele><time>2026-04-04T12:10:46Z</time></trkpt><trkpt lat="43.83026628194029" lon="10.491078512226634"><ele>12.0</ele><time>2026-04-04T12:10:47Z</time></trkpt><trkpt lat="43.830307935995734" lon="10.490725691639524"><ele>12.5</ele><time>2026-04-04T12:10:48Z</time></trkpt><trkpt lat="43.83035893671309" lon="10.49035060999276"><ele>13.0</ele><time>2026-04-04T12:10:49Z</time></trkpt><trkpt lat="43.83033885631369" lon="10.490055807552361"><ele>13.0</ele><time>2026-04-04T12:10:50Z</time></trkpt><trkpt lat="43.8303019317323" lon="10.489767766117982"><ele>13.0</ele><time>2026-04-04T12:10:51Z</time></trkpt><trkpt lat="43.83024129008834" lon="10.489511094501495"><ele>13.0</ele><time>2026-04-04T12:10:52Z</time></trkpt><trkpt lat="43.83016937619227" lon="10.489244987604685"><ele>13.0</ele><time>2026-04-04T12:10:53Z</time></trkpt><trkpt lat="43.83006130732451" lon="10.488988336568989"><ele>13.0</ele><time>2026-04-04T12:10:54Z</time></trkpt><trkpt lat="43.82995906647901" lon="10.48870195399959"><ele>13.0</ele><time>2026-04-04T12:10:55Z</time></trkpt><trkpt lat="43.8298430368241" lon="10.48842658305976"><ele>13.0</ele><time>2026-04-04T12:10:56Z</time></trkpt><trkpt lat="43.82973414777256" lon="10.488179444752442"><ele>13.0</ele><time>2026-04-04T12:10:57Z</time></trkpt><trkpt lat="43.82960995389711" lon="10.487962050399231"><ele>13.0</ele><time>2026-04-04T12:10:58Z</time></trkpt><trkpt lat="43.82946039173451" lon="10.48776400656517"><ele>12.333333333333332</ele><time>2026-04-04T12:10:59Z</time></trkpt><trkpt lat="43.82929120534504" lon="10.487584110996925"><ele>11.666666666666666</ele><time>2026-04-04T12:11:00Z</time></trkpt><trkpt lat="43.82910346700068" lon="10.4874335471943"><ele>11.0</ele><time>2026-04-04T12:11:01Z</time></trkpt><trkpt lat="43.828897784713476" lon="10.48731312839783"><ele>11.0</ele><time>2026-04-04T12:11:02Z</time></trkpt><trkpt lat="43.828671511540264" lon="10.487219372799235"><ele>11.0</ele><time>2026-04-04T12:11:03Z</time></trkpt><trkpt lat="43.828396723729014" lon="10.487146030752493"><ele>10.5</ele><time>2026-04-04T12:11:04Z</time></trkpt><trkpt lat="43.82808166070586" lon="10.487092200195933"><ele>10.0</ele><time>2026-04-04T12:11:05Z</time></trkpt><trkpt lat="43.827711366938026" lon="10.486998974985589"><ele>10.0</ele><time>2026-04-04T12:11:06Z</time></trkpt><trkpt lat="43.82732531796897" lon="10.486894396080947"><ele>10.0</ele><time>2026-04-04T12:11:07Z</time></trkpt><trkpt lat="43.826931312957704" lon="10.486788429083147"><ele>10.0</ele><time>2026-04-04T12:11:08Z</time></trkpt><trkpt lat="43.826586576113556" lon="10.486695464479341"><ele>10.0</ele><time>2026-04-04T12:11:09Z</time></trkpt><trkpt lat="43.82628274844589" lon="10.486616324062389"><ele>10.0</ele><time>2026-04-04T12:11:10Z</time></trkpt><trkpt lat="43.826017579208575" lon="10.486559232351262"><ele>10.0</ele><time>2026-04-04T12:11:11Z</time></trkpt><trkpt lat="43.825756614091475" lon="10.486532793969449"><ele>10.0</ele><time>2026-04-04T12:11:12Z</time></trkpt><trkpt lat="43.82548659735431" lon="10.486555361758855"><ele>10.0</ele><time>2026-04-04T12:11:13Z</time></trkpt><trkpt lat="43.825233276158265" lon="10.486648271393806"><ele>11.0</ele><time>2026-04-04T12:11:14Z</time></trkpt><trkpt lat="43.82494170959866" lon="10.48676169282299"><ele>12.0</ele><time>2026-04-04T12:11:15Z</time></trkpt><trkpt lat="43.824623984770945" lon="10.486946958766366"><ele>11.5</ele><time>2026-04-04T12:11:16Z</time></trkpt><trkpt lat="43.824314461588045" lon="10.487178113444456"><ele>11.0</ele><time>2026-04-04T12:11:17Z</time></trkpt><trkpt lat="43.82404809894398" lon="10.487402020764526"><ele>11.0</ele><time>2026-04-04T12:11:18Z</time></trkpt><trkpt lat="43.82376853362463" lon="10.487576387202953"><ele>11.0</ele><time>2026-04-04T12:11:19Z</time></trkpt><trkpt lat="43.82355802987208" lon="10.48775217290858"><ele>10.5</ele><time>2026-04-04T12:11:20Z</time></trkpt><trkpt lat="43.82332653790759" lon="10.487908985708538"><ele>10.0</ele><time>2026-04-04T12:11:21Z</time></trkpt><trkpt lat="43.823092706913684" lon="10.488074293483837"><ele>10.0</ele><time>2026-04-04T12:11:22Z</time></trkpt><trkpt lat="43.82284387612846" lon="10.488214104830504"><ele>10.0</ele><time>2026-04-04T12:11:23Z</time></trkpt><trkpt lat="43.82258690118044" lon="10.48834097044074"><ele>10.5</ele><time>2026-04-04T12:11:24Z</time></trkpt><trkpt lat="43.822313424351684" lon="10.488427024969873"><ele>11.0</ele><time>2026-04-04T12:11:25Z</time></trkpt><trkpt lat="43.82204525879997" lon="10.488469901693058"><ele>11.5</ele><time>2026-04-04T12:11:26Z</time></trkpt><trkpt lat="43.821760912329815" lon="10.488485342237011"><ele>12.0</ele><time>2026-04-04T12:11:27Z</time></trkpt><trkpt lat="43.821446094957246" lon="10.488447764484661"><ele>12.0</ele><time>2026-04-04T12:11:28Z</time></trkpt><trkpt lat="43.82115276046029" lon="10.488382666309748"><ele>12.0</ele><time>2026-04-04T12:11:29Z</time></trkpt><trkpt lat="43.82086444268895" lon="10.48831011864569"><ele>12.0</ele><time>2026-04-04T12:11:30Z</time></trkpt><trkpt lat="43.820567266046346" lon="10.488250033009189"><ele>12.0</ele><time>2026-04-04T12:11:31Z</time></trkpt><trkpt lat="43.82026972657023" lon="10.488149731358984"><ele>12.5</ele><time>2026-04-04T12:11:32Z</time></trkpt><trkpt lat="43.82001075532955" lon="10.488100134426807"><ele>13.0</ele><time>2026-04-04T12:11:33Z</time></trkpt><trkpt lat="43.81977625880613" lon="10.488038944581053"><ele>13.0</ele><time>2026-04-04T12:11:34Z</time></trkpt><trkpt lat="43.81954423870051" lon="10.487980088339677"><ele>13.0</ele><time>2026-04-04T12:11:35Z</time></trkpt><trkpt lat="43.8193182421678" lon="10.487924248143907"><ele>12.5</ele><time>2026-04-04T12:11:36Z</time></trkpt><trkpt lat="43.81909244728977" lon="10.487874454405175"><ele>12.0</ele><time>2026-04-04T12:11:37Z</time></trkpt><trkpt lat="43.81886599015671" lon="10.487855277690631"><ele>12.0</ele><time>2026-04-04T12:11:38Z</time></trkpt><trkpt lat="43.818623984473106" lon="10.487879505267085"><ele>12.0</ele><time>2026-04-04T12:11:39Z</time></trkpt><trkpt lat="43.81838745271218" lon="10.487869703564353"><ele>11.0</ele><time>2026-04-04T12:11:40Z</time></trkpt><trkpt lat="43.81815365125354" lon="10.487875877744631"><ele>10.0</ele><time>2026-04-04T12:11:41Z</time></trkpt><trkpt lat="43.81793659699944" lon="10.487887791199938"><ele>10.0</ele><time>2026-04-04T12:11:42Z</time></trkpt><trkpt lat="43.81772209588449" lon="10.48810961952368"><ele>10.0</ele><time>2026-04-04T12:11:43Z</time></trkpt><trkpt lat="43.81752847950587" lon="10.48814508356934"><ele>10.0</ele><time>2026-04-04T12:11:44Z</time></trkpt><trkpt lat="43.81733647748435" lon="10.488186412561058"><ele>10.0</ele><time>2026-04-04T12:11:45Z</time></trkpt><trkpt lat="43.81716148649189" lon="10.488215087253515"><ele>10.0</ele><time>2026-04-04T12:11:46Z</time></trkpt><trkpt lat="43.81699755940894" lon="10.488252443037847"><ele>10.0</ele><time>2026-04-04T12:11:47Z</time></trkpt><trkpt lat="43.81684718202148" lon="10.488295056106654"><ele>10.0</ele><time>2026-04-04T12:11:48Z</time></trkpt><trkpt lat="43.81672445834942" lon="10.4883446164282"><ele>10.0</ele><time>2026-04-04T12:11:49Z</time></trkpt><trkpt lat="43.81662823680024" lon="10.488408777296023"><ele>10.0</ele><time>2026-04-04T12:11:50Z</time></trkpt><trkpt lat="43.81653546372965" lon="10.488455898050507"><ele>10.4</ele><time>2026-04-04T12:11:51Z</time></trkpt><trkpt lat="43.81644307039978" lon="10.488492473098217"><ele>10.8</ele><time>2026-04-04T12:11:52Z</time></trkpt><trkpt lat="43.816328583220326" lon="10.488484211409105"><ele>11.2</ele><time>2026-04-04T12:11:53Z</time></trkpt><trkpt lat="43.81621773337773" lon="10.488497479079399"><ele>11.6</ele><time>2026-04-04T12:11:54Z</time></trkpt><trkpt lat="43.81612017345315" lon="10.488528771598686"><ele>12.0</ele><time>2026-04-04T12:11:55Z</time></trkpt><trkpt lat="43.8160269582117" lon="10.488541533629316"><ele>12.2</ele><time>2026-04-04T12:11:56Z</time></trkpt><trkpt lat="43.8159417823305" lon="10.488533603495128"><ele>12.399999999999999</ele><time>2026-04-04T12:11:57Z</time></trkpt><trkpt lat="43.81585135857017" lon="10.488472201044392"><ele>12.600000000000001</ele><time>2026-04-04T12:11:58Z</time></trkpt><trkpt lat="43.81574199651174" lon="10.488390907129043"><ele>12.8</ele><time>2026-04-04T12:11:59Z</time></trkpt><trkpt lat="43.81563108160096" lon="10.488329265361793"><ele>13.0</ele><time>2026-04-04T12:12:00Z</time></trkpt><trkpt lat="43.81551328546697" lon="10.488265803051053"><ele>13.0</ele><time>2026-04-04T12:12:01Z</time></trkpt><trkpt lat="43.81538534332759" lon="10.488193029256086"><ele>13.0</ele><time>2026-04-04T12:12:02Z</time></trkpt><trkpt lat="43.8152545872678" lon="10.488106903462743"><ele>13.0</ele><time>2026-04-04T12:12:03Z</time></trkpt><trkpt lat="43.81512308511511" lon="10.488015077949767"><ele>13.0</ele><time>2026-04-04T12:12:04Z</time></trkpt><trkpt lat="43.81499414337933" lon="10.48792811407727"><ele>13.5</ele><time>2026-04-04T12:12:05Z</time></trkpt><trkpt lat="43.81486543206459" lon="10.487835572159678"><ele>14.0</ele><time>2026-04-04T12:12:06Z</time></trkpt><trkpt lat="43.81474089811171" lon="10.48774638967005"><ele>14.5</ele><time>2026-04-04T12:12:07Z</time></trkpt><trkpt lat="43.81461716562685" lon="10.487662715958885"><ele>15.0</ele><time>2026-04-04T12:12:08Z</time></trkpt><trkpt lat="43.81450244379079" lon="10.48757472953106"><ele>15.0</ele><time>2026-04-04T12:12:09Z</time></trkpt><trkpt lat="43.81438752857778" lon="10.487492516532239"><ele>15.0</ele><time>2026-04-04T12:12:10Z</time></trkpt><trkpt lat="43.814269762227106" lon="10.487412916414256"><ele>15.0</ele><time>2026-04-04T12:12:11Z</time></trkpt><trkpt lat="43.81414153990332" lon="10.48733548213477"><ele>15.0</ele><time>2026-04-04T12:12:12Z</time></trkpt><trkpt lat="43.81399817486366" lon="10.487269680342305"><ele>14.666666666666668</ele><time>2026-04-04T12:12:13Z</time></trkpt><trkpt lat="43.81384812350557" lon="10.487208225071651"><ele>14.333333333333334</ele><time>2026-04-04T12:12:14Z</time></trkpt><trkpt lat="43.81368910298043" lon="10.487144574046093"><ele>14.0</ele><time>2026-04-04T12:12:15Z</time></trkpt><trkpt lat="43.81353186871204" lon="10.487079201312511"><ele>14.666666666666668</ele><time>2026-04-04T12:12:16Z</time></trkpt><trkpt lat="43.813384122069124" lon="10.487016010449839"><ele>15.333333333333332</ele><time>2026-04-04T12:12:17Z</time></trkpt><trkpt lat="43.813243320015765" lon="10.48695409962392"><ele>16.0</ele><time>2026-04-04T12:12:18Z</time></trkpt><trkpt lat="43.813097679078425" lon="10.486893244650123"><ele>16.0</ele><time>2026-04-04T12:12:19Z</time></trkpt><trkpt lat="43.81295249422289" lon="10.486832729559803"><ele>16.0</ele><time>2026-04-04T12:12:20Z</time></trkpt><trkpt lat="43.812808324763125" lon="10.486770820707546"><ele>16.0</ele><time>2026-04-04T12:12:21Z</time></trkpt><trkpt lat="43.81266403232473" lon="10.486709908698138"><ele>16.666666666666664</ele><time>2026-04-04T12:12:22Z</time></trkpt><trkpt lat="43.812519548054304" lon="10.486642216292255"><ele>17.333333333333332</ele><time>2026-04-04T12:12:23Z</time></trkpt><trkpt lat="43.812369449576344" lon="10.486576092098842"><ele>18.0</ele><time>2026-04-04T12:12:24Z</time></trkpt><trkpt lat="43.812224860486175" lon="10.486501939185668"><ele>18.0</ele><time>2026-04-04T12:12:25Z</time></trkpt><trkpt lat="43.81208036909407" lon="10.486428822948836"><ele>18.0</ele><time>2026-04-04T12:12:26Z</time></trkpt><trkpt lat="43.811932135311814" lon="10.486361956415358"><ele>18.0</ele><time>2026-04-04T12:12:27Z</time></trkpt><trkpt lat="43.811779865448756" lon="10.486295862605827"><ele>18.666666666666668</ele><time>2026-04-04T12:12:28Z</time></trkpt><trkpt lat="43.81162325192075" lon="10.486226697322751"><ele>19.333333333333336</ele><time>2026-04-04T12:12:29Z</time></trkpt><trkpt lat="43.81146861855106" lon="10.486159392058768"><ele>20.0</ele><time>2026-04-04T12:12:30Z</time></trkpt><trkpt lat="43.81132785149812" lon="10.486095586054162"><ele>20.0</ele><time>2026-04-04T12:12:31Z</time></trkpt><trkpt lat="43.811202817707866" lon="10.486043683049331"><ele>20.0</ele><time>2026-04-04T12:12:32Z</time></trkpt><trkpt lat="43.81108313662001" lon="10.48599597944224"><ele>20.0</ele><time>2026-04-04T12:12:33Z</time></trkpt><trkpt lat="43.8109621804568" lon="10.485945150502484"><ele>20.0</ele><time>2026-04-04T12:12:34Z</time></trkpt><trkpt lat="43.810815651606895" lon="10.485895299179106"><ele>19.5</ele><time>2026-04-04T12:12:35Z</time></trkpt><trkpt lat="43.810598784262645" lon="10.485824224045249"><ele>19.0</ele><time>2026-04-04T12:12:36Z</time></trkpt><trkpt lat="43.810312219228656" lon="10.485734748275796"><ele>18.5</ele><time>2026-04-04T12:12:37Z</time></trkpt><trkpt lat="43.80998970876055" lon="10.485637561742106"><ele>18.0</ele><time>2026-04-04T12:12:38Z</time></trkpt><trkpt lat="43.80971080611477" lon="10.485528863898233"><ele>18.0</ele><time>2026-04-04T12:12:39Z</time></trkpt><trkpt lat="43.80946954542259" lon="10.485437615887466"><ele>18.0</ele><time>2026-04-04T12:12:40Z</time></trkpt><trkpt lat="43.80924760544951" lon="10.48535990386337"><ele>21.0</ele><time>2026-04-04T12:12:41Z</time></trkpt><trkpt lat="43.80904810819065" lon="10.485304897215421"><ele>24.0</ele><time>2026-04-04T12:12:42Z</time></trkpt><trkpt lat="43.808897419696414" lon="10.485264263785554"><ele>27.0</ele><time>2026-04-04T12:12:43Z</time></trkpt><trkpt lat="43.80875211964799" lon="10.485206497981661"><ele>27.0</ele><time>2026-04-04T12:12:44Z</time></trkpt><trkpt lat="43.80860795735717" lon="10.485147408581353"><ele>27.0</ele><time>2026-04-04T12:12:45Z</time></trkpt><trkpt lat="43.80847047781765" lon="10.485116915289776"><ele>27.0</ele><time>2026-04-04T12:12:46Z</time></trkpt><trkpt lat="43.80833809470094" lon="10.485088982659082"><ele>27.0</ele><time>2026-04-04T12:12:47Z</time></trkpt><trkpt lat="43.80822174581311" lon="10.485044477247536"><ele>26.0</ele><time>2026-04-04T12:12:48Z</time></trkpt><trkpt lat="43.808119815428476" lon="10.484970526813763"><ele>25.0</ele><time>2026-04-04T12:12:49Z</time></trkpt><trkpt lat="43.808001677409685" lon="10.484929121200976"><ele>24.0</ele><time>2026-04-04T12:12:50Z</time></trkpt><trkpt lat="43.807868221861995" lon="10.48488234716738"><ele>23.0</ele><time>2026-04-04T12:12:51Z</time></trkpt><trkpt lat="43.80772348389644" lon="10.484836614779201"><ele>22.666666666666668</ele><time>2026-04-04T12:12:52Z</time></trkpt><trkpt lat="43.807576074411706" lon="10.484793136805358"><ele>22.333333333333332</ele><time>2026-04-04T12:12:53Z</time></trkpt><trkpt lat="43.80741679625264" lon="10.484753370431195"><ele>22.0</ele><time>2026-04-04T12:12:54Z</time></trkpt><trkpt lat="43.80725808568928" lon="10.484718734875644"><ele>22.0</ele><time>2026-04-04T12:12:55Z</time></trkpt><trkpt lat="43.80709571471765" lon="10.484704274268598"><ele>22.0</ele><time>2026-04-04T12:12:56Z</time></trkpt><trkpt lat="43.80692329436734" lon="10.484666214131563"><ele>22.0</ele><time>2026-04-04T12:12:57Z</time></trkpt><trkpt lat="43.80672806516266" lon="10.484637675586805"><ele>22.0</ele><time>2026-04-04T12:12:58Z</time></trkpt><trkpt lat="43.80653663016392" lon="10.484604743982509"><ele>22.0</ele><time>2026-04-04T12:12:59Z</time></trkpt><trkpt lat="43.806342342139374" lon="10.484577427410747"><ele>22.0</ele><time>2026-04-04T12:13:00Z</time></trkpt><trkpt lat="43.80614483919613" lon="10.484547576190979"><ele>21.333333333333332</ele><time>2026-04-04T12:13:01Z</time></trkpt><trkpt lat="43.80595377759009" lon="10.484518835113805"><ele>20.666666666666668</ele><time>2026-04-04T12:13:02Z</time></trkpt><trkpt lat="43.80578505329026" lon="10.484479071311114"><ele>20.0</ele><time>2026-04-04T12:13:03Z</time></trkpt><trkpt lat="43.80561081005919" lon="10.48445435158804"><ele>20.0</ele><time>2026-04-04T12:13:04Z</time></trkpt><trkpt lat="43.80544142814061" lon="10.484432624384336"><ele>20.0</ele><time>2026-04-04T12:13:05Z</time></trkpt><trkpt lat="43.805263809867995" lon="10.484410307598862"><ele>20.0</ele><time>2026-04-04T12:13:06Z</time></trkpt><trkpt lat="43.805088586016936" lon="10.484382938571768"><ele>20.0</ele><time>2026-04-04T12:13:07Z</time></trkpt><trkpt lat="43.80489584114159" lon="10.48434660979615"><ele>20.0</ele><time>2026-04-04T12:13:08Z</time></trkpt><trkpt lat="43.804709545901126" lon="10.484286078605889"><ele>20.0</ele><time>2026-04-04T12:13:09Z</time></trkpt><trkpt lat="43.80453650856844" lon="10.484251693070801"><ele>20.0</ele><time>2026-04-04T12:13:10Z</time></trkpt><trkpt lat="43.80436595283995" lon="10.484243932793907"><ele>20.0</ele><time>2026-04-04T12:13:11Z</time></trkpt><trkpt lat="43.80417465433837" lon="10.484250911309669"><ele>20.0</ele><time>2026-04-04T12:13:12Z</time></trkpt><trkpt lat="43.80398745891167" lon="10.484290836979154"><ele>20.666666666666668</ele><time>2026-04-04T12:13:13Z</time></trkpt><trkpt lat="43.803820175109024" lon="10.484367649064225"><ele>21.333333333333332</ele><time>2026-04-04T12:13:14Z</time></trkpt><trkpt lat="43.80366497402616" lon="10.484434784337934"><ele>22.0</ele><time>2026-04-04T12:13:15Z</time></trkpt><trkpt lat="43.803529099009864" lon="10.48448276260669"><ele>21.75</ele><time>2026-04-04T12:13:16Z</time></trkpt><trkpt lat="43.80340099205832" lon="10.484526452554341"><ele>21.5</ele><time>2026-04-04T12:13:17Z</time></trkpt><trkpt lat="43.80327766793618" lon="10.484565937455928"><ele>21.25</ele><time>2026-04-04T12:13:18Z</time></trkpt><trkpt lat="43.80314996991282" lon="10.48460877893562"><ele>21.0</ele><time>2026-04-04T12:13:19Z</time></trkpt><trkpt lat="43.80301973103047" lon="10.484654534999853"><ele>21.0</ele><time>2026-04-04T12:13:20Z</time></trkpt><trkpt lat="43.80288824643288" lon="10.484689358455814"><ele>21.0</ele><time>2026-04-04T12:13:21Z</time></trkpt><trkpt lat="43.80276330707747" lon="10.484720946957706"><ele>21.0</ele><time>2026-04-04T12:13:22Z</time></trkpt><trkpt lat="43.80263904443552" lon="10.484745123350155"><ele>21.0</ele><time>2026-04-04T12:13:23Z</time></trkpt><trkpt lat="43.80252154063139" lon="10.484750481359747"><ele>21.75</ele><time>2026-04-04T12:13:24Z</time></trkpt><trkpt lat="43.802398678029576" lon="10.484727316012503"><ele>22.5</ele><time>2026-04-04T12:13:25Z</time></trkpt><trkpt lat="43.80228207575113" lon="10.484720162947843"><ele>23.25</ele><time>2026-04-04T12:13:26Z</time></trkpt><trkpt lat="43.802153605936304" lon="10.484718504133062"><ele>24.0</ele><time>2026-04-04T12:13:27Z</time></trkpt><trkpt lat="43.80202821457407" lon="10.484700763076038"><ele>24.0</ele><time>2026-04-04T12:13:28Z</time></trkpt><trkpt lat="43.8019024273324" lon="10.484699536396624"><ele>24.0</ele><time>2026-04-04T12:13:29Z</time></trkpt><trkpt lat="43.80177774425552" lon="10.484692467896906"><ele>24.0</ele><time>2026-04-04T12:13:30Z</time></trkpt><trkpt lat="43.801653946693946" lon="10.484659507779892"><ele>24.0</ele><time>2026-04-04T12:13:31Z</time></trkpt><trkpt lat="43.801532190335124" lon="10.484647265023233"><ele>24.75</ele><time>2026-04-04T12:13:32Z</time></trkpt><trkpt lat="43.80141264093371" lon="10.484635244180893"><ele>25.5</ele><time>2026-04-04T12:13:33Z</time></trkpt><trkpt lat="43.80128751340019" lon="10.484622662452521"><ele>26.25</ele><time>2026-04-04T12:13:34Z</time></trkpt><trkpt lat="43.80116345526431" lon="10.484632354088165"><ele>27.0</ele><time>2026-04-04T12:13:35Z</time></trkpt><trkpt lat="43.8010352360621" lon="10.48461711867088"><ele>27.0</ele><time>2026-04-04T12:13:36Z</time></trkpt><trkpt lat="43.80090241085853" lon="10.48460152327061"><ele>27.0</ele><time>2026-04-04T12:13:37Z</time></trkpt><trkpt lat="43.8007658020267" lon="10.484587206982138"><ele>27.0</ele><time>2026-04-04T12:13:38Z</time></trkpt><trkpt lat="43.80062627611743" lon="10.484548327447115"><ele>27.0</ele><time>2026-04-04T12:13:39Z</time></trkpt><trkpt lat="43.80048369003483" lon="10.484531814457572"><ele>27.5</ele><time>2026-04-04T12:13:40Z</time></trkpt><trkpt lat="43.80033759228577" lon="10.484516385936443"><ele>28.0</ele><time>2026-04-04T12:13:41Z</time></trkpt><trkpt lat="43.80018991795049" lon="10.484501326079933"><ele>28.5</ele><time>2026-04-04T12:13:42Z</time></trkpt><trkpt lat="43.80004183785577" lon="10.484482827673837"><ele>29.0</ele><time>2026-04-04T12:13:43Z</time></trkpt><trkpt lat="43.79989152025358" lon="10.484455006353611"><ele>29.25</ele><time>2026-04-04T12:13:44Z</time></trkpt><trkpt lat="43.79974183139628" lon="10.484407342869774"><ele>29.5</ele><time>2026-04-04T12:13:45Z</time></trkpt><trkpt lat="43.799606967542616" lon="10.48433981670069"><ele>29.75</ele><time>2026-04-04T12:13:46Z</time></trkpt><trkpt lat="43.79947739013393" lon="10.484259812459793"><ele>30.0</ele><time>2026-04-04T12:13:47Z</time></trkpt><trkpt lat="43.7993486051792" lon="10.484169124113055"><ele>29.666666666666664</ele><time>2026-04-04T12:13:48Z</time></trkpt><trkpt lat="43.799216040540855" lon="10.484074975375977"><ele>29.333333333333332</ele><time>2026-04-04T12:13:49Z</time></trkpt><trkpt lat="43.79907461951732" lon="10.483992163058259"><ele>29.0</ele><time>2026-04-04T12:13:50Z</time></trkpt><trkpt lat="43.79894198013362" lon="10.483898289267684"><ele>29.0</ele><time>2026-04-04T12:13:51Z</time></trkpt><trkpt lat="43.79883289394409" lon="10.483803155584418"><ele>29.0</ele><time>2026-04-04T12:13:52Z</time></trkpt><trkpt lat="43.798711151070194" lon="10.48370627950543"><ele>29.0</ele><time>2026-04-04T12:13:53Z</time></trkpt><trkpt lat="43.79858870101396" lon="10.483610695178296"><ele>29.0</ele><time>2026-04-04T12:13:54Z</time></trkpt><trkpt lat="43.79846242433598" lon="10.48351592673731"><ele>29.0</ele><time>2026-04-04T12:13:55Z</time></trkpt><trkpt lat="43.798331569009235" lon="10.483418303668733"><ele>29.0</ele><time>2026-04-04T12:13:56Z</time></trkpt><trkpt lat="43.79819635231207" lon="10.483315350430518"><ele>29.0</ele><time>2026-04-04T12:13:57Z</time></trkpt><trkpt lat="43.79806280474947" lon="10.483205832367446"><ele>29.0</ele><time>2026-04-04T12:13:58Z</time></trkpt><trkpt lat="43.7979346656824" lon="10.483084591050236"><ele>29.0</ele><time>2026-04-04T12:13:59Z</time></trkpt><trkpt lat="43.79780667470439" lon="10.48295412589398"><ele>29.0</ele><time>2026-04-04T12:14:00Z</time></trkpt><trkpt lat="43.79769617659099" lon="10.482820233513179"><ele>29.75</ele><time>2026-04-04T12:14:01Z</time></trkpt><trkpt lat="43.79758730036988" lon="10.482689151327511"><ele>30.5</ele><time>2026-04-04T12:14:02Z</time></trkpt><trkpt lat="43.797482176814945" lon="10.482560049787185"><ele>31.25</ele><time>2026-04-04T12:14:03Z</time></trkpt><trkpt lat="43.79737589170623" lon="10.48243340299311"><ele>32.0</ele><time>2026-04-04T12:14:04Z</time></trkpt><trkpt lat="43.797276446795344" lon="10.482313642563392"><ele>32.0</ele><time>2026-04-04T12:14:05Z</time></trkpt><trkpt lat="43.797185202771225" lon="10.482204479681307"><ele>32.0</ele><time>2026-04-04T12:14:06Z</time></trkpt><trkpt lat="43.797089361382376" lon="10.48209512855819"><ele>32.0</ele><time>2026-04-04T12:14:07Z</time></trkpt><trkpt lat="43.79698688779671" lon="10.481977306999275"><ele>32.0</ele><time>2026-04-04T12:14:08Z</time></trkpt><trkpt lat="43.79688178556507" lon="10.48185288315864"><ele>31.666666666666664</ele><time>2026-04-04T12:14:09Z</time></trkpt><trkpt lat="43.79677082369066" lon="10.48172338468268"><ele>31.333333333333336</ele><time>2026-04-04T12:14:10Z</time></trkpt><trkpt lat="43.796655007250806" lon="10.481587505221972"><ele>31.0</ele><time>2026-04-04T12:14:11Z</time></trkpt><trkpt lat="43.79653769197984" lon="10.48145134479702"><ele>31.0</ele><time>2026-04-04T12:14:12Z</time></trkpt><trkpt lat="43.79642209491569" lon="10.481313493277076"><ele>31.0</ele><time>2026-04-04T12:14:13Z</time></trkpt><trkpt lat="43.79631668776002" lon="10.481187724912497"><ele>31.0</ele><time>2026-04-04T12:14:14Z</time></trkpt><trkpt lat="43.796214510795146" lon="10.481062569794888"><ele>31.0</ele><time>2026-04-04T12:14:15Z</time></trkpt><trkpt lat="43.796113699780776" lon="10.480942420514284"><ele>31.25</ele><time>2026-04-04T12:14:16Z</time></trkpt><trkpt lat="43.79600851463309" lon="10.480815133742054"><ele>31.5</ele><time>2026-04-04T12:14:17Z</time></trkpt><trkpt lat="43.795901118736005" lon="10.480685892025248"><ele>31.75</ele><time>2026-04-04T12:14:18Z</time></trkpt><trkpt lat="43.795792852649335" lon="10.480553321711213"><ele>32.0</ele><time>2026-04-04T12:14:19Z</time></trkpt><trkpt lat="43.79568061794675" lon="10.480416800511595"><ele>32.0</ele><time>2026-04-04T12:14:20Z</time></trkpt><trkpt lat="43.79556400481899" lon="10.480286149043414"><ele>32.0</ele><time>2026-04-04T12:14:21Z</time></trkpt><trkpt lat="43.79544558612368" lon="10.480151954067999"><ele>32.0</ele><time>2026-04-04T12:14:22Z</time></trkpt><trkpt lat="43.79532733845676" lon="10.480013806843317"><ele>32.0</ele><time>2026-04-04T12:14:23Z</time></trkpt><trkpt lat="43.795212810656615" lon="10.479874838163957"><ele>32.0</ele><time>2026-04-04T12:14:24Z</time></trkpt><trkpt lat="43.79510362891467" lon="10.479743346390531"><ele>32.0</ele><time>2026-04-04T12:14:25Z</time></trkpt><trkpt lat="43.79500076904354" lon="10.47962067775915"><ele>32.0</ele><time>2026-04-04T12:14:26Z</time></trkpt><trkpt lat="43.7948985178161" lon="10.479496025470445"><ele>32.5</ele><time>2026-04-04T12:14:27Z</time></trkpt><trkpt lat="43.79479166019848" lon="10.479371553951328"><ele>33.0</ele><time>2026-04-04T12:14:28Z</time></trkpt><trkpt lat="43.79468389620484" lon="10.479246184040239"><ele>33.5</ele><time>2026-04-04T12:14:29Z</time></trkpt><trkpt lat="43.79457750977373" lon="10.479120536240623"><ele>34.0</ele><time>2026-04-04T12:14:30Z</time></trkpt><trkpt lat="43.79446862327942" lon="10.478994165723115"><ele>34.0</ele><time>2026-04-04T12:14:31Z</time></trkpt><trkpt lat="43.79435964068411" lon="10.478867465005404"><ele>34.0</ele><time>2026-04-04T12:14:32Z</time></trkpt><trkpt lat="43.79425327798152" lon="10.47874178551384"><ele>34.0</ele><time>2026-04-04T12:14:33Z</time></trkpt><trkpt lat="43.79414508953031" lon="10.478613266958941"><ele>34.0</ele><time>2026-04-04T12:14:34Z</time></trkpt><trkpt lat="43.79403793819507" lon="10.478484365732186"><ele>34.0</ele><time>2026-04-04T12:14:35Z</time></trkpt><trkpt lat="43.79393684708576" lon="10.478365274596"><ele>34.0</ele><time>2026-04-04T12:14:36Z</time></trkpt><trkpt lat="43.793844151284354" lon="10.47825452583599"><ele>34.0</ele><time>2026-04-04T12:14:37Z</time></trkpt><trkpt lat="43.793747855069604" lon="10.478139567695418"><ele>34.0</ele><time>2026-04-04T12:14:38Z</time></trkpt><trkpt lat="43.793646736358255" lon="10.478017635891387"><ele>33.75</ele><time>2026-04-04T12:14:39Z</time></trkpt><trkpt lat="43.793542743693024" lon="10.477894960839418"><ele>33.5</ele><time>2026-04-04T12:14:40Z</time></trkpt><trkpt lat="43.793436439921" lon="10.477768477651557"><ele>33.25</ele><time>2026-04-04T12:14:41Z</time></trkpt><trkpt lat="43.793328467052966" lon="10.477641011565158"><ele>33.0</ele><time>2026-04-04T12:14:42Z</time></trkpt><trkpt lat="43.79322883137914" lon="10.477523277779433"><ele>33.0</ele><time>2026-04-04T12:14:43Z</time></trkpt><trkpt lat="43.79313277970446" lon="10.477406092973599"><ele>33.0</ele><time>2026-04-04T12:14:44Z</time></trkpt><trkpt lat="43.7930370806431" lon="10.477291873121422"><ele>33.0</ele><time>2026-04-04T12:14:45Z</time></trkpt><trkpt lat="43.79294187601732" lon="10.477179575658361"><ele>33.0</ele><time>2026-04-04T12:14:46Z</time></trkpt><trkpt lat="43.79284961467304" lon="10.477061628781536"><ele>34.0</ele><time>2026-04-04T12:14:47Z</time></trkpt><trkpt lat="43.79275300868902" lon="10.476947243337417"><ele>35.0</ele><time>2026-04-04T12:14:48Z</time></trkpt><trkpt lat="43.792655787729146" lon="10.476834479130394"><ele>36.0</ele><time>2026-04-04T12:14:49Z</time></trkpt><trkpt lat="43.792554429802" lon="10.476717487993277"><ele>37.0</ele><time>2026-04-04T12:14:50Z</time></trkpt><trkpt lat="43.79245193547741" lon="10.476599454001391"><ele>37.0</ele><time>2026-04-04T12:14:51Z</time></trkpt><trkpt lat="43.79235266353301" lon="10.47647719562647"><ele>37.0</ele><time>2026-04-04T12:14:52Z</time></trkpt><trkpt lat="43.79225184414546" lon="10.476354689910183"><ele>37.0</ele><time>2026-04-04T12:14:53Z</time></trkpt><trkpt lat="43.79215191102049" lon="10.47623436262615"><ele>37.0</ele><time>2026-04-04T12:14:54Z</time></trkpt><trkpt lat="43.79205212883701" lon="10.476115275842146"><ele>37.25</ele><time>2026-04-04T12:14:55Z</time></trkpt><trkpt lat="43.79194950454652" lon="10.476000775665339"><ele>37.5</ele><time>2026-04-04T12:14:56Z</time></trkpt><trkpt lat="43.7918403924936" lon="10.47589247976881"><ele>37.75</ele><time>2026-04-04T12:14:57Z</time></trkpt><trkpt lat="43.791717678521174" lon="10.475799150835797"><ele>38.0</ele><time>2026-04-04T12:14:58Z</time></trkpt><trkpt lat="43.791587846697816" lon="10.475712986307485"><ele>38.0</ele><time>2026-04-04T12:14:59Z</time></trkpt><trkpt lat="43.79145767982389" lon="10.475631760480903"><ele>38.0</ele><time>2026-04-04T12:15:00Z</time></trkpt><trkpt lat="43.79132655395401" lon="10.475550874111407"><ele>38.0</ele><time>2026-04-04T12:15:01Z</time></trkpt><trkpt lat="43.79119503955839" lon="10.475470068181318"><ele>38.0</ele><time>2026-04-04T12:15:02Z</time></trkpt><trkpt lat="43.79106475382958" lon="10.475389135259261"><ele>37.75</ele><time>2026-04-04T12:15:03Z</time></trkpt><trkpt lat="43.79094280025662" lon="10.475312813972444"><ele>37.5</ele><time>2026-04-04T12:15:04Z</time></trkpt><trkpt lat="43.79082784490505" lon="10.47524042448883"><ele>37.25</ele><time>2026-04-04T12:15:05Z</time></trkpt><trkpt lat="43.790721741801455" lon="10.475173545380636"><ele>37.0</ele><time>2026-04-04T12:15:06Z</time></trkpt><trkpt lat="43.790613313518755" lon="10.475103784212415"><ele>37.0</ele><time>2026-04-04T12:15:07Z</time></trkpt><trkpt lat="43.79050540508529" lon="10.475033840426164"><ele>37.0</ele><time>2026-04-04T12:15:08Z</time></trkpt><trkpt lat="43.79039949894884" lon="10.474959682737962"><ele>37.0</ele><time>2026-04-04T12:15:09Z</time></trkpt><trkpt lat="43.79029774706954" lon="10.474878304572519"><ele>37.0</ele><time>2026-04-04T12:15:10Z</time></trkpt><trkpt lat="43.790197505349916" lon="10.474785890254159"><ele>37.25</ele><time>2026-04-04T12:15:11Z</time></trkpt><trkpt lat="43.79009454112419" lon="10.474678755749053"><ele>37.5</ele><time>2026-04-04T12:15:12Z</time></trkpt><trkpt lat="43.78999528180744" lon="10.474553223805"><ele>37.75</ele><time>2026-04-04T12:15:13Z</time></trkpt><trkpt lat="43.78990089842187" lon="10.474417515741377"><ele>38.0</ele><time>2026-04-04T12:15:14Z</time></trkpt><trkpt lat="43.78980256395099" lon="10.474270421352252"><ele>38.0</ele><time>2026-04-04T12:15:15Z</time></trkpt><trkpt lat="43.78969563105829" lon="10.474117753428851"><ele>38.0</ele><time>2026-04-04T12:15:16Z</time></trkpt><trkpt lat="43.789585200993905" lon="10.473959670890764"><ele>38.0</ele><time>2026-04-04T12:15:17Z</time></trkpt><trkpt lat="43.789474645248966" lon="10.473796640884062"><ele>38.33333333333333</ele><time>2026-04-04T12:15:18Z</time></trkpt><trkpt lat="43.78936109977163" lon="10.473624415259202"><ele>38.666666666666664</ele><time>2026-04-04T12:15:19Z</time></trkpt><trkpt lat="43.789236018652" lon="10.473438274065545"><ele>39.0</ele><time>2026-04-04T12:15:20Z</time></trkpt><trkpt lat="43.78911083511174" lon="10.473254300896452"><ele>39.0</ele><time>2026-04-04T12:15:21Z</time></trkpt><trkpt lat="43.7889294197689" lon="10.473017146640254"><ele>39.0</ele><time>2026-04-04T12:15:22Z</time></trkpt><trkpt lat="43.788755409185924" lon="10.47275713759228"><ele>40.0</ele><time>2026-04-04T12:15:23Z</time></trkpt><trkpt lat="43.78855899511292" lon="10.472455498718434"><ele>41.0</ele><time>2026-04-04T12:15:24Z</time></trkpt><trkpt lat="43.78832331649375" lon="10.47216045414459"><ele>42.5</ele><time>2026-04-04T12:15:25Z</time></trkpt><trkpt lat="43.78809114319604" lon="10.471802401553914"><ele>44.0</ele><time>2026-04-04T12:15:26Z</time></trkpt><trkpt lat="43.78785667934333" lon="10.471433996555401"><ele>45.0</ele><time>2026-04-04T12:15:27Z</time></trkpt><trkpt lat="43.78764597437206" lon="10.471111940537243"><ele>46.0</ele><time>2026-04-04T12:15:28Z</time></trkpt><trkpt lat="43.78744971947436" lon="10.470822229117509"><ele>46.0</ele><time>2026-04-04T12:15:29Z</time></trkpt><trkpt lat="43.787264742572695" lon="10.470555542100785"><ele>46.0</ele><time>2026-04-04T12:15:30Z</time></trkpt><trkpt lat="43.78708571622477" lon="10.470316609957845"><ele>46.0</ele><time>2026-04-04T12:15:31Z</time></trkpt><trkpt lat="43.786906490789555" lon="10.47008423760566"><ele>46.0</ele><time>2026-04-04T12:15:32Z</time></trkpt><trkpt lat="43.78672771150936" lon="10.469867374102959"><ele>48.0</ele><time>2026-04-04T12:15:33Z</time></trkpt><trkpt lat="43.78655472054011" lon="10.46965321545998"><ele>50.0</ele><time>2026-04-04T12:15:34Z</time></trkpt><trkpt lat="43.78638508356403" lon="10.469442118509585"><ele>50.0</ele><time>2026-04-04T12:15:35Z</time></trkpt><trkpt lat="43.78621404811777" lon="10.469231927668599"><ele>50.0</ele><time>2026-04-04T12:15:36Z</time></trkpt><trkpt lat="43.78604000590898" lon="10.469020103040997"><ele>51.5</ele><time>2026-04-04T12:15:37Z</time></trkpt><trkpt lat="43.78586876569538" lon="10.46880500461337"><ele>53.0</ele><time>2026-04-04T12:15:38Z</time></trkpt><trkpt lat="43.785698833506736" lon="10.468582429134509"><ele>53.0</ele><time>2026-04-04T12:15:39Z</time></trkpt><trkpt lat="43.78552488232204" lon="10.468362991551045"><ele>53.0</ele><time>2026-04-04T12:15:40Z</time></trkpt><trkpt lat="43.7853477699849" lon="10.4681444038647"><ele>53.0</ele><time>2026-04-04T12:15:41Z</time></trkpt><trkpt lat="43.78517336335969" lon="10.467926150385647"><ele>53.0</ele><time>2026-04-04T12:15:42Z</time></trkpt><trkpt lat="43.785005451119275" lon="10.467714628614269"><ele>53.0</ele><time>2026-04-04T12:15:43Z</time></trkpt><trkpt lat="43.784839760706845" lon="10.467507479393552"><ele>53.0</ele><time>2026-04-04T12:15:44Z</time></trkpt><trkpt lat="43.78467861688388" lon="10.467305388318175"><ele>53.0</ele><time>2026-04-04T12:15:45Z</time></trkpt><trkpt lat="43.78451791959843" lon="10.467105691200308"><ele>52.333333333333336</ele><time>2026-04-04T12:15:46Z</time></trkpt><trkpt lat="43.78436223185888" lon="10.466916001277362"><ele>51.66666666666667</ele><time>2026-04-04T12:15:47Z</time></trkpt><trkpt lat="43.78421809412062" lon="10.466741791747332"><ele>51.0</ele><time>2026-04-04T12:15:48Z</time></trkpt><trkpt lat="43.78408761107105" lon="10.466575270250052"><ele>52.33333333333333</ele><time>2026-04-04T12:15:49Z</time></trkpt><trkpt lat="43.78395313582219" lon="10.466408940802426"><ele>53.666666666666664</ele><time>2026-04-04T12:15:50Z</time></trkpt><trkpt lat="43.783819036229" lon="10.466238760045561"><ele>55.0</ele><time>2026-04-04T12:15:51Z</time></trkpt><trkpt lat="43.78368711465265" lon="10.466073118041743"><ele>55.0</ele><time>2026-04-04T12:15:52Z</time></trkpt><trkpt lat="43.78355367576736" lon="10.46591131162476"><ele>55.0</ele><time>2026-04-04T12:15:53Z</time></trkpt><trkpt lat="43.78342743756937" lon="10.465761331710683"><ele>55.0</ele><time>2026-04-04T12:15:54Z</time></trkpt><trkpt lat="43.783301000851765" lon="10.465606644940127"><ele>55.33333333333333</ele><time>2026-04-04T12:15:55Z</time></trkpt><trkpt lat="43.78317762235219" lon="10.465452386138084"><ele>55.66666666666667</ele><time>2026-04-04T12:15:56Z</time></trkpt><trkpt lat="43.78306126258974" lon="10.465310639280371"><ele>56.0</ele><time>2026-04-04T12:15:57Z</time></trkpt><trkpt lat="43.78293731501311" lon="10.465165050989846"><ele>56.0</ele><time>2026-04-04T12:15:58Z</time></trkpt><trkpt lat="43.782812113697936" lon="10.465027322332263"><ele>56.0</ele><time>2026-04-04T12:15:59Z</time></trkpt><trkpt lat="43.782703149161826" lon="10.464902199769158"><ele>56.0</ele><time>2026-04-04T12:16:00Z</time></trkpt><trkpt lat="43.78259698804191" lon="10.464786989412023"><ele>56.0</ele><time>2026-04-04T12:16:01Z</time></trkpt><trkpt lat="43.78248852674573" lon="10.464667509347171"><ele>57.333333333333336</ele><time>2026-04-04T12:16:02Z</time></trkpt><trkpt lat="43.78236949560959" lon="10.464535764669481"><ele>58.66666666666667</ele><time>2026-04-04T12:16:03Z</time></trkpt><trkpt lat="43.782225017338185" lon="10.464382426020961"><ele>60.0</ele><time>2026-04-04T12:16:04Z</time></trkpt><trkpt lat="43.782032169132236" lon="10.46419811774705"><ele>60.0</ele><time>2026-04-04T12:16:05Z</time></trkpt><trkpt lat="43.781879450909855" lon="10.463994196701503"><ele>60.0</ele><time>2026-04-04T12:16:06Z</time></trkpt><trkpt lat="43.78173949713401" lon="10.463819115324743"><ele>60.0</ele><time>2026-04-04T12:16:07Z</time></trkpt><trkpt lat="43.78160666788407" lon="10.463682565884215"><ele>60.75</ele><time>2026-04-04T12:16:08Z</time></trkpt><trkpt lat="43.78148728352462" lon="10.46354786134276"><ele>61.5</ele><time>2026-04-04T12:16:09Z</time></trkpt><trkpt lat="43.78137896435529" lon="10.463426643032157"><ele>62.25</ele><time>2026-04-04T12:16:10Z</time></trkpt><trkpt lat="43.78126904440568" lon="10.463306125384518"><ele>63.0</ele><time>2026-04-04T12:16:11Z</time></trkpt><trkpt lat="43.78115320886655" lon="10.463181113544879"><ele>63.0</ele><time>2026-04-04T12:16:12Z</time></trkpt><trkpt lat="43.781033604292055" lon="10.463054434155103"><ele>63.0</ele><time>2026-04-04T12:16:13Z</time></trkpt><trkpt lat="43.78092901814389" lon="10.46291456119046"><ele>63.0</ele><time>2026-04-04T12:16:14Z</time></trkpt><trkpt lat="43.780820347342996" lon="10.46277585491013"><ele>63.0</ele><time>2026-04-04T12:16:15Z</time></trkpt><trkpt lat="43.780717884016866" lon="10.46262608017571"><ele>64.0</ele><time>2026-04-04T12:16:16Z</time></trkpt><trkpt lat="43.78060978045171" lon="10.462466093004489"><ele>65.0</ele><time>2026-04-04T12:16:17Z</time></trkpt><trkpt lat="43.78049808344181" lon="10.46230797248231"><ele>66.0</ele><time>2026-04-04T12:16:18Z</time></trkpt><trkpt lat="43.780398740321914" lon="10.46215963028861"><ele>66.25</ele><time>2026-04-04T12:16:19Z</time></trkpt><trkpt lat="43.780301046095886" lon="10.462013571177701"><ele>66.5</ele><time>2026-04-04T12:16:20Z</time></trkpt><trkpt lat="43.780201802136" lon="10.46185877410982"><ele>66.75</ele><time>2026-04-04T12:16:21Z</time></trkpt><trkpt lat="43.78010335186785" lon="10.461702264370574"><ele>67.0</ele><time>2026-04-04T12:16:22Z</time></trkpt><trkpt lat="43.78000309788698" lon="10.461551035408437"><ele>67.25</ele><time>2026-04-04T12:16:23Z</time></trkpt><trkpt lat="43.779904819843864" lon="10.461408557929802"><ele>67.5</ele><time>2026-04-04T12:16:24Z</time></trkpt><trkpt lat="43.77981641804297" lon="10.461272254650417"><ele>67.75</ele><time>2026-04-04T12:16:25Z</time></trkpt><trkpt lat="43.77973093136408" lon="10.461144245144448"><ele>68.0</ele><time>2026-04-04T12:16:26Z</time></trkpt><trkpt lat="43.77964562509646" lon="10.461005993619297"><ele>68.75</ele><time>2026-04-04T12:16:27Z</time></trkpt><trkpt lat="43.779551879284554" lon="10.460863758983672"><ele>69.5</ele><time>2026-04-04T12:16:28Z</time></trkpt><trkpt lat="43.77945394946378" lon="10.46071978180338"><ele>70.25</ele><time>2026-04-04T12:16:29Z</time></trkpt><trkpt lat="43.77936331054746" lon="10.460579290374884"><ele>71.0</ele><time>2026-04-04T12:16:30Z</time></trkpt><trkpt lat="43.77926852859579" lon="10.460429156367706"><ele>71.25</ele><time>2026-04-04T12:16:31Z</time></trkpt><trkpt lat="43.779172055351694" lon="10.460280457905993"><ele>71.5</ele><time>2026-04-04T12:16:32Z</time></trkpt><trkpt lat="43.77908279393112" lon="10.460145895747647"><ele>71.75</ele><time>2026-04-04T12:16:33Z</time></trkpt><trkpt lat="43.779002880350056" lon="10.460020354621339"><ele>72.0</ele><time>2026-04-04T12:16:34Z</time></trkpt><trkpt lat="43.778922415496915" lon="10.459895417883034"><ele>72.0</ele><time>2026-04-04T12:16:35Z</time></trkpt><trkpt lat="43.77883339368681" lon="10.459768944966594"><ele>72.0</ele><time>2026-04-04T12:16:36Z</time></trkpt><trkpt lat="43.77874013625451" lon="10.459639061484166"><ele>72.0</ele><time>2026-04-04T12:16:37Z</time></trkpt><trkpt lat="43.778655007396985" lon="10.459500506535406"><ele>72.0</ele><time>2026-04-04T12:16:38Z</time></trkpt><trkpt lat="43.778558120937255" lon="10.459362480123996"><ele>72.75</ele><time>2026-04-04T12:16:39Z</time></trkpt><trkpt lat="43.7784499744998" lon="10.459228376679727"><ele>73.5</ele><time>2026-04-04T12:16:40Z</time></trkpt><trkpt lat="43.77833536163635" lon="10.459122326806282"><ele>74.25</ele><time>2026-04-04T12:16:41Z</time></trkpt><trkpt lat="43.778215289746754" lon="10.459040467231224"><ele>75.0</ele><time>2026-04-04T12:16:42Z</time></trkpt><trkpt lat="43.77809233644651" lon="10.458982930074697"><ele>75.0</ele><time>2026-04-04T12:16:43Z</time></trkpt><trkpt lat="43.777958955747195" lon="10.458943693531426"><ele>75.0</ele><time>2026-04-04T12:16:44Z</time></trkpt><trkpt lat="43.777791548709054" lon="10.458938445181184"><ele>75.0</ele><time>2026-04-04T12:16:45Z</time></trkpt><trkpt lat="43.777592084868665" lon="10.458971694752043"><ele>76.0</ele><time>2026-04-04T12:16:46Z</time></trkpt><trkpt lat="43.77736138501003" lon="10.459000511233716"><ele>77.0</ele><time>2026-04-04T12:16:47Z</time></trkpt><trkpt lat="43.77715457292917" lon="10.45901383151867"><ele>78.0</ele><time>2026-04-04T12:16:48Z</time></trkpt><trkpt lat="43.776968894694484" lon="10.459028302477156"><ele>78.66666666666667</ele><time>2026-04-04T12:16:49Z</time></trkpt><trkpt lat="43.77680600629835" lon="10.459049260684564"><ele>79.33333333333334</ele><time>2026-04-04T12:16:50Z</time></trkpt><trkpt lat="43.7766456579176" lon="10.459068086934355"><ele>80.0</ele><time>2026-04-04T12:16:51Z</time></trkpt><trkpt lat="43.776478819913564" lon="10.459085895234065"><ele>80.0</ele><time>2026-04-04T12:16:52Z</time></trkpt><trkpt lat="43.776310738052686" lon="10.459104308652273"><ele>80.0</ele><time>2026-04-04T12:16:53Z</time></trkpt><trkpt lat="43.77614605550989" lon="10.459124179553383"><ele>80.0</ele><time>2026-04-04T12:16:54Z</time></trkpt><trkpt lat="43.77598265607169" lon="10.459145270428513"><ele>81.0</ele><time>2026-04-04T12:16:55Z</time></trkpt><trkpt lat="43.77581674803082" lon="10.459168914624238"><ele>82.0</ele><time>2026-04-04T12:16:56Z</time></trkpt><trkpt lat="43.77564950773142" lon="10.45919232936971"><ele>83.0</ele><time>2026-04-04T12:16:57Z</time></trkpt><trkpt lat="43.7754829484178" lon="10.45921741646299"><ele>83.0</ele><time>2026-04-04T12:16:58Z</time></trkpt><trkpt lat="43.77532539821115" lon="10.459228570408387"><ele>83.0</ele><time>2026-04-04T12:16:59Z</time></trkpt><trkpt lat="43.775184131697415" lon="10.459248940926848"><ele>83.0</ele><time>2026-04-04T12:17:00Z</time></trkpt><trkpt lat="43.7750438453305" lon="10.459269348434102"><ele>83.0</ele><time>2026-04-04T12:17:01Z</time></trkpt><trkpt lat="43.77490442355619" lon="10.45929111323106"><ele>83.0</ele><time>2026-04-04T12:17:02Z</time></trkpt><trkpt lat="43.77475098279429" lon="10.459309721179896"><ele>83.0</ele><time>2026-04-04T12:17:03Z</time></trkpt><trkpt lat="43.774563437245334" lon="10.459357308732702"><ele>83.0</ele><time>2026-04-04T12:17:04Z</time></trkpt><trkpt lat="43.77433460926433" lon="10.459426945132797"><ele>85.5</ele><time>2026-04-04T12:17:05Z</time></trkpt><trkpt lat="43.77402920946136" lon="10.459466032071255"><ele>88.0</ele><time>2026-04-04T12:17:06Z</time></trkpt><trkpt lat="43.773703581572065" lon="10.459577990980792"><ele>85.5</ele><time>2026-04-04T12:17:07Z</time></trkpt><trkpt lat="43.77337219289758" lon="10.459700522813513"><ele>83.0</ele><time>2026-04-04T12:17:08Z</time></trkpt><trkpt lat="43.773079834975576" lon="10.459813353064124"><ele>83.0</ele><time>2026-04-04T12:17:09Z</time></trkpt><trkpt lat="43.7728195116536" lon="10.459933234696104"><ele>83.0</ele><time>2026-04-04T12:17:10Z</time></trkpt><trkpt lat="43.77258216759656" lon="10.46001855084416"><ele>84.33333333333334</ele><time>2026-04-04T12:17:11Z</time></trkpt><trkpt lat="43.77238791638433" lon="10.460080109264991"><ele>85.66666666666667</ele><time>2026-04-04T12:17:12Z</time></trkpt><trkpt lat="43.77218967319047" lon="10.460069392054033"><ele>87.0</ele><time>2026-04-04T12:17:13Z</time></trkpt><trkpt lat="43.77196483885953" lon="10.460034818565576"><ele>88.33333333333333</ele><time>2026-04-04T12:17:14Z</time></trkpt><trkpt lat="43.77175243702355" lon="10.459981444262551"><ele>89.66666666666666</ele><time>2026-04-04T12:17:15Z</time></trkpt><trkpt lat="43.771565104958995" lon="10.459928686496088"><ele>91.0</ele><time>2026-04-04T12:17:16Z</time></trkpt><trkpt lat="43.771389531975" lon="10.45987381432936"><ele>91.0</ele><time>2026-04-04T12:17:17Z</time></trkpt><trkpt lat="43.77123096433761" lon="10.459790733210065"><ele>91.0</ele><time>2026-04-04T12:17:18Z</time></trkpt><trkpt lat="43.771084185880966" lon="10.459650086416357"><ele>91.0</ele><time>2026-04-04T12:17:19Z</time></trkpt><trkpt lat="43.77096260576075" lon="10.459453645351674"><ele>92.66666666666666</ele><time>2026-04-04T12:17:20Z</time></trkpt><trkpt lat="43.77083396322925" lon="10.459218723916374"><ele>94.33333333333333</ele><time>2026-04-04T12:17:21Z</time></trkpt><trkpt lat="43.770710929491365" lon="10.459026906676733"><ele>96.0</ele><time>2026-04-04T12:17:22Z</time></trkpt><trkpt lat="43.77051819120133" lon="10.45890527794318"><ele>99.5</ele><time>2026-04-04T12:17:23Z</time></trkpt><trkpt lat="43.77029762276946" lon="10.458764266237324"><ele>103.0</ele><time>2026-04-04T12:17:24Z</time></trkpt><trkpt lat="43.77010633785597" lon="10.458640708265223"><ele>103.0</ele><time>2026-04-04T12:17:25Z</time></trkpt><trkpt lat="43.76993647384739" lon="10.458514654900874"><ele>103.0</ele><time>2026-04-04T12:17:26Z</time></trkpt><trkpt lat="43.76981160095379" lon="10.458311010511316"><ele>103.0</ele><time>2026-04-04T12:17:27Z</time></trkpt><trkpt lat="43.769682554289346" lon="10.458128552968308"><ele>108.66666666666667</ele><time>2026-04-04T12:17:28Z</time></trkpt><trkpt lat="43.7695694995805" lon="10.457914425725468"><ele>114.33333333333334</ele><time>2026-04-04T12:17:29Z</time></trkpt><trkpt lat="43.76949828500547" lon="10.457672639339826"><ele>120.0</ele><time>2026-04-04T12:17:30Z</time></trkpt><trkpt lat="43.769438763033946" lon="10.457383028722472"><ele>125.0</ele><time>2026-04-04T12:17:31Z</time></trkpt><trkpt lat="43.76937018912683" lon="10.457050275935407"><ele>130.0</ele><time>2026-04-04T12:17:32Z</time></trkpt><trkpt lat="43.76930036468261" lon="10.456712577626504"><ele>130.0</ele><time>2026-04-04T12:17:33Z</time></trkpt><trkpt lat="43.7692345184621" lon="10.456405535395897"><ele>130.0</ele><time>2026-04-04T12:17:34Z</time></trkpt><trkpt lat="43.7691659113205" lon="10.456102883034971"><ele>138.66666666666669</ele><time>2026-04-04T12:17:35Z</time></trkpt><trkpt lat="43.769088537726404" lon="10.455812747706123"><ele>147.33333333333334</ele><time>2026-04-04T12:17:36Z</time></trkpt><trkpt lat="43.76902767781902" lon="10.455525817756625"><ele>156.0</ele><time>2026-04-04T12:17:37Z</time></trkpt><trkpt lat="43.7689839618623" lon="10.455045002601535"><ele>196.0</ele><time>2026-04-04T12:17:38.027Z</time></trkpt><trkpt lat="43.76860574143707" lon="10.453893225498042"><ele>201.0</ele><time>2026-04-04T12:17:41.717Z</time></trkpt><trkpt lat="43.768545887799675" lon="10.453560728940854"><ele>206.0</ele><time>2026-04-04T12:17:42.717Z</time></trkpt><trkpt lat="43.768471649241974" lon="10.453234776516549"><ele>218.5</ele><time>2026-04-04T12:17:43.717Z</time></trkpt><trkpt lat="43.76838339294183" lon="10.452914735875066"><ele>231.0</ele><time>2026-04-04T12:17:44.717Z</time></trkpt><trkpt lat="43.7683130848248" lon="10.452586971972899"><ele>231.0</ele><time>2026-04-04T12:17:45.717Z</time></trkpt><trkpt lat="43.76826304830466" lon="10.45225296848151"><ele>231.0</ele><time>2026-04-04T12:17:46.713Z</time></trkpt><trkpt lat="43.768199288130965" lon="10.451963127518901"><ele>238.0</ele><time>2026-04-04T12:17:47.717Z</time></trkpt><trkpt lat="43.76815377803064" lon="10.451586677467695"><ele>245.0</ele><time>2026-04-04T12:17:48.717Z</time></trkpt><trkpt lat="43.768091859863354" lon="10.451255993994174"><ele>245.0</ele><time>2026-04-04T12:17:49.715Z</time></trkpt><trkpt lat="43.7680940249255" lon="10.450916325348265"><ele>245.0</ele><time>2026-04-04T12:17:50.713Z</time></trkpt><trkpt lat="43.76802479430914" lon="10.449815171266392"><ele>235.5</ele><time>2026-04-04T12:17:51.714Z</time></trkpt><trkpt lat="43.7679963" lon="10.4496652"><ele>226.0</ele><time>2026-04-04T12:17:52.717Z</time></trkpt><trkpt lat="43.76729379858209" lon="10.445821273465581"><ele>188.0</ele><time>2026-04-04T12:18:05.05Z</time></trkpt><trkpt lat="43.767217125806916" lon="10.445661737169255"><ele>150.0</ele><time>2026-04-04T12:18:06Z</time></trkpt><trkpt lat="43.76708185696818" lon="10.445537509930944"><ele>112.0</ele><time>2026-04-04T12:18:07Z</time></trkpt><trkpt lat="43.7669429757637" lon="10.445497225001585"><ele>74.0</ele><time>2026-04-04T12:18:08Z</time></trkpt><trkpt lat="43.7667785867469" lon="10.445523562098026"><ele>72.0</ele><time>2026-04-04T12:18:09Z</time></trkpt><trkpt lat="43.76658200221085" lon="10.445671010511939"><ele>70.0</ele><time>2026-04-04T12:18:10Z</time></trkpt><trkpt lat="43.76641072532881" lon="10.445877240602853"><ele>70.0</ele><time>2026-04-04T12:18:11Z</time></trkpt><trkpt lat="43.76623220280422" lon="10.446085355376445"><ele>70.0</ele><time>2026-04-04T12:18:12Z</time></trkpt><trkpt lat="43.766015484287244" lon="10.446167131588862"><ele>71.33333333333333</ele><time>2026-04-04T12:18:13Z</time></trkpt><trkpt lat="43.765789008868076" lon="10.446289950254185"><ele>72.66666666666667</ele><time>2026-04-04T12:18:14Z</time></trkpt><trkpt lat="43.76563994511473" lon="10.446417690458825"><ele>74.0</ele><time>2026-04-04T12:18:15Z</time></trkpt><trkpt lat="43.765446785014454" lon="10.446566384763551"><ele>74.0</ele><time>2026-04-04T12:18:16Z</time></trkpt><trkpt lat="43.76525563612511" lon="10.44687089595639"><ele>74.0</ele><time>2026-04-04T12:18:17Z</time></trkpt><trkpt lat="43.76506291439312" lon="10.447214021865435"><ele>67.0</ele><time>2026-04-04T12:18:18Z</time></trkpt><trkpt lat="43.76489253099029" lon="10.447504376190686"><ele>60.0</ele><time>2026-04-04T12:18:19Z</time></trkpt><trkpt lat="43.764754576213825" lon="10.447718287914801"><ele>60.0</ele><time>2026-04-04T12:18:20Z</time></trkpt><trkpt lat="43.76464170630843" lon="10.447892842848674"><ele>60.0</ele><time>2026-04-04T12:18:21Z</time></trkpt><trkpt lat="43.76455264762239" lon="10.448051986753883"><ele>60.0</ele><time>2026-04-04T12:18:22Z</time></trkpt><trkpt lat="43.76447104461435" lon="10.448195617625856"><ele>60.0</ele><time>2026-04-04T12:18:23Z</time></trkpt><trkpt lat="43.76439134215816" lon="10.448308998990633"><ele>58.5</ele><time>2026-04-04T12:18:24Z</time></trkpt><trkpt lat="43.764285430565614" lon="10.448356060492863"><ele>57.0</ele><time>2026-04-04T12:18:25Z</time></trkpt><trkpt lat="43.76417767213496" lon="10.448335591646055"><ele>55.5</ele><time>2026-04-04T12:18:26Z</time></trkpt><trkpt lat="43.764054569625955" lon="10.448291758662089"><ele>54.0</ele><time>2026-04-04T12:18:27Z</time></trkpt><trkpt lat="43.763949708400006" lon="10.448181106546615"><ele>54.0</ele><time>2026-04-04T12:18:28Z</time></trkpt><trkpt lat="43.76388430190456" lon="10.448032195491692"><ele>54.0</ele><time>2026-04-04T12:18:29Z</time></trkpt><trkpt lat="43.763851850632044" lon="10.447829647740956"><ele>54.0</ele><time>2026-04-04T12:18:30Z</time></trkpt><trkpt lat="43.76389023932151" lon="10.447661140312361"><ele>54.0</ele><time>2026-04-04T12:18:31Z</time></trkpt><trkpt lat="43.763956351667126" lon="10.447518981873683"><ele>56.0</ele><time>2026-04-04T12:18:32Z</time></trkpt><trkpt lat="43.76405207260519" lon="10.447403544294588"><ele>58.0</ele><time>2026-04-04T12:18:33Z</time></trkpt><trkpt lat="43.764145751070494" lon="10.447341971093275"><ele>60.0</ele><time>2026-04-04T12:18:34Z</time></trkpt><trkpt lat="43.76456110375908" lon="10.447207539409705"><ele>54.666666666666664</ele><time>2026-04-04T12:18:35Z</time></trkpt><trkpt lat="43.76478941618839" lon="10.44711475230097"><ele>49.33333333333333</ele><time>2026-04-04T12:18:36Z</time></trkpt><trkpt lat="43.76497100442879" lon="10.44700431346935"><ele>44.0</ele><time>2026-04-04T12:18:37Z</time></trkpt><trkpt lat="43.76514153818459" lon="10.446842710552728"><ele>46.0</ele><time>2026-04-04T12:18:38Z</time></trkpt><trkpt lat="43.76529099986802" lon="10.446642677101796"><ele>48.0</ele><time>2026-04-04T12:18:39Z</time></trkpt><trkpt lat="43.76539586546196" lon="10.446425589638764"><ele>50.0</ele><time>2026-04-04T12:18:40Z</time></trkpt><trkpt lat="43.76549501511017" lon="10.446212107137253"><ele>50.0</ele><time>2026-04-04T12:18:41Z</time></trkpt><trkpt lat="43.76551456731126" lon="10.446019902876994"><ele>50.0</ele><time>2026-04-04T12:18:42Z</time></trkpt><trkpt lat="43.76550770318822" lon="10.445858579535791"><ele>50.0</ele><time>2026-04-04T12:18:43Z</time></trkpt><trkpt lat="43.76544140141529" lon="10.445687137776188"><ele>50.0</ele><time>2026-04-04T12:18:44Z</time></trkpt><trkpt lat="43.76532725045763" lon="10.445523233478038"><ele>45.333333333333336</ele><time>2026-04-04T12:18:45Z</time></trkpt><trkpt lat="43.76516836862975" lon="10.445430883018476"><ele>40.66666666666667</ele><time>2026-04-04T12:18:46Z</time></trkpt><trkpt lat="43.76499645666368" lon="10.445421672299062"><ele>36.0</ele><time>2026-04-04T12:18:47Z</time></trkpt><trkpt lat="43.764815330267204" lon="10.44547207758876"><ele>36.0</ele><time>2026-04-04T12:18:48Z</time></trkpt><trkpt lat="43.7646580915467" lon="10.44563757077242"><ele>36.0</ele><time>2026-04-04T12:18:49Z</time></trkpt><trkpt lat="43.76448910581268" lon="10.44591729292659"><ele>36.0</ele><time>2026-04-04T12:18:50Z</time></trkpt><trkpt lat="43.764311362311936" lon="10.446185120413666"><ele>36.0</ele><time>2026-04-04T12:18:51Z</time></trkpt><trkpt lat="43.764133879237214" lon="10.446418269500496"><ele>36.0</ele><time>2026-04-04T12:18:52Z</time></trkpt><trkpt lat="43.763958803311894" lon="10.446627516755823"><ele>36.0</ele><time>2026-04-04T12:18:53Z</time></trkpt><trkpt lat="43.76380801358707" lon="10.446757815496944"><ele>36.0</ele><time>2026-04-04T12:18:54Z</time></trkpt><trkpt lat="43.763712179803356" lon="10.446805106165101"><ele>36.0</ele><time>2026-04-04T12:18:55Z</time></trkpt><trkpt lat="43.76359215779088" lon="10.446818517921422"><ele>36.0</ele><time>2026-04-04T12:18:56Z</time></trkpt><trkpt lat="43.7634963476504" lon="10.446799249385453"><ele>36.0</ele><time>2026-04-04T12:18:57Z</time></trkpt><trkpt lat="43.763412571657895" lon="10.446697502064197"><ele>36.0</ele><time>2026-04-04T12:18:58Z</time></trkpt><trkpt lat="43.7633037824092" lon="10.446605603089822"><ele>33.5</ele><time>2026-04-04T12:18:59Z</time></trkpt><trkpt lat="43.76303327674603" lon="10.446376327745279"><ele>31.0</ele><time>2026-04-04T12:19:00Z</time></trkpt><trkpt lat="43.7628880156854" lon="10.446241225598323"><ele>28.5</ele><time>2026-04-04T12:19:01Z</time></trkpt><trkpt lat="43.76280301861519" lon="10.446106453872366"><ele>26.0</ele><time>2026-04-04T12:19:02Z</time></trkpt><trkpt lat="43.762772714726125" lon="10.445944582961252"><ele>23.5</ele><time>2026-04-04T12:19:03Z</time></trkpt><trkpt lat="43.762800086786974" lon="10.445756712237484"><ele>21.0</ele><time>2026-04-04T12:19:04Z</time></trkpt><trkpt lat="43.76288104442305" lon="10.44556265660268"><ele>19.333333333333332</ele><time>2026-04-04T12:19:05Z</time></trkpt><trkpt lat="43.763008906170434" lon="10.445445727663813"><ele>17.666666666666664</ele><time>2026-04-04T12:19:06Z</time></trkpt><trkpt lat="43.76315956039731" lon="10.445413295076206"><ele>16.0</ele><time>2026-04-04T12:19:07Z</time></trkpt><trkpt lat="43.76332675346148" lon="10.44543669874839"><ele>18.0</ele><time>2026-04-04T12:19:08Z</time></trkpt><trkpt lat="43.76353855499935" lon="10.445464873489467"><ele>20.0</ele><time>2026-04-04T12:19:09Z</time></trkpt><trkpt lat="43.76372920301332" lon="10.445467016179979"><ele>22.0</ele><time>2026-04-04T12:19:10Z</time></trkpt><trkpt lat="43.76388604215897" lon="10.445436299124506"><ele>22.0</ele><time>2026-04-04T12:19:11Z</time></trkpt><trkpt lat="43.76397853312979" lon="10.445308757477694"><ele>22.0</ele><time>2026-04-04T12:19:12Z</time></trkpt><trkpt lat="43.76406431144412" lon="10.445142284183481"><ele>22.0</ele><time>2026-04-04T12:19:13Z</time></trkpt><trkpt lat="43.76407458787301" lon="10.444928988804978"><ele>22.0</ele><time>2026-04-04T12:19:14Z</time></trkpt><trkpt lat="43.76406236303462" lon="10.44472022743607"><ele>22.666666666666664</ele><time>2026-04-04T12:19:15Z</time></trkpt><trkpt lat="43.76398418215354" lon="10.444539049089725"><ele>23.333333333333332</ele><time>2026-04-04T12:19:16Z</time></trkpt><trkpt lat="43.76386632623566" lon="10.444416603649358"><ele>24.0</ele><time>2026-04-04T12:19:17Z</time></trkpt><trkpt lat="43.763717279698646" lon="10.444350998977075"><ele>24.0</ele><time>2026-04-04T12:19:18Z</time></trkpt><trkpt lat="43.76354862771715" lon="10.444374996021958"><ele>24.0</ele><time>2026-04-04T12:19:19Z</time></trkpt><trkpt lat="43.76334579770143" lon="10.44451786287991"><ele>24.0</ele><time>2026-04-04T12:19:20Z</time></trkpt><trkpt lat="43.76309771930954" lon="10.444696940998956"><ele>21.333333333333332</ele><time>2026-04-04T12:19:21Z</time></trkpt><trkpt lat="43.762895781133565" lon="10.444836870780007"><ele>18.666666666666664</ele><time>2026-04-04T12:19:22Z</time></trkpt><trkpt lat="43.76269668827704" lon="10.444945195728263"><ele>16.0</ele><time>2026-04-04T12:19:23Z</time></trkpt><trkpt lat="43.762559592263585" lon="10.444988049764236"><ele>15.5</ele><time>2026-04-04T12:19:24Z</time></trkpt><trkpt lat="43.76245222046178" lon="10.444952816586179"><ele>15.0</ele><time>2026-04-04T12:19:25Z</time></trkpt><trkpt lat="43.762351236004186" lon="10.444846298217785"><ele>14.5</ele><time>2026-04-04T12:19:26Z</time></trkpt><trkpt lat="43.762224944480536" lon="10.444688310652323"><ele>14.0</ele><time>2026-04-04T12:19:27Z</time></trkpt><trkpt lat="43.762042188065635" lon="10.444460317424504"><ele>13.0</ele><time>2026-04-04T12:19:28Z</time></trkpt><trkpt lat="43.76188062393382" lon="10.444287597731138"><ele>12.0</ele><time>2026-04-04T12:19:29Z</time></trkpt><trkpt lat="43.76175348777568" lon="10.444097456384643"><ele>11.0</ele><time>2026-04-04T12:19:30Z</time></trkpt><trkpt lat="43.761617367011965" lon="10.443958353451782"><ele>11.0</ele><time>2026-04-04T12:19:31Z</time></trkpt><trkpt lat="43.76151897662509" lon="10.443825372259983"><ele>11.0</ele><time>2026-04-04T12:19:32Z</time></trkpt><trkpt lat="43.76143579928657" lon="10.443719583589065"><ele>11.0</ele><time>2026-04-04T12:19:33Z</time></trkpt><trkpt lat="43.761346086227555" lon="10.443606160701389"><ele>11.0</ele><time>2026-04-04T12:19:34Z</time></trkpt><trkpt lat="43.76108814474903" lon="10.443706235732293"><ele>8.0</ele><time>2026-04-04T12:19:35Z</time></trkpt><trkpt lat="43.760879166482674" lon="10.44371999708541"><ele>5.0</ele><time>2026-04-04T12:19:36Z</time></trkpt><trkpt lat="43.76062842690866" lon="10.443705178601613"><ele>5.0</ele><time>2026-04-04T12:19:37Z</time></trkpt><trkpt lat="43.76037965690323" lon="10.443675109910501"><ele>5.0</ele><time>2026-04-04T12:19:38Z</time></trkpt><trkpt lat="43.760162012537485" lon="10.443646570078121"><ele>5.0</ele><time>2026-04-04T12:19:39Z</time></trkpt><trkpt lat="43.75997892410352" lon="10.443620377327813"><ele>5.0</ele><time>2026-04-04T12:19:40Z</time></trkpt><trkpt lat="43.75979010171386" lon="10.443595745059413"><ele>5.0</ele><time>2026-04-04T12:19:41Z</time></trkpt><trkpt lat="43.75960992809251" lon="10.443572694612952"><ele>5.0</ele><time>2026-04-04T12:19:42Z</time></trkpt><trkpt lat="43.759451814941094" lon="10.44359264043167"><ele>5.0</ele><time>2026-04-04T12:19:43Z</time></trkpt><trkpt lat="43.75931198881712" lon="10.443629574302657"><ele>5.0</ele><time>2026-04-04T12:19:44Z</time></trkpt><trkpt lat="43.75917518458405" lon="10.44367035467094"><ele>5.0</ele><time>2026-04-04T12:19:45Z</time></trkpt><trkpt lat="43.7590268273172" lon="10.443694265440467"><ele>4.666666666666667</ele><time>2026-04-04T12:19:46Z</time></trkpt><trkpt lat="43.75885836151081" lon="10.443674843150287"><ele>4.333333333333333</ele><time>2026-04-04T12:19:47Z</time></trkpt><trkpt lat="43.75870479308787" lon="10.44363551447595"><ele>4.0</ele><time>2026-04-04T12:19:48Z</time></trkpt><trkpt lat="43.75856438878308" lon="10.443587980084587"><ele>3.8000000000000003</ele><time>2026-04-04T12:19:49Z</time></trkpt><trkpt lat="43.75843861203306" lon="10.443553279819763"><ele>3.6000000000000005</ele><time>2026-04-04T12:19:50Z</time></trkpt><trkpt lat="43.75832382715967" lon="10.443539381390945"><ele>3.4</ele><time>2026-04-04T12:19:51Z</time></trkpt><trkpt lat="43.75822200149771" lon="10.443560685020238"><ele>3.2</ele><time>2026-04-04T12:19:52Z</time></trkpt><trkpt lat="43.75813569213487" lon="10.443564922002116"><ele>3.0</ele><time>2026-04-04T12:19:53Z</time></trkpt><trkpt lat="43.75805682890322" lon="10.443562990253243"><ele>3.0</ele><time>2026-04-04T12:19:54Z</time></trkpt><trkpt lat="43.75799315735673" lon="10.443565316639733"><ele>3.0</ele><time>2026-04-04T12:19:55Z</time></trkpt><trkpt lat="43.75791042986629" lon="10.443486104822878"><ele>3.0</ele><time>2026-04-04T12:19:57Z</time></trkpt><trkpt lat="43.75790328700746" lon="10.44337316184881"><ele>3.0</ele><time>2026-04-04T12:19:58Z</time></trkpt><trkpt lat="43.7579122508165" lon="10.443277705515097"><ele>3.0</ele><time>2026-04-04T12:19:59Z</time></trkpt><trkpt lat="43.75781444467945" lon="10.44318349259068"><ele>3.0</ele><time>2026-04-04T12:20:01Z</time></trkpt><trkpt lat="43.757737037619734" lon="10.443253830138453"><ele>2.8</ele><time>2026-04-04T12:20:02Z</time></trkpt><trkpt lat="43.757685440008146" lon="10.443369931914196"><ele>2.5999999999999996</ele><time>2026-04-04T12:20:03Z</time></trkpt><trkpt lat="43.75766702960232" lon="10.443515303052651"><ele>2.4000000000000004</ele><time>2026-04-04T12:20:04Z</time></trkpt><trkpt lat="43.75763089045782" lon="10.443656820784758"><ele>2.2</ele><time>2026-04-04T12:20:05Z</time></trkpt><trkpt lat="43.75750197013069" lon="10.443643558292296"><ele>2.0</ele><time>2026-04-04T12:20:06Z</time></trkpt><trkpt lat="43.75741300270945" lon="10.443657385410104"><ele>2.0</ele><time>2026-04-04T12:20:07Z</time></trkpt><trkpt lat="43.75729584560643" lon="10.443687863593807"><ele>2.0</ele><time>2026-04-04T12:20:08Z</time></trkpt><trkpt lat="43.75715888665755" lon="10.44371461524305"><ele>2.0</ele><time>2026-04-04T12:20:09Z</time></trkpt><trkpt lat="43.75700010898843" lon="10.443733853908933"><ele>2.0</ele><time>2026-04-04T12:20:10Z</time></trkpt><trkpt lat="43.756844457667604" lon="10.443751402848138"><ele>2.0</ele><time>2026-04-04T12:20:11Z</time></trkpt><trkpt lat="43.75667075995848" lon="10.443770810434616"><ele>2.0</ele><time>2026-04-04T12:20:12Z</time></trkpt><trkpt lat="43.75643521032444" lon="10.44379756385376"><ele>2.0</ele><time>2026-04-04T12:20:13Z</time></trkpt><trkpt lat="43.75616473338143" lon="10.443828586979368"><ele>5.5</ele><time>2026-04-04T12:20:14Z</time></trkpt><trkpt lat="43.755837283755696" lon="10.443867762139897"><ele>9.0</ele><time>2026-04-04T12:20:15Z</time></trkpt><trkpt lat="43.75547195261481" lon="10.443911605542505"><ele>8.5</ele><time>2026-04-04T12:20:16Z</time></trkpt><trkpt lat="43.75512561170029" lon="10.443954800693596"><ele>8.0</ele><time>2026-04-04T12:20:17Z</time></trkpt><trkpt lat="43.75482058648117" lon="10.443993986946131"><ele>8.0</ele><time>2026-04-04T12:20:18Z</time></trkpt><trkpt lat="43.75457731445131" lon="10.44402434184489"><ele>8.0</ele><time>2026-04-04T12:20:19Z</time></trkpt><trkpt lat="43.75433176582008" lon="10.44405589447897"><ele>6.5</ele><time>2026-04-04T12:20:20Z</time></trkpt><trkpt lat="43.75410165545397" lon="10.444114637770587"><ele>5.0</ele><time>2026-04-04T12:20:21Z</time></trkpt><trkpt lat="43.75388716601712" lon="10.444189969078506"><ele>5.0</ele><time>2026-04-04T12:20:22Z</time></trkpt><trkpt lat="43.75369030243451" lon="10.444310372205454"><ele>5.0</ele><time>2026-04-04T12:20:23Z</time></trkpt><trkpt lat="43.7535163422567" lon="10.444459836635934"><ele>5.0</ele><time>2026-04-04T12:20:24Z</time></trkpt><trkpt lat="43.75337028201253" lon="10.444638500497216"><ele>6.5</ele><time>2026-04-04T12:20:25Z</time></trkpt><trkpt lat="43.75323817256419" lon="10.444886425464695"><ele>8.0</ele><time>2026-04-04T12:20:26Z</time></trkpt><trkpt lat="43.753124482699235" lon="10.445180699616671"><ele>9.5</ele><time>2026-04-04T12:20:27Z</time></trkpt><trkpt lat="43.753019057671885" lon="10.445553067278878"><ele>11.0</ele><time>2026-04-04T12:20:28Z</time></trkpt><trkpt lat="43.752927624330255" lon="10.445891452554008"><ele>11.0</ele><time>2026-04-04T12:20:29Z</time></trkpt><trkpt lat="43.752819150362335" lon="10.446183978899974"><ele>11.0</ele><time>2026-04-04T12:20:30Z</time></trkpt><trkpt lat="43.75274051127445" lon="10.446463138509156"><ele>8.5</ele><time>2026-04-04T12:20:31Z</time></trkpt><trkpt lat="43.75269066713548" lon="10.446751671848089"><ele>6.0</ele><time>2026-04-04T12:20:32Z</time></trkpt><trkpt lat="43.75267838198904" lon="10.447091824484353"><ele>7.0</ele><time>2026-04-04T12:20:33Z</time></trkpt><trkpt lat="43.75270403891248" lon="10.447480006034327"><ele>8.0</ele><time>2026-04-04T12:20:34Z</time></trkpt><trkpt lat="43.752765088421604" lon="10.44790092547534"><ele>23.0</ele><time>2026-04-04T12:20:35Z</time></trkpt><trkpt lat="43.75278215799461" lon="10.448254417596267"><ele>38.0</ele><time>2026-04-04T12:20:36Z</time></trkpt><trkpt lat="43.7527930549787" lon="10.44856466504993"><ele>34.5</ele><time>2026-04-04T12:20:37Z</time></trkpt><trkpt lat="43.75274519705496" lon="10.44889025896662"><ele>31.0</ele><time>2026-04-04T12:20:38Z</time></trkpt><trkpt lat="43.75268229997363" lon="10.449257281931894"><ele>17.5</ele><time>2026-04-04T12:20:39Z</time></trkpt><trkpt lat="43.75260852265114" lon="10.44966281683033"><ele>4.0</ele><time>2026-04-04T12:20:40Z</time></trkpt><trkpt lat="43.75250582142471" lon="10.45014472007498"><ele>6.5</ele><time>2026-04-04T12:20:41Z</time></trkpt><trkpt lat="43.75240715883736" lon="10.450568760222472"><ele>9.0</ele><time>2026-04-04T12:20:42Z</time></trkpt><trkpt lat="43.75232233004276" lon="10.450967741327236"><ele>15.0</ele><time>2026-04-04T12:20:43Z</time></trkpt><trkpt lat="43.75222308354373" lon="10.451338226016414"><ele>21.0</ele><time>2026-04-04T12:20:44Z</time></trkpt><trkpt lat="43.75210267304668" lon="10.451660528020552"><ele>21.0</ele><time>2026-04-04T12:20:45Z</time></trkpt><trkpt lat="43.75199766102555" lon="10.451942300803946"><ele>21.0</ele><time>2026-04-04T12:20:46Z</time></trkpt><trkpt lat="43.751870650202" lon="10.452158971003774"><ele>21.0</ele><time>2026-04-04T12:20:47Z</time></trkpt><trkpt lat="43.751712560731356" lon="10.452336714479527"><ele>17.0</ele><time>2026-04-04T12:20:48Z</time></trkpt><trkpt lat="43.751536302932976" lon="10.45250641241555"><ele>13.0</ele><time>2026-04-04T12:20:49Z</time></trkpt><trkpt lat="43.75134856775083" lon="10.452681260164999"><ele>9.0</ele><time>2026-04-04T12:20:50Z</time></trkpt><trkpt lat="43.7511751170181" lon="10.452841476991031"><ele>8.333333333333334</ele><time>2026-04-04T12:20:51Z</time></trkpt><trkpt lat="43.75100530201015" lon="10.453037783413258"><ele>7.666666666666667</ele><time>2026-04-04T12:20:52Z</time></trkpt><trkpt lat="43.750868491966365" lon="10.453165292154624"><ele>7.0</ele><time>2026-04-04T12:20:53Z</time></trkpt><trkpt lat="43.7507414169931" lon="10.45331168893296"><ele>7.0</ele><time>2026-04-04T12:20:54Z</time></trkpt><trkpt lat="43.750638184937905" lon="10.453503689120017"><ele>7.0</ele><time>2026-04-04T12:20:55Z</time></trkpt><trkpt lat="43.750562846059346" lon="10.45381862628126"><ele>7.0</ele><time>2026-04-04T12:20:56Z</time></trkpt><trkpt lat="43.75046219718912" lon="10.454213061980346"><ele>4.0</ele><time>2026-04-04T12:20:57Z</time></trkpt><trkpt lat="43.750328843170834" lon="10.454697700246795"><ele>1.0</ele><time>2026-04-04T12:20:58Z</time></trkpt><trkpt lat="43.750176069546065" lon="10.455188103839147"><ele>-0.5</ele><time>2026-04-04T12:20:59Z</time></trkpt><trkpt lat="43.750028353952416" lon="10.45569362266719"><ele>-2.0</ele><time>2026-04-04T12:21:00Z</time></trkpt><trkpt lat="43.74989719138234" lon="10.456164729905675"><ele>-2.0</ele><time>2026-04-04T12:21:01Z</time></trkpt><trkpt lat="43.74979192345732" lon="10.456571460049162"><ele>-2.0</ele><time>2026-04-04T12:21:02Z</time></trkpt><trkpt lat="43.74968318971206" lon="10.45694385433901"><ele>-2.0</ele><time>2026-04-04T12:21:03Z</time></trkpt><trkpt lat="43.749574744033524" lon="10.45728232412224"><ele>-2.0</ele><time>2026-04-04T12:21:04Z</time></trkpt><trkpt lat="43.749478906426226" lon="10.457608782354656"><ele>-2.0</ele><time>2026-04-04T12:21:05Z</time></trkpt><trkpt lat="43.74939052230725" lon="10.457919189071061"><ele>-2.0</ele><time>2026-04-04T12:21:06Z</time></trkpt><trkpt lat="43.749304533695486" lon="10.45820989258108"><ele>-1.6666666666666665</ele><time>2026-04-04T12:21:07Z</time></trkpt><trkpt lat="43.74922132027136" lon="10.45848578118761"><ele>-1.3333333333333333</ele><time>2026-04-04T12:21:08Z</time></trkpt><trkpt lat="43.7491442009307" lon="10.458755094915972"><ele>-1.0</ele><time>2026-04-04T12:21:09Z</time></trkpt><trkpt lat="43.74906232001612" lon="10.4590196328755"><ele>-0.6666666666666666</ele><time>2026-04-04T12:21:10Z</time></trkpt><trkpt lat="43.748986627285866" lon="10.459278955900468"><ele>-0.3333333333333333</ele><time>2026-04-04T12:21:11Z</time></trkpt><trkpt lat="43.74890613129671" lon="10.459542010097362"><ele>0.0</ele><time>2026-04-04T12:21:12Z</time></trkpt><trkpt lat="43.7488285061298" lon="10.45980552565895"><ele>0.3333333333333333</ele><time>2026-04-04T12:21:13Z</time></trkpt><trkpt lat="43.74875369013786" lon="10.460063100924954"><ele>0.6666666666666666</ele><time>2026-04-04T12:21:14Z</time></trkpt><trkpt lat="43.74867938931085" lon="10.460328655937142"><ele>1.0</ele><time>2026-04-04T12:21:15Z</time></trkpt><trkpt lat="43.74860309674339" lon="10.460589990423463"><ele>1.0</ele><time>2026-04-04T12:21:16Z</time></trkpt><trkpt lat="43.748532319229234" lon="10.460854932457309"><ele>1.0</ele><time>2026-04-04T12:21:17Z</time></trkpt><trkpt lat="43.74845079321868" lon="10.46111746578445"><ele>1.0</ele><time>2026-04-04T12:21:18Z</time></trkpt><trkpt lat="43.74837992378548" lon="10.461377604640582"><ele>1.0</ele><time>2026-04-04T12:21:19Z</time></trkpt><trkpt lat="43.74830495461615" lon="10.461638194434984"><ele>1.0</ele><time>2026-04-04T12:21:20Z</time></trkpt><trkpt lat="43.748225219825216" lon="10.461873443628074"><ele>1.0</ele><time>2026-04-04T12:21:21Z</time></trkpt><trkpt lat="43.74816407076193" lon="10.462096334063391"><ele>1.25</ele><time>2026-04-04T12:21:22Z</time></trkpt><trkpt lat="43.74810608136767" lon="10.462294516914499"><ele>1.5</ele><time>2026-04-04T12:21:23Z</time></trkpt><trkpt lat="43.74805514899478" lon="10.462468724217887"><ele>1.75</ele><time>2026-04-04T12:21:24Z</time></trkpt><trkpt lat="43.7480129371959" lon="10.46260770611549"><ele>2.0</ele><time>2026-04-04T12:21:25Z</time></trkpt><trkpt lat="43.747972642142884" lon="10.462710649708095"><ele>1.9999999999999998</ele><time>2026-04-04T12:21:26Z</time></trkpt><trkpt lat="43.7479313178797" lon="10.462810482517673"><ele>2.0</ele><time>2026-04-04T12:21:27Z</time></trkpt><trkpt lat="43.7478664248972" lon="10.462873972747023"><ele>2.0</ele><time>2026-04-04T12:21:29Z</time></trkpt><trkpt lat="43.747785519401596" lon="10.462920131264005"><ele>2.0</ele><time>2026-04-04T12:21:32Z</time></trkpt><trkpt lat="43.747696991551045" lon="10.462984395580378"><ele>1.9999999999999998</ele><time>2026-04-04T12:21:34Z</time></trkpt><trkpt lat="43.74763959788622" lon="10.463072290716033"><ele>2.0</ele><time>2026-04-04T12:21:35Z</time></trkpt><trkpt lat="43.74768952087223" lon="10.463231665855592"><ele>2.0</ele><time>2026-04-04T12:21:36Z</time></trkpt><trkpt lat="43.747642488352376" lon="10.46345472652225"><ele>2.0</ele><time>2026-04-04T12:21:37Z</time></trkpt><trkpt lat="43.747591279370084" lon="10.46368416190614"><ele>2.0</ele><time>2026-04-04T12:21:38Z</time></trkpt><trkpt lat="43.747411023094365" lon="10.463839706746366"><ele>2.6666666666666665</ele><time>2026-04-04T12:21:39Z</time></trkpt><trkpt lat="43.7472304479593" lon="10.463998805450586"><ele>3.333333333333333</ele><time>2026-04-04T12:21:40Z</time></trkpt><trkpt lat="43.747055194594935" lon="10.464169326074062"><ele>4.0</ele><time>2026-04-04T12:21:41Z</time></trkpt><trkpt lat="43.746869609296446" lon="10.46433507112252"><ele>4.0</ele><time>2026-04-04T12:21:42Z</time></trkpt><trkpt lat="43.74668649651907" lon="10.464504228733238"><ele>4.0</ele><time>2026-04-04T12:21:43Z</time></trkpt><trkpt lat="43.74650889423701" lon="10.464659620123832"><ele>4.0</ele><time>2026-04-04T12:21:44Z</time></trkpt><trkpt lat="43.746329906710365" lon="10.464832582214038"><ele>3.5</ele><time>2026-04-04T12:21:45Z</time></trkpt><trkpt lat="43.746141824790236" lon="10.464996163419197"><ele>3.0</ele><time>2026-04-04T12:21:46Z</time></trkpt><trkpt lat="43.74594410348093" lon="10.46516825085414"><ele>3.0</ele><time>2026-04-04T12:21:47Z</time></trkpt><trkpt lat="43.745756064559295" lon="10.465341154096864"><ele>3.0</ele><time>2026-04-04T12:21:48Z</time></trkpt><trkpt lat="43.74556493604968" lon="10.465520571252224"><ele>3.0</ele><time>2026-04-04T12:21:49Z</time></trkpt><trkpt lat="43.74536209239815" lon="10.465700832442169"><ele>3.0</ele><time>2026-04-04T12:21:50Z</time></trkpt><trkpt lat="43.74516299572022" lon="10.465886233359816"><ele>2.0</ele><time>2026-04-04T12:21:51Z</time></trkpt><trkpt lat="43.744959636708344" lon="10.466073592132874"><ele>1.0</ele><time>2026-04-04T12:21:52Z</time></trkpt><trkpt lat="43.744753786295725" lon="10.466258701727147"><ele>2.0</ele><time>2026-04-04T12:21:53Z</time></trkpt><trkpt lat="43.744544411711274" lon="10.466448819302748"><ele>3.0</ele><time>2026-04-04T12:21:54Z</time></trkpt><trkpt lat="43.744331919450445" lon="10.466644182605998"><ele>3.0</ele><time>2026-04-04T12:21:55Z</time></trkpt><trkpt lat="43.744109569928895" lon="10.46681745298314"><ele>3.0</ele><time>2026-04-04T12:21:56Z</time></trkpt><trkpt lat="43.74389625367427" lon="10.467021153562538"><ele>2.0</ele><time>2026-04-04T12:21:57Z</time></trkpt><trkpt lat="43.7436241912633" lon="10.467195552642258"><ele>1.0</ele><time>2026-04-04T12:21:58Z</time></trkpt><trkpt lat="43.74331131454387" lon="10.467416705423108"><ele>1.0</ele><time>2026-04-04T12:21:59Z</time></trkpt><trkpt lat="43.74300395720192" lon="10.467689438644756"><ele>1.0</ele><time>2026-04-04T12:22:00Z</time></trkpt><trkpt lat="43.74275628400398" lon="10.467962064973502"><ele>2.5</ele><time>2026-04-04T12:22:01Z</time></trkpt><trkpt lat="43.74251517410802" lon="10.468198168683026"><ele>4.0</ele><time>2026-04-04T12:22:02Z</time></trkpt><trkpt lat="43.742294262766194" lon="10.46837131246319"><ele>4.0</ele><time>2026-04-04T12:22:03Z</time></trkpt><trkpt lat="43.742103074879715" lon="10.468571058618892"><ele>4.0</ele><time>2026-04-04T12:22:04Z</time></trkpt><trkpt lat="43.741886755034386" lon="10.468685784942839"><ele>5.666666666666666</ele><time>2026-04-04T12:22:05Z</time></trkpt><trkpt lat="43.74170701212114" lon="10.468790534994474"><ele>7.333333333333333</ele><time>2026-04-04T12:22:06Z</time></trkpt><trkpt lat="43.7415488070731" lon="10.46897604159252"><ele>9.0</ele><time>2026-04-04T12:22:07Z</time></trkpt><trkpt lat="43.7414012714617" lon="10.469225492691226"><ele>9.0</ele><time>2026-04-04T12:22:08Z</time></trkpt><trkpt lat="43.74127581541318" lon="10.469519945556772"><ele>9.0</ele><time>2026-04-04T12:22:09Z</time></trkpt><trkpt lat="43.74121597967435" lon="10.469861333937896"><ele>7.333333333333333</ele><time>2026-04-04T12:22:10Z</time></trkpt><trkpt lat="43.741161451691106" lon="10.470146515008356"><ele>5.666666666666666</ele><time>2026-04-04T12:22:11Z</time></trkpt><trkpt lat="43.74109393191644" lon="10.470417641553524"><ele>4.0</ele><time>2026-04-04T12:22:12Z</time></trkpt><trkpt lat="43.74097958761175" lon="10.470631990755564"><ele>4.0</ele><time>2026-04-04T12:22:13Z</time></trkpt><trkpt lat="43.7408457073308" lon="10.470810138595215"><ele>4.0</ele><time>2026-04-04T12:22:14Z</time></trkpt><trkpt lat="43.74068275145396" lon="10.471015642922847"><ele>4.0</ele><time>2026-04-04T12:22:15Z</time></trkpt><trkpt lat="43.740537406261424" lon="10.471195880631754"><ele>3.333333333333333</ele><time>2026-04-04T12:22:16Z</time></trkpt><trkpt lat="43.74039673058037" lon="10.471370060469015"><ele>2.6666666666666665</ele><time>2026-04-04T12:22:17Z</time></trkpt><trkpt lat="43.74027804977366" lon="10.471516964536345"><ele>2.0</ele><time>2026-04-04T12:22:18Z</time></trkpt><trkpt lat="43.74015815058697" lon="10.471667062840352"><ele>2.0</ele><time>2026-04-04T12:22:19Z</time></trkpt><trkpt lat="43.740036344727685" lon="10.4718199838629"><ele>2.0</ele><time>2026-04-04T12:22:20Z</time></trkpt><trkpt lat="43.73991604123467" lon="10.471970101692996"><ele>2.0</ele><time>2026-04-04T12:22:21Z</time></trkpt><trkpt lat="43.73978733376278" lon="10.472127101698511"><ele>3.666666666666667</ele><time>2026-04-04T12:22:22Z</time></trkpt><trkpt lat="43.73965500896331" lon="10.472287150648109"><ele>5.333333333333334</ele><time>2026-04-04T12:22:23Z</time></trkpt><trkpt lat="43.739523401296495" lon="10.472443389471414"><ele>7.0</ele><time>2026-04-04T12:22:24Z</time></trkpt><trkpt lat="43.73940359437942" lon="10.472597823752281"><ele>5.666666666666667</ele><time>2026-04-04T12:22:25Z</time></trkpt><trkpt lat="43.739280607740895" lon="10.472737741452038"><ele>4.333333333333334</ele><time>2026-04-04T12:22:26Z</time></trkpt><trkpt lat="43.73914332890756" lon="10.472875608689929"><ele>3.0</ele><time>2026-04-04T12:22:27Z</time></trkpt><trkpt lat="43.73900485981779" lon="10.473008619934811"><ele>4.0</ele><time>2026-04-04T12:22:28Z</time></trkpt><trkpt lat="43.738863727554374" lon="10.473130581698653"><ele>5.0</ele><time>2026-04-04T12:22:29Z</time></trkpt><trkpt lat="43.73870421597161" lon="10.473205726549024"><ele>6.0</ele><time>2026-04-04T12:22:30Z</time></trkpt><trkpt lat="43.738540939508724" lon="10.473281713980738"><ele>6.0</ele><time>2026-04-04T12:22:31Z</time></trkpt><trkpt lat="43.73837619576659" lon="10.473342422761862"><ele>6.0</ele><time>2026-04-04T12:22:32Z</time></trkpt><trkpt lat="43.738207487419665" lon="10.47338755885548"><ele>6.0</ele><time>2026-04-04T12:22:33Z</time></trkpt><trkpt lat="43.73803703523178" lon="10.473414617850429"><ele>6.0</ele><time>2026-04-04T12:22:34Z</time></trkpt><trkpt lat="43.73786655601191" lon="10.473407671249348"><ele>6.0</ele><time>2026-04-04T12:22:35Z</time></trkpt><trkpt lat="43.737687393968464" lon="10.473383392205747"><ele>6.0</ele><time>2026-04-04T12:22:36Z</time></trkpt><trkpt lat="43.73752262868068" lon="10.473354809701489"><ele>5.666666666666667</ele><time>2026-04-04T12:22:37Z</time></trkpt><trkpt lat="43.73736278736006" lon="10.473324565866388"><ele>5.333333333333334</ele><time>2026-04-04T12:22:38Z</time></trkpt><trkpt lat="43.73720407364643" lon="10.473295107721214"><ele>5.0</ele><time>2026-04-04T12:22:39Z</time></trkpt><trkpt lat="43.737040481910306" lon="10.473288781715144"><ele>5.0</ele><time>2026-04-04T12:22:40Z</time></trkpt><trkpt lat="43.7368799778851" lon="10.473253392681203"><ele>5.0</ele><time>2026-04-04T12:22:41Z</time></trkpt><trkpt lat="43.73672150228624" lon="10.473235298831824"><ele>5.0</ele><time>2026-04-04T12:22:42Z</time></trkpt><trkpt lat="43.73656332298175" lon="10.47325961854001"><ele>5.0</ele><time>2026-04-04T12:22:43Z</time></trkpt><trkpt lat="43.736409103011134" lon="10.473313315539205"><ele>5.0</ele><time>2026-04-04T12:22:44Z</time></trkpt><trkpt lat="43.736272269328154" lon="10.473391437452953"><ele>5.0</ele><time>2026-04-04T12:22:45Z</time></trkpt><trkpt lat="43.73613241140947" lon="10.473476654908298"><ele>4.666666666666667</ele><time>2026-04-04T12:22:46Z</time></trkpt><trkpt lat="43.73599344014266" lon="10.473587905320107"><ele>4.333333333333333</ele><time>2026-04-04T12:22:47Z</time></trkpt><trkpt lat="43.735856898583435" lon="10.473697034194943"><ele>4.0</ele><time>2026-04-04T12:22:48Z</time></trkpt><trkpt lat="43.73573778092525" lon="10.47383511606566"><ele>4.0</ele><time>2026-04-04T12:22:49Z</time></trkpt><trkpt lat="43.7356374937781" lon="10.473993293422769"><ele>4.0</ele><time>2026-04-04T12:22:50Z</time></trkpt><trkpt lat="43.7355550836395" lon="10.474186777674804"><ele>4.0</ele><time>2026-04-04T12:22:51Z</time></trkpt><trkpt lat="43.73548700465024" lon="10.474405701936204"><ele>4.333333333333333</ele><time>2026-04-04T12:22:52Z</time></trkpt><trkpt lat="43.7354511903927" lon="10.474631828127224"><ele>4.666666666666667</ele><time>2026-04-04T12:22:53Z</time></trkpt><trkpt lat="43.73543436585889" lon="10.474911356353548"><ele>5.0</ele><time>2026-04-04T12:22:54Z</time></trkpt><trkpt lat="43.73543257574708" lon="10.47523860591178"><ele>4.5</ele><time>2026-04-04T12:22:55Z</time></trkpt><trkpt lat="43.73543052844544" lon="10.47558450609411"><ele>4.0</ele><time>2026-04-04T12:22:56Z</time></trkpt><trkpt lat="43.7353845378426" lon="10.475901806109857"><ele>4.0</ele><time>2026-04-04T12:22:57Z</time></trkpt><trkpt lat="43.73531972228825" lon="10.476187222788763"><ele>4.0</ele><time>2026-04-04T12:22:58Z</time></trkpt><trkpt lat="43.73520353922143" lon="10.47645161896821"><ele>4.0</ele><time>2026-04-04T12:22:59Z</time></trkpt><trkpt lat="43.73505887825371" lon="10.476746419493194"><ele>4.0</ele><time>2026-04-04T12:23:00Z</time></trkpt><trkpt lat="43.7348583452964" lon="10.476999160665164"><ele>4.0</ele><time>2026-04-04T12:23:01Z</time></trkpt><trkpt lat="43.73462508587247" lon="10.477230579985147"><ele>5.5</ele><time>2026-04-04T12:23:02Z</time></trkpt><trkpt lat="43.73438301891613" lon="10.477463719196704"><ele>7.0</ele><time>2026-04-04T12:23:03Z</time></trkpt><trkpt lat="43.73417829073588" lon="10.477681028000786"><ele>7.0</ele><time>2026-04-04T12:23:04Z</time></trkpt><trkpt lat="43.73397972243879" lon="10.47786499562895"><ele>7.0</ele><time>2026-04-04T12:23:05Z</time></trkpt><trkpt lat="43.733809416365546" lon="10.478041377482027"><ele>7.666666666666667</ele><time>2026-04-04T12:23:06Z</time></trkpt><trkpt lat="43.733644928043766" lon="10.47820409068512"><ele>8.333333333333334</ele><time>2026-04-04T12:23:07Z</time></trkpt><trkpt lat="43.733490196554484" lon="10.478359034265814"><ele>9.0</ele><time>2026-04-04T12:23:08Z</time></trkpt><trkpt lat="43.73333376643217" lon="10.478512037136639"><ele>9.0</ele><time>2026-04-04T12:23:09Z</time></trkpt><trkpt lat="43.73317717351915" lon="10.478648561218561"><ele>9.0</ele><time>2026-04-04T12:23:10Z</time></trkpt><trkpt lat="43.73302453222591" lon="10.478781061421582"><ele>9.0</ele><time>2026-04-04T12:23:11Z</time></trkpt><trkpt lat="43.73288135753488" lon="10.478929574925754"><ele>9.0</ele><time>2026-04-04T12:23:12Z</time></trkpt><trkpt lat="43.732731406509664" lon="10.479055512669873"><ele>9.0</ele><time>2026-04-04T12:23:13Z</time></trkpt><trkpt lat="43.732594161906896" lon="10.479199600653217"><ele>9.0</ele><time>2026-04-04T12:23:14Z</time></trkpt><trkpt lat="43.732456746943726" lon="10.479334851136562"><ele>8.333333333333334</ele><time>2026-04-04T12:23:15Z</time></trkpt><trkpt lat="43.73232949779572" lon="10.47948695266417"><ele>7.666666666666667</ele><time>2026-04-04T12:23:16Z</time></trkpt><trkpt lat="43.73220563676382" lon="10.479646196218802"><ele>7.0</ele><time>2026-04-04T12:23:17Z</time></trkpt><trkpt lat="43.73209276850265" lon="10.47982734933144"><ele>7.0</ele><time>2026-04-04T12:23:18Z</time></trkpt><trkpt lat="43.7319832698732" lon="10.479996970045793"><ele>7.0</ele><time>2026-04-04T12:23:19Z</time></trkpt><trkpt lat="43.73188504274461" lon="10.480155975354927"><ele>7.0</ele><time>2026-04-04T12:23:20Z</time></trkpt><trkpt lat="43.73179375955319" lon="10.480306485929159"><ele>6.25</ele><time>2026-04-04T12:23:21Z</time></trkpt><trkpt lat="43.73170780009289" lon="10.48044154188241"><ele>5.5</ele><time>2026-04-04T12:23:22Z</time></trkpt><trkpt lat="43.73162590025108" lon="10.480566099358212"><ele>4.75</ele><time>2026-04-04T12:23:23Z</time></trkpt><trkpt lat="43.73156938474288" lon="10.480666722805315"><ele>4.0</ele><time>2026-04-04T12:23:24Z</time></trkpt><trkpt lat="43.73167367654828" lon="10.480904689179786"><ele>4.0</ele><time>2026-04-04T12:23:25Z</time></trkpt><trkpt lat="43.73168848068446" lon="10.48102327691379"><ele>4.0</ele><time>2026-04-04T12:23:26Z</time></trkpt><trkpt lat="43.7316929626837" lon="10.48118645473248"><ele>4.0</ele><time>2026-04-04T12:23:27Z</time></trkpt><trkpt lat="43.73168918293633" lon="10.48131046428342"><ele>4.0</ele><time>2026-04-04T12:23:28Z</time></trkpt><trkpt lat="43.73171353513636" lon="10.481451544488646"><ele>4.0</ele><time>2026-04-04T12:23:29Z</time></trkpt><trkpt lat="43.73174266474143" lon="10.481604895366846"><ele>4.25</ele><time>2026-04-04T12:23:30Z</time></trkpt><trkpt lat="43.73178082816179" lon="10.481753533310384"><ele>4.5</ele><time>2026-04-04T12:23:31Z</time></trkpt><trkpt lat="43.73181372795206" lon="10.481900477062718"><ele>4.75</ele><time>2026-04-04T12:23:32Z</time></trkpt><trkpt lat="43.731844478596415" lon="10.48205581406092"><ele>5.0</ele><time>2026-04-04T12:23:33Z</time></trkpt><trkpt lat="43.73186865368252" lon="10.482212242964373"><ele>8.25</ele><time>2026-04-04T12:23:34Z</time></trkpt><trkpt lat="43.73190336964128" lon="10.482365469982167"><ele>11.5</ele><time>2026-04-04T12:23:35Z</time></trkpt><trkpt lat="43.73193196771767" lon="10.4825141665812"><ele>14.75</ele><time>2026-04-04T12:23:36Z</time></trkpt><trkpt lat="43.73196560594586" lon="10.48267659316337"><ele>18.0</ele><time>2026-04-04T12:23:37Z</time></trkpt><trkpt lat="43.73197236554884" lon="10.482831823011894"><ele>17.8</ele><time>2026-04-04T12:23:38Z</time></trkpt><trkpt lat="43.73198352914544" lon="10.482981962873518"><ele>17.6</ele><time>2026-04-04T12:23:39Z</time></trkpt><trkpt lat="43.73197878911432" lon="10.4831193646566"><ele>17.4</ele><time>2026-04-04T12:23:40Z</time></trkpt><trkpt lat="43.731968452395286" lon="10.483260369892932"><ele>17.2</ele><time>2026-04-04T12:23:41Z</time></trkpt><trkpt lat="43.731954766251526" lon="10.483405774186608"><ele>17.0</ele><time>2026-04-04T12:23:42Z</time></trkpt><trkpt lat="43.73193659315448" lon="10.483567699245322"><ele>17.0</ele><time>2026-04-04T12:23:43Z</time></trkpt><trkpt lat="43.7318996642465" lon="10.483758800560867"><ele>17.0</ele><time>2026-04-04T12:23:44Z</time></trkpt><trkpt lat="43.73185281576898" lon="10.483940249054887"><ele>17.0</ele><time>2026-04-04T12:23:45Z</time></trkpt><trkpt lat="43.73180290944196" lon="10.48411598413355"><ele>17.0</ele><time>2026-04-04T12:23:46Z</time></trkpt><trkpt lat="43.73175752126922" lon="10.48429864817644"><ele>14.333333333333334</ele><time>2026-04-04T12:23:47Z</time></trkpt><trkpt lat="43.73171255524581" lon="10.484499674162343"><ele>11.666666666666668</ele><time>2026-04-04T12:23:48Z</time></trkpt><trkpt lat="43.73167081760804" lon="10.484710391251115"><ele>9.0</ele><time>2026-04-04T12:23:49Z</time></trkpt><trkpt lat="43.731636104916966" lon="10.484912621887899"><ele>9.0</ele><time>2026-04-04T12:23:50Z</time></trkpt><trkpt lat="43.73161398149426" lon="10.48508677539966"><ele>9.0</ele><time>2026-04-04T12:23:51Z</time></trkpt><trkpt lat="43.731608245650584" lon="10.485240526668438"><ele>9.0</ele><time>2026-04-04T12:23:52Z</time></trkpt><trkpt lat="43.73160234719465" lon="10.48539861733787"><ele>9.0</ele><time>2026-04-04T12:23:53Z</time></trkpt><trkpt lat="43.7315946141891" lon="10.48556344652812"><ele>8.833333333333334</ele><time>2026-04-04T12:23:54Z</time></trkpt><trkpt lat="43.731583260518406" lon="10.48570678696206"><ele>8.666666666666666</ele><time>2026-04-04T12:23:55Z</time></trkpt><trkpt lat="43.731577726758225" lon="10.485822298601809"><ele>8.5</ele><time>2026-04-04T12:23:56Z</time></trkpt><trkpt lat="43.73156102879729" lon="10.485939241835464"><ele>8.333333333333332</ele><time>2026-04-04T12:23:58Z</time></trkpt><trkpt lat="43.7316424173194" lon="10.485947599980044"><ele>8.166666666666666</ele><time>2026-04-04T12:24:21Z</time></trkpt><trkpt lat="43.731733194613746" lon="10.485935966520744"><ele>8.0</ele><time>2026-04-04T12:24:23Z</time></trkpt><trkpt lat="43.731851033051726" lon="10.485842857125949"><ele>9.142857142857142</ele><time>2026-04-04T12:24:25Z</time></trkpt><trkpt lat="43.73193321046498" lon="10.485787393388259"><ele>10.285714285714285</ele><time>2026-04-04T12:24:27Z</time></trkpt><trkpt lat="43.73199564332355" lon="10.48576556173765"><ele>11.428571428571427</ele><time>2026-04-04T12:24:30Z</time></trkpt><trkpt lat="43.73199467170039" lon="10.48566572753923"><ele>12.571428571428571</ele><time>2026-04-04T12:24:33Z</time></trkpt><trkpt lat="43.731983015464046" lon="10.485575629167277"><ele>13.714285714285712</ele><time>2026-04-04T12:24:37Z</time></trkpt><trkpt lat="43.73205324850868" lon="10.485569731457794"><ele>14.857142857142856</ele><time>2026-04-04T12:24:58Z</time></trkpt><trkpt lat="43.73212739750787" lon="10.485558914810023"><ele>16.0</ele><time>2026-04-04T12:25:06Z</time></trkpt><trkpt lat="43.73214552000663" lon="10.485465515949059"><ele>16.0</ele><time>2026-04-04T12:25:59Z</time></trkpt><trkpt lat="43.73215675023908" lon="10.485280876136091"><ele>16.0</ele><time>2026-04-04T12:26:11Z</time></trkpt><trkpt lat="43.7322004347862" lon="10.485524294926845"><ele>16.0</ele><time>2026-04-04T12:26:28Z</time></trkpt><trkpt lat="43.732150365700406" lon="10.485465379473375"><ele>16.0</ele><time>2026-04-04T12:26:36Z</time></trkpt><trkpt lat="43.73218546033276" lon="10.485538205973475"><ele>16.0</ele><time>2026-04-04T12:28:24Z</time></trkpt><trkpt lat="43.73219328678115" lon="10.485433802291654"><ele>16.0</ele><time>2026-04-04T12:28:53Z</time></trkpt><trkpt lat="43.73214126853382" lon="10.485487610086883"><ele>16.0</ele><time>2026-04-04T12:31:54Z</time></trkpt><trkpt lat="43.73216699639137" lon="10.485406897374126"><ele>17.0</ele><time>2026-04-04T12:32:02Z</time></trkpt><trkpt lat="43.73218025820347" lon="10.48549967831925"><ele>16.0</ele><time>2026-04-04T13:21:25Z</time></trkpt><trkpt lat="43.73212193923261" lon="10.485458351460093"><ele>16.0</ele><time>2026-04-04T13:25:52Z</time></trkpt><trkpt lat="43.73216763407481" lon="10.485385504556207"><ele>17.0</ele><time>2026-04-04T14:30:44Z</time></trkpt></trkseg></trk></gpx>